<?xml version="1.0" encoding="UTF-8" standalone="no" ?>
<gpx xmlns="http://www.topografix.com/GPX/1/1" xmlns:xsi="http://www.w3.org/2001/XMLSchema-instance" xsi:schemaLocation="http://www.topografix.com/GPX/1/1 http://www.topografix.com/GPX/1/1/gpx.xsd" version="1.1" creator="VisuGPX - https://www.visugpx.com">
  <metadata>
    <name>Boucle autour de Morancé</name>
    <desc><![CDATA[P+S]]></desc>
  </metadata>
  <trk>
    <name><![CDATA[24 avr. 2023 04 24 boucle autour de Morancé]]></name>
    <desc><![CDATA[P+S]]></desc>
    <trkseg>
      <trkpt lat="45.85434" lon="4.70908">
        <ele>230.01543</ele>
        <time>2023-04-24T12:00:49.861Z</time>
      </trkpt>
      <trkpt lat="45.85436" lon="4.70909">
        <ele>228.23528</ele>
        <time>2023-04-24T12:00:58.000Z</time>
      </trkpt>
      <trkpt lat="45.85439" lon="4.7091">
        <ele>227.27673</ele>
        <time>2023-04-24T12:01:09.000Z</time>
      </trkpt>
      <trkpt lat="45.85441" lon="4.70911">
        <ele>226.67786</ele>
        <time>2023-04-24T12:01:10.000Z</time>
      </trkpt>
      <trkpt lat="45.85443" lon="4.70912">
        <ele>226.28325</ele>
        <time>2023-04-24T12:01:11.000Z</time>
      </trkpt>
      <trkpt lat="45.85446" lon="4.70913">
        <ele>226.00349</ele>
        <time>2023-04-24T12:01:12.000Z</time>
      </trkpt>
      <trkpt lat="45.85448" lon="4.70914">
        <ele>224.92752</ele>
        <time>2023-04-24T12:01:13.000Z</time>
      </trkpt>
      <trkpt lat="45.85452" lon="4.70913">
        <ele>224.12286</ele>
        <time>2023-04-24T12:01:14.000Z</time>
      </trkpt>
      <trkpt lat="45.85454" lon="4.70913">
        <ele>223.33206</ele>
        <time>2023-04-24T12:01:15.000Z</time>
      </trkpt>
      <trkpt lat="45.85457" lon="4.70913">
        <ele>223.29465</ele>
        <time>2023-04-24T12:01:16.000Z</time>
      </trkpt>
      <trkpt lat="45.8546" lon="4.70914">
        <ele>223.27089</ele>
        <time>2023-04-24T12:01:17.000Z</time>
      </trkpt>
      <trkpt lat="45.85463" lon="4.70914">
        <ele>223.26021</ele>
        <time>2023-04-24T12:01:18.000Z</time>
      </trkpt>
      <trkpt lat="45.85466" lon="4.70914">
        <ele>223.20802</ele>
        <time>2023-04-24T12:01:19.000Z</time>
      </trkpt>
      <trkpt lat="45.85469" lon="4.70915">
        <ele>223.17636</ele>
        <time>2023-04-24T12:01:20.000Z</time>
      </trkpt>
      <trkpt lat="45.85472" lon="4.70916">
        <ele>223.13696</ele>
        <time>2023-04-24T12:01:21.000Z</time>
      </trkpt>
      <trkpt lat="45.85476" lon="4.70917">
        <ele>223.04842</ele>
        <time>2023-04-24T12:01:22.000Z</time>
      </trkpt>
      <trkpt lat="45.8548" lon="4.70919">
        <ele>222.94704</ele>
        <time>2023-04-24T12:01:23.000Z</time>
      </trkpt>
      <trkpt lat="45.85483" lon="4.7092">
        <ele>222.88333</ele>
        <time>2023-04-24T12:01:24.000Z</time>
      </trkpt>
      <trkpt lat="45.85487" lon="4.70921">
        <ele>222.83467</ele>
        <time>2023-04-24T12:01:25.000Z</time>
      </trkpt>
      <trkpt lat="45.85492" lon="4.70923">
        <ele>222.76462</ele>
        <time>2023-04-24T12:01:26.000Z</time>
      </trkpt>
      <trkpt lat="45.85496" lon="4.70924">
        <ele>222.33835</ele>
        <time>2023-04-24T12:01:27.000Z</time>
      </trkpt>
      <trkpt lat="45.85501" lon="4.70926">
        <ele>222.05766</ele>
        <time>2023-04-24T12:01:28.000Z</time>
      </trkpt>
      <trkpt lat="45.85505" lon="4.70929">
        <ele>221.80151</ele>
        <time>2023-04-24T12:01:29.000Z</time>
      </trkpt>
      <trkpt lat="45.85509" lon="4.70929">
        <ele>221.59099</ele>
        <time>2023-04-24T12:01:30.000Z</time>
      </trkpt>
      <trkpt lat="45.85514" lon="4.7093">
        <ele>221.36568</ele>
        <time>2023-04-24T12:01:31.000Z</time>
      </trkpt>
      <trkpt lat="45.85518" lon="4.70929">
        <ele>221.14742</ele>
        <time>2023-04-24T12:01:32.000Z</time>
      </trkpt>
      <trkpt lat="45.85522" lon="4.7093">
        <ele>221.23239</ele>
        <time>2023-04-24T12:01:33.000Z</time>
      </trkpt>
      <trkpt lat="45.85526" lon="4.7093">
        <ele>221.34612</ele>
        <time>2023-04-24T12:01:34.000Z</time>
      </trkpt>
      <trkpt lat="45.85529" lon="4.70931">
        <ele>221.07108</ele>
        <time>2023-04-24T12:01:35.000Z</time>
      </trkpt>
      <trkpt lat="45.85533" lon="4.70931">
        <ele>220.48091</ele>
        <time>2023-04-24T12:01:36.000Z</time>
      </trkpt>
      <trkpt lat="45.85536" lon="4.70933">
        <ele>219.8418</ele>
        <time>2023-04-24T12:01:37.000Z</time>
      </trkpt>
      <trkpt lat="45.85539" lon="4.70934">
        <ele>219.33151</ele>
        <time>2023-04-24T12:01:38.000Z</time>
      </trkpt>
      <trkpt lat="45.85542" lon="4.70935">
        <ele>218.79831</ele>
        <time>2023-04-24T12:01:39.000Z</time>
      </trkpt>
      <trkpt lat="45.85546" lon="4.70936">
        <ele>218.21732</ele>
        <time>2023-04-24T12:01:40.000Z</time>
      </trkpt>
      <trkpt lat="45.85549" lon="4.70937">
        <ele>217.9292</ele>
        <time>2023-04-24T12:01:41.000Z</time>
      </trkpt>
      <trkpt lat="45.85553" lon="4.7094">
        <ele>217.68384</ele>
        <time>2023-04-24T12:01:42.000Z</time>
      </trkpt>
      <trkpt lat="45.85556" lon="4.70942">
        <ele>217.49788</ele>
        <time>2023-04-24T12:01:43.000Z</time>
      </trkpt>
      <trkpt lat="45.8556" lon="4.70944">
        <ele>217.31145</ele>
        <time>2023-04-24T12:01:44.000Z</time>
      </trkpt>
      <trkpt lat="45.85564" lon="4.70946">
        <ele>216.64412</ele>
        <time>2023-04-24T12:01:45.000Z</time>
      </trkpt>
      <trkpt lat="45.85567" lon="4.70949">
        <ele>215.99495</ele>
        <time>2023-04-24T12:01:46.000Z</time>
      </trkpt>
      <trkpt lat="45.85571" lon="4.70952">
        <ele>215.45569</ele>
        <time>2023-04-24T12:01:47.000Z</time>
      </trkpt>
      <trkpt lat="45.85574" lon="4.70956">
        <ele>214.9272</ele>
        <time>2023-04-24T12:01:48.000Z</time>
      </trkpt>
      <trkpt lat="45.85578" lon="4.70959">
        <ele>214.41833</ele>
        <time>2023-04-24T12:01:49.000Z</time>
      </trkpt>
      <trkpt lat="45.85581" lon="4.70962">
        <ele>213.88057</ele>
        <time>2023-04-24T12:01:50.000Z</time>
      </trkpt>
      <trkpt lat="45.85585" lon="4.70966">
        <ele>213.36975</ele>
        <time>2023-04-24T12:01:51.000Z</time>
      </trkpt>
      <trkpt lat="45.8559" lon="4.70969">
        <ele>212.85999</ele>
        <time>2023-04-24T12:01:52.000Z</time>
      </trkpt>
      <trkpt lat="45.85593" lon="4.70974">
        <ele>212.35938</ele>
        <time>2023-04-24T12:01:53.000Z</time>
      </trkpt>
      <trkpt lat="45.85597" lon="4.70979">
        <ele>211.82217</ele>
        <time>2023-04-24T12:01:54.000Z</time>
      </trkpt>
      <trkpt lat="45.85601" lon="4.70983">
        <ele>211.70261</ele>
        <time>2023-04-24T12:01:55.000Z</time>
      </trkpt>
      <trkpt lat="45.85605" lon="4.70988">
        <ele>211.61491</ele>
        <time>2023-04-24T12:01:56.000Z</time>
      </trkpt>
      <trkpt lat="45.85609" lon="4.70993">
        <ele>211.55412</ele>
        <time>2023-04-24T12:01:57.000Z</time>
      </trkpt>
      <trkpt lat="45.85613" lon="4.70998">
        <ele>211.35818</ele>
        <time>2023-04-24T12:01:58.000Z</time>
      </trkpt>
      <trkpt lat="45.85616" lon="4.71002">
        <ele>211.18164</ele>
        <time>2023-04-24T12:01:59.000Z</time>
      </trkpt>
      <trkpt lat="45.8562" lon="4.71008">
        <ele>211.04094</ele>
        <time>2023-04-24T12:02:00.000Z</time>
      </trkpt>
      <trkpt lat="45.85624" lon="4.71013">
        <ele>210.58098</ele>
        <time>2023-04-24T12:02:01.000Z</time>
      </trkpt>
      <trkpt lat="45.85628" lon="4.71019">
        <ele>210.09131</ele>
        <time>2023-04-24T12:02:02.000Z</time>
      </trkpt>
      <trkpt lat="45.85633" lon="4.71024">
        <ele>209.62161</ele>
        <time>2023-04-24T12:02:03.000Z</time>
      </trkpt>
      <trkpt lat="45.85637" lon="4.7103">
        <ele>209.1132</ele>
        <time>2023-04-24T12:02:04.000Z</time>
      </trkpt>
      <trkpt lat="45.85641" lon="4.71035">
        <ele>209.07381</ele>
        <time>2023-04-24T12:02:05.000Z</time>
      </trkpt>
      <trkpt lat="45.85646" lon="4.71039">
        <ele>209.04263</ele>
        <time>2023-04-24T12:02:06.000Z</time>
      </trkpt>
      <trkpt lat="45.8565" lon="4.71044">
        <ele>208.89226</ele>
        <time>2023-04-24T12:02:07.000Z</time>
      </trkpt>
      <trkpt lat="45.85653" lon="4.71047">
        <ele>208.76358</ele>
        <time>2023-04-24T12:02:08.000Z</time>
      </trkpt>
      <trkpt lat="45.85657" lon="4.71049">
        <ele>208.64925</ele>
        <time>2023-04-24T12:02:09.000Z</time>
      </trkpt>
      <trkpt lat="45.8566" lon="4.71051">
        <ele>208.54131</ele>
        <time>2023-04-24T12:02:11.000Z</time>
      </trkpt>
      <trkpt lat="45.85662" lon="4.7105">
        <ele>208.43649</ele>
        <time>2023-04-24T12:02:41.000Z</time>
      </trkpt>
      <trkpt lat="45.85664" lon="4.71052">
        <ele>208.3024</ele>
        <time>2023-04-24T12:02:42.000Z</time>
      </trkpt>
      <trkpt lat="45.85666" lon="4.71054">
        <ele>208.15349</ele>
        <time>2023-04-24T12:02:43.000Z</time>
      </trkpt>
      <trkpt lat="45.85669" lon="4.71054">
        <ele>208.02551</ele>
        <time>2023-04-24T12:02:44.000Z</time>
      </trkpt>
      <trkpt lat="45.85672" lon="4.71055">
        <ele>207.93156</ele>
        <time>2023-04-24T12:02:45.000Z</time>
      </trkpt>
      <trkpt lat="45.85675" lon="4.71056">
        <ele>207.81865</ele>
        <time>2023-04-24T12:02:46.000Z</time>
      </trkpt>
      <trkpt lat="45.85678" lon="4.71058">
        <ele>207.70537</ele>
        <time>2023-04-24T12:02:47.000Z</time>
      </trkpt>
      <trkpt lat="45.85682" lon="4.7106">
        <ele>207.60786</ele>
        <time>2023-04-24T12:02:48.000Z</time>
      </trkpt>
      <trkpt lat="45.85685" lon="4.71062">
        <ele>207.49905</ele>
        <time>2023-04-24T12:02:49.000Z</time>
      </trkpt>
      <trkpt lat="45.85688" lon="4.71064">
        <ele>207.37521</ele>
        <time>2023-04-24T12:02:50.000Z</time>
      </trkpt>
      <trkpt lat="45.85692" lon="4.71067">
        <ele>207.26956</ele>
        <time>2023-04-24T12:02:51.000Z</time>
      </trkpt>
      <trkpt lat="45.85695" lon="4.71069">
        <ele>207.19307</ele>
        <time>2023-04-24T12:02:52.000Z</time>
      </trkpt>
      <trkpt lat="45.85698" lon="4.71072">
        <ele>207.0507</ele>
        <time>2023-04-24T12:02:53.000Z</time>
      </trkpt>
      <trkpt lat="45.85701" lon="4.71076">
        <ele>206.90262</ele>
        <time>2023-04-24T12:02:54.000Z</time>
      </trkpt>
      <trkpt lat="45.85705" lon="4.71079">
        <ele>206.73918</ele>
        <time>2023-04-24T12:02:55.000Z</time>
      </trkpt>
      <trkpt lat="45.85708" lon="4.71083">
        <ele>206.5657</ele>
        <time>2023-04-24T12:02:56.000Z</time>
      </trkpt>
      <trkpt lat="45.8571" lon="4.71086">
        <ele>206.41264</ele>
        <time>2023-04-24T12:02:57.000Z</time>
      </trkpt>
      <trkpt lat="45.85713" lon="4.71088">
        <ele>206.24792</ele>
        <time>2023-04-24T12:02:58.000Z</time>
      </trkpt>
      <trkpt lat="45.85716" lon="4.7109">
        <ele>206.0533</ele>
        <time>2023-04-24T12:02:59.000Z</time>
      </trkpt>
      <trkpt lat="45.85719" lon="4.71092">
        <ele>205.8551</ele>
        <time>2023-04-24T12:03:00.000Z</time>
      </trkpt>
      <trkpt lat="45.85722" lon="4.71094">
        <ele>205.64059</ele>
        <time>2023-04-24T12:03:01.000Z</time>
      </trkpt>
      <trkpt lat="45.85724" lon="4.71097">
        <ele>205.44426</ele>
        <time>2023-04-24T12:03:02.000Z</time>
      </trkpt>
      <trkpt lat="45.85727" lon="4.711">
        <ele>205.23633</ele>
        <time>2023-04-24T12:03:03.000Z</time>
      </trkpt>
      <trkpt lat="45.85729" lon="4.71102">
        <ele>204.98813</ele>
        <time>2023-04-24T12:03:04.000Z</time>
      </trkpt>
      <trkpt lat="45.85732" lon="4.71105">
        <ele>204.73729</ele>
        <time>2023-04-24T12:03:05.000Z</time>
      </trkpt>
      <trkpt lat="45.85736" lon="4.71108">
        <ele>204.46257</ele>
        <time>2023-04-24T12:03:06.000Z</time>
      </trkpt>
      <trkpt lat="45.85739" lon="4.71112">
        <ele>204.20056</ele>
        <time>2023-04-24T12:03:07.000Z</time>
      </trkpt>
      <trkpt lat="45.85743" lon="4.71116">
        <ele>203.90317</ele>
        <time>2023-04-24T12:03:08.000Z</time>
      </trkpt>
      <trkpt lat="45.85749" lon="4.71119">
        <ele>203.64476</ele>
        <time>2023-04-24T12:03:09.000Z</time>
      </trkpt>
      <trkpt lat="45.85754" lon="4.71123">
        <ele>203.38408</ele>
        <time>2023-04-24T12:03:10.000Z</time>
      </trkpt>
      <trkpt lat="45.85759" lon="4.71128">
        <ele>203.1261</ele>
        <time>2023-04-24T12:03:11.000Z</time>
      </trkpt>
      <trkpt lat="45.85763" lon="4.71134">
        <ele>202.84509</ele>
        <time>2023-04-24T12:03:12.000Z</time>
      </trkpt>
      <trkpt lat="45.85766" lon="4.71139">
        <ele>202.5463</ele>
        <time>2023-04-24T12:03:13.000Z</time>
      </trkpt>
      <trkpt lat="45.85769" lon="4.71146">
        <ele>202.2377</ele>
        <time>2023-04-24T12:03:14.000Z</time>
      </trkpt>
      <trkpt lat="45.85771" lon="4.71152">
        <ele>201.93092</ele>
        <time>2023-04-24T12:03:15.000Z</time>
      </trkpt>
      <trkpt lat="45.85773" lon="4.71158">
        <ele>201.58563</ele>
        <time>2023-04-24T12:03:16.000Z</time>
      </trkpt>
      <trkpt lat="45.85774" lon="4.71163">
        <ele>201.21994</ele>
        <time>2023-04-24T12:03:17.000Z</time>
      </trkpt>
      <trkpt lat="45.85776" lon="4.71167">
        <ele>200.85333</ele>
        <time>2023-04-24T12:03:18.000Z</time>
      </trkpt>
      <trkpt lat="45.85777" lon="4.71169">
        <ele>200.49187</ele>
        <time>2023-04-24T12:03:19.000Z</time>
      </trkpt>
      <trkpt lat="45.85778" lon="4.71171">
        <ele>200.13509</ele>
        <time>2023-04-24T12:03:20.000Z</time>
      </trkpt>
      <trkpt lat="45.85781" lon="4.7117">
        <ele>199.76762</ele>
        <time>2023-04-24T12:03:22.000Z</time>
      </trkpt>
      <trkpt lat="45.85782" lon="4.71167">
        <ele>199.41428</ele>
        <time>2023-04-24T12:03:25.000Z</time>
      </trkpt>
      <trkpt lat="45.85784" lon="4.71164">
        <ele>199.12433</ele>
        <time>2023-04-24T12:03:27.000Z</time>
      </trkpt>
      <trkpt lat="45.85784" lon="4.71161">
        <ele>198.85121</ele>
        <time>2023-04-24T12:03:35.000Z</time>
      </trkpt>
      <trkpt lat="45.85785" lon="4.71159">
        <ele>198.63422</ele>
        <time>2023-04-24T12:03:37.000Z</time>
      </trkpt>
      <trkpt lat="45.85785" lon="4.71156">
        <ele>198.44431</ele>
        <time>2023-04-24T12:03:38.000Z</time>
      </trkpt>
      <trkpt lat="45.85786" lon="4.71153">
        <ele>198.2672</ele>
        <time>2023-04-24T12:03:39.000Z</time>
      </trkpt>
      <trkpt lat="45.85785" lon="4.71149">
        <ele>198.0948</ele>
        <time>2023-04-24T12:03:40.000Z</time>
      </trkpt>
      <trkpt lat="45.85785" lon="4.71145">
        <ele>197.9194</ele>
        <time>2023-04-24T12:03:41.000Z</time>
      </trkpt>
      <trkpt lat="45.85785" lon="4.71142">
        <ele>197.74536</ele>
        <time>2023-04-24T12:03:42.000Z</time>
      </trkpt>
      <trkpt lat="45.85787" lon="4.71139">
        <ele>197.6039</ele>
        <time>2023-04-24T12:03:44.000Z</time>
      </trkpt>
      <trkpt lat="45.8579" lon="4.71139">
        <ele>197.44682</ele>
        <time>2023-04-24T12:03:45.000Z</time>
      </trkpt>
      <trkpt lat="45.85792" lon="4.71139">
        <ele>197.30386</ele>
        <time>2023-04-24T12:03:46.000Z</time>
      </trkpt>
      <trkpt lat="45.85795" lon="4.71141">
        <ele>197.20044</ele>
        <time>2023-04-24T12:03:48.000Z</time>
      </trkpt>
      <trkpt lat="45.85796" lon="4.71143">
        <ele>197.1386</ele>
        <time>2023-04-24T12:03:49.000Z</time>
      </trkpt>
      <trkpt lat="45.85798" lon="4.71147">
        <ele>197.11314</ele>
        <time>2023-04-24T12:03:51.000Z</time>
      </trkpt>
      <trkpt lat="45.858" lon="4.71149">
        <ele>197.09259</ele>
        <time>2023-04-24T12:03:52.000Z</time>
      </trkpt>
      <trkpt lat="45.85802" lon="4.71149">
        <ele>197.09241</ele>
        <time>2023-04-24T12:03:53.000Z</time>
      </trkpt>
      <trkpt lat="45.85805" lon="4.71146">
        <ele>197.10857</ele>
        <time>2023-04-24T12:03:54.000Z</time>
      </trkpt>
      <trkpt lat="45.85807" lon="4.71142">
        <ele>197.11153</ele>
        <time>2023-04-24T12:03:55.000Z</time>
      </trkpt>
      <trkpt lat="45.85809" lon="4.71138">
        <ele>197.11795</ele>
        <time>2023-04-24T12:03:56.000Z</time>
      </trkpt>
      <trkpt lat="45.85811" lon="4.71133">
        <ele>197.12947</ele>
        <time>2023-04-24T12:03:57.000Z</time>
      </trkpt>
      <trkpt lat="45.85814" lon="4.71128">
        <ele>197.09642</ele>
        <time>2023-04-24T12:03:58.000Z</time>
      </trkpt>
      <trkpt lat="45.85815" lon="4.7112">
        <ele>197.05942</ele>
        <time>2023-04-24T12:03:59.000Z</time>
      </trkpt>
      <trkpt lat="45.85818" lon="4.71115">
        <ele>196.99702</ele>
        <time>2023-04-24T12:04:00.000Z</time>
      </trkpt>
      <trkpt lat="45.85822" lon="4.7111">
        <ele>196.927</ele>
        <time>2023-04-24T12:04:01.000Z</time>
      </trkpt>
      <trkpt lat="45.85826" lon="4.71105">
        <ele>196.83984</ele>
        <time>2023-04-24T12:04:02.000Z</time>
      </trkpt>
      <trkpt lat="45.85829" lon="4.711">
        <ele>196.77257</ele>
        <time>2023-04-24T12:04:03.000Z</time>
      </trkpt>
      <trkpt lat="45.85832" lon="4.71095">
        <ele>196.69589</ele>
        <time>2023-04-24T12:04:04.000Z</time>
      </trkpt>
      <trkpt lat="45.85836" lon="4.7109">
        <ele>196.63777</ele>
        <time>2023-04-24T12:04:05.000Z</time>
      </trkpt>
      <trkpt lat="45.85838" lon="4.71085">
        <ele>196.58463</ele>
        <time>2023-04-24T12:04:06.000Z</time>
      </trkpt>
      <trkpt lat="45.85841" lon="4.71079">
        <ele>196.59042</ele>
        <time>2023-04-24T12:04:07.000Z</time>
      </trkpt>
      <trkpt lat="45.85844" lon="4.71074">
        <ele>196.61624</ele>
        <time>2023-04-24T12:04:08.000Z</time>
      </trkpt>
      <trkpt lat="45.85848" lon="4.71068">
        <ele>196.61328</ele>
        <time>2023-04-24T12:04:09.000Z</time>
      </trkpt>
      <trkpt lat="45.85851" lon="4.71064">
        <ele>196.5612</ele>
        <time>2023-04-24T12:04:10.000Z</time>
      </trkpt>
      <trkpt lat="45.85855" lon="4.71059">
        <ele>196.5336</ele>
        <time>2023-04-24T12:04:11.000Z</time>
      </trkpt>
      <trkpt lat="45.85858" lon="4.71054">
        <ele>196.50955</ele>
        <time>2023-04-24T12:04:12.000Z</time>
      </trkpt>
      <trkpt lat="45.85862" lon="4.71049">
        <ele>196.45151</ele>
        <time>2023-04-24T12:04:13.000Z</time>
      </trkpt>
      <trkpt lat="45.85866" lon="4.71044">
        <ele>196.40115</ele>
        <time>2023-04-24T12:04:14.000Z</time>
      </trkpt>
      <trkpt lat="45.85869" lon="4.7104">
        <ele>196.33302</ele>
        <time>2023-04-24T12:04:15.000Z</time>
      </trkpt>
      <trkpt lat="45.85873" lon="4.71035">
        <ele>196.28996</ele>
        <time>2023-04-24T12:04:16.000Z</time>
      </trkpt>
      <trkpt lat="45.85877" lon="4.71031">
        <ele>196.23215</ele>
        <time>2023-04-24T12:04:17.000Z</time>
      </trkpt>
      <trkpt lat="45.85881" lon="4.71026">
        <ele>196.17076</ele>
        <time>2023-04-24T12:04:18.000Z</time>
      </trkpt>
      <trkpt lat="45.85885" lon="4.71021">
        <ele>196.11893</ele>
        <time>2023-04-24T12:04:19.000Z</time>
      </trkpt>
      <trkpt lat="45.85889" lon="4.71017">
        <ele>196.05931</ele>
        <time>2023-04-24T12:04:20.000Z</time>
      </trkpt>
      <trkpt lat="45.85893" lon="4.71012">
        <ele>196.0067</ele>
        <time>2023-04-24T12:04:21.000Z</time>
      </trkpt>
      <trkpt lat="45.85897" lon="4.71008">
        <ele>195.9462</ele>
        <time>2023-04-24T12:04:22.000Z</time>
      </trkpt>
      <trkpt lat="45.85902" lon="4.71004">
        <ele>195.8226</ele>
        <time>2023-04-24T12:04:23.000Z</time>
      </trkpt>
      <trkpt lat="45.85907" lon="4.70998">
        <ele>195.71469</ele>
        <time>2023-04-24T12:04:24.000Z</time>
      </trkpt>
      <trkpt lat="45.8591" lon="4.70993">
        <ele>195.60663</ele>
        <time>2023-04-24T12:04:25.000Z</time>
      </trkpt>
      <trkpt lat="45.85915" lon="4.70988">
        <ele>195.47028</ele>
        <time>2023-04-24T12:04:26.000Z</time>
      </trkpt>
      <trkpt lat="45.85919" lon="4.70983">
        <ele>195.30029</ele>
        <time>2023-04-24T12:04:27.000Z</time>
      </trkpt>
      <trkpt lat="45.85924" lon="4.70979">
        <ele>195.11485</ele>
        <time>2023-04-24T12:04:28.000Z</time>
      </trkpt>
      <trkpt lat="45.85929" lon="4.70976">
        <ele>194.93234</ele>
        <time>2023-04-24T12:04:29.000Z</time>
      </trkpt>
      <trkpt lat="45.85934" lon="4.70973">
        <ele>194.81236</ele>
        <time>2023-04-24T12:04:30.000Z</time>
      </trkpt>
      <trkpt lat="45.85938" lon="4.70971">
        <ele>194.65958</ele>
        <time>2023-04-24T12:04:31.000Z</time>
      </trkpt>
      <trkpt lat="45.85944" lon="4.7097">
        <ele>194.50322</ele>
        <time>2023-04-24T12:04:32.000Z</time>
      </trkpt>
      <trkpt lat="45.8595" lon="4.70969">
        <ele>194.38144</ele>
        <time>2023-04-24T12:04:33.000Z</time>
      </trkpt>
      <trkpt lat="45.85955" lon="4.70969">
        <ele>194.26059</ele>
        <time>2023-04-24T12:04:34.000Z</time>
      </trkpt>
      <trkpt lat="45.8596" lon="4.7097">
        <ele>194.15254</ele>
        <time>2023-04-24T12:04:35.000Z</time>
      </trkpt>
      <trkpt lat="45.85965" lon="4.7097">
        <ele>194.00433</ele>
        <time>2023-04-24T12:04:36.000Z</time>
      </trkpt>
      <trkpt lat="45.8597" lon="4.70971">
        <ele>193.92264</ele>
        <time>2023-04-24T12:04:37.000Z</time>
      </trkpt>
      <trkpt lat="45.85975" lon="4.70972">
        <ele>193.86226</ele>
        <time>2023-04-24T12:04:38.000Z</time>
      </trkpt>
      <trkpt lat="45.8598" lon="4.70974">
        <ele>193.79605</ele>
        <time>2023-04-24T12:04:39.000Z</time>
      </trkpt>
      <trkpt lat="45.85985" lon="4.70976">
        <ele>193.72781</ele>
        <time>2023-04-24T12:04:40.000Z</time>
      </trkpt>
      <trkpt lat="45.85989" lon="4.70978">
        <ele>193.67026</ele>
        <time>2023-04-24T12:04:41.000Z</time>
      </trkpt>
      <trkpt lat="45.85994" lon="4.70981">
        <ele>193.54999</ele>
        <time>2023-04-24T12:04:42.000Z</time>
      </trkpt>
      <trkpt lat="45.85999" lon="4.70985">
        <ele>193.51291</ele>
        <time>2023-04-24T12:04:43.000Z</time>
      </trkpt>
      <trkpt lat="45.86004" lon="4.70988">
        <ele>193.45076</ele>
        <time>2023-04-24T12:04:44.000Z</time>
      </trkpt>
      <trkpt lat="45.86008" lon="4.70992">
        <ele>193.38234</ele>
        <time>2023-04-24T12:04:45.000Z</time>
      </trkpt>
      <trkpt lat="45.86013" lon="4.70996">
        <ele>193.31305</ele>
        <time>2023-04-24T12:04:46.000Z</time>
      </trkpt>
      <trkpt lat="45.86017" lon="4.71001">
        <ele>193.25287</ele>
        <time>2023-04-24T12:04:47.000Z</time>
      </trkpt>
      <trkpt lat="45.8602" lon="4.71005">
        <ele>193.18755</ele>
        <time>2023-04-24T12:04:48.000Z</time>
      </trkpt>
      <trkpt lat="45.86023" lon="4.7101">
        <ele>193.14571</ele>
        <time>2023-04-24T12:04:49.000Z</time>
      </trkpt>
      <trkpt lat="45.86026" lon="4.71015">
        <ele>193.08809</ele>
        <time>2023-04-24T12:04:50.000Z</time>
      </trkpt>
      <trkpt lat="45.86028" lon="4.71021">
        <ele>193.04152</ele>
        <time>2023-04-24T12:04:51.000Z</time>
      </trkpt>
      <trkpt lat="45.8603" lon="4.71026">
        <ele>193.03256</ele>
        <time>2023-04-24T12:04:52.000Z</time>
      </trkpt>
      <trkpt lat="45.86033" lon="4.71033">
        <ele>193.03247</ele>
        <time>2023-04-24T12:04:53.000Z</time>
      </trkpt>
      <trkpt lat="45.86035" lon="4.7104">
        <ele>193.03535</ele>
        <time>2023-04-24T12:04:54.000Z</time>
      </trkpt>
      <trkpt lat="45.86036" lon="4.71048">
        <ele>193.04991</ele>
        <time>2023-04-24T12:04:55.000Z</time>
      </trkpt>
      <trkpt lat="45.86036" lon="4.71055">
        <ele>193.09125</ele>
        <time>2023-04-24T12:04:56.000Z</time>
      </trkpt>
      <trkpt lat="45.86037" lon="4.71062">
        <ele>193.00949</ele>
        <time>2023-04-24T12:04:57.000Z</time>
      </trkpt>
      <trkpt lat="45.86038" lon="4.71069">
        <ele>192.91396</ele>
        <time>2023-04-24T12:04:58.000Z</time>
      </trkpt>
      <trkpt lat="45.8604" lon="4.71077">
        <ele>192.83017</ele>
        <time>2023-04-24T12:04:59.000Z</time>
      </trkpt>
      <trkpt lat="45.86042" lon="4.71083">
        <ele>192.73929</ele>
        <time>2023-04-24T12:05:00.000Z</time>
      </trkpt>
      <trkpt lat="45.86042" lon="4.71087">
        <ele>192.64822</ele>
        <time>2023-04-24T12:05:01.000Z</time>
      </trkpt>
      <trkpt lat="45.86046" lon="4.71094">
        <ele>192.64182</ele>
        <time>2023-04-24T12:05:02.000Z</time>
      </trkpt>
      <trkpt lat="45.8605" lon="4.71099">
        <ele>192.54655</ele>
        <time>2023-04-24T12:05:03.000Z</time>
      </trkpt>
      <trkpt lat="45.86053" lon="4.71105">
        <ele>192.56601</ele>
        <time>2023-04-24T12:05:04.000Z</time>
      </trkpt>
      <trkpt lat="45.86056" lon="4.71109">
        <ele>192.63144</ele>
        <time>2023-04-24T12:05:05.000Z</time>
      </trkpt>
      <trkpt lat="45.8606" lon="4.71113">
        <ele>192.72141</ele>
        <time>2023-04-24T12:05:06.000Z</time>
      </trkpt>
      <trkpt lat="45.86064" lon="4.71117">
        <ele>192.73721</ele>
        <time>2023-04-24T12:05:07.000Z</time>
      </trkpt>
      <trkpt lat="45.86068" lon="4.71121">
        <ele>192.76688</ele>
        <time>2023-04-24T12:05:08.000Z</time>
      </trkpt>
      <trkpt lat="45.86072" lon="4.71126">
        <ele>192.79352</ele>
        <time>2023-04-24T12:05:09.000Z</time>
      </trkpt>
      <trkpt lat="45.86076" lon="4.71129">
        <ele>192.79813</ele>
        <time>2023-04-24T12:05:10.000Z</time>
      </trkpt>
      <trkpt lat="45.8608" lon="4.71132">
        <ele>192.84123</ele>
        <time>2023-04-24T12:05:11.000Z</time>
      </trkpt>
      <trkpt lat="45.86084" lon="4.71136">
        <ele>192.88857</ele>
        <time>2023-04-24T12:05:12.000Z</time>
      </trkpt>
      <trkpt lat="45.86088" lon="4.7114">
        <ele>193.43716</ele>
        <time>2023-04-24T12:05:13.000Z</time>
      </trkpt>
      <trkpt lat="45.86091" lon="4.71142">
        <ele>193.65811</ele>
        <time>2023-04-24T12:05:14.000Z</time>
      </trkpt>
      <trkpt lat="45.86095" lon="4.71143">
        <ele>193.94772</ele>
        <time>2023-04-24T12:05:15.000Z</time>
      </trkpt>
      <trkpt lat="45.86098" lon="4.71138">
        <ele>194.23531</ele>
        <time>2023-04-24T12:05:16.000Z</time>
      </trkpt>
      <trkpt lat="45.86101" lon="4.71134">
        <ele>194.6075</ele>
        <time>2023-04-24T12:05:17.000Z</time>
      </trkpt>
      <trkpt lat="45.86105" lon="4.71129">
        <ele>194.99484</ele>
        <time>2023-04-24T12:05:18.000Z</time>
      </trkpt>
      <trkpt lat="45.86109" lon="4.71125">
        <ele>195.38374</ele>
        <time>2023-04-24T12:05:19.000Z</time>
      </trkpt>
      <trkpt lat="45.86113" lon="4.7112">
        <ele>195.76686</ele>
        <time>2023-04-24T12:05:20.000Z</time>
      </trkpt>
      <trkpt lat="45.86116" lon="4.71116">
        <ele>196.13023</ele>
        <time>2023-04-24T12:05:21.000Z</time>
      </trkpt>
      <trkpt lat="45.86118" lon="4.7111">
        <ele>196.50162</ele>
        <time>2023-04-24T12:05:22.000Z</time>
      </trkpt>
      <trkpt lat="45.8612" lon="4.71104">
        <ele>196.92508</ele>
        <time>2023-04-24T12:05:23.000Z</time>
      </trkpt>
      <trkpt lat="45.86123" lon="4.71099">
        <ele>197.26868</ele>
        <time>2023-04-24T12:05:24.000Z</time>
      </trkpt>
      <trkpt lat="45.86125" lon="4.71094">
        <ele>197.56126</ele>
        <time>2023-04-24T12:05:25.000Z</time>
      </trkpt>
      <trkpt lat="45.86128" lon="4.71089">
        <ele>197.80272</ele>
        <time>2023-04-24T12:05:26.000Z</time>
      </trkpt>
      <trkpt lat="45.8613" lon="4.71084">
        <ele>198.09909</ele>
        <time>2023-04-24T12:05:27.000Z</time>
      </trkpt>
      <trkpt lat="45.86132" lon="4.71077">
        <ele>198.39413</ele>
        <time>2023-04-24T12:05:28.000Z</time>
      </trkpt>
      <trkpt lat="45.86135" lon="4.71071">
        <ele>198.71762</ele>
        <time>2023-04-24T12:05:29.000Z</time>
      </trkpt>
      <trkpt lat="45.86138" lon="4.71065">
        <ele>199.05379</ele>
        <time>2023-04-24T12:05:30.000Z</time>
      </trkpt>
      <trkpt lat="45.86142" lon="4.71059">
        <ele>199.32689</ele>
        <time>2023-04-24T12:05:31.000Z</time>
      </trkpt>
      <trkpt lat="45.86145" lon="4.71055">
        <ele>199.56355</ele>
        <time>2023-04-24T12:05:32.000Z</time>
      </trkpt>
      <trkpt lat="45.86149" lon="4.71052">
        <ele>199.25078</ele>
        <time>2023-04-24T12:05:33.000Z</time>
      </trkpt>
      <trkpt lat="45.86153" lon="4.7105">
        <ele>199.26279</ele>
        <time>2023-04-24T12:05:34.000Z</time>
      </trkpt>
      <trkpt lat="45.86157" lon="4.71049">
        <ele>199.22232</ele>
        <time>2023-04-24T12:05:35.000Z</time>
      </trkpt>
      <trkpt lat="45.8616" lon="4.71049">
        <ele>199.14549</ele>
        <time>2023-04-24T12:05:36.000Z</time>
      </trkpt>
      <trkpt lat="45.86164" lon="4.71047">
        <ele>199.07732</ele>
        <time>2023-04-24T12:05:37.000Z</time>
      </trkpt>
      <trkpt lat="45.86168" lon="4.71046">
        <ele>199.22571</ele>
        <time>2023-04-24T12:05:38.000Z</time>
      </trkpt>
      <trkpt lat="45.86171" lon="4.71045">
        <ele>199.37636</ele>
        <time>2023-04-24T12:05:39.000Z</time>
      </trkpt>
      <trkpt lat="45.86175" lon="4.71045">
        <ele>199.59683</ele>
        <time>2023-04-24T12:05:40.000Z</time>
      </trkpt>
      <trkpt lat="45.86179" lon="4.71044">
        <ele>199.86284</ele>
        <time>2023-04-24T12:05:41.000Z</time>
      </trkpt>
      <trkpt lat="45.86183" lon="4.71042">
        <ele>199.55991</ele>
        <time>2023-04-24T12:05:42.000Z</time>
      </trkpt>
      <trkpt lat="45.86186" lon="4.7104">
        <ele>199.23712</ele>
        <time>2023-04-24T12:05:43.000Z</time>
      </trkpt>
      <trkpt lat="45.86188" lon="4.71038">
        <ele>198.89854</ele>
        <time>2023-04-24T12:05:44.000Z</time>
      </trkpt>
      <trkpt lat="45.86191" lon="4.71035">
        <ele>198.59819</ele>
        <time>2023-04-24T12:05:45.000Z</time>
      </trkpt>
      <trkpt lat="45.86194" lon="4.71032">
        <ele>198.35646</ele>
        <time>2023-04-24T12:05:46.000Z</time>
      </trkpt>
      <trkpt lat="45.86196" lon="4.7103">
        <ele>198.14473</ele>
        <time>2023-04-24T12:05:47.000Z</time>
      </trkpt>
      <trkpt lat="45.86199" lon="4.71027">
        <ele>197.91824</ele>
        <time>2023-04-24T12:05:48.000Z</time>
      </trkpt>
      <trkpt lat="45.86202" lon="4.71025">
        <ele>197.65375</ele>
        <time>2023-04-24T12:05:49.000Z</time>
      </trkpt>
      <trkpt lat="45.86204" lon="4.71022">
        <ele>197.37949</ele>
        <time>2023-04-24T12:05:50.000Z</time>
      </trkpt>
      <trkpt lat="45.86207" lon="4.71018">
        <ele>197.15047</ele>
        <time>2023-04-24T12:05:51.000Z</time>
      </trkpt>
      <trkpt lat="45.8621" lon="4.71015">
        <ele>196.91988</ele>
        <time>2023-04-24T12:05:52.000Z</time>
      </trkpt>
      <trkpt lat="45.86212" lon="4.71011">
        <ele>196.7392</ele>
        <time>2023-04-24T12:05:53.000Z</time>
      </trkpt>
      <trkpt lat="45.86215" lon="4.71008">
        <ele>196.54115</ele>
        <time>2023-04-24T12:05:54.000Z</time>
      </trkpt>
      <trkpt lat="45.86217" lon="4.71005">
        <ele>196.31783</ele>
        <time>2023-04-24T12:05:55.000Z</time>
      </trkpt>
      <trkpt lat="45.86219" lon="4.71002">
        <ele>196.13921</ele>
        <time>2023-04-24T12:05:56.000Z</time>
      </trkpt>
      <trkpt lat="45.86221" lon="4.70999">
        <ele>195.9165</ele>
        <time>2023-04-24T12:05:57.000Z</time>
      </trkpt>
      <trkpt lat="45.86224" lon="4.70997">
        <ele>195.46045</ele>
        <time>2023-04-24T12:05:58.000Z</time>
      </trkpt>
      <trkpt lat="45.86227" lon="4.70994">
        <ele>194.99942</ele>
        <time>2023-04-24T12:05:59.000Z</time>
      </trkpt>
      <trkpt lat="45.8623" lon="4.70993">
        <ele>194.44974</ele>
        <time>2023-04-24T12:06:00.000Z</time>
      </trkpt>
      <trkpt lat="45.86234" lon="4.70992">
        <ele>194.21841</ele>
        <time>2023-04-24T12:06:01.000Z</time>
      </trkpt>
      <trkpt lat="45.86237" lon="4.70992">
        <ele>194.54291</ele>
        <time>2023-04-24T12:06:02.000Z</time>
      </trkpt>
      <trkpt lat="45.86241" lon="4.70994">
        <ele>194.87447</ele>
        <time>2023-04-24T12:06:03.000Z</time>
      </trkpt>
      <trkpt lat="45.86244" lon="4.70997">
        <ele>195.23341</ele>
        <time>2023-04-24T12:06:04.000Z</time>
      </trkpt>
      <trkpt lat="45.86247" lon="4.71001">
        <ele>195.58347</ele>
        <time>2023-04-24T12:06:05.000Z</time>
      </trkpt>
      <trkpt lat="45.86251" lon="4.71005">
        <ele>195.88431</ele>
        <time>2023-04-24T12:06:06.000Z</time>
      </trkpt>
      <trkpt lat="45.86254" lon="4.71009">
        <ele>196.16763</ele>
        <time>2023-04-24T12:06:07.000Z</time>
      </trkpt>
      <trkpt lat="45.86256" lon="4.71013">
        <ele>196.46245</ele>
        <time>2023-04-24T12:06:08.000Z</time>
      </trkpt>
      <trkpt lat="45.86259" lon="4.71017">
        <ele>196.76028</ele>
        <time>2023-04-24T12:06:09.000Z</time>
      </trkpt>
      <trkpt lat="45.86262" lon="4.71022">
        <ele>197.05315</ele>
        <time>2023-04-24T12:06:10.000Z</time>
      </trkpt>
      <trkpt lat="45.86265" lon="4.71026">
        <ele>197.32352</ele>
        <time>2023-04-24T12:06:11.000Z</time>
      </trkpt>
      <trkpt lat="45.86268" lon="4.7103">
        <ele>197.59453</ele>
        <time>2023-04-24T12:06:12.000Z</time>
      </trkpt>
      <trkpt lat="45.86272" lon="4.71031">
        <ele>197.84181</ele>
        <time>2023-04-24T12:06:13.000Z</time>
      </trkpt>
      <trkpt lat="45.86276" lon="4.7103">
        <ele>197.81456</ele>
        <time>2023-04-24T12:06:14.000Z</time>
      </trkpt>
      <trkpt lat="45.86281" lon="4.71029">
        <ele>197.70358</ele>
        <time>2023-04-24T12:06:15.000Z</time>
      </trkpt>
      <trkpt lat="45.86285" lon="4.71028">
        <ele>197.58832</ele>
        <time>2023-04-24T12:06:16.000Z</time>
      </trkpt>
      <trkpt lat="45.86289" lon="4.71026">
        <ele>197.47641</ele>
        <time>2023-04-24T12:06:17.000Z</time>
      </trkpt>
      <trkpt lat="45.86294" lon="4.71026">
        <ele>197.33345</ele>
        <time>2023-04-24T12:06:18.000Z</time>
      </trkpt>
      <trkpt lat="45.86298" lon="4.71025">
        <ele>197.18814</ele>
        <time>2023-04-24T12:06:19.000Z</time>
      </trkpt>
      <trkpt lat="45.86303" lon="4.71023">
        <ele>197.06076</ele>
        <time>2023-04-24T12:06:20.000Z</time>
      </trkpt>
      <trkpt lat="45.86306" lon="4.71022">
        <ele>196.57762</ele>
        <time>2023-04-24T12:06:21.000Z</time>
      </trkpt>
      <trkpt lat="45.8631" lon="4.71022">
        <ele>196.09731</ele>
        <time>2023-04-24T12:06:22.000Z</time>
      </trkpt>
      <trkpt lat="45.86314" lon="4.71022">
        <ele>195.63303</ele>
        <time>2023-04-24T12:06:23.000Z</time>
      </trkpt>
      <trkpt lat="45.86318" lon="4.71022">
        <ele>195.18417</ele>
        <time>2023-04-24T12:06:24.000Z</time>
      </trkpt>
      <trkpt lat="45.86323" lon="4.71022">
        <ele>194.6969</ele>
        <time>2023-04-24T12:06:25.000Z</time>
      </trkpt>
      <trkpt lat="45.86326" lon="4.71021">
        <ele>194.22299</ele>
        <time>2023-04-24T12:06:26.000Z</time>
      </trkpt>
      <trkpt lat="45.86331" lon="4.71023">
        <ele>193.72295</ele>
        <time>2023-04-24T12:06:27.000Z</time>
      </trkpt>
      <trkpt lat="45.86336" lon="4.71024">
        <ele>193.24034</ele>
        <time>2023-04-24T12:06:28.000Z</time>
      </trkpt>
      <trkpt lat="45.86341" lon="4.71026">
        <ele>192.75247</ele>
        <time>2023-04-24T12:06:29.000Z</time>
      </trkpt>
      <trkpt lat="45.86345" lon="4.71026">
        <ele>192.2626</ele>
        <time>2023-04-24T12:06:30.000Z</time>
      </trkpt>
      <trkpt lat="45.86349" lon="4.71026">
        <ele>191.78635</ele>
        <time>2023-04-24T12:06:31.000Z</time>
      </trkpt>
      <trkpt lat="45.86354" lon="4.71025">
        <ele>191.31953</ele>
        <time>2023-04-24T12:06:32.000Z</time>
      </trkpt>
      <trkpt lat="45.86359" lon="4.71024">
        <ele>190.85274</ele>
        <time>2023-04-24T12:06:33.000Z</time>
      </trkpt>
      <trkpt lat="45.86364" lon="4.71024">
        <ele>190.68008</ele>
        <time>2023-04-24T12:06:34.000Z</time>
      </trkpt>
      <trkpt lat="45.86368" lon="4.71023">
        <ele>190.56308</ele>
        <time>2023-04-24T12:06:35.000Z</time>
      </trkpt>
      <trkpt lat="45.86373" lon="4.7102">
        <ele>190.451</ele>
        <time>2023-04-24T12:06:36.000Z</time>
      </trkpt>
      <trkpt lat="45.86377" lon="4.71016">
        <ele>190.35715</ele>
        <time>2023-04-24T12:06:37.000Z</time>
      </trkpt>
      <trkpt lat="45.86382" lon="4.71012">
        <ele>190.27272</ele>
        <time>2023-04-24T12:06:38.000Z</time>
      </trkpt>
      <trkpt lat="45.86386" lon="4.7101">
        <ele>190.22119</ele>
        <time>2023-04-24T12:06:39.000Z</time>
      </trkpt>
      <trkpt lat="45.86391" lon="4.71007">
        <ele>190.16809</ele>
        <time>2023-04-24T12:06:40.000Z</time>
      </trkpt>
      <trkpt lat="45.86395" lon="4.71005">
        <ele>190.10948</ele>
        <time>2023-04-24T12:06:41.000Z</time>
      </trkpt>
      <trkpt lat="45.864" lon="4.71003">
        <ele>190.06418</ele>
        <time>2023-04-24T12:06:42.000Z</time>
      </trkpt>
      <trkpt lat="45.86404" lon="4.71">
        <ele>190.00233</ele>
        <time>2023-04-24T12:06:43.000Z</time>
      </trkpt>
      <trkpt lat="45.86408" lon="4.70996">
        <ele>189.90831</ele>
        <time>2023-04-24T12:06:44.000Z</time>
      </trkpt>
      <trkpt lat="45.86412" lon="4.70993">
        <ele>189.85104</ele>
        <time>2023-04-24T12:06:45.000Z</time>
      </trkpt>
      <trkpt lat="45.86416" lon="4.70991">
        <ele>189.80295</ele>
        <time>2023-04-24T12:06:46.000Z</time>
      </trkpt>
      <trkpt lat="45.8642" lon="4.70988">
        <ele>189.81165</ele>
        <time>2023-04-24T12:06:47.000Z</time>
      </trkpt>
      <trkpt lat="45.86424" lon="4.70985">
        <ele>189.78954</ele>
        <time>2023-04-24T12:06:48.000Z</time>
      </trkpt>
      <trkpt lat="45.86428" lon="4.70984">
        <ele>189.79204</ele>
        <time>2023-04-24T12:06:49.000Z</time>
      </trkpt>
      <trkpt lat="45.86433" lon="4.70983">
        <ele>189.74452</ele>
        <time>2023-04-24T12:06:50.000Z</time>
      </trkpt>
      <trkpt lat="45.86437" lon="4.70982">
        <ele>189.68515</ele>
        <time>2023-04-24T12:06:51.000Z</time>
      </trkpt>
      <trkpt lat="45.8644" lon="4.70981">
        <ele>189.70552</ele>
        <time>2023-04-24T12:06:52.000Z</time>
      </trkpt>
      <trkpt lat="45.86443" lon="4.7098">
        <ele>190.27512</ele>
        <time>2023-04-24T12:06:53.000Z</time>
      </trkpt>
      <trkpt lat="45.86447" lon="4.70979">
        <ele>190.88275</ele>
        <time>2023-04-24T12:06:54.000Z</time>
      </trkpt>
      <trkpt lat="45.8645" lon="4.7098">
        <ele>191.57307</ele>
        <time>2023-04-24T12:06:55.000Z</time>
      </trkpt>
      <trkpt lat="45.86454" lon="4.70981">
        <ele>191.91037</ele>
        <time>2023-04-24T12:06:56.000Z</time>
      </trkpt>
      <trkpt lat="45.86458" lon="4.70981">
        <ele>192.30992</ele>
        <time>2023-04-24T12:06:57.000Z</time>
      </trkpt>
      <trkpt lat="45.86462" lon="4.70982">
        <ele>192.71313</ele>
        <time>2023-04-24T12:06:58.000Z</time>
      </trkpt>
      <trkpt lat="45.86466" lon="4.70984">
        <ele>193.04666</ele>
        <time>2023-04-24T12:06:59.000Z</time>
      </trkpt>
      <trkpt lat="45.8647" lon="4.70985">
        <ele>193.41696</ele>
        <time>2023-04-24T12:07:00.000Z</time>
      </trkpt>
      <trkpt lat="45.86474" lon="4.70986">
        <ele>193.81226</ele>
        <time>2023-04-24T12:07:01.000Z</time>
      </trkpt>
      <trkpt lat="45.86478" lon="4.70986">
        <ele>194.17697</ele>
        <time>2023-04-24T12:07:02.000Z</time>
      </trkpt>
      <trkpt lat="45.86482" lon="4.70986">
        <ele>194.54843</ele>
        <time>2023-04-24T12:07:03.000Z</time>
      </trkpt>
      <trkpt lat="45.86486" lon="4.70985">
        <ele>194.66388</ele>
        <time>2023-04-24T12:07:04.000Z</time>
      </trkpt>
      <trkpt lat="45.8649" lon="4.70984">
        <ele>194.69141</ele>
        <time>2023-04-24T12:07:05.000Z</time>
      </trkpt>
      <trkpt lat="45.86493" lon="4.70984">
        <ele>194.72371</ele>
        <time>2023-04-24T12:07:06.000Z</time>
      </trkpt>
      <trkpt lat="45.86496" lon="4.70984">
        <ele>194.73221</ele>
        <time>2023-04-24T12:07:07.000Z</time>
      </trkpt>
      <trkpt lat="45.86499" lon="4.70985">
        <ele>195.10721</ele>
        <time>2023-04-24T12:07:08.000Z</time>
      </trkpt>
      <trkpt lat="45.86502" lon="4.70987">
        <ele>195.4474</ele>
        <time>2023-04-24T12:07:09.000Z</time>
      </trkpt>
      <trkpt lat="45.86505" lon="4.70988">
        <ele>195.86722</ele>
        <time>2023-04-24T12:07:10.000Z</time>
      </trkpt>
      <trkpt lat="45.86509" lon="4.70988">
        <ele>196.25354</ele>
        <time>2023-04-24T12:07:11.000Z</time>
      </trkpt>
      <trkpt lat="45.86513" lon="4.70988">
        <ele>196.72676</ele>
        <time>2023-04-24T12:07:12.000Z</time>
      </trkpt>
      <trkpt lat="45.86517" lon="4.70988">
        <ele>196.72745</ele>
        <time>2023-04-24T12:07:13.000Z</time>
      </trkpt>
      <trkpt lat="45.86521" lon="4.70988">
        <ele>196.68347</ele>
        <time>2023-04-24T12:07:14.000Z</time>
      </trkpt>
      <trkpt lat="45.86525" lon="4.70989">
        <ele>196.59641</ele>
        <time>2023-04-24T12:07:15.000Z</time>
      </trkpt>
      <trkpt lat="45.86529" lon="4.70989">
        <ele>196.86414</ele>
        <time>2023-04-24T12:07:16.000Z</time>
      </trkpt>
      <trkpt lat="45.86533" lon="4.70989">
        <ele>197.09109</ele>
        <time>2023-04-24T12:07:17.000Z</time>
      </trkpt>
      <trkpt lat="45.86536" lon="4.70989">
        <ele>196.98434</ele>
        <time>2023-04-24T12:07:18.000Z</time>
      </trkpt>
      <trkpt lat="45.8654" lon="4.70989">
        <ele>196.98473</ele>
        <time>2023-04-24T12:07:19.000Z</time>
      </trkpt>
      <trkpt lat="45.86544" lon="4.7099">
        <ele>196.91562</ele>
        <time>2023-04-24T12:07:20.000Z</time>
      </trkpt>
      <trkpt lat="45.86548" lon="4.70991">
        <ele>196.86313</ele>
        <time>2023-04-24T12:07:21.000Z</time>
      </trkpt>
      <trkpt lat="45.86552" lon="4.70992">
        <ele>196.81444</ele>
        <time>2023-04-24T12:07:22.000Z</time>
      </trkpt>
      <trkpt lat="45.86556" lon="4.70993">
        <ele>196.77454</ele>
        <time>2023-04-24T12:07:23.000Z</time>
      </trkpt>
      <trkpt lat="45.86561" lon="4.70994">
        <ele>197.20218</ele>
        <time>2023-04-24T12:07:24.000Z</time>
      </trkpt>
      <trkpt lat="45.86565" lon="4.70995">
        <ele>197.70694</ele>
        <time>2023-04-24T12:07:25.000Z</time>
      </trkpt>
      <trkpt lat="45.8657" lon="4.70997">
        <ele>198.18869</ele>
        <time>2023-04-24T12:07:26.000Z</time>
      </trkpt>
      <trkpt lat="45.86575" lon="4.70999">
        <ele>198.68983</ele>
        <time>2023-04-24T12:07:27.000Z</time>
      </trkpt>
      <trkpt lat="45.86581" lon="4.71001">
        <ele>198.85074</ele>
        <time>2023-04-24T12:07:28.000Z</time>
      </trkpt>
      <trkpt lat="45.86585" lon="4.71002">
        <ele>199.12375</ele>
        <time>2023-04-24T12:07:29.000Z</time>
      </trkpt>
      <trkpt lat="45.86591" lon="4.71003">
        <ele>198.94745</ele>
        <time>2023-04-24T12:07:30.000Z</time>
      </trkpt>
      <trkpt lat="45.86597" lon="4.71004">
        <ele>198.86241</ele>
        <time>2023-04-24T12:07:31.000Z</time>
      </trkpt>
      <trkpt lat="45.86602" lon="4.71006">
        <ele>198.5966</ele>
        <time>2023-04-24T12:07:32.000Z</time>
      </trkpt>
      <trkpt lat="45.86608" lon="4.71008">
        <ele>198.23615</ele>
        <time>2023-04-24T12:07:33.000Z</time>
      </trkpt>
      <trkpt lat="45.86612" lon="4.71009">
        <ele>197.87375</ele>
        <time>2023-04-24T12:07:34.000Z</time>
      </trkpt>
      <trkpt lat="45.86617" lon="4.7101">
        <ele>197.53006</ele>
        <time>2023-04-24T12:07:35.000Z</time>
      </trkpt>
      <trkpt lat="45.86622" lon="4.71011">
        <ele>197.21951</ele>
        <time>2023-04-24T12:07:36.000Z</time>
      </trkpt>
      <trkpt lat="45.86625" lon="4.71014">
        <ele>196.8734</ele>
        <time>2023-04-24T12:07:37.000Z</time>
      </trkpt>
      <trkpt lat="45.8663" lon="4.71016">
        <ele>196.84145</ele>
        <time>2023-04-24T12:07:38.000Z</time>
      </trkpt>
      <trkpt lat="45.86634" lon="4.71019">
        <ele>196.74835</ele>
        <time>2023-04-24T12:07:39.000Z</time>
      </trkpt>
      <trkpt lat="45.86639" lon="4.71021">
        <ele>196.72188</ele>
        <time>2023-04-24T12:07:40.000Z</time>
      </trkpt>
      <trkpt lat="45.86643" lon="4.71023">
        <ele>196.674</ele>
        <time>2023-04-24T12:07:41.000Z</time>
      </trkpt>
      <trkpt lat="45.86646" lon="4.71025">
        <ele>196.61661</ele>
        <time>2023-04-24T12:07:42.000Z</time>
      </trkpt>
      <trkpt lat="45.8665" lon="4.71028">
        <ele>196.80145</ele>
        <time>2023-04-24T12:07:43.000Z</time>
      </trkpt>
      <trkpt lat="45.86654" lon="4.7103">
        <ele>196.769</ele>
        <time>2023-04-24T12:07:44.000Z</time>
      </trkpt>
      <trkpt lat="45.86657" lon="4.7103">
        <ele>196.70731</ele>
        <time>2023-04-24T12:07:45.000Z</time>
      </trkpt>
      <trkpt lat="45.86661" lon="4.71032">
        <ele>196.67189</ele>
        <time>2023-04-24T12:07:46.000Z</time>
      </trkpt>
      <trkpt lat="45.86665" lon="4.71034">
        <ele>196.61253</ele>
        <time>2023-04-24T12:07:47.000Z</time>
      </trkpt>
      <trkpt lat="45.8667" lon="4.71037">
        <ele>196.54448</ele>
        <time>2023-04-24T12:07:48.000Z</time>
      </trkpt>
      <trkpt lat="45.86674" lon="4.71039">
        <ele>196.38037</ele>
        <time>2023-04-24T12:07:49.000Z</time>
      </trkpt>
      <trkpt lat="45.86679" lon="4.71041">
        <ele>196.66412</ele>
        <time>2023-04-24T12:07:50.000Z</time>
      </trkpt>
      <trkpt lat="45.86684" lon="4.71043">
        <ele>196.9006</ele>
        <time>2023-04-24T12:07:51.000Z</time>
      </trkpt>
      <trkpt lat="45.86688" lon="4.71046">
        <ele>197.15002</ele>
        <time>2023-04-24T12:07:52.000Z</time>
      </trkpt>
      <trkpt lat="45.86693" lon="4.71048">
        <ele>197.41084</ele>
        <time>2023-04-24T12:07:53.000Z</time>
      </trkpt>
      <trkpt lat="45.86697" lon="4.7105">
        <ele>197.74599</ele>
        <time>2023-04-24T12:07:54.000Z</time>
      </trkpt>
      <trkpt lat="45.86702" lon="4.71052">
        <ele>197.68788</ele>
        <time>2023-04-24T12:07:55.000Z</time>
      </trkpt>
      <trkpt lat="45.86707" lon="4.71055">
        <ele>197.65054</ele>
        <time>2023-04-24T12:07:56.000Z</time>
      </trkpt>
      <trkpt lat="45.8671" lon="4.71056">
        <ele>197.62083</ele>
        <time>2023-04-24T12:07:57.000Z</time>
      </trkpt>
      <trkpt lat="45.86714" lon="4.71058">
        <ele>197.62549</ele>
        <time>2023-04-24T12:07:58.000Z</time>
      </trkpt>
      <trkpt lat="45.86719" lon="4.71061">
        <ele>197.63576</ele>
        <time>2023-04-24T12:07:59.000Z</time>
      </trkpt>
      <trkpt lat="45.86723" lon="4.71062">
        <ele>197.78276</ele>
        <time>2023-04-24T12:08:00.000Z</time>
      </trkpt>
      <trkpt lat="45.86728" lon="4.71064">
        <ele>198.01039</ele>
        <time>2023-04-24T12:08:01.000Z</time>
      </trkpt>
      <trkpt lat="45.86732" lon="4.71066">
        <ele>198.25932</ele>
        <time>2023-04-24T12:08:02.000Z</time>
      </trkpt>
      <trkpt lat="45.86737" lon="4.71068">
        <ele>198.29184</ele>
        <time>2023-04-24T12:08:03.000Z</time>
      </trkpt>
      <trkpt lat="45.86741" lon="4.71071">
        <ele>198.33524</ele>
        <time>2023-04-24T12:08:04.000Z</time>
      </trkpt>
      <trkpt lat="45.86746" lon="4.71072">
        <ele>198.46239</ele>
        <time>2023-04-24T12:08:05.000Z</time>
      </trkpt>
      <trkpt lat="45.8675" lon="4.71074">
        <ele>198.57658</ele>
        <time>2023-04-24T12:08:06.000Z</time>
      </trkpt>
      <trkpt lat="45.86754" lon="4.71076">
        <ele>198.30359</ele>
        <time>2023-04-24T12:08:07.000Z</time>
      </trkpt>
      <trkpt lat="45.86758" lon="4.71078">
        <ele>198.11092</ele>
        <time>2023-04-24T12:08:08.000Z</time>
      </trkpt>
      <trkpt lat="45.86762" lon="4.7108">
        <ele>197.89076</ele>
        <time>2023-04-24T12:08:09.000Z</time>
      </trkpt>
      <trkpt lat="45.86766" lon="4.71081">
        <ele>197.64958</ele>
        <time>2023-04-24T12:08:10.000Z</time>
      </trkpt>
      <trkpt lat="45.86771" lon="4.71083">
        <ele>197.38622</ele>
        <time>2023-04-24T12:08:11.000Z</time>
      </trkpt>
      <trkpt lat="45.86776" lon="4.71084">
        <ele>196.68784</ele>
        <time>2023-04-24T12:08:12.000Z</time>
      </trkpt>
      <trkpt lat="45.8678" lon="4.71084">
        <ele>196.01744</ele>
        <time>2023-04-24T12:08:13.000Z</time>
      </trkpt>
      <trkpt lat="45.86785" lon="4.71084">
        <ele>195.2791</ele>
        <time>2023-04-24T12:08:14.000Z</time>
      </trkpt>
      <trkpt lat="45.86789" lon="4.71084">
        <ele>194.91539</ele>
        <time>2023-04-24T12:08:15.000Z</time>
      </trkpt>
      <trkpt lat="45.86794" lon="4.71084">
        <ele>194.49991</ele>
        <time>2023-04-24T12:08:16.000Z</time>
      </trkpt>
      <trkpt lat="45.86797" lon="4.71083">
        <ele>194.12454</ele>
        <time>2023-04-24T12:08:17.000Z</time>
      </trkpt>
      <trkpt lat="45.868" lon="4.71084">
        <ele>193.72232</ele>
        <time>2023-04-24T12:08:18.000Z</time>
      </trkpt>
      <trkpt lat="45.86804" lon="4.71084">
        <ele>193.29254</ele>
        <time>2023-04-24T12:08:19.000Z</time>
      </trkpt>
      <trkpt lat="45.86807" lon="4.71084">
        <ele>192.67741</ele>
        <time>2023-04-24T12:08:20.000Z</time>
      </trkpt>
      <trkpt lat="45.8681" lon="4.71083">
        <ele>191.97627</ele>
        <time>2023-04-24T12:08:21.000Z</time>
      </trkpt>
      <trkpt lat="45.86812" lon="4.71083">
        <ele>191.27145</ele>
        <time>2023-04-24T12:08:22.000Z</time>
      </trkpt>
      <trkpt lat="45.86815" lon="4.71082">
        <ele>190.56699</ele>
        <time>2023-04-24T12:08:23.000Z</time>
      </trkpt>
      <trkpt lat="45.86817" lon="4.71082">
        <ele>189.86797</ele>
        <time>2023-04-24T12:08:24.000Z</time>
      </trkpt>
      <trkpt lat="45.86819" lon="4.71082">
        <ele>189.10971</ele>
        <time>2023-04-24T12:08:25.000Z</time>
      </trkpt>
      <trkpt lat="45.86822" lon="4.71082">
        <ele>188.36591</ele>
        <time>2023-04-24T12:08:27.000Z</time>
      </trkpt>
      <trkpt lat="45.86824" lon="4.71082">
        <ele>188.07422</ele>
        <time>2023-04-24T12:08:42.000Z</time>
      </trkpt>
      <trkpt lat="45.86827" lon="4.71083">
        <ele>187.67332</ele>
        <time>2023-04-24T12:08:54.000Z</time>
      </trkpt>
      <trkpt lat="45.86829" lon="4.71083">
        <ele>187.3481</ele>
        <time>2023-04-24T12:08:57.000Z</time>
      </trkpt>
      <trkpt lat="45.86831" lon="4.71083">
        <ele>186.99278</ele>
        <time>2023-04-24T12:09:08.000Z</time>
      </trkpt>
      <trkpt lat="45.86834" lon="4.71084">
        <ele>186.61885</ele>
        <time>2023-04-24T12:09:22.000Z</time>
      </trkpt>
      <trkpt lat="45.86837" lon="4.71083">
        <ele>186.68839</ele>
        <time>2023-04-24T12:09:24.000Z</time>
      </trkpt>
      <trkpt lat="45.8684" lon="4.71083">
        <ele>186.77042</ele>
        <time>2023-04-24T12:09:25.000Z</time>
      </trkpt>
      <trkpt lat="45.86842" lon="4.71083">
        <ele>186.85019</ele>
        <time>2023-04-24T12:09:26.000Z</time>
      </trkpt>
      <trkpt lat="45.86844" lon="4.71083">
        <ele>186.93686</ele>
        <time>2023-04-24T12:09:27.000Z</time>
      </trkpt>
      <trkpt lat="45.86847" lon="4.71084">
        <ele>187.03441</ele>
        <time>2023-04-24T12:09:28.000Z</time>
      </trkpt>
      <trkpt lat="45.86849" lon="4.71084">
        <ele>187.10596</ele>
        <time>2023-04-24T12:09:29.000Z</time>
      </trkpt>
      <trkpt lat="45.86852" lon="4.71084">
        <ele>187.20761</ele>
        <time>2023-04-24T12:09:30.000Z</time>
      </trkpt>
      <trkpt lat="45.86854" lon="4.71084">
        <ele>187.32904</ele>
        <time>2023-04-24T12:09:31.000Z</time>
      </trkpt>
      <trkpt lat="45.86856" lon="4.71084">
        <ele>187.51385</ele>
        <time>2023-04-24T12:09:32.000Z</time>
      </trkpt>
      <trkpt lat="45.86858" lon="4.71083">
        <ele>187.68788</ele>
        <time>2023-04-24T12:09:33.000Z</time>
      </trkpt>
      <trkpt lat="45.8686" lon="4.71083">
        <ele>187.89981</ele>
        <time>2023-04-24T12:09:34.000Z</time>
      </trkpt>
      <trkpt lat="45.86863" lon="4.71083">
        <ele>188.0148</ele>
        <time>2023-04-24T12:09:35.000Z</time>
      </trkpt>
      <trkpt lat="45.86865" lon="4.71083">
        <ele>188.13792</ele>
        <time>2023-04-24T12:09:36.000Z</time>
      </trkpt>
      <trkpt lat="45.86867" lon="4.71083">
        <ele>188.24344</ele>
        <time>2023-04-24T12:09:37.000Z</time>
      </trkpt>
      <trkpt lat="45.86869" lon="4.71083">
        <ele>188.34438</ele>
        <time>2023-04-24T12:09:38.000Z</time>
      </trkpt>
      <trkpt lat="45.86871" lon="4.71082">
        <ele>188.4082</ele>
        <time>2023-04-24T12:09:39.000Z</time>
      </trkpt>
      <trkpt lat="45.86873" lon="4.71082">
        <ele>188.4892</ele>
        <time>2023-04-24T12:09:40.000Z</time>
      </trkpt>
      <trkpt lat="45.86875" lon="4.71081">
        <ele>188.5123</ele>
        <time>2023-04-24T12:09:42.000Z</time>
      </trkpt>
      <trkpt lat="45.86878" lon="4.71081">
        <ele>188.4998</ele>
        <time>2023-04-24T12:09:44.000Z</time>
      </trkpt>
      <trkpt lat="45.86881" lon="4.7108">
        <ele>188.52602</ele>
        <time>2023-04-24T12:09:46.000Z</time>
      </trkpt>
      <trkpt lat="45.86884" lon="4.71079">
        <ele>188.532</ele>
        <time>2023-04-24T12:09:47.000Z</time>
      </trkpt>
      <trkpt lat="45.86886" lon="4.71078">
        <ele>188.50668</ele>
        <time>2023-04-24T12:09:48.000Z</time>
      </trkpt>
      <trkpt lat="45.86888" lon="4.71077">
        <ele>188.4899</ele>
        <time>2023-04-24T12:09:49.000Z</time>
      </trkpt>
      <trkpt lat="45.86891" lon="4.71075">
        <ele>188.45891</ele>
        <time>2023-04-24T12:09:51.000Z</time>
      </trkpt>
      <trkpt lat="45.86892" lon="4.71072">
        <ele>188.43481</ele>
        <time>2023-04-24T12:10:06.000Z</time>
      </trkpt>
      <trkpt lat="45.86894" lon="4.7107">
        <ele>188.38977</ele>
        <time>2023-04-24T12:10:07.000Z</time>
      </trkpt>
      <trkpt lat="45.86892" lon="4.71066">
        <ele>188.34178</ele>
        <time>2023-04-24T12:10:09.000Z</time>
      </trkpt>
      <trkpt lat="45.8689" lon="4.71066">
        <ele>188.29698</ele>
        <time>2023-04-24T12:10:10.000Z</time>
      </trkpt>
      <trkpt lat="45.86888" lon="4.71067">
        <ele>188.20425</ele>
        <time>2023-04-24T12:10:12.000Z</time>
      </trkpt>
      <trkpt lat="45.86886" lon="4.71065">
        <ele>188.23901</ele>
        <time>2023-04-24T12:10:25.000Z</time>
      </trkpt>
      <trkpt lat="45.86884" lon="4.71064">
        <ele>188.25443</ele>
        <time>2023-04-24T12:10:26.000Z</time>
      </trkpt>
      <trkpt lat="45.86882" lon="4.71064">
        <ele>188.34935</ele>
        <time>2023-04-24T12:10:27.000Z</time>
      </trkpt>
      <trkpt lat="45.8688" lon="4.71064">
        <ele>188.41251</ele>
        <time>2023-04-24T12:10:29.000Z</time>
      </trkpt>
      <trkpt lat="45.86879" lon="4.7106">
        <ele>188.47437</ele>
        <time>2023-04-24T12:10:31.000Z</time>
      </trkpt>
      <trkpt lat="45.8688" lon="4.71058">
        <ele>188.53914</ele>
        <time>2023-04-24T12:10:32.000Z</time>
      </trkpt>
      <trkpt lat="45.86883" lon="4.71057">
        <ele>188.56371</ele>
        <time>2023-04-24T12:10:33.000Z</time>
      </trkpt>
      <trkpt lat="45.86886" lon="4.71059">
        <ele>188.60287</ele>
        <time>2023-04-24T12:10:34.000Z</time>
      </trkpt>
      <trkpt lat="45.86889" lon="4.71061">
        <ele>188.66556</ele>
        <time>2023-04-24T12:10:35.000Z</time>
      </trkpt>
      <trkpt lat="45.86892" lon="4.71064">
        <ele>188.8076</ele>
        <time>2023-04-24T12:10:36.000Z</time>
      </trkpt>
      <trkpt lat="45.86894" lon="4.71066">
        <ele>188.96111</ele>
        <time>2023-04-24T12:10:37.000Z</time>
      </trkpt>
      <trkpt lat="45.86896" lon="4.71069">
        <ele>189.0192</ele>
        <time>2023-04-24T12:10:38.000Z</time>
      </trkpt>
      <trkpt lat="45.86897" lon="4.71072">
        <ele>189.07941</ele>
        <time>2023-04-24T12:10:39.000Z</time>
      </trkpt>
      <trkpt lat="45.86896" lon="4.71076">
        <ele>189.11046</ele>
        <time>2023-04-24T12:10:40.000Z</time>
      </trkpt>
      <trkpt lat="45.86893" lon="4.71079">
        <ele>189.17995</ele>
        <time>2023-04-24T12:10:41.000Z</time>
      </trkpt>
      <trkpt lat="45.86891" lon="4.7108">
        <ele>189.2036</ele>
        <time>2023-04-24T12:10:42.000Z</time>
      </trkpt>
      <trkpt lat="45.86888" lon="4.71081">
        <ele>189.22067</ele>
        <time>2023-04-24T12:10:43.000Z</time>
      </trkpt>
      <trkpt lat="45.86886" lon="4.71083">
        <ele>189.23764</ele>
        <time>2023-04-24T12:10:44.000Z</time>
      </trkpt>
      <trkpt lat="45.86883" lon="4.71084">
        <ele>189.22289</ele>
        <time>2023-04-24T12:10:45.000Z</time>
      </trkpt>
      <trkpt lat="45.8688" lon="4.71085">
        <ele>189.22932</ele>
        <time>2023-04-24T12:10:46.000Z</time>
      </trkpt>
      <trkpt lat="45.86877" lon="4.71087">
        <ele>189.15018</ele>
        <time>2023-04-24T12:10:47.000Z</time>
      </trkpt>
      <trkpt lat="45.86876" lon="4.7109">
        <ele>189.04636</ele>
        <time>2023-04-24T12:10:48.000Z</time>
      </trkpt>
      <trkpt lat="45.86874" lon="4.71094">
        <ele>188.92628</ele>
        <time>2023-04-24T12:10:49.000Z</time>
      </trkpt>
      <trkpt lat="45.86874" lon="4.71099">
        <ele>188.82492</ele>
        <time>2023-04-24T12:10:50.000Z</time>
      </trkpt>
      <trkpt lat="45.86874" lon="4.71103">
        <ele>188.71596</ele>
        <time>2023-04-24T12:10:51.000Z</time>
      </trkpt>
      <trkpt lat="45.86875" lon="4.71108">
        <ele>188.58809</ele>
        <time>2023-04-24T12:10:52.000Z</time>
      </trkpt>
      <trkpt lat="45.86876" lon="4.71113">
        <ele>188.54269</ele>
        <time>2023-04-24T12:10:53.000Z</time>
      </trkpt>
      <trkpt lat="45.86876" lon="4.71117">
        <ele>188.49582</ele>
        <time>2023-04-24T12:10:54.000Z</time>
      </trkpt>
      <trkpt lat="45.86876" lon="4.71122">
        <ele>188.43967</ele>
        <time>2023-04-24T12:10:55.000Z</time>
      </trkpt>
      <trkpt lat="45.86877" lon="4.71126">
        <ele>188.30228</ele>
        <time>2023-04-24T12:10:56.000Z</time>
      </trkpt>
      <trkpt lat="45.86877" lon="4.71131">
        <ele>188.15836</ele>
        <time>2023-04-24T12:10:57.000Z</time>
      </trkpt>
      <trkpt lat="45.86877" lon="4.71136">
        <ele>188.13914</ele>
        <time>2023-04-24T12:10:58.000Z</time>
      </trkpt>
      <trkpt lat="45.86878" lon="4.7114">
        <ele>188.11963</ele>
        <time>2023-04-24T12:10:59.000Z</time>
      </trkpt>
      <trkpt lat="45.86878" lon="4.71145">
        <ele>188.13434</ele>
        <time>2023-04-24T12:11:00.000Z</time>
      </trkpt>
      <trkpt lat="45.86878" lon="4.7115">
        <ele>188.0994</ele>
        <time>2023-04-24T12:11:01.000Z</time>
      </trkpt>
      <trkpt lat="45.86878" lon="4.71155">
        <ele>188.08823</ele>
        <time>2023-04-24T12:11:02.000Z</time>
      </trkpt>
      <trkpt lat="45.86878" lon="4.71161">
        <ele>188.09744</ele>
        <time>2023-04-24T12:11:03.000Z</time>
      </trkpt>
      <trkpt lat="45.86878" lon="4.71166">
        <ele>188.116</ele>
        <time>2023-04-24T12:11:04.000Z</time>
      </trkpt>
      <trkpt lat="45.86878" lon="4.71171">
        <ele>188.16617</ele>
        <time>2023-04-24T12:11:05.000Z</time>
      </trkpt>
      <trkpt lat="45.86878" lon="4.71176">
        <ele>188.20688</ele>
        <time>2023-04-24T12:11:06.000Z</time>
      </trkpt>
      <trkpt lat="45.86878" lon="4.71181">
        <ele>188.21448</ele>
        <time>2023-04-24T12:11:07.000Z</time>
      </trkpt>
      <trkpt lat="45.86878" lon="4.71186">
        <ele>188.22702</ele>
        <time>2023-04-24T12:11:08.000Z</time>
      </trkpt>
      <trkpt lat="45.86878" lon="4.71191">
        <ele>188.25813</ele>
        <time>2023-04-24T12:11:09.000Z</time>
      </trkpt>
      <trkpt lat="45.86878" lon="4.71196">
        <ele>188.28294</ele>
        <time>2023-04-24T12:11:10.000Z</time>
      </trkpt>
      <trkpt lat="45.86877" lon="4.71201">
        <ele>188.33714</ele>
        <time>2023-04-24T12:11:11.000Z</time>
      </trkpt>
      <trkpt lat="45.86877" lon="4.71206">
        <ele>188.40898</ele>
        <time>2023-04-24T12:11:12.000Z</time>
      </trkpt>
      <trkpt lat="45.86876" lon="4.7121">
        <ele>188.42667</ele>
        <time>2023-04-24T12:11:13.000Z</time>
      </trkpt>
      <trkpt lat="45.86876" lon="4.71215">
        <ele>188.44778</ele>
        <time>2023-04-24T12:11:14.000Z</time>
      </trkpt>
      <trkpt lat="45.86877" lon="4.71219">
        <ele>188.46417</ele>
        <time>2023-04-24T12:11:15.000Z</time>
      </trkpt>
      <trkpt lat="45.86878" lon="4.71224">
        <ele>188.54677</ele>
        <time>2023-04-24T12:11:16.000Z</time>
      </trkpt>
      <trkpt lat="45.86879" lon="4.71229">
        <ele>188.62228</ele>
        <time>2023-04-24T12:11:17.000Z</time>
      </trkpt>
      <trkpt lat="45.8688" lon="4.71234">
        <ele>188.66965</ele>
        <time>2023-04-24T12:11:18.000Z</time>
      </trkpt>
      <trkpt lat="45.8688" lon="4.7124">
        <ele>188.71297</ele>
        <time>2023-04-24T12:11:19.000Z</time>
      </trkpt>
      <trkpt lat="45.8688" lon="4.71245">
        <ele>188.7451</ele>
        <time>2023-04-24T12:11:20.000Z</time>
      </trkpt>
      <trkpt lat="45.86879" lon="4.7125">
        <ele>188.79265</ele>
        <time>2023-04-24T12:11:21.000Z</time>
      </trkpt>
      <trkpt lat="45.86879" lon="4.71255">
        <ele>188.84383</ele>
        <time>2023-04-24T12:11:22.000Z</time>
      </trkpt>
      <trkpt lat="45.8688" lon="4.7126">
        <ele>188.87439</ele>
        <time>2023-04-24T12:11:23.000Z</time>
      </trkpt>
      <trkpt lat="45.8688" lon="4.71266">
        <ele>188.89748</ele>
        <time>2023-04-24T12:11:24.000Z</time>
      </trkpt>
      <trkpt lat="45.86881" lon="4.71271">
        <ele>188.91365</ele>
        <time>2023-04-24T12:11:25.000Z</time>
      </trkpt>
      <trkpt lat="45.86881" lon="4.71276">
        <ele>188.93977</ele>
        <time>2023-04-24T12:11:26.000Z</time>
      </trkpt>
      <trkpt lat="45.86882" lon="4.71281">
        <ele>188.96144</ele>
        <time>2023-04-24T12:11:27.000Z</time>
      </trkpt>
      <trkpt lat="45.86883" lon="4.71287">
        <ele>189.00294</ele>
        <time>2023-04-24T12:11:28.000Z</time>
      </trkpt>
      <trkpt lat="45.86883" lon="4.71292">
        <ele>189.04941</ele>
        <time>2023-04-24T12:11:29.000Z</time>
      </trkpt>
      <trkpt lat="45.86883" lon="4.71298">
        <ele>189.09613</ele>
        <time>2023-04-24T12:11:30.000Z</time>
      </trkpt>
      <trkpt lat="45.86883" lon="4.71303">
        <ele>189.14076</ele>
        <time>2023-04-24T12:11:31.000Z</time>
      </trkpt>
      <trkpt lat="45.86882" lon="4.71308">
        <ele>189.1936</ele>
        <time>2023-04-24T12:11:32.000Z</time>
      </trkpt>
      <trkpt lat="45.86882" lon="4.71314">
        <ele>189.25029</ele>
        <time>2023-04-24T12:11:33.000Z</time>
      </trkpt>
      <trkpt lat="45.86882" lon="4.71318">
        <ele>189.29926</ele>
        <time>2023-04-24T12:11:34.000Z</time>
      </trkpt>
      <trkpt lat="45.86882" lon="4.71324">
        <ele>189.37054</ele>
        <time>2023-04-24T12:11:35.000Z</time>
      </trkpt>
      <trkpt lat="45.86881" lon="4.71329">
        <ele>189.44086</ele>
        <time>2023-04-24T12:11:36.000Z</time>
      </trkpt>
      <trkpt lat="45.86882" lon="4.71335">
        <ele>189.45421</ele>
        <time>2023-04-24T12:11:37.000Z</time>
      </trkpt>
      <trkpt lat="45.86885" lon="4.71343">
        <ele>189.45702</ele>
        <time>2023-04-24T12:11:38.000Z</time>
      </trkpt>
      <trkpt lat="45.86885" lon="4.71352">
        <ele>189.52675</ele>
        <time>2023-04-24T12:11:39.000Z</time>
      </trkpt>
      <trkpt lat="45.86888" lon="4.71357">
        <ele>189.61467</ele>
        <time>2023-04-24T12:11:40.000Z</time>
      </trkpt>
      <trkpt lat="45.86889" lon="4.71364">
        <ele>189.73672</ele>
        <time>2023-04-24T12:11:41.000Z</time>
      </trkpt>
      <trkpt lat="45.8689" lon="4.7137">
        <ele>189.85751</ele>
        <time>2023-04-24T12:11:42.000Z</time>
      </trkpt>
      <trkpt lat="45.86891" lon="4.71376">
        <ele>190.00462</ele>
        <time>2023-04-24T12:11:43.000Z</time>
      </trkpt>
      <trkpt lat="45.86892" lon="4.71381">
        <ele>190.17029</ele>
        <time>2023-04-24T12:11:44.000Z</time>
      </trkpt>
      <trkpt lat="45.86893" lon="4.71388">
        <ele>190.35985</ele>
        <time>2023-04-24T12:11:45.000Z</time>
      </trkpt>
      <trkpt lat="45.86893" lon="4.71394">
        <ele>190.53537</ele>
        <time>2023-04-24T12:11:46.000Z</time>
      </trkpt>
      <trkpt lat="45.86892" lon="4.714">
        <ele>190.70592</ele>
        <time>2023-04-24T12:11:47.000Z</time>
      </trkpt>
      <trkpt lat="45.86893" lon="4.71406">
        <ele>190.86079</ele>
        <time>2023-04-24T12:11:48.000Z</time>
      </trkpt>
      <trkpt lat="45.86894" lon="4.7141">
        <ele>191.01251</ele>
        <time>2023-04-24T12:11:49.000Z</time>
      </trkpt>
      <trkpt lat="45.86895" lon="4.71417">
        <ele>191.13632</ele>
        <time>2023-04-24T12:11:50.000Z</time>
      </trkpt>
      <trkpt lat="45.86897" lon="4.71423">
        <ele>191.21393</ele>
        <time>2023-04-24T12:11:51.000Z</time>
      </trkpt>
      <trkpt lat="45.86898" lon="4.71428">
        <ele>191.22643</ele>
        <time>2023-04-24T12:11:52.000Z</time>
      </trkpt>
      <trkpt lat="45.869" lon="4.71433">
        <ele>191.20451</ele>
        <time>2023-04-24T12:11:53.000Z</time>
      </trkpt>
      <trkpt lat="45.86901" lon="4.71438">
        <ele>191.17368</ele>
        <time>2023-04-24T12:11:54.000Z</time>
      </trkpt>
      <trkpt lat="45.86902" lon="4.71444">
        <ele>191.13223</ele>
        <time>2023-04-24T12:11:55.000Z</time>
      </trkpt>
      <trkpt lat="45.86904" lon="4.71449">
        <ele>191.10918</ele>
        <time>2023-04-24T12:11:56.000Z</time>
      </trkpt>
      <trkpt lat="45.86905" lon="4.71455">
        <ele>191.10948</ele>
        <time>2023-04-24T12:11:57.000Z</time>
      </trkpt>
      <trkpt lat="45.86907" lon="4.7146">
        <ele>191.108</ele>
        <time>2023-04-24T12:11:58.000Z</time>
      </trkpt>
      <trkpt lat="45.86909" lon="4.71465">
        <ele>191.03604</ele>
        <time>2023-04-24T12:11:59.000Z</time>
      </trkpt>
      <trkpt lat="45.86911" lon="4.7147">
        <ele>190.9184</ele>
        <time>2023-04-24T12:12:00.000Z</time>
      </trkpt>
      <trkpt lat="45.86913" lon="4.71475">
        <ele>190.76387</ele>
        <time>2023-04-24T12:12:01.000Z</time>
      </trkpt>
      <trkpt lat="45.86915" lon="4.71482">
        <ele>190.61035</ele>
        <time>2023-04-24T12:12:02.000Z</time>
      </trkpt>
      <trkpt lat="45.86916" lon="4.71488">
        <ele>190.4415</ele>
        <time>2023-04-24T12:12:03.000Z</time>
      </trkpt>
      <trkpt lat="45.86918" lon="4.71493">
        <ele>190.23753</ele>
        <time>2023-04-24T12:12:04.000Z</time>
      </trkpt>
      <trkpt lat="45.86921" lon="4.71497">
        <ele>190.00168</ele>
        <time>2023-04-24T12:12:05.000Z</time>
      </trkpt>
      <trkpt lat="45.86924" lon="4.71501">
        <ele>189.76253</ele>
        <time>2023-04-24T12:12:06.000Z</time>
      </trkpt>
      <trkpt lat="45.86927" lon="4.71507">
        <ele>189.51382</ele>
        <time>2023-04-24T12:12:07.000Z</time>
      </trkpt>
      <trkpt lat="45.86929" lon="4.71511">
        <ele>189.28761</ele>
        <time>2023-04-24T12:12:08.000Z</time>
      </trkpt>
      <trkpt lat="45.86932" lon="4.71514">
        <ele>189.07462</ele>
        <time>2023-04-24T12:12:09.000Z</time>
      </trkpt>
      <trkpt lat="45.86936" lon="4.71517">
        <ele>188.89095</ele>
        <time>2023-04-24T12:12:10.000Z</time>
      </trkpt>
      <trkpt lat="45.86939" lon="4.7152">
        <ele>188.78828</ele>
        <time>2023-04-24T12:12:11.000Z</time>
      </trkpt>
      <trkpt lat="45.86941" lon="4.71525">
        <ele>188.72098</ele>
        <time>2023-04-24T12:12:12.000Z</time>
      </trkpt>
      <trkpt lat="45.86943" lon="4.71529">
        <ele>188.70023</ele>
        <time>2023-04-24T12:12:13.000Z</time>
      </trkpt>
      <trkpt lat="45.86945" lon="4.71534">
        <ele>188.71658</ele>
        <time>2023-04-24T12:12:14.000Z</time>
      </trkpt>
      <trkpt lat="45.86947" lon="4.71539">
        <ele>188.73065</ele>
        <time>2023-04-24T12:12:15.000Z</time>
      </trkpt>
      <trkpt lat="45.86949" lon="4.71544">
        <ele>188.72861</ele>
        <time>2023-04-24T12:12:16.000Z</time>
      </trkpt>
      <trkpt lat="45.86951" lon="4.71549">
        <ele>188.75934</ele>
        <time>2023-04-24T12:12:17.000Z</time>
      </trkpt>
      <trkpt lat="45.86953" lon="4.71553">
        <ele>188.80789</ele>
        <time>2023-04-24T12:12:18.000Z</time>
      </trkpt>
      <trkpt lat="45.86956" lon="4.71557">
        <ele>188.88751</ele>
        <time>2023-04-24T12:12:19.000Z</time>
      </trkpt>
      <trkpt lat="45.8696" lon="4.71561">
        <ele>188.9915</ele>
        <time>2023-04-24T12:12:20.000Z</time>
      </trkpt>
      <trkpt lat="45.86963" lon="4.71565">
        <ele>189.13809</ele>
        <time>2023-04-24T12:12:21.000Z</time>
      </trkpt>
      <trkpt lat="45.86967" lon="4.71569">
        <ele>189.26285</ele>
        <time>2023-04-24T12:12:22.000Z</time>
      </trkpt>
      <trkpt lat="45.86971" lon="4.71572">
        <ele>189.37132</ele>
        <time>2023-04-24T12:12:23.000Z</time>
      </trkpt>
      <trkpt lat="45.86974" lon="4.71575">
        <ele>189.47385</ele>
        <time>2023-04-24T12:12:24.000Z</time>
      </trkpt>
      <trkpt lat="45.86978" lon="4.71579">
        <ele>189.55029</ele>
        <time>2023-04-24T12:12:25.000Z</time>
      </trkpt>
      <trkpt lat="45.86981" lon="4.71583">
        <ele>189.58749</ele>
        <time>2023-04-24T12:12:26.000Z</time>
      </trkpt>
      <trkpt lat="45.86984" lon="4.71586">
        <ele>189.62155</ele>
        <time>2023-04-24T12:12:27.000Z</time>
      </trkpt>
      <trkpt lat="45.86988" lon="4.71589">
        <ele>189.63321</ele>
        <time>2023-04-24T12:12:28.000Z</time>
      </trkpt>
      <trkpt lat="45.86992" lon="4.71592">
        <ele>189.61496</ele>
        <time>2023-04-24T12:12:29.000Z</time>
      </trkpt>
      <trkpt lat="45.86995" lon="4.71595">
        <ele>189.59799</ele>
        <time>2023-04-24T12:12:30.000Z</time>
      </trkpt>
      <trkpt lat="45.86999" lon="4.71597">
        <ele>189.5381</ele>
        <time>2023-04-24T12:12:31.000Z</time>
      </trkpt>
      <trkpt lat="45.87003" lon="4.71598">
        <ele>189.48723</ele>
        <time>2023-04-24T12:12:32.000Z</time>
      </trkpt>
      <trkpt lat="45.87007" lon="4.716">
        <ele>189.44205</ele>
        <time>2023-04-24T12:12:33.000Z</time>
      </trkpt>
      <trkpt lat="45.87011" lon="4.71601">
        <ele>189.37251</ele>
        <time>2023-04-24T12:12:34.000Z</time>
      </trkpt>
      <trkpt lat="45.87015" lon="4.71603">
        <ele>189.28011</ele>
        <time>2023-04-24T12:12:35.000Z</time>
      </trkpt>
      <trkpt lat="45.87019" lon="4.71604">
        <ele>189.21982</ele>
        <time>2023-04-24T12:12:36.000Z</time>
      </trkpt>
      <trkpt lat="45.87023" lon="4.71606">
        <ele>189.07643</ele>
        <time>2023-04-24T12:12:37.000Z</time>
      </trkpt>
      <trkpt lat="45.87027" lon="4.71609">
        <ele>188.85942</ele>
        <time>2023-04-24T12:12:38.000Z</time>
      </trkpt>
      <trkpt lat="45.8703" lon="4.71612">
        <ele>188.6315</ele>
        <time>2023-04-24T12:12:39.000Z</time>
      </trkpt>
      <trkpt lat="45.87033" lon="4.71615">
        <ele>188.37784</ele>
        <time>2023-04-24T12:12:40.000Z</time>
      </trkpt>
      <trkpt lat="45.87037" lon="4.71619">
        <ele>188.07028</ele>
        <time>2023-04-24T12:12:41.000Z</time>
      </trkpt>
      <trkpt lat="45.8704" lon="4.71623">
        <ele>187.7753</ele>
        <time>2023-04-24T12:12:42.000Z</time>
      </trkpt>
      <trkpt lat="45.87044" lon="4.71626">
        <ele>187.50142</ele>
        <time>2023-04-24T12:12:43.000Z</time>
      </trkpt>
      <trkpt lat="45.87047" lon="4.7163">
        <ele>187.24509</ele>
        <time>2023-04-24T12:12:44.000Z</time>
      </trkpt>
      <trkpt lat="45.8705" lon="4.71633">
        <ele>187.04721</ele>
        <time>2023-04-24T12:12:45.000Z</time>
      </trkpt>
      <trkpt lat="45.87053" lon="4.71636">
        <ele>186.8848</ele>
        <time>2023-04-24T12:12:46.000Z</time>
      </trkpt>
      <trkpt lat="45.87057" lon="4.71639">
        <ele>186.76097</ele>
        <time>2023-04-24T12:12:47.000Z</time>
      </trkpt>
      <trkpt lat="45.8706" lon="4.71642">
        <ele>186.62288</ele>
        <time>2023-04-24T12:12:48.000Z</time>
      </trkpt>
      <trkpt lat="45.87062" lon="4.71645">
        <ele>186.51549</ele>
        <time>2023-04-24T12:12:49.000Z</time>
      </trkpt>
      <trkpt lat="45.87066" lon="4.71648">
        <ele>186.41267</ele>
        <time>2023-04-24T12:12:50.000Z</time>
      </trkpt>
      <trkpt lat="45.87069" lon="4.7165">
        <ele>186.33682</ele>
        <time>2023-04-24T12:12:51.000Z</time>
      </trkpt>
      <trkpt lat="45.87072" lon="4.71651">
        <ele>186.27664</ele>
        <time>2023-04-24T12:12:52.000Z</time>
      </trkpt>
      <trkpt lat="45.87076" lon="4.7165">
        <ele>186.19284</ele>
        <time>2023-04-24T12:12:53.000Z</time>
      </trkpt>
      <trkpt lat="45.87079" lon="4.71649">
        <ele>186.11124</ele>
        <time>2023-04-24T12:12:54.000Z</time>
      </trkpt>
      <trkpt lat="45.87082" lon="4.71648">
        <ele>186.05612</ele>
        <time>2023-04-24T12:12:55.000Z</time>
      </trkpt>
      <trkpt lat="45.87086" lon="4.71646">
        <ele>185.9763</ele>
        <time>2023-04-24T12:12:56.000Z</time>
      </trkpt>
      <trkpt lat="45.8709" lon="4.71645">
        <ele>185.93239</ele>
        <time>2023-04-24T12:12:57.000Z</time>
      </trkpt>
      <trkpt lat="45.87093" lon="4.71643">
        <ele>185.97311</ele>
        <time>2023-04-24T12:12:58.000Z</time>
      </trkpt>
      <trkpt lat="45.87097" lon="4.71642">
        <ele>185.99754</ele>
        <time>2023-04-24T12:12:59.000Z</time>
      </trkpt>
      <trkpt lat="45.87101" lon="4.71641">
        <ele>186.04654</ele>
        <time>2023-04-24T12:13:00.000Z</time>
      </trkpt>
      <trkpt lat="45.87105" lon="4.71639">
        <ele>186.08478</ele>
        <time>2023-04-24T12:13:01.000Z</time>
      </trkpt>
      <trkpt lat="45.87111" lon="4.71636">
        <ele>186.15195</ele>
        <time>2023-04-24T12:13:02.000Z</time>
      </trkpt>
      <trkpt lat="45.87115" lon="4.71634">
        <ele>186.22714</ele>
        <time>2023-04-24T12:13:03.000Z</time>
      </trkpt>
      <trkpt lat="45.87118" lon="4.71632">
        <ele>186.30069</ele>
        <time>2023-04-24T12:13:04.000Z</time>
      </trkpt>
      <trkpt lat="45.87122" lon="4.71629">
        <ele>186.33476</ele>
        <time>2023-04-24T12:13:05.000Z</time>
      </trkpt>
      <trkpt lat="45.87125" lon="4.71627">
        <ele>186.36374</ele>
        <time>2023-04-24T12:13:06.000Z</time>
      </trkpt>
      <trkpt lat="45.87128" lon="4.71624">
        <ele>186.33369</ele>
        <time>2023-04-24T12:13:07.000Z</time>
      </trkpt>
      <trkpt lat="45.87131" lon="4.7162">
        <ele>186.34891</ele>
        <time>2023-04-24T12:13:08.000Z</time>
      </trkpt>
      <trkpt lat="45.87134" lon="4.71615">
        <ele>186.3674</ele>
        <time>2023-04-24T12:13:09.000Z</time>
      </trkpt>
      <trkpt lat="45.87137" lon="4.71611">
        <ele>186.38901</ele>
        <time>2023-04-24T12:13:10.000Z</time>
      </trkpt>
      <trkpt lat="45.8714" lon="4.71608">
        <ele>186.39632</ele>
        <time>2023-04-24T12:13:11.000Z</time>
      </trkpt>
      <trkpt lat="45.87144" lon="4.71604">
        <ele>186.39043</ele>
        <time>2023-04-24T12:13:12.000Z</time>
      </trkpt>
      <trkpt lat="45.87147" lon="4.71599">
        <ele>186.5079</ele>
        <time>2023-04-24T12:13:13.000Z</time>
      </trkpt>
      <trkpt lat="45.8715" lon="4.71595">
        <ele>186.63849</ele>
        <time>2023-04-24T12:13:14.000Z</time>
      </trkpt>
      <trkpt lat="45.87153" lon="4.71591">
        <ele>186.7458</ele>
        <time>2023-04-24T12:13:15.000Z</time>
      </trkpt>
      <trkpt lat="45.87156" lon="4.71588">
        <ele>186.83566</ele>
        <time>2023-04-24T12:13:16.000Z</time>
      </trkpt>
      <trkpt lat="45.87159" lon="4.71585">
        <ele>186.96951</ele>
        <time>2023-04-24T12:13:17.000Z</time>
      </trkpt>
      <trkpt lat="45.87163" lon="4.71581">
        <ele>187.11551</ele>
        <time>2023-04-24T12:13:18.000Z</time>
      </trkpt>
      <trkpt lat="45.87166" lon="4.71577">
        <ele>187.27863</ele>
        <time>2023-04-24T12:13:19.000Z</time>
      </trkpt>
      <trkpt lat="45.8717" lon="4.71574">
        <ele>187.41986</ele>
        <time>2023-04-24T12:13:20.000Z</time>
      </trkpt>
      <trkpt lat="45.87173" lon="4.7157">
        <ele>187.61734</ele>
        <time>2023-04-24T12:13:21.000Z</time>
      </trkpt>
      <trkpt lat="45.87176" lon="4.71566">
        <ele>187.79109</ele>
        <time>2023-04-24T12:13:22.000Z</time>
      </trkpt>
      <trkpt lat="45.87179" lon="4.71562">
        <ele>187.89815</ele>
        <time>2023-04-24T12:13:23.000Z</time>
      </trkpt>
      <trkpt lat="45.87181" lon="4.71558">
        <ele>188.0152</ele>
        <time>2023-04-24T12:13:24.000Z</time>
      </trkpt>
      <trkpt lat="45.87184" lon="4.71555">
        <ele>188.15645</ele>
        <time>2023-04-24T12:13:25.000Z</time>
      </trkpt>
      <trkpt lat="45.87187" lon="4.71551">
        <ele>188.31325</ele>
        <time>2023-04-24T12:13:26.000Z</time>
      </trkpt>
      <trkpt lat="45.8719" lon="4.71548">
        <ele>188.50792</ele>
        <time>2023-04-24T12:13:27.000Z</time>
      </trkpt>
      <trkpt lat="45.87193" lon="4.71544">
        <ele>188.6627</ele>
        <time>2023-04-24T12:13:28.000Z</time>
      </trkpt>
      <trkpt lat="45.87196" lon="4.71541">
        <ele>188.84064</ele>
        <time>2023-04-24T12:13:29.000Z</time>
      </trkpt>
      <trkpt lat="45.87199" lon="4.71537">
        <ele>189.02573</ele>
        <time>2023-04-24T12:13:30.000Z</time>
      </trkpt>
      <trkpt lat="45.87202" lon="4.71533">
        <ele>189.21655</ele>
        <time>2023-04-24T12:13:31.000Z</time>
      </trkpt>
      <trkpt lat="45.87205" lon="4.71529">
        <ele>189.35672</ele>
        <time>2023-04-24T12:13:32.000Z</time>
      </trkpt>
      <trkpt lat="45.87207" lon="4.71525">
        <ele>189.38257</ele>
        <time>2023-04-24T12:13:33.000Z</time>
      </trkpt>
      <trkpt lat="45.87209" lon="4.7152">
        <ele>189.39584</ele>
        <time>2023-04-24T12:13:34.000Z</time>
      </trkpt>
      <trkpt lat="45.8721" lon="4.71516">
        <ele>189.43607</ele>
        <time>2023-04-24T12:13:35.000Z</time>
      </trkpt>
      <trkpt lat="45.87211" lon="4.71512">
        <ele>189.49646</ele>
        <time>2023-04-24T12:13:36.000Z</time>
      </trkpt>
      <trkpt lat="45.87213" lon="4.71508">
        <ele>189.55371</ele>
        <time>2023-04-24T12:13:37.000Z</time>
      </trkpt>
      <trkpt lat="45.87215" lon="4.71506">
        <ele>189.58017</ele>
        <time>2023-04-24T12:13:38.000Z</time>
      </trkpt>
      <trkpt lat="45.87217" lon="4.71503">
        <ele>189.59067</ele>
        <time>2023-04-24T12:13:39.000Z</time>
      </trkpt>
      <trkpt lat="45.8722" lon="4.715">
        <ele>189.58842</ele>
        <time>2023-04-24T12:13:40.000Z</time>
      </trkpt>
      <trkpt lat="45.87222" lon="4.71497">
        <ele>189.5486</ele>
        <time>2023-04-24T12:13:41.000Z</time>
      </trkpt>
      <trkpt lat="45.87224" lon="4.71494">
        <ele>189.51816</ele>
        <time>2023-04-24T12:13:42.000Z</time>
      </trkpt>
      <trkpt lat="45.87227" lon="4.7149">
        <ele>189.5267</ele>
        <time>2023-04-24T12:13:43.000Z</time>
      </trkpt>
      <trkpt lat="45.87229" lon="4.71486">
        <ele>189.54501</ele>
        <time>2023-04-24T12:13:44.000Z</time>
      </trkpt>
      <trkpt lat="45.87231" lon="4.71482">
        <ele>189.5648</ele>
        <time>2023-04-24T12:13:45.000Z</time>
      </trkpt>
      <trkpt lat="45.87234" lon="4.71479">
        <ele>189.6068</ele>
        <time>2023-04-24T12:13:46.000Z</time>
      </trkpt>
      <trkpt lat="45.87236" lon="4.71475">
        <ele>189.68719</ele>
        <time>2023-04-24T12:13:47.000Z</time>
      </trkpt>
      <trkpt lat="45.87238" lon="4.71472">
        <ele>189.80077</ele>
        <time>2023-04-24T12:13:48.000Z</time>
      </trkpt>
      <trkpt lat="45.87241" lon="4.71469">
        <ele>189.91548</ele>
        <time>2023-04-24T12:14:02.000Z</time>
      </trkpt>
      <trkpt lat="45.87243" lon="4.71467">
        <ele>189.99606</ele>
        <time>2023-04-24T12:14:03.000Z</time>
      </trkpt>
      <trkpt lat="45.87246" lon="4.71465">
        <ele>190.06023</ele>
        <time>2023-04-24T12:14:04.000Z</time>
      </trkpt>
      <trkpt lat="45.87248" lon="4.71463">
        <ele>190.15923</ele>
        <time>2023-04-24T12:14:05.000Z</time>
      </trkpt>
      <trkpt lat="45.87251" lon="4.7146">
        <ele>190.25916</ele>
        <time>2023-04-24T12:14:06.000Z</time>
      </trkpt>
      <trkpt lat="45.87253" lon="4.71456">
        <ele>190.397</ele>
        <time>2023-04-24T12:14:07.000Z</time>
      </trkpt>
      <trkpt lat="45.87255" lon="4.71452">
        <ele>190.5372</ele>
        <time>2023-04-24T12:14:08.000Z</time>
      </trkpt>
      <trkpt lat="45.87257" lon="4.71447">
        <ele>190.67767</ele>
        <time>2023-04-24T12:14:09.000Z</time>
      </trkpt>
      <trkpt lat="45.8726" lon="4.71443">
        <ele>190.83168</ele>
        <time>2023-04-24T12:14:10.000Z</time>
      </trkpt>
      <trkpt lat="45.87263" lon="4.71439">
        <ele>190.98579</ele>
        <time>2023-04-24T12:14:11.000Z</time>
      </trkpt>
      <trkpt lat="45.87266" lon="4.71436">
        <ele>191.13712</ele>
        <time>2023-04-24T12:14:12.000Z</time>
      </trkpt>
      <trkpt lat="45.87269" lon="4.71432">
        <ele>191.34164</ele>
        <time>2023-04-24T12:14:13.000Z</time>
      </trkpt>
      <trkpt lat="45.87272" lon="4.71428">
        <ele>191.56665</ele>
        <time>2023-04-24T12:14:14.000Z</time>
      </trkpt>
      <trkpt lat="45.87275" lon="4.71425">
        <ele>191.73344</ele>
        <time>2023-04-24T12:14:15.000Z</time>
      </trkpt>
      <trkpt lat="45.87279" lon="4.71423">
        <ele>191.91985</ele>
        <time>2023-04-24T12:14:16.000Z</time>
      </trkpt>
      <trkpt lat="45.87282" lon="4.71421">
        <ele>192.09911</ele>
        <time>2023-04-24T12:14:17.000Z</time>
      </trkpt>
      <trkpt lat="45.87286" lon="4.71419">
        <ele>192.24362</ele>
        <time>2023-04-24T12:14:18.000Z</time>
      </trkpt>
      <trkpt lat="45.8729" lon="4.71417">
        <ele>192.36063</ele>
        <time>2023-04-24T12:14:19.000Z</time>
      </trkpt>
      <trkpt lat="45.87294" lon="4.71415">
        <ele>192.44124</ele>
        <time>2023-04-24T12:14:20.000Z</time>
      </trkpt>
      <trkpt lat="45.87297" lon="4.71413">
        <ele>192.50371</ele>
        <time>2023-04-24T12:14:21.000Z</time>
      </trkpt>
      <trkpt lat="45.87301" lon="4.71412">
        <ele>192.53247</ele>
        <time>2023-04-24T12:14:22.000Z</time>
      </trkpt>
      <trkpt lat="45.87305" lon="4.7141">
        <ele>192.57292</ele>
        <time>2023-04-24T12:14:23.000Z</time>
      </trkpt>
      <trkpt lat="45.87308" lon="4.71409">
        <ele>192.62236</ele>
        <time>2023-04-24T12:14:24.000Z</time>
      </trkpt>
      <trkpt lat="45.87312" lon="4.71407">
        <ele>192.71774</ele>
        <time>2023-04-24T12:14:25.000Z</time>
      </trkpt>
      <trkpt lat="45.87315" lon="4.71405">
        <ele>192.83275</ele>
        <time>2023-04-24T12:14:26.000Z</time>
      </trkpt>
      <trkpt lat="45.87318" lon="4.71404">
        <ele>192.91652</ele>
        <time>2023-04-24T12:14:27.000Z</time>
      </trkpt>
      <trkpt lat="45.87322" lon="4.71402">
        <ele>193.02254</ele>
        <time>2023-04-24T12:14:28.000Z</time>
      </trkpt>
      <trkpt lat="45.87325" lon="4.71399">
        <ele>193.12909</ele>
        <time>2023-04-24T12:14:29.000Z</time>
      </trkpt>
      <trkpt lat="45.87329" lon="4.71397">
        <ele>193.24435</ele>
        <time>2023-04-24T12:14:30.000Z</time>
      </trkpt>
      <trkpt lat="45.87332" lon="4.71394">
        <ele>193.38065</ele>
        <time>2023-04-24T12:14:31.000Z</time>
      </trkpt>
      <trkpt lat="45.87335" lon="4.71392">
        <ele>193.55507</ele>
        <time>2023-04-24T12:14:32.000Z</time>
      </trkpt>
      <trkpt lat="45.87337" lon="4.71389">
        <ele>193.72684</ele>
        <time>2023-04-24T12:14:33.000Z</time>
      </trkpt>
      <trkpt lat="45.87339" lon="4.71387">
        <ele>193.88736</ele>
        <time>2023-04-24T12:14:34.000Z</time>
      </trkpt>
      <trkpt lat="45.87342" lon="4.71386">
        <ele>194.08043</ele>
        <time>2023-04-24T12:14:35.000Z</time>
      </trkpt>
      <trkpt lat="45.87344" lon="4.71386">
        <ele>194.28067</ele>
        <time>2023-04-24T12:14:36.000Z</time>
      </trkpt>
      <trkpt lat="45.87345" lon="4.71388">
        <ele>194.45729</ele>
        <time>2023-04-24T12:14:37.000Z</time>
      </trkpt>
      <trkpt lat="45.87347" lon="4.7139">
        <ele>194.62686</ele>
        <time>2023-04-24T12:14:38.000Z</time>
      </trkpt>
      <trkpt lat="45.87348" lon="4.71395">
        <ele>194.78342</ele>
        <time>2023-04-24T12:14:39.000Z</time>
      </trkpt>
      <trkpt lat="45.87348" lon="4.71401">
        <ele>194.93321</ele>
        <time>2023-04-24T12:14:40.000Z</time>
      </trkpt>
      <trkpt lat="45.87347" lon="4.71409">
        <ele>195.05966</ele>
        <time>2023-04-24T12:14:41.000Z</time>
      </trkpt>
      <trkpt lat="45.87346" lon="4.71416">
        <ele>195.14627</ele>
        <time>2023-04-24T12:14:42.000Z</time>
      </trkpt>
      <trkpt lat="45.87345" lon="4.71424">
        <ele>195.20622</ele>
        <time>2023-04-24T12:14:43.000Z</time>
      </trkpt>
      <trkpt lat="45.87345" lon="4.71433">
        <ele>195.24033</ele>
        <time>2023-04-24T12:14:44.000Z</time>
      </trkpt>
      <trkpt lat="45.87344" lon="4.71442">
        <ele>195.19618</ele>
        <time>2023-04-24T12:14:45.000Z</time>
      </trkpt>
      <trkpt lat="45.87342" lon="4.71452">
        <ele>195.08582</ele>
        <time>2023-04-24T12:14:46.000Z</time>
      </trkpt>
      <trkpt lat="45.87342" lon="4.71461">
        <ele>194.93291</ele>
        <time>2023-04-24T12:14:47.000Z</time>
      </trkpt>
      <trkpt lat="45.87343" lon="4.71471">
        <ele>194.71474</ele>
        <time>2023-04-24T12:14:48.000Z</time>
      </trkpt>
      <trkpt lat="45.87344" lon="4.71482">
        <ele>194.48734</ele>
        <time>2023-04-24T12:14:49.000Z</time>
      </trkpt>
      <trkpt lat="45.87347" lon="4.71493">
        <ele>194.26414</ele>
        <time>2023-04-24T12:14:50.000Z</time>
      </trkpt>
      <trkpt lat="45.8735" lon="4.71504">
        <ele>194.02499</ele>
        <time>2023-04-24T12:14:51.000Z</time>
      </trkpt>
      <trkpt lat="45.87352" lon="4.71516">
        <ele>193.68587</ele>
        <time>2023-04-24T12:14:52.000Z</time>
      </trkpt>
      <trkpt lat="45.87354" lon="4.71527">
        <ele>193.2966</ele>
        <time>2023-04-24T12:14:53.000Z</time>
      </trkpt>
      <trkpt lat="45.87356" lon="4.71538">
        <ele>192.91582</ele>
        <time>2023-04-24T12:14:54.000Z</time>
      </trkpt>
      <trkpt lat="45.87359" lon="4.7155">
        <ele>192.53705</ele>
        <time>2023-04-24T12:14:55.000Z</time>
      </trkpt>
      <trkpt lat="45.87361" lon="4.71561">
        <ele>192.14067</ele>
        <time>2023-04-24T12:14:56.000Z</time>
      </trkpt>
      <trkpt lat="45.87363" lon="4.71572">
        <ele>191.75288</ele>
        <time>2023-04-24T12:14:57.000Z</time>
      </trkpt>
      <trkpt lat="45.87365" lon="4.71583">
        <ele>191.4054</ele>
        <time>2023-04-24T12:14:58.000Z</time>
      </trkpt>
      <trkpt lat="45.87368" lon="4.71594">
        <ele>191.0442</ele>
        <time>2023-04-24T12:14:59.000Z</time>
      </trkpt>
      <trkpt lat="45.8737" lon="4.71606">
        <ele>190.67702</ele>
        <time>2023-04-24T12:15:00.000Z</time>
      </trkpt>
      <trkpt lat="45.87372" lon="4.71617">
        <ele>190.33702</ele>
        <time>2023-04-24T12:15:01.000Z</time>
      </trkpt>
      <trkpt lat="45.87374" lon="4.71628">
        <ele>189.93385</ele>
        <time>2023-04-24T12:15:02.000Z</time>
      </trkpt>
      <trkpt lat="45.87377" lon="4.71637">
        <ele>189.56859</ele>
        <time>2023-04-24T12:15:03.000Z</time>
      </trkpt>
      <trkpt lat="45.87378" lon="4.71647">
        <ele>189.21098</ele>
        <time>2023-04-24T12:15:04.000Z</time>
      </trkpt>
      <trkpt lat="45.8738" lon="4.71657">
        <ele>188.90022</ele>
        <time>2023-04-24T12:15:05.000Z</time>
      </trkpt>
      <trkpt lat="45.87382" lon="4.71667">
        <ele>188.63498</ele>
        <time>2023-04-24T12:15:06.000Z</time>
      </trkpt>
      <trkpt lat="45.87384" lon="4.71675">
        <ele>188.40353</ele>
        <time>2023-04-24T12:15:07.000Z</time>
      </trkpt>
      <trkpt lat="45.87386" lon="4.71685">
        <ele>188.20221</ele>
        <time>2023-04-24T12:15:08.000Z</time>
      </trkpt>
      <trkpt lat="45.87388" lon="4.71695">
        <ele>187.99197</ele>
        <time>2023-04-24T12:15:09.000Z</time>
      </trkpt>
      <trkpt lat="45.8739" lon="4.71702">
        <ele>187.75221</ele>
        <time>2023-04-24T12:15:10.000Z</time>
      </trkpt>
      <trkpt lat="45.87392" lon="4.7171">
        <ele>187.50998</ele>
        <time>2023-04-24T12:15:11.000Z</time>
      </trkpt>
      <trkpt lat="45.87393" lon="4.71719">
        <ele>187.33301</ele>
        <time>2023-04-24T12:15:12.000Z</time>
      </trkpt>
      <trkpt lat="45.87395" lon="4.71728">
        <ele>187.20236</ele>
        <time>2023-04-24T12:15:13.000Z</time>
      </trkpt>
      <trkpt lat="45.87397" lon="4.71737">
        <ele>187.08615</ele>
        <time>2023-04-24T12:15:14.000Z</time>
      </trkpt>
      <trkpt lat="45.87399" lon="4.71746">
        <ele>186.95912</ele>
        <time>2023-04-24T12:15:15.000Z</time>
      </trkpt>
      <trkpt lat="45.87401" lon="4.71754">
        <ele>186.8486</ele>
        <time>2023-04-24T12:15:16.000Z</time>
      </trkpt>
      <trkpt lat="45.87402" lon="4.71762">
        <ele>186.71365</ele>
        <time>2023-04-24T12:15:17.000Z</time>
      </trkpt>
      <trkpt lat="45.87404" lon="4.71771">
        <ele>186.56689</ele>
        <time>2023-04-24T12:15:18.000Z</time>
      </trkpt>
      <trkpt lat="45.87405" lon="4.7178">
        <ele>186.44235</ele>
        <time>2023-04-24T12:15:19.000Z</time>
      </trkpt>
      <trkpt lat="45.87407" lon="4.71788">
        <ele>186.31641</ele>
        <time>2023-04-24T12:15:20.000Z</time>
      </trkpt>
      <trkpt lat="45.87409" lon="4.71798">
        <ele>186.16684</ele>
        <time>2023-04-24T12:15:21.000Z</time>
      </trkpt>
      <trkpt lat="45.87411" lon="4.71806">
        <ele>186.1326</ele>
        <time>2023-04-24T12:15:22.000Z</time>
      </trkpt>
      <trkpt lat="45.87413" lon="4.71816">
        <ele>186.07034</ele>
        <time>2023-04-24T12:15:23.000Z</time>
      </trkpt>
      <trkpt lat="45.87415" lon="4.71824">
        <ele>186.02477</ele>
        <time>2023-04-24T12:15:24.000Z</time>
      </trkpt>
      <trkpt lat="45.87417" lon="4.71832">
        <ele>185.96347</ele>
        <time>2023-04-24T12:15:25.000Z</time>
      </trkpt>
      <trkpt lat="45.87418" lon="4.71841">
        <ele>185.88481</ele>
        <time>2023-04-24T12:15:26.000Z</time>
      </trkpt>
      <trkpt lat="45.87419" lon="4.7185">
        <ele>185.78696</ele>
        <time>2023-04-24T12:15:27.000Z</time>
      </trkpt>
      <trkpt lat="45.87422" lon="4.71859">
        <ele>185.69931</ele>
        <time>2023-04-24T12:15:28.000Z</time>
      </trkpt>
      <trkpt lat="45.87423" lon="4.71868">
        <ele>185.6255</ele>
        <time>2023-04-24T12:15:29.000Z</time>
      </trkpt>
      <trkpt lat="45.87424" lon="4.71877">
        <ele>185.56618</ele>
        <time>2023-04-24T12:15:30.000Z</time>
      </trkpt>
      <trkpt lat="45.87425" lon="4.71887">
        <ele>185.4962</ele>
        <time>2023-04-24T12:15:31.000Z</time>
      </trkpt>
      <trkpt lat="45.87426" lon="4.71896">
        <ele>185.42688</ele>
        <time>2023-04-24T12:15:32.000Z</time>
      </trkpt>
      <trkpt lat="45.87428" lon="4.71905">
        <ele>185.3531</ele>
        <time>2023-04-24T12:15:33.000Z</time>
      </trkpt>
      <trkpt lat="45.87428" lon="4.71914">
        <ele>185.142</ele>
        <time>2023-04-24T12:15:34.000Z</time>
      </trkpt>
      <trkpt lat="45.87429" lon="4.71922">
        <ele>184.95871</ele>
        <time>2023-04-24T12:15:35.000Z</time>
      </trkpt>
      <trkpt lat="45.87431" lon="4.71932">
        <ele>184.78519</ele>
        <time>2023-04-24T12:15:36.000Z</time>
      </trkpt>
      <trkpt lat="45.87433" lon="4.7194">
        <ele>184.6391</ele>
        <time>2023-04-24T12:15:37.000Z</time>
      </trkpt>
      <trkpt lat="45.87435" lon="4.71949">
        <ele>184.50803</ele>
        <time>2023-04-24T12:15:38.000Z</time>
      </trkpt>
      <trkpt lat="45.87437" lon="4.71958">
        <ele>184.39445</ele>
        <time>2023-04-24T12:15:39.000Z</time>
      </trkpt>
      <trkpt lat="45.87439" lon="4.71967">
        <ele>184.31693</ele>
        <time>2023-04-24T12:15:40.000Z</time>
      </trkpt>
      <trkpt lat="45.8744" lon="4.71976">
        <ele>184.25162</ele>
        <time>2023-04-24T12:15:41.000Z</time>
      </trkpt>
      <trkpt lat="45.87441" lon="4.71983">
        <ele>184.1312</ele>
        <time>2023-04-24T12:15:42.000Z</time>
      </trkpt>
      <trkpt lat="45.87443" lon="4.71992">
        <ele>184.01683</ele>
        <time>2023-04-24T12:15:43.000Z</time>
      </trkpt>
      <trkpt lat="45.87445" lon="4.72001">
        <ele>183.89449</ele>
        <time>2023-04-24T12:15:44.000Z</time>
      </trkpt>
      <trkpt lat="45.87447" lon="4.72009">
        <ele>183.79407</ele>
        <time>2023-04-24T12:15:45.000Z</time>
      </trkpt>
      <trkpt lat="45.87448" lon="4.72017">
        <ele>183.72792</ele>
        <time>2023-04-24T12:15:46.000Z</time>
      </trkpt>
      <trkpt lat="45.8745" lon="4.72026">
        <ele>183.72981</ele>
        <time>2023-04-24T12:15:47.000Z</time>
      </trkpt>
      <trkpt lat="45.87452" lon="4.72036">
        <ele>183.72542</ele>
        <time>2023-04-24T12:15:48.000Z</time>
      </trkpt>
      <trkpt lat="45.87453" lon="4.72043">
        <ele>183.72446</ele>
        <time>2023-04-24T12:15:49.000Z</time>
      </trkpt>
      <trkpt lat="45.87455" lon="4.72052">
        <ele>183.73892</ele>
        <time>2023-04-24T12:15:50.000Z</time>
      </trkpt>
      <trkpt lat="45.87456" lon="4.7206">
        <ele>183.75128</ele>
        <time>2023-04-24T12:15:51.000Z</time>
      </trkpt>
      <trkpt lat="45.87457" lon="4.72067">
        <ele>183.77013</ele>
        <time>2023-04-24T12:15:52.000Z</time>
      </trkpt>
      <trkpt lat="45.87458" lon="4.72075">
        <ele>183.73991</ele>
        <time>2023-04-24T12:15:53.000Z</time>
      </trkpt>
      <trkpt lat="45.8746" lon="4.72083">
        <ele>183.85327</ele>
        <time>2023-04-24T12:15:54.000Z</time>
      </trkpt>
      <trkpt lat="45.8746" lon="4.72091">
        <ele>183.98566</ele>
        <time>2023-04-24T12:15:55.000Z</time>
      </trkpt>
      <trkpt lat="45.87459" lon="4.72098">
        <ele>184.05814</ele>
        <time>2023-04-24T12:15:56.000Z</time>
      </trkpt>
      <trkpt lat="45.87459" lon="4.72106">
        <ele>184.15042</ele>
        <time>2023-04-24T12:15:57.000Z</time>
      </trkpt>
      <trkpt lat="45.8746" lon="4.72111">
        <ele>184.23795</ele>
        <time>2023-04-24T12:15:58.000Z</time>
      </trkpt>
      <trkpt lat="45.8746" lon="4.72116">
        <ele>184.30484</ele>
        <time>2023-04-24T12:15:59.000Z</time>
      </trkpt>
      <trkpt lat="45.87462" lon="4.72122">
        <ele>184.34058</ele>
        <time>2023-04-24T12:16:00.000Z</time>
      </trkpt>
      <trkpt lat="45.87464" lon="4.72128">
        <ele>184.32635</ele>
        <time>2023-04-24T12:16:01.000Z</time>
      </trkpt>
      <trkpt lat="45.87465" lon="4.72134">
        <ele>184.3345</ele>
        <time>2023-04-24T12:16:02.000Z</time>
      </trkpt>
      <trkpt lat="45.87468" lon="4.7214">
        <ele>184.34604</ele>
        <time>2023-04-24T12:16:03.000Z</time>
      </trkpt>
      <trkpt lat="45.87471" lon="4.72147">
        <ele>184.35834</ele>
        <time>2023-04-24T12:16:04.000Z</time>
      </trkpt>
      <trkpt lat="45.87473" lon="4.72153">
        <ele>184.40201</ele>
        <time>2023-04-24T12:16:05.000Z</time>
      </trkpt>
      <trkpt lat="45.87475" lon="4.72161">
        <ele>184.39796</ele>
        <time>2023-04-24T12:16:06.000Z</time>
      </trkpt>
      <trkpt lat="45.87476" lon="4.72168">
        <ele>184.36334</ele>
        <time>2023-04-24T12:16:07.000Z</time>
      </trkpt>
      <trkpt lat="45.87476" lon="4.72177">
        <ele>184.3345</ele>
        <time>2023-04-24T12:16:08.000Z</time>
      </trkpt>
      <trkpt lat="45.87476" lon="4.72186">
        <ele>184.29897</ele>
        <time>2023-04-24T12:16:09.000Z</time>
      </trkpt>
      <trkpt lat="45.87476" lon="4.72194">
        <ele>184.265</ele>
        <time>2023-04-24T12:16:10.000Z</time>
      </trkpt>
      <trkpt lat="45.87474" lon="4.72202">
        <ele>184.25491</ele>
        <time>2023-04-24T12:16:11.000Z</time>
      </trkpt>
      <trkpt lat="45.87473" lon="4.72211">
        <ele>184.20865</ele>
        <time>2023-04-24T12:16:12.000Z</time>
      </trkpt>
      <trkpt lat="45.87474" lon="4.72218">
        <ele>184.215</ele>
        <time>2023-04-24T12:16:13.000Z</time>
      </trkpt>
      <trkpt lat="45.87474" lon="4.72228">
        <ele>184.1599</ele>
        <time>2023-04-24T12:16:14.000Z</time>
      </trkpt>
      <trkpt lat="45.87475" lon="4.72235">
        <ele>184.05952</ele>
        <time>2023-04-24T12:16:15.000Z</time>
      </trkpt>
      <trkpt lat="45.87475" lon="4.72245">
        <ele>183.95009</ele>
        <time>2023-04-24T12:16:16.000Z</time>
      </trkpt>
      <trkpt lat="45.87477" lon="4.72253">
        <ele>183.8331</ele>
        <time>2023-04-24T12:16:17.000Z</time>
      </trkpt>
      <trkpt lat="45.87479" lon="4.72262">
        <ele>183.7276</ele>
        <time>2023-04-24T12:16:18.000Z</time>
      </trkpt>
      <trkpt lat="45.87482" lon="4.72271">
        <ele>183.68855</ele>
        <time>2023-04-24T12:16:19.000Z</time>
      </trkpt>
      <trkpt lat="45.87484" lon="4.72278">
        <ele>183.68243</ele>
        <time>2023-04-24T12:16:20.000Z</time>
      </trkpt>
      <trkpt lat="45.87488" lon="4.72286">
        <ele>183.67625</ele>
        <time>2023-04-24T12:16:21.000Z</time>
      </trkpt>
      <trkpt lat="45.8749" lon="4.72295">
        <ele>183.70714</ele>
        <time>2023-04-24T12:16:22.000Z</time>
      </trkpt>
      <trkpt lat="45.87491" lon="4.72303">
        <ele>183.74652</ele>
        <time>2023-04-24T12:16:23.000Z</time>
      </trkpt>
      <trkpt lat="45.87492" lon="4.7231">
        <ele>183.72771</ele>
        <time>2023-04-24T12:16:24.000Z</time>
      </trkpt>
      <trkpt lat="45.87494" lon="4.72319">
        <ele>183.69357</ele>
        <time>2023-04-24T12:16:25.000Z</time>
      </trkpt>
      <trkpt lat="45.87495" lon="4.72328">
        <ele>183.68254</ele>
        <time>2023-04-24T12:16:26.000Z</time>
      </trkpt>
      <trkpt lat="45.87497" lon="4.72337">
        <ele>183.64819</ele>
        <time>2023-04-24T12:16:27.000Z</time>
      </trkpt>
      <trkpt lat="45.87498" lon="4.72345">
        <ele>183.61581</ele>
        <time>2023-04-24T12:16:28.000Z</time>
      </trkpt>
      <trkpt lat="45.87501" lon="4.72354">
        <ele>183.57065</ele>
        <time>2023-04-24T12:16:29.000Z</time>
      </trkpt>
      <trkpt lat="45.87503" lon="4.72362">
        <ele>183.50854</ele>
        <time>2023-04-24T12:16:30.000Z</time>
      </trkpt>
      <trkpt lat="45.87505" lon="4.7237">
        <ele>183.43851</ele>
        <time>2023-04-24T12:16:31.000Z</time>
      </trkpt>
      <trkpt lat="45.87508" lon="4.72378">
        <ele>183.40596</ele>
        <time>2023-04-24T12:16:32.000Z</time>
      </trkpt>
      <trkpt lat="45.87512" lon="4.72385">
        <ele>183.35849</ele>
        <time>2023-04-24T12:16:33.000Z</time>
      </trkpt>
      <trkpt lat="45.87515" lon="4.72392">
        <ele>183.37338</ele>
        <time>2023-04-24T12:16:34.000Z</time>
      </trkpt>
      <trkpt lat="45.87518" lon="4.724">
        <ele>183.40099</ele>
        <time>2023-04-24T12:16:35.000Z</time>
      </trkpt>
      <trkpt lat="45.87522" lon="4.72407">
        <ele>183.47282</ele>
        <time>2023-04-24T12:16:36.000Z</time>
      </trkpt>
      <trkpt lat="45.87526" lon="4.72414">
        <ele>183.54939</ele>
        <time>2023-04-24T12:16:37.000Z</time>
      </trkpt>
      <trkpt lat="45.87529" lon="4.72421">
        <ele>183.60368</ele>
        <time>2023-04-24T12:16:38.000Z</time>
      </trkpt>
      <trkpt lat="45.87532" lon="4.72429">
        <ele>183.58244</ele>
        <time>2023-04-24T12:16:39.000Z</time>
      </trkpt>
      <trkpt lat="45.87536" lon="4.72436">
        <ele>183.53754</ele>
        <time>2023-04-24T12:16:40.000Z</time>
      </trkpt>
      <trkpt lat="45.8754" lon="4.72444">
        <ele>183.53091</ele>
        <time>2023-04-24T12:16:41.000Z</time>
      </trkpt>
      <trkpt lat="45.87544" lon="4.72451">
        <ele>183.50642</ele>
        <time>2023-04-24T12:16:42.000Z</time>
      </trkpt>
      <trkpt lat="45.87547" lon="4.72457">
        <ele>183.51868</ele>
        <time>2023-04-24T12:16:43.000Z</time>
      </trkpt>
      <trkpt lat="45.87551" lon="4.72465">
        <ele>183.59644</ele>
        <time>2023-04-24T12:16:44.000Z</time>
      </trkpt>
      <trkpt lat="45.87554" lon="4.72472">
        <ele>183.65575</ele>
        <time>2023-04-24T12:16:45.000Z</time>
      </trkpt>
      <trkpt lat="45.87558" lon="4.72479">
        <ele>183.71896</ele>
        <time>2023-04-24T12:16:46.000Z</time>
      </trkpt>
      <trkpt lat="45.87562" lon="4.72486">
        <ele>183.80817</ele>
        <time>2023-04-24T12:16:47.000Z</time>
      </trkpt>
      <trkpt lat="45.87566" lon="4.72493">
        <ele>183.88882</ele>
        <time>2023-04-24T12:16:48.000Z</time>
      </trkpt>
      <trkpt lat="45.87568" lon="4.72498">
        <ele>183.93497</ele>
        <time>2023-04-24T12:16:49.000Z</time>
      </trkpt>
      <trkpt lat="45.87572" lon="4.72504">
        <ele>183.99936</ele>
        <time>2023-04-24T12:16:50.000Z</time>
      </trkpt>
      <trkpt lat="45.87575" lon="4.7251">
        <ele>184.04263</ele>
        <time>2023-04-24T12:16:51.000Z</time>
      </trkpt>
      <trkpt lat="45.87579" lon="4.72515">
        <ele>184.08318</ele>
        <time>2023-04-24T12:16:52.000Z</time>
      </trkpt>
      <trkpt lat="45.87583" lon="4.72521">
        <ele>184.11725</ele>
        <time>2023-04-24T12:16:53.000Z</time>
      </trkpt>
      <trkpt lat="45.87586" lon="4.72526">
        <ele>184.1387</ele>
        <time>2023-04-24T12:16:54.000Z</time>
      </trkpt>
      <trkpt lat="45.87589" lon="4.7253">
        <ele>184.17252</ele>
        <time>2023-04-24T12:16:55.000Z</time>
      </trkpt>
      <trkpt lat="45.87591" lon="4.72532">
        <ele>184.20663</ele>
        <time>2023-04-24T12:16:56.000Z</time>
      </trkpt>
      <trkpt lat="45.87592" lon="4.72535">
        <ele>184.25032</ele>
        <time>2023-04-24T12:16:58.000Z</time>
      </trkpt>
      <trkpt lat="45.87594" lon="4.72535">
        <ele>184.24542</ele>
        <time>2023-04-24T12:19:17.000Z</time>
      </trkpt>
      <trkpt lat="45.87595" lon="4.72533">
        <ele>184.22412</ele>
        <time>2023-04-24T12:19:24.000Z</time>
      </trkpt>
      <trkpt lat="45.87598" lon="4.72534">
        <ele>184.20177</ele>
        <time>2023-04-24T12:19:32.000Z</time>
      </trkpt>
      <trkpt lat="45.876" lon="4.72535">
        <ele>184.179</ele>
        <time>2023-04-24T12:19:33.000Z</time>
      </trkpt>
      <trkpt lat="45.87603" lon="4.72536">
        <ele>184.16359</ele>
        <time>2023-04-24T12:19:34.000Z</time>
      </trkpt>
      <trkpt lat="45.87605" lon="4.72539">
        <ele>184.11905</ele>
        <time>2023-04-24T12:19:35.000Z</time>
      </trkpt>
      <trkpt lat="45.87607" lon="4.72541">
        <ele>184.06314</ele>
        <time>2023-04-24T12:19:36.000Z</time>
      </trkpt>
      <trkpt lat="45.87609" lon="4.72543">
        <ele>183.99994</ele>
        <time>2023-04-24T12:19:37.000Z</time>
      </trkpt>
      <trkpt lat="45.87611" lon="4.72545">
        <ele>183.93962</ele>
        <time>2023-04-24T12:19:38.000Z</time>
      </trkpt>
      <trkpt lat="45.87613" lon="4.72547">
        <ele>183.84677</ele>
        <time>2023-04-24T12:19:39.000Z</time>
      </trkpt>
      <trkpt lat="45.87615" lon="4.72549">
        <ele>183.74232</ele>
        <time>2023-04-24T12:19:40.000Z</time>
      </trkpt>
      <trkpt lat="45.87617" lon="4.72552">
        <ele>183.6916</ele>
        <time>2023-04-24T12:19:41.000Z</time>
      </trkpt>
      <trkpt lat="45.87619" lon="4.72554">
        <ele>183.60014</ele>
        <time>2023-04-24T12:19:42.000Z</time>
      </trkpt>
      <trkpt lat="45.87622" lon="4.72557">
        <ele>183.47441</ele>
        <time>2023-04-24T12:19:43.000Z</time>
      </trkpt>
      <trkpt lat="45.87625" lon="4.72559">
        <ele>183.32083</ele>
        <time>2023-04-24T12:19:44.000Z</time>
      </trkpt>
      <trkpt lat="45.87628" lon="4.72562">
        <ele>183.15948</ele>
        <time>2023-04-24T12:19:45.000Z</time>
      </trkpt>
      <trkpt lat="45.87631" lon="4.72565">
        <ele>182.97809</ele>
        <time>2023-04-24T12:19:46.000Z</time>
      </trkpt>
      <trkpt lat="45.87634" lon="4.72568">
        <ele>182.79353</ele>
        <time>2023-04-24T12:19:47.000Z</time>
      </trkpt>
      <trkpt lat="45.87637" lon="4.72571">
        <ele>182.57254</ele>
        <time>2023-04-24T12:19:48.000Z</time>
      </trkpt>
      <trkpt lat="45.87641" lon="4.72573">
        <ele>182.36526</ele>
        <time>2023-04-24T12:19:49.000Z</time>
      </trkpt>
      <trkpt lat="45.87644" lon="4.72576">
        <ele>182.21671</ele>
        <time>2023-04-24T12:19:50.000Z</time>
      </trkpt>
      <trkpt lat="45.87647" lon="4.72577">
        <ele>182.10715</ele>
        <time>2023-04-24T12:19:51.000Z</time>
      </trkpt>
      <trkpt lat="45.87651" lon="4.72579">
        <ele>182.01137</ele>
        <time>2023-04-24T12:19:52.000Z</time>
      </trkpt>
      <trkpt lat="45.87654" lon="4.7258">
        <ele>181.9476</ele>
        <time>2023-04-24T12:19:53.000Z</time>
      </trkpt>
      <trkpt lat="45.87658" lon="4.72582">
        <ele>181.88609</ele>
        <time>2023-04-24T12:19:54.000Z</time>
      </trkpt>
      <trkpt lat="45.87661" lon="4.72583">
        <ele>181.82681</ele>
        <time>2023-04-24T12:19:55.000Z</time>
      </trkpt>
      <trkpt lat="45.87665" lon="4.72584">
        <ele>181.79791</ele>
        <time>2023-04-24T12:19:56.000Z</time>
      </trkpt>
      <trkpt lat="45.87669" lon="4.72586">
        <ele>181.78159</ele>
        <time>2023-04-24T12:19:57.000Z</time>
      </trkpt>
      <trkpt lat="45.87672" lon="4.72587">
        <ele>181.75198</ele>
        <time>2023-04-24T12:19:58.000Z</time>
      </trkpt>
      <trkpt lat="45.87676" lon="4.72589">
        <ele>181.75552</ele>
        <time>2023-04-24T12:19:59.000Z</time>
      </trkpt>
      <trkpt lat="45.87679" lon="4.72591">
        <ele>181.78821</ele>
        <time>2023-04-24T12:20:00.000Z</time>
      </trkpt>
      <trkpt lat="45.87682" lon="4.72592">
        <ele>181.80759</ele>
        <time>2023-04-24T12:20:01.000Z</time>
      </trkpt>
      <trkpt lat="45.87684" lon="4.72594">
        <ele>181.88258</ele>
        <time>2023-04-24T12:20:02.000Z</time>
      </trkpt>
      <trkpt lat="45.87687" lon="4.72596">
        <ele>182.04143</ele>
        <time>2023-04-24T12:20:03.000Z</time>
      </trkpt>
      <trkpt lat="45.87689" lon="4.72599">
        <ele>182.19528</ele>
        <time>2023-04-24T12:20:04.000Z</time>
      </trkpt>
      <trkpt lat="45.87692" lon="4.72601">
        <ele>182.35367</ele>
        <time>2023-04-24T12:20:05.000Z</time>
      </trkpt>
      <trkpt lat="45.87695" lon="4.72603">
        <ele>182.50421</ele>
        <time>2023-04-24T12:20:06.000Z</time>
      </trkpt>
      <trkpt lat="45.87698" lon="4.72605">
        <ele>182.66644</ele>
        <time>2023-04-24T12:20:07.000Z</time>
      </trkpt>
      <trkpt lat="45.877" lon="4.72606">
        <ele>182.86897</ele>
        <time>2023-04-24T12:20:08.000Z</time>
      </trkpt>
      <trkpt lat="45.87703" lon="4.72607">
        <ele>183.00409</ele>
        <time>2023-04-24T12:20:09.000Z</time>
      </trkpt>
      <trkpt lat="45.87707" lon="4.72609">
        <ele>183.13699</ele>
        <time>2023-04-24T12:20:10.000Z</time>
      </trkpt>
      <trkpt lat="45.8771" lon="4.72612">
        <ele>183.25174</ele>
        <time>2023-04-24T12:20:11.000Z</time>
      </trkpt>
      <trkpt lat="45.87713" lon="4.72614">
        <ele>183.36061</ele>
        <time>2023-04-24T12:20:12.000Z</time>
      </trkpt>
      <trkpt lat="45.87717" lon="4.72616">
        <ele>183.47452</ele>
        <time>2023-04-24T12:20:13.000Z</time>
      </trkpt>
      <trkpt lat="45.8772" lon="4.72618">
        <ele>183.55731</ele>
        <time>2023-04-24T12:20:14.000Z</time>
      </trkpt>
      <trkpt lat="45.87724" lon="4.7262">
        <ele>183.6337</ele>
        <time>2023-04-24T12:20:15.000Z</time>
      </trkpt>
      <trkpt lat="45.87728" lon="4.72621">
        <ele>183.71059</ele>
        <time>2023-04-24T12:20:16.000Z</time>
      </trkpt>
      <trkpt lat="45.87732" lon="4.72621">
        <ele>183.83508</ele>
        <time>2023-04-24T12:20:17.000Z</time>
      </trkpt>
      <trkpt lat="45.87736" lon="4.7262">
        <ele>183.95555</ele>
        <time>2023-04-24T12:20:18.000Z</time>
      </trkpt>
      <trkpt lat="45.8774" lon="4.72619">
        <ele>184.03955</ele>
        <time>2023-04-24T12:20:19.000Z</time>
      </trkpt>
      <trkpt lat="45.87744" lon="4.72619">
        <ele>184.07828</ele>
        <time>2023-04-24T12:20:20.000Z</time>
      </trkpt>
      <trkpt lat="45.87748" lon="4.72618">
        <ele>184.13382</ele>
        <time>2023-04-24T12:20:21.000Z</time>
      </trkpt>
      <trkpt lat="45.87752" lon="4.72618">
        <ele>184.08731</ele>
        <time>2023-04-24T12:20:22.000Z</time>
      </trkpt>
      <trkpt lat="45.87756" lon="4.72618">
        <ele>184.02042</ele>
        <time>2023-04-24T12:20:23.000Z</time>
      </trkpt>
      <trkpt lat="45.87761" lon="4.72618">
        <ele>183.9861</ele>
        <time>2023-04-24T12:20:24.000Z</time>
      </trkpt>
      <trkpt lat="45.87764" lon="4.72619">
        <ele>183.93619</ele>
        <time>2023-04-24T12:20:25.000Z</time>
      </trkpt>
      <trkpt lat="45.87769" lon="4.7262">
        <ele>183.90234</ele>
        <time>2023-04-24T12:20:26.000Z</time>
      </trkpt>
      <trkpt lat="45.87773" lon="4.72621">
        <ele>183.86017</ele>
        <time>2023-04-24T12:20:27.000Z</time>
      </trkpt>
      <trkpt lat="45.87777" lon="4.72622">
        <ele>183.81007</ele>
        <time>2023-04-24T12:20:28.000Z</time>
      </trkpt>
      <trkpt lat="45.87781" lon="4.72624">
        <ele>183.79002</ele>
        <time>2023-04-24T12:20:29.000Z</time>
      </trkpt>
      <trkpt lat="45.87784" lon="4.72625">
        <ele>183.73965</ele>
        <time>2023-04-24T12:20:30.000Z</time>
      </trkpt>
      <trkpt lat="45.8779" lon="4.72628">
        <ele>183.67177</ele>
        <time>2023-04-24T12:20:31.000Z</time>
      </trkpt>
      <trkpt lat="45.87794" lon="4.72629">
        <ele>183.57852</ele>
        <time>2023-04-24T12:20:32.000Z</time>
      </trkpt>
      <trkpt lat="45.87798" lon="4.72632">
        <ele>183.44583</ele>
        <time>2023-04-24T12:20:33.000Z</time>
      </trkpt>
      <trkpt lat="45.87802" lon="4.72635">
        <ele>183.29196</ele>
        <time>2023-04-24T12:20:34.000Z</time>
      </trkpt>
      <trkpt lat="45.87807" lon="4.72637">
        <ele>183.12167</ele>
        <time>2023-04-24T12:20:35.000Z</time>
      </trkpt>
      <trkpt lat="45.87811" lon="4.72639">
        <ele>182.92143</ele>
        <time>2023-04-24T12:20:36.000Z</time>
      </trkpt>
      <trkpt lat="45.87816" lon="4.72641">
        <ele>182.66942</ele>
        <time>2023-04-24T12:20:37.000Z</time>
      </trkpt>
      <trkpt lat="45.87819" lon="4.72643">
        <ele>182.39923</ele>
        <time>2023-04-24T12:20:38.000Z</time>
      </trkpt>
      <trkpt lat="45.87823" lon="4.72645">
        <ele>182.12251</ele>
        <time>2023-04-24T12:20:39.000Z</time>
      </trkpt>
      <trkpt lat="45.87827" lon="4.72647">
        <ele>181.85442</ele>
        <time>2023-04-24T12:20:40.000Z</time>
      </trkpt>
      <trkpt lat="45.87831" lon="4.72649">
        <ele>181.56209</ele>
        <time>2023-04-24T12:20:41.000Z</time>
      </trkpt>
      <trkpt lat="45.87836" lon="4.72651">
        <ele>181.33748</ele>
        <time>2023-04-24T12:20:42.000Z</time>
      </trkpt>
      <trkpt lat="45.8784" lon="4.72652">
        <ele>181.13422</ele>
        <time>2023-04-24T12:20:43.000Z</time>
      </trkpt>
      <trkpt lat="45.87845" lon="4.72654">
        <ele>180.92377</ele>
        <time>2023-04-24T12:20:44.000Z</time>
      </trkpt>
      <trkpt lat="45.8785" lon="4.72656">
        <ele>180.71384</ele>
        <time>2023-04-24T12:20:45.000Z</time>
      </trkpt>
      <trkpt lat="45.87854" lon="4.72658">
        <ele>180.48691</ele>
        <time>2023-04-24T12:20:46.000Z</time>
      </trkpt>
      <trkpt lat="45.87859" lon="4.7266">
        <ele>180.26324</ele>
        <time>2023-04-24T12:20:47.000Z</time>
      </trkpt>
      <trkpt lat="45.87864" lon="4.72662">
        <ele>180.04794</ele>
        <time>2023-04-24T12:20:48.000Z</time>
      </trkpt>
      <trkpt lat="45.87869" lon="4.72665">
        <ele>179.84012</ele>
        <time>2023-04-24T12:20:49.000Z</time>
      </trkpt>
      <trkpt lat="45.87875" lon="4.72667">
        <ele>179.60738</ele>
        <time>2023-04-24T12:20:50.000Z</time>
      </trkpt>
      <trkpt lat="45.8788" lon="4.72669">
        <ele>179.42151</ele>
        <time>2023-04-24T12:20:51.000Z</time>
      </trkpt>
      <trkpt lat="45.87885" lon="4.72672">
        <ele>179.26401</ele>
        <time>2023-04-24T12:20:52.000Z</time>
      </trkpt>
      <trkpt lat="45.87889" lon="4.72676">
        <ele>179.17302</ele>
        <time>2023-04-24T12:20:53.000Z</time>
      </trkpt>
      <trkpt lat="45.87894" lon="4.7268">
        <ele>179.11517</ele>
        <time>2023-04-24T12:20:54.000Z</time>
      </trkpt>
      <trkpt lat="45.87898" lon="4.72686">
        <ele>179.11154</ele>
        <time>2023-04-24T12:20:55.000Z</time>
      </trkpt>
      <trkpt lat="45.87902" lon="4.72689">
        <ele>179.12608</ele>
        <time>2023-04-24T12:20:56.000Z</time>
      </trkpt>
      <trkpt lat="45.87906" lon="4.72694">
        <ele>179.12375</ele>
        <time>2023-04-24T12:20:57.000Z</time>
      </trkpt>
      <trkpt lat="45.87909" lon="4.72701">
        <ele>179.17056</ele>
        <time>2023-04-24T12:20:58.000Z</time>
      </trkpt>
      <trkpt lat="45.87912" lon="4.72706">
        <ele>179.22604</ele>
        <time>2023-04-24T12:20:59.000Z</time>
      </trkpt>
      <trkpt lat="45.87916" lon="4.72712">
        <ele>179.27402</ele>
        <time>2023-04-24T12:21:00.000Z</time>
      </trkpt>
      <trkpt lat="45.87919" lon="4.72718">
        <ele>179.30972</ele>
        <time>2023-04-24T12:21:01.000Z</time>
      </trkpt>
      <trkpt lat="45.87921" lon="4.72726">
        <ele>179.29326</ele>
        <time>2023-04-24T12:21:02.000Z</time>
      </trkpt>
      <trkpt lat="45.87924" lon="4.72733">
        <ele>179.26657</ele>
        <time>2023-04-24T12:21:03.000Z</time>
      </trkpt>
      <trkpt lat="45.87927" lon="4.7274">
        <ele>179.25388</ele>
        <time>2023-04-24T12:21:04.000Z</time>
      </trkpt>
      <trkpt lat="45.87929" lon="4.72745">
        <ele>179.25998</ele>
        <time>2023-04-24T12:21:05.000Z</time>
      </trkpt>
      <trkpt lat="45.87932" lon="4.72751">
        <ele>179.29819</ele>
        <time>2023-04-24T12:21:06.000Z</time>
      </trkpt>
      <trkpt lat="45.87936" lon="4.72756">
        <ele>179.34782</ele>
        <time>2023-04-24T12:21:07.000Z</time>
      </trkpt>
      <trkpt lat="45.8794" lon="4.72761">
        <ele>179.38962</ele>
        <time>2023-04-24T12:21:08.000Z</time>
      </trkpt>
      <trkpt lat="45.87945" lon="4.72766">
        <ele>179.42265</ele>
        <time>2023-04-24T12:21:09.000Z</time>
      </trkpt>
      <trkpt lat="45.8795" lon="4.72771">
        <ele>179.50305</ele>
        <time>2023-04-24T12:21:10.000Z</time>
      </trkpt>
      <trkpt lat="45.87955" lon="4.72775">
        <ele>179.57222</ele>
        <time>2023-04-24T12:21:11.000Z</time>
      </trkpt>
      <trkpt lat="45.8796" lon="4.72779">
        <ele>179.60104</ele>
        <time>2023-04-24T12:21:12.000Z</time>
      </trkpt>
      <trkpt lat="45.87964" lon="4.72784">
        <ele>179.5576</ele>
        <time>2023-04-24T12:21:13.000Z</time>
      </trkpt>
      <trkpt lat="45.8797" lon="4.72787">
        <ele>179.53088</ele>
        <time>2023-04-24T12:21:14.000Z</time>
      </trkpt>
      <trkpt lat="45.87975" lon="4.72792">
        <ele>179.48955</ele>
        <time>2023-04-24T12:21:15.000Z</time>
      </trkpt>
      <trkpt lat="45.87981" lon="4.72796">
        <ele>179.42915</ele>
        <time>2023-04-24T12:21:16.000Z</time>
      </trkpt>
      <trkpt lat="45.87986" lon="4.72801">
        <ele>179.39253</ele>
        <time>2023-04-24T12:21:17.000Z</time>
      </trkpt>
      <trkpt lat="45.87992" lon="4.72804">
        <ele>179.3365</ele>
        <time>2023-04-24T12:21:18.000Z</time>
      </trkpt>
      <trkpt lat="45.87997" lon="4.72808">
        <ele>179.29393</ele>
        <time>2023-04-24T12:21:19.000Z</time>
      </trkpt>
      <trkpt lat="45.88002" lon="4.72812">
        <ele>179.25107</ele>
        <time>2023-04-24T12:21:20.000Z</time>
      </trkpt>
      <trkpt lat="45.88006" lon="4.72817">
        <ele>179.21286</ele>
        <time>2023-04-24T12:21:21.000Z</time>
      </trkpt>
      <trkpt lat="45.88011" lon="4.72821">
        <ele>179.23921</ele>
        <time>2023-04-24T12:21:22.000Z</time>
      </trkpt>
      <trkpt lat="45.88017" lon="4.72824">
        <ele>179.24139</ele>
        <time>2023-04-24T12:21:23.000Z</time>
      </trkpt>
      <trkpt lat="45.88022" lon="4.72828">
        <ele>179.22641</ele>
        <time>2023-04-24T12:21:24.000Z</time>
      </trkpt>
      <trkpt lat="45.88027" lon="4.7283">
        <ele>179.26404</ele>
        <time>2023-04-24T12:21:25.000Z</time>
      </trkpt>
      <trkpt lat="45.88033" lon="4.72832">
        <ele>179.27475</ele>
        <time>2023-04-24T12:21:26.000Z</time>
      </trkpt>
      <trkpt lat="45.88039" lon="4.72834">
        <ele>179.27324</ele>
        <time>2023-04-24T12:21:27.000Z</time>
      </trkpt>
      <trkpt lat="45.88045" lon="4.72836">
        <ele>179.26813</ele>
        <time>2023-04-24T12:21:28.000Z</time>
      </trkpt>
      <trkpt lat="45.88051" lon="4.72838">
        <ele>179.26122</ele>
        <time>2023-04-24T12:21:29.000Z</time>
      </trkpt>
      <trkpt lat="45.88057" lon="4.72839">
        <ele>179.24677</ele>
        <time>2023-04-24T12:21:30.000Z</time>
      </trkpt>
      <trkpt lat="45.88063" lon="4.72841">
        <ele>179.22069</ele>
        <time>2023-04-24T12:21:31.000Z</time>
      </trkpt>
      <trkpt lat="45.88069" lon="4.72843">
        <ele>179.24416</ele>
        <time>2023-04-24T12:21:32.000Z</time>
      </trkpt>
      <trkpt lat="45.88074" lon="4.72845">
        <ele>179.29848</ele>
        <time>2023-04-24T12:21:33.000Z</time>
      </trkpt>
      <trkpt lat="45.88079" lon="4.72847">
        <ele>179.30289</ele>
        <time>2023-04-24T12:21:34.000Z</time>
      </trkpt>
      <trkpt lat="45.88085" lon="4.72849">
        <ele>179.30357</ele>
        <time>2023-04-24T12:21:35.000Z</time>
      </trkpt>
      <trkpt lat="45.88091" lon="4.72851">
        <ele>179.327</ele>
        <time>2023-04-24T12:21:36.000Z</time>
      </trkpt>
      <trkpt lat="45.88096" lon="4.72853">
        <ele>179.32951</ele>
        <time>2023-04-24T12:21:37.000Z</time>
      </trkpt>
      <trkpt lat="45.88102" lon="4.72855">
        <ele>179.33168</ele>
        <time>2023-04-24T12:21:38.000Z</time>
      </trkpt>
      <trkpt lat="45.88107" lon="4.72856">
        <ele>179.32477</ele>
        <time>2023-04-24T12:21:39.000Z</time>
      </trkpt>
      <trkpt lat="45.88111" lon="4.72858">
        <ele>179.33459</ele>
        <time>2023-04-24T12:21:40.000Z</time>
      </trkpt>
      <trkpt lat="45.88117" lon="4.72859">
        <ele>179.375</ele>
        <time>2023-04-24T12:21:41.000Z</time>
      </trkpt>
      <trkpt lat="45.88123" lon="4.72861">
        <ele>179.3822</ele>
        <time>2023-04-24T12:21:42.000Z</time>
      </trkpt>
      <trkpt lat="45.88129" lon="4.72862">
        <ele>179.41971</ele>
        <time>2023-04-24T12:21:43.000Z</time>
      </trkpt>
      <trkpt lat="45.88134" lon="4.72865">
        <ele>179.44585</ele>
        <time>2023-04-24T12:21:44.000Z</time>
      </trkpt>
      <trkpt lat="45.88139" lon="4.72866">
        <ele>179.45097</ele>
        <time>2023-04-24T12:21:45.000Z</time>
      </trkpt>
      <trkpt lat="45.88145" lon="4.72868">
        <ele>179.47191</ele>
        <time>2023-04-24T12:21:46.000Z</time>
      </trkpt>
      <trkpt lat="45.88151" lon="4.72868">
        <ele>179.47624</ele>
        <time>2023-04-24T12:21:47.000Z</time>
      </trkpt>
      <trkpt lat="45.88157" lon="4.7287">
        <ele>179.49812</ele>
        <time>2023-04-24T12:21:48.000Z</time>
      </trkpt>
      <trkpt lat="45.88163" lon="4.72872">
        <ele>179.54834</ele>
        <time>2023-04-24T12:21:49.000Z</time>
      </trkpt>
      <trkpt lat="45.88169" lon="4.72873">
        <ele>179.60571</ele>
        <time>2023-04-24T12:21:50.000Z</time>
      </trkpt>
      <trkpt lat="45.88175" lon="4.72874">
        <ele>179.69211</ele>
        <time>2023-04-24T12:21:51.000Z</time>
      </trkpt>
      <trkpt lat="45.88181" lon="4.72875">
        <ele>179.77548</ele>
        <time>2023-04-24T12:21:52.000Z</time>
      </trkpt>
      <trkpt lat="45.88187" lon="4.72876">
        <ele>179.8716</ele>
        <time>2023-04-24T12:21:53.000Z</time>
      </trkpt>
      <trkpt lat="45.88193" lon="4.72878">
        <ele>179.99706</ele>
        <time>2023-04-24T12:21:54.000Z</time>
      </trkpt>
      <trkpt lat="45.88199" lon="4.72879">
        <ele>180.0779</ele>
        <time>2023-04-24T12:21:55.000Z</time>
      </trkpt>
      <trkpt lat="45.88205" lon="4.72882">
        <ele>180.13248</ele>
        <time>2023-04-24T12:21:56.000Z</time>
      </trkpt>
      <trkpt lat="45.88211" lon="4.72883">
        <ele>180.1785</ele>
        <time>2023-04-24T12:21:57.000Z</time>
      </trkpt>
      <trkpt lat="45.88216" lon="4.72884">
        <ele>180.26501</ele>
        <time>2023-04-24T12:21:58.000Z</time>
      </trkpt>
      <trkpt lat="45.88222" lon="4.72884">
        <ele>180.37875</ele>
        <time>2023-04-24T12:21:59.000Z</time>
      </trkpt>
      <trkpt lat="45.88228" lon="4.72885">
        <ele>180.49568</ele>
        <time>2023-04-24T12:22:00.000Z</time>
      </trkpt>
      <trkpt lat="45.88234" lon="4.72886">
        <ele>180.61116</ele>
        <time>2023-04-24T12:22:01.000Z</time>
      </trkpt>
      <trkpt lat="45.8824" lon="4.72887">
        <ele>180.74725</ele>
        <time>2023-04-24T12:22:02.000Z</time>
      </trkpt>
      <trkpt lat="45.88244" lon="4.72886">
        <ele>180.84752</ele>
        <time>2023-04-24T12:22:03.000Z</time>
      </trkpt>
      <trkpt lat="45.8825" lon="4.72887">
        <ele>180.97293</ele>
        <time>2023-04-24T12:22:04.000Z</time>
      </trkpt>
      <trkpt lat="45.88256" lon="4.72887">
        <ele>181.05986</ele>
        <time>2023-04-24T12:22:05.000Z</time>
      </trkpt>
      <trkpt lat="45.88261" lon="4.72889">
        <ele>181.13577</ele>
        <time>2023-04-24T12:22:06.000Z</time>
      </trkpt>
      <trkpt lat="45.88266" lon="4.7289">
        <ele>181.18439</ele>
        <time>2023-04-24T12:22:07.000Z</time>
      </trkpt>
      <trkpt lat="45.88271" lon="4.72888">
        <ele>181.24028</ele>
        <time>2023-04-24T12:22:08.000Z</time>
      </trkpt>
      <trkpt lat="45.88277" lon="4.72885">
        <ele>181.26953</ele>
        <time>2023-04-24T12:22:09.000Z</time>
      </trkpt>
      <trkpt lat="45.8828" lon="4.7288">
        <ele>181.36322</ele>
        <time>2023-04-24T12:22:10.000Z</time>
      </trkpt>
      <trkpt lat="45.88283" lon="4.72875">
        <ele>181.44814</ele>
        <time>2023-04-24T12:22:11.000Z</time>
      </trkpt>
      <trkpt lat="45.88283" lon="4.72868">
        <ele>181.51277</ele>
        <time>2023-04-24T12:22:12.000Z</time>
      </trkpt>
      <trkpt lat="45.88285" lon="4.72859">
        <ele>181.56526</ele>
        <time>2023-04-24T12:22:13.000Z</time>
      </trkpt>
      <trkpt lat="45.88288" lon="4.72852">
        <ele>181.57544</ele>
        <time>2023-04-24T12:22:14.000Z</time>
      </trkpt>
      <trkpt lat="45.88292" lon="4.72846">
        <ele>181.63437</ele>
        <time>2023-04-24T12:22:15.000Z</time>
      </trkpt>
      <trkpt lat="45.88297" lon="4.72844">
        <ele>181.66493</ele>
        <time>2023-04-24T12:22:16.000Z</time>
      </trkpt>
      <trkpt lat="45.88303" lon="4.72844">
        <ele>181.7131</ele>
        <time>2023-04-24T12:22:17.000Z</time>
      </trkpt>
      <trkpt lat="45.88309" lon="4.72846">
        <ele>181.7049</ele>
        <time>2023-04-24T12:22:18.000Z</time>
      </trkpt>
      <trkpt lat="45.88314" lon="4.72848">
        <ele>181.64198</ele>
        <time>2023-04-24T12:22:19.000Z</time>
      </trkpt>
      <trkpt lat="45.88319" lon="4.72851">
        <ele>181.54619</ele>
        <time>2023-04-24T12:22:20.000Z</time>
      </trkpt>
      <trkpt lat="45.88324" lon="4.72853">
        <ele>181.46255</ele>
        <time>2023-04-24T12:22:21.000Z</time>
      </trkpt>
      <trkpt lat="45.88329" lon="4.72854">
        <ele>181.37952</ele>
        <time>2023-04-24T12:22:22.000Z</time>
      </trkpt>
      <trkpt lat="45.88335" lon="4.72857">
        <ele>181.27408</ele>
        <time>2023-04-24T12:22:23.000Z</time>
      </trkpt>
      <trkpt lat="45.88341" lon="4.72858">
        <ele>181.18338</ele>
        <time>2023-04-24T12:22:24.000Z</time>
      </trkpt>
      <trkpt lat="45.88346" lon="4.72859">
        <ele>181.08574</ele>
        <time>2023-04-24T12:22:25.000Z</time>
      </trkpt>
      <trkpt lat="45.88352" lon="4.72861">
        <ele>181.00522</ele>
        <time>2023-04-24T12:22:26.000Z</time>
      </trkpt>
      <trkpt lat="45.88358" lon="4.72864">
        <ele>180.95691</ele>
        <time>2023-04-24T12:22:27.000Z</time>
      </trkpt>
      <trkpt lat="45.88362" lon="4.72867">
        <ele>180.87248</ele>
        <time>2023-04-24T12:22:28.000Z</time>
      </trkpt>
      <trkpt lat="45.88368" lon="4.7287">
        <ele>180.79163</ele>
        <time>2023-04-24T12:22:29.000Z</time>
      </trkpt>
      <trkpt lat="45.88374" lon="4.72871">
        <ele>180.61865</ele>
        <time>2023-04-24T12:22:30.000Z</time>
      </trkpt>
      <trkpt lat="45.88379" lon="4.72871">
        <ele>180.44167</ele>
        <time>2023-04-24T12:22:31.000Z</time>
      </trkpt>
      <trkpt lat="45.88385" lon="4.7287">
        <ele>180.28526</ele>
        <time>2023-04-24T12:22:32.000Z</time>
      </trkpt>
      <trkpt lat="45.8839" lon="4.72868">
        <ele>180.12848</ele>
        <time>2023-04-24T12:22:33.000Z</time>
      </trkpt>
      <trkpt lat="45.88396" lon="4.72866">
        <ele>180.02126</ele>
        <time>2023-04-24T12:22:34.000Z</time>
      </trkpt>
      <trkpt lat="45.88401" lon="4.72864">
        <ele>179.88124</ele>
        <time>2023-04-24T12:22:35.000Z</time>
      </trkpt>
      <trkpt lat="45.88407" lon="4.72863">
        <ele>179.79102</ele>
        <time>2023-04-24T12:22:36.000Z</time>
      </trkpt>
      <trkpt lat="45.88413" lon="4.72863">
        <ele>179.70348</ele>
        <time>2023-04-24T12:22:37.000Z</time>
      </trkpt>
      <trkpt lat="45.88418" lon="4.72863">
        <ele>179.62589</ele>
        <time>2023-04-24T12:22:38.000Z</time>
      </trkpt>
      <trkpt lat="45.88424" lon="4.72864">
        <ele>179.57883</ele>
        <time>2023-04-24T12:22:39.000Z</time>
      </trkpt>
      <trkpt lat="45.88429" lon="4.72863">
        <ele>179.57474</ele>
        <time>2023-04-24T12:22:40.000Z</time>
      </trkpt>
      <trkpt lat="45.88435" lon="4.72863">
        <ele>179.54329</ele>
        <time>2023-04-24T12:22:41.000Z</time>
      </trkpt>
      <trkpt lat="45.8844" lon="4.72862">
        <ele>179.51195</ele>
        <time>2023-04-24T12:22:42.000Z</time>
      </trkpt>
      <trkpt lat="45.88446" lon="4.72861">
        <ele>179.50919</ele>
        <time>2023-04-24T12:22:43.000Z</time>
      </trkpt>
      <trkpt lat="45.88451" lon="4.7286">
        <ele>179.51718</ele>
        <time>2023-04-24T12:22:44.000Z</time>
      </trkpt>
      <trkpt lat="45.88456" lon="4.7286">
        <ele>179.55534</ele>
        <time>2023-04-24T12:22:45.000Z</time>
      </trkpt>
      <trkpt lat="45.88461" lon="4.7286">
        <ele>179.57634</ele>
        <time>2023-04-24T12:22:46.000Z</time>
      </trkpt>
      <trkpt lat="45.88466" lon="4.7286">
        <ele>179.56233</ele>
        <time>2023-04-24T12:22:47.000Z</time>
      </trkpt>
      <trkpt lat="45.88471" lon="4.7286">
        <ele>179.57297</ele>
        <time>2023-04-24T12:22:48.000Z</time>
      </trkpt>
      <trkpt lat="45.88478" lon="4.7286">
        <ele>179.55278</ele>
        <time>2023-04-24T12:22:49.000Z</time>
      </trkpt>
      <trkpt lat="45.88483" lon="4.7286">
        <ele>179.56412</ele>
        <time>2023-04-24T12:22:50.000Z</time>
      </trkpt>
      <trkpt lat="45.88487" lon="4.72861">
        <ele>179.60686</ele>
        <time>2023-04-24T12:22:51.000Z</time>
      </trkpt>
      <trkpt lat="45.88493" lon="4.72861">
        <ele>179.61758</ele>
        <time>2023-04-24T12:22:52.000Z</time>
      </trkpt>
      <trkpt lat="45.885" lon="4.72864">
        <ele>179.60367</ele>
        <time>2023-04-24T12:22:53.000Z</time>
      </trkpt>
      <trkpt lat="45.88506" lon="4.72864">
        <ele>179.61168</ele>
        <time>2023-04-24T12:22:54.000Z</time>
      </trkpt>
      <trkpt lat="45.88511" lon="4.72865">
        <ele>179.66585</ele>
        <time>2023-04-24T12:22:55.000Z</time>
      </trkpt>
      <trkpt lat="45.88517" lon="4.72865">
        <ele>179.70987</ele>
        <time>2023-04-24T12:22:56.000Z</time>
      </trkpt>
      <trkpt lat="45.88522" lon="4.72867">
        <ele>179.76282</ele>
        <time>2023-04-24T12:22:57.000Z</time>
      </trkpt>
      <trkpt lat="45.88529" lon="4.72869">
        <ele>179.80101</ele>
        <time>2023-04-24T12:22:58.000Z</time>
      </trkpt>
      <trkpt lat="45.88534" lon="4.7287">
        <ele>179.84021</ele>
        <time>2023-04-24T12:22:59.000Z</time>
      </trkpt>
      <trkpt lat="45.8854" lon="4.72871">
        <ele>179.86111</ele>
        <time>2023-04-24T12:23:00.000Z</time>
      </trkpt>
      <trkpt lat="45.88546" lon="4.72872">
        <ele>179.91438</ele>
        <time>2023-04-24T12:23:01.000Z</time>
      </trkpt>
      <trkpt lat="45.88551" lon="4.72873">
        <ele>179.95198</ele>
        <time>2023-04-24T12:23:02.000Z</time>
      </trkpt>
      <trkpt lat="45.88558" lon="4.72874">
        <ele>180.03212</ele>
        <time>2023-04-24T12:23:03.000Z</time>
      </trkpt>
      <trkpt lat="45.88563" lon="4.72876">
        <ele>180.067</ele>
        <time>2023-04-24T12:23:04.000Z</time>
      </trkpt>
      <trkpt lat="45.88568" lon="4.72879">
        <ele>180.11179</ele>
        <time>2023-04-24T12:23:05.000Z</time>
      </trkpt>
      <trkpt lat="45.88571" lon="4.72884">
        <ele>180.164</ele>
        <time>2023-04-24T12:23:06.000Z</time>
      </trkpt>
      <trkpt lat="45.88575" lon="4.72887">
        <ele>180.26253</ele>
        <time>2023-04-24T12:23:07.000Z</time>
      </trkpt>
      <trkpt lat="45.8858" lon="4.72891">
        <ele>180.32114</ele>
        <time>2023-04-24T12:23:08.000Z</time>
      </trkpt>
      <trkpt lat="45.88586" lon="4.72895">
        <ele>180.38718</ele>
        <time>2023-04-24T12:23:09.000Z</time>
      </trkpt>
      <trkpt lat="45.88591" lon="4.72898">
        <ele>180.43002</ele>
        <time>2023-04-24T12:23:10.000Z</time>
      </trkpt>
      <trkpt lat="45.88596" lon="4.72901">
        <ele>180.4482</ele>
        <time>2023-04-24T12:23:11.000Z</time>
      </trkpt>
      <trkpt lat="45.88601" lon="4.72905">
        <ele>180.44662</ele>
        <time>2023-04-24T12:23:12.000Z</time>
      </trkpt>
      <trkpt lat="45.88605" lon="4.72908">
        <ele>180.45625</ele>
        <time>2023-04-24T12:23:13.000Z</time>
      </trkpt>
      <trkpt lat="45.88611" lon="4.72911">
        <ele>180.4639</ele>
        <time>2023-04-24T12:23:14.000Z</time>
      </trkpt>
      <trkpt lat="45.88616" lon="4.72913">
        <ele>180.42621</ele>
        <time>2023-04-24T12:23:15.000Z</time>
      </trkpt>
      <trkpt lat="45.88621" lon="4.72915">
        <ele>180.3987</ele>
        <time>2023-04-24T12:23:16.000Z</time>
      </trkpt>
      <trkpt lat="45.88626" lon="4.72915">
        <ele>180.38474</ele>
        <time>2023-04-24T12:23:17.000Z</time>
      </trkpt>
      <trkpt lat="45.88631" lon="4.72916">
        <ele>180.38388</ele>
        <time>2023-04-24T12:23:18.000Z</time>
      </trkpt>
      <trkpt lat="45.88637" lon="4.72915">
        <ele>180.38455</ele>
        <time>2023-04-24T12:23:19.000Z</time>
      </trkpt>
      <trkpt lat="45.88642" lon="4.72912">
        <ele>180.36963</ele>
        <time>2023-04-24T12:23:20.000Z</time>
      </trkpt>
      <trkpt lat="45.88646" lon="4.7291">
        <ele>180.33133</ele>
        <time>2023-04-24T12:23:21.000Z</time>
      </trkpt>
      <trkpt lat="45.88651" lon="4.72908">
        <ele>180.30423</ele>
        <time>2023-04-24T12:23:22.000Z</time>
      </trkpt>
      <trkpt lat="45.88656" lon="4.72905">
        <ele>180.23376</ele>
        <time>2023-04-24T12:23:23.000Z</time>
      </trkpt>
      <trkpt lat="45.88661" lon="4.72902">
        <ele>180.19461</ele>
        <time>2023-04-24T12:23:24.000Z</time>
      </trkpt>
      <trkpt lat="45.88666" lon="4.72899">
        <ele>180.15683</ele>
        <time>2023-04-24T12:23:25.000Z</time>
      </trkpt>
      <trkpt lat="45.8867" lon="4.72897">
        <ele>180.12282</ele>
        <time>2023-04-24T12:23:26.000Z</time>
      </trkpt>
      <trkpt lat="45.88674" lon="4.72895">
        <ele>180.1019</ele>
        <time>2023-04-24T12:23:27.000Z</time>
      </trkpt>
      <trkpt lat="45.88679" lon="4.72894">
        <ele>180.08058</ele>
        <time>2023-04-24T12:23:28.000Z</time>
      </trkpt>
      <trkpt lat="45.88683" lon="4.72893">
        <ele>180.07712</ele>
        <time>2023-04-24T12:23:29.000Z</time>
      </trkpt>
      <trkpt lat="45.88688" lon="4.72893">
        <ele>180.10594</ele>
        <time>2023-04-24T12:23:30.000Z</time>
      </trkpt>
      <trkpt lat="45.88693" lon="4.72892">
        <ele>180.157</ele>
        <time>2023-04-24T12:23:31.000Z</time>
      </trkpt>
      <trkpt lat="45.88698" lon="4.72893">
        <ele>180.23474</ele>
        <time>2023-04-24T12:23:32.000Z</time>
      </trkpt>
      <trkpt lat="45.88704" lon="4.72893">
        <ele>180.31036</ele>
        <time>2023-04-24T12:23:33.000Z</time>
      </trkpt>
      <trkpt lat="45.88709" lon="4.72894">
        <ele>180.36081</ele>
        <time>2023-04-24T12:23:34.000Z</time>
      </trkpt>
      <trkpt lat="45.88713" lon="4.72895">
        <ele>180.4315</ele>
        <time>2023-04-24T12:23:35.000Z</time>
      </trkpt>
      <trkpt lat="45.88719" lon="4.72896">
        <ele>180.50145</ele>
        <time>2023-04-24T12:23:36.000Z</time>
      </trkpt>
      <trkpt lat="45.88725" lon="4.72896">
        <ele>180.55594</ele>
        <time>2023-04-24T12:23:37.000Z</time>
      </trkpt>
      <trkpt lat="45.88729" lon="4.72898">
        <ele>180.58919</ele>
        <time>2023-04-24T12:23:38.000Z</time>
      </trkpt>
      <trkpt lat="45.88734" lon="4.72899">
        <ele>180.60477</ele>
        <time>2023-04-24T12:23:39.000Z</time>
      </trkpt>
      <trkpt lat="45.88737" lon="4.729">
        <ele>180.65121</ele>
        <time>2023-04-24T12:23:40.000Z</time>
      </trkpt>
      <trkpt lat="45.88742" lon="4.72901">
        <ele>180.67793</ele>
        <time>2023-04-24T12:23:41.000Z</time>
      </trkpt>
      <trkpt lat="45.88747" lon="4.729">
        <ele>180.71843</ele>
        <time>2023-04-24T12:23:42.000Z</time>
      </trkpt>
      <trkpt lat="45.88751" lon="4.72899">
        <ele>180.74199</ele>
        <time>2023-04-24T12:23:43.000Z</time>
      </trkpt>
      <trkpt lat="45.88753" lon="4.72897">
        <ele>180.75089</ele>
        <time>2023-04-24T12:23:44.000Z</time>
      </trkpt>
      <trkpt lat="45.88756" lon="4.72894">
        <ele>180.77708</ele>
        <time>2023-04-24T12:23:45.000Z</time>
      </trkpt>
      <trkpt lat="45.88757" lon="4.7289">
        <ele>180.77805</ele>
        <time>2023-04-24T12:23:46.000Z</time>
      </trkpt>
      <trkpt lat="45.88757" lon="4.72886">
        <ele>180.80122</ele>
        <time>2023-04-24T12:23:47.000Z</time>
      </trkpt>
      <trkpt lat="45.88757" lon="4.72882">
        <ele>180.82713</ele>
        <time>2023-04-24T12:23:48.000Z</time>
      </trkpt>
      <trkpt lat="45.88757" lon="4.72879">
        <ele>180.84445</ele>
        <time>2023-04-24T12:23:49.000Z</time>
      </trkpt>
      <trkpt lat="45.88758" lon="4.72875">
        <ele>180.85941</ele>
        <time>2023-04-24T12:23:50.000Z</time>
      </trkpt>
      <trkpt lat="45.88758" lon="4.72872">
        <ele>180.78883</ele>
        <time>2023-04-24T12:23:51.000Z</time>
      </trkpt>
      <trkpt lat="45.88758" lon="4.72868">
        <ele>180.73203</ele>
        <time>2023-04-24T12:23:52.000Z</time>
      </trkpt>
      <trkpt lat="45.88758" lon="4.72864">
        <ele>180.70151</ele>
        <time>2023-04-24T12:23:53.000Z</time>
      </trkpt>
      <trkpt lat="45.88758" lon="4.7286">
        <ele>180.68056</ele>
        <time>2023-04-24T12:23:54.000Z</time>
      </trkpt>
      <trkpt lat="45.88759" lon="4.72856">
        <ele>180.6412</ele>
        <time>2023-04-24T12:23:55.000Z</time>
      </trkpt>
      <trkpt lat="45.88759" lon="4.72853">
        <ele>180.61121</ele>
        <time>2023-04-24T12:23:56.000Z</time>
      </trkpt>
      <trkpt lat="45.88759" lon="4.72851">
        <ele>180.59668</ele>
        <time>2023-04-24T12:23:57.000Z</time>
      </trkpt>
      <trkpt lat="45.88761" lon="4.72847">
        <ele>180.60143</ele>
        <time>2023-04-24T12:23:59.000Z</time>
      </trkpt>
      <trkpt lat="45.88763" lon="4.72843">
        <ele>180.61475</ele>
        <time>2023-04-24T12:24:01.000Z</time>
      </trkpt>
      <trkpt lat="45.88764" lon="4.7284">
        <ele>180.68944</ele>
        <time>2023-04-24T12:24:02.000Z</time>
      </trkpt>
      <trkpt lat="45.88764" lon="4.72836">
        <ele>180.77161</ele>
        <time>2023-04-24T12:24:03.000Z</time>
      </trkpt>
      <trkpt lat="45.88765" lon="4.72832">
        <ele>180.84445</ele>
        <time>2023-04-24T12:24:04.000Z</time>
      </trkpt>
      <trkpt lat="45.88765" lon="4.72828">
        <ele>180.93633</ele>
        <time>2023-04-24T12:24:05.000Z</time>
      </trkpt>
      <trkpt lat="45.88765" lon="4.72823">
        <ele>181.01573</ele>
        <time>2023-04-24T12:24:06.000Z</time>
      </trkpt>
      <trkpt lat="45.88765" lon="4.72818">
        <ele>181.05057</ele>
        <time>2023-04-24T12:24:07.000Z</time>
      </trkpt>
      <trkpt lat="45.88765" lon="4.72813">
        <ele>181.08817</ele>
        <time>2023-04-24T12:24:08.000Z</time>
      </trkpt>
      <trkpt lat="45.88764" lon="4.72808">
        <ele>181.06369</ele>
        <time>2023-04-24T12:24:09.000Z</time>
      </trkpt>
      <trkpt lat="45.88764" lon="4.72803">
        <ele>181.06088</ele>
        <time>2023-04-24T12:24:10.000Z</time>
      </trkpt>
      <trkpt lat="45.88764" lon="4.72797">
        <ele>181.07106</ele>
        <time>2023-04-24T12:24:11.000Z</time>
      </trkpt>
      <trkpt lat="45.88763" lon="4.72791">
        <ele>181.0759</ele>
        <time>2023-04-24T12:24:12.000Z</time>
      </trkpt>
      <trkpt lat="45.88763" lon="4.72786">
        <ele>181.12744</ele>
        <time>2023-04-24T12:24:13.000Z</time>
      </trkpt>
      <trkpt lat="45.88763" lon="4.7278">
        <ele>181.17557</ele>
        <time>2023-04-24T12:24:14.000Z</time>
      </trkpt>
      <trkpt lat="45.88762" lon="4.72774">
        <ele>181.26149</ele>
        <time>2023-04-24T12:24:15.000Z</time>
      </trkpt>
      <trkpt lat="45.88762" lon="4.72768">
        <ele>181.34203</ele>
        <time>2023-04-24T12:24:16.000Z</time>
      </trkpt>
      <trkpt lat="45.88761" lon="4.72761">
        <ele>181.42609</ele>
        <time>2023-04-24T12:24:17.000Z</time>
      </trkpt>
      <trkpt lat="45.88761" lon="4.72754">
        <ele>181.47392</ele>
        <time>2023-04-24T12:24:18.000Z</time>
      </trkpt>
      <trkpt lat="45.8876" lon="4.72748">
        <ele>181.51089</ele>
        <time>2023-04-24T12:24:19.000Z</time>
      </trkpt>
      <trkpt lat="45.8876" lon="4.7274">
        <ele>181.52896</ele>
        <time>2023-04-24T12:24:20.000Z</time>
      </trkpt>
      <trkpt lat="45.8876" lon="4.72732">
        <ele>181.53105</ele>
        <time>2023-04-24T12:24:21.000Z</time>
      </trkpt>
      <trkpt lat="45.88759" lon="4.72724">
        <ele>181.46335</ele>
        <time>2023-04-24T12:24:22.000Z</time>
      </trkpt>
      <trkpt lat="45.88758" lon="4.72716">
        <ele>181.38831</ele>
        <time>2023-04-24T12:24:23.000Z</time>
      </trkpt>
      <trkpt lat="45.88758" lon="4.7271">
        <ele>181.30365</ele>
        <time>2023-04-24T12:24:24.000Z</time>
      </trkpt>
      <trkpt lat="45.88757" lon="4.72703">
        <ele>181.19969</ele>
        <time>2023-04-24T12:24:25.000Z</time>
      </trkpt>
      <trkpt lat="45.88757" lon="4.72697">
        <ele>181.10263</ele>
        <time>2023-04-24T12:24:26.000Z</time>
      </trkpt>
      <trkpt lat="45.88757" lon="4.7269">
        <ele>181.05742</ele>
        <time>2023-04-24T12:24:27.000Z</time>
      </trkpt>
      <trkpt lat="45.88756" lon="4.72683">
        <ele>181.02518</ele>
        <time>2023-04-24T12:24:28.000Z</time>
      </trkpt>
      <trkpt lat="45.88755" lon="4.72677">
        <ele>181.01695</ele>
        <time>2023-04-24T12:24:29.000Z</time>
      </trkpt>
      <trkpt lat="45.88754" lon="4.7267">
        <ele>181.0094</ele>
        <time>2023-04-24T12:24:30.000Z</time>
      </trkpt>
      <trkpt lat="45.88753" lon="4.72664">
        <ele>181.01117</ele>
        <time>2023-04-24T12:24:31.000Z</time>
      </trkpt>
      <trkpt lat="45.88753" lon="4.72658">
        <ele>181.03456</ele>
        <time>2023-04-24T12:24:32.000Z</time>
      </trkpt>
      <trkpt lat="45.88752" lon="4.72652">
        <ele>181.05856</ele>
        <time>2023-04-24T12:24:33.000Z</time>
      </trkpt>
      <trkpt lat="45.88752" lon="4.72645">
        <ele>181.16734</ele>
        <time>2023-04-24T12:24:34.000Z</time>
      </trkpt>
      <trkpt lat="45.88752" lon="4.72637">
        <ele>181.22974</ele>
        <time>2023-04-24T12:24:35.000Z</time>
      </trkpt>
      <trkpt lat="45.88751" lon="4.7263">
        <ele>181.30321</ele>
        <time>2023-04-24T12:24:36.000Z</time>
      </trkpt>
      <trkpt lat="45.8875" lon="4.72624">
        <ele>181.39438</ele>
        <time>2023-04-24T12:24:37.000Z</time>
      </trkpt>
      <trkpt lat="45.8875" lon="4.72617">
        <ele>181.46718</ele>
        <time>2023-04-24T12:24:38.000Z</time>
      </trkpt>
      <trkpt lat="45.88749" lon="4.72611">
        <ele>181.55269</ele>
        <time>2023-04-24T12:24:39.000Z</time>
      </trkpt>
      <trkpt lat="45.88748" lon="4.72604">
        <ele>181.65413</ele>
        <time>2023-04-24T12:24:40.000Z</time>
      </trkpt>
      <trkpt lat="45.88748" lon="4.72598">
        <ele>181.74768</ele>
        <time>2023-04-24T12:24:41.000Z</time>
      </trkpt>
      <trkpt lat="45.88747" lon="4.72591">
        <ele>181.85135</ele>
        <time>2023-04-24T12:24:42.000Z</time>
      </trkpt>
      <trkpt lat="45.88746" lon="4.72585">
        <ele>181.97687</ele>
        <time>2023-04-24T12:24:43.000Z</time>
      </trkpt>
      <trkpt lat="45.88745" lon="4.72578">
        <ele>181.99161</ele>
        <time>2023-04-24T12:24:44.000Z</time>
      </trkpt>
      <trkpt lat="45.88744" lon="4.72572">
        <ele>182.00894</ele>
        <time>2023-04-24T12:24:45.000Z</time>
      </trkpt>
      <trkpt lat="45.88743" lon="4.72567">
        <ele>182.00992</ele>
        <time>2023-04-24T12:24:46.000Z</time>
      </trkpt>
      <trkpt lat="45.88742" lon="4.72561">
        <ele>181.99799</ele>
        <time>2023-04-24T12:24:47.000Z</time>
      </trkpt>
      <trkpt lat="45.88741" lon="4.72554">
        <ele>182.07205</ele>
        <time>2023-04-24T12:24:48.000Z</time>
      </trkpt>
      <trkpt lat="45.8874" lon="4.72548">
        <ele>182.10435</ele>
        <time>2023-04-24T12:24:49.000Z</time>
      </trkpt>
      <trkpt lat="45.88738" lon="4.72541">
        <ele>182.12534</ele>
        <time>2023-04-24T12:24:50.000Z</time>
      </trkpt>
      <trkpt lat="45.88737" lon="4.72535">
        <ele>182.17322</ele>
        <time>2023-04-24T12:24:51.000Z</time>
      </trkpt>
      <trkpt lat="45.88735" lon="4.72528">
        <ele>182.17007</ele>
        <time>2023-04-24T12:24:52.000Z</time>
      </trkpt>
      <trkpt lat="45.88734" lon="4.72521">
        <ele>182.16443</ele>
        <time>2023-04-24T12:24:53.000Z</time>
      </trkpt>
      <trkpt lat="45.88733" lon="4.72514">
        <ele>181.97156</ele>
        <time>2023-04-24T12:24:54.000Z</time>
      </trkpt>
      <trkpt lat="45.88731" lon="4.72506">
        <ele>181.79817</ele>
        <time>2023-04-24T12:24:55.000Z</time>
      </trkpt>
      <trkpt lat="45.88731" lon="4.72499">
        <ele>181.62143</ele>
        <time>2023-04-24T12:24:56.000Z</time>
      </trkpt>
      <trkpt lat="45.8873" lon="4.72492">
        <ele>181.43912</ele>
        <time>2023-04-24T12:24:57.000Z</time>
      </trkpt>
      <trkpt lat="45.8873" lon="4.72484">
        <ele>181.25494</ele>
        <time>2023-04-24T12:24:58.000Z</time>
      </trkpt>
      <trkpt lat="45.8873" lon="4.72475">
        <ele>181.05515</ele>
        <time>2023-04-24T12:24:59.000Z</time>
      </trkpt>
      <trkpt lat="45.88731" lon="4.72467">
        <ele>180.88274</ele>
        <time>2023-04-24T12:25:00.000Z</time>
      </trkpt>
      <trkpt lat="45.88733" lon="4.7246">
        <ele>180.73643</ele>
        <time>2023-04-24T12:25:01.000Z</time>
      </trkpt>
      <trkpt lat="45.88736" lon="4.72453">
        <ele>180.59494</ele>
        <time>2023-04-24T12:25:02.000Z</time>
      </trkpt>
      <trkpt lat="45.88738" lon="4.72447">
        <ele>180.45149</ele>
        <time>2023-04-24T12:25:03.000Z</time>
      </trkpt>
      <trkpt lat="45.8874" lon="4.72439">
        <ele>180.42551</ele>
        <time>2023-04-24T12:25:04.000Z</time>
      </trkpt>
      <trkpt lat="45.88743" lon="4.72432">
        <ele>180.42825</ele>
        <time>2023-04-24T12:25:05.000Z</time>
      </trkpt>
      <trkpt lat="45.88746" lon="4.72426">
        <ele>180.45509</ele>
        <time>2023-04-24T12:25:06.000Z</time>
      </trkpt>
      <trkpt lat="45.88749" lon="4.7242">
        <ele>180.48215</ele>
        <time>2023-04-24T12:25:07.000Z</time>
      </trkpt>
      <trkpt lat="45.88752" lon="4.72415">
        <ele>180.40811</ele>
        <time>2023-04-24T12:25:08.000Z</time>
      </trkpt>
      <trkpt lat="45.88756" lon="4.7241">
        <ele>180.37634</ele>
        <time>2023-04-24T12:25:09.000Z</time>
      </trkpt>
      <trkpt lat="45.88759" lon="4.72403">
        <ele>180.35849</ele>
        <time>2023-04-24T12:25:10.000Z</time>
      </trkpt>
      <trkpt lat="45.88762" lon="4.72397">
        <ele>180.3114</ele>
        <time>2023-04-24T12:25:11.000Z</time>
      </trkpt>
      <trkpt lat="45.88764" lon="4.72391">
        <ele>180.29279</ele>
        <time>2023-04-24T12:25:12.000Z</time>
      </trkpt>
      <trkpt lat="45.88767" lon="4.72384">
        <ele>180.26454</ele>
        <time>2023-04-24T12:25:13.000Z</time>
      </trkpt>
      <trkpt lat="45.8877" lon="4.72378">
        <ele>180.33376</ele>
        <time>2023-04-24T12:25:14.000Z</time>
      </trkpt>
      <trkpt lat="45.88773" lon="4.72373">
        <ele>180.38097</ele>
        <time>2023-04-24T12:25:15.000Z</time>
      </trkpt>
      <trkpt lat="45.88776" lon="4.72368">
        <ele>180.41512</ele>
        <time>2023-04-24T12:25:16.000Z</time>
      </trkpt>
      <trkpt lat="45.88778" lon="4.72363">
        <ele>180.41487</ele>
        <time>2023-04-24T12:25:17.000Z</time>
      </trkpt>
      <trkpt lat="45.88781" lon="4.72357">
        <ele>180.48907</ele>
        <time>2023-04-24T12:25:18.000Z</time>
      </trkpt>
      <trkpt lat="45.88783" lon="4.72352">
        <ele>180.58258</ele>
        <time>2023-04-24T12:25:19.000Z</time>
      </trkpt>
      <trkpt lat="45.88786" lon="4.72346">
        <ele>180.65425</ele>
        <time>2023-04-24T12:25:20.000Z</time>
      </trkpt>
      <trkpt lat="45.88789" lon="4.7234">
        <ele>180.73059</ele>
        <time>2023-04-24T12:25:21.000Z</time>
      </trkpt>
      <trkpt lat="45.88791" lon="4.72335">
        <ele>180.7932</ele>
        <time>2023-04-24T12:25:22.000Z</time>
      </trkpt>
      <trkpt lat="45.88795" lon="4.72329">
        <ele>180.84616</ele>
        <time>2023-04-24T12:25:23.000Z</time>
      </trkpt>
      <trkpt lat="45.88797" lon="4.72323">
        <ele>180.92545</ele>
        <time>2023-04-24T12:25:24.000Z</time>
      </trkpt>
      <trkpt lat="45.888" lon="4.72317">
        <ele>181.00131</ele>
        <time>2023-04-24T12:25:25.000Z</time>
      </trkpt>
      <trkpt lat="45.88802" lon="4.7231">
        <ele>181.08488</ele>
        <time>2023-04-24T12:25:26.000Z</time>
      </trkpt>
      <trkpt lat="45.88804" lon="4.72302">
        <ele>181.10886</ele>
        <time>2023-04-24T12:25:27.000Z</time>
      </trkpt>
      <trkpt lat="45.88806" lon="4.72296">
        <ele>181.16113</ele>
        <time>2023-04-24T12:25:28.000Z</time>
      </trkpt>
      <trkpt lat="45.88807" lon="4.72289">
        <ele>181.18607</ele>
        <time>2023-04-24T12:25:29.000Z</time>
      </trkpt>
      <trkpt lat="45.88809" lon="4.72282">
        <ele>181.17276</ele>
        <time>2023-04-24T12:25:30.000Z</time>
      </trkpt>
      <trkpt lat="45.88809" lon="4.72274">
        <ele>181.16519</ele>
        <time>2023-04-24T12:25:31.000Z</time>
      </trkpt>
      <trkpt lat="45.8881" lon="4.72267">
        <ele>181.15392</ele>
        <time>2023-04-24T12:25:32.000Z</time>
      </trkpt>
      <trkpt lat="45.8881" lon="4.72259">
        <ele>181.14665</ele>
        <time>2023-04-24T12:25:33.000Z</time>
      </trkpt>
      <trkpt lat="45.88811" lon="4.72253">
        <ele>181.14085</ele>
        <time>2023-04-24T12:25:34.000Z</time>
      </trkpt>
      <trkpt lat="45.88812" lon="4.72245">
        <ele>181.12726</ele>
        <time>2023-04-24T12:25:35.000Z</time>
      </trkpt>
      <trkpt lat="45.88814" lon="4.72237">
        <ele>181.1127</ele>
        <time>2023-04-24T12:25:36.000Z</time>
      </trkpt>
      <trkpt lat="45.88815" lon="4.72231">
        <ele>181.10983</ele>
        <time>2023-04-24T12:25:37.000Z</time>
      </trkpt>
      <trkpt lat="45.88816" lon="4.72224">
        <ele>181.05576</ele>
        <time>2023-04-24T12:25:38.000Z</time>
      </trkpt>
      <trkpt lat="45.88817" lon="4.72216">
        <ele>180.99759</ele>
        <time>2023-04-24T12:25:39.000Z</time>
      </trkpt>
      <trkpt lat="45.88819" lon="4.72209">
        <ele>180.95186</ele>
        <time>2023-04-24T12:25:40.000Z</time>
      </trkpt>
      <trkpt lat="45.88819" lon="4.72202">
        <ele>180.89291</ele>
        <time>2023-04-24T12:25:41.000Z</time>
      </trkpt>
      <trkpt lat="45.88821" lon="4.72195">
        <ele>180.81444</ele>
        <time>2023-04-24T12:25:42.000Z</time>
      </trkpt>
      <trkpt lat="45.88822" lon="4.72187">
        <ele>180.7692</ele>
        <time>2023-04-24T12:25:43.000Z</time>
      </trkpt>
      <trkpt lat="45.88822" lon="4.72181">
        <ele>180.67746</ele>
        <time>2023-04-24T12:25:44.000Z</time>
      </trkpt>
      <trkpt lat="45.88823" lon="4.72172">
        <ele>180.56297</ele>
        <time>2023-04-24T12:25:45.000Z</time>
      </trkpt>
      <trkpt lat="45.88824" lon="4.72164">
        <ele>180.47893</ele>
        <time>2023-04-24T12:25:46.000Z</time>
      </trkpt>
      <trkpt lat="45.88826" lon="4.72158">
        <ele>180.40875</ele>
        <time>2023-04-24T12:25:47.000Z</time>
      </trkpt>
      <trkpt lat="45.88827" lon="4.72151">
        <ele>180.34364</ele>
        <time>2023-04-24T12:25:48.000Z</time>
      </trkpt>
      <trkpt lat="45.88829" lon="4.72144">
        <ele>180.29013</ele>
        <time>2023-04-24T12:25:49.000Z</time>
      </trkpt>
      <trkpt lat="45.8883" lon="4.72137">
        <ele>180.29881</ele>
        <time>2023-04-24T12:25:50.000Z</time>
      </trkpt>
      <trkpt lat="45.88831" lon="4.7213">
        <ele>180.28415</ele>
        <time>2023-04-24T12:25:51.000Z</time>
      </trkpt>
      <trkpt lat="45.88832" lon="4.72123">
        <ele>180.27446</ele>
        <time>2023-04-24T12:25:52.000Z</time>
      </trkpt>
      <trkpt lat="45.88834" lon="4.72116">
        <ele>180.26921</ele>
        <time>2023-04-24T12:25:53.000Z</time>
      </trkpt>
      <trkpt lat="45.88836" lon="4.7211">
        <ele>180.2588</ele>
        <time>2023-04-24T12:25:54.000Z</time>
      </trkpt>
      <trkpt lat="45.88838" lon="4.72105">
        <ele>180.25168</ele>
        <time>2023-04-24T12:25:55.000Z</time>
      </trkpt>
      <trkpt lat="45.88841" lon="4.72103">
        <ele>180.22148</ele>
        <time>2023-04-24T12:25:56.000Z</time>
      </trkpt>
      <trkpt lat="45.88842" lon="4.72101">
        <ele>180.20432</ele>
        <time>2023-04-24T12:25:57.000Z</time>
      </trkpt>
      <trkpt lat="45.88843" lon="4.72098">
        <ele>180.27458</ele>
        <time>2023-04-24T12:26:37.000Z</time>
      </trkpt>
      <trkpt lat="45.88845" lon="4.72097">
        <ele>180.33774</ele>
        <time>2023-04-24T12:26:38.000Z</time>
      </trkpt>
      <trkpt lat="45.88848" lon="4.72096">
        <ele>180.39581</ele>
        <time>2023-04-24T12:26:39.000Z</time>
      </trkpt>
      <trkpt lat="45.88851" lon="4.72097">
        <ele>180.47003</ele>
        <time>2023-04-24T12:26:40.000Z</time>
      </trkpt>
      <trkpt lat="45.88854" lon="4.72099">
        <ele>180.57654</ele>
        <time>2023-04-24T12:26:41.000Z</time>
      </trkpt>
      <trkpt lat="45.88857" lon="4.72101">
        <ele>180.67146</ele>
        <time>2023-04-24T12:26:42.000Z</time>
      </trkpt>
      <trkpt lat="45.88859" lon="4.72102">
        <ele>180.7373</ele>
        <time>2023-04-24T12:26:43.000Z</time>
      </trkpt>
      <trkpt lat="45.88862" lon="4.72103">
        <ele>180.81609</ele>
        <time>2023-04-24T12:26:44.000Z</time>
      </trkpt>
      <trkpt lat="45.88866" lon="4.72105">
        <ele>180.88199</ele>
        <time>2023-04-24T12:26:45.000Z</time>
      </trkpt>
      <trkpt lat="45.88869" lon="4.72106">
        <ele>180.93089</ele>
        <time>2023-04-24T12:26:46.000Z</time>
      </trkpt>
      <trkpt lat="45.88873" lon="4.72108">
        <ele>180.94861</ele>
        <time>2023-04-24T12:26:47.000Z</time>
      </trkpt>
      <trkpt lat="45.88877" lon="4.72109">
        <ele>180.98331</ele>
        <time>2023-04-24T12:26:48.000Z</time>
      </trkpt>
      <trkpt lat="45.88881" lon="4.72109">
        <ele>181.05875</ele>
        <time>2023-04-24T12:26:49.000Z</time>
      </trkpt>
      <trkpt lat="45.88887" lon="4.72111">
        <ele>181.12117</ele>
        <time>2023-04-24T12:26:50.000Z</time>
      </trkpt>
      <trkpt lat="45.88891" lon="4.72113">
        <ele>181.19017</ele>
        <time>2023-04-24T12:26:51.000Z</time>
      </trkpt>
      <trkpt lat="45.88895" lon="4.72115">
        <ele>181.24149</ele>
        <time>2023-04-24T12:26:52.000Z</time>
      </trkpt>
      <trkpt lat="45.88899" lon="4.72116">
        <ele>181.28989</ele>
        <time>2023-04-24T12:26:53.000Z</time>
      </trkpt>
      <trkpt lat="45.88903" lon="4.72116">
        <ele>181.3091</ele>
        <time>2023-04-24T12:26:54.000Z</time>
      </trkpt>
      <trkpt lat="45.88906" lon="4.72118">
        <ele>181.35471</ele>
        <time>2023-04-24T12:26:55.000Z</time>
      </trkpt>
      <trkpt lat="45.88911" lon="4.7212">
        <ele>181.42252</ele>
        <time>2023-04-24T12:26:56.000Z</time>
      </trkpt>
      <trkpt lat="45.88916" lon="4.72121">
        <ele>181.40915</ele>
        <time>2023-04-24T12:26:57.000Z</time>
      </trkpt>
      <trkpt lat="45.8892" lon="4.72123">
        <ele>181.38503</ele>
        <time>2023-04-24T12:26:58.000Z</time>
      </trkpt>
      <trkpt lat="45.88925" lon="4.72125">
        <ele>181.33253</ele>
        <time>2023-04-24T12:26:59.000Z</time>
      </trkpt>
      <trkpt lat="45.88929" lon="4.72127">
        <ele>181.30183</ele>
        <time>2023-04-24T12:27:00.000Z</time>
      </trkpt>
      <trkpt lat="45.88935" lon="4.72129">
        <ele>181.26166</ele>
        <time>2023-04-24T12:27:01.000Z</time>
      </trkpt>
      <trkpt lat="45.88939" lon="4.7213">
        <ele>181.22275</ele>
        <time>2023-04-24T12:27:02.000Z</time>
      </trkpt>
      <trkpt lat="45.88942" lon="4.72131">
        <ele>181.24434</ele>
        <time>2023-04-24T12:27:03.000Z</time>
      </trkpt>
      <trkpt lat="45.88947" lon="4.72133">
        <ele>181.27402</ele>
        <time>2023-04-24T12:27:04.000Z</time>
      </trkpt>
      <trkpt lat="45.88952" lon="4.72134">
        <ele>181.26668</ele>
        <time>2023-04-24T12:27:05.000Z</time>
      </trkpt>
      <trkpt lat="45.88956" lon="4.72135">
        <ele>181.28784</ele>
        <time>2023-04-24T12:27:06.000Z</time>
      </trkpt>
      <trkpt lat="45.8896" lon="4.72136">
        <ele>181.36591</ele>
        <time>2023-04-24T12:27:07.000Z</time>
      </trkpt>
      <trkpt lat="45.88965" lon="4.72137">
        <ele>181.41951</ele>
        <time>2023-04-24T12:27:08.000Z</time>
      </trkpt>
      <trkpt lat="45.88971" lon="4.72139">
        <ele>181.42041</ele>
        <time>2023-04-24T12:27:09.000Z</time>
      </trkpt>
      <trkpt lat="45.88977" lon="4.72141">
        <ele>181.39578</ele>
        <time>2023-04-24T12:27:10.000Z</time>
      </trkpt>
      <trkpt lat="45.88981" lon="4.72142">
        <ele>181.37344</ele>
        <time>2023-04-24T12:27:11.000Z</time>
      </trkpt>
      <trkpt lat="45.88986" lon="4.72144">
        <ele>181.39174</ele>
        <time>2023-04-24T12:27:12.000Z</time>
      </trkpt>
      <trkpt lat="45.88989" lon="4.72147">
        <ele>181.41559</ele>
        <time>2023-04-24T12:27:13.000Z</time>
      </trkpt>
      <trkpt lat="45.88994" lon="4.72149">
        <ele>181.46832</ele>
        <time>2023-04-24T12:27:14.000Z</time>
      </trkpt>
      <trkpt lat="45.88999" lon="4.7215">
        <ele>181.50786</ele>
        <time>2023-04-24T12:27:15.000Z</time>
      </trkpt>
      <trkpt lat="45.89004" lon="4.72152">
        <ele>181.52411</ele>
        <time>2023-04-24T12:27:16.000Z</time>
      </trkpt>
      <trkpt lat="45.8901" lon="4.72152">
        <ele>181.55939</ele>
        <time>2023-04-24T12:27:17.000Z</time>
      </trkpt>
      <trkpt lat="45.89014" lon="4.72153">
        <ele>181.56088</ele>
        <time>2023-04-24T12:27:18.000Z</time>
      </trkpt>
      <trkpt lat="45.89019" lon="4.72156">
        <ele>181.58488</ele>
        <time>2023-04-24T12:27:19.000Z</time>
      </trkpt>
      <trkpt lat="45.89024" lon="4.72158">
        <ele>181.6501</ele>
        <time>2023-04-24T12:27:20.000Z</time>
      </trkpt>
      <trkpt lat="45.89029" lon="4.72159">
        <ele>181.71034</ele>
        <time>2023-04-24T12:27:21.000Z</time>
      </trkpt>
      <trkpt lat="45.89035" lon="4.7216">
        <ele>181.74339</ele>
        <time>2023-04-24T12:27:22.000Z</time>
      </trkpt>
      <trkpt lat="45.8904" lon="4.72163">
        <ele>181.77956</ele>
        <time>2023-04-24T12:27:23.000Z</time>
      </trkpt>
      <trkpt lat="45.89045" lon="4.72165">
        <ele>181.7921</ele>
        <time>2023-04-24T12:27:24.000Z</time>
      </trkpt>
      <trkpt lat="45.8905" lon="4.72169">
        <ele>181.80042</ele>
        <time>2023-04-24T12:27:25.000Z</time>
      </trkpt>
      <trkpt lat="45.89054" lon="4.72173">
        <ele>181.79936</ele>
        <time>2023-04-24T12:27:26.000Z</time>
      </trkpt>
      <trkpt lat="45.89059" lon="4.72177">
        <ele>181.76894</ele>
        <time>2023-04-24T12:27:27.000Z</time>
      </trkpt>
      <trkpt lat="45.89063" lon="4.72179">
        <ele>181.74318</ele>
        <time>2023-04-24T12:27:28.000Z</time>
      </trkpt>
      <trkpt lat="45.89067" lon="4.72182">
        <ele>181.67018</ele>
        <time>2023-04-24T12:27:29.000Z</time>
      </trkpt>
      <trkpt lat="45.89071" lon="4.72185">
        <ele>181.62221</ele>
        <time>2023-04-24T12:27:30.000Z</time>
      </trkpt>
      <trkpt lat="45.89076" lon="4.72187">
        <ele>181.57565</ele>
        <time>2023-04-24T12:27:31.000Z</time>
      </trkpt>
      <trkpt lat="45.89082" lon="4.72189">
        <ele>181.49951</ele>
        <time>2023-04-24T12:27:32.000Z</time>
      </trkpt>
      <trkpt lat="45.89086" lon="4.72192">
        <ele>181.40146</ele>
        <time>2023-04-24T12:27:33.000Z</time>
      </trkpt>
      <trkpt lat="45.89091" lon="4.72195">
        <ele>181.29213</ele>
        <time>2023-04-24T12:27:34.000Z</time>
      </trkpt>
      <trkpt lat="45.89096" lon="4.72199">
        <ele>181.20444</ele>
        <time>2023-04-24T12:27:35.000Z</time>
      </trkpt>
      <trkpt lat="45.89101" lon="4.722">
        <ele>181.11646</ele>
        <time>2023-04-24T12:27:36.000Z</time>
      </trkpt>
      <trkpt lat="45.89106" lon="4.72204">
        <ele>181.05789</ele>
        <time>2023-04-24T12:27:37.000Z</time>
      </trkpt>
      <trkpt lat="45.89111" lon="4.72206">
        <ele>181.01529</ele>
        <time>2023-04-24T12:27:38.000Z</time>
      </trkpt>
      <trkpt lat="45.89115" lon="4.7221">
        <ele>181.03091</ele>
        <time>2023-04-24T12:27:39.000Z</time>
      </trkpt>
      <trkpt lat="45.89121" lon="4.72212">
        <ele>180.93015</ele>
        <time>2023-04-24T12:27:40.000Z</time>
      </trkpt>
      <trkpt lat="45.89126" lon="4.72214">
        <ele>180.83116</ele>
        <time>2023-04-24T12:27:41.000Z</time>
      </trkpt>
      <trkpt lat="45.89131" lon="4.72218">
        <ele>180.73108</ele>
        <time>2023-04-24T12:27:42.000Z</time>
      </trkpt>
      <trkpt lat="45.89136" lon="4.72221">
        <ele>180.61304</ele>
        <time>2023-04-24T12:27:43.000Z</time>
      </trkpt>
      <trkpt lat="45.89141" lon="4.72223">
        <ele>180.533</ele>
        <time>2023-04-24T12:27:44.000Z</time>
      </trkpt>
      <trkpt lat="45.89146" lon="4.72224">
        <ele>180.45319</ele>
        <time>2023-04-24T12:27:45.000Z</time>
      </trkpt>
      <trkpt lat="45.89151" lon="4.72226">
        <ele>180.38805</ele>
        <time>2023-04-24T12:27:46.000Z</time>
      </trkpt>
      <trkpt lat="45.89157" lon="4.72228">
        <ele>180.30217</ele>
        <time>2023-04-24T12:27:47.000Z</time>
      </trkpt>
      <trkpt lat="45.89161" lon="4.72231">
        <ele>180.21774</ele>
        <time>2023-04-24T12:27:48.000Z</time>
      </trkpt>
      <trkpt lat="45.89167" lon="4.72234">
        <ele>180.18152</ele>
        <time>2023-04-24T12:27:49.000Z</time>
      </trkpt>
      <trkpt lat="45.89172" lon="4.72237">
        <ele>180.16093</ele>
        <time>2023-04-24T12:27:50.000Z</time>
      </trkpt>
      <trkpt lat="45.89177" lon="4.72239">
        <ele>180.13405</ele>
        <time>2023-04-24T12:27:51.000Z</time>
      </trkpt>
      <trkpt lat="45.89183" lon="4.72243">
        <ele>180.07329</ele>
        <time>2023-04-24T12:27:52.000Z</time>
      </trkpt>
      <trkpt lat="45.89188" lon="4.72246">
        <ele>180.0096</ele>
        <time>2023-04-24T12:27:53.000Z</time>
      </trkpt>
      <trkpt lat="45.89193" lon="4.72248">
        <ele>179.93353</ele>
        <time>2023-04-24T12:27:54.000Z</time>
      </trkpt>
      <trkpt lat="45.89197" lon="4.72251">
        <ele>179.88716</ele>
        <time>2023-04-24T12:27:55.000Z</time>
      </trkpt>
      <trkpt lat="45.89202" lon="4.72253">
        <ele>179.85448</ele>
        <time>2023-04-24T12:27:56.000Z</time>
      </trkpt>
      <trkpt lat="45.89206" lon="4.72255">
        <ele>179.78232</ele>
        <time>2023-04-24T12:27:57.000Z</time>
      </trkpt>
      <trkpt lat="45.89211" lon="4.72257">
        <ele>179.77052</ele>
        <time>2023-04-24T12:27:58.000Z</time>
      </trkpt>
      <trkpt lat="45.89216" lon="4.72259">
        <ele>179.73843</ele>
        <time>2023-04-24T12:27:59.000Z</time>
      </trkpt>
      <trkpt lat="45.89222" lon="4.72262">
        <ele>179.71608</ele>
        <time>2023-04-24T12:28:00.000Z</time>
      </trkpt>
      <trkpt lat="45.89227" lon="4.72265">
        <ele>179.71138</ele>
        <time>2023-04-24T12:28:01.000Z</time>
      </trkpt>
      <trkpt lat="45.89231" lon="4.72268">
        <ele>179.70853</ele>
        <time>2023-04-24T12:28:02.000Z</time>
      </trkpt>
      <trkpt lat="45.89236" lon="4.72272">
        <ele>179.70023</ele>
        <time>2023-04-24T12:28:03.000Z</time>
      </trkpt>
      <trkpt lat="45.89241" lon="4.72273">
        <ele>179.6779</ele>
        <time>2023-04-24T12:28:04.000Z</time>
      </trkpt>
      <trkpt lat="45.89246" lon="4.72275">
        <ele>179.68015</ele>
        <time>2023-04-24T12:28:05.000Z</time>
      </trkpt>
      <trkpt lat="45.8925" lon="4.72277">
        <ele>179.69992</ele>
        <time>2023-04-24T12:28:06.000Z</time>
      </trkpt>
      <trkpt lat="45.89256" lon="4.72279">
        <ele>179.74051</ele>
        <time>2023-04-24T12:28:07.000Z</time>
      </trkpt>
      <trkpt lat="45.8926" lon="4.72281">
        <ele>179.79694</ele>
        <time>2023-04-24T12:28:08.000Z</time>
      </trkpt>
      <trkpt lat="45.89265" lon="4.72282">
        <ele>179.83896</ele>
        <time>2023-04-24T12:28:09.000Z</time>
      </trkpt>
      <trkpt lat="45.8927" lon="4.72284">
        <ele>179.90048</ele>
        <time>2023-04-24T12:28:10.000Z</time>
      </trkpt>
      <trkpt lat="45.89275" lon="4.72285">
        <ele>179.93886</ele>
        <time>2023-04-24T12:28:11.000Z</time>
      </trkpt>
      <trkpt lat="45.8928" lon="4.72287">
        <ele>180.05295</ele>
        <time>2023-04-24T12:28:12.000Z</time>
      </trkpt>
      <trkpt lat="45.89285" lon="4.72289">
        <ele>180.19031</ele>
        <time>2023-04-24T12:28:13.000Z</time>
      </trkpt>
      <trkpt lat="45.89289" lon="4.72292">
        <ele>180.34297</ele>
        <time>2023-04-24T12:28:14.000Z</time>
      </trkpt>
      <trkpt lat="45.89294" lon="4.72294">
        <ele>180.46309</ele>
        <time>2023-04-24T12:28:15.000Z</time>
      </trkpt>
      <trkpt lat="45.89299" lon="4.72296">
        <ele>180.56413</ele>
        <time>2023-04-24T12:28:16.000Z</time>
      </trkpt>
      <trkpt lat="45.89304" lon="4.72298">
        <ele>180.66031</ele>
        <time>2023-04-24T12:28:17.000Z</time>
      </trkpt>
      <trkpt lat="45.8931" lon="4.723">
        <ele>180.6723</ele>
        <time>2023-04-24T12:28:18.000Z</time>
      </trkpt>
      <trkpt lat="45.89315" lon="4.72302">
        <ele>180.61467</ele>
        <time>2023-04-24T12:28:19.000Z</time>
      </trkpt>
      <trkpt lat="45.89321" lon="4.72302">
        <ele>180.61469</ele>
        <time>2023-04-24T12:28:20.000Z</time>
      </trkpt>
      <trkpt lat="45.89326" lon="4.72302">
        <ele>180.61328</ele>
        <time>2023-04-24T12:28:21.000Z</time>
      </trkpt>
      <trkpt lat="45.89332" lon="4.72302">
        <ele>180.56804</ele>
        <time>2023-04-24T12:28:22.000Z</time>
      </trkpt>
      <trkpt lat="45.89337" lon="4.72303">
        <ele>180.49777</ele>
        <time>2023-04-24T12:28:23.000Z</time>
      </trkpt>
      <trkpt lat="45.89342" lon="4.72302">
        <ele>180.44875</ele>
        <time>2023-04-24T12:28:24.000Z</time>
      </trkpt>
      <trkpt lat="45.89347" lon="4.72302">
        <ele>180.36563</ele>
        <time>2023-04-24T12:28:25.000Z</time>
      </trkpt>
      <trkpt lat="45.89353" lon="4.72302">
        <ele>180.25664</ele>
        <time>2023-04-24T12:28:26.000Z</time>
      </trkpt>
      <trkpt lat="45.89358" lon="4.72302">
        <ele>180.12836</ele>
        <time>2023-04-24T12:28:27.000Z</time>
      </trkpt>
      <trkpt lat="45.89363" lon="4.72301">
        <ele>179.99216</ele>
        <time>2023-04-24T12:28:28.000Z</time>
      </trkpt>
      <trkpt lat="45.89368" lon="4.723">
        <ele>179.87276</ele>
        <time>2023-04-24T12:28:29.000Z</time>
      </trkpt>
      <trkpt lat="45.89373" lon="4.72299">
        <ele>179.75368</ele>
        <time>2023-04-24T12:28:30.000Z</time>
      </trkpt>
      <trkpt lat="45.89378" lon="4.72298">
        <ele>179.67747</ele>
        <time>2023-04-24T12:28:31.000Z</time>
      </trkpt>
      <trkpt lat="45.89383" lon="4.72298">
        <ele>179.55353</ele>
        <time>2023-04-24T12:28:32.000Z</time>
      </trkpt>
      <trkpt lat="45.89389" lon="4.72297">
        <ele>179.44051</ele>
        <time>2023-04-24T12:28:33.000Z</time>
      </trkpt>
      <trkpt lat="45.89394" lon="4.72296">
        <ele>179.34004</ele>
        <time>2023-04-24T12:28:34.000Z</time>
      </trkpt>
      <trkpt lat="45.894" lon="4.72295">
        <ele>179.2117</ele>
        <time>2023-04-24T12:28:35.000Z</time>
      </trkpt>
      <trkpt lat="45.89405" lon="4.72294">
        <ele>179.08929</ele>
        <time>2023-04-24T12:28:36.000Z</time>
      </trkpt>
      <trkpt lat="45.89411" lon="4.72294">
        <ele>178.9774</ele>
        <time>2023-04-24T12:28:37.000Z</time>
      </trkpt>
      <trkpt lat="45.89416" lon="4.72293">
        <ele>178.9155</ele>
        <time>2023-04-24T12:28:38.000Z</time>
      </trkpt>
      <trkpt lat="45.89421" lon="4.72293">
        <ele>178.87613</ele>
        <time>2023-04-24T12:28:39.000Z</time>
      </trkpt>
      <trkpt lat="45.89426" lon="4.72293">
        <ele>178.84421</ele>
        <time>2023-04-24T12:28:40.000Z</time>
      </trkpt>
      <trkpt lat="45.89431" lon="4.72292">
        <ele>178.77689</ele>
        <time>2023-04-24T12:28:41.000Z</time>
      </trkpt>
      <trkpt lat="45.89437" lon="4.72291">
        <ele>178.74422</ele>
        <time>2023-04-24T12:28:42.000Z</time>
      </trkpt>
      <trkpt lat="45.89443" lon="4.7229">
        <ele>178.74516</ele>
        <time>2023-04-24T12:28:43.000Z</time>
      </trkpt>
      <trkpt lat="45.89448" lon="4.72289">
        <ele>178.6954</ele>
        <time>2023-04-24T12:28:44.000Z</time>
      </trkpt>
      <trkpt lat="45.89453" lon="4.72289">
        <ele>178.65179</ele>
        <time>2023-04-24T12:28:45.000Z</time>
      </trkpt>
      <trkpt lat="45.89458" lon="4.7229">
        <ele>178.60703</ele>
        <time>2023-04-24T12:28:46.000Z</time>
      </trkpt>
      <trkpt lat="45.89464" lon="4.72288">
        <ele>178.56061</ele>
        <time>2023-04-24T12:28:47.000Z</time>
      </trkpt>
      <trkpt lat="45.89468" lon="4.72287">
        <ele>178.51868</ele>
        <time>2023-04-24T12:28:48.000Z</time>
      </trkpt>
      <trkpt lat="45.89473" lon="4.72287">
        <ele>178.46727</ele>
        <time>2023-04-24T12:28:49.000Z</time>
      </trkpt>
      <trkpt lat="45.89478" lon="4.72286">
        <ele>178.39384</ele>
        <time>2023-04-24T12:28:50.000Z</time>
      </trkpt>
      <trkpt lat="45.89483" lon="4.72286">
        <ele>178.28075</ele>
        <time>2023-04-24T12:28:51.000Z</time>
      </trkpt>
      <trkpt lat="45.89488" lon="4.72285">
        <ele>178.19292</ele>
        <time>2023-04-24T12:28:52.000Z</time>
      </trkpt>
      <trkpt lat="45.89493" lon="4.72284">
        <ele>178.10762</ele>
        <time>2023-04-24T12:28:53.000Z</time>
      </trkpt>
      <trkpt lat="45.89498" lon="4.72284">
        <ele>178.00899</ele>
        <time>2023-04-24T12:28:54.000Z</time>
      </trkpt>
      <trkpt lat="45.89504" lon="4.72284">
        <ele>177.92648</ele>
        <time>2023-04-24T12:28:55.000Z</time>
      </trkpt>
      <trkpt lat="45.89509" lon="4.72284">
        <ele>177.83684</ele>
        <time>2023-04-24T12:28:56.000Z</time>
      </trkpt>
      <trkpt lat="45.89514" lon="4.72283">
        <ele>177.74132</ele>
        <time>2023-04-24T12:28:57.000Z</time>
      </trkpt>
      <trkpt lat="45.89519" lon="4.72283">
        <ele>177.63191</ele>
        <time>2023-04-24T12:28:58.000Z</time>
      </trkpt>
      <trkpt lat="45.89524" lon="4.72283">
        <ele>177.54178</ele>
        <time>2023-04-24T12:28:59.000Z</time>
      </trkpt>
      <trkpt lat="45.89529" lon="4.72283">
        <ele>177.42017</ele>
        <time>2023-04-24T12:29:00.000Z</time>
      </trkpt>
      <trkpt lat="45.89535" lon="4.72283">
        <ele>177.32159</ele>
        <time>2023-04-24T12:29:01.000Z</time>
      </trkpt>
      <trkpt lat="45.8954" lon="4.72282">
        <ele>177.22064</ele>
        <time>2023-04-24T12:29:02.000Z</time>
      </trkpt>
      <trkpt lat="45.89544" lon="4.72282">
        <ele>177.06601</ele>
        <time>2023-04-24T12:29:03.000Z</time>
      </trkpt>
      <trkpt lat="45.89549" lon="4.72281">
        <ele>176.93274</ele>
        <time>2023-04-24T12:29:04.000Z</time>
      </trkpt>
      <trkpt lat="45.89555" lon="4.7228">
        <ele>176.83783</ele>
        <time>2023-04-24T12:29:05.000Z</time>
      </trkpt>
      <trkpt lat="45.8956" lon="4.72281">
        <ele>176.7438</ele>
        <time>2023-04-24T12:29:06.000Z</time>
      </trkpt>
      <trkpt lat="45.89566" lon="4.72281">
        <ele>176.65627</ele>
        <time>2023-04-24T12:29:07.000Z</time>
      </trkpt>
      <trkpt lat="45.89571" lon="4.7228">
        <ele>176.57657</ele>
        <time>2023-04-24T12:29:08.000Z</time>
      </trkpt>
      <trkpt lat="45.89577" lon="4.72279">
        <ele>176.54689</ele>
        <time>2023-04-24T12:29:09.000Z</time>
      </trkpt>
      <trkpt lat="45.89582" lon="4.72278">
        <ele>176.54028</ele>
        <time>2023-04-24T12:29:10.000Z</time>
      </trkpt>
      <trkpt lat="45.89588" lon="4.72278">
        <ele>176.56253</ele>
        <time>2023-04-24T12:29:11.000Z</time>
      </trkpt>
      <trkpt lat="45.89593" lon="4.72279">
        <ele>176.53059</ele>
        <time>2023-04-24T12:29:12.000Z</time>
      </trkpt>
      <trkpt lat="45.89598" lon="4.7228">
        <ele>176.4787</ele>
        <time>2023-04-24T12:29:13.000Z</time>
      </trkpt>
      <trkpt lat="45.89603" lon="4.7228">
        <ele>176.43993</ele>
        <time>2023-04-24T12:29:14.000Z</time>
      </trkpt>
      <trkpt lat="45.89608" lon="4.7228">
        <ele>176.39394</ele>
        <time>2023-04-24T12:29:15.000Z</time>
      </trkpt>
      <trkpt lat="45.89614" lon="4.72279">
        <ele>176.36819</ele>
        <time>2023-04-24T12:29:16.000Z</time>
      </trkpt>
      <trkpt lat="45.89619" lon="4.72279">
        <ele>176.33052</ele>
        <time>2023-04-24T12:29:17.000Z</time>
      </trkpt>
      <trkpt lat="45.89624" lon="4.7228">
        <ele>176.29028</ele>
        <time>2023-04-24T12:29:18.000Z</time>
      </trkpt>
      <trkpt lat="45.89629" lon="4.72279">
        <ele>176.25375</ele>
        <time>2023-04-24T12:29:19.000Z</time>
      </trkpt>
      <trkpt lat="45.89634" lon="4.72279">
        <ele>176.2374</ele>
        <time>2023-04-24T12:29:20.000Z</time>
      </trkpt>
      <trkpt lat="45.89639" lon="4.72278">
        <ele>176.24063</ele>
        <time>2023-04-24T12:29:21.000Z</time>
      </trkpt>
      <trkpt lat="45.89644" lon="4.72277">
        <ele>176.28122</ele>
        <time>2023-04-24T12:29:22.000Z</time>
      </trkpt>
      <trkpt lat="45.89649" lon="4.72276">
        <ele>176.37363</ele>
        <time>2023-04-24T12:29:23.000Z</time>
      </trkpt>
      <trkpt lat="45.89654" lon="4.72275">
        <ele>176.49142</ele>
        <time>2023-04-24T12:29:24.000Z</time>
      </trkpt>
      <trkpt lat="45.89659" lon="4.72273">
        <ele>176.59172</ele>
        <time>2023-04-24T12:29:25.000Z</time>
      </trkpt>
      <trkpt lat="45.89663" lon="4.72272">
        <ele>176.68385</ele>
        <time>2023-04-24T12:29:26.000Z</time>
      </trkpt>
      <trkpt lat="45.89668" lon="4.72271">
        <ele>176.7816</ele>
        <time>2023-04-24T12:29:27.000Z</time>
      </trkpt>
      <trkpt lat="45.89672" lon="4.72273">
        <ele>176.87135</ele>
        <time>2023-04-24T12:29:28.000Z</time>
      </trkpt>
      <trkpt lat="45.89676" lon="4.72276">
        <ele>176.9274</ele>
        <time>2023-04-24T12:29:29.000Z</time>
      </trkpt>
      <trkpt lat="45.89679" lon="4.72281">
        <ele>176.96521</ele>
        <time>2023-04-24T12:29:30.000Z</time>
      </trkpt>
      <trkpt lat="45.89682" lon="4.72285">
        <ele>176.96791</ele>
        <time>2023-04-24T12:29:31.000Z</time>
      </trkpt>
      <trkpt lat="45.89686" lon="4.72287">
        <ele>177.02728</ele>
        <time>2023-04-24T12:29:32.000Z</time>
      </trkpt>
      <trkpt lat="45.89691" lon="4.72287">
        <ele>177.07022</ele>
        <time>2023-04-24T12:29:33.000Z</time>
      </trkpt>
      <trkpt lat="45.89696" lon="4.72287">
        <ele>177.06332</ele>
        <time>2023-04-24T12:29:34.000Z</time>
      </trkpt>
      <trkpt lat="45.897" lon="4.72287">
        <ele>177.08664</ele>
        <time>2023-04-24T12:29:35.000Z</time>
      </trkpt>
      <trkpt lat="45.89704" lon="4.72286">
        <ele>177.09904</ele>
        <time>2023-04-24T12:29:36.000Z</time>
      </trkpt>
      <trkpt lat="45.89709" lon="4.72285">
        <ele>177.0975</ele>
        <time>2023-04-24T12:29:37.000Z</time>
      </trkpt>
      <trkpt lat="45.89714" lon="4.72284">
        <ele>177.08434</ele>
        <time>2023-04-24T12:29:38.000Z</time>
      </trkpt>
      <trkpt lat="45.89718" lon="4.72284">
        <ele>177.08252</ele>
        <time>2023-04-24T12:29:39.000Z</time>
      </trkpt>
      <trkpt lat="45.89723" lon="4.72284">
        <ele>177.05748</ele>
        <time>2023-04-24T12:29:40.000Z</time>
      </trkpt>
      <trkpt lat="45.89727" lon="4.72283">
        <ele>177.03918</ele>
        <time>2023-04-24T12:29:41.000Z</time>
      </trkpt>
      <trkpt lat="45.89731" lon="4.72282">
        <ele>177.01463</ele>
        <time>2023-04-24T12:29:42.000Z</time>
      </trkpt>
      <trkpt lat="45.89735" lon="4.72282">
        <ele>177.0051</ele>
        <time>2023-04-24T12:29:43.000Z</time>
      </trkpt>
      <trkpt lat="45.89739" lon="4.72281">
        <ele>176.97903</ele>
        <time>2023-04-24T12:29:44.000Z</time>
      </trkpt>
      <trkpt lat="45.89743" lon="4.72282">
        <ele>176.93599</ele>
        <time>2023-04-24T12:29:45.000Z</time>
      </trkpt>
      <trkpt lat="45.89747" lon="4.72284">
        <ele>176.88914</ele>
        <time>2023-04-24T12:29:46.000Z</time>
      </trkpt>
      <trkpt lat="45.89751" lon="4.72285">
        <ele>176.86491</ele>
        <time>2023-04-24T12:29:47.000Z</time>
      </trkpt>
      <trkpt lat="45.89754" lon="4.72286">
        <ele>176.85518</ele>
        <time>2023-04-24T12:29:48.000Z</time>
      </trkpt>
      <trkpt lat="45.89758" lon="4.72286">
        <ele>176.82707</ele>
        <time>2023-04-24T12:29:49.000Z</time>
      </trkpt>
      <trkpt lat="45.89762" lon="4.72285">
        <ele>176.81935</ele>
        <time>2023-04-24T12:29:50.000Z</time>
      </trkpt>
      <trkpt lat="45.89765" lon="4.72285">
        <ele>176.8522</ele>
        <time>2023-04-24T12:29:51.000Z</time>
      </trkpt>
      <trkpt lat="45.89769" lon="4.72285">
        <ele>176.87411</ele>
        <time>2023-04-24T12:29:52.000Z</time>
      </trkpt>
      <trkpt lat="45.89772" lon="4.72285">
        <ele>176.90665</ele>
        <time>2023-04-24T12:29:53.000Z</time>
      </trkpt>
      <trkpt lat="45.89776" lon="4.72285">
        <ele>176.98288</ele>
        <time>2023-04-24T12:29:54.000Z</time>
      </trkpt>
      <trkpt lat="45.89779" lon="4.72284">
        <ele>177.04095</ele>
        <time>2023-04-24T12:29:55.000Z</time>
      </trkpt>
      <trkpt lat="45.89783" lon="4.72284">
        <ele>177.08855</ele>
        <time>2023-04-24T12:29:56.000Z</time>
      </trkpt>
      <trkpt lat="45.89786" lon="4.72284">
        <ele>177.15337</ele>
        <time>2023-04-24T12:29:57.000Z</time>
      </trkpt>
      <trkpt lat="45.89788" lon="4.72284">
        <ele>177.2562</ele>
        <time>2023-04-24T12:29:58.000Z</time>
      </trkpt>
      <trkpt lat="45.89789" lon="4.72282">
        <ele>177.2758</ele>
        <time>2023-04-24T12:30:11.000Z</time>
      </trkpt>
      <trkpt lat="45.8979" lon="4.72285">
        <ele>177.28325</ele>
        <time>2023-04-24T12:30:28.000Z</time>
      </trkpt>
      <trkpt lat="45.89791" lon="4.72288">
        <ele>177.26529</ele>
        <time>2023-04-24T12:30:29.000Z</time>
      </trkpt>
      <trkpt lat="45.89792" lon="4.72291">
        <ele>177.23018</ele>
        <time>2023-04-24T12:30:30.000Z</time>
      </trkpt>
      <trkpt lat="45.89793" lon="4.72294">
        <ele>177.18672</ele>
        <time>2023-04-24T12:30:31.000Z</time>
      </trkpt>
      <trkpt lat="45.89794" lon="4.72298">
        <ele>177.1254</ele>
        <time>2023-04-24T12:30:32.000Z</time>
      </trkpt>
      <trkpt lat="45.89795" lon="4.72301">
        <ele>177.06454</ele>
        <time>2023-04-24T12:30:33.000Z</time>
      </trkpt>
      <trkpt lat="45.89795" lon="4.72305">
        <ele>177.05386</ele>
        <time>2023-04-24T12:30:34.000Z</time>
      </trkpt>
      <trkpt lat="45.89796" lon="4.72309">
        <ele>177.02731</ele>
        <time>2023-04-24T12:30:35.000Z</time>
      </trkpt>
      <trkpt lat="45.89797" lon="4.72312">
        <ele>176.99461</ele>
        <time>2023-04-24T12:30:36.000Z</time>
      </trkpt>
      <trkpt lat="45.89798" lon="4.72316">
        <ele>176.93442</ele>
        <time>2023-04-24T12:30:37.000Z</time>
      </trkpt>
      <trkpt lat="45.89799" lon="4.7232">
        <ele>176.87869</ele>
        <time>2023-04-24T12:30:38.000Z</time>
      </trkpt>
      <trkpt lat="45.898" lon="4.72323">
        <ele>176.80533</ele>
        <time>2023-04-24T12:30:39.000Z</time>
      </trkpt>
      <trkpt lat="45.89802" lon="4.72327">
        <ele>176.73567</ele>
        <time>2023-04-24T12:30:40.000Z</time>
      </trkpt>
      <trkpt lat="45.89803" lon="4.7233">
        <ele>176.6757</ele>
        <time>2023-04-24T12:30:41.000Z</time>
      </trkpt>
      <trkpt lat="45.89805" lon="4.72334">
        <ele>176.63513</ele>
        <time>2023-04-24T12:30:42.000Z</time>
      </trkpt>
      <trkpt lat="45.89806" lon="4.72338">
        <ele>176.5834</ele>
        <time>2023-04-24T12:30:43.000Z</time>
      </trkpt>
      <trkpt lat="45.89808" lon="4.7234">
        <ele>176.57095</ele>
        <time>2023-04-24T12:30:44.000Z</time>
      </trkpt>
      <trkpt lat="45.89811" lon="4.72342">
        <ele>176.57684</ele>
        <time>2023-04-24T12:30:45.000Z</time>
      </trkpt>
      <trkpt lat="45.89813" lon="4.72344">
        <ele>176.5502</ele>
        <time>2023-04-24T12:30:46.000Z</time>
      </trkpt>
      <trkpt lat="45.89816" lon="4.72345">
        <ele>176.61633</ele>
        <time>2023-04-24T12:30:47.000Z</time>
      </trkpt>
      <trkpt lat="45.89818" lon="4.72347">
        <ele>176.69823</ele>
        <time>2023-04-24T12:30:48.000Z</time>
      </trkpt>
      <trkpt lat="45.8982" lon="4.72349">
        <ele>176.79036</ele>
        <time>2023-04-24T12:30:49.000Z</time>
      </trkpt>
      <trkpt lat="45.89823" lon="4.7235">
        <ele>176.89627</ele>
        <time>2023-04-24T12:30:50.000Z</time>
      </trkpt>
      <trkpt lat="45.89826" lon="4.72352">
        <ele>177.00337</ele>
        <time>2023-04-24T12:30:51.000Z</time>
      </trkpt>
      <trkpt lat="45.89828" lon="4.72355">
        <ele>177.10854</ele>
        <time>2023-04-24T12:30:52.000Z</time>
      </trkpt>
      <trkpt lat="45.8983" lon="4.72358">
        <ele>177.20801</ele>
        <time>2023-04-24T12:30:53.000Z</time>
      </trkpt>
      <trkpt lat="45.89832" lon="4.72361">
        <ele>177.26305</ele>
        <time>2023-04-24T12:30:54.000Z</time>
      </trkpt>
      <trkpt lat="45.89834" lon="4.72366">
        <ele>177.32063</ele>
        <time>2023-04-24T12:30:55.000Z</time>
      </trkpt>
      <trkpt lat="45.89835" lon="4.7237">
        <ele>177.37154</ele>
        <time>2023-04-24T12:30:56.000Z</time>
      </trkpt>
      <trkpt lat="45.89835" lon="4.72375">
        <ele>177.42039</ele>
        <time>2023-04-24T12:30:57.000Z</time>
      </trkpt>
      <trkpt lat="45.89836" lon="4.7238">
        <ele>177.46587</ele>
        <time>2023-04-24T12:30:58.000Z</time>
      </trkpt>
      <trkpt lat="45.89836" lon="4.72385">
        <ele>177.48068</ele>
        <time>2023-04-24T12:30:59.000Z</time>
      </trkpt>
      <trkpt lat="45.89837" lon="4.7239">
        <ele>177.48744</ele>
        <time>2023-04-24T12:31:00.000Z</time>
      </trkpt>
      <trkpt lat="45.89838" lon="4.72394">
        <ele>177.49191</ele>
        <time>2023-04-24T12:31:01.000Z</time>
      </trkpt>
      <trkpt lat="45.8984" lon="4.72398">
        <ele>177.47647</ele>
        <time>2023-04-24T12:31:02.000Z</time>
      </trkpt>
      <trkpt lat="45.89843" lon="4.724">
        <ele>177.51328</ele>
        <time>2023-04-24T12:31:03.000Z</time>
      </trkpt>
      <trkpt lat="45.89845" lon="4.72401">
        <ele>177.53601</ele>
        <time>2023-04-24T12:31:04.000Z</time>
      </trkpt>
      <trkpt lat="45.89848" lon="4.72403">
        <ele>177.56311</ele>
        <time>2023-04-24T12:31:05.000Z</time>
      </trkpt>
      <trkpt lat="45.89851" lon="4.72404">
        <ele>177.60002</ele>
        <time>2023-04-24T12:31:06.000Z</time>
      </trkpt>
      <trkpt lat="45.89855" lon="4.72404">
        <ele>177.59209</ele>
        <time>2023-04-24T12:31:07.000Z</time>
      </trkpt>
      <trkpt lat="45.89858" lon="4.72402">
        <ele>177.58737</ele>
        <time>2023-04-24T12:31:08.000Z</time>
      </trkpt>
      <trkpt lat="45.89861" lon="4.72401">
        <ele>177.54852</ele>
        <time>2023-04-24T12:31:09.000Z</time>
      </trkpt>
      <trkpt lat="45.89864" lon="4.72399">
        <ele>177.49171</ele>
        <time>2023-04-24T12:31:10.000Z</time>
      </trkpt>
      <trkpt lat="45.89867" lon="4.72398">
        <ele>177.40918</ele>
        <time>2023-04-24T12:31:11.000Z</time>
      </trkpt>
      <trkpt lat="45.89869" lon="4.72397">
        <ele>177.34158</ele>
        <time>2023-04-24T12:31:12.000Z</time>
      </trkpt>
      <trkpt lat="45.89872" lon="4.72396">
        <ele>177.28694</ele>
        <time>2023-04-24T12:31:13.000Z</time>
      </trkpt>
      <trkpt lat="45.89875" lon="4.72395">
        <ele>177.24878</ele>
        <time>2023-04-24T12:31:14.000Z</time>
      </trkpt>
      <trkpt lat="45.89879" lon="4.72395">
        <ele>177.15773</ele>
        <time>2023-04-24T12:31:15.000Z</time>
      </trkpt>
      <trkpt lat="45.89882" lon="4.72394">
        <ele>177.06729</ele>
        <time>2023-04-24T12:31:16.000Z</time>
      </trkpt>
      <trkpt lat="45.89885" lon="4.72394">
        <ele>176.99301</ele>
        <time>2023-04-24T12:31:17.000Z</time>
      </trkpt>
      <trkpt lat="45.89889" lon="4.72393">
        <ele>176.91129</ele>
        <time>2023-04-24T12:31:18.000Z</time>
      </trkpt>
      <trkpt lat="45.89892" lon="4.72391">
        <ele>176.88594</ele>
        <time>2023-04-24T12:31:19.000Z</time>
      </trkpt>
      <trkpt lat="45.89895" lon="4.72391">
        <ele>176.87346</ele>
        <time>2023-04-24T12:31:20.000Z</time>
      </trkpt>
      <trkpt lat="45.89898" lon="4.7239">
        <ele>176.89644</ele>
        <time>2023-04-24T12:31:21.000Z</time>
      </trkpt>
      <trkpt lat="45.89902" lon="4.7239">
        <ele>176.91618</ele>
        <time>2023-04-24T12:31:22.000Z</time>
      </trkpt>
      <trkpt lat="45.89905" lon="4.7239">
        <ele>176.89334</ele>
        <time>2023-04-24T12:31:23.000Z</time>
      </trkpt>
      <trkpt lat="45.89908" lon="4.7239">
        <ele>176.82619</ele>
        <time>2023-04-24T12:31:24.000Z</time>
      </trkpt>
      <trkpt lat="45.89912" lon="4.7239">
        <ele>176.71397</ele>
        <time>2023-04-24T12:31:25.000Z</time>
      </trkpt>
      <trkpt lat="45.89915" lon="4.72389">
        <ele>176.59708</ele>
        <time>2023-04-24T12:31:26.000Z</time>
      </trkpt>
      <trkpt lat="45.89918" lon="4.72388">
        <ele>176.59895</ele>
        <time>2023-04-24T12:31:27.000Z</time>
      </trkpt>
      <trkpt lat="45.89921" lon="4.72388">
        <ele>176.60982</ele>
        <time>2023-04-24T12:31:28.000Z</time>
      </trkpt>
      <trkpt lat="45.89924" lon="4.72388">
        <ele>176.63693</ele>
        <time>2023-04-24T12:31:29.000Z</time>
      </trkpt>
      <trkpt lat="45.89927" lon="4.72388">
        <ele>176.66795</ele>
        <time>2023-04-24T12:31:30.000Z</time>
      </trkpt>
      <trkpt lat="45.8993" lon="4.72389">
        <ele>176.63956</ele>
        <time>2023-04-24T12:31:31.000Z</time>
      </trkpt>
      <trkpt lat="45.89932" lon="4.72389">
        <ele>176.60001</ele>
        <time>2023-04-24T12:31:32.000Z</time>
      </trkpt>
      <trkpt lat="45.89935" lon="4.72389">
        <ele>176.57841</ele>
        <time>2023-04-24T12:31:33.000Z</time>
      </trkpt>
      <trkpt lat="45.89937" lon="4.72391">
        <ele>176.5527</ele>
        <time>2023-04-24T12:31:34.000Z</time>
      </trkpt>
      <trkpt lat="45.8994" lon="4.72392">
        <ele>176.5681</ele>
        <time>2023-04-24T12:31:35.000Z</time>
      </trkpt>
      <trkpt lat="45.89943" lon="4.72393">
        <ele>176.60764</ele>
        <time>2023-04-24T12:31:36.000Z</time>
      </trkpt>
      <trkpt lat="45.89946" lon="4.72394">
        <ele>176.66788</ele>
        <time>2023-04-24T12:31:37.000Z</time>
      </trkpt>
      <trkpt lat="45.89949" lon="4.72395">
        <ele>176.74249</ele>
        <time>2023-04-24T12:31:38.000Z</time>
      </trkpt>
      <trkpt lat="45.89952" lon="4.72395">
        <ele>176.80608</ele>
        <time>2023-04-24T12:31:39.000Z</time>
      </trkpt>
      <trkpt lat="45.89954" lon="4.72394">
        <ele>176.86508</ele>
        <time>2023-04-24T12:31:40.000Z</time>
      </trkpt>
      <trkpt lat="45.89957" lon="4.72394">
        <ele>176.90826</ele>
        <time>2023-04-24T12:31:41.000Z</time>
      </trkpt>
      <trkpt lat="45.8996" lon="4.72394">
        <ele>176.95517</ele>
        <time>2023-04-24T12:31:42.000Z</time>
      </trkpt>
      <trkpt lat="45.89963" lon="4.72394">
        <ele>177.00967</ele>
        <time>2023-04-24T12:31:43.000Z</time>
      </trkpt>
      <trkpt lat="45.89965" lon="4.72393">
        <ele>177.09354</ele>
        <time>2023-04-24T12:31:44.000Z</time>
      </trkpt>
      <trkpt lat="45.89968" lon="4.72392">
        <ele>177.22009</ele>
        <time>2023-04-24T12:31:45.000Z</time>
      </trkpt>
      <trkpt lat="45.8997" lon="4.7239">
        <ele>177.34724</ele>
        <time>2023-04-24T12:31:46.000Z</time>
      </trkpt>
      <trkpt lat="45.89972" lon="4.7239">
        <ele>177.28737</ele>
        <time>2023-04-24T12:31:47.000Z</time>
      </trkpt>
      <trkpt lat="45.89974" lon="4.7239">
        <ele>177.22556</ele>
        <time>2023-04-24T12:31:48.000Z</time>
      </trkpt>
      <trkpt lat="45.89977" lon="4.72391">
        <ele>177.14758</ele>
        <time>2023-04-24T12:31:49.000Z</time>
      </trkpt>
      <trkpt lat="45.8998" lon="4.72392">
        <ele>177.10973</ele>
        <time>2023-04-24T12:31:50.000Z</time>
      </trkpt>
      <trkpt lat="45.89983" lon="4.72393">
        <ele>177.18399</ele>
        <time>2023-04-24T12:31:51.000Z</time>
      </trkpt>
      <trkpt lat="45.89985" lon="4.72393">
        <ele>177.28633</ele>
        <time>2023-04-24T12:31:52.000Z</time>
      </trkpt>
      <trkpt lat="45.89988" lon="4.72393">
        <ele>177.35873</ele>
        <time>2023-04-24T12:31:53.000Z</time>
      </trkpt>
      <trkpt lat="45.8999" lon="4.72394">
        <ele>177.42307</ele>
        <time>2023-04-24T12:31:54.000Z</time>
      </trkpt>
      <trkpt lat="45.89993" lon="4.72394">
        <ele>177.48898</ele>
        <time>2023-04-24T12:31:55.000Z</time>
      </trkpt>
      <trkpt lat="45.89995" lon="4.72394">
        <ele>177.53731</ele>
        <time>2023-04-24T12:31:56.000Z</time>
      </trkpt>
      <trkpt lat="45.89997" lon="4.72394">
        <ele>177.57571</ele>
        <time>2023-04-24T12:31:57.000Z</time>
      </trkpt>
      <trkpt lat="45.89999" lon="4.72395">
        <ele>177.57687</ele>
        <time>2023-04-24T12:31:58.000Z</time>
      </trkpt>
      <trkpt lat="45.90001" lon="4.72394">
        <ele>177.57854</ele>
        <time>2023-04-24T12:32:00.000Z</time>
      </trkpt>
      <trkpt lat="45.90005" lon="4.72393">
        <ele>177.53726</ele>
        <time>2023-04-24T12:32:21.000Z</time>
      </trkpt>
      <trkpt lat="45.90007" lon="4.72392">
        <ele>177.48764</ele>
        <time>2023-04-24T12:32:22.000Z</time>
      </trkpt>
      <trkpt lat="45.9001" lon="4.72391">
        <ele>177.446</ele>
        <time>2023-04-24T12:32:23.000Z</time>
      </trkpt>
      <trkpt lat="45.90012" lon="4.72391">
        <ele>177.39394</ele>
        <time>2023-04-24T12:32:24.000Z</time>
      </trkpt>
      <trkpt lat="45.90015" lon="4.72391">
        <ele>177.34856</ele>
        <time>2023-04-24T12:32:25.000Z</time>
      </trkpt>
      <trkpt lat="45.90018" lon="4.72391">
        <ele>177.27753</ele>
        <time>2023-04-24T12:32:26.000Z</time>
      </trkpt>
      <trkpt lat="45.90022" lon="4.72391">
        <ele>177.19463</ele>
        <time>2023-04-24T12:32:27.000Z</time>
      </trkpt>
      <trkpt lat="45.90025" lon="4.72391">
        <ele>177.21933</ele>
        <time>2023-04-24T12:32:28.000Z</time>
      </trkpt>
      <trkpt lat="45.90028" lon="4.7239">
        <ele>177.23616</ele>
        <time>2023-04-24T12:32:29.000Z</time>
      </trkpt>
      <trkpt lat="45.90032" lon="4.7239">
        <ele>177.2645</ele>
        <time>2023-04-24T12:32:30.000Z</time>
      </trkpt>
      <trkpt lat="45.90035" lon="4.7239">
        <ele>177.2765</ele>
        <time>2023-04-24T12:32:31.000Z</time>
      </trkpt>
      <trkpt lat="45.90039" lon="4.72389">
        <ele>177.26158</ele>
        <time>2023-04-24T12:32:32.000Z</time>
      </trkpt>
      <trkpt lat="45.90043" lon="4.72389">
        <ele>177.22256</ele>
        <time>2023-04-24T12:32:33.000Z</time>
      </trkpt>
      <trkpt lat="45.90047" lon="4.72389">
        <ele>177.21475</ele>
        <time>2023-04-24T12:32:34.000Z</time>
      </trkpt>
      <trkpt lat="45.90051" lon="4.72389">
        <ele>177.20795</ele>
        <time>2023-04-24T12:32:35.000Z</time>
      </trkpt>
      <trkpt lat="45.90055" lon="4.72389">
        <ele>177.23129</ele>
        <time>2023-04-24T12:32:36.000Z</time>
      </trkpt>
      <trkpt lat="45.90058" lon="4.7239">
        <ele>177.26035</ele>
        <time>2023-04-24T12:32:37.000Z</time>
      </trkpt>
      <trkpt lat="45.90061" lon="4.72391">
        <ele>177.27676</ele>
        <time>2023-04-24T12:32:38.000Z</time>
      </trkpt>
      <trkpt lat="45.90065" lon="4.72392">
        <ele>177.32872</ele>
        <time>2023-04-24T12:32:39.000Z</time>
      </trkpt>
      <trkpt lat="45.90069" lon="4.72393">
        <ele>177.38223</ele>
        <time>2023-04-24T12:32:40.000Z</time>
      </trkpt>
      <trkpt lat="45.90072" lon="4.72394">
        <ele>177.47031</ele>
        <time>2023-04-24T12:32:41.000Z</time>
      </trkpt>
      <trkpt lat="45.90076" lon="4.72394">
        <ele>177.55923</ele>
        <time>2023-04-24T12:32:42.000Z</time>
      </trkpt>
      <trkpt lat="45.9008" lon="4.72394">
        <ele>177.66287</ele>
        <time>2023-04-24T12:32:43.000Z</time>
      </trkpt>
      <trkpt lat="45.90084" lon="4.72394">
        <ele>177.77145</ele>
        <time>2023-04-24T12:32:44.000Z</time>
      </trkpt>
      <trkpt lat="45.90087" lon="4.72394">
        <ele>177.84984</ele>
        <time>2023-04-24T12:32:45.000Z</time>
      </trkpt>
      <trkpt lat="45.90091" lon="4.72393">
        <ele>177.94478</ele>
        <time>2023-04-24T12:32:46.000Z</time>
      </trkpt>
      <trkpt lat="45.90095" lon="4.72392">
        <ele>178.03401</ele>
        <time>2023-04-24T12:32:47.000Z</time>
      </trkpt>
      <trkpt lat="45.90098" lon="4.7239">
        <ele>178.10289</ele>
        <time>2023-04-24T12:32:48.000Z</time>
      </trkpt>
      <trkpt lat="45.90102" lon="4.72388">
        <ele>178.17801</ele>
        <time>2023-04-24T12:32:49.000Z</time>
      </trkpt>
      <trkpt lat="45.90105" lon="4.72387">
        <ele>178.27051</ele>
        <time>2023-04-24T12:32:50.000Z</time>
      </trkpt>
      <trkpt lat="45.90109" lon="4.72385">
        <ele>178.3335</ele>
        <time>2023-04-24T12:32:51.000Z</time>
      </trkpt>
      <trkpt lat="45.90112" lon="4.72383">
        <ele>178.39795</ele>
        <time>2023-04-24T12:32:52.000Z</time>
      </trkpt>
      <trkpt lat="45.90116" lon="4.72381">
        <ele>178.43279</ele>
        <time>2023-04-24T12:32:53.000Z</time>
      </trkpt>
      <trkpt lat="45.90119" lon="4.72378">
        <ele>178.47696</ele>
        <time>2023-04-24T12:32:54.000Z</time>
      </trkpt>
      <trkpt lat="45.90122" lon="4.72376">
        <ele>178.53085</ele>
        <time>2023-04-24T12:32:55.000Z</time>
      </trkpt>
      <trkpt lat="45.90125" lon="4.72374">
        <ele>178.54553</ele>
        <time>2023-04-24T12:32:56.000Z</time>
      </trkpt>
      <trkpt lat="45.90129" lon="4.72371">
        <ele>178.55203</ele>
        <time>2023-04-24T12:32:57.000Z</time>
      </trkpt>
      <trkpt lat="45.90132" lon="4.72369">
        <ele>178.57053</ele>
        <time>2023-04-24T12:32:58.000Z</time>
      </trkpt>
      <trkpt lat="45.90135" lon="4.72368">
        <ele>178.55293</ele>
        <time>2023-04-24T12:32:59.000Z</time>
      </trkpt>
      <trkpt lat="45.90138" lon="4.72366">
        <ele>178.48203</ele>
        <time>2023-04-24T12:33:00.000Z</time>
      </trkpt>
      <trkpt lat="45.90141" lon="4.72363">
        <ele>178.41461</ele>
        <time>2023-04-24T12:33:01.000Z</time>
      </trkpt>
      <trkpt lat="45.90144" lon="4.7236">
        <ele>178.31705</ele>
        <time>2023-04-24T12:33:02.000Z</time>
      </trkpt>
      <trkpt lat="45.90147" lon="4.72357">
        <ele>178.20508</ele>
        <time>2023-04-24T12:33:03.000Z</time>
      </trkpt>
      <trkpt lat="45.9015" lon="4.72353">
        <ele>178.07785</ele>
        <time>2023-04-24T12:33:04.000Z</time>
      </trkpt>
      <trkpt lat="45.90153" lon="4.7235">
        <ele>177.96181</ele>
        <time>2023-04-24T12:33:05.000Z</time>
      </trkpt>
      <trkpt lat="45.90156" lon="4.72347">
        <ele>177.86505</ele>
        <time>2023-04-24T12:33:06.000Z</time>
      </trkpt>
      <trkpt lat="45.9016" lon="4.72344">
        <ele>177.79837</ele>
        <time>2023-04-24T12:33:07.000Z</time>
      </trkpt>
      <trkpt lat="45.90163" lon="4.72341">
        <ele>177.71707</ele>
        <time>2023-04-24T12:33:08.000Z</time>
      </trkpt>
      <trkpt lat="45.90167" lon="4.72339">
        <ele>177.6149</ele>
        <time>2023-04-24T12:33:09.000Z</time>
      </trkpt>
      <trkpt lat="45.9017" lon="4.72336">
        <ele>177.48976</ele>
        <time>2023-04-24T12:33:10.000Z</time>
      </trkpt>
      <trkpt lat="45.90173" lon="4.72334">
        <ele>177.37358</ele>
        <time>2023-04-24T12:33:11.000Z</time>
      </trkpt>
      <trkpt lat="45.90176" lon="4.72331">
        <ele>177.34801</ele>
        <time>2023-04-24T12:33:12.000Z</time>
      </trkpt>
      <trkpt lat="45.90179" lon="4.72328">
        <ele>177.35512</ele>
        <time>2023-04-24T12:33:13.000Z</time>
      </trkpt>
      <trkpt lat="45.90182" lon="4.72326">
        <ele>177.30589</ele>
        <time>2023-04-24T12:33:14.000Z</time>
      </trkpt>
      <trkpt lat="45.90185" lon="4.72324">
        <ele>177.27208</ele>
        <time>2023-04-24T12:33:15.000Z</time>
      </trkpt>
      <trkpt lat="45.90189" lon="4.72322">
        <ele>177.24252</ele>
        <time>2023-04-24T12:33:16.000Z</time>
      </trkpt>
      <trkpt lat="45.90192" lon="4.72319">
        <ele>177.21286</ele>
        <time>2023-04-24T12:33:17.000Z</time>
      </trkpt>
      <trkpt lat="45.90195" lon="4.72316">
        <ele>177.11407</ele>
        <time>2023-04-24T12:33:18.000Z</time>
      </trkpt>
      <trkpt lat="45.90198" lon="4.72313">
        <ele>177.0358</ele>
        <time>2023-04-24T12:33:19.000Z</time>
      </trkpt>
      <trkpt lat="45.90201" lon="4.72309">
        <ele>176.99448</ele>
        <time>2023-04-24T12:33:20.000Z</time>
      </trkpt>
      <trkpt lat="45.90203" lon="4.72305">
        <ele>177.11043</ele>
        <time>2023-04-24T12:33:21.000Z</time>
      </trkpt>
      <trkpt lat="45.90204" lon="4.723">
        <ele>177.18073</ele>
        <time>2023-04-24T12:33:22.000Z</time>
      </trkpt>
      <trkpt lat="45.90204" lon="4.72295">
        <ele>177.25763</ele>
        <time>2023-04-24T12:33:23.000Z</time>
      </trkpt>
      <trkpt lat="45.90203" lon="4.7229">
        <ele>177.36009</ele>
        <time>2023-04-24T12:33:24.000Z</time>
      </trkpt>
      <trkpt lat="45.90202" lon="4.72285">
        <ele>177.47589</ele>
        <time>2023-04-24T12:33:25.000Z</time>
      </trkpt>
      <trkpt lat="45.90201" lon="4.72279">
        <ele>177.57098</ele>
        <time>2023-04-24T12:33:26.000Z</time>
      </trkpt>
      <trkpt lat="45.902" lon="4.72274">
        <ele>177.67412</ele>
        <time>2023-04-24T12:33:27.000Z</time>
      </trkpt>
      <trkpt lat="45.90199" lon="4.72268">
        <ele>177.78856</ele>
        <time>2023-04-24T12:33:28.000Z</time>
      </trkpt>
      <trkpt lat="45.90199" lon="4.72263">
        <ele>177.83878</ele>
        <time>2023-04-24T12:33:29.000Z</time>
      </trkpt>
      <trkpt lat="45.90198" lon="4.72257">
        <ele>177.89832</ele>
        <time>2023-04-24T12:33:30.000Z</time>
      </trkpt>
      <trkpt lat="45.90197" lon="4.72251">
        <ele>177.95927</ele>
        <time>2023-04-24T12:33:31.000Z</time>
      </trkpt>
      <trkpt lat="45.90196" lon="4.72246">
        <ele>177.9379</ele>
        <time>2023-04-24T12:33:32.000Z</time>
      </trkpt>
      <trkpt lat="45.90195" lon="4.72241">
        <ele>177.92349</ele>
        <time>2023-04-24T12:33:33.000Z</time>
      </trkpt>
      <trkpt lat="45.90194" lon="4.72236">
        <ele>177.94675</ele>
        <time>2023-04-24T12:33:34.000Z</time>
      </trkpt>
      <trkpt lat="45.90193" lon="4.7223">
        <ele>177.92703</ele>
        <time>2023-04-24T12:33:35.000Z</time>
      </trkpt>
      <trkpt lat="45.90193" lon="4.72224">
        <ele>177.90709</ele>
        <time>2023-04-24T12:33:36.000Z</time>
      </trkpt>
      <trkpt lat="45.90192" lon="4.72219">
        <ele>177.85953</ele>
        <time>2023-04-24T12:33:37.000Z</time>
      </trkpt>
      <trkpt lat="45.90192" lon="4.72213">
        <ele>177.90057</ele>
        <time>2023-04-24T12:33:38.000Z</time>
      </trkpt>
      <trkpt lat="45.90191" lon="4.72207">
        <ele>177.92325</ele>
        <time>2023-04-24T12:33:39.000Z</time>
      </trkpt>
      <trkpt lat="45.90191" lon="4.72201">
        <ele>177.92625</ele>
        <time>2023-04-24T12:33:40.000Z</time>
      </trkpt>
      <trkpt lat="45.90191" lon="4.72194">
        <ele>177.7686</ele>
        <time>2023-04-24T12:33:41.000Z</time>
      </trkpt>
      <trkpt lat="45.9019" lon="4.72188">
        <ele>177.68211</ele>
        <time>2023-04-24T12:33:42.000Z</time>
      </trkpt>
      <trkpt lat="45.9019" lon="4.72182">
        <ele>177.58379</ele>
        <time>2023-04-24T12:33:43.000Z</time>
      </trkpt>
      <trkpt lat="45.90189" lon="4.72176">
        <ele>177.48207</ele>
        <time>2023-04-24T12:33:44.000Z</time>
      </trkpt>
      <trkpt lat="45.90189" lon="4.7217">
        <ele>177.34146</ele>
        <time>2023-04-24T12:33:45.000Z</time>
      </trkpt>
      <trkpt lat="45.90189" lon="4.72163">
        <ele>177.21242</ele>
        <time>2023-04-24T12:33:46.000Z</time>
      </trkpt>
      <trkpt lat="45.90189" lon="4.72157">
        <ele>177.09508</ele>
        <time>2023-04-24T12:33:47.000Z</time>
      </trkpt>
      <trkpt lat="45.90189" lon="4.7215">
        <ele>176.96848</ele>
        <time>2023-04-24T12:33:48.000Z</time>
      </trkpt>
      <trkpt lat="45.90188" lon="4.72144">
        <ele>176.92683</ele>
        <time>2023-04-24T12:33:49.000Z</time>
      </trkpt>
      <trkpt lat="45.90189" lon="4.72138">
        <ele>176.86928</ele>
        <time>2023-04-24T12:33:50.000Z</time>
      </trkpt>
      <trkpt lat="45.90189" lon="4.72132">
        <ele>176.79224</ele>
        <time>2023-04-24T12:33:51.000Z</time>
      </trkpt>
      <trkpt lat="45.90188" lon="4.72126">
        <ele>176.72025</ele>
        <time>2023-04-24T12:33:52.000Z</time>
      </trkpt>
      <trkpt lat="45.90188" lon="4.72119">
        <ele>176.63858</ele>
        <time>2023-04-24T12:33:53.000Z</time>
      </trkpt>
      <trkpt lat="45.90188" lon="4.72113">
        <ele>176.54002</ele>
        <time>2023-04-24T12:33:54.000Z</time>
      </trkpt>
      <trkpt lat="45.90188" lon="4.72106">
        <ele>176.44511</ele>
        <time>2023-04-24T12:33:55.000Z</time>
      </trkpt>
      <trkpt lat="45.90188" lon="4.721">
        <ele>176.34518</ele>
        <time>2023-04-24T12:33:56.000Z</time>
      </trkpt>
      <trkpt lat="45.90188" lon="4.72093">
        <ele>176.2715</ele>
        <time>2023-04-24T12:33:57.000Z</time>
      </trkpt>
      <trkpt lat="45.90188" lon="4.72088">
        <ele>176.14908</ele>
        <time>2023-04-24T12:33:58.000Z</time>
      </trkpt>
      <trkpt lat="45.90187" lon="4.72081">
        <ele>176.05591</ele>
        <time>2023-04-24T12:33:59.000Z</time>
      </trkpt>
      <trkpt lat="45.90187" lon="4.72075">
        <ele>175.95901</ele>
        <time>2023-04-24T12:34:00.000Z</time>
      </trkpt>
      <trkpt lat="45.90186" lon="4.72069">
        <ele>175.88229</ele>
        <time>2023-04-24T12:34:01.000Z</time>
      </trkpt>
      <trkpt lat="45.90186" lon="4.72063">
        <ele>175.81265</ele>
        <time>2023-04-24T12:34:02.000Z</time>
      </trkpt>
      <trkpt lat="45.90185" lon="4.72057">
        <ele>175.73257</ele>
        <time>2023-04-24T12:34:03.000Z</time>
      </trkpt>
      <trkpt lat="45.90185" lon="4.7205">
        <ele>175.66118</ele>
        <time>2023-04-24T12:34:04.000Z</time>
      </trkpt>
      <trkpt lat="45.90184" lon="4.72044">
        <ele>175.62227</ele>
        <time>2023-04-24T12:34:05.000Z</time>
      </trkpt>
      <trkpt lat="45.90183" lon="4.72038">
        <ele>175.56595</ele>
        <time>2023-04-24T12:34:06.000Z</time>
      </trkpt>
      <trkpt lat="45.90183" lon="4.72032">
        <ele>175.48375</ele>
        <time>2023-04-24T12:34:07.000Z</time>
      </trkpt>
      <trkpt lat="45.90182" lon="4.72025">
        <ele>175.42409</ele>
        <time>2023-04-24T12:34:08.000Z</time>
      </trkpt>
      <trkpt lat="45.90181" lon="4.72019">
        <ele>175.36615</ele>
        <time>2023-04-24T12:34:09.000Z</time>
      </trkpt>
      <trkpt lat="45.90181" lon="4.72013">
        <ele>175.34764</ele>
        <time>2023-04-24T12:34:10.000Z</time>
      </trkpt>
      <trkpt lat="45.9018" lon="4.72006">
        <ele>175.35373</ele>
        <time>2023-04-24T12:34:11.000Z</time>
      </trkpt>
      <trkpt lat="45.9018" lon="4.71998">
        <ele>175.3541</ele>
        <time>2023-04-24T12:34:12.000Z</time>
      </trkpt>
      <trkpt lat="45.90181" lon="4.71992">
        <ele>175.34943</ele>
        <time>2023-04-24T12:34:13.000Z</time>
      </trkpt>
      <trkpt lat="45.90181" lon="4.71986">
        <ele>175.3432</ele>
        <time>2023-04-24T12:34:14.000Z</time>
      </trkpt>
      <trkpt lat="45.90182" lon="4.7198">
        <ele>175.36366</ele>
        <time>2023-04-24T12:34:15.000Z</time>
      </trkpt>
      <trkpt lat="45.90182" lon="4.71972">
        <ele>175.4053</ele>
        <time>2023-04-24T12:34:16.000Z</time>
      </trkpt>
      <trkpt lat="45.90183" lon="4.71965">
        <ele>175.44815</ele>
        <time>2023-04-24T12:34:17.000Z</time>
      </trkpt>
      <trkpt lat="45.90184" lon="4.71959">
        <ele>175.53336</ele>
        <time>2023-04-24T12:34:18.000Z</time>
      </trkpt>
      <trkpt lat="45.90186" lon="4.71951">
        <ele>175.56908</ele>
        <time>2023-04-24T12:34:19.000Z</time>
      </trkpt>
      <trkpt lat="45.90187" lon="4.71945">
        <ele>175.65042</ele>
        <time>2023-04-24T12:34:20.000Z</time>
      </trkpt>
      <trkpt lat="45.90189" lon="4.71938">
        <ele>175.7312</ele>
        <time>2023-04-24T12:34:21.000Z</time>
      </trkpt>
      <trkpt lat="45.90191" lon="4.71931">
        <ele>175.81679</ele>
        <time>2023-04-24T12:34:22.000Z</time>
      </trkpt>
      <trkpt lat="45.90193" lon="4.71926">
        <ele>175.92056</ele>
        <time>2023-04-24T12:34:23.000Z</time>
      </trkpt>
      <trkpt lat="45.90194" lon="4.7192">
        <ele>176.02261</ele>
        <time>2023-04-24T12:34:24.000Z</time>
      </trkpt>
      <trkpt lat="45.90197" lon="4.71914">
        <ele>176.13239</ele>
        <time>2023-04-24T12:34:25.000Z</time>
      </trkpt>
      <trkpt lat="45.90199" lon="4.71908">
        <ele>176.2585</ele>
        <time>2023-04-24T12:34:26.000Z</time>
      </trkpt>
      <trkpt lat="45.90201" lon="4.71902">
        <ele>176.35448</ele>
        <time>2023-04-24T12:34:27.000Z</time>
      </trkpt>
      <trkpt lat="45.90204" lon="4.71896">
        <ele>176.44046</ele>
        <time>2023-04-24T12:34:28.000Z</time>
      </trkpt>
      <trkpt lat="45.90206" lon="4.71891">
        <ele>176.52058</ele>
        <time>2023-04-24T12:34:29.000Z</time>
      </trkpt>
      <trkpt lat="45.90209" lon="4.71886">
        <ele>176.59335</ele>
        <time>2023-04-24T12:34:30.000Z</time>
      </trkpt>
      <trkpt lat="45.90213" lon="4.7188">
        <ele>176.64474</ele>
        <time>2023-04-24T12:34:31.000Z</time>
      </trkpt>
      <trkpt lat="45.90215" lon="4.71875">
        <ele>176.68295</ele>
        <time>2023-04-24T12:34:32.000Z</time>
      </trkpt>
      <trkpt lat="45.90219" lon="4.7187">
        <ele>176.74655</ele>
        <time>2023-04-24T12:34:33.000Z</time>
      </trkpt>
      <trkpt lat="45.90221" lon="4.71866">
        <ele>176.8161</ele>
        <time>2023-04-24T12:34:34.000Z</time>
      </trkpt>
      <trkpt lat="45.90224" lon="4.71861">
        <ele>176.90251</ele>
        <time>2023-04-24T12:34:35.000Z</time>
      </trkpt>
      <trkpt lat="45.90227" lon="4.71855">
        <ele>176.96938</ele>
        <time>2023-04-24T12:34:36.000Z</time>
      </trkpt>
      <trkpt lat="45.90231" lon="4.7185">
        <ele>177.03096</ele>
        <time>2023-04-24T12:34:37.000Z</time>
      </trkpt>
      <trkpt lat="45.90234" lon="4.71845">
        <ele>177.09767</ele>
        <time>2023-04-24T12:34:38.000Z</time>
      </trkpt>
      <trkpt lat="45.90237" lon="4.7184">
        <ele>177.20189</ele>
        <time>2023-04-24T12:34:39.000Z</time>
      </trkpt>
      <trkpt lat="45.90239" lon="4.71836">
        <ele>177.25594</ele>
        <time>2023-04-24T12:34:40.000Z</time>
      </trkpt>
      <trkpt lat="45.90242" lon="4.71831">
        <ele>177.31358</ele>
        <time>2023-04-24T12:34:41.000Z</time>
      </trkpt>
      <trkpt lat="45.90244" lon="4.71825">
        <ele>177.37685</ele>
        <time>2023-04-24T12:34:42.000Z</time>
      </trkpt>
      <trkpt lat="45.90246" lon="4.71821">
        <ele>177.43202</ele>
        <time>2023-04-24T12:34:43.000Z</time>
      </trkpt>
      <trkpt lat="45.90249" lon="4.71815">
        <ele>177.47165</ele>
        <time>2023-04-24T12:34:44.000Z</time>
      </trkpt>
      <trkpt lat="45.9025" lon="4.7181">
        <ele>177.51697</ele>
        <time>2023-04-24T12:34:45.000Z</time>
      </trkpt>
      <trkpt lat="45.90252" lon="4.71805">
        <ele>177.56071</ele>
        <time>2023-04-24T12:34:46.000Z</time>
      </trkpt>
      <trkpt lat="45.90253" lon="4.71799">
        <ele>177.77324</ele>
        <time>2023-04-24T12:34:47.000Z</time>
      </trkpt>
      <trkpt lat="45.90253" lon="4.71793">
        <ele>178.00191</ele>
        <time>2023-04-24T12:34:48.000Z</time>
      </trkpt>
      <trkpt lat="45.90254" lon="4.71787">
        <ele>178.24806</ele>
        <time>2023-04-24T12:34:49.000Z</time>
      </trkpt>
      <trkpt lat="45.90255" lon="4.71782">
        <ele>178.46649</ele>
        <time>2023-04-24T12:34:50.000Z</time>
      </trkpt>
      <trkpt lat="45.90256" lon="4.71776">
        <ele>178.71988</ele>
        <time>2023-04-24T12:34:51.000Z</time>
      </trkpt>
      <trkpt lat="45.90256" lon="4.7177">
        <ele>178.99161</ele>
        <time>2023-04-24T12:34:52.000Z</time>
      </trkpt>
      <trkpt lat="45.90256" lon="4.71765">
        <ele>179.25142</ele>
        <time>2023-04-24T12:34:53.000Z</time>
      </trkpt>
      <trkpt lat="45.90257" lon="4.7176">
        <ele>179.5219</ele>
        <time>2023-04-24T12:34:54.000Z</time>
      </trkpt>
      <trkpt lat="45.90257" lon="4.71754">
        <ele>179.77699</ele>
        <time>2023-04-24T12:34:55.000Z</time>
      </trkpt>
      <trkpt lat="45.90257" lon="4.71749">
        <ele>180.00595</ele>
        <time>2023-04-24T12:34:56.000Z</time>
      </trkpt>
      <trkpt lat="45.90258" lon="4.71743">
        <ele>180.25725</ele>
        <time>2023-04-24T12:34:57.000Z</time>
      </trkpt>
      <trkpt lat="45.90258" lon="4.71738">
        <ele>180.51007</ele>
        <time>2023-04-24T12:34:58.000Z</time>
      </trkpt>
      <trkpt lat="45.90259" lon="4.71733">
        <ele>180.75795</ele>
        <time>2023-04-24T12:34:59.000Z</time>
      </trkpt>
      <trkpt lat="45.9026" lon="4.71727">
        <ele>181.04607</ele>
        <time>2023-04-24T12:35:00.000Z</time>
      </trkpt>
      <trkpt lat="45.9026" lon="4.71722">
        <ele>181.33682</ele>
        <time>2023-04-24T12:35:01.000Z</time>
      </trkpt>
      <trkpt lat="45.90261" lon="4.71716">
        <ele>181.62817</ele>
        <time>2023-04-24T12:35:02.000Z</time>
      </trkpt>
      <trkpt lat="45.90262" lon="4.7171">
        <ele>181.92116</ele>
        <time>2023-04-24T12:35:03.000Z</time>
      </trkpt>
      <trkpt lat="45.90263" lon="4.71704">
        <ele>182.24095</ele>
        <time>2023-04-24T12:35:04.000Z</time>
      </trkpt>
      <trkpt lat="45.90264" lon="4.71699">
        <ele>182.5591</ele>
        <time>2023-04-24T12:35:05.000Z</time>
      </trkpt>
      <trkpt lat="45.90265" lon="4.71693">
        <ele>182.8904</ele>
        <time>2023-04-24T12:35:06.000Z</time>
      </trkpt>
      <trkpt lat="45.90265" lon="4.71688">
        <ele>183.10818</ele>
        <time>2023-04-24T12:35:07.000Z</time>
      </trkpt>
      <trkpt lat="45.90266" lon="4.71683">
        <ele>183.32779</ele>
        <time>2023-04-24T12:35:08.000Z</time>
      </trkpt>
      <trkpt lat="45.90267" lon="4.71677">
        <ele>183.56404</ele>
        <time>2023-04-24T12:35:09.000Z</time>
      </trkpt>
      <trkpt lat="45.90268" lon="4.7167">
        <ele>183.80576</ele>
        <time>2023-04-24T12:35:10.000Z</time>
      </trkpt>
      <trkpt lat="45.9027" lon="4.71663">
        <ele>184.04166</ele>
        <time>2023-04-24T12:35:11.000Z</time>
      </trkpt>
      <trkpt lat="45.9027" lon="4.71657">
        <ele>184.28291</ele>
        <time>2023-04-24T12:35:12.000Z</time>
      </trkpt>
      <trkpt lat="45.90272" lon="4.7165">
        <ele>184.49916</ele>
        <time>2023-04-24T12:35:13.000Z</time>
      </trkpt>
      <trkpt lat="45.90272" lon="4.71645">
        <ele>184.69995</ele>
        <time>2023-04-24T12:35:14.000Z</time>
      </trkpt>
      <trkpt lat="45.90273" lon="4.71638">
        <ele>185.06589</ele>
        <time>2023-04-24T12:35:15.000Z</time>
      </trkpt>
      <trkpt lat="45.90274" lon="4.71632">
        <ele>185.46654</ele>
        <time>2023-04-24T12:35:16.000Z</time>
      </trkpt>
      <trkpt lat="45.90274" lon="4.71626">
        <ele>185.85915</ele>
        <time>2023-04-24T12:35:17.000Z</time>
      </trkpt>
      <trkpt lat="45.90274" lon="4.7162">
        <ele>186.23288</ele>
        <time>2023-04-24T12:35:18.000Z</time>
      </trkpt>
      <trkpt lat="45.90275" lon="4.71614">
        <ele>186.63399</ele>
        <time>2023-04-24T12:35:19.000Z</time>
      </trkpt>
      <trkpt lat="45.90274" lon="4.71608">
        <ele>187.02345</ele>
        <time>2023-04-24T12:35:20.000Z</time>
      </trkpt>
      <trkpt lat="45.90275" lon="4.71601">
        <ele>187.22939</ele>
        <time>2023-04-24T12:35:21.000Z</time>
      </trkpt>
      <trkpt lat="45.90276" lon="4.71595">
        <ele>187.58075</ele>
        <time>2023-04-24T12:35:22.000Z</time>
      </trkpt>
      <trkpt lat="45.90276" lon="4.71589">
        <ele>187.93263</ele>
        <time>2023-04-24T12:35:23.000Z</time>
      </trkpt>
      <trkpt lat="45.90276" lon="4.71584">
        <ele>188.27858</ele>
        <time>2023-04-24T12:35:24.000Z</time>
      </trkpt>
      <trkpt lat="45.90276" lon="4.71578">
        <ele>188.63301</ele>
        <time>2023-04-24T12:35:25.000Z</time>
      </trkpt>
      <trkpt lat="45.90276" lon="4.71572">
        <ele>188.95404</ele>
        <time>2023-04-24T12:35:26.000Z</time>
      </trkpt>
      <trkpt lat="45.90276" lon="4.71567">
        <ele>189.25198</ele>
        <time>2023-04-24T12:35:27.000Z</time>
      </trkpt>
      <trkpt lat="45.90276" lon="4.71561">
        <ele>189.54863</ele>
        <time>2023-04-24T12:35:28.000Z</time>
      </trkpt>
      <trkpt lat="45.90276" lon="4.71556">
        <ele>189.81706</ele>
        <time>2023-04-24T12:35:29.000Z</time>
      </trkpt>
      <trkpt lat="45.90276" lon="4.7155">
        <ele>190.1156</ele>
        <time>2023-04-24T12:35:30.000Z</time>
      </trkpt>
      <trkpt lat="45.90276" lon="4.71544">
        <ele>190.3938</ele>
        <time>2023-04-24T12:35:31.000Z</time>
      </trkpt>
      <trkpt lat="45.90277" lon="4.71539">
        <ele>190.66788</ele>
        <time>2023-04-24T12:35:32.000Z</time>
      </trkpt>
      <trkpt lat="45.90277" lon="4.71534">
        <ele>190.96199</ele>
        <time>2023-04-24T12:35:33.000Z</time>
      </trkpt>
      <trkpt lat="45.90278" lon="4.7153">
        <ele>191.26703</ele>
        <time>2023-04-24T12:35:34.000Z</time>
      </trkpt>
      <trkpt lat="45.90278" lon="4.71526">
        <ele>191.45033</ele>
        <time>2023-04-24T12:35:35.000Z</time>
      </trkpt>
      <trkpt lat="45.90279" lon="4.71522">
        <ele>191.61964</ele>
        <time>2023-04-24T12:35:36.000Z</time>
      </trkpt>
      <trkpt lat="45.90279" lon="4.71518">
        <ele>191.7749</ele>
        <time>2023-04-24T12:35:37.000Z</time>
      </trkpt>
      <trkpt lat="45.90279" lon="4.71516">
        <ele>191.94064</ele>
        <time>2023-04-24T12:35:38.000Z</time>
      </trkpt>
      <trkpt lat="45.90279" lon="4.71511">
        <ele>192.06644</ele>
        <time>2023-04-24T12:35:40.000Z</time>
      </trkpt>
      <trkpt lat="45.90279" lon="4.71515">
        <ele>192.20828</ele>
        <time>2023-04-24T12:35:46.000Z</time>
      </trkpt>
      <trkpt lat="45.9028" lon="4.71518">
        <ele>192.51233</ele>
        <time>2023-04-24T12:35:49.000Z</time>
      </trkpt>
      <trkpt lat="45.90281" lon="4.71523">
        <ele>192.664</ele>
        <time>2023-04-24T12:35:51.000Z</time>
      </trkpt>
      <trkpt lat="45.90281" lon="4.71527">
        <ele>192.80232</ele>
        <time>2023-04-24T12:35:53.000Z</time>
      </trkpt>
      <trkpt lat="45.90281" lon="4.71531">
        <ele>192.86104</ele>
        <time>2023-04-24T12:35:55.000Z</time>
      </trkpt>
      <trkpt lat="45.90284" lon="4.71532">
        <ele>192.8978</ele>
        <time>2023-04-24T12:35:57.000Z</time>
      </trkpt>
      <trkpt lat="45.90288" lon="4.71531">
        <ele>192.92845</ele>
        <time>2023-04-24T12:35:59.000Z</time>
      </trkpt>
      <trkpt lat="45.90291" lon="4.7153">
        <ele>192.99698</ele>
        <time>2023-04-24T12:36:01.000Z</time>
      </trkpt>
      <trkpt lat="45.90292" lon="4.7153">
        <ele>193.04019</ele>
        <time>2023-04-24T12:36:02.000Z</time>
      </trkpt>
      <trkpt lat="45.90295" lon="4.71529">
        <ele>193.08902</ele>
        <time>2023-04-24T12:36:03.000Z</time>
      </trkpt>
      <trkpt lat="45.90297" lon="4.71529">
        <ele>193.12274</ele>
        <time>2023-04-24T12:36:04.000Z</time>
      </trkpt>
      <trkpt lat="45.90299" lon="4.71527">
        <ele>193.15222</ele>
        <time>2023-04-24T12:36:05.000Z</time>
      </trkpt>
      <trkpt lat="45.90302" lon="4.71526">
        <ele>193.16695</ele>
        <time>2023-04-24T12:36:06.000Z</time>
      </trkpt>
      <trkpt lat="45.90305" lon="4.71524">
        <ele>193.18192</ele>
        <time>2023-04-24T12:36:07.000Z</time>
      </trkpt>
      <trkpt lat="45.90308" lon="4.71523">
        <ele>193.19424</ele>
        <time>2023-04-24T12:36:08.000Z</time>
      </trkpt>
      <trkpt lat="45.90311" lon="4.71521">
        <ele>193.14322</ele>
        <time>2023-04-24T12:36:09.000Z</time>
      </trkpt>
      <trkpt lat="45.90315" lon="4.7152">
        <ele>193.09476</ele>
        <time>2023-04-24T12:36:10.000Z</time>
      </trkpt>
      <trkpt lat="45.90317" lon="4.71519">
        <ele>193.05116</ele>
        <time>2023-04-24T12:36:11.000Z</time>
      </trkpt>
      <trkpt lat="45.90319" lon="4.71517">
        <ele>192.99463</ele>
        <time>2023-04-24T12:36:13.000Z</time>
      </trkpt>
      <trkpt lat="45.90322" lon="4.71518">
        <ele>192.92772</ele>
        <time>2023-04-24T12:36:16.000Z</time>
      </trkpt>
      <trkpt lat="45.90325" lon="4.71517">
        <ele>192.83171</ele>
        <time>2023-04-24T12:36:17.000Z</time>
      </trkpt>
      <trkpt lat="45.90327" lon="4.71516">
        <ele>192.71768</ele>
        <time>2023-04-24T12:36:18.000Z</time>
      </trkpt>
      <trkpt lat="45.9033" lon="4.71516">
        <ele>192.57742</ele>
        <time>2023-04-24T12:36:19.000Z</time>
      </trkpt>
      <trkpt lat="45.90333" lon="4.71515">
        <ele>192.42715</ele>
        <time>2023-04-24T12:36:20.000Z</time>
      </trkpt>
      <trkpt lat="45.90337" lon="4.71515">
        <ele>192.32288</ele>
        <time>2023-04-24T12:36:21.000Z</time>
      </trkpt>
      <trkpt lat="45.90341" lon="4.71514">
        <ele>192.2377</ele>
        <time>2023-04-24T12:36:22.000Z</time>
      </trkpt>
      <trkpt lat="45.90344" lon="4.71513">
        <ele>192.15985</ele>
        <time>2023-04-24T12:36:23.000Z</time>
      </trkpt>
      <trkpt lat="45.90347" lon="4.71512">
        <ele>192.01419</ele>
        <time>2023-04-24T12:36:24.000Z</time>
      </trkpt>
      <trkpt lat="45.90351" lon="4.71511">
        <ele>191.862</ele>
        <time>2023-04-24T12:36:25.000Z</time>
      </trkpt>
      <trkpt lat="45.90355" lon="4.7151">
        <ele>191.69485</ele>
        <time>2023-04-24T12:36:26.000Z</time>
      </trkpt>
      <trkpt lat="45.90359" lon="4.71509">
        <ele>191.52623</ele>
        <time>2023-04-24T12:36:27.000Z</time>
      </trkpt>
      <trkpt lat="45.90363" lon="4.71509">
        <ele>191.34071</ele>
        <time>2023-04-24T12:36:28.000Z</time>
      </trkpt>
      <trkpt lat="45.90366" lon="4.71508">
        <ele>191.14259</ele>
        <time>2023-04-24T12:36:29.000Z</time>
      </trkpt>
      <trkpt lat="45.9037" lon="4.71508">
        <ele>190.92647</ele>
        <time>2023-04-24T12:36:30.000Z</time>
      </trkpt>
      <trkpt lat="45.90374" lon="4.71507">
        <ele>190.73154</ele>
        <time>2023-04-24T12:36:31.000Z</time>
      </trkpt>
      <trkpt lat="45.90378" lon="4.71506">
        <ele>190.56299</ele>
        <time>2023-04-24T12:36:32.000Z</time>
      </trkpt>
      <trkpt lat="45.90381" lon="4.71504">
        <ele>190.39442</ele>
        <time>2023-04-24T12:36:33.000Z</time>
      </trkpt>
      <trkpt lat="45.90385" lon="4.71503">
        <ele>190.24648</ele>
        <time>2023-04-24T12:36:34.000Z</time>
      </trkpt>
      <trkpt lat="45.90388" lon="4.71502">
        <ele>190.0751</ele>
        <time>2023-04-24T12:36:35.000Z</time>
      </trkpt>
      <trkpt lat="45.90392" lon="4.71501">
        <ele>189.92036</ele>
        <time>2023-04-24T12:36:36.000Z</time>
      </trkpt>
      <trkpt lat="45.90396" lon="4.71501">
        <ele>189.78551</ele>
        <time>2023-04-24T12:36:37.000Z</time>
      </trkpt>
      <trkpt lat="45.90401" lon="4.71501">
        <ele>189.65829</ele>
        <time>2023-04-24T12:36:38.000Z</time>
      </trkpt>
      <trkpt lat="45.90405" lon="4.71501">
        <ele>189.5457</ele>
        <time>2023-04-24T12:36:39.000Z</time>
      </trkpt>
      <trkpt lat="45.90411" lon="4.71502">
        <ele>189.4454</ele>
        <time>2023-04-24T12:36:40.000Z</time>
      </trkpt>
      <trkpt lat="45.90416" lon="4.71502">
        <ele>189.36482</ele>
        <time>2023-04-24T12:36:41.000Z</time>
      </trkpt>
      <trkpt lat="45.90421" lon="4.71501">
        <ele>189.21999</ele>
        <time>2023-04-24T12:36:42.000Z</time>
      </trkpt>
      <trkpt lat="45.90426" lon="4.71501">
        <ele>189.099</ele>
        <time>2023-04-24T12:36:43.000Z</time>
      </trkpt>
      <trkpt lat="45.90431" lon="4.715">
        <ele>188.97319</ele>
        <time>2023-04-24T12:36:44.000Z</time>
      </trkpt>
      <trkpt lat="45.90436" lon="4.71499">
        <ele>188.81721</ele>
        <time>2023-04-24T12:36:45.000Z</time>
      </trkpt>
      <trkpt lat="45.90441" lon="4.71499">
        <ele>188.66533</ele>
        <time>2023-04-24T12:36:46.000Z</time>
      </trkpt>
      <trkpt lat="45.90445" lon="4.715">
        <ele>188.50891</ele>
        <time>2023-04-24T12:36:47.000Z</time>
      </trkpt>
      <trkpt lat="45.9045" lon="4.71502">
        <ele>188.37967</ele>
        <time>2023-04-24T12:36:48.000Z</time>
      </trkpt>
      <trkpt lat="45.90455" lon="4.71503">
        <ele>188.25307</ele>
        <time>2023-04-24T12:36:49.000Z</time>
      </trkpt>
      <trkpt lat="45.90459" lon="4.71503">
        <ele>188.17049</ele>
        <time>2023-04-24T12:36:50.000Z</time>
      </trkpt>
      <trkpt lat="45.90465" lon="4.71505">
        <ele>188.05981</ele>
        <time>2023-04-24T12:36:51.000Z</time>
      </trkpt>
      <trkpt lat="45.9047" lon="4.71506">
        <ele>187.93159</ele>
        <time>2023-04-24T12:36:52.000Z</time>
      </trkpt>
      <trkpt lat="45.90472" lon="4.71508">
        <ele>187.81473</ele>
        <time>2023-04-24T12:36:53.000Z</time>
      </trkpt>
      <trkpt lat="45.90477" lon="4.7151">
        <ele>187.68576</ele>
        <time>2023-04-24T12:36:54.000Z</time>
      </trkpt>
      <trkpt lat="45.90481" lon="4.71514">
        <ele>187.59692</ele>
        <time>2023-04-24T12:36:55.000Z</time>
      </trkpt>
      <trkpt lat="45.90484" lon="4.71515">
        <ele>187.54227</ele>
        <time>2023-04-24T12:36:56.000Z</time>
      </trkpt>
      <trkpt lat="45.90487" lon="4.71517">
        <ele>187.45723</ele>
        <time>2023-04-24T12:36:57.000Z</time>
      </trkpt>
      <trkpt lat="45.9049" lon="4.71518">
        <ele>187.37811</ele>
        <time>2023-04-24T12:36:58.000Z</time>
      </trkpt>
      <trkpt lat="45.90493" lon="4.71517">
        <ele>187.32993</ele>
        <time>2023-04-24T12:36:59.000Z</time>
      </trkpt>
      <trkpt lat="45.90495" lon="4.71516">
        <ele>187.31491</ele>
        <time>2023-04-24T12:37:00.000Z</time>
      </trkpt>
      <trkpt lat="45.90496" lon="4.71511">
        <ele>187.31201</ele>
        <time>2023-04-24T12:37:01.000Z</time>
      </trkpt>
      <trkpt lat="45.90498" lon="4.71507">
        <ele>187.32932</ele>
        <time>2023-04-24T12:37:02.000Z</time>
      </trkpt>
      <trkpt lat="45.90499" lon="4.71502">
        <ele>187.32817</ele>
        <time>2023-04-24T12:37:03.000Z</time>
      </trkpt>
      <trkpt lat="45.905" lon="4.71497">
        <ele>187.36935</ele>
        <time>2023-04-24T12:37:04.000Z</time>
      </trkpt>
      <trkpt lat="45.90501" lon="4.71493">
        <ele>187.43428</ele>
        <time>2023-04-24T12:37:05.000Z</time>
      </trkpt>
      <trkpt lat="45.90503" lon="4.71488">
        <ele>187.52383</ele>
        <time>2023-04-24T12:37:06.000Z</time>
      </trkpt>
      <trkpt lat="45.90504" lon="4.71483">
        <ele>187.6347</ele>
        <time>2023-04-24T12:37:07.000Z</time>
      </trkpt>
      <trkpt lat="45.90506" lon="4.71478">
        <ele>187.74821</ele>
        <time>2023-04-24T12:37:08.000Z</time>
      </trkpt>
      <trkpt lat="45.90507" lon="4.71473">
        <ele>187.88724</ele>
        <time>2023-04-24T12:37:09.000Z</time>
      </trkpt>
      <trkpt lat="45.90508" lon="4.71469">
        <ele>187.99065</ele>
        <time>2023-04-24T12:37:10.000Z</time>
      </trkpt>
      <trkpt lat="45.9051" lon="4.71464">
        <ele>188.0732</ele>
        <time>2023-04-24T12:37:11.000Z</time>
      </trkpt>
      <trkpt lat="45.90511" lon="4.71459">
        <ele>188.16049</ele>
        <time>2023-04-24T12:37:12.000Z</time>
      </trkpt>
      <trkpt lat="45.90512" lon="4.71453">
        <ele>188.22699</ele>
        <time>2023-04-24T12:37:13.000Z</time>
      </trkpt>
      <trkpt lat="45.90514" lon="4.71447">
        <ele>188.29683</ele>
        <time>2023-04-24T12:37:14.000Z</time>
      </trkpt>
      <trkpt lat="45.90515" lon="4.71441">
        <ele>188.37605</ele>
        <time>2023-04-24T12:37:15.000Z</time>
      </trkpt>
      <trkpt lat="45.90517" lon="4.71435">
        <ele>188.42584</ele>
        <time>2023-04-24T12:37:16.000Z</time>
      </trkpt>
      <trkpt lat="45.90518" lon="4.71429">
        <ele>188.49353</ele>
        <time>2023-04-24T12:37:17.000Z</time>
      </trkpt>
      <trkpt lat="45.90519" lon="4.71424">
        <ele>188.56903</ele>
        <time>2023-04-24T12:37:18.000Z</time>
      </trkpt>
      <trkpt lat="45.9052" lon="4.71418">
        <ele>188.66478</ele>
        <time>2023-04-24T12:37:19.000Z</time>
      </trkpt>
      <trkpt lat="45.90521" lon="4.71412">
        <ele>188.75795</ele>
        <time>2023-04-24T12:37:20.000Z</time>
      </trkpt>
      <trkpt lat="45.90522" lon="4.71407">
        <ele>188.82317</ele>
        <time>2023-04-24T12:37:21.000Z</time>
      </trkpt>
      <trkpt lat="45.90522" lon="4.71401">
        <ele>188.93948</ele>
        <time>2023-04-24T12:37:22.000Z</time>
      </trkpt>
      <trkpt lat="45.90523" lon="4.71395">
        <ele>189.06808</ele>
        <time>2023-04-24T12:37:23.000Z</time>
      </trkpt>
      <trkpt lat="45.90524" lon="4.71389">
        <ele>189.19879</ele>
        <time>2023-04-24T12:37:24.000Z</time>
      </trkpt>
      <trkpt lat="45.90525" lon="4.71383">
        <ele>189.33145</ele>
        <time>2023-04-24T12:37:25.000Z</time>
      </trkpt>
      <trkpt lat="45.90526" lon="4.71377">
        <ele>189.44424</ele>
        <time>2023-04-24T12:37:26.000Z</time>
      </trkpt>
      <trkpt lat="45.90527" lon="4.7137">
        <ele>189.54022</ele>
        <time>2023-04-24T12:37:27.000Z</time>
      </trkpt>
      <trkpt lat="45.90528" lon="4.71362">
        <ele>189.60425</ele>
        <time>2023-04-24T12:37:28.000Z</time>
      </trkpt>
      <trkpt lat="45.90529" lon="4.71357">
        <ele>189.65358</ele>
        <time>2023-04-24T12:37:29.000Z</time>
      </trkpt>
      <trkpt lat="45.9053" lon="4.71351">
        <ele>189.69731</ele>
        <time>2023-04-24T12:37:30.000Z</time>
      </trkpt>
      <trkpt lat="45.90532" lon="4.71344">
        <ele>189.78934</ele>
        <time>2023-04-24T12:37:31.000Z</time>
      </trkpt>
      <trkpt lat="45.90534" lon="4.71338">
        <ele>189.90759</ele>
        <time>2023-04-24T12:37:32.000Z</time>
      </trkpt>
      <trkpt lat="45.90536" lon="4.71333">
        <ele>190.06743</ele>
        <time>2023-04-24T12:37:33.000Z</time>
      </trkpt>
      <trkpt lat="45.90539" lon="4.71327">
        <ele>190.18246</ele>
        <time>2023-04-24T12:37:34.000Z</time>
      </trkpt>
      <trkpt lat="45.90542" lon="4.71322">
        <ele>190.26669</ele>
        <time>2023-04-24T12:37:35.000Z</time>
      </trkpt>
      <trkpt lat="45.90544" lon="4.71316">
        <ele>190.36508</ele>
        <time>2023-04-24T12:37:36.000Z</time>
      </trkpt>
      <trkpt lat="45.90546" lon="4.7131">
        <ele>190.48186</ele>
        <time>2023-04-24T12:37:37.000Z</time>
      </trkpt>
      <trkpt lat="45.9055" lon="4.71305">
        <ele>190.57513</ele>
        <time>2023-04-24T12:37:38.000Z</time>
      </trkpt>
      <trkpt lat="45.90553" lon="4.713">
        <ele>190.59711</ele>
        <time>2023-04-24T12:37:39.000Z</time>
      </trkpt>
      <trkpt lat="45.90556" lon="4.71295">
        <ele>190.61612</ele>
        <time>2023-04-24T12:37:40.000Z</time>
      </trkpt>
      <trkpt lat="45.90559" lon="4.7129">
        <ele>190.63805</ele>
        <time>2023-04-24T12:37:41.000Z</time>
      </trkpt>
      <trkpt lat="45.90561" lon="4.71285">
        <ele>190.6225</ele>
        <time>2023-04-24T12:37:42.000Z</time>
      </trkpt>
      <trkpt lat="45.90564" lon="4.71279">
        <ele>190.61296</ele>
        <time>2023-04-24T12:37:43.000Z</time>
      </trkpt>
      <trkpt lat="45.90567" lon="4.71274">
        <ele>190.61342</ele>
        <time>2023-04-24T12:37:44.000Z</time>
      </trkpt>
      <trkpt lat="45.90568" lon="4.71268">
        <ele>190.67703</ele>
        <time>2023-04-24T12:37:45.000Z</time>
      </trkpt>
      <trkpt lat="45.90572" lon="4.71263">
        <ele>190.72272</ele>
        <time>2023-04-24T12:37:46.000Z</time>
      </trkpt>
      <trkpt lat="45.90575" lon="4.71257">
        <ele>190.77142</ele>
        <time>2023-04-24T12:37:47.000Z</time>
      </trkpt>
      <trkpt lat="45.90578" lon="4.71252">
        <ele>190.86545</ele>
        <time>2023-04-24T12:37:48.000Z</time>
      </trkpt>
      <trkpt lat="45.90581" lon="4.71247">
        <ele>190.94093</ele>
        <time>2023-04-24T12:37:49.000Z</time>
      </trkpt>
      <trkpt lat="45.90584" lon="4.71242">
        <ele>191.02177</ele>
        <time>2023-04-24T12:37:50.000Z</time>
      </trkpt>
      <trkpt lat="45.90587" lon="4.71239">
        <ele>191.06497</ele>
        <time>2023-04-24T12:37:51.000Z</time>
      </trkpt>
      <trkpt lat="45.90589" lon="4.71233">
        <ele>191.09909</ele>
        <time>2023-04-24T12:37:52.000Z</time>
      </trkpt>
      <trkpt lat="45.90592" lon="4.71227">
        <ele>191.10831</ele>
        <time>2023-04-24T12:37:53.000Z</time>
      </trkpt>
      <trkpt lat="45.90594" lon="4.71222">
        <ele>191.17113</ele>
        <time>2023-04-24T12:37:54.000Z</time>
      </trkpt>
      <trkpt lat="45.90597" lon="4.71216">
        <ele>191.22568</ele>
        <time>2023-04-24T12:37:55.000Z</time>
      </trkpt>
      <trkpt lat="45.906" lon="4.7121">
        <ele>191.25569</ele>
        <time>2023-04-24T12:37:56.000Z</time>
      </trkpt>
      <trkpt lat="45.90602" lon="4.71205">
        <ele>191.25656</ele>
        <time>2023-04-24T12:37:57.000Z</time>
      </trkpt>
      <trkpt lat="45.90604" lon="4.71199">
        <ele>191.30606</ele>
        <time>2023-04-24T12:37:58.000Z</time>
      </trkpt>
      <trkpt lat="45.90607" lon="4.71191">
        <ele>191.35556</ele>
        <time>2023-04-24T12:37:59.000Z</time>
      </trkpt>
      <trkpt lat="45.90609" lon="4.71184">
        <ele>191.40857</ele>
        <time>2023-04-24T12:38:00.000Z</time>
      </trkpt>
      <trkpt lat="45.90611" lon="4.71177">
        <ele>191.46864</ele>
        <time>2023-04-24T12:38:01.000Z</time>
      </trkpt>
      <trkpt lat="45.90614" lon="4.71172">
        <ele>191.54257</ele>
        <time>2023-04-24T12:38:02.000Z</time>
      </trkpt>
      <trkpt lat="45.90616" lon="4.71166">
        <ele>191.60487</ele>
        <time>2023-04-24T12:38:03.000Z</time>
      </trkpt>
      <trkpt lat="45.90619" lon="4.7116">
        <ele>191.64066</ele>
        <time>2023-04-24T12:38:04.000Z</time>
      </trkpt>
      <trkpt lat="45.90621" lon="4.71154">
        <ele>191.66748</ele>
        <time>2023-04-24T12:38:05.000Z</time>
      </trkpt>
      <trkpt lat="45.90623" lon="4.71147">
        <ele>191.72087</ele>
        <time>2023-04-24T12:38:06.000Z</time>
      </trkpt>
      <trkpt lat="45.90625" lon="4.71139">
        <ele>191.77194</ele>
        <time>2023-04-24T12:38:07.000Z</time>
      </trkpt>
      <trkpt lat="45.90628" lon="4.71134">
        <ele>191.80255</ele>
        <time>2023-04-24T12:38:08.000Z</time>
      </trkpt>
      <trkpt lat="45.90631" lon="4.71127">
        <ele>191.86765</ele>
        <time>2023-04-24T12:38:09.000Z</time>
      </trkpt>
      <trkpt lat="45.90635" lon="4.7112">
        <ele>191.89761</ele>
        <time>2023-04-24T12:38:10.000Z</time>
      </trkpt>
      <trkpt lat="45.90637" lon="4.71114">
        <ele>191.94534</ele>
        <time>2023-04-24T12:38:11.000Z</time>
      </trkpt>
      <trkpt lat="45.90639" lon="4.71109">
        <ele>191.97522</ele>
        <time>2023-04-24T12:38:12.000Z</time>
      </trkpt>
      <trkpt lat="45.90641" lon="4.71102">
        <ele>192.004</ele>
        <time>2023-04-24T12:38:13.000Z</time>
      </trkpt>
      <trkpt lat="45.90644" lon="4.71097">
        <ele>192.01881</ele>
        <time>2023-04-24T12:38:14.000Z</time>
      </trkpt>
      <trkpt lat="45.90646" lon="4.71091">
        <ele>192.04961</ele>
        <time>2023-04-24T12:38:15.000Z</time>
      </trkpt>
      <trkpt lat="45.90648" lon="4.71085">
        <ele>192.09384</ele>
        <time>2023-04-24T12:38:16.000Z</time>
      </trkpt>
      <trkpt lat="45.9065" lon="4.71078">
        <ele>192.12184</ele>
        <time>2023-04-24T12:38:17.000Z</time>
      </trkpt>
      <trkpt lat="45.90652" lon="4.71072">
        <ele>192.15823</ele>
        <time>2023-04-24T12:38:18.000Z</time>
      </trkpt>
      <trkpt lat="45.90654" lon="4.71065">
        <ele>192.21768</ele>
        <time>2023-04-24T12:38:19.000Z</time>
      </trkpt>
      <trkpt lat="45.90656" lon="4.7106">
        <ele>192.28171</ele>
        <time>2023-04-24T12:38:20.000Z</time>
      </trkpt>
      <trkpt lat="45.90658" lon="4.71053">
        <ele>192.36708</ele>
        <time>2023-04-24T12:38:21.000Z</time>
      </trkpt>
      <trkpt lat="45.90661" lon="4.71048">
        <ele>192.38489</ele>
        <time>2023-04-24T12:38:22.000Z</time>
      </trkpt>
      <trkpt lat="45.90663" lon="4.71042">
        <ele>192.40359</ele>
        <time>2023-04-24T12:38:23.000Z</time>
      </trkpt>
      <trkpt lat="45.90665" lon="4.71036">
        <ele>192.44168</ele>
        <time>2023-04-24T12:38:24.000Z</time>
      </trkpt>
      <trkpt lat="45.90667" lon="4.71029">
        <ele>192.45242</ele>
        <time>2023-04-24T12:38:25.000Z</time>
      </trkpt>
      <trkpt lat="45.90668" lon="4.71024">
        <ele>192.48445</ele>
        <time>2023-04-24T12:38:26.000Z</time>
      </trkpt>
      <trkpt lat="45.90671" lon="4.71018">
        <ele>192.48116</ele>
        <time>2023-04-24T12:38:27.000Z</time>
      </trkpt>
      <trkpt lat="45.90673" lon="4.71014">
        <ele>192.48288</ele>
        <time>2023-04-24T12:38:28.000Z</time>
      </trkpt>
      <trkpt lat="45.90676" lon="4.71007">
        <ele>192.5034</ele>
        <time>2023-04-24T12:38:29.000Z</time>
      </trkpt>
      <trkpt lat="45.90678" lon="4.71">
        <ele>192.55557</ele>
        <time>2023-04-24T12:38:30.000Z</time>
      </trkpt>
      <trkpt lat="45.90681" lon="4.70993">
        <ele>192.61758</ele>
        <time>2023-04-24T12:38:31.000Z</time>
      </trkpt>
      <trkpt lat="45.90683" lon="4.70986">
        <ele>192.70261</ele>
        <time>2023-04-24T12:38:32.000Z</time>
      </trkpt>
      <trkpt lat="45.90686" lon="4.70981">
        <ele>192.77762</ele>
        <time>2023-04-24T12:38:33.000Z</time>
      </trkpt>
      <trkpt lat="45.9069" lon="4.70975">
        <ele>192.82179</ele>
        <time>2023-04-24T12:38:34.000Z</time>
      </trkpt>
      <trkpt lat="45.90693" lon="4.7097">
        <ele>192.90384</ele>
        <time>2023-04-24T12:38:35.000Z</time>
      </trkpt>
      <trkpt lat="45.90697" lon="4.70965">
        <ele>192.98164</ele>
        <time>2023-04-24T12:38:36.000Z</time>
      </trkpt>
      <trkpt lat="45.90699" lon="4.70959">
        <ele>193.08882</ele>
        <time>2023-04-24T12:38:37.000Z</time>
      </trkpt>
      <trkpt lat="45.90702" lon="4.70955">
        <ele>193.15353</ele>
        <time>2023-04-24T12:38:38.000Z</time>
      </trkpt>
      <trkpt lat="45.90705" lon="4.70949">
        <ele>193.21742</ele>
        <time>2023-04-24T12:38:39.000Z</time>
      </trkpt>
      <trkpt lat="45.90708" lon="4.70945">
        <ele>193.31343</ele>
        <time>2023-04-24T12:38:40.000Z</time>
      </trkpt>
      <trkpt lat="45.90711" lon="4.70941">
        <ele>193.36319</ele>
        <time>2023-04-24T12:38:41.000Z</time>
      </trkpt>
      <trkpt lat="45.90714" lon="4.70936">
        <ele>193.47943</ele>
        <time>2023-04-24T12:38:42.000Z</time>
      </trkpt>
      <trkpt lat="45.90717" lon="4.70932">
        <ele>193.62207</ele>
        <time>2023-04-24T12:38:43.000Z</time>
      </trkpt>
      <trkpt lat="45.90719" lon="4.70928">
        <ele>193.75771</ele>
        <time>2023-04-24T12:38:44.000Z</time>
      </trkpt>
      <trkpt lat="45.90722" lon="4.70923">
        <ele>193.90103</ele>
        <time>2023-04-24T12:38:45.000Z</time>
      </trkpt>
      <trkpt lat="45.90725" lon="4.70919">
        <ele>194.01343</ele>
        <time>2023-04-24T12:38:46.000Z</time>
      </trkpt>
      <trkpt lat="45.90728" lon="4.70916">
        <ele>194.16252</ele>
        <time>2023-04-24T12:38:47.000Z</time>
      </trkpt>
      <trkpt lat="45.9073" lon="4.70912">
        <ele>194.32655</ele>
        <time>2023-04-24T12:38:48.000Z</time>
      </trkpt>
      <trkpt lat="45.90732" lon="4.70909">
        <ele>194.45592</ele>
        <time>2023-04-24T12:38:49.000Z</time>
      </trkpt>
      <trkpt lat="45.90735" lon="4.70905">
        <ele>194.5882</ele>
        <time>2023-04-24T12:38:50.000Z</time>
      </trkpt>
      <trkpt lat="45.90738" lon="4.70902">
        <ele>194.71703</ele>
        <time>2023-04-24T12:38:51.000Z</time>
      </trkpt>
      <trkpt lat="45.9074" lon="4.70899">
        <ele>194.83716</ele>
        <time>2023-04-24T12:38:52.000Z</time>
      </trkpt>
      <trkpt lat="45.90743" lon="4.70895">
        <ele>194.96684</ele>
        <time>2023-04-24T12:38:53.000Z</time>
      </trkpt>
      <trkpt lat="45.90745" lon="4.70892">
        <ele>195.11502</ele>
        <time>2023-04-24T12:38:54.000Z</time>
      </trkpt>
      <trkpt lat="45.90748" lon="4.70888">
        <ele>195.22794</ele>
        <time>2023-04-24T12:38:55.000Z</time>
      </trkpt>
      <trkpt lat="45.90751" lon="4.70885">
        <ele>195.35339</ele>
        <time>2023-04-24T12:38:56.000Z</time>
      </trkpt>
      <trkpt lat="45.90753" lon="4.70881">
        <ele>195.49448</ele>
        <time>2023-04-24T12:38:57.000Z</time>
      </trkpt>
      <trkpt lat="45.90756" lon="4.70878">
        <ele>195.62692</ele>
        <time>2023-04-24T12:38:58.000Z</time>
      </trkpt>
      <trkpt lat="45.90758" lon="4.70874">
        <ele>195.72708</ele>
        <time>2023-04-24T12:38:59.000Z</time>
      </trkpt>
      <trkpt lat="45.90761" lon="4.70871">
        <ele>195.76553</ele>
        <time>2023-04-24T12:39:00.000Z</time>
      </trkpt>
      <trkpt lat="45.90763" lon="4.70867">
        <ele>195.82352</ele>
        <time>2023-04-24T12:39:01.000Z</time>
      </trkpt>
      <trkpt lat="45.90765" lon="4.70864">
        <ele>195.91701</ele>
        <time>2023-04-24T12:39:02.000Z</time>
      </trkpt>
      <trkpt lat="45.90768" lon="4.7086">
        <ele>195.99034</ele>
        <time>2023-04-24T12:39:03.000Z</time>
      </trkpt>
      <trkpt lat="45.9077" lon="4.70856">
        <ele>196.06972</ele>
        <time>2023-04-24T12:39:04.000Z</time>
      </trkpt>
      <trkpt lat="45.90772" lon="4.70852">
        <ele>196.13498</ele>
        <time>2023-04-24T12:39:05.000Z</time>
      </trkpt>
      <trkpt lat="45.90773" lon="4.70847">
        <ele>196.20593</ele>
        <time>2023-04-24T12:39:06.000Z</time>
      </trkpt>
      <trkpt lat="45.90774" lon="4.70842">
        <ele>196.26875</ele>
        <time>2023-04-24T12:39:07.000Z</time>
      </trkpt>
      <trkpt lat="45.90774" lon="4.70837">
        <ele>196.31599</ele>
        <time>2023-04-24T12:39:08.000Z</time>
      </trkpt>
      <trkpt lat="45.90774" lon="4.70832">
        <ele>196.33986</ele>
        <time>2023-04-24T12:39:09.000Z</time>
      </trkpt>
      <trkpt lat="45.90774" lon="4.70827">
        <ele>196.37825</ele>
        <time>2023-04-24T12:39:10.000Z</time>
      </trkpt>
      <trkpt lat="45.90773" lon="4.70822">
        <ele>196.42915</ele>
        <time>2023-04-24T12:39:11.000Z</time>
      </trkpt>
      <trkpt lat="45.90773" lon="4.70818">
        <ele>196.46478</ele>
        <time>2023-04-24T12:39:12.000Z</time>
      </trkpt>
      <trkpt lat="45.90772" lon="4.70813">
        <ele>196.49701</ele>
        <time>2023-04-24T12:39:13.000Z</time>
      </trkpt>
      <trkpt lat="45.90771" lon="4.70809">
        <ele>196.52419</ele>
        <time>2023-04-24T12:39:14.000Z</time>
      </trkpt>
      <trkpt lat="45.90771" lon="4.70804">
        <ele>196.5665</ele>
        <time>2023-04-24T12:39:15.000Z</time>
      </trkpt>
      <trkpt lat="45.9077" lon="4.70799">
        <ele>196.59671</ele>
        <time>2023-04-24T12:39:16.000Z</time>
      </trkpt>
      <trkpt lat="45.90769" lon="4.70795">
        <ele>196.62498</ele>
        <time>2023-04-24T12:39:17.000Z</time>
      </trkpt>
      <trkpt lat="45.90769" lon="4.7079">
        <ele>196.68077</ele>
        <time>2023-04-24T12:39:18.000Z</time>
      </trkpt>
      <trkpt lat="45.90768" lon="4.70785">
        <ele>196.78899</ele>
        <time>2023-04-24T12:39:19.000Z</time>
      </trkpt>
      <trkpt lat="45.90766" lon="4.70781">
        <ele>196.9101</ele>
        <time>2023-04-24T12:39:20.000Z</time>
      </trkpt>
      <trkpt lat="45.90765" lon="4.70776">
        <ele>197.02164</ele>
        <time>2023-04-24T12:39:21.000Z</time>
      </trkpt>
      <trkpt lat="45.90765" lon="4.70771">
        <ele>197.10333</ele>
        <time>2023-04-24T12:39:22.000Z</time>
      </trkpt>
      <trkpt lat="45.90764" lon="4.70766">
        <ele>197.18605</ele>
        <time>2023-04-24T12:39:23.000Z</time>
      </trkpt>
      <trkpt lat="45.90763" lon="4.70762">
        <ele>197.23941</ele>
        <time>2023-04-24T12:39:24.000Z</time>
      </trkpt>
      <trkpt lat="45.90762" lon="4.70757">
        <ele>197.2731</ele>
        <time>2023-04-24T12:39:25.000Z</time>
      </trkpt>
      <trkpt lat="45.90762" lon="4.70752">
        <ele>197.29921</ele>
        <time>2023-04-24T12:39:26.000Z</time>
      </trkpt>
      <trkpt lat="45.90761" lon="4.70748">
        <ele>197.32828</ele>
        <time>2023-04-24T12:39:27.000Z</time>
      </trkpt>
      <trkpt lat="45.9076" lon="4.70744">
        <ele>197.35484</ele>
        <time>2023-04-24T12:39:28.000Z</time>
      </trkpt>
      <trkpt lat="45.90759" lon="4.7074">
        <ele>197.39487</ele>
        <time>2023-04-24T12:39:29.000Z</time>
      </trkpt>
      <trkpt lat="45.90758" lon="4.70737">
        <ele>197.42267</ele>
        <time>2023-04-24T12:39:30.000Z</time>
      </trkpt>
      <trkpt lat="45.90758" lon="4.70735">
        <ele>197.4408</ele>
        <time>2023-04-24T12:43:28.000Z</time>
      </trkpt>
      <trkpt lat="45.90759" lon="4.70731">
        <ele>197.4595</ele>
        <time>2023-04-24T12:43:30.000Z</time>
      </trkpt>
      <trkpt lat="45.90759" lon="4.70728">
        <ele>197.48691</ele>
        <time>2023-04-24T12:43:32.000Z</time>
      </trkpt>
      <trkpt lat="45.9076" lon="4.70723">
        <ele>197.4651</ele>
        <time>2023-04-24T12:43:34.000Z</time>
      </trkpt>
      <trkpt lat="45.90761" lon="4.70721">
        <ele>197.43909</ele>
        <time>2023-04-24T12:43:35.000Z</time>
      </trkpt>
      <trkpt lat="45.90761" lon="4.70718">
        <ele>197.41922</ele>
        <time>2023-04-24T12:43:36.000Z</time>
      </trkpt>
      <trkpt lat="45.90761" lon="4.70716">
        <ele>197.44998</ele>
        <time>2023-04-24T12:43:37.000Z</time>
      </trkpt>
      <trkpt lat="45.90759" lon="4.70712">
        <ele>197.47713</ele>
        <time>2023-04-24T12:43:39.000Z</time>
      </trkpt>
      <trkpt lat="45.90758" lon="4.70709">
        <ele>197.51651</ele>
        <time>2023-04-24T12:43:41.000Z</time>
      </trkpt>
      <trkpt lat="45.90757" lon="4.70704">
        <ele>197.54599</ele>
        <time>2023-04-24T12:43:43.000Z</time>
      </trkpt>
      <trkpt lat="45.90756" lon="4.70701">
        <ele>197.60684</ele>
        <time>2023-04-24T12:43:44.000Z</time>
      </trkpt>
      <trkpt lat="45.90755" lon="4.70698">
        <ele>197.65692</ele>
        <time>2023-04-24T12:43:45.000Z</time>
      </trkpt>
      <trkpt lat="45.90755" lon="4.70695">
        <ele>197.6875</ele>
        <time>2023-04-24T12:43:46.000Z</time>
      </trkpt>
      <trkpt lat="45.90755" lon="4.70691">
        <ele>197.75845</ele>
        <time>2023-04-24T12:43:47.000Z</time>
      </trkpt>
      <trkpt lat="45.90755" lon="4.70688">
        <ele>197.84602</ele>
        <time>2023-04-24T12:43:48.000Z</time>
      </trkpt>
      <trkpt lat="45.90755" lon="4.70684">
        <ele>197.93704</ele>
        <time>2023-04-24T12:43:49.000Z</time>
      </trkpt>
      <trkpt lat="45.90755" lon="4.70681">
        <ele>198.02335</ele>
        <time>2023-04-24T12:43:50.000Z</time>
      </trkpt>
      <trkpt lat="45.90754" lon="4.70677">
        <ele>198.07329</ele>
        <time>2023-04-24T12:43:51.000Z</time>
      </trkpt>
      <trkpt lat="45.90754" lon="4.70673">
        <ele>198.08516</ele>
        <time>2023-04-24T12:43:52.000Z</time>
      </trkpt>
      <trkpt lat="45.90754" lon="4.70669">
        <ele>198.18112</ele>
        <time>2023-04-24T12:43:53.000Z</time>
      </trkpt>
      <trkpt lat="45.90754" lon="4.70666">
        <ele>198.24188</ele>
        <time>2023-04-24T12:43:54.000Z</time>
      </trkpt>
      <trkpt lat="45.90754" lon="4.70662">
        <ele>198.32588</ele>
        <time>2023-04-24T12:43:55.000Z</time>
      </trkpt>
      <trkpt lat="45.90753" lon="4.70658">
        <ele>198.42131</ele>
        <time>2023-04-24T12:43:56.000Z</time>
      </trkpt>
      <trkpt lat="45.90753" lon="4.70654">
        <ele>198.53024</ele>
        <time>2023-04-24T12:43:57.000Z</time>
      </trkpt>
      <trkpt lat="45.90752" lon="4.7065">
        <ele>198.61382</ele>
        <time>2023-04-24T12:43:58.000Z</time>
      </trkpt>
      <trkpt lat="45.90751" lon="4.70645">
        <ele>198.78323</ele>
        <time>2023-04-24T12:43:59.000Z</time>
      </trkpt>
      <trkpt lat="45.9075" lon="4.70641">
        <ele>198.87047</ele>
        <time>2023-04-24T12:44:00.000Z</time>
      </trkpt>
      <trkpt lat="45.90749" lon="4.70636">
        <ele>198.96005</ele>
        <time>2023-04-24T12:44:01.000Z</time>
      </trkpt>
      <trkpt lat="45.90748" lon="4.70631">
        <ele>198.99472</ele>
        <time>2023-04-24T12:44:02.000Z</time>
      </trkpt>
      <trkpt lat="45.90747" lon="4.70627">
        <ele>199.02588</ele>
        <time>2023-04-24T12:44:03.000Z</time>
      </trkpt>
      <trkpt lat="45.90746" lon="4.70622">
        <ele>199.02966</ele>
        <time>2023-04-24T12:44:04.000Z</time>
      </trkpt>
      <trkpt lat="45.90745" lon="4.70617">
        <ele>199.02921</ele>
        <time>2023-04-24T12:44:05.000Z</time>
      </trkpt>
      <trkpt lat="45.90744" lon="4.70612">
        <ele>199.04556</ele>
        <time>2023-04-24T12:44:06.000Z</time>
      </trkpt>
      <trkpt lat="45.90743" lon="4.70607">
        <ele>199.04214</ele>
        <time>2023-04-24T12:44:07.000Z</time>
      </trkpt>
      <trkpt lat="45.90742" lon="4.70601">
        <ele>199.02962</ele>
        <time>2023-04-24T12:44:08.000Z</time>
      </trkpt>
      <trkpt lat="45.90741" lon="4.70596">
        <ele>199.02003</ele>
        <time>2023-04-24T12:44:09.000Z</time>
      </trkpt>
      <trkpt lat="45.90739" lon="4.70591">
        <ele>199.02304</ele>
        <time>2023-04-24T12:44:10.000Z</time>
      </trkpt>
      <trkpt lat="45.90739" lon="4.70586">
        <ele>199.05605</ele>
        <time>2023-04-24T12:44:11.000Z</time>
      </trkpt>
      <trkpt lat="45.90738" lon="4.7058">
        <ele>199.13506</ele>
        <time>2023-04-24T12:44:12.000Z</time>
      </trkpt>
      <trkpt lat="45.90738" lon="4.70575">
        <ele>199.14716</ele>
        <time>2023-04-24T12:44:13.000Z</time>
      </trkpt>
      <trkpt lat="45.90738" lon="4.7057">
        <ele>199.19893</ele>
        <time>2023-04-24T12:44:14.000Z</time>
      </trkpt>
      <trkpt lat="45.90737" lon="4.70564">
        <ele>199.17436</ele>
        <time>2023-04-24T12:44:15.000Z</time>
      </trkpt>
      <trkpt lat="45.90736" lon="4.70559">
        <ele>199.16019</ele>
        <time>2023-04-24T12:44:16.000Z</time>
      </trkpt>
      <trkpt lat="45.90735" lon="4.70554">
        <ele>199.16579</ele>
        <time>2023-04-24T12:44:17.000Z</time>
      </trkpt>
      <trkpt lat="45.90734" lon="4.70548">
        <ele>199.29367</ele>
        <time>2023-04-24T12:44:18.000Z</time>
      </trkpt>
      <trkpt lat="45.90733" lon="4.70543">
        <ele>199.34061</ele>
        <time>2023-04-24T12:44:19.000Z</time>
      </trkpt>
      <trkpt lat="45.90732" lon="4.70538">
        <ele>199.40575</ele>
        <time>2023-04-24T12:44:20.000Z</time>
      </trkpt>
      <trkpt lat="45.90732" lon="4.70533">
        <ele>199.49153</ele>
        <time>2023-04-24T12:44:21.000Z</time>
      </trkpt>
      <trkpt lat="45.90731" lon="4.70528">
        <ele>199.60785</ele>
        <time>2023-04-24T12:44:22.000Z</time>
      </trkpt>
      <trkpt lat="45.9073" lon="4.70523">
        <ele>199.70665</ele>
        <time>2023-04-24T12:44:23.000Z</time>
      </trkpt>
      <trkpt lat="45.90729" lon="4.70518">
        <ele>199.82172</ele>
        <time>2023-04-24T12:44:24.000Z</time>
      </trkpt>
      <trkpt lat="45.90729" lon="4.70512">
        <ele>199.9342</ele>
        <time>2023-04-24T12:44:25.000Z</time>
      </trkpt>
      <trkpt lat="45.90728" lon="4.70507">
        <ele>200.04045</ele>
        <time>2023-04-24T12:44:26.000Z</time>
      </trkpt>
      <trkpt lat="45.90728" lon="4.70502">
        <ele>200.13705</ele>
        <time>2023-04-24T12:44:27.000Z</time>
      </trkpt>
      <trkpt lat="45.90727" lon="4.70497">
        <ele>200.25079</ele>
        <time>2023-04-24T12:44:28.000Z</time>
      </trkpt>
      <trkpt lat="45.90727" lon="4.70492">
        <ele>200.31161</ele>
        <time>2023-04-24T12:44:29.000Z</time>
      </trkpt>
      <trkpt lat="45.90726" lon="4.70486">
        <ele>200.33914</ele>
        <time>2023-04-24T12:44:30.000Z</time>
      </trkpt>
      <trkpt lat="45.90726" lon="4.70481">
        <ele>200.36156</ele>
        <time>2023-04-24T12:44:31.000Z</time>
      </trkpt>
      <trkpt lat="45.90726" lon="4.70475">
        <ele>200.3855</ele>
        <time>2023-04-24T12:44:32.000Z</time>
      </trkpt>
      <trkpt lat="45.90725" lon="4.7047">
        <ele>200.40831</ele>
        <time>2023-04-24T12:44:33.000Z</time>
      </trkpt>
      <trkpt lat="45.90724" lon="4.70464">
        <ele>200.41214</ele>
        <time>2023-04-24T12:44:34.000Z</time>
      </trkpt>
      <trkpt lat="45.90724" lon="4.70459">
        <ele>200.59152</ele>
        <time>2023-04-24T12:44:35.000Z</time>
      </trkpt>
      <trkpt lat="45.90724" lon="4.70454">
        <ele>200.7178</ele>
        <time>2023-04-24T12:44:36.000Z</time>
      </trkpt>
      <trkpt lat="45.90723" lon="4.70448">
        <ele>200.84749</ele>
        <time>2023-04-24T12:44:37.000Z</time>
      </trkpt>
      <trkpt lat="45.90723" lon="4.70443">
        <ele>200.88669</ele>
        <time>2023-04-24T12:44:38.000Z</time>
      </trkpt>
      <trkpt lat="45.90723" lon="4.70438">
        <ele>200.93323</ele>
        <time>2023-04-24T12:44:39.000Z</time>
      </trkpt>
      <trkpt lat="45.90722" lon="4.70432">
        <ele>200.9922</ele>
        <time>2023-04-24T12:44:40.000Z</time>
      </trkpt>
      <trkpt lat="45.90722" lon="4.70427">
        <ele>201.03389</ele>
        <time>2023-04-24T12:44:41.000Z</time>
      </trkpt>
      <trkpt lat="45.90721" lon="4.70421">
        <ele>201.07204</ele>
        <time>2023-04-24T12:44:42.000Z</time>
      </trkpt>
      <trkpt lat="45.90721" lon="4.70416">
        <ele>201.09097</ele>
        <time>2023-04-24T12:44:43.000Z</time>
      </trkpt>
      <trkpt lat="45.90721" lon="4.70411">
        <ele>201.11214</ele>
        <time>2023-04-24T12:44:44.000Z</time>
      </trkpt>
      <trkpt lat="45.90721" lon="4.70405">
        <ele>201.13982</ele>
        <time>2023-04-24T12:44:45.000Z</time>
      </trkpt>
      <trkpt lat="45.90721" lon="4.704">
        <ele>201.19292</ele>
        <time>2023-04-24T12:44:46.000Z</time>
      </trkpt>
      <trkpt lat="45.9072" lon="4.70395">
        <ele>201.25471</ele>
        <time>2023-04-24T12:44:47.000Z</time>
      </trkpt>
      <trkpt lat="45.9072" lon="4.70389">
        <ele>201.32401</ele>
        <time>2023-04-24T12:44:48.000Z</time>
      </trkpt>
      <trkpt lat="45.9072" lon="4.70384">
        <ele>201.4592</ele>
        <time>2023-04-24T12:44:49.000Z</time>
      </trkpt>
      <trkpt lat="45.9072" lon="4.70379">
        <ele>201.63919</ele>
        <time>2023-04-24T12:44:50.000Z</time>
      </trkpt>
      <trkpt lat="45.9072" lon="4.70374">
        <ele>201.83267</ele>
        <time>2023-04-24T12:44:51.000Z</time>
      </trkpt>
      <trkpt lat="45.9072" lon="4.70369">
        <ele>202.05032</ele>
        <time>2023-04-24T12:44:52.000Z</time>
      </trkpt>
      <trkpt lat="45.9072" lon="4.70364">
        <ele>202.26102</ele>
        <time>2023-04-24T12:44:53.000Z</time>
      </trkpt>
      <trkpt lat="45.9072" lon="4.70358">
        <ele>202.49072</ele>
        <time>2023-04-24T12:44:54.000Z</time>
      </trkpt>
      <trkpt lat="45.9072" lon="4.70353">
        <ele>202.60367</ele>
        <time>2023-04-24T12:44:55.000Z</time>
      </trkpt>
      <trkpt lat="45.9072" lon="4.70348">
        <ele>202.75214</ele>
        <time>2023-04-24T12:44:56.000Z</time>
      </trkpt>
      <trkpt lat="45.90721" lon="4.70343">
        <ele>202.93362</ele>
        <time>2023-04-24T12:44:57.000Z</time>
      </trkpt>
      <trkpt lat="45.90721" lon="4.70338">
        <ele>203.11082</ele>
        <time>2023-04-24T12:44:58.000Z</time>
      </trkpt>
      <trkpt lat="45.90721" lon="4.70333">
        <ele>203.28873</ele>
        <time>2023-04-24T12:44:59.000Z</time>
      </trkpt>
      <trkpt lat="45.9072" lon="4.70328">
        <ele>203.33571</ele>
        <time>2023-04-24T12:45:00.000Z</time>
      </trkpt>
      <trkpt lat="45.90721" lon="4.70323">
        <ele>203.28519</ele>
        <time>2023-04-24T12:45:01.000Z</time>
      </trkpt>
      <trkpt lat="45.90721" lon="4.70318">
        <ele>203.24263</ele>
        <time>2023-04-24T12:45:02.000Z</time>
      </trkpt>
      <trkpt lat="45.90721" lon="4.70313">
        <ele>203.23428</ele>
        <time>2023-04-24T12:45:03.000Z</time>
      </trkpt>
      <trkpt lat="45.9072" lon="4.70309">
        <ele>203.23422</ele>
        <time>2023-04-24T12:45:04.000Z</time>
      </trkpt>
      <trkpt lat="45.9072" lon="4.70304">
        <ele>203.26318</ele>
        <time>2023-04-24T12:45:05.000Z</time>
      </trkpt>
      <trkpt lat="45.90719" lon="4.703">
        <ele>203.27713</ele>
        <time>2023-04-24T12:45:06.000Z</time>
      </trkpt>
      <trkpt lat="45.90718" lon="4.70296">
        <ele>203.28568</ele>
        <time>2023-04-24T12:45:07.000Z</time>
      </trkpt>
      <trkpt lat="45.90717" lon="4.70292">
        <ele>203.28868</ele>
        <time>2023-04-24T12:45:08.000Z</time>
      </trkpt>
      <trkpt lat="45.90715" lon="4.70288">
        <ele>203.37834</ele>
        <time>2023-04-24T12:45:09.000Z</time>
      </trkpt>
      <trkpt lat="45.90713" lon="4.70284">
        <ele>203.44656</ele>
        <time>2023-04-24T12:45:10.000Z</time>
      </trkpt>
      <trkpt lat="45.90711" lon="4.70281">
        <ele>203.51242</ele>
        <time>2023-04-24T12:45:11.000Z</time>
      </trkpt>
      <trkpt lat="45.90708" lon="4.70278">
        <ele>203.7473</ele>
        <time>2023-04-24T12:45:12.000Z</time>
      </trkpt>
      <trkpt lat="45.90705" lon="4.70274">
        <ele>203.95905</ele>
        <time>2023-04-24T12:45:13.000Z</time>
      </trkpt>
      <trkpt lat="45.90703" lon="4.7027">
        <ele>204.1494</ele>
        <time>2023-04-24T12:45:14.000Z</time>
      </trkpt>
      <trkpt lat="45.90702" lon="4.70266">
        <ele>204.32054</ele>
        <time>2023-04-24T12:45:15.000Z</time>
      </trkpt>
      <trkpt lat="45.90701" lon="4.70261">
        <ele>204.50722</ele>
        <time>2023-04-24T12:45:16.000Z</time>
      </trkpt>
      <trkpt lat="45.907" lon="4.70256">
        <ele>204.66144</ele>
        <time>2023-04-24T12:45:17.000Z</time>
      </trkpt>
      <trkpt lat="45.907" lon="4.70251">
        <ele>204.81131</ele>
        <time>2023-04-24T12:45:18.000Z</time>
      </trkpt>
      <trkpt lat="45.907" lon="4.70246">
        <ele>204.95345</ele>
        <time>2023-04-24T12:45:19.000Z</time>
      </trkpt>
      <trkpt lat="45.907" lon="4.70241">
        <ele>205.22778</ele>
        <time>2023-04-24T12:45:20.000Z</time>
      </trkpt>
      <trkpt lat="45.90701" lon="4.70236">
        <ele>205.60164</ele>
        <time>2023-04-24T12:45:21.000Z</time>
      </trkpt>
      <trkpt lat="45.90701" lon="4.70231">
        <ele>205.47897</ele>
        <time>2023-04-24T12:45:22.000Z</time>
      </trkpt>
      <trkpt lat="45.90701" lon="4.70226">
        <ele>205.67758</ele>
        <time>2023-04-24T12:45:23.000Z</time>
      </trkpt>
      <trkpt lat="45.90702" lon="4.70221">
        <ele>205.85031</ele>
        <time>2023-04-24T12:45:24.000Z</time>
      </trkpt>
      <trkpt lat="45.90702" lon="4.70216">
        <ele>206.0614</ele>
        <time>2023-04-24T12:45:25.000Z</time>
      </trkpt>
      <trkpt lat="45.90703" lon="4.70211">
        <ele>206.25137</ele>
        <time>2023-04-24T12:45:26.000Z</time>
      </trkpt>
      <trkpt lat="45.90703" lon="4.70206">
        <ele>206.68088</ele>
        <time>2023-04-24T12:45:27.000Z</time>
      </trkpt>
      <trkpt lat="45.90703" lon="4.70201">
        <ele>207.05693</ele>
        <time>2023-04-24T12:45:28.000Z</time>
      </trkpt>
      <trkpt lat="45.90703" lon="4.70196">
        <ele>207.32108</ele>
        <time>2023-04-24T12:45:29.000Z</time>
      </trkpt>
      <trkpt lat="45.90703" lon="4.70191">
        <ele>207.61206</ele>
        <time>2023-04-24T12:45:30.000Z</time>
      </trkpt>
      <trkpt lat="45.90703" lon="4.70187">
        <ele>207.91016</ele>
        <time>2023-04-24T12:45:31.000Z</time>
      </trkpt>
      <trkpt lat="45.90703" lon="4.70182">
        <ele>208.02278</ele>
        <time>2023-04-24T12:45:32.000Z</time>
      </trkpt>
      <trkpt lat="45.90704" lon="4.70177">
        <ele>208.18033</ele>
        <time>2023-04-24T12:45:33.000Z</time>
      </trkpt>
      <trkpt lat="45.90704" lon="4.70172">
        <ele>208.20427</ele>
        <time>2023-04-24T12:45:34.000Z</time>
      </trkpt>
      <trkpt lat="45.90703" lon="4.70167">
        <ele>208.49065</ele>
        <time>2023-04-24T12:45:35.000Z</time>
      </trkpt>
      <trkpt lat="45.90703" lon="4.70162">
        <ele>208.68684</ele>
        <time>2023-04-24T12:45:36.000Z</time>
      </trkpt>
      <trkpt lat="45.90704" lon="4.70156">
        <ele>208.91626</ele>
        <time>2023-04-24T12:45:37.000Z</time>
      </trkpt>
      <trkpt lat="45.90705" lon="4.70151">
        <ele>209.15105</ele>
        <time>2023-04-24T12:45:38.000Z</time>
      </trkpt>
      <trkpt lat="45.90707" lon="4.70146">
        <ele>209.39771</ele>
        <time>2023-04-24T12:45:39.000Z</time>
      </trkpt>
      <trkpt lat="45.90709" lon="4.70141">
        <ele>209.62398</ele>
        <time>2023-04-24T12:45:40.000Z</time>
      </trkpt>
      <trkpt lat="45.90711" lon="4.70136">
        <ele>209.86572</ele>
        <time>2023-04-24T12:45:41.000Z</time>
      </trkpt>
      <trkpt lat="45.90712" lon="4.70131">
        <ele>210.58211</ele>
        <time>2023-04-24T12:45:42.000Z</time>
      </trkpt>
      <trkpt lat="45.90712" lon="4.70126">
        <ele>210.77774</ele>
        <time>2023-04-24T12:45:43.000Z</time>
      </trkpt>
      <trkpt lat="45.90712" lon="4.7012">
        <ele>211.19974</ele>
        <time>2023-04-24T12:45:44.000Z</time>
      </trkpt>
      <trkpt lat="45.90711" lon="4.70115">
        <ele>211.56941</ele>
        <time>2023-04-24T12:45:45.000Z</time>
      </trkpt>
      <trkpt lat="45.90709" lon="4.7011">
        <ele>211.91301</ele>
        <time>2023-04-24T12:45:46.000Z</time>
      </trkpt>
      <trkpt lat="45.90708" lon="4.70105">
        <ele>212.02783</ele>
        <time>2023-04-24T12:45:47.000Z</time>
      </trkpt>
      <trkpt lat="45.90707" lon="4.70099">
        <ele>212.20801</ele>
        <time>2023-04-24T12:45:48.000Z</time>
      </trkpt>
      <trkpt lat="45.90707" lon="4.70094">
        <ele>212.37747</ele>
        <time>2023-04-24T12:45:49.000Z</time>
      </trkpt>
      <trkpt lat="45.90707" lon="4.70089">
        <ele>212.52759</ele>
        <time>2023-04-24T12:45:50.000Z</time>
      </trkpt>
      <trkpt lat="45.90707" lon="4.70083">
        <ele>212.67883</ele>
        <time>2023-04-24T12:45:51.000Z</time>
      </trkpt>
      <trkpt lat="45.90707" lon="4.70078">
        <ele>212.85043</ele>
        <time>2023-04-24T12:45:52.000Z</time>
      </trkpt>
      <trkpt lat="45.90707" lon="4.70073">
        <ele>213.01181</ele>
        <time>2023-04-24T12:45:53.000Z</time>
      </trkpt>
      <trkpt lat="45.90707" lon="4.70068">
        <ele>213.15572</ele>
        <time>2023-04-24T12:45:54.000Z</time>
      </trkpt>
      <trkpt lat="45.90706" lon="4.70062">
        <ele>213.03906</ele>
        <time>2023-04-24T12:45:55.000Z</time>
      </trkpt>
      <trkpt lat="45.90706" lon="4.70057">
        <ele>213.00378</ele>
        <time>2023-04-24T12:45:56.000Z</time>
      </trkpt>
      <trkpt lat="45.90706" lon="4.70051">
        <ele>213.26038</ele>
        <time>2023-04-24T12:45:57.000Z</time>
      </trkpt>
      <trkpt lat="45.90706" lon="4.70046">
        <ele>213.48557</ele>
        <time>2023-04-24T12:45:58.000Z</time>
      </trkpt>
      <trkpt lat="45.90706" lon="4.70041">
        <ele>213.69987</ele>
        <time>2023-04-24T12:45:59.000Z</time>
      </trkpt>
      <trkpt lat="45.90705" lon="4.70035">
        <ele>213.93449</ele>
        <time>2023-04-24T12:46:00.000Z</time>
      </trkpt>
      <trkpt lat="45.90705" lon="4.7003">
        <ele>214.14043</ele>
        <time>2023-04-24T12:46:01.000Z</time>
      </trkpt>
      <trkpt lat="45.90705" lon="4.70025">
        <ele>214.32808</ele>
        <time>2023-04-24T12:46:02.000Z</time>
      </trkpt>
      <trkpt lat="45.90705" lon="4.7002">
        <ele>214.74471</ele>
        <time>2023-04-24T12:46:03.000Z</time>
      </trkpt>
      <trkpt lat="45.90704" lon="4.70015">
        <ele>214.96529</ele>
        <time>2023-04-24T12:46:04.000Z</time>
      </trkpt>
      <trkpt lat="45.90703" lon="4.7001">
        <ele>215.16875</ele>
        <time>2023-04-24T12:46:05.000Z</time>
      </trkpt>
      <trkpt lat="45.90703" lon="4.70005">
        <ele>215.2092</ele>
        <time>2023-04-24T12:46:06.000Z</time>
      </trkpt>
      <trkpt lat="45.90702" lon="4.7">
        <ele>215.19624</ele>
        <time>2023-04-24T12:46:07.000Z</time>
      </trkpt>
      <trkpt lat="45.90702" lon="4.69994">
        <ele>215.18681</ele>
        <time>2023-04-24T12:46:08.000Z</time>
      </trkpt>
      <trkpt lat="45.90702" lon="4.69989">
        <ele>215.17436</ele>
        <time>2023-04-24T12:46:09.000Z</time>
      </trkpt>
      <trkpt lat="45.90701" lon="4.69984">
        <ele>215.48376</ele>
        <time>2023-04-24T12:46:10.000Z</time>
      </trkpt>
      <trkpt lat="45.907" lon="4.69979">
        <ele>215.71606</ele>
        <time>2023-04-24T12:46:11.000Z</time>
      </trkpt>
      <trkpt lat="45.90699" lon="4.69974">
        <ele>215.91731</ele>
        <time>2023-04-24T12:46:12.000Z</time>
      </trkpt>
      <trkpt lat="45.90699" lon="4.69969">
        <ele>216.13199</ele>
        <time>2023-04-24T12:46:13.000Z</time>
      </trkpt>
      <trkpt lat="45.90699" lon="4.69963">
        <ele>216.50241</ele>
        <time>2023-04-24T12:46:14.000Z</time>
      </trkpt>
      <trkpt lat="45.90699" lon="4.69958">
        <ele>216.91389</ele>
        <time>2023-04-24T12:46:15.000Z</time>
      </trkpt>
      <trkpt lat="45.90699" lon="4.69952">
        <ele>217.3251</ele>
        <time>2023-04-24T12:46:16.000Z</time>
      </trkpt>
      <trkpt lat="45.90698" lon="4.69947">
        <ele>217.4312</ele>
        <time>2023-04-24T12:46:17.000Z</time>
      </trkpt>
      <trkpt lat="45.90698" lon="4.69941">
        <ele>217.57463</ele>
        <time>2023-04-24T12:46:18.000Z</time>
      </trkpt>
      <trkpt lat="45.90698" lon="4.69936">
        <ele>217.71768</ele>
        <time>2023-04-24T12:46:19.000Z</time>
      </trkpt>
      <trkpt lat="45.90698" lon="4.6993">
        <ele>217.70474</ele>
        <time>2023-04-24T12:46:20.000Z</time>
      </trkpt>
      <trkpt lat="45.90698" lon="4.69925">
        <ele>217.61714</ele>
        <time>2023-04-24T12:46:21.000Z</time>
      </trkpt>
      <trkpt lat="45.90699" lon="4.6992">
        <ele>217.52881</ele>
        <time>2023-04-24T12:46:22.000Z</time>
      </trkpt>
      <trkpt lat="45.907" lon="4.69915">
        <ele>217.77986</ele>
        <time>2023-04-24T12:46:23.000Z</time>
      </trkpt>
      <trkpt lat="45.90701" lon="4.6991">
        <ele>217.64493</ele>
        <time>2023-04-24T12:46:24.000Z</time>
      </trkpt>
      <trkpt lat="45.90702" lon="4.69906">
        <ele>217.73381</ele>
        <time>2023-04-24T12:46:25.000Z</time>
      </trkpt>
      <trkpt lat="45.90702" lon="4.69901">
        <ele>218.00632</ele>
        <time>2023-04-24T12:46:26.000Z</time>
      </trkpt>
      <trkpt lat="45.90702" lon="4.69895">
        <ele>218.31531</ele>
        <time>2023-04-24T12:46:27.000Z</time>
      </trkpt>
      <trkpt lat="45.90701" lon="4.6989">
        <ele>218.58865</ele>
        <time>2023-04-24T12:46:28.000Z</time>
      </trkpt>
      <trkpt lat="45.907" lon="4.69885">
        <ele>219.02359</ele>
        <time>2023-04-24T12:46:29.000Z</time>
      </trkpt>
      <trkpt lat="45.90699" lon="4.69879">
        <ele>219.17155</ele>
        <time>2023-04-24T12:46:30.000Z</time>
      </trkpt>
      <trkpt lat="45.90698" lon="4.69874">
        <ele>219.24667</ele>
        <time>2023-04-24T12:46:31.000Z</time>
      </trkpt>
      <trkpt lat="45.90698" lon="4.69868">
        <ele>219.23987</ele>
        <time>2023-04-24T12:46:32.000Z</time>
      </trkpt>
      <trkpt lat="45.90697" lon="4.69863">
        <ele>219.20723</ele>
        <time>2023-04-24T12:46:33.000Z</time>
      </trkpt>
      <trkpt lat="45.90696" lon="4.69857">
        <ele>219.09952</ele>
        <time>2023-04-24T12:46:34.000Z</time>
      </trkpt>
      <trkpt lat="45.90696" lon="4.69852">
        <ele>219.39571</ele>
        <time>2023-04-24T12:46:35.000Z</time>
      </trkpt>
      <trkpt lat="45.90696" lon="4.69847">
        <ele>219.63504</ele>
        <time>2023-04-24T12:46:36.000Z</time>
      </trkpt>
      <trkpt lat="45.90695" lon="4.69841">
        <ele>219.87854</ele>
        <time>2023-04-24T12:46:37.000Z</time>
      </trkpt>
      <trkpt lat="45.90695" lon="4.69836">
        <ele>220.10681</ele>
        <time>2023-04-24T12:46:38.000Z</time>
      </trkpt>
      <trkpt lat="45.90694" lon="4.69831">
        <ele>220.37183</ele>
        <time>2023-04-24T12:46:39.000Z</time>
      </trkpt>
      <trkpt lat="45.90691" lon="4.69827">
        <ele>220.40012</ele>
        <time>2023-04-24T12:46:40.000Z</time>
      </trkpt>
      <trkpt lat="45.90688" lon="4.69825">
        <ele>220.44231</ele>
        <time>2023-04-24T12:46:41.000Z</time>
      </trkpt>
      <trkpt lat="45.90684" lon="4.69824">
        <ele>220.50757</ele>
        <time>2023-04-24T12:46:42.000Z</time>
      </trkpt>
      <trkpt lat="45.9068" lon="4.69825">
        <ele>220.10434</ele>
        <time>2023-04-24T12:46:43.000Z</time>
      </trkpt>
      <trkpt lat="45.90677" lon="4.69826">
        <ele>220.03568</ele>
        <time>2023-04-24T12:46:44.000Z</time>
      </trkpt>
      <trkpt lat="45.90673" lon="4.69827">
        <ele>220.30472</ele>
        <time>2023-04-24T12:46:45.000Z</time>
      </trkpt>
      <trkpt lat="45.90669" lon="4.69827">
        <ele>220.46237</ele>
        <time>2023-04-24T12:46:46.000Z</time>
      </trkpt>
      <trkpt lat="45.90666" lon="4.69827">
        <ele>220.6425</ele>
        <time>2023-04-24T12:46:47.000Z</time>
      </trkpt>
      <trkpt lat="45.90662" lon="4.69826">
        <ele>220.85147</ele>
        <time>2023-04-24T12:46:48.000Z</time>
      </trkpt>
      <trkpt lat="45.90659" lon="4.69824">
        <ele>220.9351</ele>
        <time>2023-04-24T12:46:49.000Z</time>
      </trkpt>
      <trkpt lat="45.90657" lon="4.69822">
        <ele>220.97787</ele>
        <time>2023-04-24T12:46:50.000Z</time>
      </trkpt>
      <trkpt lat="45.90654" lon="4.6982">
        <ele>221.15508</ele>
        <time>2023-04-24T12:46:51.000Z</time>
      </trkpt>
      <trkpt lat="45.90652" lon="4.69817">
        <ele>221.42354</ele>
        <time>2023-04-24T12:46:52.000Z</time>
      </trkpt>
      <trkpt lat="45.90649" lon="4.69814">
        <ele>221.71318</ele>
        <time>2023-04-24T12:46:53.000Z</time>
      </trkpt>
      <trkpt lat="45.90646" lon="4.69812">
        <ele>222.09531</ele>
        <time>2023-04-24T12:46:54.000Z</time>
      </trkpt>
      <trkpt lat="45.90643" lon="4.69811">
        <ele>222.04753</ele>
        <time>2023-04-24T12:46:55.000Z</time>
      </trkpt>
      <trkpt lat="45.9064" lon="4.69811">
        <ele>222.66467</ele>
        <time>2023-04-24T12:46:56.000Z</time>
      </trkpt>
      <trkpt lat="45.90637" lon="4.69812">
        <ele>222.56079</ele>
        <time>2023-04-24T12:46:57.000Z</time>
      </trkpt>
      <trkpt lat="45.90634" lon="4.69813">
        <ele>222.56555</ele>
        <time>2023-04-24T12:46:58.000Z</time>
      </trkpt>
      <trkpt lat="45.90631" lon="4.69815">
        <ele>222.53528</ele>
        <time>2023-04-24T12:46:59.000Z</time>
      </trkpt>
      <trkpt lat="45.90629" lon="4.69816">
        <ele>222.8927</ele>
        <time>2023-04-24T12:47:00.000Z</time>
      </trkpt>
      <trkpt lat="45.90626" lon="4.69817">
        <ele>223.31096</ele>
        <time>2023-04-24T12:47:01.000Z</time>
      </trkpt>
      <trkpt lat="45.90623" lon="4.69819">
        <ele>223.72971</ele>
        <time>2023-04-24T12:47:02.000Z</time>
      </trkpt>
      <trkpt lat="45.90621" lon="4.6982">
        <ele>224.25009</ele>
        <time>2023-04-24T12:47:03.000Z</time>
      </trkpt>
      <trkpt lat="45.90618" lon="4.69821">
        <ele>224.8154</ele>
        <time>2023-04-24T12:47:04.000Z</time>
      </trkpt>
      <trkpt lat="45.90615" lon="4.69822">
        <ele>224.83249</ele>
        <time>2023-04-24T12:47:05.000Z</time>
      </trkpt>
      <trkpt lat="45.90612" lon="4.69822">
        <ele>224.96793</ele>
        <time>2023-04-24T12:47:06.000Z</time>
      </trkpt>
      <trkpt lat="45.90609" lon="4.69823">
        <ele>225.10718</ele>
        <time>2023-04-24T12:47:07.000Z</time>
      </trkpt>
      <trkpt lat="45.90606" lon="4.69824">
        <ele>225.22408</ele>
        <time>2023-04-24T12:47:08.000Z</time>
      </trkpt>
      <trkpt lat="45.90602" lon="4.69824">
        <ele>225.35007</ele>
        <time>2023-04-24T12:47:09.000Z</time>
      </trkpt>
      <trkpt lat="45.90599" lon="4.69824">
        <ele>225.2347</ele>
        <time>2023-04-24T12:47:10.000Z</time>
      </trkpt>
      <trkpt lat="45.90595" lon="4.69823">
        <ele>225.00957</ele>
        <time>2023-04-24T12:47:11.000Z</time>
      </trkpt>
      <trkpt lat="45.90592" lon="4.69822">
        <ele>224.77629</ele>
        <time>2023-04-24T12:47:12.000Z</time>
      </trkpt>
      <trkpt lat="45.90588" lon="4.6982">
        <ele>224.79605</ele>
        <time>2023-04-24T12:47:13.000Z</time>
      </trkpt>
      <trkpt lat="45.90584" lon="4.69819">
        <ele>224.82622</ele>
        <time>2023-04-24T12:47:14.000Z</time>
      </trkpt>
      <trkpt lat="45.90581" lon="4.69817">
        <ele>224.77795</ele>
        <time>2023-04-24T12:47:15.000Z</time>
      </trkpt>
      <trkpt lat="45.90577" lon="4.69815">
        <ele>224.11942</ele>
        <time>2023-04-24T12:47:16.000Z</time>
      </trkpt>
      <trkpt lat="45.90574" lon="4.69814">
        <ele>224.6814</ele>
        <time>2023-04-24T12:47:17.000Z</time>
      </trkpt>
      <trkpt lat="45.9057" lon="4.69812">
        <ele>225.04387</ele>
        <time>2023-04-24T12:47:18.000Z</time>
      </trkpt>
      <trkpt lat="45.90566" lon="4.6981">
        <ele>225.39047</ele>
        <time>2023-04-24T12:47:19.000Z</time>
      </trkpt>
      <trkpt lat="45.90563" lon="4.69808">
        <ele>225.64742</ele>
        <time>2023-04-24T12:47:20.000Z</time>
      </trkpt>
      <trkpt lat="45.9056" lon="4.69806">
        <ele>225.87251</ele>
        <time>2023-04-24T12:47:21.000Z</time>
      </trkpt>
      <trkpt lat="45.90556" lon="4.69804">
        <ele>226.15202</ele>
        <time>2023-04-24T12:47:22.000Z</time>
      </trkpt>
      <trkpt lat="45.90553" lon="4.69802">
        <ele>226.4241</ele>
        <time>2023-04-24T12:47:23.000Z</time>
      </trkpt>
      <trkpt lat="45.90549" lon="4.698">
        <ele>226.69565</ele>
        <time>2023-04-24T12:47:24.000Z</time>
      </trkpt>
      <trkpt lat="45.90546" lon="4.69797">
        <ele>226.96243</ele>
        <time>2023-04-24T12:47:25.000Z</time>
      </trkpt>
      <trkpt lat="45.90543" lon="4.69794">
        <ele>227.25945</ele>
        <time>2023-04-24T12:47:26.000Z</time>
      </trkpt>
      <trkpt lat="45.9054" lon="4.69791">
        <ele>227.53806</ele>
        <time>2023-04-24T12:47:27.000Z</time>
      </trkpt>
      <trkpt lat="45.90538" lon="4.69787">
        <ele>227.84944</ele>
        <time>2023-04-24T12:47:28.000Z</time>
      </trkpt>
      <trkpt lat="45.90535" lon="4.69783">
        <ele>228.12981</ele>
        <time>2023-04-24T12:47:29.000Z</time>
      </trkpt>
      <trkpt lat="45.90533" lon="4.69779">
        <ele>228.63445</ele>
        <time>2023-04-24T12:47:30.000Z</time>
      </trkpt>
      <trkpt lat="45.9053" lon="4.69776">
        <ele>229.26181</ele>
        <time>2023-04-24T12:47:31.000Z</time>
      </trkpt>
      <trkpt lat="45.90527" lon="4.69774">
        <ele>229.88745</ele>
        <time>2023-04-24T12:47:32.000Z</time>
      </trkpt>
      <trkpt lat="45.90524" lon="4.69772">
        <ele>230.23257</ele>
        <time>2023-04-24T12:47:33.000Z</time>
      </trkpt>
      <trkpt lat="45.9052" lon="4.69771">
        <ele>230.54939</ele>
        <time>2023-04-24T12:47:34.000Z</time>
      </trkpt>
      <trkpt lat="45.90517" lon="4.69771">
        <ele>230.97112</ele>
        <time>2023-04-24T12:47:35.000Z</time>
      </trkpt>
      <trkpt lat="45.90513" lon="4.69771">
        <ele>231.49817</ele>
        <time>2023-04-24T12:47:36.000Z</time>
      </trkpt>
      <trkpt lat="45.9051" lon="4.69771">
        <ele>231.52194</ele>
        <time>2023-04-24T12:47:37.000Z</time>
      </trkpt>
      <trkpt lat="45.90506" lon="4.69771">
        <ele>231.66049</ele>
        <time>2023-04-24T12:47:38.000Z</time>
      </trkpt>
      <trkpt lat="45.90502" lon="4.6977">
        <ele>231.08252</ele>
        <time>2023-04-24T12:47:39.000Z</time>
      </trkpt>
      <trkpt lat="45.90498" lon="4.6977">
        <ele>231.10185</ele>
        <time>2023-04-24T12:47:40.000Z</time>
      </trkpt>
      <trkpt lat="45.90495" lon="4.69769">
        <ele>231.14771</ele>
        <time>2023-04-24T12:47:41.000Z</time>
      </trkpt>
      <trkpt lat="45.90491" lon="4.69768">
        <ele>231.14481</ele>
        <time>2023-04-24T12:47:42.000Z</time>
      </trkpt>
      <trkpt lat="45.90488" lon="4.69767">
        <ele>231.22823</ele>
        <time>2023-04-24T12:47:43.000Z</time>
      </trkpt>
      <trkpt lat="45.90484" lon="4.69765">
        <ele>231.96689</ele>
        <time>2023-04-24T12:47:44.000Z</time>
      </trkpt>
      <trkpt lat="45.90481" lon="4.69762">
        <ele>232.72226</ele>
        <time>2023-04-24T12:47:45.000Z</time>
      </trkpt>
      <trkpt lat="45.90478" lon="4.69759">
        <ele>233.42375</ele>
        <time>2023-04-24T12:47:46.000Z</time>
      </trkpt>
      <trkpt lat="45.90475" lon="4.69756">
        <ele>233.43567</ele>
        <time>2023-04-24T12:47:47.000Z</time>
      </trkpt>
      <trkpt lat="45.90472" lon="4.69752">
        <ele>233.40256</ele>
        <time>2023-04-24T12:47:48.000Z</time>
      </trkpt>
      <trkpt lat="45.90469" lon="4.69748">
        <ele>232.9958</ele>
        <time>2023-04-24T12:47:49.000Z</time>
      </trkpt>
      <trkpt lat="45.90467" lon="4.69743">
        <ele>232.5787</ele>
        <time>2023-04-24T12:47:50.000Z</time>
      </trkpt>
      <trkpt lat="45.90466" lon="4.69737">
        <ele>232.16794</ele>
        <time>2023-04-24T12:47:51.000Z</time>
      </trkpt>
      <trkpt lat="45.90465" lon="4.69731">
        <ele>231.74863</ele>
        <time>2023-04-24T12:47:52.000Z</time>
      </trkpt>
      <trkpt lat="45.90465" lon="4.69725">
        <ele>231.21306</ele>
        <time>2023-04-24T12:47:53.000Z</time>
      </trkpt>
      <trkpt lat="45.90466" lon="4.6972">
        <ele>231.31461</ele>
        <time>2023-04-24T12:47:54.000Z</time>
      </trkpt>
      <trkpt lat="45.90467" lon="4.69714">
        <ele>231.28291</ele>
        <time>2023-04-24T12:47:55.000Z</time>
      </trkpt>
      <trkpt lat="45.90468" lon="4.69709">
        <ele>231.12956</ele>
        <time>2023-04-24T12:47:56.000Z</time>
      </trkpt>
      <trkpt lat="45.9047" lon="4.69704">
        <ele>230.89651</ele>
        <time>2023-04-24T12:47:57.000Z</time>
      </trkpt>
      <trkpt lat="45.90472" lon="4.69699">
        <ele>230.62723</ele>
        <time>2023-04-24T12:47:58.000Z</time>
      </trkpt>
      <trkpt lat="45.90474" lon="4.69694">
        <ele>230.68533</ele>
        <time>2023-04-24T12:47:59.000Z</time>
      </trkpt>
      <trkpt lat="45.90476" lon="4.6969">
        <ele>230.82767</ele>
        <time>2023-04-24T12:48:00.000Z</time>
      </trkpt>
      <trkpt lat="45.90479" lon="4.69686">
        <ele>230.78313</ele>
        <time>2023-04-24T12:48:01.000Z</time>
      </trkpt>
      <trkpt lat="45.9048" lon="4.69681">
        <ele>230.75195</ele>
        <time>2023-04-24T12:48:02.000Z</time>
      </trkpt>
      <trkpt lat="45.90481" lon="4.69676">
        <ele>230.68591</ele>
        <time>2023-04-24T12:48:03.000Z</time>
      </trkpt>
      <trkpt lat="45.90482" lon="4.69671">
        <ele>229.94565</ele>
        <time>2023-04-24T12:48:04.000Z</time>
      </trkpt>
      <trkpt lat="45.90482" lon="4.69666">
        <ele>229.13535</ele>
        <time>2023-04-24T12:48:05.000Z</time>
      </trkpt>
      <trkpt lat="45.90482" lon="4.69661">
        <ele>228.34631</ele>
        <time>2023-04-24T12:48:06.000Z</time>
      </trkpt>
      <trkpt lat="45.90481" lon="4.69656">
        <ele>228.27043</ele>
        <time>2023-04-24T12:48:07.000Z</time>
      </trkpt>
      <trkpt lat="45.90481" lon="4.6965">
        <ele>228.18697</ele>
        <time>2023-04-24T12:48:08.000Z</time>
      </trkpt>
      <trkpt lat="45.9048" lon="4.69645">
        <ele>228.51115</ele>
        <time>2023-04-24T12:48:09.000Z</time>
      </trkpt>
      <trkpt lat="45.90479" lon="4.6964">
        <ele>228.87109</ele>
        <time>2023-04-24T12:48:10.000Z</time>
      </trkpt>
      <trkpt lat="45.90478" lon="4.69634">
        <ele>229.23376</ele>
        <time>2023-04-24T12:48:11.000Z</time>
      </trkpt>
      <trkpt lat="45.90477" lon="4.69629">
        <ele>229.61279</ele>
        <time>2023-04-24T12:48:12.000Z</time>
      </trkpt>
      <trkpt lat="45.90476" lon="4.69624">
        <ele>230.12546</ele>
        <time>2023-04-24T12:48:13.000Z</time>
      </trkpt>
      <trkpt lat="45.90475" lon="4.69619">
        <ele>230.02295</ele>
        <time>2023-04-24T12:48:14.000Z</time>
      </trkpt>
      <trkpt lat="45.90474" lon="4.69615">
        <ele>230.03854</ele>
        <time>2023-04-24T12:48:15.000Z</time>
      </trkpt>
      <trkpt lat="45.90474" lon="4.69609">
        <ele>230.05403</ele>
        <time>2023-04-24T12:48:16.000Z</time>
      </trkpt>
      <trkpt lat="45.90473" lon="4.69604">
        <ele>229.74313</ele>
        <time>2023-04-24T12:48:17.000Z</time>
      </trkpt>
      <trkpt lat="45.90472" lon="4.69599">
        <ele>229.39836</ele>
        <time>2023-04-24T12:48:18.000Z</time>
      </trkpt>
      <trkpt lat="45.90472" lon="4.69593">
        <ele>229.40805</ele>
        <time>2023-04-24T12:48:19.000Z</time>
      </trkpt>
      <trkpt lat="45.90471" lon="4.69587">
        <ele>228.73508</ele>
        <time>2023-04-24T12:48:20.000Z</time>
      </trkpt>
      <trkpt lat="45.90471" lon="4.69582">
        <ele>228.93295</ele>
        <time>2023-04-24T12:48:21.000Z</time>
      </trkpt>
      <trkpt lat="45.9047" lon="4.69577">
        <ele>229.02693</ele>
        <time>2023-04-24T12:48:22.000Z</time>
      </trkpt>
      <trkpt lat="45.90469" lon="4.69571">
        <ele>229.10713</ele>
        <time>2023-04-24T12:48:23.000Z</time>
      </trkpt>
      <trkpt lat="45.90468" lon="4.69566">
        <ele>229.19551</ele>
        <time>2023-04-24T12:48:24.000Z</time>
      </trkpt>
      <trkpt lat="45.90467" lon="4.6956">
        <ele>228.80095</ele>
        <time>2023-04-24T12:48:25.000Z</time>
      </trkpt>
      <trkpt lat="45.90466" lon="4.69555">
        <ele>229.4075</ele>
        <time>2023-04-24T12:48:26.000Z</time>
      </trkpt>
      <trkpt lat="45.90465" lon="4.69549">
        <ele>230.64119</ele>
        <time>2023-04-24T12:48:27.000Z</time>
      </trkpt>
      <trkpt lat="45.90464" lon="4.69544">
        <ele>231.89896</ele>
        <time>2023-04-24T12:48:28.000Z</time>
      </trkpt>
      <trkpt lat="45.90463" lon="4.69538">
        <ele>233.13628</ele>
        <time>2023-04-24T12:48:29.000Z</time>
      </trkpt>
      <trkpt lat="45.90463" lon="4.69533">
        <ele>234.38882</ele>
        <time>2023-04-24T12:48:30.000Z</time>
      </trkpt>
      <trkpt lat="45.90462" lon="4.69528">
        <ele>235.65691</ele>
        <time>2023-04-24T12:48:31.000Z</time>
      </trkpt>
      <trkpt lat="45.9046" lon="4.69523">
        <ele>236.92998</ele>
        <time>2023-04-24T12:48:32.000Z</time>
      </trkpt>
      <trkpt lat="45.90458" lon="4.69518">
        <ele>238.19734</ele>
        <time>2023-04-24T12:48:33.000Z</time>
      </trkpt>
      <trkpt lat="45.90456" lon="4.69514">
        <ele>239.45967</ele>
        <time>2023-04-24T12:48:34.000Z</time>
      </trkpt>
      <trkpt lat="45.90452" lon="4.6951">
        <ele>240.71956</ele>
        <time>2023-04-24T12:48:35.000Z</time>
      </trkpt>
      <trkpt lat="45.90448" lon="4.69509">
        <ele>241.99905</ele>
        <time>2023-04-24T12:48:36.000Z</time>
      </trkpt>
      <trkpt lat="45.90444" lon="4.69508">
        <ele>243.68497</ele>
        <time>2023-04-24T12:48:37.000Z</time>
      </trkpt>
      <trkpt lat="45.90439" lon="4.69506">
        <ele>245.4216</ele>
        <time>2023-04-24T12:48:38.000Z</time>
      </trkpt>
      <trkpt lat="45.90435" lon="4.69505">
        <ele>247.22156</ele>
        <time>2023-04-24T12:48:39.000Z</time>
      </trkpt>
      <trkpt lat="45.90431" lon="4.69504">
        <ele>249.1324</ele>
        <time>2023-04-24T12:48:40.000Z</time>
      </trkpt>
      <trkpt lat="45.90426" lon="4.69502">
        <ele>249.5394</ele>
        <time>2023-04-24T12:48:41.000Z</time>
      </trkpt>
      <trkpt lat="45.90422" lon="4.69501">
        <ele>250.03865</ele>
        <time>2023-04-24T12:48:42.000Z</time>
      </trkpt>
      <trkpt lat="45.90418" lon="4.695">
        <ele>250.50558</ele>
        <time>2023-04-24T12:48:43.000Z</time>
      </trkpt>
      <trkpt lat="45.90414" lon="4.69498">
        <ele>250.98068</ele>
        <time>2023-04-24T12:48:44.000Z</time>
      </trkpt>
      <trkpt lat="45.9041" lon="4.69496">
        <ele>252.01102</ele>
        <time>2023-04-24T12:48:45.000Z</time>
      </trkpt>
      <trkpt lat="45.90406" lon="4.69495">
        <ele>252.04704</ele>
        <time>2023-04-24T12:48:46.000Z</time>
      </trkpt>
      <trkpt lat="45.90402" lon="4.69494">
        <ele>251.42197</ele>
        <time>2023-04-24T12:48:47.000Z</time>
      </trkpt>
      <trkpt lat="45.90397" lon="4.69493">
        <ele>250.79196</ele>
        <time>2023-04-24T12:48:48.000Z</time>
      </trkpt>
      <trkpt lat="45.90393" lon="4.69491">
        <ele>250.15425</ele>
        <time>2023-04-24T12:48:49.000Z</time>
      </trkpt>
      <trkpt lat="45.90389" lon="4.6949">
        <ele>249.49471</ele>
        <time>2023-04-24T12:48:50.000Z</time>
      </trkpt>
      <trkpt lat="45.90385" lon="4.69489">
        <ele>248.79428</ele>
        <time>2023-04-24T12:48:51.000Z</time>
      </trkpt>
      <trkpt lat="45.90381" lon="4.69487">
        <ele>247.89461</ele>
        <time>2023-04-24T12:48:52.000Z</time>
      </trkpt>
      <trkpt lat="45.90378" lon="4.69485">
        <ele>246.98947</ele>
        <time>2023-04-24T12:48:53.000Z</time>
      </trkpt>
      <trkpt lat="45.90374" lon="4.69484">
        <ele>246.05826</ele>
        <time>2023-04-24T12:48:54.000Z</time>
      </trkpt>
      <trkpt lat="45.9037" lon="4.69482">
        <ele>245.0876</ele>
        <time>2023-04-24T12:48:55.000Z</time>
      </trkpt>
      <trkpt lat="45.90367" lon="4.6948">
        <ele>243.83257</ele>
        <time>2023-04-24T12:48:56.000Z</time>
      </trkpt>
      <trkpt lat="45.90364" lon="4.69477">
        <ele>243.45425</ele>
        <time>2023-04-24T12:48:57.000Z</time>
      </trkpt>
      <trkpt lat="45.90363" lon="4.69475">
        <ele>243.07536</ele>
        <time>2023-04-24T12:48:58.000Z</time>
      </trkpt>
      <trkpt lat="45.9036" lon="4.69473">
        <ele>242.88521</ele>
        <time>2023-04-24T12:49:00.000Z</time>
      </trkpt>
      <trkpt lat="45.90357" lon="4.69472">
        <ele>242.63347</ele>
        <time>2023-04-24T12:49:02.000Z</time>
      </trkpt>
      <trkpt lat="45.90355" lon="4.6947">
        <ele>243.03406</ele>
        <time>2023-04-24T12:49:07.000Z</time>
      </trkpt>
      <trkpt lat="45.90354" lon="4.6947">
        <ele>242.92363</ele>
        <time>2023-04-24T12:49:11.000Z</time>
      </trkpt>
      <trkpt lat="45.90351" lon="4.69469">
        <ele>243.0218</ele>
        <time>2023-04-24T12:49:14.000Z</time>
      </trkpt>
      <trkpt lat="45.90351" lon="4.69466">
        <ele>242.92903</ele>
        <time>2023-04-24T12:49:21.000Z</time>
      </trkpt>
      <trkpt lat="45.90349" lon="4.69464">
        <ele>242.8029</ele>
        <time>2023-04-24T12:49:26.000Z</time>
      </trkpt>
      <trkpt lat="45.90347" lon="4.69463">
        <ele>242.66716</ele>
        <time>2023-04-24T12:49:28.000Z</time>
      </trkpt>
      <trkpt lat="45.90344" lon="4.69461">
        <ele>242.56274</ele>
        <time>2023-04-24T12:49:32.000Z</time>
      </trkpt>
      <trkpt lat="45.90341" lon="4.69458">
        <ele>242.44186</ele>
        <time>2023-04-24T12:49:34.000Z</time>
      </trkpt>
      <trkpt lat="45.90339" lon="4.69457">
        <ele>242.33281</ele>
        <time>2023-04-24T12:49:35.000Z</time>
      </trkpt>
      <trkpt lat="45.90337" lon="4.69456">
        <ele>242.25017</ele>
        <time>2023-04-24T12:49:36.000Z</time>
      </trkpt>
      <trkpt lat="45.90335" lon="4.69455">
        <ele>242.14682</ele>
        <time>2023-04-24T12:49:37.000Z</time>
      </trkpt>
      <trkpt lat="45.90332" lon="4.69453">
        <ele>243.27348</ele>
        <time>2023-04-24T12:49:39.000Z</time>
      </trkpt>
      <trkpt lat="45.9033" lon="4.69451">
        <ele>244.40991</ele>
        <time>2023-04-24T12:49:40.000Z</time>
      </trkpt>
      <trkpt lat="45.90327" lon="4.6945">
        <ele>245.58163</ele>
        <time>2023-04-24T12:49:41.000Z</time>
      </trkpt>
      <trkpt lat="45.90325" lon="4.69449">
        <ele>246.70381</ele>
        <time>2023-04-24T12:49:42.000Z</time>
      </trkpt>
      <trkpt lat="45.90323" lon="4.69448">
        <ele>247.0999</ele>
        <time>2023-04-24T12:49:43.000Z</time>
      </trkpt>
      <trkpt lat="45.9032" lon="4.69446">
        <ele>246.62724</ele>
        <time>2023-04-24T12:49:44.000Z</time>
      </trkpt>
      <trkpt lat="45.90318" lon="4.69444">
        <ele>246.14494</ele>
        <time>2023-04-24T12:49:45.000Z</time>
      </trkpt>
      <trkpt lat="45.90315" lon="4.69442">
        <ele>246.51814</ele>
        <time>2023-04-24T12:49:46.000Z</time>
      </trkpt>
      <trkpt lat="45.90312" lon="4.69441">
        <ele>246.98833</ele>
        <time>2023-04-24T12:49:47.000Z</time>
      </trkpt>
      <trkpt lat="45.9031" lon="4.69439">
        <ele>247.60864</ele>
        <time>2023-04-24T12:49:48.000Z</time>
      </trkpt>
      <trkpt lat="45.90307" lon="4.69437">
        <ele>248.74072</ele>
        <time>2023-04-24T12:49:49.000Z</time>
      </trkpt>
      <trkpt lat="45.90305" lon="4.69435">
        <ele>249.63773</ele>
        <time>2023-04-24T12:49:50.000Z</time>
      </trkpt>
      <trkpt lat="45.90303" lon="4.69433">
        <ele>250.69475</ele>
        <time>2023-04-24T12:49:51.000Z</time>
      </trkpt>
      <trkpt lat="45.90301" lon="4.6943">
        <ele>251.76985</ele>
        <time>2023-04-24T12:49:52.000Z</time>
      </trkpt>
      <trkpt lat="45.90298" lon="4.69428">
        <ele>252.89319</ele>
        <time>2023-04-24T12:49:53.000Z</time>
      </trkpt>
      <trkpt lat="45.90296" lon="4.69425">
        <ele>253.97502</ele>
        <time>2023-04-24T12:49:54.000Z</time>
      </trkpt>
      <trkpt lat="45.90294" lon="4.69422">
        <ele>255.06564</ele>
        <time>2023-04-24T12:49:55.000Z</time>
      </trkpt>
      <trkpt lat="45.90292" lon="4.69419">
        <ele>256.14609</ele>
        <time>2023-04-24T12:49:56.000Z</time>
      </trkpt>
      <trkpt lat="45.90291" lon="4.69416">
        <ele>257.20663</ele>
        <time>2023-04-24T12:49:57.000Z</time>
      </trkpt>
      <trkpt lat="45.90289" lon="4.69413">
        <ele>257.25479</ele>
        <time>2023-04-24T12:49:58.000Z</time>
      </trkpt>
      <trkpt lat="45.90286" lon="4.6941">
        <ele>255.79117</ele>
        <time>2023-04-24T12:49:59.000Z</time>
      </trkpt>
      <trkpt lat="45.90283" lon="4.69407">
        <ele>254.31323</ele>
        <time>2023-04-24T12:50:00.000Z</time>
      </trkpt>
      <trkpt lat="45.9028" lon="4.69404">
        <ele>252.74014</ele>
        <time>2023-04-24T12:50:01.000Z</time>
      </trkpt>
      <trkpt lat="45.90277" lon="4.69401">
        <ele>251.95309</ele>
        <time>2023-04-24T12:50:02.000Z</time>
      </trkpt>
      <trkpt lat="45.90275" lon="4.69398">
        <ele>252.71542</ele>
        <time>2023-04-24T12:50:03.000Z</time>
      </trkpt>
      <trkpt lat="45.90272" lon="4.69395">
        <ele>253.46951</ele>
        <time>2023-04-24T12:50:04.000Z</time>
      </trkpt>
      <trkpt lat="45.90269" lon="4.69392">
        <ele>253.98886</ele>
        <time>2023-04-24T12:50:05.000Z</time>
      </trkpt>
      <trkpt lat="45.90267" lon="4.69389">
        <ele>252.93396</ele>
        <time>2023-04-24T12:50:06.000Z</time>
      </trkpt>
      <trkpt lat="45.90264" lon="4.69386">
        <ele>251.82271</ele>
        <time>2023-04-24T12:50:07.000Z</time>
      </trkpt>
      <trkpt lat="45.90261" lon="4.69383">
        <ele>250.70956</ele>
        <time>2023-04-24T12:50:08.000Z</time>
      </trkpt>
      <trkpt lat="45.90259" lon="4.6938">
        <ele>249.59697</ele>
        <time>2023-04-24T12:50:09.000Z</time>
      </trkpt>
      <trkpt lat="45.90256" lon="4.69377">
        <ele>248.52036</ele>
        <time>2023-04-24T12:50:10.000Z</time>
      </trkpt>
      <trkpt lat="45.90253" lon="4.69374">
        <ele>247.45578</ele>
        <time>2023-04-24T12:50:11.000Z</time>
      </trkpt>
      <trkpt lat="45.9025" lon="4.69371">
        <ele>246.36063</ele>
        <time>2023-04-24T12:50:12.000Z</time>
      </trkpt>
      <trkpt lat="45.90248" lon="4.69367">
        <ele>245.25769</ele>
        <time>2023-04-24T12:50:13.000Z</time>
      </trkpt>
      <trkpt lat="45.90246" lon="4.69363">
        <ele>244.13431</ele>
        <time>2023-04-24T12:50:14.000Z</time>
      </trkpt>
      <trkpt lat="45.90244" lon="4.69358">
        <ele>242.99606</ele>
        <time>2023-04-24T12:50:15.000Z</time>
      </trkpt>
      <trkpt lat="45.90243" lon="4.69353">
        <ele>241.38248</ele>
        <time>2023-04-24T12:50:16.000Z</time>
      </trkpt>
      <trkpt lat="45.90242" lon="4.69349">
        <ele>239.77356</ele>
        <time>2023-04-24T12:50:17.000Z</time>
      </trkpt>
      <trkpt lat="45.90242" lon="4.69344">
        <ele>239.22421</ele>
        <time>2023-04-24T12:50:18.000Z</time>
      </trkpt>
      <trkpt lat="45.90241" lon="4.6934">
        <ele>239.15938</ele>
        <time>2023-04-24T12:50:19.000Z</time>
      </trkpt>
      <trkpt lat="45.9024" lon="4.69335">
        <ele>239.11797</ele>
        <time>2023-04-24T12:50:20.000Z</time>
      </trkpt>
      <trkpt lat="45.90239" lon="4.69331">
        <ele>238.99483</ele>
        <time>2023-04-24T12:50:21.000Z</time>
      </trkpt>
      <trkpt lat="45.90237" lon="4.69326">
        <ele>238.11311</ele>
        <time>2023-04-24T12:50:22.000Z</time>
      </trkpt>
      <trkpt lat="45.90234" lon="4.69322">
        <ele>237.50845</ele>
        <time>2023-04-24T12:50:23.000Z</time>
      </trkpt>
      <trkpt lat="45.90231" lon="4.69319">
        <ele>236.8345</ele>
        <time>2023-04-24T12:50:24.000Z</time>
      </trkpt>
      <trkpt lat="45.90228" lon="4.69316">
        <ele>236.36809</ele>
        <time>2023-04-24T12:50:25.000Z</time>
      </trkpt>
      <trkpt lat="45.90225" lon="4.69313">
        <ele>236.42036</ele>
        <time>2023-04-24T12:50:26.000Z</time>
      </trkpt>
      <trkpt lat="45.90221" lon="4.6931">
        <ele>236.49915</ele>
        <time>2023-04-24T12:50:27.000Z</time>
      </trkpt>
      <trkpt lat="45.90218" lon="4.69308">
        <ele>236.5079</ele>
        <time>2023-04-24T12:50:28.000Z</time>
      </trkpt>
      <trkpt lat="45.90215" lon="4.69305">
        <ele>236.50691</ele>
        <time>2023-04-24T12:50:29.000Z</time>
      </trkpt>
      <trkpt lat="45.90211" lon="4.69303">
        <ele>236.44571</ele>
        <time>2023-04-24T12:50:30.000Z</time>
      </trkpt>
      <trkpt lat="45.90208" lon="4.69301">
        <ele>236.40222</ele>
        <time>2023-04-24T12:50:31.000Z</time>
      </trkpt>
      <trkpt lat="45.90205" lon="4.69299">
        <ele>236.42136</ele>
        <time>2023-04-24T12:50:32.000Z</time>
      </trkpt>
      <trkpt lat="45.90201" lon="4.69297">
        <ele>236.37985</ele>
        <time>2023-04-24T12:50:33.000Z</time>
      </trkpt>
      <trkpt lat="45.90197" lon="4.69296">
        <ele>235.87186</ele>
        <time>2023-04-24T12:50:34.000Z</time>
      </trkpt>
      <trkpt lat="45.90193" lon="4.69295">
        <ele>235.24675</ele>
        <time>2023-04-24T12:50:35.000Z</time>
      </trkpt>
      <trkpt lat="45.90188" lon="4.69295">
        <ele>235.08511</ele>
        <time>2023-04-24T12:50:36.000Z</time>
      </trkpt>
      <trkpt lat="45.90184" lon="4.69293">
        <ele>235.63632</ele>
        <time>2023-04-24T12:50:37.000Z</time>
      </trkpt>
      <trkpt lat="45.90179" lon="4.69292">
        <ele>236.06857</ele>
        <time>2023-04-24T12:50:38.000Z</time>
      </trkpt>
      <trkpt lat="45.90175" lon="4.69291">
        <ele>236.46317</ele>
        <time>2023-04-24T12:50:39.000Z</time>
      </trkpt>
      <trkpt lat="45.90169" lon="4.69291">
        <ele>236.85547</ele>
        <time>2023-04-24T12:50:40.000Z</time>
      </trkpt>
      <trkpt lat="45.90164" lon="4.6929">
        <ele>237.38419</ele>
        <time>2023-04-24T12:50:41.000Z</time>
      </trkpt>
      <trkpt lat="45.90159" lon="4.6929">
        <ele>237.96558</ele>
        <time>2023-04-24T12:50:42.000Z</time>
      </trkpt>
      <trkpt lat="45.90153" lon="4.6929">
        <ele>237.22871</ele>
        <time>2023-04-24T12:50:43.000Z</time>
      </trkpt>
      <trkpt lat="45.90147" lon="4.69291">
        <ele>236.56638</ele>
        <time>2023-04-24T12:50:44.000Z</time>
      </trkpt>
      <trkpt lat="45.90142" lon="4.69291">
        <ele>235.80757</ele>
        <time>2023-04-24T12:50:45.000Z</time>
      </trkpt>
      <trkpt lat="45.90137" lon="4.69292">
        <ele>236.65967</ele>
        <time>2023-04-24T12:50:46.000Z</time>
      </trkpt>
      <trkpt lat="45.90131" lon="4.69292">
        <ele>237.5544</ele>
        <time>2023-04-24T12:50:47.000Z</time>
      </trkpt>
      <trkpt lat="45.90126" lon="4.69293">
        <ele>238.52197</ele>
        <time>2023-04-24T12:50:48.000Z</time>
      </trkpt>
      <trkpt lat="45.90122" lon="4.69294">
        <ele>239.49968</ele>
        <time>2023-04-24T12:50:49.000Z</time>
      </trkpt>
      <trkpt lat="45.90116" lon="4.69295">
        <ele>240.5394</ele>
        <time>2023-04-24T12:50:50.000Z</time>
      </trkpt>
      <trkpt lat="45.90111" lon="4.69296">
        <ele>241.63025</ele>
        <time>2023-04-24T12:50:51.000Z</time>
      </trkpt>
      <trkpt lat="45.90107" lon="4.69297">
        <ele>242.68465</ele>
        <time>2023-04-24T12:50:52.000Z</time>
      </trkpt>
      <trkpt lat="45.90101" lon="4.69297">
        <ele>243.77231</ele>
        <time>2023-04-24T12:50:53.000Z</time>
      </trkpt>
      <trkpt lat="45.90096" lon="4.69297">
        <ele>245.36629</ele>
        <time>2023-04-24T12:50:54.000Z</time>
      </trkpt>
      <trkpt lat="45.90091" lon="4.69298">
        <ele>247.10005</ele>
        <time>2023-04-24T12:50:55.000Z</time>
      </trkpt>
      <trkpt lat="45.90086" lon="4.693">
        <ele>248.80362</ele>
        <time>2023-04-24T12:50:56.000Z</time>
      </trkpt>
      <trkpt lat="45.9008" lon="4.693">
        <ele>249.79187</ele>
        <time>2023-04-24T12:50:57.000Z</time>
      </trkpt>
      <trkpt lat="45.90075" lon="4.69299">
        <ele>250.7999</ele>
        <time>2023-04-24T12:50:58.000Z</time>
      </trkpt>
      <trkpt lat="45.90069" lon="4.69299">
        <ele>251.84831</ele>
        <time>2023-04-24T12:50:59.000Z</time>
      </trkpt>
      <trkpt lat="45.90063" lon="4.69298">
        <ele>252.84773</ele>
        <time>2023-04-24T12:51:00.000Z</time>
      </trkpt>
      <trkpt lat="45.90058" lon="4.69295">
        <ele>252.8073</ele>
        <time>2023-04-24T12:51:01.000Z</time>
      </trkpt>
      <trkpt lat="45.90053" lon="4.6929">
        <ele>252.76486</ele>
        <time>2023-04-24T12:51:02.000Z</time>
      </trkpt>
      <trkpt lat="45.90048" lon="4.69285">
        <ele>253.23367</ele>
        <time>2023-04-24T12:51:03.000Z</time>
      </trkpt>
      <trkpt lat="45.90045" lon="4.6928">
        <ele>253.68486</ele>
        <time>2023-04-24T12:51:04.000Z</time>
      </trkpt>
      <trkpt lat="45.9004" lon="4.69275">
        <ele>254.23906</ele>
        <time>2023-04-24T12:51:05.000Z</time>
      </trkpt>
      <trkpt lat="45.90035" lon="4.69272">
        <ele>254.27966</ele>
        <time>2023-04-24T12:51:06.000Z</time>
      </trkpt>
      <trkpt lat="45.90031" lon="4.69271">
        <ele>254.22978</ele>
        <time>2023-04-24T12:51:07.000Z</time>
      </trkpt>
      <trkpt lat="45.90026" lon="4.69271">
        <ele>252.49533</ele>
        <time>2023-04-24T12:51:08.000Z</time>
      </trkpt>
      <trkpt lat="45.90021" lon="4.69272">
        <ele>252.43648</ele>
        <time>2023-04-24T12:51:09.000Z</time>
      </trkpt>
      <trkpt lat="45.90017" lon="4.69273">
        <ele>252.34058</ele>
        <time>2023-04-24T12:51:10.000Z</time>
      </trkpt>
      <trkpt lat="45.90013" lon="4.69275">
        <ele>252.19089</ele>
        <time>2023-04-24T12:51:11.000Z</time>
      </trkpt>
      <trkpt lat="45.90009" lon="4.69279">
        <ele>252.0363</ele>
        <time>2023-04-24T12:51:12.000Z</time>
      </trkpt>
      <trkpt lat="45.90005" lon="4.69284">
        <ele>251.85022</ele>
        <time>2023-04-24T12:51:13.000Z</time>
      </trkpt>
      <trkpt lat="45.90002" lon="4.69291">
        <ele>251.63596</ele>
        <time>2023-04-24T12:51:14.000Z</time>
      </trkpt>
      <trkpt lat="45.89998" lon="4.69297">
        <ele>251.45309</ele>
        <time>2023-04-24T12:51:15.000Z</time>
      </trkpt>
      <trkpt lat="45.89996" lon="4.69303">
        <ele>251.29643</ele>
        <time>2023-04-24T12:51:16.000Z</time>
      </trkpt>
      <trkpt lat="45.89993" lon="4.69311">
        <ele>251.14929</ele>
        <time>2023-04-24T12:51:17.000Z</time>
      </trkpt>
      <trkpt lat="45.89991" lon="4.69318">
        <ele>251.08264</ele>
        <time>2023-04-24T12:51:18.000Z</time>
      </trkpt>
      <trkpt lat="45.89989" lon="4.69324">
        <ele>250.98563</ele>
        <time>2023-04-24T12:51:19.000Z</time>
      </trkpt>
      <trkpt lat="45.89986" lon="4.69332">
        <ele>250.9167</ele>
        <time>2023-04-24T12:51:20.000Z</time>
      </trkpt>
      <trkpt lat="45.89983" lon="4.69339">
        <ele>251.87589</ele>
        <time>2023-04-24T12:51:21.000Z</time>
      </trkpt>
      <trkpt lat="45.8998" lon="4.69346">
        <ele>252.853</ele>
        <time>2023-04-24T12:51:22.000Z</time>
      </trkpt>
      <trkpt lat="45.89977" lon="4.69353">
        <ele>253.80159</ele>
        <time>2023-04-24T12:51:23.000Z</time>
      </trkpt>
      <trkpt lat="45.89974" lon="4.69359">
        <ele>253.65938</ele>
        <time>2023-04-24T12:51:24.000Z</time>
      </trkpt>
      <trkpt lat="45.89971" lon="4.69367">
        <ele>253.57397</ele>
        <time>2023-04-24T12:51:25.000Z</time>
      </trkpt>
      <trkpt lat="45.89968" lon="4.69374">
        <ele>252.37263</ele>
        <time>2023-04-24T12:51:26.000Z</time>
      </trkpt>
      <trkpt lat="45.89964" lon="4.69376">
        <ele>251.17197</ele>
        <time>2023-04-24T12:51:27.000Z</time>
      </trkpt>
      <trkpt lat="45.8996" lon="4.69377">
        <ele>251.68826</ele>
        <time>2023-04-24T12:51:28.000Z</time>
      </trkpt>
      <trkpt lat="45.89956" lon="4.69375">
        <ele>250.56299</ele>
        <time>2023-04-24T12:51:29.000Z</time>
      </trkpt>
      <trkpt lat="45.89955" lon="4.6937">
        <ele>249.43277</ele>
        <time>2023-04-24T12:51:30.000Z</time>
      </trkpt>
      <trkpt lat="45.89956" lon="4.69365">
        <ele>249.41338</ele>
        <time>2023-04-24T12:51:31.000Z</time>
      </trkpt>
      <trkpt lat="45.89956" lon="4.6936">
        <ele>249.40488</ele>
        <time>2023-04-24T12:51:32.000Z</time>
      </trkpt>
      <trkpt lat="45.89956" lon="4.69354">
        <ele>249.43831</ele>
        <time>2023-04-24T12:51:33.000Z</time>
      </trkpt>
      <trkpt lat="45.89956" lon="4.69347">
        <ele>249.42581</ele>
        <time>2023-04-24T12:51:34.000Z</time>
      </trkpt>
      <trkpt lat="45.89956" lon="4.69341">
        <ele>249.37849</ele>
        <time>2023-04-24T12:51:35.000Z</time>
      </trkpt>
      <trkpt lat="45.89955" lon="4.69336">
        <ele>249.37625</ele>
        <time>2023-04-24T12:51:36.000Z</time>
      </trkpt>
      <trkpt lat="45.89955" lon="4.69329">
        <ele>248.87305</ele>
        <time>2023-04-24T12:51:37.000Z</time>
      </trkpt>
      <trkpt lat="45.89954" lon="4.69324">
        <ele>248.39465</ele>
        <time>2023-04-24T12:51:38.000Z</time>
      </trkpt>
      <trkpt lat="45.89954" lon="4.69319">
        <ele>247.89209</ele>
        <time>2023-04-24T12:51:39.000Z</time>
      </trkpt>
      <trkpt lat="45.89954" lon="4.69313">
        <ele>247.46721</ele>
        <time>2023-04-24T12:51:40.000Z</time>
      </trkpt>
      <trkpt lat="45.89954" lon="4.69307">
        <ele>247.57722</ele>
        <time>2023-04-24T12:51:41.000Z</time>
      </trkpt>
      <trkpt lat="45.89955" lon="4.69301">
        <ele>247.63025</ele>
        <time>2023-04-24T12:51:42.000Z</time>
      </trkpt>
      <trkpt lat="45.89955" lon="4.69295">
        <ele>247.69791</ele>
        <time>2023-04-24T12:51:43.000Z</time>
      </trkpt>
      <trkpt lat="45.89956" lon="4.69289">
        <ele>248.89185</ele>
        <time>2023-04-24T12:51:44.000Z</time>
      </trkpt>
      <trkpt lat="45.89956" lon="4.69284">
        <ele>250.06599</ele>
        <time>2023-04-24T12:51:45.000Z</time>
      </trkpt>
      <trkpt lat="45.89957" lon="4.69278">
        <ele>251.27316</ele>
        <time>2023-04-24T12:51:46.000Z</time>
      </trkpt>
      <trkpt lat="45.89957" lon="4.69273">
        <ele>252.50534</ele>
        <time>2023-04-24T12:51:47.000Z</time>
      </trkpt>
      <trkpt lat="45.89957" lon="4.69268">
        <ele>253.75117</ele>
        <time>2023-04-24T12:51:48.000Z</time>
      </trkpt>
      <trkpt lat="45.89957" lon="4.69263">
        <ele>254.98962</ele>
        <time>2023-04-24T12:51:49.000Z</time>
      </trkpt>
      <trkpt lat="45.89957" lon="4.69258">
        <ele>256.2868</ele>
        <time>2023-04-24T12:51:50.000Z</time>
      </trkpt>
      <trkpt lat="45.89958" lon="4.69252">
        <ele>256.48724</ele>
        <time>2023-04-24T12:51:51.000Z</time>
      </trkpt>
      <trkpt lat="45.89958" lon="4.69247">
        <ele>256.7121</ele>
        <time>2023-04-24T12:51:52.000Z</time>
      </trkpt>
      <trkpt lat="45.89958" lon="4.69241">
        <ele>256.93158</ele>
        <time>2023-04-24T12:51:53.000Z</time>
      </trkpt>
      <trkpt lat="45.89959" lon="4.69235">
        <ele>257.19675</ele>
        <time>2023-04-24T12:51:54.000Z</time>
      </trkpt>
      <trkpt lat="45.89959" lon="4.6923">
        <ele>257.49088</ele>
        <time>2023-04-24T12:51:55.000Z</time>
      </trkpt>
      <trkpt lat="45.8996" lon="4.69224">
        <ele>257.76999</ele>
        <time>2023-04-24T12:51:56.000Z</time>
      </trkpt>
      <trkpt lat="45.89961" lon="4.69219">
        <ele>258.54019</ele>
        <time>2023-04-24T12:51:57.000Z</time>
      </trkpt>
      <trkpt lat="45.89962" lon="4.69213">
        <ele>259.30304</ele>
        <time>2023-04-24T12:51:58.000Z</time>
      </trkpt>
      <trkpt lat="45.89963" lon="4.69208">
        <ele>260.12714</ele>
        <time>2023-04-24T12:51:59.000Z</time>
      </trkpt>
      <trkpt lat="45.89964" lon="4.69202">
        <ele>260.85242</ele>
        <time>2023-04-24T12:52:00.000Z</time>
      </trkpt>
      <trkpt lat="45.89965" lon="4.69196">
        <ele>261.05963</ele>
        <time>2023-04-24T12:52:01.000Z</time>
      </trkpt>
      <trkpt lat="45.89966" lon="4.69189">
        <ele>261.2818</ele>
        <time>2023-04-24T12:52:02.000Z</time>
      </trkpt>
      <trkpt lat="45.89967" lon="4.69184">
        <ele>261.44574</ele>
        <time>2023-04-24T12:52:03.000Z</time>
      </trkpt>
      <trkpt lat="45.89968" lon="4.69178">
        <ele>260.10611</ele>
        <time>2023-04-24T12:52:04.000Z</time>
      </trkpt>
      <trkpt lat="45.89968" lon="4.69171">
        <ele>259.36102</ele>
        <time>2023-04-24T12:52:05.000Z</time>
      </trkpt>
      <trkpt lat="45.89968" lon="4.69166">
        <ele>258.61041</ele>
        <time>2023-04-24T12:52:06.000Z</time>
      </trkpt>
      <trkpt lat="45.89968" lon="4.6916">
        <ele>257.8725</ele>
        <time>2023-04-24T12:52:07.000Z</time>
      </trkpt>
      <trkpt lat="45.89968" lon="4.69154">
        <ele>257.16483</ele>
        <time>2023-04-24T12:52:08.000Z</time>
      </trkpt>
      <trkpt lat="45.89968" lon="4.69149">
        <ele>256.44</ele>
        <time>2023-04-24T12:52:09.000Z</time>
      </trkpt>
      <trkpt lat="45.89969" lon="4.69143">
        <ele>255.7059</ele>
        <time>2023-04-24T12:52:10.000Z</time>
      </trkpt>
      <trkpt lat="45.89969" lon="4.69137">
        <ele>254.91362</ele>
        <time>2023-04-24T12:52:11.000Z</time>
      </trkpt>
      <trkpt lat="45.8997" lon="4.6913">
        <ele>254.12064</ele>
        <time>2023-04-24T12:52:12.000Z</time>
      </trkpt>
      <trkpt lat="45.89971" lon="4.69125">
        <ele>252.75308</ele>
        <time>2023-04-24T12:52:13.000Z</time>
      </trkpt>
      <trkpt lat="45.8997" lon="4.69119">
        <ele>251.32254</ele>
        <time>2023-04-24T12:52:14.000Z</time>
      </trkpt>
      <trkpt lat="45.8997" lon="4.69113">
        <ele>250.69693</ele>
        <time>2023-04-24T12:52:15.000Z</time>
      </trkpt>
      <trkpt lat="45.8997" lon="4.69106">
        <ele>249.92871</ele>
        <time>2023-04-24T12:52:16.000Z</time>
      </trkpt>
      <trkpt lat="45.8997" lon="4.69101">
        <ele>249.15349</ele>
        <time>2023-04-24T12:52:17.000Z</time>
      </trkpt>
      <trkpt lat="45.89971" lon="4.69095">
        <ele>248.36938</ele>
        <time>2023-04-24T12:52:18.000Z</time>
      </trkpt>
      <trkpt lat="45.8997" lon="4.69089">
        <ele>247.58907</ele>
        <time>2023-04-24T12:52:19.000Z</time>
      </trkpt>
      <trkpt lat="45.8997" lon="4.69083">
        <ele>246.83463</ele>
        <time>2023-04-24T12:52:20.000Z</time>
      </trkpt>
      <trkpt lat="45.8997" lon="4.69077">
        <ele>245.71687</ele>
        <time>2023-04-24T12:52:21.000Z</time>
      </trkpt>
      <trkpt lat="45.8997" lon="4.69071">
        <ele>244.62549</ele>
        <time>2023-04-24T12:52:22.000Z</time>
      </trkpt>
      <trkpt lat="45.8997" lon="4.69065">
        <ele>243.5607</ele>
        <time>2023-04-24T12:52:23.000Z</time>
      </trkpt>
      <trkpt lat="45.89969" lon="4.69059">
        <ele>243.7074</ele>
        <time>2023-04-24T12:52:24.000Z</time>
      </trkpt>
      <trkpt lat="45.89968" lon="4.69053">
        <ele>243.0795</ele>
        <time>2023-04-24T12:52:25.000Z</time>
      </trkpt>
      <trkpt lat="45.89968" lon="4.69047">
        <ele>243.35701</ele>
        <time>2023-04-24T12:52:26.000Z</time>
      </trkpt>
      <trkpt lat="45.89967" lon="4.69042">
        <ele>243.52446</ele>
        <time>2023-04-24T12:52:27.000Z</time>
      </trkpt>
      <trkpt lat="45.89967" lon="4.69036">
        <ele>243.61919</ele>
        <time>2023-04-24T12:52:28.000Z</time>
      </trkpt>
      <trkpt lat="45.89967" lon="4.6903">
        <ele>243.71025</ele>
        <time>2023-04-24T12:52:29.000Z</time>
      </trkpt>
      <trkpt lat="45.89967" lon="4.69024">
        <ele>243.80244</ele>
        <time>2023-04-24T12:52:30.000Z</time>
      </trkpt>
      <trkpt lat="45.89967" lon="4.69019">
        <ele>243.99796</ele>
        <time>2023-04-24T12:52:31.000Z</time>
      </trkpt>
      <trkpt lat="45.89967" lon="4.69012">
        <ele>244.16219</ele>
        <time>2023-04-24T12:52:32.000Z</time>
      </trkpt>
      <trkpt lat="45.89967" lon="4.69006">
        <ele>244.87988</ele>
        <time>2023-04-24T12:52:33.000Z</time>
      </trkpt>
      <trkpt lat="45.89967" lon="4.69001">
        <ele>245.7131</ele>
        <time>2023-04-24T12:52:34.000Z</time>
      </trkpt>
      <trkpt lat="45.89967" lon="4.68995">
        <ele>245.7738</ele>
        <time>2023-04-24T12:52:35.000Z</time>
      </trkpt>
      <trkpt lat="45.89967" lon="4.68989">
        <ele>245.94267</ele>
        <time>2023-04-24T12:52:36.000Z</time>
      </trkpt>
      <trkpt lat="45.89968" lon="4.68983">
        <ele>246.17102</ele>
        <time>2023-04-24T12:52:37.000Z</time>
      </trkpt>
      <trkpt lat="45.89968" lon="4.68978">
        <ele>246.38118</ele>
        <time>2023-04-24T12:52:38.000Z</time>
      </trkpt>
      <trkpt lat="45.89969" lon="4.68972">
        <ele>246.52934</ele>
        <time>2023-04-24T12:52:39.000Z</time>
      </trkpt>
      <trkpt lat="45.89969" lon="4.68966">
        <ele>246.68619</ele>
        <time>2023-04-24T12:52:40.000Z</time>
      </trkpt>
      <trkpt lat="45.8997" lon="4.6896">
        <ele>247.26147</ele>
        <time>2023-04-24T12:52:41.000Z</time>
      </trkpt>
      <trkpt lat="45.8997" lon="4.68954">
        <ele>247.81604</ele>
        <time>2023-04-24T12:52:42.000Z</time>
      </trkpt>
      <trkpt lat="45.8997" lon="4.68948">
        <ele>248.42929</ele>
        <time>2023-04-24T12:52:43.000Z</time>
      </trkpt>
      <trkpt lat="45.89971" lon="4.68942">
        <ele>249.32051</ele>
        <time>2023-04-24T12:52:44.000Z</time>
      </trkpt>
      <trkpt lat="45.89971" lon="4.68936">
        <ele>250.3918</ele>
        <time>2023-04-24T12:52:45.000Z</time>
      </trkpt>
      <trkpt lat="45.89971" lon="4.6893">
        <ele>250.60478</ele>
        <time>2023-04-24T12:52:46.000Z</time>
      </trkpt>
      <trkpt lat="45.89972" lon="4.68923">
        <ele>250.27242</ele>
        <time>2023-04-24T12:52:47.000Z</time>
      </trkpt>
      <trkpt lat="45.89972" lon="4.68918">
        <ele>249.95793</ele>
        <time>2023-04-24T12:52:48.000Z</time>
      </trkpt>
      <trkpt lat="45.89972" lon="4.68912">
        <ele>249.64677</ele>
        <time>2023-04-24T12:52:49.000Z</time>
      </trkpt>
      <trkpt lat="45.89972" lon="4.68907">
        <ele>249.31441</ele>
        <time>2023-04-24T12:52:50.000Z</time>
      </trkpt>
      <trkpt lat="45.89972" lon="4.68901">
        <ele>248.75969</ele>
        <time>2023-04-24T12:52:51.000Z</time>
      </trkpt>
      <trkpt lat="45.89972" lon="4.68896">
        <ele>249.19368</ele>
        <time>2023-04-24T12:52:52.000Z</time>
      </trkpt>
      <trkpt lat="45.89971" lon="4.68892">
        <ele>249.49028</ele>
        <time>2023-04-24T12:52:53.000Z</time>
      </trkpt>
      <trkpt lat="45.89969" lon="4.68887">
        <ele>249.79404</ele>
        <time>2023-04-24T12:52:54.000Z</time>
      </trkpt>
      <trkpt lat="45.89966" lon="4.68883">
        <ele>250.03061</ele>
        <time>2023-04-24T12:52:55.000Z</time>
      </trkpt>
      <trkpt lat="45.89964" lon="4.6888">
        <ele>250.29158</ele>
        <time>2023-04-24T12:52:56.000Z</time>
      </trkpt>
      <trkpt lat="45.89961" lon="4.68877">
        <ele>250.4572</ele>
        <time>2023-04-24T12:52:57.000Z</time>
      </trkpt>
      <trkpt lat="45.89958" lon="4.68874">
        <ele>250.64481</ele>
        <time>2023-04-24T12:52:58.000Z</time>
      </trkpt>
      <trkpt lat="45.89955" lon="4.6887">
        <ele>250.91965</ele>
        <time>2023-04-24T12:52:59.000Z</time>
      </trkpt>
      <trkpt lat="45.89953" lon="4.68866">
        <ele>251.11551</ele>
        <time>2023-04-24T12:53:00.000Z</time>
      </trkpt>
      <trkpt lat="45.89951" lon="4.68862">
        <ele>251.2175</ele>
        <time>2023-04-24T12:53:01.000Z</time>
      </trkpt>
      <trkpt lat="45.89949" lon="4.68857">
        <ele>251.354</ele>
        <time>2023-04-24T12:53:02.000Z</time>
      </trkpt>
      <trkpt lat="45.89947" lon="4.68853">
        <ele>251.50644</ele>
        <time>2023-04-24T12:53:03.000Z</time>
      </trkpt>
      <trkpt lat="45.89947" lon="4.68848">
        <ele>251.51408</ele>
        <time>2023-04-24T12:53:04.000Z</time>
      </trkpt>
      <trkpt lat="45.89946" lon="4.68843">
        <ele>251.50574</ele>
        <time>2023-04-24T12:53:05.000Z</time>
      </trkpt>
      <trkpt lat="45.89945" lon="4.68837">
        <ele>251.45003</ele>
        <time>2023-04-24T12:53:06.000Z</time>
      </trkpt>
      <trkpt lat="45.89945" lon="4.68832">
        <ele>251.98935</ele>
        <time>2023-04-24T12:53:07.000Z</time>
      </trkpt>
      <trkpt lat="45.89945" lon="4.68826">
        <ele>251.87764</ele>
        <time>2023-04-24T12:53:08.000Z</time>
      </trkpt>
      <trkpt lat="45.89944" lon="4.68822">
        <ele>251.70718</ele>
        <time>2023-04-24T12:53:09.000Z</time>
      </trkpt>
      <trkpt lat="45.89944" lon="4.68818">
        <ele>251.45914</ele>
        <time>2023-04-24T12:53:10.000Z</time>
      </trkpt>
      <trkpt lat="45.89944" lon="4.68814">
        <ele>252.34648</ele>
        <time>2023-04-24T12:53:11.000Z</time>
      </trkpt>
      <trkpt lat="45.89944" lon="4.6881">
        <ele>252.11288</ele>
        <time>2023-04-24T12:53:12.000Z</time>
      </trkpt>
      <trkpt lat="45.89944" lon="4.68806">
        <ele>252.07243</ele>
        <time>2023-04-24T12:53:13.000Z</time>
      </trkpt>
      <trkpt lat="45.89943" lon="4.68802">
        <ele>251.97037</ele>
        <time>2023-04-24T12:53:14.000Z</time>
      </trkpt>
      <trkpt lat="45.89943" lon="4.68799">
        <ele>251.94894</ele>
        <time>2023-04-24T12:53:15.000Z</time>
      </trkpt>
      <trkpt lat="45.89943" lon="4.68796">
        <ele>251.89294</ele>
        <time>2023-04-24T12:53:16.000Z</time>
      </trkpt>
      <trkpt lat="45.8994" lon="4.68792">
        <ele>251.27095</ele>
        <time>2023-04-24T12:53:18.000Z</time>
      </trkpt>
      <trkpt lat="45.89938" lon="4.68793">
        <ele>250.43974</ele>
        <time>2023-04-24T12:53:19.000Z</time>
      </trkpt>
      <trkpt lat="45.89937" lon="4.68797">
        <ele>250.57671</ele>
        <time>2023-04-24T12:53:20.000Z</time>
      </trkpt>
      <trkpt lat="45.89938" lon="4.68801">
        <ele>250.69841</ele>
        <time>2023-04-24T12:53:21.000Z</time>
      </trkpt>
      <trkpt lat="45.89939" lon="4.68806">
        <ele>250.85493</ele>
        <time>2023-04-24T12:53:22.000Z</time>
      </trkpt>
      <trkpt lat="45.89939" lon="4.68811">
        <ele>250.94734</ele>
        <time>2023-04-24T12:53:23.000Z</time>
      </trkpt>
      <trkpt lat="45.89939" lon="4.68816">
        <ele>251.03745</ele>
        <time>2023-04-24T12:53:24.000Z</time>
      </trkpt>
      <trkpt lat="45.8994" lon="4.68822">
        <ele>251.26187</ele>
        <time>2023-04-24T12:53:25.000Z</time>
      </trkpt>
      <trkpt lat="45.89941" lon="4.68828">
        <ele>251.43279</ele>
        <time>2023-04-24T12:53:26.000Z</time>
      </trkpt>
      <trkpt lat="45.89942" lon="4.68834">
        <ele>251.59961</ele>
        <time>2023-04-24T12:53:27.000Z</time>
      </trkpt>
      <trkpt lat="45.89943" lon="4.68839">
        <ele>251.73686</ele>
        <time>2023-04-24T12:53:28.000Z</time>
      </trkpt>
      <trkpt lat="45.89944" lon="4.68845">
        <ele>252.5407</ele>
        <time>2023-04-24T12:53:29.000Z</time>
      </trkpt>
      <trkpt lat="45.89944" lon="4.68851">
        <ele>252.75815</ele>
        <time>2023-04-24T12:53:30.000Z</time>
      </trkpt>
      <trkpt lat="45.89944" lon="4.68856">
        <ele>253.05453</ele>
        <time>2023-04-24T12:53:31.000Z</time>
      </trkpt>
      <trkpt lat="45.89938" lon="4.68854">
        <ele>252.38187</ele>
        <time>2023-04-24T12:53:32.000Z</time>
      </trkpt>
      <trkpt lat="45.89935" lon="4.6885">
        <ele>251.82437</ele>
        <time>2023-04-24T12:53:33.000Z</time>
      </trkpt>
      <trkpt lat="45.89931" lon="4.68845">
        <ele>251.08456</ele>
        <time>2023-04-24T12:53:34.000Z</time>
      </trkpt>
      <trkpt lat="45.89927" lon="4.68841">
        <ele>251.28442</ele>
        <time>2023-04-24T12:53:35.000Z</time>
      </trkpt>
      <trkpt lat="45.89922" lon="4.68836">
        <ele>251.24785</ele>
        <time>2023-04-24T12:53:36.000Z</time>
      </trkpt>
      <trkpt lat="45.89918" lon="4.6883">
        <ele>251.21692</ele>
        <time>2023-04-24T12:53:37.000Z</time>
      </trkpt>
      <trkpt lat="45.89913" lon="4.68825">
        <ele>251.78833</ele>
        <time>2023-04-24T12:53:38.000Z</time>
      </trkpt>
      <trkpt lat="45.89909" lon="4.68819">
        <ele>252.5535</ele>
        <time>2023-04-24T12:53:39.000Z</time>
      </trkpt>
      <trkpt lat="45.89905" lon="4.68812">
        <ele>252.29707</ele>
        <time>2023-04-24T12:53:40.000Z</time>
      </trkpt>
      <trkpt lat="45.899" lon="4.68806">
        <ele>252.09956</ele>
        <time>2023-04-24T12:53:41.000Z</time>
      </trkpt>
      <trkpt lat="45.89895" lon="4.688">
        <ele>251.93156</ele>
        <time>2023-04-24T12:53:42.000Z</time>
      </trkpt>
      <trkpt lat="45.89891" lon="4.68795">
        <ele>251.85298</ele>
        <time>2023-04-24T12:53:43.000Z</time>
      </trkpt>
      <trkpt lat="45.89887" lon="4.68789">
        <ele>251.73581</ele>
        <time>2023-04-24T12:53:44.000Z</time>
      </trkpt>
      <trkpt lat="45.89884" lon="4.68784">
        <ele>251.61789</ele>
        <time>2023-04-24T12:53:45.000Z</time>
      </trkpt>
      <trkpt lat="45.8988" lon="4.68779">
        <ele>251.56807</ele>
        <time>2023-04-24T12:53:46.000Z</time>
      </trkpt>
      <trkpt lat="45.89877" lon="4.68774">
        <ele>251.48042</ele>
        <time>2023-04-24T12:53:47.000Z</time>
      </trkpt>
      <trkpt lat="45.89873" lon="4.6877">
        <ele>251.44865</ele>
        <time>2023-04-24T12:53:48.000Z</time>
      </trkpt>
      <trkpt lat="45.8987" lon="4.68765">
        <ele>251.40865</ele>
        <time>2023-04-24T12:53:49.000Z</time>
      </trkpt>
      <trkpt lat="45.89866" lon="4.68761">
        <ele>252.00349</ele>
        <time>2023-04-24T12:53:50.000Z</time>
      </trkpt>
      <trkpt lat="45.89863" lon="4.68757">
        <ele>252.60966</ele>
        <time>2023-04-24T12:53:51.000Z</time>
      </trkpt>
      <trkpt lat="45.89859" lon="4.68754">
        <ele>253.20483</ele>
        <time>2023-04-24T12:53:52.000Z</time>
      </trkpt>
      <trkpt lat="45.89855" lon="4.68751">
        <ele>253.7955</ele>
        <time>2023-04-24T12:53:53.000Z</time>
      </trkpt>
      <trkpt lat="45.89851" lon="4.6875">
        <ele>254.53516</ele>
        <time>2023-04-24T12:53:54.000Z</time>
      </trkpt>
      <trkpt lat="45.89847" lon="4.68748">
        <ele>254.3663</ele>
        <time>2023-04-24T12:53:55.000Z</time>
      </trkpt>
      <trkpt lat="45.89843" lon="4.68745">
        <ele>254.40207</ele>
        <time>2023-04-24T12:53:56.000Z</time>
      </trkpt>
      <trkpt lat="45.89839" lon="4.68743">
        <ele>254.39111</ele>
        <time>2023-04-24T12:53:57.000Z</time>
      </trkpt>
      <trkpt lat="45.89835" lon="4.6874">
        <ele>254.37891</ele>
        <time>2023-04-24T12:53:58.000Z</time>
      </trkpt>
      <trkpt lat="45.89831" lon="4.68736">
        <ele>254.38156</ele>
        <time>2023-04-24T12:53:59.000Z</time>
      </trkpt>
      <trkpt lat="45.89828" lon="4.68733">
        <ele>254.43359</ele>
        <time>2023-04-24T12:54:00.000Z</time>
      </trkpt>
      <trkpt lat="45.89824" lon="4.6873">
        <ele>254.52129</ele>
        <time>2023-04-24T12:54:01.000Z</time>
      </trkpt>
      <trkpt lat="45.89821" lon="4.68727">
        <ele>254.5966</ele>
        <time>2023-04-24T12:54:02.000Z</time>
      </trkpt>
      <trkpt lat="45.89818" lon="4.68723">
        <ele>254.6208</ele>
        <time>2023-04-24T12:54:03.000Z</time>
      </trkpt>
      <trkpt lat="45.89815" lon="4.68719">
        <ele>254.2157</ele>
        <time>2023-04-24T12:54:04.000Z</time>
      </trkpt>
      <trkpt lat="45.89812" lon="4.68715">
        <ele>253.81941</ele>
        <time>2023-04-24T12:54:05.000Z</time>
      </trkpt>
      <trkpt lat="45.89809" lon="4.68712">
        <ele>253.44182</ele>
        <time>2023-04-24T12:54:06.000Z</time>
      </trkpt>
      <trkpt lat="45.89806" lon="4.68708">
        <ele>253.09842</ele>
        <time>2023-04-24T12:54:07.000Z</time>
      </trkpt>
      <trkpt lat="45.89804" lon="4.68705">
        <ele>252.76216</ele>
        <time>2023-04-24T12:54:08.000Z</time>
      </trkpt>
      <trkpt lat="45.89801" lon="4.68701">
        <ele>252.67441</ele>
        <time>2023-04-24T12:54:09.000Z</time>
      </trkpt>
      <trkpt lat="45.89799" lon="4.68698">
        <ele>252.58057</ele>
        <time>2023-04-24T12:54:10.000Z</time>
      </trkpt>
      <trkpt lat="45.89796" lon="4.68695">
        <ele>251.90759</ele>
        <time>2023-04-24T12:54:11.000Z</time>
      </trkpt>
      <trkpt lat="45.89793" lon="4.68693">
        <ele>251.22932</ele>
        <time>2023-04-24T12:54:12.000Z</time>
      </trkpt>
      <trkpt lat="45.8979" lon="4.68691">
        <ele>251.51363</ele>
        <time>2023-04-24T12:54:13.000Z</time>
      </trkpt>
      <trkpt lat="45.89787" lon="4.6869">
        <ele>251.61002</ele>
        <time>2023-04-24T12:54:14.000Z</time>
      </trkpt>
      <trkpt lat="45.89785" lon="4.6869">
        <ele>251.68668</ele>
        <time>2023-04-24T12:54:15.000Z</time>
      </trkpt>
      <trkpt lat="45.89783" lon="4.68691">
        <ele>251.72815</ele>
        <time>2023-04-24T12:54:16.000Z</time>
      </trkpt>
      <trkpt lat="45.89781" lon="4.68691">
        <ele>251.81006</ele>
        <time>2023-04-24T12:54:17.000Z</time>
      </trkpt>
      <trkpt lat="45.89778" lon="4.68692">
        <ele>251.87259</ele>
        <time>2023-04-24T12:54:18.000Z</time>
      </trkpt>
      <trkpt lat="45.89774" lon="4.68693">
        <ele>251.9169</ele>
        <time>2023-04-24T12:54:19.000Z</time>
      </trkpt>
      <trkpt lat="45.8977" lon="4.68694">
        <ele>251.8851</ele>
        <time>2023-04-24T12:54:20.000Z</time>
      </trkpt>
      <trkpt lat="45.89767" lon="4.68696">
        <ele>251.83711</ele>
        <time>2023-04-24T12:54:21.000Z</time>
      </trkpt>
      <trkpt lat="45.89764" lon="4.68697">
        <ele>251.76103</ele>
        <time>2023-04-24T12:54:22.000Z</time>
      </trkpt>
      <trkpt lat="45.89761" lon="4.68698">
        <ele>251.67497</ele>
        <time>2023-04-24T12:54:23.000Z</time>
      </trkpt>
      <trkpt lat="45.89758" lon="4.68699">
        <ele>251.98209</ele>
        <time>2023-04-24T12:54:24.000Z</time>
      </trkpt>
      <trkpt lat="45.89754" lon="4.687">
        <ele>251.83858</ele>
        <time>2023-04-24T12:54:25.000Z</time>
      </trkpt>
      <trkpt lat="45.89751" lon="4.68701">
        <ele>251.66458</ele>
        <time>2023-04-24T12:54:26.000Z</time>
      </trkpt>
      <trkpt lat="45.89748" lon="4.68701">
        <ele>251.16997</ele>
        <time>2023-04-24T12:54:27.000Z</time>
      </trkpt>
      <trkpt lat="45.89746" lon="4.68701">
        <ele>251.56888</ele>
        <time>2023-04-24T12:54:28.000Z</time>
      </trkpt>
      <trkpt lat="45.89743" lon="4.68701">
        <ele>251.53775</ele>
        <time>2023-04-24T12:54:29.000Z</time>
      </trkpt>
      <trkpt lat="45.89741" lon="4.68701">
        <ele>251.5013</ele>
        <time>2023-04-24T12:54:30.000Z</time>
      </trkpt>
      <trkpt lat="45.89738" lon="4.687">
        <ele>252.02458</ele>
        <time>2023-04-24T12:54:31.000Z</time>
      </trkpt>
      <trkpt lat="45.89735" lon="4.687">
        <ele>252.40788</ele>
        <time>2023-04-24T12:54:32.000Z</time>
      </trkpt>
      <trkpt lat="45.89731" lon="4.68699">
        <ele>251.86589</ele>
        <time>2023-04-24T12:54:33.000Z</time>
      </trkpt>
      <trkpt lat="45.89727" lon="4.68699">
        <ele>251.62381</ele>
        <time>2023-04-24T12:54:34.000Z</time>
      </trkpt>
      <trkpt lat="45.89722" lon="4.68698">
        <ele>251.36771</ele>
        <time>2023-04-24T12:54:35.000Z</time>
      </trkpt>
      <trkpt lat="45.89718" lon="4.68697">
        <ele>251.1123</ele>
        <time>2023-04-24T12:54:36.000Z</time>
      </trkpt>
      <trkpt lat="45.89714" lon="4.68695">
        <ele>250.45779</ele>
        <time>2023-04-24T12:54:37.000Z</time>
      </trkpt>
      <trkpt lat="45.89711" lon="4.68692">
        <ele>249.62053</ele>
        <time>2023-04-24T12:54:38.000Z</time>
      </trkpt>
      <trkpt lat="45.89707" lon="4.68687">
        <ele>248.81221</ele>
        <time>2023-04-24T12:54:39.000Z</time>
      </trkpt>
      <trkpt lat="45.89704" lon="4.68683">
        <ele>247.99173</ele>
        <time>2023-04-24T12:54:40.000Z</time>
      </trkpt>
      <trkpt lat="45.89701" lon="4.68679">
        <ele>247.35828</ele>
        <time>2023-04-24T12:54:41.000Z</time>
      </trkpt>
      <trkpt lat="45.89698" lon="4.68675">
        <ele>246.73438</ele>
        <time>2023-04-24T12:54:42.000Z</time>
      </trkpt>
      <trkpt lat="45.89695" lon="4.68671">
        <ele>245.84512</ele>
        <time>2023-04-24T12:54:43.000Z</time>
      </trkpt>
      <trkpt lat="45.89692" lon="4.68667">
        <ele>244.94829</ele>
        <time>2023-04-24T12:54:44.000Z</time>
      </trkpt>
      <trkpt lat="45.8969" lon="4.68664">
        <ele>245.30339</ele>
        <time>2023-04-24T12:54:45.000Z</time>
      </trkpt>
      <trkpt lat="45.89687" lon="4.6866">
        <ele>245.50542</ele>
        <time>2023-04-24T12:54:46.000Z</time>
      </trkpt>
      <trkpt lat="45.89685" lon="4.68656">
        <ele>245.98166</ele>
        <time>2023-04-24T12:54:47.000Z</time>
      </trkpt>
      <trkpt lat="45.89683" lon="4.68652">
        <ele>245.58963</ele>
        <time>2023-04-24T12:54:48.000Z</time>
      </trkpt>
      <trkpt lat="45.89681" lon="4.6865">
        <ele>245.40764</ele>
        <time>2023-04-24T12:54:49.000Z</time>
      </trkpt>
      <trkpt lat="45.89679" lon="4.68648">
        <ele>245.18169</ele>
        <time>2023-04-24T12:54:50.000Z</time>
      </trkpt>
      <trkpt lat="45.89678" lon="4.68647">
        <ele>244.95895</ele>
        <time>2023-04-24T12:54:51.000Z</time>
      </trkpt>
      <trkpt lat="45.89676" lon="4.68648">
        <ele>244.91086</ele>
        <time>2023-04-24T12:54:53.000Z</time>
      </trkpt>
      <trkpt lat="45.89674" lon="4.6865">
        <ele>244.8243</ele>
        <time>2023-04-24T12:54:55.000Z</time>
      </trkpt>
      <trkpt lat="45.89671" lon="4.6865">
        <ele>244.22446</ele>
        <time>2023-04-24T12:55:00.000Z</time>
      </trkpt>
      <trkpt lat="45.8967" lon="4.68652">
        <ele>243.65076</ele>
        <time>2023-04-24T12:55:34.000Z</time>
      </trkpt>
      <trkpt lat="45.89668" lon="4.68653">
        <ele>243.07193</ele>
        <time>2023-04-24T12:55:35.000Z</time>
      </trkpt>
      <trkpt lat="45.89665" lon="4.68653">
        <ele>242.94356</ele>
        <time>2023-04-24T12:55:36.000Z</time>
      </trkpt>
      <trkpt lat="45.89663" lon="4.68654">
        <ele>243.02219</ele>
        <time>2023-04-24T12:55:37.000Z</time>
      </trkpt>
      <trkpt lat="45.8966" lon="4.68655">
        <ele>243.14558</ele>
        <time>2023-04-24T12:55:38.000Z</time>
      </trkpt>
      <trkpt lat="45.89657" lon="4.68655">
        <ele>243.02336</ele>
        <time>2023-04-24T12:55:39.000Z</time>
      </trkpt>
      <trkpt lat="45.89655" lon="4.68656">
        <ele>242.70515</ele>
        <time>2023-04-24T12:55:40.000Z</time>
      </trkpt>
      <trkpt lat="45.89652" lon="4.68656">
        <ele>243.24495</ele>
        <time>2023-04-24T12:55:41.000Z</time>
      </trkpt>
      <trkpt lat="45.89649" lon="4.68657">
        <ele>243.89868</ele>
        <time>2023-04-24T12:55:42.000Z</time>
      </trkpt>
      <trkpt lat="45.89646" lon="4.68657">
        <ele>244.53694</ele>
        <time>2023-04-24T12:55:43.000Z</time>
      </trkpt>
      <trkpt lat="45.89643" lon="4.68657">
        <ele>244.35991</ele>
        <time>2023-04-24T12:55:44.000Z</time>
      </trkpt>
      <trkpt lat="45.89641" lon="4.68658">
        <ele>245.36031</ele>
        <time>2023-04-24T12:55:45.000Z</time>
      </trkpt>
      <trkpt lat="45.89638" lon="4.68659">
        <ele>246.40512</ele>
        <time>2023-04-24T12:55:46.000Z</time>
      </trkpt>
      <trkpt lat="45.89635" lon="4.68662">
        <ele>247.36201</ele>
        <time>2023-04-24T12:55:47.000Z</time>
      </trkpt>
      <trkpt lat="45.89632" lon="4.68665">
        <ele>248.28413</ele>
        <time>2023-04-24T12:55:48.000Z</time>
      </trkpt>
      <trkpt lat="45.8963" lon="4.68668">
        <ele>249.18118</ele>
        <time>2023-04-24T12:55:49.000Z</time>
      </trkpt>
      <trkpt lat="45.89627" lon="4.68672">
        <ele>249.97714</ele>
        <time>2023-04-24T12:55:50.000Z</time>
      </trkpt>
      <trkpt lat="45.89625" lon="4.68676">
        <ele>249.77487</ele>
        <time>2023-04-24T12:55:51.000Z</time>
      </trkpt>
      <trkpt lat="45.89624" lon="4.68681">
        <ele>249.62968</ele>
        <time>2023-04-24T12:55:52.000Z</time>
      </trkpt>
      <trkpt lat="45.89622" lon="4.68686">
        <ele>249.86697</ele>
        <time>2023-04-24T12:55:53.000Z</time>
      </trkpt>
      <trkpt lat="45.89621" lon="4.68691">
        <ele>250.11613</ele>
        <time>2023-04-24T12:55:54.000Z</time>
      </trkpt>
      <trkpt lat="45.89619" lon="4.68696">
        <ele>250.35384</ele>
        <time>2023-04-24T12:55:55.000Z</time>
      </trkpt>
      <trkpt lat="45.89618" lon="4.68701">
        <ele>250.58115</ele>
        <time>2023-04-24T12:55:56.000Z</time>
      </trkpt>
      <trkpt lat="45.89617" lon="4.68706">
        <ele>250.75806</ele>
        <time>2023-04-24T12:55:57.000Z</time>
      </trkpt>
      <trkpt lat="45.89616" lon="4.68711">
        <ele>250.89615</ele>
        <time>2023-04-24T12:55:58.000Z</time>
      </trkpt>
      <trkpt lat="45.89615" lon="4.68716">
        <ele>251.2803</ele>
        <time>2023-04-24T12:55:59.000Z</time>
      </trkpt>
      <trkpt lat="45.89614" lon="4.6872">
        <ele>251.72025</ele>
        <time>2023-04-24T12:56:00.000Z</time>
      </trkpt>
      <trkpt lat="45.89613" lon="4.68725">
        <ele>251.32895</ele>
        <time>2023-04-24T12:56:01.000Z</time>
      </trkpt>
      <trkpt lat="45.89612" lon="4.6873">
        <ele>251.13205</ele>
        <time>2023-04-24T12:56:02.000Z</time>
      </trkpt>
      <trkpt lat="45.89611" lon="4.68735">
        <ele>250.98787</ele>
        <time>2023-04-24T12:56:03.000Z</time>
      </trkpt>
      <trkpt lat="45.8961" lon="4.6874">
        <ele>250.86983</ele>
        <time>2023-04-24T12:56:04.000Z</time>
      </trkpt>
      <trkpt lat="45.89608" lon="4.68745">
        <ele>249.72714</ele>
        <time>2023-04-24T12:56:05.000Z</time>
      </trkpt>
      <trkpt lat="45.89607" lon="4.68749">
        <ele>248.59135</ele>
        <time>2023-04-24T12:56:06.000Z</time>
      </trkpt>
      <trkpt lat="45.89606" lon="4.68753">
        <ele>247.54221</ele>
        <time>2023-04-24T12:56:07.000Z</time>
      </trkpt>
      <trkpt lat="45.89605" lon="4.68758">
        <ele>246.46988</ele>
        <time>2023-04-24T12:56:08.000Z</time>
      </trkpt>
      <trkpt lat="45.89605" lon="4.68763">
        <ele>245.43997</ele>
        <time>2023-04-24T12:56:09.000Z</time>
      </trkpt>
      <trkpt lat="45.89604" lon="4.68767">
        <ele>244.49243</ele>
        <time>2023-04-24T12:56:10.000Z</time>
      </trkpt>
      <trkpt lat="45.89604" lon="4.68772">
        <ele>244.53366</ele>
        <time>2023-04-24T12:56:11.000Z</time>
      </trkpt>
      <trkpt lat="45.89603" lon="4.68777">
        <ele>244.53325</ele>
        <time>2023-04-24T12:56:12.000Z</time>
      </trkpt>
      <trkpt lat="45.89603" lon="4.68781">
        <ele>244.50729</ele>
        <time>2023-04-24T12:56:13.000Z</time>
      </trkpt>
      <trkpt lat="45.89602" lon="4.68785">
        <ele>244.49228</ele>
        <time>2023-04-24T12:56:14.000Z</time>
      </trkpt>
      <trkpt lat="45.89601" lon="4.68789">
        <ele>244.50505</ele>
        <time>2023-04-24T12:56:15.000Z</time>
      </trkpt>
      <trkpt lat="45.896" lon="4.68794">
        <ele>244.51945</ele>
        <time>2023-04-24T12:56:16.000Z</time>
      </trkpt>
      <trkpt lat="45.896" lon="4.68798">
        <ele>244.58345</ele>
        <time>2023-04-24T12:56:17.000Z</time>
      </trkpt>
      <trkpt lat="45.89599" lon="4.68803">
        <ele>244.62715</ele>
        <time>2023-04-24T12:56:18.000Z</time>
      </trkpt>
      <trkpt lat="45.89597" lon="4.68807">
        <ele>244.71396</ele>
        <time>2023-04-24T12:56:19.000Z</time>
      </trkpt>
      <trkpt lat="45.89595" lon="4.68811">
        <ele>244.75337</ele>
        <time>2023-04-24T12:56:20.000Z</time>
      </trkpt>
      <trkpt lat="45.89591" lon="4.68813">
        <ele>244.82918</ele>
        <time>2023-04-24T12:56:21.000Z</time>
      </trkpt>
      <trkpt lat="45.89587" lon="4.68814">
        <ele>244.86372</ele>
        <time>2023-04-24T12:56:22.000Z</time>
      </trkpt>
      <trkpt lat="45.89584" lon="4.68814">
        <ele>244.94931</ele>
        <time>2023-04-24T12:56:23.000Z</time>
      </trkpt>
      <trkpt lat="45.8958" lon="4.68815">
        <ele>244.95889</ele>
        <time>2023-04-24T12:56:24.000Z</time>
      </trkpt>
      <trkpt lat="45.89577" lon="4.68817">
        <ele>244.97607</ele>
        <time>2023-04-24T12:56:25.000Z</time>
      </trkpt>
      <trkpt lat="45.89573" lon="4.68818">
        <ele>245.00125</ele>
        <time>2023-04-24T12:56:26.000Z</time>
      </trkpt>
      <trkpt lat="45.89569" lon="4.68819">
        <ele>245.05161</ele>
        <time>2023-04-24T12:56:27.000Z</time>
      </trkpt>
      <trkpt lat="45.89566" lon="4.6882">
        <ele>245.10611</ele>
        <time>2023-04-24T12:56:28.000Z</time>
      </trkpt>
      <trkpt lat="45.89562" lon="4.68821">
        <ele>245.19662</ele>
        <time>2023-04-24T12:56:29.000Z</time>
      </trkpt>
      <trkpt lat="45.89558" lon="4.68823">
        <ele>245.3405</ele>
        <time>2023-04-24T12:56:30.000Z</time>
      </trkpt>
      <trkpt lat="45.89555" lon="4.68825">
        <ele>245.45987</ele>
        <time>2023-04-24T12:56:31.000Z</time>
      </trkpt>
      <trkpt lat="45.89551" lon="4.68826">
        <ele>245.59134</ele>
        <time>2023-04-24T12:56:32.000Z</time>
      </trkpt>
      <trkpt lat="45.89548" lon="4.68828">
        <ele>245.75809</ele>
        <time>2023-04-24T12:56:33.000Z</time>
      </trkpt>
      <trkpt lat="45.89544" lon="4.6883">
        <ele>245.89336</ele>
        <time>2023-04-24T12:56:34.000Z</time>
      </trkpt>
      <trkpt lat="45.89541" lon="4.68832">
        <ele>246.00764</ele>
        <time>2023-04-24T12:56:35.000Z</time>
      </trkpt>
      <trkpt lat="45.89538" lon="4.68834">
        <ele>246.11397</ele>
        <time>2023-04-24T12:56:36.000Z</time>
      </trkpt>
      <trkpt lat="45.89535" lon="4.68835">
        <ele>246.18364</ele>
        <time>2023-04-24T12:56:37.000Z</time>
      </trkpt>
      <trkpt lat="45.89532" lon="4.68836">
        <ele>246.23459</ele>
        <time>2023-04-24T12:56:38.000Z</time>
      </trkpt>
      <trkpt lat="45.89528" lon="4.68837">
        <ele>246.26143</ele>
        <time>2023-04-24T12:56:39.000Z</time>
      </trkpt>
      <trkpt lat="45.89524" lon="4.68838">
        <ele>246.26599</ele>
        <time>2023-04-24T12:56:40.000Z</time>
      </trkpt>
      <trkpt lat="45.89521" lon="4.68835">
        <ele>246.22798</ele>
        <time>2023-04-24T12:56:41.000Z</time>
      </trkpt>
      <trkpt lat="45.89517" lon="4.68833">
        <ele>246.18733</ele>
        <time>2023-04-24T12:56:42.000Z</time>
      </trkpt>
      <trkpt lat="45.89513" lon="4.68831">
        <ele>246.14932</ele>
        <time>2023-04-24T12:56:43.000Z</time>
      </trkpt>
      <trkpt lat="45.89509" lon="4.68829">
        <ele>246.18132</ele>
        <time>2023-04-24T12:56:44.000Z</time>
      </trkpt>
      <trkpt lat="45.89505" lon="4.68827">
        <ele>246.19144</ele>
        <time>2023-04-24T12:56:45.000Z</time>
      </trkpt>
      <trkpt lat="45.89501" lon="4.68825">
        <ele>246.23135</ele>
        <time>2023-04-24T12:56:46.000Z</time>
      </trkpt>
      <trkpt lat="45.89497" lon="4.68823">
        <ele>246.245</ele>
        <time>2023-04-24T12:56:47.000Z</time>
      </trkpt>
      <trkpt lat="45.89493" lon="4.68821">
        <ele>246.24142</ele>
        <time>2023-04-24T12:56:48.000Z</time>
      </trkpt>
      <trkpt lat="45.89489" lon="4.68818">
        <ele>246.24873</ele>
        <time>2023-04-24T12:56:49.000Z</time>
      </trkpt>
      <trkpt lat="45.89485" lon="4.68815">
        <ele>246.25803</ele>
        <time>2023-04-24T12:56:50.000Z</time>
      </trkpt>
      <trkpt lat="45.89482" lon="4.68813">
        <ele>246.36551</ele>
        <time>2023-04-24T12:56:51.000Z</time>
      </trkpt>
      <trkpt lat="45.89479" lon="4.68809">
        <ele>246.44797</ele>
        <time>2023-04-24T12:56:52.000Z</time>
      </trkpt>
      <trkpt lat="45.89475" lon="4.68805">
        <ele>246.60767</ele>
        <time>2023-04-24T12:56:53.000Z</time>
      </trkpt>
      <trkpt lat="45.89472" lon="4.688">
        <ele>246.79642</ele>
        <time>2023-04-24T12:56:54.000Z</time>
      </trkpt>
      <trkpt lat="45.89469" lon="4.68795">
        <ele>247.00452</ele>
        <time>2023-04-24T12:56:55.000Z</time>
      </trkpt>
      <trkpt lat="45.89466" lon="4.68789">
        <ele>247.19986</ele>
        <time>2023-04-24T12:56:56.000Z</time>
      </trkpt>
      <trkpt lat="45.89463" lon="4.68784">
        <ele>247.41426</ele>
        <time>2023-04-24T12:56:57.000Z</time>
      </trkpt>
      <trkpt lat="45.89461" lon="4.68778">
        <ele>247.67606</ele>
        <time>2023-04-24T12:56:58.000Z</time>
      </trkpt>
      <trkpt lat="45.89459" lon="4.68773">
        <ele>247.97861</ele>
        <time>2023-04-24T12:56:59.000Z</time>
      </trkpt>
      <trkpt lat="45.89457" lon="4.68767">
        <ele>248.36099</ele>
        <time>2023-04-24T12:57:00.000Z</time>
      </trkpt>
      <trkpt lat="45.89457" lon="4.68762">
        <ele>248.68872</ele>
        <time>2023-04-24T12:57:01.000Z</time>
      </trkpt>
      <trkpt lat="45.89456" lon="4.68757">
        <ele>248.49101</ele>
        <time>2023-04-24T12:57:02.000Z</time>
      </trkpt>
      <trkpt lat="45.89455" lon="4.68753">
        <ele>248.26103</ele>
        <time>2023-04-24T12:57:03.000Z</time>
      </trkpt>
      <trkpt lat="45.89455" lon="4.68748">
        <ele>247.92224</ele>
        <time>2023-04-24T12:57:04.000Z</time>
      </trkpt>
      <trkpt lat="45.89455" lon="4.68743">
        <ele>248.52835</ele>
        <time>2023-04-24T12:57:05.000Z</time>
      </trkpt>
      <trkpt lat="45.89455" lon="4.68739">
        <ele>248.89804</ele>
        <time>2023-04-24T12:57:06.000Z</time>
      </trkpt>
      <trkpt lat="45.89455" lon="4.68734">
        <ele>249.25786</ele>
        <time>2023-04-24T12:57:07.000Z</time>
      </trkpt>
      <trkpt lat="45.89455" lon="4.68729">
        <ele>249.67583</ele>
        <time>2023-04-24T12:57:08.000Z</time>
      </trkpt>
      <trkpt lat="45.89455" lon="4.68725">
        <ele>250.10567</ele>
        <time>2023-04-24T12:57:09.000Z</time>
      </trkpt>
      <trkpt lat="45.89455" lon="4.6872">
        <ele>250.5334</ele>
        <time>2023-04-24T12:57:10.000Z</time>
      </trkpt>
      <trkpt lat="45.89455" lon="4.68715">
        <ele>250.85144</ele>
        <time>2023-04-24T12:57:11.000Z</time>
      </trkpt>
      <trkpt lat="45.89455" lon="4.6871">
        <ele>251.22205</ele>
        <time>2023-04-24T12:57:12.000Z</time>
      </trkpt>
      <trkpt lat="45.89454" lon="4.68705">
        <ele>251.53113</ele>
        <time>2023-04-24T12:57:13.000Z</time>
      </trkpt>
      <trkpt lat="45.89454" lon="4.687">
        <ele>251.80928</ele>
        <time>2023-04-24T12:57:14.000Z</time>
      </trkpt>
      <trkpt lat="45.89453" lon="4.68695">
        <ele>252.06482</ele>
        <time>2023-04-24T12:57:15.000Z</time>
      </trkpt>
      <trkpt lat="45.89451" lon="4.68692">
        <ele>252.37383</ele>
        <time>2023-04-24T12:57:16.000Z</time>
      </trkpt>
      <trkpt lat="45.89447" lon="4.6869">
        <ele>252.63586</ele>
        <time>2023-04-24T12:57:17.000Z</time>
      </trkpt>
      <trkpt lat="45.89444" lon="4.6869">
        <ele>252.85498</ele>
        <time>2023-04-24T12:57:18.000Z</time>
      </trkpt>
      <trkpt lat="45.89442" lon="4.68691">
        <ele>253.05136</ele>
        <time>2023-04-24T12:57:19.000Z</time>
      </trkpt>
      <trkpt lat="45.89439" lon="4.68691">
        <ele>253.2106</ele>
        <time>2023-04-24T12:57:20.000Z</time>
      </trkpt>
      <trkpt lat="45.89437" lon="4.6869">
        <ele>253.40671</ele>
        <time>2023-04-24T12:57:21.000Z</time>
      </trkpt>
      <trkpt lat="45.89435" lon="4.6869">
        <ele>254.1104</ele>
        <time>2023-04-24T12:57:22.000Z</time>
      </trkpt>
      <trkpt lat="45.89432" lon="4.6869">
        <ele>254.80252</ele>
        <time>2023-04-24T12:57:23.000Z</time>
      </trkpt>
      <trkpt lat="45.8943" lon="4.6869">
        <ele>255.58975</ele>
        <time>2023-04-24T12:57:24.000Z</time>
      </trkpt>
      <trkpt lat="45.89427" lon="4.6869">
        <ele>255.46304</ele>
        <time>2023-04-24T12:57:25.000Z</time>
      </trkpt>
      <trkpt lat="45.89426" lon="4.68692">
        <ele>255.57071</ele>
        <time>2023-04-24T12:57:26.000Z</time>
      </trkpt>
      <trkpt lat="45.89423" lon="4.68694">
        <ele>255.65076</ele>
        <time>2023-04-24T12:57:28.000Z</time>
      </trkpt>
      <trkpt lat="45.8942" lon="4.68695">
        <ele>255.66019</ele>
        <time>2023-04-24T12:57:30.000Z</time>
      </trkpt>
      <trkpt lat="45.89418" lon="4.68695">
        <ele>255.61343</ele>
        <time>2023-04-24T12:57:32.000Z</time>
      </trkpt>
      <trkpt lat="45.89414" lon="4.68696">
        <ele>255.5238</ele>
        <time>2023-04-24T12:57:34.000Z</time>
      </trkpt>
      <trkpt lat="45.89412" lon="4.68697">
        <ele>255.43784</ele>
        <time>2023-04-24T12:57:36.000Z</time>
      </trkpt>
      <trkpt lat="45.8941" lon="4.68698">
        <ele>255.28928</ele>
        <time>2023-04-24T12:57:38.000Z</time>
      </trkpt>
      <trkpt lat="45.89408" lon="4.68699">
        <ele>255.04807</ele>
        <time>2023-04-24T12:57:40.000Z</time>
      </trkpt>
      <trkpt lat="45.89406" lon="4.687">
        <ele>254.76221</ele>
        <time>2023-04-24T12:57:42.000Z</time>
      </trkpt>
      <trkpt lat="45.89404" lon="4.68701">
        <ele>254.48747</ele>
        <time>2023-04-24T12:57:43.000Z</time>
      </trkpt>
      <trkpt lat="45.89401" lon="4.68702">
        <ele>254.24947</ele>
        <time>2023-04-24T12:57:44.000Z</time>
      </trkpt>
      <trkpt lat="45.89399" lon="4.68703">
        <ele>254.0529</ele>
        <time>2023-04-24T12:57:45.000Z</time>
      </trkpt>
      <trkpt lat="45.89397" lon="4.68704">
        <ele>253.9231</ele>
        <time>2023-04-24T12:57:46.000Z</time>
      </trkpt>
      <trkpt lat="45.89395" lon="4.68704">
        <ele>253.75186</ele>
        <time>2023-04-24T12:57:47.000Z</time>
      </trkpt>
      <trkpt lat="45.89393" lon="4.68705">
        <ele>253.55525</ele>
        <time>2023-04-24T12:57:48.000Z</time>
      </trkpt>
      <trkpt lat="45.8939" lon="4.68705">
        <ele>253.37564</ele>
        <time>2023-04-24T12:57:49.000Z</time>
      </trkpt>
      <trkpt lat="45.89388" lon="4.68706">
        <ele>253.23381</ele>
        <time>2023-04-24T12:57:50.000Z</time>
      </trkpt>
      <trkpt lat="45.89385" lon="4.68707">
        <ele>253.02217</ele>
        <time>2023-04-24T12:57:51.000Z</time>
      </trkpt>
      <trkpt lat="45.89383" lon="4.68707">
        <ele>252.65259</ele>
        <time>2023-04-24T12:57:52.000Z</time>
      </trkpt>
      <trkpt lat="45.89381" lon="4.68706">
        <ele>252.22876</ele>
        <time>2023-04-24T12:57:53.000Z</time>
      </trkpt>
      <trkpt lat="45.89378" lon="4.68705">
        <ele>251.69385</ele>
        <time>2023-04-24T12:57:54.000Z</time>
      </trkpt>
      <trkpt lat="45.89375" lon="4.68706">
        <ele>251.13412</ele>
        <time>2023-04-24T12:57:55.000Z</time>
      </trkpt>
      <trkpt lat="45.89372" lon="4.68707">
        <ele>250.57942</ele>
        <time>2023-04-24T12:57:56.000Z</time>
      </trkpt>
      <trkpt lat="45.89369" lon="4.68709">
        <ele>249.90559</ele>
        <time>2023-04-24T12:57:57.000Z</time>
      </trkpt>
      <trkpt lat="45.89366" lon="4.6871">
        <ele>249.3175</ele>
        <time>2023-04-24T12:57:58.000Z</time>
      </trkpt>
      <trkpt lat="45.89362" lon="4.6871">
        <ele>248.88205</ele>
        <time>2023-04-24T12:57:59.000Z</time>
      </trkpt>
      <trkpt lat="45.89358" lon="4.68711">
        <ele>248.36841</ele>
        <time>2023-04-24T12:58:00.000Z</time>
      </trkpt>
      <trkpt lat="45.89354" lon="4.68711">
        <ele>247.95432</ele>
        <time>2023-04-24T12:58:01.000Z</time>
      </trkpt>
      <trkpt lat="45.8935" lon="4.68712">
        <ele>247.49319</ele>
        <time>2023-04-24T12:58:02.000Z</time>
      </trkpt>
      <trkpt lat="45.89342" lon="4.68721">
        <ele>247.07156</ele>
        <time>2023-04-24T12:58:03.000Z</time>
      </trkpt>
      <trkpt lat="45.89336" lon="4.68724">
        <ele>246.55486</ele>
        <time>2023-04-24T12:58:04.000Z</time>
      </trkpt>
      <trkpt lat="45.89331" lon="4.68726">
        <ele>246.08846</ele>
        <time>2023-04-24T12:58:05.000Z</time>
      </trkpt>
      <trkpt lat="45.89326" lon="4.68727">
        <ele>245.32556</ele>
        <time>2023-04-24T12:58:06.000Z</time>
      </trkpt>
      <trkpt lat="45.8932" lon="4.68732">
        <ele>244.17302</ele>
        <time>2023-04-24T12:58:07.000Z</time>
      </trkpt>
      <trkpt lat="45.89316" lon="4.68735">
        <ele>242.92307</ele>
        <time>2023-04-24T12:58:08.000Z</time>
      </trkpt>
      <trkpt lat="45.89313" lon="4.6874">
        <ele>241.84016</ele>
        <time>2023-04-24T12:58:09.000Z</time>
      </trkpt>
      <trkpt lat="45.89309" lon="4.68745">
        <ele>240.52597</ele>
        <time>2023-04-24T12:58:10.000Z</time>
      </trkpt>
      <trkpt lat="45.89307" lon="4.68749">
        <ele>240.21687</ele>
        <time>2023-04-24T12:58:11.000Z</time>
      </trkpt>
      <trkpt lat="45.89304" lon="4.68753">
        <ele>239.93747</ele>
        <time>2023-04-24T12:58:12.000Z</time>
      </trkpt>
      <trkpt lat="45.89302" lon="4.68756">
        <ele>239.72787</ele>
        <time>2023-04-24T12:58:13.000Z</time>
      </trkpt>
      <trkpt lat="45.893" lon="4.68761">
        <ele>239.69568</ele>
        <time>2023-04-24T12:58:14.000Z</time>
      </trkpt>
      <trkpt lat="45.89299" lon="4.68766">
        <ele>239.68246</ele>
        <time>2023-04-24T12:58:15.000Z</time>
      </trkpt>
      <trkpt lat="45.89298" lon="4.68769">
        <ele>239.67502</ele>
        <time>2023-04-24T12:58:16.000Z</time>
      </trkpt>
      <trkpt lat="45.89297" lon="4.68774">
        <ele>239.80771</ele>
        <time>2023-04-24T12:58:17.000Z</time>
      </trkpt>
      <trkpt lat="45.89296" lon="4.6878">
        <ele>239.90268</ele>
        <time>2023-04-24T12:58:18.000Z</time>
      </trkpt>
      <trkpt lat="45.89295" lon="4.68786">
        <ele>239.89983</ele>
        <time>2023-04-24T12:58:19.000Z</time>
      </trkpt>
      <trkpt lat="45.89295" lon="4.68791">
        <ele>239.95609</ele>
        <time>2023-04-24T12:58:20.000Z</time>
      </trkpt>
      <trkpt lat="45.89294" lon="4.68796">
        <ele>240.05496</ele>
        <time>2023-04-24T12:58:21.000Z</time>
      </trkpt>
      <trkpt lat="45.89293" lon="4.68801">
        <ele>240.27487</ele>
        <time>2023-04-24T12:58:22.000Z</time>
      </trkpt>
      <trkpt lat="45.89292" lon="4.68806">
        <ele>240.46768</ele>
        <time>2023-04-24T12:58:23.000Z</time>
      </trkpt>
      <trkpt lat="45.89291" lon="4.68809">
        <ele>240.63315</ele>
        <time>2023-04-24T12:58:24.000Z</time>
      </trkpt>
      <trkpt lat="45.8929" lon="4.68813">
        <ele>240.78813</ele>
        <time>2023-04-24T12:58:25.000Z</time>
      </trkpt>
      <trkpt lat="45.89289" lon="4.68816">
        <ele>241.19565</ele>
        <time>2023-04-24T12:58:26.000Z</time>
      </trkpt>
      <trkpt lat="45.89287" lon="4.68819">
        <ele>243.05966</ele>
        <time>2023-04-24T12:58:27.000Z</time>
      </trkpt>
      <trkpt lat="45.89286" lon="4.68822">
        <ele>245.07642</ele>
        <time>2023-04-24T12:58:29.000Z</time>
      </trkpt>
      <trkpt lat="45.89285" lon="4.68824">
        <ele>246.87573</ele>
        <time>2023-04-24T12:58:32.000Z</time>
      </trkpt>
      <trkpt lat="45.89282" lon="4.68827">
        <ele>248.98897</ele>
        <time>2023-04-24T12:59:02.000Z</time>
      </trkpt>
      <trkpt lat="45.89281" lon="4.68828">
        <ele>250.13193</ele>
        <time>2023-04-24T12:59:03.000Z</time>
      </trkpt>
      <trkpt lat="45.89279" lon="4.6883">
        <ele>251.43135</ele>
        <time>2023-04-24T12:59:04.000Z</time>
      </trkpt>
      <trkpt lat="45.89276" lon="4.68832">
        <ele>252.69458</ele>
        <time>2023-04-24T12:59:06.000Z</time>
      </trkpt>
      <trkpt lat="45.89274" lon="4.68833">
        <ele>253.86328</ele>
        <time>2023-04-24T12:59:07.000Z</time>
      </trkpt>
      <trkpt lat="45.89273" lon="4.68834">
        <ele>255.04536</ele>
        <time>2023-04-24T12:59:08.000Z</time>
      </trkpt>
      <trkpt lat="45.89269" lon="4.68834">
        <ele>256.2522</ele>
        <time>2023-04-24T12:59:10.000Z</time>
      </trkpt>
      <trkpt lat="45.89268" lon="4.68833">
        <ele>257.47076</ele>
        <time>2023-04-24T12:59:23.000Z</time>
      </trkpt>
      <trkpt lat="45.89265" lon="4.68833">
        <ele>258.65991</ele>
        <time>2023-04-24T12:59:25.000Z</time>
      </trkpt>
      <trkpt lat="45.89262" lon="4.68833">
        <ele>258.75653</ele>
        <time>2023-04-24T12:59:27.000Z</time>
      </trkpt>
      <trkpt lat="45.89259" lon="4.68831">
        <ele>258.89825</ele>
        <time>2023-04-24T12:59:29.000Z</time>
      </trkpt>
      <trkpt lat="45.89257" lon="4.68831">
        <ele>258.96835</ele>
        <time>2023-04-24T12:59:30.000Z</time>
      </trkpt>
      <trkpt lat="45.89255" lon="4.6883">
        <ele>259.01205</ele>
        <time>2023-04-24T12:59:31.000Z</time>
      </trkpt>
      <trkpt lat="45.89253" lon="4.68829">
        <ele>259.06818</ele>
        <time>2023-04-24T12:59:32.000Z</time>
      </trkpt>
      <trkpt lat="45.89251" lon="4.68828">
        <ele>259.1655</ele>
        <time>2023-04-24T12:59:33.000Z</time>
      </trkpt>
      <trkpt lat="45.89248" lon="4.68827">
        <ele>259.23822</ele>
        <time>2023-04-24T12:59:34.000Z</time>
      </trkpt>
      <trkpt lat="45.89246" lon="4.68825">
        <ele>259.32556</ele>
        <time>2023-04-24T12:59:35.000Z</time>
      </trkpt>
      <trkpt lat="45.89244" lon="4.68824">
        <ele>258.39124</ele>
        <time>2023-04-24T12:59:36.000Z</time>
      </trkpt>
      <trkpt lat="45.89242" lon="4.68823">
        <ele>257.43573</ele>
        <time>2023-04-24T12:59:37.000Z</time>
      </trkpt>
      <trkpt lat="45.8924" lon="4.68821">
        <ele>256.49158</ele>
        <time>2023-04-24T12:59:38.000Z</time>
      </trkpt>
      <trkpt lat="45.89239" lon="4.68818">
        <ele>255.50528</ele>
        <time>2023-04-24T12:59:39.000Z</time>
      </trkpt>
      <trkpt lat="45.89237" lon="4.68815">
        <ele>254.55103</ele>
        <time>2023-04-24T12:59:40.000Z</time>
      </trkpt>
      <trkpt lat="45.89236" lon="4.68812">
        <ele>253.57414</ele>
        <time>2023-04-24T12:59:41.000Z</time>
      </trkpt>
      <trkpt lat="45.89235" lon="4.68809">
        <ele>252.56241</ele>
        <time>2023-04-24T12:59:42.000Z</time>
      </trkpt>
      <trkpt lat="45.89234" lon="4.68805">
        <ele>251.50818</ele>
        <time>2023-04-24T12:59:43.000Z</time>
      </trkpt>
      <trkpt lat="45.89233" lon="4.68801">
        <ele>250.50764</ele>
        <time>2023-04-24T12:59:44.000Z</time>
      </trkpt>
      <trkpt lat="45.89231" lon="4.68799">
        <ele>249.52075</ele>
        <time>2023-04-24T12:59:45.000Z</time>
      </trkpt>
      <trkpt lat="45.89229" lon="4.68796">
        <ele>248.13181</ele>
        <time>2023-04-24T12:59:46.000Z</time>
      </trkpt>
      <trkpt lat="45.89227" lon="4.68794">
        <ele>246.74765</ele>
        <time>2023-04-24T12:59:47.000Z</time>
      </trkpt>
      <trkpt lat="45.89225" lon="4.68791">
        <ele>246.14624</ele>
        <time>2023-04-24T12:59:48.000Z</time>
      </trkpt>
      <trkpt lat="45.89223" lon="4.68789">
        <ele>245.52283</ele>
        <time>2023-04-24T12:59:49.000Z</time>
      </trkpt>
      <trkpt lat="45.8922" lon="4.68788">
        <ele>245.77328</ele>
        <time>2023-04-24T12:59:50.000Z</time>
      </trkpt>
      <trkpt lat="45.89218" lon="4.68786">
        <ele>245.8851</ele>
        <time>2023-04-24T12:59:51.000Z</time>
      </trkpt>
      <trkpt lat="45.89215" lon="4.68785">
        <ele>245.93074</ele>
        <time>2023-04-24T12:59:52.000Z</time>
      </trkpt>
      <trkpt lat="45.89212" lon="4.68784">
        <ele>246.00183</ele>
        <time>2023-04-24T12:59:53.000Z</time>
      </trkpt>
      <trkpt lat="45.8921" lon="4.68784">
        <ele>246.02908</ele>
        <time>2023-04-24T12:59:54.000Z</time>
      </trkpt>
      <trkpt lat="45.89207" lon="4.68783">
        <ele>246.01389</ele>
        <time>2023-04-24T12:59:55.000Z</time>
      </trkpt>
      <trkpt lat="45.89204" lon="4.68783">
        <ele>246.00241</ele>
        <time>2023-04-24T12:59:56.000Z</time>
      </trkpt>
      <trkpt lat="45.89201" lon="4.68783">
        <ele>246.0175</ele>
        <time>2023-04-24T12:59:57.000Z</time>
      </trkpt>
      <trkpt lat="45.89199" lon="4.68783">
        <ele>246.0477</ele>
        <time>2023-04-24T12:59:58.000Z</time>
      </trkpt>
      <trkpt lat="45.89196" lon="4.68783">
        <ele>246.06546</ele>
        <time>2023-04-24T12:59:59.000Z</time>
      </trkpt>
      <trkpt lat="45.89193" lon="4.68783">
        <ele>246.12341</ele>
        <time>2023-04-24T13:00:00.000Z</time>
      </trkpt>
      <trkpt lat="45.8919" lon="4.68783">
        <ele>246.14682</ele>
        <time>2023-04-24T13:00:01.000Z</time>
      </trkpt>
      <trkpt lat="45.89187" lon="4.68783">
        <ele>246.26236</ele>
        <time>2023-04-24T13:00:02.000Z</time>
      </trkpt>
      <trkpt lat="45.89184" lon="4.68783">
        <ele>246.41031</ele>
        <time>2023-04-24T13:00:03.000Z</time>
      </trkpt>
      <trkpt lat="45.89181" lon="4.68783">
        <ele>246.52322</ele>
        <time>2023-04-24T13:00:04.000Z</time>
      </trkpt>
      <trkpt lat="45.89178" lon="4.68783">
        <ele>246.64673</ele>
        <time>2023-04-24T13:00:05.000Z</time>
      </trkpt>
      <trkpt lat="45.89175" lon="4.68783">
        <ele>247.18433</ele>
        <time>2023-04-24T13:00:06.000Z</time>
      </trkpt>
      <trkpt lat="45.89173" lon="4.68783">
        <ele>247.71384</ele>
        <time>2023-04-24T13:00:07.000Z</time>
      </trkpt>
      <trkpt lat="45.8917" lon="4.68782">
        <ele>248.12369</ele>
        <time>2023-04-24T13:00:08.000Z</time>
      </trkpt>
      <trkpt lat="45.89168" lon="4.68781">
        <ele>248.56453</ele>
        <time>2023-04-24T13:00:09.000Z</time>
      </trkpt>
      <trkpt lat="45.89165" lon="4.68781">
        <ele>248.17984</ele>
        <time>2023-04-24T13:00:10.000Z</time>
      </trkpt>
      <trkpt lat="45.89163" lon="4.6878">
        <ele>247.94397</ele>
        <time>2023-04-24T13:00:11.000Z</time>
      </trkpt>
      <trkpt lat="45.89161" lon="4.6878">
        <ele>247.45956</ele>
        <time>2023-04-24T13:00:12.000Z</time>
      </trkpt>
      <trkpt lat="45.89158" lon="4.6878">
        <ele>247.84827</ele>
        <time>2023-04-24T13:00:13.000Z</time>
      </trkpt>
      <trkpt lat="45.89156" lon="4.68779">
        <ele>248.12393</ele>
        <time>2023-04-24T13:00:14.000Z</time>
      </trkpt>
      <trkpt lat="45.89154" lon="4.68779">
        <ele>248.43558</ele>
        <time>2023-04-24T13:00:15.000Z</time>
      </trkpt>
      <trkpt lat="45.89152" lon="4.68778">
        <ele>248.7352</ele>
        <time>2023-04-24T13:00:16.000Z</time>
      </trkpt>
      <trkpt lat="45.89149" lon="4.68777">
        <ele>248.9967</ele>
        <time>2023-04-24T13:00:17.000Z</time>
      </trkpt>
      <trkpt lat="45.89147" lon="4.68777">
        <ele>249.28899</ele>
        <time>2023-04-24T13:00:18.000Z</time>
      </trkpt>
      <trkpt lat="45.89144" lon="4.68776">
        <ele>249.54721</ele>
        <time>2023-04-24T13:00:19.000Z</time>
      </trkpt>
      <trkpt lat="45.89142" lon="4.68774">
        <ele>249.29965</ele>
        <time>2023-04-24T13:00:20.000Z</time>
      </trkpt>
      <trkpt lat="45.8914" lon="4.68772">
        <ele>248.8676</ele>
        <time>2023-04-24T13:00:21.000Z</time>
      </trkpt>
      <trkpt lat="45.89138" lon="4.68769">
        <ele>248.27925</ele>
        <time>2023-04-24T13:00:22.000Z</time>
      </trkpt>
      <trkpt lat="45.89136" lon="4.68766">
        <ele>248.54512</ele>
        <time>2023-04-24T13:00:23.000Z</time>
      </trkpt>
      <trkpt lat="45.89135" lon="4.68762">
        <ele>248.63559</ele>
        <time>2023-04-24T13:00:24.000Z</time>
      </trkpt>
      <trkpt lat="45.89133" lon="4.68759">
        <ele>248.72849</ele>
        <time>2023-04-24T13:00:25.000Z</time>
      </trkpt>
      <trkpt lat="45.89132" lon="4.68755">
        <ele>248.80515</ele>
        <time>2023-04-24T13:00:26.000Z</time>
      </trkpt>
      <trkpt lat="45.89131" lon="4.68751">
        <ele>248.89285</ele>
        <time>2023-04-24T13:00:27.000Z</time>
      </trkpt>
      <trkpt lat="45.89129" lon="4.68748">
        <ele>248.95357</ele>
        <time>2023-04-24T13:00:28.000Z</time>
      </trkpt>
      <trkpt lat="45.89128" lon="4.68744">
        <ele>249.01309</ele>
        <time>2023-04-24T13:00:29.000Z</time>
      </trkpt>
      <trkpt lat="45.89126" lon="4.68741">
        <ele>249.02222</ele>
        <time>2023-04-24T13:00:30.000Z</time>
      </trkpt>
      <trkpt lat="45.89126" lon="4.68737">
        <ele>248.85039</ele>
        <time>2023-04-24T13:00:31.000Z</time>
      </trkpt>
      <trkpt lat="45.89125" lon="4.68734">
        <ele>248.92624</ele>
        <time>2023-04-24T13:00:32.000Z</time>
      </trkpt>
      <trkpt lat="45.89125" lon="4.68731">
        <ele>247.87747</ele>
        <time>2023-04-24T13:00:33.000Z</time>
      </trkpt>
      <trkpt lat="45.89123" lon="4.68728">
        <ele>247.97446</ele>
        <time>2023-04-24T13:00:34.000Z</time>
      </trkpt>
      <trkpt lat="45.8912" lon="4.68726">
        <ele>247.96797</ele>
        <time>2023-04-24T13:00:35.000Z</time>
      </trkpt>
      <trkpt lat="45.89117" lon="4.68726">
        <ele>247.96994</ele>
        <time>2023-04-24T13:00:36.000Z</time>
      </trkpt>
      <trkpt lat="45.89113" lon="4.68726">
        <ele>247.96712</ele>
        <time>2023-04-24T13:00:37.000Z</time>
      </trkpt>
      <trkpt lat="45.8911" lon="4.68727">
        <ele>247.9451</ele>
        <time>2023-04-24T13:00:38.000Z</time>
      </trkpt>
      <trkpt lat="45.89106" lon="4.68727">
        <ele>247.94638</ele>
        <time>2023-04-24T13:00:39.000Z</time>
      </trkpt>
      <trkpt lat="45.89103" lon="4.68727">
        <ele>248.4382</ele>
        <time>2023-04-24T13:00:40.000Z</time>
      </trkpt>
      <trkpt lat="45.891" lon="4.68727">
        <ele>249.14441</ele>
        <time>2023-04-24T13:00:41.000Z</time>
      </trkpt>
      <trkpt lat="45.89097" lon="4.68726">
        <ele>249.96672</ele>
        <time>2023-04-24T13:00:42.000Z</time>
      </trkpt>
      <trkpt lat="45.89094" lon="4.68726">
        <ele>249.94926</ele>
        <time>2023-04-24T13:00:43.000Z</time>
      </trkpt>
      <trkpt lat="45.89091" lon="4.68726">
        <ele>249.65495</ele>
        <time>2023-04-24T13:00:44.000Z</time>
      </trkpt>
      <trkpt lat="45.89088" lon="4.68726">
        <ele>249.32504</ele>
        <time>2023-04-24T13:00:45.000Z</time>
      </trkpt>
      <trkpt lat="45.89084" lon="4.68726">
        <ele>248.98438</ele>
        <time>2023-04-24T13:00:46.000Z</time>
      </trkpt>
      <trkpt lat="45.89081" lon="4.68726">
        <ele>248.60701</ele>
        <time>2023-04-24T13:00:47.000Z</time>
      </trkpt>
      <trkpt lat="45.89078" lon="4.68726">
        <ele>248.65353</ele>
        <time>2023-04-24T13:00:48.000Z</time>
      </trkpt>
      <trkpt lat="45.89074" lon="4.68727">
        <ele>248.71074</ele>
        <time>2023-04-24T13:00:49.000Z</time>
      </trkpt>
      <trkpt lat="45.89071" lon="4.68727">
        <ele>248.78635</ele>
        <time>2023-04-24T13:00:50.000Z</time>
      </trkpt>
      <trkpt lat="45.89068" lon="4.68727">
        <ele>249.06668</ele>
        <time>2023-04-24T13:00:51.000Z</time>
      </trkpt>
      <trkpt lat="45.89064" lon="4.68727">
        <ele>249.41325</ele>
        <time>2023-04-24T13:00:52.000Z</time>
      </trkpt>
      <trkpt lat="45.89061" lon="4.68725">
        <ele>249.80188</ele>
        <time>2023-04-24T13:00:53.000Z</time>
      </trkpt>
      <trkpt lat="45.89059" lon="4.68722">
        <ele>248.98788</ele>
        <time>2023-04-24T13:00:54.000Z</time>
      </trkpt>
      <trkpt lat="45.89057" lon="4.68718">
        <ele>248.19186</ele>
        <time>2023-04-24T13:00:55.000Z</time>
      </trkpt>
      <trkpt lat="45.89056" lon="4.68713">
        <ele>248.39294</ele>
        <time>2023-04-24T13:00:56.000Z</time>
      </trkpt>
      <trkpt lat="45.89056" lon="4.68708">
        <ele>248.51126</ele>
        <time>2023-04-24T13:00:57.000Z</time>
      </trkpt>
      <trkpt lat="45.89056" lon="4.68703">
        <ele>248.65079</ele>
        <time>2023-04-24T13:00:58.000Z</time>
      </trkpt>
      <trkpt lat="45.89056" lon="4.68698">
        <ele>248.74768</ele>
        <time>2023-04-24T13:00:59.000Z</time>
      </trkpt>
      <trkpt lat="45.89056" lon="4.68693">
        <ele>248.80537</ele>
        <time>2023-04-24T13:01:00.000Z</time>
      </trkpt>
      <trkpt lat="45.89055" lon="4.68689">
        <ele>249.12251</ele>
        <time>2023-04-24T13:01:01.000Z</time>
      </trkpt>
      <trkpt lat="45.89055" lon="4.68684">
        <ele>249.44136</ele>
        <time>2023-04-24T13:01:02.000Z</time>
      </trkpt>
      <trkpt lat="45.89055" lon="4.6868">
        <ele>249.74602</ele>
        <time>2023-04-24T13:01:03.000Z</time>
      </trkpt>
      <trkpt lat="45.89054" lon="4.68676">
        <ele>250.49588</ele>
        <time>2023-04-24T13:01:04.000Z</time>
      </trkpt>
      <trkpt lat="45.89054" lon="4.68671">
        <ele>251.2605</ele>
        <time>2023-04-24T13:01:05.000Z</time>
      </trkpt>
      <trkpt lat="45.89053" lon="4.68667">
        <ele>252.04106</ele>
        <time>2023-04-24T13:01:06.000Z</time>
      </trkpt>
      <trkpt lat="45.89053" lon="4.68662">
        <ele>252.8876</ele>
        <time>2023-04-24T13:01:07.000Z</time>
      </trkpt>
      <trkpt lat="45.89052" lon="4.68658">
        <ele>253.71289</ele>
        <time>2023-04-24T13:01:08.000Z</time>
      </trkpt>
      <trkpt lat="45.89052" lon="4.68653">
        <ele>254.54517</ele>
        <time>2023-04-24T13:01:09.000Z</time>
      </trkpt>
      <trkpt lat="45.89051" lon="4.68648">
        <ele>255.37997</ele>
        <time>2023-04-24T13:01:10.000Z</time>
      </trkpt>
      <trkpt lat="45.89051" lon="4.68644">
        <ele>256.18661</ele>
        <time>2023-04-24T13:01:11.000Z</time>
      </trkpt>
      <trkpt lat="45.8905" lon="4.68639">
        <ele>256.96762</ele>
        <time>2023-04-24T13:01:12.000Z</time>
      </trkpt>
      <trkpt lat="45.89049" lon="4.68635">
        <ele>257.94464</ele>
        <time>2023-04-24T13:01:13.000Z</time>
      </trkpt>
      <trkpt lat="45.89047" lon="4.68631">
        <ele>259.14731</ele>
        <time>2023-04-24T13:01:14.000Z</time>
      </trkpt>
      <trkpt lat="45.89044" lon="4.68628">
        <ele>260.43469</ele>
        <time>2023-04-24T13:01:15.000Z</time>
      </trkpt>
      <trkpt lat="45.89041" lon="4.68626">
        <ele>260.76279</ele>
        <time>2023-04-24T13:01:16.000Z</time>
      </trkpt>
      <trkpt lat="45.89038" lon="4.68624">
        <ele>261.16827</ele>
        <time>2023-04-24T13:01:17.000Z</time>
      </trkpt>
      <trkpt lat="45.89035" lon="4.68622">
        <ele>261.556</ele>
        <time>2023-04-24T13:01:18.000Z</time>
      </trkpt>
      <trkpt lat="45.89032" lon="4.68621">
        <ele>261.98639</ele>
        <time>2023-04-24T13:01:19.000Z</time>
      </trkpt>
      <trkpt lat="45.89029" lon="4.68619">
        <ele>262.44653</ele>
        <time>2023-04-24T13:01:20.000Z</time>
      </trkpt>
      <trkpt lat="45.89026" lon="4.68618">
        <ele>262.67953</ele>
        <time>2023-04-24T13:01:21.000Z</time>
      </trkpt>
      <trkpt lat="45.89023" lon="4.68618">
        <ele>262.90729</ele>
        <time>2023-04-24T13:01:22.000Z</time>
      </trkpt>
      <trkpt lat="45.8902" lon="4.68618">
        <ele>263.15497</ele>
        <time>2023-04-24T13:01:23.000Z</time>
      </trkpt>
      <trkpt lat="45.89016" lon="4.68618">
        <ele>263.14313</ele>
        <time>2023-04-24T13:01:24.000Z</time>
      </trkpt>
      <trkpt lat="45.89013" lon="4.68618">
        <ele>263.09308</ele>
        <time>2023-04-24T13:01:25.000Z</time>
      </trkpt>
      <trkpt lat="45.8901" lon="4.68617">
        <ele>262.40436</ele>
        <time>2023-04-24T13:01:26.000Z</time>
      </trkpt>
      <trkpt lat="45.89007" lon="4.68616">
        <ele>261.62488</ele>
        <time>2023-04-24T13:01:27.000Z</time>
      </trkpt>
      <trkpt lat="45.89004" lon="4.68614">
        <ele>260.68768</ele>
        <time>2023-04-24T13:01:28.000Z</time>
      </trkpt>
      <trkpt lat="45.89002" lon="4.68612">
        <ele>259.69073</ele>
        <time>2023-04-24T13:01:29.000Z</time>
      </trkpt>
      <trkpt lat="45.88999" lon="4.68611">
        <ele>259.72174</ele>
        <time>2023-04-24T13:01:30.000Z</time>
      </trkpt>
      <trkpt lat="45.88996" lon="4.6861">
        <ele>259.55246</ele>
        <time>2023-04-24T13:01:31.000Z</time>
      </trkpt>
      <trkpt lat="45.88992" lon="4.68609">
        <ele>259.37927</ele>
        <time>2023-04-24T13:01:32.000Z</time>
      </trkpt>
      <trkpt lat="45.88989" lon="4.68609">
        <ele>259.1586</ele>
        <time>2023-04-24T13:01:33.000Z</time>
      </trkpt>
      <trkpt lat="45.88986" lon="4.68607">
        <ele>258.89972</ele>
        <time>2023-04-24T13:01:34.000Z</time>
      </trkpt>
      <trkpt lat="45.88983" lon="4.68606">
        <ele>258.62143</ele>
        <time>2023-04-24T13:01:35.000Z</time>
      </trkpt>
      <trkpt lat="45.8898" lon="4.68605">
        <ele>258.31305</ele>
        <time>2023-04-24T13:01:36.000Z</time>
      </trkpt>
      <trkpt lat="45.88977" lon="4.68605">
        <ele>258.01331</ele>
        <time>2023-04-24T13:01:37.000Z</time>
      </trkpt>
      <trkpt lat="45.88973" lon="4.68604">
        <ele>257.67548</ele>
        <time>2023-04-24T13:01:38.000Z</time>
      </trkpt>
      <trkpt lat="45.8897" lon="4.68603">
        <ele>257.35123</ele>
        <time>2023-04-24T13:01:39.000Z</time>
      </trkpt>
      <trkpt lat="45.88967" lon="4.68603">
        <ele>257.02274</ele>
        <time>2023-04-24T13:01:40.000Z</time>
      </trkpt>
      <trkpt lat="45.88963" lon="4.68603">
        <ele>256.6795</ele>
        <time>2023-04-24T13:01:41.000Z</time>
      </trkpt>
      <trkpt lat="45.8896" lon="4.68604">
        <ele>256.31931</ele>
        <time>2023-04-24T13:01:42.000Z</time>
      </trkpt>
      <trkpt lat="45.88957" lon="4.68605">
        <ele>255.92339</ele>
        <time>2023-04-24T13:01:43.000Z</time>
      </trkpt>
      <trkpt lat="45.88953" lon="4.68605">
        <ele>255.79362</ele>
        <time>2023-04-24T13:01:44.000Z</time>
      </trkpt>
      <trkpt lat="45.8895" lon="4.68606">
        <ele>255.7802</ele>
        <time>2023-04-24T13:01:45.000Z</time>
      </trkpt>
      <trkpt lat="45.88947" lon="4.68607">
        <ele>256.36255</ele>
        <time>2023-04-24T13:01:46.000Z</time>
      </trkpt>
      <trkpt lat="45.88944" lon="4.68608">
        <ele>258.09711</ele>
        <time>2023-04-24T13:01:47.000Z</time>
      </trkpt>
      <trkpt lat="45.8894" lon="4.68609">
        <ele>260.00677</ele>
        <time>2023-04-24T13:01:48.000Z</time>
      </trkpt>
      <trkpt lat="45.88936" lon="4.6861">
        <ele>261.95248</ele>
        <time>2023-04-24T13:01:49.000Z</time>
      </trkpt>
      <trkpt lat="45.88933" lon="4.68611">
        <ele>262.86459</ele>
        <time>2023-04-24T13:01:50.000Z</time>
      </trkpt>
      <trkpt lat="45.88929" lon="4.68612">
        <ele>263.99734</ele>
        <time>2023-04-24T13:01:51.000Z</time>
      </trkpt>
      <trkpt lat="45.88926" lon="4.68613">
        <ele>265.13297</ele>
        <time>2023-04-24T13:01:52.000Z</time>
      </trkpt>
      <trkpt lat="45.88922" lon="4.68614">
        <ele>266.26804</ele>
        <time>2023-04-24T13:01:53.000Z</time>
      </trkpt>
      <trkpt lat="45.88918" lon="4.68614">
        <ele>267.44064</ele>
        <time>2023-04-24T13:01:54.000Z</time>
      </trkpt>
      <trkpt lat="45.88915" lon="4.68615">
        <ele>268.63361</ele>
        <time>2023-04-24T13:01:55.000Z</time>
      </trkpt>
      <trkpt lat="45.88911" lon="4.68617">
        <ele>268.73236</ele>
        <time>2023-04-24T13:01:56.000Z</time>
      </trkpt>
      <trkpt lat="45.88908" lon="4.68618">
        <ele>268.82294</ele>
        <time>2023-04-24T13:01:57.000Z</time>
      </trkpt>
      <trkpt lat="45.88905" lon="4.6862">
        <ele>268.96344</ele>
        <time>2023-04-24T13:01:58.000Z</time>
      </trkpt>
      <trkpt lat="45.88901" lon="4.68621">
        <ele>269.02942</ele>
        <time>2023-04-24T13:01:59.000Z</time>
      </trkpt>
      <trkpt lat="45.88898" lon="4.68623">
        <ele>268.66556</ele>
        <time>2023-04-24T13:02:00.000Z</time>
      </trkpt>
      <trkpt lat="45.88894" lon="4.68624">
        <ele>268.28568</ele>
        <time>2023-04-24T13:02:01.000Z</time>
      </trkpt>
      <trkpt lat="45.88891" lon="4.68626">
        <ele>267.59296</ele>
        <time>2023-04-24T13:02:02.000Z</time>
      </trkpt>
      <trkpt lat="45.88888" lon="4.68628">
        <ele>267.87686</ele>
        <time>2023-04-24T13:02:03.000Z</time>
      </trkpt>
      <trkpt lat="45.88884" lon="4.68629">
        <ele>267.98254</ele>
        <time>2023-04-24T13:02:04.000Z</time>
      </trkpt>
      <trkpt lat="45.88881" lon="4.68631">
        <ele>269.06189</ele>
        <time>2023-04-24T13:02:05.000Z</time>
      </trkpt>
      <trkpt lat="45.88878" lon="4.68633">
        <ele>270.21811</ele>
        <time>2023-04-24T13:02:06.000Z</time>
      </trkpt>
      <trkpt lat="45.88875" lon="4.68634">
        <ele>270.2562</ele>
        <time>2023-04-24T13:02:07.000Z</time>
      </trkpt>
      <trkpt lat="45.88872" lon="4.68636">
        <ele>270.31235</ele>
        <time>2023-04-24T13:02:08.000Z</time>
      </trkpt>
      <trkpt lat="45.88869" lon="4.68638">
        <ele>270.35928</ele>
        <time>2023-04-24T13:02:09.000Z</time>
      </trkpt>
      <trkpt lat="45.88867" lon="4.68641">
        <ele>270.38983</ele>
        <time>2023-04-24T13:02:10.000Z</time>
      </trkpt>
      <trkpt lat="45.88863" lon="4.68644">
        <ele>270.40533</ele>
        <time>2023-04-24T13:02:11.000Z</time>
      </trkpt>
      <trkpt lat="45.8886" lon="4.68646">
        <ele>270.42645</ele>
        <time>2023-04-24T13:02:12.000Z</time>
      </trkpt>
      <trkpt lat="45.88857" lon="4.68648">
        <ele>270.34958</ele>
        <time>2023-04-24T13:02:13.000Z</time>
      </trkpt>
      <trkpt lat="45.88853" lon="4.68649">
        <ele>268.5047</ele>
        <time>2023-04-24T13:02:14.000Z</time>
      </trkpt>
      <trkpt lat="45.88849" lon="4.68651">
        <ele>267.63046</ele>
        <time>2023-04-24T13:02:15.000Z</time>
      </trkpt>
      <trkpt lat="45.88845" lon="4.68653">
        <ele>267.66913</ele>
        <time>2023-04-24T13:02:16.000Z</time>
      </trkpt>
      <trkpt lat="45.88841" lon="4.68654">
        <ele>267.7027</ele>
        <time>2023-04-24T13:02:17.000Z</time>
      </trkpt>
      <trkpt lat="45.88836" lon="4.68655">
        <ele>267.73898</ele>
        <time>2023-04-24T13:02:18.000Z</time>
      </trkpt>
      <trkpt lat="45.88832" lon="4.68655">
        <ele>267.745</ele>
        <time>2023-04-24T13:02:19.000Z</time>
      </trkpt>
      <trkpt lat="45.88828" lon="4.68656">
        <ele>268.21228</ele>
        <time>2023-04-24T13:02:20.000Z</time>
      </trkpt>
      <trkpt lat="45.88824" lon="4.68658">
        <ele>268.68073</ele>
        <time>2023-04-24T13:02:21.000Z</time>
      </trkpt>
      <trkpt lat="45.8882" lon="4.68659">
        <ele>269.43024</ele>
        <time>2023-04-24T13:02:22.000Z</time>
      </trkpt>
      <trkpt lat="45.88816" lon="4.68659">
        <ele>269.19568</ele>
        <time>2023-04-24T13:02:23.000Z</time>
      </trkpt>
      <trkpt lat="45.88812" lon="4.6866">
        <ele>269.10773</ele>
        <time>2023-04-24T13:02:24.000Z</time>
      </trkpt>
      <trkpt lat="45.88808" lon="4.68662">
        <ele>268.02194</ele>
        <time>2023-04-24T13:02:25.000Z</time>
      </trkpt>
      <trkpt lat="45.88804" lon="4.68663">
        <ele>266.90771</ele>
        <time>2023-04-24T13:02:26.000Z</time>
      </trkpt>
      <trkpt lat="45.888" lon="4.68665">
        <ele>265.79224</ele>
        <time>2023-04-24T13:02:27.000Z</time>
      </trkpt>
      <trkpt lat="45.88796" lon="4.68667">
        <ele>264.63287</ele>
        <time>2023-04-24T13:02:28.000Z</time>
      </trkpt>
      <trkpt lat="45.88792" lon="4.68669">
        <ele>263.48712</ele>
        <time>2023-04-24T13:02:29.000Z</time>
      </trkpt>
      <trkpt lat="45.88788" lon="4.6867">
        <ele>262.35849</ele>
        <time>2023-04-24T13:02:30.000Z</time>
      </trkpt>
      <trkpt lat="45.88784" lon="4.68672">
        <ele>261.22134</ele>
        <time>2023-04-24T13:02:31.000Z</time>
      </trkpt>
      <trkpt lat="45.8878" lon="4.68675">
        <ele>259.61224</ele>
        <time>2023-04-24T13:02:32.000Z</time>
      </trkpt>
      <trkpt lat="45.88777" lon="4.68677">
        <ele>257.8168</ele>
        <time>2023-04-24T13:02:33.000Z</time>
      </trkpt>
      <trkpt lat="45.88773" lon="4.68679">
        <ele>257.74954</ele>
        <time>2023-04-24T13:02:34.000Z</time>
      </trkpt>
      <trkpt lat="45.88769" lon="4.68681">
        <ele>257.66608</ele>
        <time>2023-04-24T13:02:35.000Z</time>
      </trkpt>
      <trkpt lat="45.88765" lon="4.68684">
        <ele>257.56348</ele>
        <time>2023-04-24T13:02:36.000Z</time>
      </trkpt>
      <trkpt lat="45.88761" lon="4.68686">
        <ele>257.45758</ele>
        <time>2023-04-24T13:02:37.000Z</time>
      </trkpt>
      <trkpt lat="45.88756" lon="4.68688">
        <ele>257.34625</ele>
        <time>2023-04-24T13:02:38.000Z</time>
      </trkpt>
      <trkpt lat="45.88752" lon="4.6869">
        <ele>257.31253</ele>
        <time>2023-04-24T13:02:39.000Z</time>
      </trkpt>
      <trkpt lat="45.88748" lon="4.68692">
        <ele>256.77228</ele>
        <time>2023-04-24T13:02:40.000Z</time>
      </trkpt>
      <trkpt lat="45.88744" lon="4.68694">
        <ele>256.01532</ele>
        <time>2023-04-24T13:02:41.000Z</time>
      </trkpt>
      <trkpt lat="45.8874" lon="4.68696">
        <ele>255.18677</ele>
        <time>2023-04-24T13:02:42.000Z</time>
      </trkpt>
      <trkpt lat="45.88737" lon="4.68698">
        <ele>254.36084</ele>
        <time>2023-04-24T13:02:43.000Z</time>
      </trkpt>
      <trkpt lat="45.88733" lon="4.687">
        <ele>253.53081</ele>
        <time>2023-04-24T13:02:44.000Z</time>
      </trkpt>
      <trkpt lat="45.88729" lon="4.68702">
        <ele>253.61092</ele>
        <time>2023-04-24T13:02:45.000Z</time>
      </trkpt>
      <trkpt lat="45.88725" lon="4.68705">
        <ele>253.52649</ele>
        <time>2023-04-24T13:02:46.000Z</time>
      </trkpt>
      <trkpt lat="45.88722" lon="4.68707">
        <ele>253.45303</ele>
        <time>2023-04-24T13:02:47.000Z</time>
      </trkpt>
      <trkpt lat="45.88718" lon="4.6871">
        <ele>253.405</ele>
        <time>2023-04-24T13:02:48.000Z</time>
      </trkpt>
      <trkpt lat="45.88714" lon="4.68712">
        <ele>253.35088</ele>
        <time>2023-04-24T13:02:49.000Z</time>
      </trkpt>
      <trkpt lat="45.8871" lon="4.68714">
        <ele>253.2753</ele>
        <time>2023-04-24T13:02:50.000Z</time>
      </trkpt>
      <trkpt lat="45.88706" lon="4.68716">
        <ele>253.19682</ele>
        <time>2023-04-24T13:02:51.000Z</time>
      </trkpt>
      <trkpt lat="45.88702" lon="4.68718">
        <ele>253.58679</ele>
        <time>2023-04-24T13:02:52.000Z</time>
      </trkpt>
      <trkpt lat="45.88698" lon="4.68721">
        <ele>254.30301</ele>
        <time>2023-04-24T13:02:53.000Z</time>
      </trkpt>
      <trkpt lat="45.88694" lon="4.68724">
        <ele>255.06023</ele>
        <time>2023-04-24T13:02:54.000Z</time>
      </trkpt>
      <trkpt lat="45.8869" lon="4.68727">
        <ele>254.18042</ele>
        <time>2023-04-24T13:02:55.000Z</time>
      </trkpt>
      <trkpt lat="45.88685" lon="4.68729">
        <ele>253.45947</ele>
        <time>2023-04-24T13:02:56.000Z</time>
      </trkpt>
      <trkpt lat="45.88681" lon="4.68732">
        <ele>252.59387</ele>
        <time>2023-04-24T13:02:57.000Z</time>
      </trkpt>
      <trkpt lat="45.88677" lon="4.68735">
        <ele>251.65323</ele>
        <time>2023-04-24T13:02:58.000Z</time>
      </trkpt>
      <trkpt lat="45.88673" lon="4.68739">
        <ele>251.76147</ele>
        <time>2023-04-24T13:02:59.000Z</time>
      </trkpt>
      <trkpt lat="45.88668" lon="4.68742">
        <ele>252.17241</ele>
        <time>2023-04-24T13:03:00.000Z</time>
      </trkpt>
      <trkpt lat="45.88665" lon="4.68744">
        <ele>252.80318</ele>
        <time>2023-04-24T13:03:01.000Z</time>
      </trkpt>
      <trkpt lat="45.88661" lon="4.68745">
        <ele>253.54399</ele>
        <time>2023-04-24T13:03:02.000Z</time>
      </trkpt>
      <trkpt lat="45.88658" lon="4.68748">
        <ele>254.29135</ele>
        <time>2023-04-24T13:03:03.000Z</time>
      </trkpt>
      <trkpt lat="45.88653" lon="4.6875">
        <ele>254.6508</ele>
        <time>2023-04-24T13:03:04.000Z</time>
      </trkpt>
      <trkpt lat="45.88649" lon="4.68752">
        <ele>253.81247</ele>
        <time>2023-04-24T13:03:05.000Z</time>
      </trkpt>
      <trkpt lat="45.88645" lon="4.68754">
        <ele>252.87981</ele>
        <time>2023-04-24T13:03:06.000Z</time>
      </trkpt>
      <trkpt lat="45.88641" lon="4.68756">
        <ele>253.00655</ele>
        <time>2023-04-24T13:03:07.000Z</time>
      </trkpt>
      <trkpt lat="45.88636" lon="4.68757">
        <ele>253.05278</ele>
        <time>2023-04-24T13:03:08.000Z</time>
      </trkpt>
      <trkpt lat="45.88633" lon="4.68759">
        <ele>253.05527</ele>
        <time>2023-04-24T13:03:09.000Z</time>
      </trkpt>
      <trkpt lat="45.88628" lon="4.68761">
        <ele>253.07036</ele>
        <time>2023-04-24T13:03:10.000Z</time>
      </trkpt>
      <trkpt lat="45.88624" lon="4.68763">
        <ele>253.14645</ele>
        <time>2023-04-24T13:03:11.000Z</time>
      </trkpt>
      <trkpt lat="45.88619" lon="4.68764">
        <ele>253.17094</ele>
        <time>2023-04-24T13:03:12.000Z</time>
      </trkpt>
      <trkpt lat="45.88615" lon="4.68765">
        <ele>253.19231</ele>
        <time>2023-04-24T13:03:13.000Z</time>
      </trkpt>
      <trkpt lat="45.88612" lon="4.68765">
        <ele>253.18637</ele>
        <time>2023-04-24T13:03:14.000Z</time>
      </trkpt>
      <trkpt lat="45.88607" lon="4.68767">
        <ele>253.84106</ele>
        <time>2023-04-24T13:03:15.000Z</time>
      </trkpt>
      <trkpt lat="45.88604" lon="4.68767">
        <ele>254.53281</ele>
        <time>2023-04-24T13:03:16.000Z</time>
      </trkpt>
      <trkpt lat="45.886" lon="4.68769">
        <ele>255.37532</ele>
        <time>2023-04-24T13:03:17.000Z</time>
      </trkpt>
      <trkpt lat="45.88596" lon="4.6877">
        <ele>256.30524</ele>
        <time>2023-04-24T13:03:18.000Z</time>
      </trkpt>
      <trkpt lat="45.88591" lon="4.68771">
        <ele>256.23273</ele>
        <time>2023-04-24T13:03:19.000Z</time>
      </trkpt>
      <trkpt lat="45.88588" lon="4.68772">
        <ele>256.33472</ele>
        <time>2023-04-24T13:03:20.000Z</time>
      </trkpt>
      <trkpt lat="45.88584" lon="4.68774">
        <ele>256.44391</ele>
        <time>2023-04-24T13:03:21.000Z</time>
      </trkpt>
      <trkpt lat="45.8858" lon="4.68775">
        <ele>256.59692</ele>
        <time>2023-04-24T13:03:22.000Z</time>
      </trkpt>
      <trkpt lat="45.88576" lon="4.68776">
        <ele>256.76358</ele>
        <time>2023-04-24T13:03:23.000Z</time>
      </trkpt>
      <trkpt lat="45.88572" lon="4.68776">
        <ele>257.41113</ele>
        <time>2023-04-24T13:03:24.000Z</time>
      </trkpt>
      <trkpt lat="45.88568" lon="4.68777">
        <ele>258.24011</ele>
        <time>2023-04-24T13:03:25.000Z</time>
      </trkpt>
      <trkpt lat="45.88564" lon="4.68777">
        <ele>259.29935</ele>
        <time>2023-04-24T13:03:26.000Z</time>
      </trkpt>
      <trkpt lat="45.8856" lon="4.68778">
        <ele>259.30859</ele>
        <time>2023-04-24T13:03:27.000Z</time>
      </trkpt>
      <trkpt lat="45.88556" lon="4.68778">
        <ele>258.76306</ele>
        <time>2023-04-24T13:03:28.000Z</time>
      </trkpt>
      <trkpt lat="45.88552" lon="4.68779">
        <ele>258.26956</ele>
        <time>2023-04-24T13:03:29.000Z</time>
      </trkpt>
      <trkpt lat="45.88548" lon="4.6878">
        <ele>257.59247</ele>
        <time>2023-04-24T13:03:30.000Z</time>
      </trkpt>
      <trkpt lat="45.88544" lon="4.68781">
        <ele>256.84412</ele>
        <time>2023-04-24T13:03:31.000Z</time>
      </trkpt>
      <trkpt lat="45.8854" lon="4.68782">
        <ele>257.21729</ele>
        <time>2023-04-24T13:03:32.000Z</time>
      </trkpt>
      <trkpt lat="45.88536" lon="4.68783">
        <ele>257.41232</ele>
        <time>2023-04-24T13:03:33.000Z</time>
      </trkpt>
      <trkpt lat="45.88532" lon="4.68784">
        <ele>257.60342</ele>
        <time>2023-04-24T13:03:34.000Z</time>
      </trkpt>
      <trkpt lat="45.88528" lon="4.68785">
        <ele>257.79291</ele>
        <time>2023-04-24T13:03:35.000Z</time>
      </trkpt>
      <trkpt lat="45.88524" lon="4.68786">
        <ele>257.32855</ele>
        <time>2023-04-24T13:03:36.000Z</time>
      </trkpt>
      <trkpt lat="45.8852" lon="4.68787">
        <ele>256.8754</ele>
        <time>2023-04-24T13:03:37.000Z</time>
      </trkpt>
      <trkpt lat="45.88517" lon="4.68789">
        <ele>256.39093</ele>
        <time>2023-04-24T13:03:38.000Z</time>
      </trkpt>
      <trkpt lat="45.88513" lon="4.68791">
        <ele>255.67236</ele>
        <time>2023-04-24T13:03:39.000Z</time>
      </trkpt>
      <trkpt lat="45.88508" lon="4.68793">
        <ele>255.99429</ele>
        <time>2023-04-24T13:03:40.000Z</time>
      </trkpt>
      <trkpt lat="45.88504" lon="4.68794">
        <ele>256.13248</ele>
        <time>2023-04-24T13:03:41.000Z</time>
      </trkpt>
      <trkpt lat="45.885" lon="4.68795">
        <ele>256.21567</ele>
        <time>2023-04-24T13:03:42.000Z</time>
      </trkpt>
      <trkpt lat="45.88496" lon="4.68797">
        <ele>257.43451</ele>
        <time>2023-04-24T13:03:43.000Z</time>
      </trkpt>
      <trkpt lat="45.88491" lon="4.68798">
        <ele>258.5899</ele>
        <time>2023-04-24T13:03:44.000Z</time>
      </trkpt>
      <trkpt lat="45.88487" lon="4.68799">
        <ele>259.78415</ele>
        <time>2023-04-24T13:03:45.000Z</time>
      </trkpt>
      <trkpt lat="45.88484" lon="4.68801">
        <ele>260.98923</ele>
        <time>2023-04-24T13:03:46.000Z</time>
      </trkpt>
      <trkpt lat="45.88481" lon="4.68802">
        <ele>262.18591</ele>
        <time>2023-04-24T13:03:47.000Z</time>
      </trkpt>
      <trkpt lat="45.88477" lon="4.68804">
        <ele>263.99686</ele>
        <time>2023-04-24T13:03:48.000Z</time>
      </trkpt>
      <trkpt lat="45.88474" lon="4.68805">
        <ele>265.78339</ele>
        <time>2023-04-24T13:03:49.000Z</time>
      </trkpt>
      <trkpt lat="45.88471" lon="4.68805">
        <ele>267.73425</ele>
        <time>2023-04-24T13:03:50.000Z</time>
      </trkpt>
      <trkpt lat="45.88469" lon="4.68803">
        <ele>269.68036</ele>
        <time>2023-04-24T13:03:51.000Z</time>
      </trkpt>
      <trkpt lat="45.88466" lon="4.688">
        <ele>270.57306</ele>
        <time>2023-04-24T13:03:52.000Z</time>
      </trkpt>
      <trkpt lat="45.88465" lon="4.68796">
        <ele>271.63876</ele>
        <time>2023-04-24T13:03:53.000Z</time>
      </trkpt>
      <trkpt lat="45.88465" lon="4.68791">
        <ele>272.70673</ele>
        <time>2023-04-24T13:03:54.000Z</time>
      </trkpt>
      <trkpt lat="45.88464" lon="4.68788">
        <ele>273.79559</ele>
        <time>2023-04-24T13:03:55.000Z</time>
      </trkpt>
      <trkpt lat="45.88463" lon="4.68783">
        <ele>275.52789</ele>
        <time>2023-04-24T13:03:56.000Z</time>
      </trkpt>
      <trkpt lat="45.88462" lon="4.68779">
        <ele>277.10818</ele>
        <time>2023-04-24T13:03:57.000Z</time>
      </trkpt>
      <trkpt lat="45.88462" lon="4.68775">
        <ele>278.6994</ele>
        <time>2023-04-24T13:03:58.000Z</time>
      </trkpt>
      <trkpt lat="45.88461" lon="4.6877">
        <ele>280.49835</ele>
        <time>2023-04-24T13:03:59.000Z</time>
      </trkpt>
      <trkpt lat="45.8846" lon="4.68766">
        <ele>281.24158</ele>
        <time>2023-04-24T13:04:00.000Z</time>
      </trkpt>
      <trkpt lat="45.88459" lon="4.68762">
        <ele>282.16156</ele>
        <time>2023-04-24T13:04:01.000Z</time>
      </trkpt>
      <trkpt lat="45.88457" lon="4.68759">
        <ele>283.11026</ele>
        <time>2023-04-24T13:04:02.000Z</time>
      </trkpt>
      <trkpt lat="45.88455" lon="4.68756">
        <ele>282.90848</ele>
        <time>2023-04-24T13:04:03.000Z</time>
      </trkpt>
      <trkpt lat="45.88453" lon="4.68754">
        <ele>282.65738</ele>
        <time>2023-04-24T13:04:04.000Z</time>
      </trkpt>
      <trkpt lat="45.8845" lon="4.68753">
        <ele>282.43704</ele>
        <time>2023-04-24T13:04:05.000Z</time>
      </trkpt>
      <trkpt lat="45.88447" lon="4.68753">
        <ele>282.23456</ele>
        <time>2023-04-24T13:04:06.000Z</time>
      </trkpt>
      <trkpt lat="45.88444" lon="4.68754">
        <ele>282.34464</ele>
        <time>2023-04-24T13:04:07.000Z</time>
      </trkpt>
      <trkpt lat="45.88441" lon="4.68755">
        <ele>282.42984</ele>
        <time>2023-04-24T13:04:08.000Z</time>
      </trkpt>
      <trkpt lat="45.88438" lon="4.68756">
        <ele>282.56125</ele>
        <time>2023-04-24T13:04:09.000Z</time>
      </trkpt>
      <trkpt lat="45.88435" lon="4.68758">
        <ele>282.67331</ele>
        <time>2023-04-24T13:04:10.000Z</time>
      </trkpt>
      <trkpt lat="45.88432" lon="4.6876">
        <ele>282.80923</ele>
        <time>2023-04-24T13:04:11.000Z</time>
      </trkpt>
      <trkpt lat="45.88428" lon="4.68761">
        <ele>282.94907</ele>
        <time>2023-04-24T13:04:12.000Z</time>
      </trkpt>
      <trkpt lat="45.88425" lon="4.68763">
        <ele>283.09482</ele>
        <time>2023-04-24T13:04:13.000Z</time>
      </trkpt>
      <trkpt lat="45.88422" lon="4.68766">
        <ele>283.242</ele>
        <time>2023-04-24T13:04:14.000Z</time>
      </trkpt>
      <trkpt lat="45.88418" lon="4.68769">
        <ele>283.34903</ele>
        <time>2023-04-24T13:04:15.000Z</time>
      </trkpt>
      <trkpt lat="45.88414" lon="4.68772">
        <ele>283.45398</ele>
        <time>2023-04-24T13:04:16.000Z</time>
      </trkpt>
      <trkpt lat="45.88411" lon="4.68776">
        <ele>283.71307</ele>
        <time>2023-04-24T13:04:17.000Z</time>
      </trkpt>
      <trkpt lat="45.88407" lon="4.68779">
        <ele>283.98138</ele>
        <time>2023-04-24T13:04:18.000Z</time>
      </trkpt>
      <trkpt lat="45.88404" lon="4.68783">
        <ele>284.22513</ele>
        <time>2023-04-24T13:04:19.000Z</time>
      </trkpt>
      <trkpt lat="45.88401" lon="4.68785">
        <ele>284.32559</ele>
        <time>2023-04-24T13:04:20.000Z</time>
      </trkpt>
      <trkpt lat="45.88399" lon="4.68784">
        <ele>284.33792</ele>
        <time>2023-04-24T13:04:21.000Z</time>
      </trkpt>
      <trkpt lat="45.88396" lon="4.68781">
        <ele>284.30002</ele>
        <time>2023-04-24T13:04:22.000Z</time>
      </trkpt>
      <trkpt lat="45.88396" lon="4.68776">
        <ele>284.26471</ele>
        <time>2023-04-24T13:04:23.000Z</time>
      </trkpt>
      <trkpt lat="45.88396" lon="4.68771">
        <ele>284.56815</ele>
        <time>2023-04-24T13:04:24.000Z</time>
      </trkpt>
      <trkpt lat="45.88397" lon="4.68766">
        <ele>284.84979</ele>
        <time>2023-04-24T13:04:25.000Z</time>
      </trkpt>
      <trkpt lat="45.88398" lon="4.68762">
        <ele>285.13251</ele>
        <time>2023-04-24T13:04:26.000Z</time>
      </trkpt>
      <trkpt lat="45.88399" lon="4.68757">
        <ele>285.12097</ele>
        <time>2023-04-24T13:04:27.000Z</time>
      </trkpt>
      <trkpt lat="45.88399" lon="4.68753">
        <ele>285.19891</ele>
        <time>2023-04-24T13:04:28.000Z</time>
      </trkpt>
      <trkpt lat="45.884" lon="4.68749">
        <ele>285.2366</ele>
        <time>2023-04-24T13:04:29.000Z</time>
      </trkpt>
      <trkpt lat="45.884" lon="4.68745">
        <ele>285.35172</ele>
        <time>2023-04-24T13:04:30.000Z</time>
      </trkpt>
      <trkpt lat="45.884" lon="4.6874">
        <ele>285.47583</ele>
        <time>2023-04-24T13:04:31.000Z</time>
      </trkpt>
      <trkpt lat="45.88399" lon="4.68736">
        <ele>285.56171</ele>
        <time>2023-04-24T13:04:32.000Z</time>
      </trkpt>
      <trkpt lat="45.88398" lon="4.68732">
        <ele>285.66599</ele>
        <time>2023-04-24T13:04:33.000Z</time>
      </trkpt>
      <trkpt lat="45.88396" lon="4.68728">
        <ele>285.81119</ele>
        <time>2023-04-24T13:04:34.000Z</time>
      </trkpt>
      <trkpt lat="45.88393" lon="4.68725">
        <ele>285.99445</ele>
        <time>2023-04-24T13:04:35.000Z</time>
      </trkpt>
      <trkpt lat="45.88391" lon="4.68722">
        <ele>286.1944</ele>
        <time>2023-04-24T13:04:36.000Z</time>
      </trkpt>
      <trkpt lat="45.88387" lon="4.6872">
        <ele>286.41422</ele>
        <time>2023-04-24T13:04:37.000Z</time>
      </trkpt>
      <trkpt lat="45.88384" lon="4.68717">
        <ele>286.64911</ele>
        <time>2023-04-24T13:04:38.000Z</time>
      </trkpt>
      <trkpt lat="45.8838" lon="4.68715">
        <ele>286.69882</ele>
        <time>2023-04-24T13:04:39.000Z</time>
      </trkpt>
      <trkpt lat="45.88377" lon="4.68712">
        <ele>286.88562</ele>
        <time>2023-04-24T13:04:40.000Z</time>
      </trkpt>
      <trkpt lat="45.88374" lon="4.68709">
        <ele>287.1629</ele>
        <time>2023-04-24T13:04:41.000Z</time>
      </trkpt>
      <trkpt lat="45.88372" lon="4.68706">
        <ele>287.48944</ele>
        <time>2023-04-24T13:04:42.000Z</time>
      </trkpt>
      <trkpt lat="45.88369" lon="4.68703">
        <ele>287.83246</ele>
        <time>2023-04-24T13:04:43.000Z</time>
      </trkpt>
      <trkpt lat="45.88366" lon="4.687">
        <ele>285.9339</ele>
        <time>2023-04-24T13:04:44.000Z</time>
      </trkpt>
      <trkpt lat="45.88363" lon="4.68697">
        <ele>285.91092</ele>
        <time>2023-04-24T13:04:45.000Z</time>
      </trkpt>
      <trkpt lat="45.8836" lon="4.68694">
        <ele>285.07513</ele>
        <time>2023-04-24T13:04:46.000Z</time>
      </trkpt>
      <trkpt lat="45.88357" lon="4.6869">
        <ele>284.05957</ele>
        <time>2023-04-24T13:04:47.000Z</time>
      </trkpt>
      <trkpt lat="45.88354" lon="4.68687">
        <ele>283.008</ele>
        <time>2023-04-24T13:04:48.000Z</time>
      </trkpt>
      <trkpt lat="45.88351" lon="4.68683">
        <ele>281.96249</ele>
        <time>2023-04-24T13:04:49.000Z</time>
      </trkpt>
      <trkpt lat="45.88347" lon="4.6868">
        <ele>280.90143</ele>
        <time>2023-04-24T13:04:50.000Z</time>
      </trkpt>
      <trkpt lat="45.88344" lon="4.68677">
        <ele>279.83017</ele>
        <time>2023-04-24T13:04:51.000Z</time>
      </trkpt>
      <trkpt lat="45.88341" lon="4.68674">
        <ele>278.87933</ele>
        <time>2023-04-24T13:04:52.000Z</time>
      </trkpt>
      <trkpt lat="45.88337" lon="4.6867">
        <ele>277.8909</ele>
        <time>2023-04-24T13:04:53.000Z</time>
      </trkpt>
      <trkpt lat="45.88334" lon="4.68667">
        <ele>276.89001</ele>
        <time>2023-04-24T13:04:54.000Z</time>
      </trkpt>
      <trkpt lat="45.88331" lon="4.68664">
        <ele>275.89798</ele>
        <time>2023-04-24T13:04:55.000Z</time>
      </trkpt>
      <trkpt lat="45.88327" lon="4.68661">
        <ele>274.91516</ele>
        <time>2023-04-24T13:04:56.000Z</time>
      </trkpt>
      <trkpt lat="45.88324" lon="4.68658">
        <ele>273.8602</ele>
        <time>2023-04-24T13:04:57.000Z</time>
      </trkpt>
      <trkpt lat="45.88321" lon="4.68655">
        <ele>272.78107</ele>
        <time>2023-04-24T13:04:58.000Z</time>
      </trkpt>
      <trkpt lat="45.88318" lon="4.68652">
        <ele>271.43597</ele>
        <time>2023-04-24T13:04:59.000Z</time>
      </trkpt>
      <trkpt lat="45.88315" lon="4.68649">
        <ele>270.07196</ele>
        <time>2023-04-24T13:05:00.000Z</time>
      </trkpt>
      <trkpt lat="45.88312" lon="4.68645">
        <ele>268.44</ele>
        <time>2023-04-24T13:05:01.000Z</time>
      </trkpt>
      <trkpt lat="45.88309" lon="4.68643">
        <ele>266.83118</ele>
        <time>2023-04-24T13:05:02.000Z</time>
      </trkpt>
      <trkpt lat="45.88306" lon="4.6864">
        <ele>265.2204</ele>
        <time>2023-04-24T13:05:03.000Z</time>
      </trkpt>
      <trkpt lat="45.88303" lon="4.68638">
        <ele>265.59845</ele>
        <time>2023-04-24T13:05:04.000Z</time>
      </trkpt>
      <trkpt lat="45.883" lon="4.68635">
        <ele>264.1297</ele>
        <time>2023-04-24T13:05:05.000Z</time>
      </trkpt>
      <trkpt lat="45.88297" lon="4.68633">
        <ele>263.50092</ele>
        <time>2023-04-24T13:05:06.000Z</time>
      </trkpt>
      <trkpt lat="45.88294" lon="4.68631">
        <ele>263.03516</ele>
        <time>2023-04-24T13:05:07.000Z</time>
      </trkpt>
      <trkpt lat="45.88289" lon="4.68628">
        <ele>262.85217</ele>
        <time>2023-04-24T13:05:08.000Z</time>
      </trkpt>
      <trkpt lat="45.88286" lon="4.68627">
        <ele>262.67133</ele>
        <time>2023-04-24T13:05:09.000Z</time>
      </trkpt>
      <trkpt lat="45.88283" lon="4.68624">
        <ele>261.97046</ele>
        <time>2023-04-24T13:05:10.000Z</time>
      </trkpt>
      <trkpt lat="45.8828" lon="4.68622">
        <ele>261.21548</ele>
        <time>2023-04-24T13:05:11.000Z</time>
      </trkpt>
      <trkpt lat="45.88277" lon="4.68618">
        <ele>260.38278</ele>
        <time>2023-04-24T13:05:12.000Z</time>
      </trkpt>
      <trkpt lat="45.88275" lon="4.68616">
        <ele>260.90521</ele>
        <time>2023-04-24T13:05:13.000Z</time>
      </trkpt>
      <trkpt lat="45.88271" lon="4.68614">
        <ele>261.20435</ele>
        <time>2023-04-24T13:05:14.000Z</time>
      </trkpt>
      <trkpt lat="45.88269" lon="4.68611">
        <ele>261.45612</ele>
        <time>2023-04-24T13:05:15.000Z</time>
      </trkpt>
      <trkpt lat="45.88266" lon="4.68611">
        <ele>261.75278</ele>
        <time>2023-04-24T13:05:16.000Z</time>
      </trkpt>
      <trkpt lat="45.88263" lon="4.6861">
        <ele>262.0423</ele>
        <time>2023-04-24T13:05:17.000Z</time>
      </trkpt>
      <trkpt lat="45.8826" lon="4.68607">
        <ele>262.29059</ele>
        <time>2023-04-24T13:05:18.000Z</time>
      </trkpt>
      <trkpt lat="45.88257" lon="4.68606">
        <ele>263.02817</ele>
        <time>2023-04-24T13:05:19.000Z</time>
      </trkpt>
      <trkpt lat="45.88253" lon="4.68604">
        <ele>263.80057</ele>
        <time>2023-04-24T13:05:20.000Z</time>
      </trkpt>
      <trkpt lat="45.8825" lon="4.68603">
        <ele>264.86337</ele>
        <time>2023-04-24T13:05:21.000Z</time>
      </trkpt>
      <trkpt lat="45.88247" lon="4.68602">
        <ele>265.93939</ele>
        <time>2023-04-24T13:05:22.000Z</time>
      </trkpt>
      <trkpt lat="45.88243" lon="4.686">
        <ele>266.9722</ele>
        <time>2023-04-24T13:05:23.000Z</time>
      </trkpt>
      <trkpt lat="45.8824" lon="4.68599">
        <ele>267.98755</ele>
        <time>2023-04-24T13:05:24.000Z</time>
      </trkpt>
      <trkpt lat="45.88236" lon="4.68598">
        <ele>269.01334</ele>
        <time>2023-04-24T13:05:25.000Z</time>
      </trkpt>
      <trkpt lat="45.88233" lon="4.68597">
        <ele>269.96222</ele>
        <time>2023-04-24T13:05:26.000Z</time>
      </trkpt>
      <trkpt lat="45.8823" lon="4.68596">
        <ele>270.98312</ele>
        <time>2023-04-24T13:05:27.000Z</time>
      </trkpt>
      <trkpt lat="45.88227" lon="4.68594">
        <ele>271.50586</ele>
        <time>2023-04-24T13:05:28.000Z</time>
      </trkpt>
      <trkpt lat="45.88224" lon="4.68593">
        <ele>272.00513</ele>
        <time>2023-04-24T13:05:29.000Z</time>
      </trkpt>
      <trkpt lat="45.88221" lon="4.6859">
        <ele>272.93353</ele>
        <time>2023-04-24T13:05:30.000Z</time>
      </trkpt>
      <trkpt lat="45.88217" lon="4.68588">
        <ele>273.87265</ele>
        <time>2023-04-24T13:05:31.000Z</time>
      </trkpt>
      <trkpt lat="45.88214" lon="4.68587">
        <ele>275.09058</ele>
        <time>2023-04-24T13:05:32.000Z</time>
      </trkpt>
      <trkpt lat="45.88211" lon="4.68586">
        <ele>275.02463</ele>
        <time>2023-04-24T13:05:33.000Z</time>
      </trkpt>
      <trkpt lat="45.88208" lon="4.68585">
        <ele>275.20535</ele>
        <time>2023-04-24T13:05:34.000Z</time>
      </trkpt>
      <trkpt lat="45.88204" lon="4.68584">
        <ele>275.42453</ele>
        <time>2023-04-24T13:05:35.000Z</time>
      </trkpt>
      <trkpt lat="45.88201" lon="4.68584">
        <ele>275.57736</ele>
        <time>2023-04-24T13:05:36.000Z</time>
      </trkpt>
      <trkpt lat="45.88197" lon="4.68583">
        <ele>274.9939</ele>
        <time>2023-04-24T13:05:37.000Z</time>
      </trkpt>
      <trkpt lat="45.88194" lon="4.68582">
        <ele>274.47772</ele>
        <time>2023-04-24T13:05:38.000Z</time>
      </trkpt>
      <trkpt lat="45.8819" lon="4.68581">
        <ele>273.93723</ele>
        <time>2023-04-24T13:05:39.000Z</time>
      </trkpt>
      <trkpt lat="45.88187" lon="4.68581">
        <ele>273.40851</ele>
        <time>2023-04-24T13:05:40.000Z</time>
      </trkpt>
      <trkpt lat="45.88184" lon="4.68579">
        <ele>272.83096</ele>
        <time>2023-04-24T13:05:41.000Z</time>
      </trkpt>
      <trkpt lat="45.88181" lon="4.68578">
        <ele>271.74472</ele>
        <time>2023-04-24T13:05:42.000Z</time>
      </trkpt>
      <trkpt lat="45.88179" lon="4.68576">
        <ele>270.33478</ele>
        <time>2023-04-24T13:05:43.000Z</time>
      </trkpt>
      <trkpt lat="45.88175" lon="4.68575">
        <ele>270.3739</ele>
        <time>2023-04-24T13:05:44.000Z</time>
      </trkpt>
      <trkpt lat="45.88172" lon="4.68574">
        <ele>270.27142</ele>
        <time>2023-04-24T13:05:45.000Z</time>
      </trkpt>
      <trkpt lat="45.88169" lon="4.68573">
        <ele>270.41888</ele>
        <time>2023-04-24T13:05:46.000Z</time>
      </trkpt>
      <trkpt lat="45.88166" lon="4.68572">
        <ele>270.56708</ele>
        <time>2023-04-24T13:05:47.000Z</time>
      </trkpt>
      <trkpt lat="45.88163" lon="4.68571">
        <ele>270.38995</ele>
        <time>2023-04-24T13:05:48.000Z</time>
      </trkpt>
      <trkpt lat="45.88159" lon="4.6857">
        <ele>270.00348</ele>
        <time>2023-04-24T13:05:49.000Z</time>
      </trkpt>
      <trkpt lat="45.88156" lon="4.68569">
        <ele>269.37253</ele>
        <time>2023-04-24T13:05:50.000Z</time>
      </trkpt>
      <trkpt lat="45.88153" lon="4.68569">
        <ele>268.82898</ele>
        <time>2023-04-24T13:05:51.000Z</time>
      </trkpt>
      <trkpt lat="45.8815" lon="4.68568">
        <ele>267.98981</ele>
        <time>2023-04-24T13:05:52.000Z</time>
      </trkpt>
      <trkpt lat="45.88146" lon="4.68567">
        <ele>266.95679</ele>
        <time>2023-04-24T13:05:53.000Z</time>
      </trkpt>
      <trkpt lat="45.88143" lon="4.68566">
        <ele>265.34131</ele>
        <time>2023-04-24T13:05:54.000Z</time>
      </trkpt>
      <trkpt lat="45.88139" lon="4.68564">
        <ele>263.52304</ele>
        <time>2023-04-24T13:05:55.000Z</time>
      </trkpt>
      <trkpt lat="45.88135" lon="4.68563">
        <ele>263.24298</ele>
        <time>2023-04-24T13:05:56.000Z</time>
      </trkpt>
      <trkpt lat="45.88132" lon="4.68561">
        <ele>263.72058</ele>
        <time>2023-04-24T13:05:57.000Z</time>
      </trkpt>
      <trkpt lat="45.88128" lon="4.6856">
        <ele>264.16544</ele>
        <time>2023-04-24T13:05:58.000Z</time>
      </trkpt>
      <trkpt lat="45.88124" lon="4.68558">
        <ele>264.58911</ele>
        <time>2023-04-24T13:05:59.000Z</time>
      </trkpt>
      <trkpt lat="45.88121" lon="4.68557">
        <ele>265.32684</ele>
        <time>2023-04-24T13:06:00.000Z</time>
      </trkpt>
      <trkpt lat="45.88117" lon="4.68555">
        <ele>266.16122</ele>
        <time>2023-04-24T13:06:01.000Z</time>
      </trkpt>
      <trkpt lat="45.88113" lon="4.68553">
        <ele>267.32025</ele>
        <time>2023-04-24T13:06:02.000Z</time>
      </trkpt>
      <trkpt lat="45.88109" lon="4.68551">
        <ele>268.86798</ele>
        <time>2023-04-24T13:06:03.000Z</time>
      </trkpt>
      <trkpt lat="45.88106" lon="4.68549">
        <ele>268.98984</ele>
        <time>2023-04-24T13:06:04.000Z</time>
      </trkpt>
      <trkpt lat="45.88102" lon="4.68548">
        <ele>269.12979</ele>
        <time>2023-04-24T13:06:05.000Z</time>
      </trkpt>
      <trkpt lat="45.88098" lon="4.68546">
        <ele>269.08218</ele>
        <time>2023-04-24T13:06:06.000Z</time>
      </trkpt>
      <trkpt lat="45.88093" lon="4.68544">
        <ele>269.14233</ele>
        <time>2023-04-24T13:06:07.000Z</time>
      </trkpt>
      <trkpt lat="45.88089" lon="4.68544">
        <ele>269.84689</ele>
        <time>2023-04-24T13:06:08.000Z</time>
      </trkpt>
      <trkpt lat="45.88084" lon="4.68543">
        <ele>270.74445</ele>
        <time>2023-04-24T13:06:09.000Z</time>
      </trkpt>
      <trkpt lat="45.88079" lon="4.68543">
        <ele>271.94232</ele>
        <time>2023-04-24T13:06:10.000Z</time>
      </trkpt>
      <trkpt lat="45.88075" lon="4.68544">
        <ele>272.51996</ele>
        <time>2023-04-24T13:06:11.000Z</time>
      </trkpt>
      <trkpt lat="45.8807" lon="4.68542">
        <ele>273.24103</ele>
        <time>2023-04-24T13:06:12.000Z</time>
      </trkpt>
      <trkpt lat="45.88066" lon="4.68541">
        <ele>274.10843</ele>
        <time>2023-04-24T13:06:13.000Z</time>
      </trkpt>
      <trkpt lat="45.88061" lon="4.6854">
        <ele>275.10458</ele>
        <time>2023-04-24T13:06:14.000Z</time>
      </trkpt>
      <trkpt lat="45.88056" lon="4.68538">
        <ele>278.23285</ele>
        <time>2023-04-24T13:06:15.000Z</time>
      </trkpt>
      <trkpt lat="45.88052" lon="4.68538">
        <ele>279.67203</ele>
        <time>2023-04-24T13:06:16.000Z</time>
      </trkpt>
      <trkpt lat="45.88048" lon="4.68536">
        <ele>280.02496</ele>
        <time>2023-04-24T13:06:17.000Z</time>
      </trkpt>
      <trkpt lat="45.88043" lon="4.68535">
        <ele>280.40836</ele>
        <time>2023-04-24T13:06:18.000Z</time>
      </trkpt>
      <trkpt lat="45.88039" lon="4.68533">
        <ele>280.82062</ele>
        <time>2023-04-24T13:06:19.000Z</time>
      </trkpt>
      <trkpt lat="45.88035" lon="4.68531">
        <ele>280.90936</ele>
        <time>2023-04-24T13:06:20.000Z</time>
      </trkpt>
      <trkpt lat="45.88031" lon="4.6853">
        <ele>280.92285</ele>
        <time>2023-04-24T13:06:21.000Z</time>
      </trkpt>
      <trkpt lat="45.88026" lon="4.68529">
        <ele>282.64209</ele>
        <time>2023-04-24T13:06:22.000Z</time>
      </trkpt>
      <trkpt lat="45.88022" lon="4.68528">
        <ele>282.83997</ele>
        <time>2023-04-24T13:06:23.000Z</time>
      </trkpt>
      <trkpt lat="45.88017" lon="4.68527">
        <ele>282.9993</ele>
        <time>2023-04-24T13:06:24.000Z</time>
      </trkpt>
      <trkpt lat="45.88013" lon="4.68526">
        <ele>284.35739</ele>
        <time>2023-04-24T13:06:25.000Z</time>
      </trkpt>
      <trkpt lat="45.88008" lon="4.68526">
        <ele>285.68274</ele>
        <time>2023-04-24T13:06:26.000Z</time>
      </trkpt>
      <trkpt lat="45.88004" lon="4.68526">
        <ele>286.81506</ele>
        <time>2023-04-24T13:06:27.000Z</time>
      </trkpt>
      <trkpt lat="45.87999" lon="4.68526">
        <ele>287.66354</ele>
        <time>2023-04-24T13:06:28.000Z</time>
      </trkpt>
      <trkpt lat="45.87995" lon="4.68527">
        <ele>289.25708</ele>
        <time>2023-04-24T13:06:29.000Z</time>
      </trkpt>
      <trkpt lat="45.8799" lon="4.68527">
        <ele>290.87152</ele>
        <time>2023-04-24T13:06:30.000Z</time>
      </trkpt>
      <trkpt lat="45.87986" lon="4.68526">
        <ele>293.08878</ele>
        <time>2023-04-24T13:06:31.000Z</time>
      </trkpt>
      <trkpt lat="45.87983" lon="4.68525">
        <ele>295.06451</ele>
        <time>2023-04-24T13:06:32.000Z</time>
      </trkpt>
      <trkpt lat="45.87979" lon="4.68525">
        <ele>297.00974</ele>
        <time>2023-04-24T13:06:33.000Z</time>
      </trkpt>
      <trkpt lat="45.87975" lon="4.68525">
        <ele>299.41693</ele>
        <time>2023-04-24T13:06:34.000Z</time>
      </trkpt>
      <trkpt lat="45.87971" lon="4.68525">
        <ele>299.93048</ele>
        <time>2023-04-24T13:06:35.000Z</time>
      </trkpt>
      <trkpt lat="45.87967" lon="4.68525">
        <ele>300.56931</ele>
        <time>2023-04-24T13:06:36.000Z</time>
      </trkpt>
      <trkpt lat="45.87963" lon="4.68525">
        <ele>301.96124</ele>
        <time>2023-04-24T13:06:37.000Z</time>
      </trkpt>
      <trkpt lat="45.87959" lon="4.68526">
        <ele>303.26569</ele>
        <time>2023-04-24T13:06:38.000Z</time>
      </trkpt>
      <trkpt lat="45.87955" lon="4.68527">
        <ele>304.55731</ele>
        <time>2023-04-24T13:06:39.000Z</time>
      </trkpt>
      <trkpt lat="45.8795" lon="4.68527">
        <ele>306.50131</ele>
        <time>2023-04-24T13:06:40.000Z</time>
      </trkpt>
      <trkpt lat="45.87946" lon="4.68528">
        <ele>308.32779</ele>
        <time>2023-04-24T13:06:41.000Z</time>
      </trkpt>
      <trkpt lat="45.87942" lon="4.68529">
        <ele>308.59177</ele>
        <time>2023-04-24T13:06:42.000Z</time>
      </trkpt>
      <trkpt lat="45.87937" lon="4.6853">
        <ele>310.33801</ele>
        <time>2023-04-24T13:06:43.000Z</time>
      </trkpt>
      <trkpt lat="45.87933" lon="4.68532">
        <ele>312.04547</ele>
        <time>2023-04-24T13:06:44.000Z</time>
      </trkpt>
      <trkpt lat="45.87929" lon="4.68533">
        <ele>312.37311</ele>
        <time>2023-04-24T13:06:45.000Z</time>
      </trkpt>
      <trkpt lat="45.87924" lon="4.68533">
        <ele>312.60214</ele>
        <time>2023-04-24T13:06:46.000Z</time>
      </trkpt>
      <trkpt lat="45.87921" lon="4.68534">
        <ele>312.72833</ele>
        <time>2023-04-24T13:06:47.000Z</time>
      </trkpt>
      <trkpt lat="45.87916" lon="4.68533">
        <ele>313.73071</ele>
        <time>2023-04-24T13:06:48.000Z</time>
      </trkpt>
      <trkpt lat="45.87911" lon="4.68532">
        <ele>313.91116</ele>
        <time>2023-04-24T13:06:49.000Z</time>
      </trkpt>
      <trkpt lat="45.87907" lon="4.68531">
        <ele>314.10391</ele>
        <time>2023-04-24T13:06:50.000Z</time>
      </trkpt>
      <trkpt lat="45.87902" lon="4.6853">
        <ele>314.31714</ele>
        <time>2023-04-24T13:06:51.000Z</time>
      </trkpt>
      <trkpt lat="45.87898" lon="4.68529">
        <ele>314.62335</ele>
        <time>2023-04-24T13:06:52.000Z</time>
      </trkpt>
      <trkpt lat="45.87894" lon="4.68526">
        <ele>314.96652</ele>
        <time>2023-04-24T13:06:53.000Z</time>
      </trkpt>
      <trkpt lat="45.87889" lon="4.68524">
        <ele>315.26645</ele>
        <time>2023-04-24T13:06:54.000Z</time>
      </trkpt>
      <trkpt lat="45.87885" lon="4.68523">
        <ele>315.19269</ele>
        <time>2023-04-24T13:06:55.000Z</time>
      </trkpt>
      <trkpt lat="45.87881" lon="4.68521">
        <ele>315.03802</ele>
        <time>2023-04-24T13:06:56.000Z</time>
      </trkpt>
      <trkpt lat="45.87877" lon="4.68519">
        <ele>315.2374</ele>
        <time>2023-04-24T13:06:57.000Z</time>
      </trkpt>
      <trkpt lat="45.87872" lon="4.68518">
        <ele>315.5188</ele>
        <time>2023-04-24T13:06:58.000Z</time>
      </trkpt>
      <trkpt lat="45.87868" lon="4.68516">
        <ele>315.81018</ele>
        <time>2023-04-24T13:06:59.000Z</time>
      </trkpt>
      <trkpt lat="45.87863" lon="4.68514">
        <ele>315.38922</ele>
        <time>2023-04-24T13:07:00.000Z</time>
      </trkpt>
      <trkpt lat="45.87859" lon="4.68512">
        <ele>315.10397</ele>
        <time>2023-04-24T13:07:01.000Z</time>
      </trkpt>
      <trkpt lat="45.87854" lon="4.6851">
        <ele>314.68069</ele>
        <time>2023-04-24T13:07:02.000Z</time>
      </trkpt>
      <trkpt lat="45.8785" lon="4.68508">
        <ele>314.20615</ele>
        <time>2023-04-24T13:07:03.000Z</time>
      </trkpt>
      <trkpt lat="45.87846" lon="4.68506">
        <ele>314.56387</ele>
        <time>2023-04-24T13:07:04.000Z</time>
      </trkpt>
      <trkpt lat="45.87843" lon="4.68503">
        <ele>315.03641</ele>
        <time>2023-04-24T13:07:05.000Z</time>
      </trkpt>
      <trkpt lat="45.8784" lon="4.68501">
        <ele>315.60931</ele>
        <time>2023-04-24T13:07:06.000Z</time>
      </trkpt>
      <trkpt lat="45.87836" lon="4.685">
        <ele>315.84283</ele>
        <time>2023-04-24T13:07:07.000Z</time>
      </trkpt>
      <trkpt lat="45.87833" lon="4.685">
        <ele>315.38812</ele>
        <time>2023-04-24T13:07:08.000Z</time>
      </trkpt>
      <trkpt lat="45.8783" lon="4.68498">
        <ele>315.06131</ele>
        <time>2023-04-24T13:07:09.000Z</time>
      </trkpt>
      <trkpt lat="45.87827" lon="4.68498">
        <ele>314.7066</ele>
        <time>2023-04-24T13:07:10.000Z</time>
      </trkpt>
      <trkpt lat="45.87823" lon="4.68496">
        <ele>314.10767</ele>
        <time>2023-04-24T13:07:11.000Z</time>
      </trkpt>
      <trkpt lat="45.8782" lon="4.68494">
        <ele>314.28275</ele>
        <time>2023-04-24T13:07:12.000Z</time>
      </trkpt>
      <trkpt lat="45.87816" lon="4.68493">
        <ele>314.34848</ele>
        <time>2023-04-24T13:07:13.000Z</time>
      </trkpt>
      <trkpt lat="45.87813" lon="4.68492">
        <ele>314.4386</ele>
        <time>2023-04-24T13:07:14.000Z</time>
      </trkpt>
      <trkpt lat="45.87809" lon="4.6849">
        <ele>314.8494</ele>
        <time>2023-04-24T13:07:15.000Z</time>
      </trkpt>
      <trkpt lat="45.87805" lon="4.68488">
        <ele>315.38165</ele>
        <time>2023-04-24T13:07:16.000Z</time>
      </trkpt>
      <trkpt lat="45.87801" lon="4.68486">
        <ele>315.91669</ele>
        <time>2023-04-24T13:07:17.000Z</time>
      </trkpt>
      <trkpt lat="45.87798" lon="4.68485">
        <ele>316.4429</ele>
        <time>2023-04-24T13:07:18.000Z</time>
      </trkpt>
      <trkpt lat="45.87794" lon="4.68483">
        <ele>316.93933</ele>
        <time>2023-04-24T13:07:19.000Z</time>
      </trkpt>
      <trkpt lat="45.8779" lon="4.6848">
        <ele>317.4299</ele>
        <time>2023-04-24T13:07:20.000Z</time>
      </trkpt>
      <trkpt lat="45.87786" lon="4.68478">
        <ele>317.40036</ele>
        <time>2023-04-24T13:07:21.000Z</time>
      </trkpt>
      <trkpt lat="45.87783" lon="4.68476">
        <ele>317.40381</ele>
        <time>2023-04-24T13:07:22.000Z</time>
      </trkpt>
      <trkpt lat="45.87779" lon="4.68474">
        <ele>318.17685</ele>
        <time>2023-04-24T13:07:23.000Z</time>
      </trkpt>
      <trkpt lat="45.87776" lon="4.68471">
        <ele>318.01215</ele>
        <time>2023-04-24T13:07:24.000Z</time>
      </trkpt>
      <trkpt lat="45.87772" lon="4.68469">
        <ele>318.0206</ele>
        <time>2023-04-24T13:07:25.000Z</time>
      </trkpt>
      <trkpt lat="45.87769" lon="4.68467">
        <ele>318.04776</ele>
        <time>2023-04-24T13:07:26.000Z</time>
      </trkpt>
      <trkpt lat="45.87765" lon="4.68464">
        <ele>318.10297</ele>
        <time>2023-04-24T13:07:27.000Z</time>
      </trkpt>
      <trkpt lat="45.87762" lon="4.68462">
        <ele>318.08017</ele>
        <time>2023-04-24T13:07:28.000Z</time>
      </trkpt>
      <trkpt lat="45.87758" lon="4.68461">
        <ele>318.81662</ele>
        <time>2023-04-24T13:07:29.000Z</time>
      </trkpt>
      <trkpt lat="45.87754" lon="4.68459">
        <ele>319.42758</ele>
        <time>2023-04-24T13:07:30.000Z</time>
      </trkpt>
      <trkpt lat="45.87751" lon="4.68457">
        <ele>320.24753</ele>
        <time>2023-04-24T13:07:31.000Z</time>
      </trkpt>
      <trkpt lat="45.87747" lon="4.68454">
        <ele>320.34216</ele>
        <time>2023-04-24T13:07:32.000Z</time>
      </trkpt>
      <trkpt lat="45.87743" lon="4.68452">
        <ele>320.53265</ele>
        <time>2023-04-24T13:07:33.000Z</time>
      </trkpt>
      <trkpt lat="45.8774" lon="4.6845">
        <ele>320.71051</ele>
        <time>2023-04-24T13:07:34.000Z</time>
      </trkpt>
      <trkpt lat="45.87736" lon="4.68448">
        <ele>320.89047</ele>
        <time>2023-04-24T13:07:35.000Z</time>
      </trkpt>
      <trkpt lat="45.87732" lon="4.68446">
        <ele>321.01877</ele>
        <time>2023-04-24T13:07:36.000Z</time>
      </trkpt>
      <trkpt lat="45.87729" lon="4.68444">
        <ele>321.17203</ele>
        <time>2023-04-24T13:07:37.000Z</time>
      </trkpt>
      <trkpt lat="45.87725" lon="4.68442">
        <ele>321.31805</ele>
        <time>2023-04-24T13:07:38.000Z</time>
      </trkpt>
      <trkpt lat="45.87722" lon="4.6844">
        <ele>321.4837</ele>
        <time>2023-04-24T13:07:39.000Z</time>
      </trkpt>
      <trkpt lat="45.87718" lon="4.68437">
        <ele>321.70834</ele>
        <time>2023-04-24T13:07:40.000Z</time>
      </trkpt>
      <trkpt lat="45.87715" lon="4.68435">
        <ele>322.36432</ele>
        <time>2023-04-24T13:07:41.000Z</time>
      </trkpt>
      <trkpt lat="45.87711" lon="4.68433">
        <ele>323.12726</ele>
        <time>2023-04-24T13:07:42.000Z</time>
      </trkpt>
      <trkpt lat="45.87707" lon="4.68431">
        <ele>323.21655</ele>
        <time>2023-04-24T13:07:43.000Z</time>
      </trkpt>
      <trkpt lat="45.87703" lon="4.68429">
        <ele>323.45816</ele>
        <time>2023-04-24T13:07:44.000Z</time>
      </trkpt>
      <trkpt lat="45.87699" lon="4.68427">
        <ele>323.72195</ele>
        <time>2023-04-24T13:07:45.000Z</time>
      </trkpt>
      <trkpt lat="45.87696" lon="4.68425">
        <ele>324.02063</ele>
        <time>2023-04-24T13:07:46.000Z</time>
      </trkpt>
      <trkpt lat="45.87692" lon="4.68423">
        <ele>324.25479</ele>
        <time>2023-04-24T13:07:47.000Z</time>
      </trkpt>
      <trkpt lat="45.87688" lon="4.68421">
        <ele>324.47577</ele>
        <time>2023-04-24T13:07:48.000Z</time>
      </trkpt>
      <trkpt lat="45.87684" lon="4.68419">
        <ele>323.93753</ele>
        <time>2023-04-24T13:07:49.000Z</time>
      </trkpt>
      <trkpt lat="45.8768" lon="4.68416">
        <ele>324.34332</ele>
        <time>2023-04-24T13:07:50.000Z</time>
      </trkpt>
      <trkpt lat="45.87676" lon="4.68414">
        <ele>324.61603</ele>
        <time>2023-04-24T13:07:51.000Z</time>
      </trkpt>
      <trkpt lat="45.87672" lon="4.68412">
        <ele>324.84491</ele>
        <time>2023-04-24T13:07:52.000Z</time>
      </trkpt>
      <trkpt lat="45.87668" lon="4.6841">
        <ele>325.09882</ele>
        <time>2023-04-24T13:07:53.000Z</time>
      </trkpt>
      <trkpt lat="45.87664" lon="4.68409">
        <ele>325.35754</ele>
        <time>2023-04-24T13:07:54.000Z</time>
      </trkpt>
      <trkpt lat="45.8766" lon="4.68407">
        <ele>325.61249</ele>
        <time>2023-04-24T13:07:55.000Z</time>
      </trkpt>
      <trkpt lat="45.87656" lon="4.68405">
        <ele>325.92389</ele>
        <time>2023-04-24T13:07:56.000Z</time>
      </trkpt>
      <trkpt lat="45.87652" lon="4.68403">
        <ele>326.25323</ele>
        <time>2023-04-24T13:07:57.000Z</time>
      </trkpt>
      <trkpt lat="45.87648" lon="4.68401">
        <ele>326.59637</ele>
        <time>2023-04-24T13:07:58.000Z</time>
      </trkpt>
      <trkpt lat="45.87645" lon="4.684">
        <ele>326.94476</ele>
        <time>2023-04-24T13:07:59.000Z</time>
      </trkpt>
      <trkpt lat="45.87641" lon="4.68398">
        <ele>327.24075</ele>
        <time>2023-04-24T13:08:00.000Z</time>
      </trkpt>
      <trkpt lat="45.87638" lon="4.68397">
        <ele>327.59598</ele>
        <time>2023-04-24T13:08:01.000Z</time>
      </trkpt>
      <trkpt lat="45.87635" lon="4.68395">
        <ele>327.9668</ele>
        <time>2023-04-24T13:08:02.000Z</time>
      </trkpt>
      <trkpt lat="45.87632" lon="4.68394">
        <ele>329.285</ele>
        <time>2023-04-24T13:08:03.000Z</time>
      </trkpt>
      <trkpt lat="45.87629" lon="4.68394">
        <ele>330.44366</ele>
        <time>2023-04-24T13:08:04.000Z</time>
      </trkpt>
      <trkpt lat="45.87627" lon="4.68393">
        <ele>332.12946</ele>
        <time>2023-04-24T13:08:05.000Z</time>
      </trkpt>
      <trkpt lat="45.87625" lon="4.68393">
        <ele>333.77496</ele>
        <time>2023-04-24T13:08:06.000Z</time>
      </trkpt>
      <trkpt lat="45.87623" lon="4.68393">
        <ele>335.91724</ele>
        <time>2023-04-24T13:08:08.000Z</time>
      </trkpt>
      <trkpt lat="45.87624" lon="4.68392">
        <ele>338.1442</ele>
        <time>2023-04-24T13:08:26.000Z</time>
      </trkpt>
      <trkpt lat="45.87623" lon="4.68392">
        <ele>340.43256</ele>
        <time>2023-04-24T13:09:15.000Z</time>
      </trkpt>
      <trkpt lat="45.87623" lon="4.68389">
        <ele>340.31934</ele>
        <time>2023-04-24T13:10:04.000Z</time>
      </trkpt>
      <trkpt lat="45.87621" lon="4.6839">
        <ele>340.4267</ele>
        <time>2023-04-24T13:12:39.000Z</time>
      </trkpt>
      <trkpt lat="45.87618" lon="4.68388">
        <ele>341.97272</ele>
        <time>2023-04-24T13:12:41.000Z</time>
      </trkpt>
      <trkpt lat="45.87615" lon="4.68386">
        <ele>343.47482</ele>
        <time>2023-04-24T13:12:43.000Z</time>
      </trkpt>
      <trkpt lat="45.87612" lon="4.68386">
        <ele>344.94916</ele>
        <time>2023-04-24T13:12:44.000Z</time>
      </trkpt>
      <trkpt lat="45.87609" lon="4.68387">
        <ele>346.40598</ele>
        <time>2023-04-24T13:12:45.000Z</time>
      </trkpt>
      <trkpt lat="45.87605" lon="4.68387">
        <ele>347.84814</ele>
        <time>2023-04-24T13:12:46.000Z</time>
      </trkpt>
      <trkpt lat="45.87601" lon="4.68388">
        <ele>349.23691</ele>
        <time>2023-04-24T13:12:47.000Z</time>
      </trkpt>
      <trkpt lat="45.87597" lon="4.68389">
        <ele>350.59576</ele>
        <time>2023-04-24T13:12:48.000Z</time>
      </trkpt>
      <trkpt lat="45.87592" lon="4.68391">
        <ele>351.93326</ele>
        <time>2023-04-24T13:12:49.000Z</time>
      </trkpt>
      <trkpt lat="45.87587" lon="4.68391">
        <ele>353.28278</ele>
        <time>2023-04-24T13:12:50.000Z</time>
      </trkpt>
      <trkpt lat="45.87582" lon="4.68392">
        <ele>354.63446</ele>
        <time>2023-04-24T13:12:51.000Z</time>
      </trkpt>
      <trkpt lat="45.87577" lon="4.68392">
        <ele>355.95306</ele>
        <time>2023-04-24T13:12:52.000Z</time>
      </trkpt>
      <trkpt lat="45.8757" lon="4.68394">
        <ele>356.28583</ele>
        <time>2023-04-24T13:12:53.000Z</time>
      </trkpt>
      <trkpt lat="45.87564" lon="4.68395">
        <ele>356.77325</ele>
        <time>2023-04-24T13:12:54.000Z</time>
      </trkpt>
      <trkpt lat="45.87558" lon="4.68396">
        <ele>356.67377</ele>
        <time>2023-04-24T13:12:55.000Z</time>
      </trkpt>
      <trkpt lat="45.87551" lon="4.68397">
        <ele>356.53177</ele>
        <time>2023-04-24T13:12:56.000Z</time>
      </trkpt>
      <trkpt lat="45.87544" lon="4.68397">
        <ele>356.34149</ele>
        <time>2023-04-24T13:12:57.000Z</time>
      </trkpt>
      <trkpt lat="45.87536" lon="4.68398">
        <ele>356.11435</ele>
        <time>2023-04-24T13:12:58.000Z</time>
      </trkpt>
      <trkpt lat="45.8753" lon="4.68399">
        <ele>355.79947</ele>
        <time>2023-04-24T13:12:59.000Z</time>
      </trkpt>
      <trkpt lat="45.87523" lon="4.684">
        <ele>357.05563</ele>
        <time>2023-04-24T13:13:00.000Z</time>
      </trkpt>
      <trkpt lat="45.87517" lon="4.68404">
        <ele>358.21426</ele>
        <time>2023-04-24T13:13:01.000Z</time>
      </trkpt>
      <trkpt lat="45.87511" lon="4.68406">
        <ele>357.89838</ele>
        <time>2023-04-24T13:13:02.000Z</time>
      </trkpt>
      <trkpt lat="45.87506" lon="4.68409">
        <ele>357.60779</ele>
        <time>2023-04-24T13:13:03.000Z</time>
      </trkpt>
      <trkpt lat="45.87502" lon="4.68411">
        <ele>357.36383</ele>
        <time>2023-04-24T13:13:04.000Z</time>
      </trkpt>
      <trkpt lat="45.87499" lon="4.68413">
        <ele>357.08768</ele>
        <time>2023-04-24T13:13:05.000Z</time>
      </trkpt>
      <trkpt lat="45.87496" lon="4.68414">
        <ele>356.82913</ele>
        <time>2023-04-24T13:13:06.000Z</time>
      </trkpt>
      <trkpt lat="45.87493" lon="4.68414">
        <ele>356.57352</ele>
        <time>2023-04-24T13:13:07.000Z</time>
      </trkpt>
      <trkpt lat="45.87491" lon="4.68415">
        <ele>356.26514</ele>
        <time>2023-04-24T13:13:08.000Z</time>
      </trkpt>
      <trkpt lat="45.87489" lon="4.68415">
        <ele>356.0528</ele>
        <time>2023-04-24T13:13:09.000Z</time>
      </trkpt>
      <trkpt lat="45.87487" lon="4.68416">
        <ele>355.86063</ele>
        <time>2023-04-24T13:13:10.000Z</time>
      </trkpt>
      <trkpt lat="45.87485" lon="4.68418">
        <ele>354.30658</ele>
        <time>2023-04-24T13:13:11.000Z</time>
      </trkpt>
      <trkpt lat="45.87484" lon="4.68421">
        <ele>352.74469</ele>
        <time>2023-04-24T13:13:13.000Z</time>
      </trkpt>
      <trkpt lat="45.87483" lon="4.68425">
        <ele>352.43396</ele>
        <time>2023-04-24T13:13:24.000Z</time>
      </trkpt>
      <trkpt lat="45.8748" lon="4.68424">
        <ele>350.78677</ele>
        <time>2023-04-24T13:13:26.000Z</time>
      </trkpt>
      <trkpt lat="45.87477" lon="4.68427">
        <ele>349.21063</ele>
        <time>2023-04-24T13:13:28.000Z</time>
      </trkpt>
      <trkpt lat="45.87477" lon="4.68432">
        <ele>347.69598</ele>
        <time>2023-04-24T13:13:30.000Z</time>
      </trkpt>
      <trkpt lat="45.87478" lon="4.68435">
        <ele>347.5224</ele>
        <time>2023-04-24T13:13:31.000Z</time>
      </trkpt>
      <trkpt lat="45.87479" lon="4.68439">
        <ele>347.39508</ele>
        <time>2023-04-24T13:13:33.000Z</time>
      </trkpt>
      <trkpt lat="45.87478" lon="4.68442">
        <ele>347.28342</ele>
        <time>2023-04-24T13:13:35.000Z</time>
      </trkpt>
      <trkpt lat="45.87476" lon="4.68441">
        <ele>346.11188</ele>
        <time>2023-04-24T13:13:49.000Z</time>
      </trkpt>
      <trkpt lat="45.87473" lon="4.68444">
        <ele>344.6489</ele>
        <time>2023-04-24T13:13:51.000Z</time>
      </trkpt>
      <trkpt lat="45.87471" lon="4.68445">
        <ele>343.19077</ele>
        <time>2023-04-24T13:13:52.000Z</time>
      </trkpt>
      <trkpt lat="45.87468" lon="4.68446">
        <ele>341.71793</ele>
        <time>2023-04-24T13:13:53.000Z</time>
      </trkpt>
      <trkpt lat="45.87465" lon="4.68448">
        <ele>341.19077</ele>
        <time>2023-04-24T13:13:54.000Z</time>
      </trkpt>
      <trkpt lat="45.87461" lon="4.68449">
        <ele>340.69391</ele>
        <time>2023-04-24T13:13:55.000Z</time>
      </trkpt>
      <trkpt lat="45.87458" lon="4.6845">
        <ele>340.14725</ele>
        <time>2023-04-24T13:13:56.000Z</time>
      </trkpt>
      <trkpt lat="45.87454" lon="4.68452">
        <ele>339.58316</ele>
        <time>2023-04-24T13:13:57.000Z</time>
      </trkpt>
      <trkpt lat="45.8745" lon="4.68453">
        <ele>339.06097</ele>
        <time>2023-04-24T13:13:58.000Z</time>
      </trkpt>
      <trkpt lat="45.87447" lon="4.68455">
        <ele>338.42178</ele>
        <time>2023-04-24T13:13:59.000Z</time>
      </trkpt>
      <trkpt lat="45.87443" lon="4.68457">
        <ele>337.79077</ele>
        <time>2023-04-24T13:14:00.000Z</time>
      </trkpt>
      <trkpt lat="45.87439" lon="4.68459">
        <ele>338.51276</ele>
        <time>2023-04-24T13:14:01.000Z</time>
      </trkpt>
      <trkpt lat="45.87434" lon="4.68459">
        <ele>339.22784</ele>
        <time>2023-04-24T13:14:02.000Z</time>
      </trkpt>
      <trkpt lat="45.87429" lon="4.6846">
        <ele>338.66864</ele>
        <time>2023-04-24T13:14:03.000Z</time>
      </trkpt>
      <trkpt lat="45.87424" lon="4.68463">
        <ele>339.41013</ele>
        <time>2023-04-24T13:14:04.000Z</time>
      </trkpt>
      <trkpt lat="45.87418" lon="4.68465">
        <ele>340.08768</ele>
        <time>2023-04-24T13:14:05.000Z</time>
      </trkpt>
      <trkpt lat="45.87412" lon="4.68469">
        <ele>340.89081</ele>
        <time>2023-04-24T13:14:06.000Z</time>
      </trkpt>
      <trkpt lat="45.87407" lon="4.68472">
        <ele>340.05649</ele>
        <time>2023-04-24T13:14:07.000Z</time>
      </trkpt>
      <trkpt lat="45.87401" lon="4.68475">
        <ele>339.1651</ele>
        <time>2023-04-24T13:14:08.000Z</time>
      </trkpt>
      <trkpt lat="45.87395" lon="4.68478">
        <ele>338.27075</ele>
        <time>2023-04-24T13:14:09.000Z</time>
      </trkpt>
      <trkpt lat="45.8739" lon="4.68481">
        <ele>338.74026</ele>
        <time>2023-04-24T13:14:10.000Z</time>
      </trkpt>
      <trkpt lat="45.87384" lon="4.68483">
        <ele>339.46472</ele>
        <time>2023-04-24T13:14:11.000Z</time>
      </trkpt>
      <trkpt lat="45.87379" lon="4.68487">
        <ele>340.1998</ele>
        <time>2023-04-24T13:14:12.000Z</time>
      </trkpt>
      <trkpt lat="45.87373" lon="4.68491">
        <ele>340.9278</ele>
        <time>2023-04-24T13:14:13.000Z</time>
      </trkpt>
      <trkpt lat="45.87368" lon="4.68495">
        <ele>340.65317</ele>
        <time>2023-04-24T13:14:14.000Z</time>
      </trkpt>
      <trkpt lat="45.87364" lon="4.68499">
        <ele>340.3858</ele>
        <time>2023-04-24T13:14:15.000Z</time>
      </trkpt>
      <trkpt lat="45.87357" lon="4.68504">
        <ele>340.11749</ele>
        <time>2023-04-24T13:14:16.000Z</time>
      </trkpt>
      <trkpt lat="45.8735" lon="4.6851">
        <ele>339.85086</ele>
        <time>2023-04-24T13:14:17.000Z</time>
      </trkpt>
      <trkpt lat="45.87343" lon="4.68515">
        <ele>339.37259</ele>
        <time>2023-04-24T13:14:18.000Z</time>
      </trkpt>
      <trkpt lat="45.87335" lon="4.68522">
        <ele>338.89014</ele>
        <time>2023-04-24T13:14:19.000Z</time>
      </trkpt>
      <trkpt lat="45.87328" lon="4.68531">
        <ele>338.34808</ele>
        <time>2023-04-24T13:14:20.000Z</time>
      </trkpt>
      <trkpt lat="45.8732" lon="4.6854">
        <ele>337.7724</ele>
        <time>2023-04-24T13:14:21.000Z</time>
      </trkpt>
      <trkpt lat="45.87311" lon="4.68551">
        <ele>337.14398</ele>
        <time>2023-04-24T13:14:22.000Z</time>
      </trkpt>
      <trkpt lat="45.87301" lon="4.68559">
        <ele>336.50632</ele>
        <time>2023-04-24T13:14:23.000Z</time>
      </trkpt>
      <trkpt lat="45.8729" lon="4.68566">
        <ele>335.84262</ele>
        <time>2023-04-24T13:14:24.000Z</time>
      </trkpt>
      <trkpt lat="45.8728" lon="4.68575">
        <ele>335.1955</ele>
        <time>2023-04-24T13:14:25.000Z</time>
      </trkpt>
      <trkpt lat="45.87269" lon="4.68582">
        <ele>334.35159</ele>
        <time>2023-04-24T13:14:26.000Z</time>
      </trkpt>
      <trkpt lat="45.87256" lon="4.6859">
        <ele>333.81451</ele>
        <time>2023-04-24T13:14:27.000Z</time>
      </trkpt>
      <trkpt lat="45.87245" lon="4.68597">
        <ele>333.25183</ele>
        <time>2023-04-24T13:14:28.000Z</time>
      </trkpt>
      <trkpt lat="45.87235" lon="4.68604">
        <ele>332.63449</ele>
        <time>2023-04-24T13:14:29.000Z</time>
      </trkpt>
      <trkpt lat="45.87225" lon="4.68611">
        <ele>331.72174</ele>
        <time>2023-04-24T13:14:30.000Z</time>
      </trkpt>
      <trkpt lat="45.87216" lon="4.68615">
        <ele>330.8222</ele>
        <time>2023-04-24T13:14:31.000Z</time>
      </trkpt>
      <trkpt lat="45.87208" lon="4.68618">
        <ele>329.90109</ele>
        <time>2023-04-24T13:14:32.000Z</time>
      </trkpt>
      <trkpt lat="45.872" lon="4.68619">
        <ele>328.99451</ele>
        <time>2023-04-24T13:14:33.000Z</time>
      </trkpt>
      <trkpt lat="45.87194" lon="4.68619">
        <ele>328.09866</ele>
        <time>2023-04-24T13:14:34.000Z</time>
      </trkpt>
      <trkpt lat="45.87187" lon="4.68616">
        <ele>327.13812</ele>
        <time>2023-04-24T13:14:35.000Z</time>
      </trkpt>
      <trkpt lat="45.8718" lon="4.68613">
        <ele>326.17075</ele>
        <time>2023-04-24T13:14:36.000Z</time>
      </trkpt>
      <trkpt lat="45.87174" lon="4.68611">
        <ele>325.22095</ele>
        <time>2023-04-24T13:14:37.000Z</time>
      </trkpt>
      <trkpt lat="45.87168" lon="4.6861">
        <ele>324.48996</ele>
        <time>2023-04-24T13:14:38.000Z</time>
      </trkpt>
      <trkpt lat="45.87164" lon="4.68611">
        <ele>323.80054</ele>
        <time>2023-04-24T13:14:39.000Z</time>
      </trkpt>
      <trkpt lat="45.8716" lon="4.68613">
        <ele>323.15265</ele>
        <time>2023-04-24T13:14:40.000Z</time>
      </trkpt>
      <trkpt lat="45.87157" lon="4.68614">
        <ele>322.5144</ele>
        <time>2023-04-24T13:14:41.000Z</time>
      </trkpt>
      <trkpt lat="45.87155" lon="4.68615">
        <ele>321.92429</ele>
        <time>2023-04-24T13:14:42.000Z</time>
      </trkpt>
      <trkpt lat="45.87152" lon="4.68617">
        <ele>321.34003</ele>
        <time>2023-04-24T13:14:43.000Z</time>
      </trkpt>
      <trkpt lat="45.87147" lon="4.68617">
        <ele>320.79453</ele>
        <time>2023-04-24T13:14:44.000Z</time>
      </trkpt>
      <trkpt lat="45.87144" lon="4.68618">
        <ele>320.24414</ele>
        <time>2023-04-24T13:14:45.000Z</time>
      </trkpt>
      <trkpt lat="45.87141" lon="4.6862">
        <ele>319.7265</ele>
        <time>2023-04-24T13:14:46.000Z</time>
      </trkpt>
      <trkpt lat="45.87137" lon="4.68622">
        <ele>319.23386</ele>
        <time>2023-04-24T13:14:47.000Z</time>
      </trkpt>
      <trkpt lat="45.87134" lon="4.68624">
        <ele>318.79742</ele>
        <time>2023-04-24T13:14:48.000Z</time>
      </trkpt>
      <trkpt lat="45.8713" lon="4.68625">
        <ele>318.41681</ele>
        <time>2023-04-24T13:14:49.000Z</time>
      </trkpt>
      <trkpt lat="45.87127" lon="4.68627">
        <ele>318.03079</ele>
        <time>2023-04-24T13:14:50.000Z</time>
      </trkpt>
      <trkpt lat="45.87122" lon="4.68628">
        <ele>317.65732</ele>
        <time>2023-04-24T13:14:51.000Z</time>
      </trkpt>
      <trkpt lat="45.87118" lon="4.68629">
        <ele>317.30328</ele>
        <time>2023-04-24T13:14:52.000Z</time>
      </trkpt>
      <trkpt lat="45.87114" lon="4.6863">
        <ele>316.94135</ele>
        <time>2023-04-24T13:14:53.000Z</time>
      </trkpt>
      <trkpt lat="45.8711" lon="4.68631">
        <ele>316.57623</ele>
        <time>2023-04-24T13:14:54.000Z</time>
      </trkpt>
      <trkpt lat="45.87106" lon="4.68632">
        <ele>316.29858</ele>
        <time>2023-04-24T13:14:55.000Z</time>
      </trkpt>
      <trkpt lat="45.87102" lon="4.68632">
        <ele>316.0423</ele>
        <time>2023-04-24T13:14:56.000Z</time>
      </trkpt>
      <trkpt lat="45.87097" lon="4.68633">
        <ele>315.79172</ele>
        <time>2023-04-24T13:14:57.000Z</time>
      </trkpt>
      <trkpt lat="45.87092" lon="4.68635">
        <ele>315.53534</ele>
        <time>2023-04-24T13:14:58.000Z</time>
      </trkpt>
      <trkpt lat="45.87088" lon="4.68638">
        <ele>315.26083</ele>
        <time>2023-04-24T13:14:59.000Z</time>
      </trkpt>
      <trkpt lat="45.87084" lon="4.68642">
        <ele>315.06372</ele>
        <time>2023-04-24T13:15:00.000Z</time>
      </trkpt>
      <trkpt lat="45.8708" lon="4.68646">
        <ele>314.92682</ele>
        <time>2023-04-24T13:15:01.000Z</time>
      </trkpt>
      <trkpt lat="45.87076" lon="4.68649">
        <ele>314.82123</ele>
        <time>2023-04-24T13:15:02.000Z</time>
      </trkpt>
      <trkpt lat="45.87071" lon="4.68652">
        <ele>314.54861</ele>
        <time>2023-04-24T13:15:03.000Z</time>
      </trkpt>
      <trkpt lat="45.87066" lon="4.68656">
        <ele>314.31927</ele>
        <time>2023-04-24T13:15:04.000Z</time>
      </trkpt>
      <trkpt lat="45.87061" lon="4.68661">
        <ele>314.08722</ele>
        <time>2023-04-24T13:15:05.000Z</time>
      </trkpt>
      <trkpt lat="45.87055" lon="4.68665">
        <ele>313.87054</ele>
        <time>2023-04-24T13:15:06.000Z</time>
      </trkpt>
      <trkpt lat="45.8705" lon="4.68669">
        <ele>313.68008</ele>
        <time>2023-04-24T13:15:07.000Z</time>
      </trkpt>
      <trkpt lat="45.87045" lon="4.68674">
        <ele>313.48529</ele>
        <time>2023-04-24T13:15:08.000Z</time>
      </trkpt>
      <trkpt lat="45.8704" lon="4.68678">
        <ele>313.27417</ele>
        <time>2023-04-24T13:15:09.000Z</time>
      </trkpt>
      <trkpt lat="45.87036" lon="4.68683">
        <ele>313.07544</ele>
        <time>2023-04-24T13:15:10.000Z</time>
      </trkpt>
      <trkpt lat="45.87032" lon="4.68685">
        <ele>312.88544</ele>
        <time>2023-04-24T13:15:11.000Z</time>
      </trkpt>
      <trkpt lat="45.8703" lon="4.68684">
        <ele>312.66016</ele>
        <time>2023-04-24T13:15:12.000Z</time>
      </trkpt>
      <trkpt lat="45.87026" lon="4.68686">
        <ele>312.50034</ele>
        <time>2023-04-24T13:15:14.000Z</time>
      </trkpt>
      <trkpt lat="45.87024" lon="4.68687">
        <ele>312.35251</ele>
        <time>2023-04-24T13:15:15.000Z</time>
      </trkpt>
      <trkpt lat="45.8702" lon="4.68689">
        <ele>312.20599</ele>
        <time>2023-04-24T13:15:17.000Z</time>
      </trkpt>
      <trkpt lat="45.87019" lon="4.68691">
        <ele>312.10999</ele>
        <time>2023-04-24T13:15:18.000Z</time>
      </trkpt>
      <trkpt lat="45.87017" lon="4.68692">
        <ele>312.061</ele>
        <time>2023-04-24T13:15:19.000Z</time>
      </trkpt>
      <trkpt lat="45.87014" lon="4.68693">
        <ele>311.85699</ele>
        <time>2023-04-24T13:15:20.000Z</time>
      </trkpt>
      <trkpt lat="45.87012" lon="4.68694">
        <ele>311.67719</ele>
        <time>2023-04-24T13:15:21.000Z</time>
      </trkpt>
      <trkpt lat="45.8701" lon="4.68695">
        <ele>311.35922</ele>
        <time>2023-04-24T13:15:28.000Z</time>
      </trkpt>
      <trkpt lat="45.87008" lon="4.68696">
        <ele>311.08246</ele>
        <time>2023-04-24T13:15:29.000Z</time>
      </trkpt>
      <trkpt lat="45.87006" lon="4.68697">
        <ele>310.80643</ele>
        <time>2023-04-24T13:15:30.000Z</time>
      </trkpt>
      <trkpt lat="45.87004" lon="4.68699">
        <ele>310.69443</ele>
        <time>2023-04-24T13:15:31.000Z</time>
      </trkpt>
      <trkpt lat="45.87002" lon="4.68701">
        <ele>310.54123</ele>
        <time>2023-04-24T13:15:32.000Z</time>
      </trkpt>
      <trkpt lat="45.87" lon="4.68702">
        <ele>310.45563</ele>
        <time>2023-04-24T13:15:33.000Z</time>
      </trkpt>
      <trkpt lat="45.86998" lon="4.68702">
        <ele>310.63147</ele>
        <time>2023-04-24T13:15:34.000Z</time>
      </trkpt>
      <trkpt lat="45.86995" lon="4.68702">
        <ele>310.76846</ele>
        <time>2023-04-24T13:15:35.000Z</time>
      </trkpt>
      <trkpt lat="45.86993" lon="4.68703">
        <ele>310.90292</ele>
        <time>2023-04-24T13:15:36.000Z</time>
      </trkpt>
      <trkpt lat="45.8699" lon="4.68704">
        <ele>311.04797</ele>
        <time>2023-04-24T13:15:37.000Z</time>
      </trkpt>
      <trkpt lat="45.86986" lon="4.68706">
        <ele>311.0025</ele>
        <time>2023-04-24T13:15:38.000Z</time>
      </trkpt>
      <trkpt lat="45.86984" lon="4.68707">
        <ele>310.9566</ele>
        <time>2023-04-24T13:15:39.000Z</time>
      </trkpt>
      <trkpt lat="45.86981" lon="4.6871">
        <ele>310.69293</ele>
        <time>2023-04-24T13:15:40.000Z</time>
      </trkpt>
      <trkpt lat="45.86978" lon="4.68711">
        <ele>310.38776</ele>
        <time>2023-04-24T13:15:41.000Z</time>
      </trkpt>
      <trkpt lat="45.86976" lon="4.68713">
        <ele>310.08337</ele>
        <time>2023-04-24T13:15:42.000Z</time>
      </trkpt>
      <trkpt lat="45.86974" lon="4.68715">
        <ele>309.73419</ele>
        <time>2023-04-24T13:15:43.000Z</time>
      </trkpt>
      <trkpt lat="45.86971" lon="4.68717">
        <ele>309.34396</ele>
        <time>2023-04-24T13:15:44.000Z</time>
      </trkpt>
      <trkpt lat="45.86968" lon="4.68719">
        <ele>309.01764</ele>
        <time>2023-04-24T13:15:45.000Z</time>
      </trkpt>
      <trkpt lat="45.86966" lon="4.68721">
        <ele>308.9136</ele>
        <time>2023-04-24T13:15:46.000Z</time>
      </trkpt>
      <trkpt lat="45.86963" lon="4.68723">
        <ele>308.78729</ele>
        <time>2023-04-24T13:15:47.000Z</time>
      </trkpt>
      <trkpt lat="45.86961" lon="4.68725">
        <ele>308.47659</ele>
        <time>2023-04-24T13:15:48.000Z</time>
      </trkpt>
      <trkpt lat="45.86958" lon="4.68728">
        <ele>308.13483</ele>
        <time>2023-04-24T13:15:49.000Z</time>
      </trkpt>
      <trkpt lat="45.86955" lon="4.6873">
        <ele>307.79404</ele>
        <time>2023-04-24T13:15:50.000Z</time>
      </trkpt>
      <trkpt lat="45.86952" lon="4.68733">
        <ele>307.47406</ele>
        <time>2023-04-24T13:15:51.000Z</time>
      </trkpt>
      <trkpt lat="45.86949" lon="4.68735">
        <ele>307.15231</ele>
        <time>2023-04-24T13:15:52.000Z</time>
      </trkpt>
      <trkpt lat="45.86946" lon="4.68738">
        <ele>306.88593</ele>
        <time>2023-04-24T13:15:53.000Z</time>
      </trkpt>
      <trkpt lat="45.86943" lon="4.68741">
        <ele>306.34464</ele>
        <time>2023-04-24T13:15:54.000Z</time>
      </trkpt>
      <trkpt lat="45.86941" lon="4.68743">
        <ele>305.7663</ele>
        <time>2023-04-24T13:15:55.000Z</time>
      </trkpt>
      <trkpt lat="45.86938" lon="4.68746">
        <ele>305.27356</ele>
        <time>2023-04-24T13:15:56.000Z</time>
      </trkpt>
      <trkpt lat="45.86935" lon="4.6875">
        <ele>304.77975</ele>
        <time>2023-04-24T13:15:57.000Z</time>
      </trkpt>
      <trkpt lat="45.86932" lon="4.68753">
        <ele>304.14844</ele>
        <time>2023-04-24T13:15:58.000Z</time>
      </trkpt>
      <trkpt lat="45.86929" lon="4.68757">
        <ele>303.54898</ele>
        <time>2023-04-24T13:15:59.000Z</time>
      </trkpt>
      <trkpt lat="45.86926" lon="4.68761">
        <ele>303.18637</ele>
        <time>2023-04-24T13:16:00.000Z</time>
      </trkpt>
      <trkpt lat="45.86923" lon="4.68764">
        <ele>302.7804</ele>
        <time>2023-04-24T13:16:01.000Z</time>
      </trkpt>
      <trkpt lat="45.8692" lon="4.68768">
        <ele>302.36481</ele>
        <time>2023-04-24T13:16:02.000Z</time>
      </trkpt>
      <trkpt lat="45.86917" lon="4.68772">
        <ele>301.97507</ele>
        <time>2023-04-24T13:16:03.000Z</time>
      </trkpt>
      <trkpt lat="45.86915" lon="4.68776">
        <ele>301.55951</ele>
        <time>2023-04-24T13:16:04.000Z</time>
      </trkpt>
      <trkpt lat="45.86912" lon="4.6878">
        <ele>301.24966</ele>
        <time>2023-04-24T13:16:05.000Z</time>
      </trkpt>
      <trkpt lat="45.86909" lon="4.68783">
        <ele>300.93671</ele>
        <time>2023-04-24T13:16:06.000Z</time>
      </trkpt>
      <trkpt lat="45.86907" lon="4.68787">
        <ele>300.63501</ele>
        <time>2023-04-24T13:16:07.000Z</time>
      </trkpt>
      <trkpt lat="45.86904" lon="4.68791">
        <ele>300.20676</ele>
        <time>2023-04-24T13:16:08.000Z</time>
      </trkpt>
      <trkpt lat="45.86901" lon="4.68794">
        <ele>299.78571</ele>
        <time>2023-04-24T13:16:09.000Z</time>
      </trkpt>
      <trkpt lat="45.86899" lon="4.68797">
        <ele>299.35181</ele>
        <time>2023-04-24T13:16:10.000Z</time>
      </trkpt>
      <trkpt lat="45.86897" lon="4.688">
        <ele>298.936</ele>
        <time>2023-04-24T13:16:11.000Z</time>
      </trkpt>
      <trkpt lat="45.86894" lon="4.68804">
        <ele>298.50543</ele>
        <time>2023-04-24T13:16:12.000Z</time>
      </trkpt>
      <trkpt lat="45.86892" lon="4.68807">
        <ele>298.18732</ele>
        <time>2023-04-24T13:16:13.000Z</time>
      </trkpt>
      <trkpt lat="45.8689" lon="4.6881">
        <ele>297.9086</ele>
        <time>2023-04-24T13:16:14.000Z</time>
      </trkpt>
      <trkpt lat="45.86888" lon="4.68813">
        <ele>297.24133</ele>
        <time>2023-04-24T13:16:15.000Z</time>
      </trkpt>
      <trkpt lat="45.86885" lon="4.68816">
        <ele>296.56784</ele>
        <time>2023-04-24T13:16:16.000Z</time>
      </trkpt>
      <trkpt lat="45.86883" lon="4.68819">
        <ele>295.87024</ele>
        <time>2023-04-24T13:16:17.000Z</time>
      </trkpt>
      <trkpt lat="45.86881" lon="4.68822">
        <ele>295.52304</ele>
        <time>2023-04-24T13:16:18.000Z</time>
      </trkpt>
      <trkpt lat="45.86879" lon="4.68825">
        <ele>295.14487</ele>
        <time>2023-04-24T13:16:19.000Z</time>
      </trkpt>
      <trkpt lat="45.86877" lon="4.68828">
        <ele>294.7764</ele>
        <time>2023-04-24T13:16:20.000Z</time>
      </trkpt>
      <trkpt lat="45.86875" lon="4.68831">
        <ele>294.40628</ele>
        <time>2023-04-24T13:16:21.000Z</time>
      </trkpt>
      <trkpt lat="45.86873" lon="4.68834">
        <ele>294.0293</ele>
        <time>2023-04-24T13:16:22.000Z</time>
      </trkpt>
      <trkpt lat="45.8687" lon="4.68836">
        <ele>293.64459</ele>
        <time>2023-04-24T13:16:23.000Z</time>
      </trkpt>
      <trkpt lat="45.86868" lon="4.68839">
        <ele>293.29791</ele>
        <time>2023-04-24T13:16:24.000Z</time>
      </trkpt>
      <trkpt lat="45.86866" lon="4.68841">
        <ele>292.68069</ele>
        <time>2023-04-24T13:16:25.000Z</time>
      </trkpt>
      <trkpt lat="45.86863" lon="4.68843">
        <ele>292.02509</ele>
        <time>2023-04-24T13:16:26.000Z</time>
      </trkpt>
      <trkpt lat="45.86861" lon="4.68845">
        <ele>291.556</ele>
        <time>2023-04-24T13:16:27.000Z</time>
      </trkpt>
      <trkpt lat="45.86859" lon="4.68847">
        <ele>291.60513</ele>
        <time>2023-04-24T13:16:28.000Z</time>
      </trkpt>
      <trkpt lat="45.86857" lon="4.68849">
        <ele>291.10495</ele>
        <time>2023-04-24T13:16:29.000Z</time>
      </trkpt>
      <trkpt lat="45.86854" lon="4.68851">
        <ele>290.69327</ele>
        <time>2023-04-24T13:16:30.000Z</time>
      </trkpt>
      <trkpt lat="45.86852" lon="4.68852">
        <ele>290.24921</ele>
        <time>2023-04-24T13:16:31.000Z</time>
      </trkpt>
      <trkpt lat="45.8685" lon="4.68853">
        <ele>289.82614</ele>
        <time>2023-04-24T13:16:32.000Z</time>
      </trkpt>
      <trkpt lat="45.86847" lon="4.68855">
        <ele>289.11865</ele>
        <time>2023-04-24T13:16:33.000Z</time>
      </trkpt>
      <trkpt lat="45.86845" lon="4.68858">
        <ele>288.39249</ele>
        <time>2023-04-24T13:16:34.000Z</time>
      </trkpt>
      <trkpt lat="45.86843" lon="4.6886">
        <ele>288.10052</ele>
        <time>2023-04-24T13:16:35.000Z</time>
      </trkpt>
      <trkpt lat="45.86841" lon="4.68863">
        <ele>287.72025</ele>
        <time>2023-04-24T13:16:36.000Z</time>
      </trkpt>
      <trkpt lat="45.86839" lon="4.68865">
        <ele>287.36176</ele>
        <time>2023-04-24T13:16:37.000Z</time>
      </trkpt>
      <trkpt lat="45.86837" lon="4.68867">
        <ele>286.98508</ele>
        <time>2023-04-24T13:16:38.000Z</time>
      </trkpt>
      <trkpt lat="45.86835" lon="4.6887">
        <ele>286.59406</ele>
        <time>2023-04-24T13:16:39.000Z</time>
      </trkpt>
      <trkpt lat="45.86833" lon="4.68872">
        <ele>286.20148</ele>
        <time>2023-04-24T13:16:40.000Z</time>
      </trkpt>
      <trkpt lat="45.86831" lon="4.68875">
        <ele>285.80466</ele>
        <time>2023-04-24T13:16:41.000Z</time>
      </trkpt>
      <trkpt lat="45.86829" lon="4.68879">
        <ele>285.62302</ele>
        <time>2023-04-24T13:16:42.000Z</time>
      </trkpt>
      <trkpt lat="45.86826" lon="4.68882">
        <ele>285.43448</ele>
        <time>2023-04-24T13:16:43.000Z</time>
      </trkpt>
      <trkpt lat="45.86824" lon="4.68885">
        <ele>285.4086</ele>
        <time>2023-04-24T13:16:44.000Z</time>
      </trkpt>
      <trkpt lat="45.86823" lon="4.68888">
        <ele>284.86963</ele>
        <time>2023-04-24T13:16:45.000Z</time>
      </trkpt>
      <trkpt lat="45.86821" lon="4.68891">
        <ele>284.39862</ele>
        <time>2023-04-24T13:16:46.000Z</time>
      </trkpt>
      <trkpt lat="45.86819" lon="4.68894">
        <ele>283.72528</ele>
        <time>2023-04-24T13:16:47.000Z</time>
      </trkpt>
      <trkpt lat="45.86817" lon="4.68896">
        <ele>282.89008</ele>
        <time>2023-04-24T13:16:48.000Z</time>
      </trkpt>
      <trkpt lat="45.86816" lon="4.68898">
        <ele>282.51724</ele>
        <time>2023-04-24T13:16:49.000Z</time>
      </trkpt>
      <trkpt lat="45.86814" lon="4.689">
        <ele>280.341</ele>
        <time>2023-04-24T13:17:15.000Z</time>
      </trkpt>
      <trkpt lat="45.86812" lon="4.68903">
        <ele>280.09729</ele>
        <time>2023-04-24T13:17:17.000Z</time>
      </trkpt>
      <trkpt lat="45.8681" lon="4.68905">
        <ele>279.84482</ele>
        <time>2023-04-24T13:17:19.000Z</time>
      </trkpt>
      <trkpt lat="45.86807" lon="4.68908">
        <ele>277.46457</ele>
        <time>2023-04-24T13:17:21.000Z</time>
      </trkpt>
      <trkpt lat="45.86805" lon="4.6891">
        <ele>277.1297</ele>
        <time>2023-04-24T13:17:23.000Z</time>
      </trkpt>
      <trkpt lat="45.86802" lon="4.68913">
        <ele>276.79315</ele>
        <time>2023-04-24T13:17:25.000Z</time>
      </trkpt>
      <trkpt lat="45.868" lon="4.68916">
        <ele>274.57776</ele>
        <time>2023-04-24T13:17:27.000Z</time>
      </trkpt>
      <trkpt lat="45.86797" lon="4.68919">
        <ele>274.15482</ele>
        <time>2023-04-24T13:17:29.000Z</time>
      </trkpt>
      <trkpt lat="45.86796" lon="4.6892">
        <ele>273.7124</ele>
        <time>2023-04-24T13:17:30.000Z</time>
      </trkpt>
      <trkpt lat="45.86794" lon="4.68922">
        <ele>273.2692</ele>
        <time>2023-04-24T13:17:31.000Z</time>
      </trkpt>
      <trkpt lat="45.86792" lon="4.68923">
        <ele>272.82077</ele>
        <time>2023-04-24T13:17:32.000Z</time>
      </trkpt>
      <trkpt lat="45.8679" lon="4.68925">
        <ele>270.58008</ele>
        <time>2023-04-24T13:17:33.000Z</time>
      </trkpt>
      <trkpt lat="45.86789" lon="4.68927">
        <ele>269.83136</ele>
        <time>2023-04-24T13:17:34.000Z</time>
      </trkpt>
      <trkpt lat="45.86787" lon="4.68928">
        <ele>269.0719</ele>
        <time>2023-04-24T13:17:35.000Z</time>
      </trkpt>
      <trkpt lat="45.86785" lon="4.68931">
        <ele>268.10382</ele>
        <time>2023-04-24T13:17:36.000Z</time>
      </trkpt>
      <trkpt lat="45.86783" lon="4.68933">
        <ele>267.65582</ele>
        <time>2023-04-24T13:17:37.000Z</time>
      </trkpt>
      <trkpt lat="45.86782" lon="4.68935">
        <ele>267.12103</ele>
        <time>2023-04-24T13:17:38.000Z</time>
      </trkpt>
      <trkpt lat="45.86779" lon="4.68937">
        <ele>264.94577</ele>
        <time>2023-04-24T13:17:39.000Z</time>
      </trkpt>
      <trkpt lat="45.86777" lon="4.68939">
        <ele>264.32147</ele>
        <time>2023-04-24T13:17:40.000Z</time>
      </trkpt>
      <trkpt lat="45.86775" lon="4.68941">
        <ele>262.22318</ele>
        <time>2023-04-24T13:17:41.000Z</time>
      </trkpt>
      <trkpt lat="45.86773" lon="4.68943">
        <ele>261.82657</ele>
        <time>2023-04-24T13:17:42.000Z</time>
      </trkpt>
      <trkpt lat="45.8677" lon="4.68945">
        <ele>259.49362</ele>
        <time>2023-04-24T13:17:43.000Z</time>
      </trkpt>
      <trkpt lat="45.86767" lon="4.68947">
        <ele>257.15256</ele>
        <time>2023-04-24T13:17:44.000Z</time>
      </trkpt>
      <trkpt lat="45.86765" lon="4.68949">
        <ele>256.96112</ele>
        <time>2023-04-24T13:17:45.000Z</time>
      </trkpt>
      <trkpt lat="45.86762" lon="4.6895">
        <ele>254.70444</ele>
        <time>2023-04-24T13:17:46.000Z</time>
      </trkpt>
      <trkpt lat="45.86759" lon="4.68953">
        <ele>252.46701</ele>
        <time>2023-04-24T13:17:47.000Z</time>
      </trkpt>
      <trkpt lat="45.86757" lon="4.68956">
        <ele>251.84018</ele>
        <time>2023-04-24T13:17:48.000Z</time>
      </trkpt>
      <trkpt lat="45.86755" lon="4.68959">
        <ele>249.36234</ele>
        <time>2023-04-24T13:17:49.000Z</time>
      </trkpt>
      <trkpt lat="45.86754" lon="4.68963">
        <ele>247.30344</ele>
        <time>2023-04-24T13:17:50.000Z</time>
      </trkpt>
      <trkpt lat="45.86753" lon="4.68967">
        <ele>245.17447</ele>
        <time>2023-04-24T13:17:51.000Z</time>
      </trkpt>
      <trkpt lat="45.86752" lon="4.68971">
        <ele>243.04729</ele>
        <time>2023-04-24T13:17:52.000Z</time>
      </trkpt>
      <trkpt lat="45.86751" lon="4.68975">
        <ele>242.73929</ele>
        <time>2023-04-24T13:17:53.000Z</time>
      </trkpt>
      <trkpt lat="45.8675" lon="4.68979">
        <ele>240.71342</ele>
        <time>2023-04-24T13:17:54.000Z</time>
      </trkpt>
      <trkpt lat="45.86749" lon="4.68982">
        <ele>238.69133</ele>
        <time>2023-04-24T13:17:55.000Z</time>
      </trkpt>
      <trkpt lat="45.86747" lon="4.68985">
        <ele>236.68669</ele>
        <time>2023-04-24T13:17:56.000Z</time>
      </trkpt>
      <trkpt lat="45.86746" lon="4.68988">
        <ele>234.70413</ele>
        <time>2023-04-24T13:17:57.000Z</time>
      </trkpt>
      <trkpt lat="45.86744" lon="4.6899">
        <ele>232.73543</ele>
        <time>2023-04-24T13:17:58.000Z</time>
      </trkpt>
      <trkpt lat="45.86742" lon="4.68993">
        <ele>232.24556</ele>
        <time>2023-04-24T13:17:59.000Z</time>
      </trkpt>
      <trkpt lat="45.86741" lon="4.68995">
        <ele>230.11165</ele>
        <time>2023-04-24T13:18:00.000Z</time>
      </trkpt>
      <trkpt lat="45.86739" lon="4.68997">
        <ele>229.41231</ele>
        <time>2023-04-24T13:18:01.000Z</time>
      </trkpt>
      <trkpt lat="45.86737" lon="4.68999">
        <ele>228.66446</ele>
        <time>2023-04-24T13:18:02.000Z</time>
      </trkpt>
      <trkpt lat="45.86735" lon="4.69002">
        <ele>228.30147</ele>
        <time>2023-04-24T13:18:03.000Z</time>
      </trkpt>
      <trkpt lat="45.86733" lon="4.69004">
        <ele>227.92659</ele>
        <time>2023-04-24T13:18:04.000Z</time>
      </trkpt>
      <trkpt lat="45.86732" lon="4.69007">
        <ele>227.59187</ele>
        <time>2023-04-24T13:18:05.000Z</time>
      </trkpt>
      <trkpt lat="45.8673" lon="4.6901">
        <ele>227.25322</ele>
        <time>2023-04-24T13:18:06.000Z</time>
      </trkpt>
      <trkpt lat="45.86729" lon="4.69013">
        <ele>226.90469</ele>
        <time>2023-04-24T13:18:07.000Z</time>
      </trkpt>
      <trkpt lat="45.86727" lon="4.69016">
        <ele>226.69502</ele>
        <time>2023-04-24T13:18:08.000Z</time>
      </trkpt>
      <trkpt lat="45.86726" lon="4.69019">
        <ele>226.51938</ele>
        <time>2023-04-24T13:18:09.000Z</time>
      </trkpt>
      <trkpt lat="45.86725" lon="4.69022">
        <ele>225.87036</ele>
        <time>2023-04-24T13:18:10.000Z</time>
      </trkpt>
      <trkpt lat="45.86725" lon="4.69025">
        <ele>225.26443</ele>
        <time>2023-04-24T13:18:11.000Z</time>
      </trkpt>
      <trkpt lat="45.86723" lon="4.69027">
        <ele>224.65779</ele>
        <time>2023-04-24T13:18:12.000Z</time>
      </trkpt>
      <trkpt lat="45.86722" lon="4.6903">
        <ele>224.3636</ele>
        <time>2023-04-24T13:18:13.000Z</time>
      </trkpt>
      <trkpt lat="45.8672" lon="4.69032">
        <ele>224.01167</ele>
        <time>2023-04-24T13:18:14.000Z</time>
      </trkpt>
      <trkpt lat="45.86718" lon="4.69034">
        <ele>223.65984</ele>
        <time>2023-04-24T13:18:15.000Z</time>
      </trkpt>
      <trkpt lat="45.86716" lon="4.69035">
        <ele>223.27644</ele>
        <time>2023-04-24T13:18:16.000Z</time>
      </trkpt>
      <trkpt lat="45.86713" lon="4.69036">
        <ele>222.85815</ele>
        <time>2023-04-24T13:18:17.000Z</time>
      </trkpt>
      <trkpt lat="45.86711" lon="4.69037">
        <ele>222.46968</ele>
        <time>2023-04-24T13:18:18.000Z</time>
      </trkpt>
      <trkpt lat="45.86709" lon="4.69038">
        <ele>222.25151</ele>
        <time>2023-04-24T13:18:19.000Z</time>
      </trkpt>
      <trkpt lat="45.86706" lon="4.69039">
        <ele>222.14995</ele>
        <time>2023-04-24T13:18:20.000Z</time>
      </trkpt>
      <trkpt lat="45.86703" lon="4.6904">
        <ele>221.93423</ele>
        <time>2023-04-24T13:18:21.000Z</time>
      </trkpt>
      <trkpt lat="45.867" lon="4.69042">
        <ele>221.72397</ele>
        <time>2023-04-24T13:18:22.000Z</time>
      </trkpt>
      <trkpt lat="45.86696" lon="4.69043">
        <ele>221.17505</ele>
        <time>2023-04-24T13:18:23.000Z</time>
      </trkpt>
      <trkpt lat="45.86693" lon="4.69045">
        <ele>220.63184</ele>
        <time>2023-04-24T13:18:24.000Z</time>
      </trkpt>
      <trkpt lat="45.86688" lon="4.69047">
        <ele>220.05188</ele>
        <time>2023-04-24T13:18:25.000Z</time>
      </trkpt>
      <trkpt lat="45.86684" lon="4.69049">
        <ele>219.45975</ele>
        <time>2023-04-24T13:18:26.000Z</time>
      </trkpt>
      <trkpt lat="45.86681" lon="4.69051">
        <ele>218.82246</ele>
        <time>2023-04-24T13:18:27.000Z</time>
      </trkpt>
      <trkpt lat="45.86678" lon="4.69053">
        <ele>218.54985</ele>
        <time>2023-04-24T13:18:28.000Z</time>
      </trkpt>
      <trkpt lat="45.86676" lon="4.69054">
        <ele>218.25363</ele>
        <time>2023-04-24T13:18:29.000Z</time>
      </trkpt>
      <trkpt lat="45.86675" lon="4.69052">
        <ele>218.09151</ele>
        <time>2023-04-24T13:18:31.000Z</time>
      </trkpt>
      <trkpt lat="45.86674" lon="4.6905">
        <ele>218.04471</ele>
        <time>2023-04-24T13:18:45.000Z</time>
      </trkpt>
      <trkpt lat="45.86672" lon="4.69045">
        <ele>218.01221</ele>
        <time>2023-04-24T13:18:47.000Z</time>
      </trkpt>
      <trkpt lat="45.86671" lon="4.69043">
        <ele>217.70963</ele>
        <time>2023-04-24T13:18:48.000Z</time>
      </trkpt>
      <trkpt lat="45.86671" lon="4.6904">
        <ele>217.49619</ele>
        <time>2023-04-24T13:18:49.000Z</time>
      </trkpt>
      <trkpt lat="45.8667" lon="4.69038">
        <ele>217.30148</ele>
        <time>2023-04-24T13:18:50.000Z</time>
      </trkpt>
      <trkpt lat="45.86669" lon="4.69035">
        <ele>217.172</ele>
        <time>2023-04-24T13:18:51.000Z</time>
      </trkpt>
      <trkpt lat="45.86668" lon="4.69032">
        <ele>217.10506</ele>
        <time>2023-04-24T13:18:52.000Z</time>
      </trkpt>
      <trkpt lat="45.86667" lon="4.69028">
        <ele>216.98169</ele>
        <time>2023-04-24T13:18:53.000Z</time>
      </trkpt>
      <trkpt lat="45.86666" lon="4.69025">
        <ele>216.81094</ele>
        <time>2023-04-24T13:18:54.000Z</time>
      </trkpt>
      <trkpt lat="45.86665" lon="4.69022">
        <ele>216.63968</ele>
        <time>2023-04-24T13:18:55.000Z</time>
      </trkpt>
      <trkpt lat="45.86665" lon="4.69018">
        <ele>216.66043</ele>
        <time>2023-04-24T13:18:56.000Z</time>
      </trkpt>
      <trkpt lat="45.86664" lon="4.69015">
        <ele>216.74377</ele>
        <time>2023-04-24T13:18:57.000Z</time>
      </trkpt>
      <trkpt lat="45.86663" lon="4.69011">
        <ele>216.80876</ele>
        <time>2023-04-24T13:18:58.000Z</time>
      </trkpt>
      <trkpt lat="45.86662" lon="4.69007">
        <ele>218.60234</ele>
        <time>2023-04-24T13:18:59.000Z</time>
      </trkpt>
      <trkpt lat="45.86661" lon="4.69004">
        <ele>218.78853</ele>
        <time>2023-04-24T13:19:00.000Z</time>
      </trkpt>
      <trkpt lat="45.86659" lon="4.69">
        <ele>219.03818</ele>
        <time>2023-04-24T13:19:01.000Z</time>
      </trkpt>
      <trkpt lat="45.86658" lon="4.68997">
        <ele>219.16306</ele>
        <time>2023-04-24T13:19:02.000Z</time>
      </trkpt>
      <trkpt lat="45.86657" lon="4.68993">
        <ele>219.08003</ele>
        <time>2023-04-24T13:19:03.000Z</time>
      </trkpt>
      <trkpt lat="45.86656" lon="4.68988">
        <ele>219.06084</ele>
        <time>2023-04-24T13:19:04.000Z</time>
      </trkpt>
      <trkpt lat="45.86655" lon="4.68983">
        <ele>218.92741</ele>
        <time>2023-04-24T13:19:05.000Z</time>
      </trkpt>
      <trkpt lat="45.86654" lon="4.68979">
        <ele>218.99191</ele>
        <time>2023-04-24T13:19:06.000Z</time>
      </trkpt>
      <trkpt lat="45.86654" lon="4.68974">
        <ele>219.00896</ele>
        <time>2023-04-24T13:19:07.000Z</time>
      </trkpt>
      <trkpt lat="45.86653" lon="4.68969">
        <ele>218.97449</ele>
        <time>2023-04-24T13:19:08.000Z</time>
      </trkpt>
      <trkpt lat="45.86652" lon="4.68964">
        <ele>218.91321</ele>
        <time>2023-04-24T13:19:09.000Z</time>
      </trkpt>
      <trkpt lat="45.86651" lon="4.68959">
        <ele>218.83115</ele>
        <time>2023-04-24T13:19:10.000Z</time>
      </trkpt>
      <trkpt lat="45.8665" lon="4.68955">
        <ele>218.72527</ele>
        <time>2023-04-24T13:19:11.000Z</time>
      </trkpt>
      <trkpt lat="45.86649" lon="4.68952">
        <ele>218.72412</ele>
        <time>2023-04-24T13:19:12.000Z</time>
      </trkpt>
      <trkpt lat="45.86649" lon="4.68948">
        <ele>218.75809</ele>
        <time>2023-04-24T13:19:13.000Z</time>
      </trkpt>
      <trkpt lat="45.86649" lon="4.68944">
        <ele>219.30896</ele>
        <time>2023-04-24T13:19:14.000Z</time>
      </trkpt>
      <trkpt lat="45.86648" lon="4.68941">
        <ele>219.43387</ele>
        <time>2023-04-24T13:19:15.000Z</time>
      </trkpt>
      <trkpt lat="45.86648" lon="4.68938">
        <ele>219.57358</ele>
        <time>2023-04-24T13:19:16.000Z</time>
      </trkpt>
      <trkpt lat="45.86646" lon="4.68936">
        <ele>219.71924</ele>
        <time>2023-04-24T13:19:17.000Z</time>
      </trkpt>
      <trkpt lat="45.86645" lon="4.68934">
        <ele>219.86801</ele>
        <time>2023-04-24T13:19:18.000Z</time>
      </trkpt>
      <trkpt lat="45.86644" lon="4.68931">
        <ele>219.73877</ele>
        <time>2023-04-24T13:19:19.000Z</time>
      </trkpt>
      <trkpt lat="45.86646" lon="4.68934">
        <ele>219.82361</ele>
        <time>2023-04-24T13:19:23.000Z</time>
      </trkpt>
      <trkpt lat="45.86644" lon="4.68935">
        <ele>219.67619</ele>
        <time>2023-04-24T13:19:29.000Z</time>
      </trkpt>
      <trkpt lat="45.86645" lon="4.6894">
        <ele>219.82732</ele>
        <time>2023-04-24T13:19:35.000Z</time>
      </trkpt>
      <trkpt lat="45.86646" lon="4.68943">
        <ele>219.95364</ele>
        <time>2023-04-24T13:19:36.000Z</time>
      </trkpt>
      <trkpt lat="45.86646" lon="4.68946">
        <ele>220.59744</ele>
        <time>2023-04-24T13:19:37.000Z</time>
      </trkpt>
      <trkpt lat="45.86647" lon="4.68949">
        <ele>221.30103</ele>
        <time>2023-04-24T13:19:38.000Z</time>
      </trkpt>
      <trkpt lat="45.86648" lon="4.68952">
        <ele>221.79207</ele>
        <time>2023-04-24T13:19:39.000Z</time>
      </trkpt>
      <trkpt lat="45.86649" lon="4.68956">
        <ele>221.75082</ele>
        <time>2023-04-24T13:19:40.000Z</time>
      </trkpt>
      <trkpt lat="45.86649" lon="4.68959">
        <ele>221.70963</ele>
        <time>2023-04-24T13:19:41.000Z</time>
      </trkpt>
      <trkpt lat="45.86649" lon="4.68962">
        <ele>221.69463</ele>
        <time>2023-04-24T13:19:42.000Z</time>
      </trkpt>
      <trkpt lat="45.86649" lon="4.68966">
        <ele>221.71805</ele>
        <time>2023-04-24T13:19:43.000Z</time>
      </trkpt>
      <trkpt lat="45.86647" lon="4.6897">
        <ele>221.74362</ele>
        <time>2023-04-24T13:19:44.000Z</time>
      </trkpt>
      <trkpt lat="45.86645" lon="4.68973">
        <ele>221.68045</ele>
        <time>2023-04-24T13:19:45.000Z</time>
      </trkpt>
      <trkpt lat="45.86642" lon="4.68974">
        <ele>221.63345</ele>
        <time>2023-04-24T13:19:46.000Z</time>
      </trkpt>
      <trkpt lat="45.86639" lon="4.68976">
        <ele>221.11618</ele>
        <time>2023-04-24T13:19:47.000Z</time>
      </trkpt>
      <trkpt lat="45.86636" lon="4.68977">
        <ele>221.02974</ele>
        <time>2023-04-24T13:19:48.000Z</time>
      </trkpt>
      <trkpt lat="45.86633" lon="4.68978">
        <ele>220.94418</ele>
        <time>2023-04-24T13:19:49.000Z</time>
      </trkpt>
      <trkpt lat="45.86631" lon="4.6898">
        <ele>220.81998</ele>
        <time>2023-04-24T13:19:50.000Z</time>
      </trkpt>
      <trkpt lat="45.86628" lon="4.68981">
        <ele>220.70036</ele>
        <time>2023-04-24T13:19:51.000Z</time>
      </trkpt>
      <trkpt lat="45.86625" lon="4.68982">
        <ele>219.12454</ele>
        <time>2023-04-24T13:19:52.000Z</time>
      </trkpt>
      <trkpt lat="45.86622" lon="4.68985">
        <ele>218.94849</ele>
        <time>2023-04-24T13:19:53.000Z</time>
      </trkpt>
      <trkpt lat="45.86619" lon="4.68987">
        <ele>218.85078</ele>
        <time>2023-04-24T13:19:54.000Z</time>
      </trkpt>
      <trkpt lat="45.86615" lon="4.6899">
        <ele>218.60408</ele>
        <time>2023-04-24T13:19:55.000Z</time>
      </trkpt>
      <trkpt lat="45.86611" lon="4.6899">
        <ele>218.36504</ele>
        <time>2023-04-24T13:19:56.000Z</time>
      </trkpt>
      <trkpt lat="45.86607" lon="4.68993">
        <ele>217.60075</ele>
        <time>2023-04-24T13:19:57.000Z</time>
      </trkpt>
      <trkpt lat="45.86603" lon="4.68996">
        <ele>216.82394</ele>
        <time>2023-04-24T13:19:58.000Z</time>
      </trkpt>
      <trkpt lat="45.86599" lon="4.68999">
        <ele>216.00003</ele>
        <time>2023-04-24T13:19:59.000Z</time>
      </trkpt>
      <trkpt lat="45.86595" lon="4.69002">
        <ele>215.75284</ele>
        <time>2023-04-24T13:20:00.000Z</time>
      </trkpt>
      <trkpt lat="45.8659" lon="4.69004">
        <ele>215.53235</ele>
        <time>2023-04-24T13:20:01.000Z</time>
      </trkpt>
      <trkpt lat="45.86586" lon="4.69008">
        <ele>215.31267</ele>
        <time>2023-04-24T13:20:02.000Z</time>
      </trkpt>
      <trkpt lat="45.86582" lon="4.69011">
        <ele>215.01822</ele>
        <time>2023-04-24T13:20:03.000Z</time>
      </trkpt>
      <trkpt lat="45.86578" lon="4.69013">
        <ele>214.66377</ele>
        <time>2023-04-24T13:20:04.000Z</time>
      </trkpt>
      <trkpt lat="45.86573" lon="4.69016">
        <ele>214.28125</ele>
        <time>2023-04-24T13:20:05.000Z</time>
      </trkpt>
      <trkpt lat="45.86569" lon="4.69018">
        <ele>214.033</ele>
        <time>2023-04-24T13:20:06.000Z</time>
      </trkpt>
      <trkpt lat="45.86564" lon="4.69021">
        <ele>213.76895</ele>
        <time>2023-04-24T13:20:07.000Z</time>
      </trkpt>
      <trkpt lat="45.86559" lon="4.69025">
        <ele>213.49026</ele>
        <time>2023-04-24T13:20:08.000Z</time>
      </trkpt>
      <trkpt lat="45.86554" lon="4.69028">
        <ele>213.2081</ele>
        <time>2023-04-24T13:20:09.000Z</time>
      </trkpt>
      <trkpt lat="45.86549" lon="4.69033">
        <ele>212.9637</ele>
        <time>2023-04-24T13:20:10.000Z</time>
      </trkpt>
      <trkpt lat="45.86544" lon="4.69036">
        <ele>212.66891</ele>
        <time>2023-04-24T13:20:11.000Z</time>
      </trkpt>
      <trkpt lat="45.8654" lon="4.69039">
        <ele>212.30579</ele>
        <time>2023-04-24T13:20:12.000Z</time>
      </trkpt>
      <trkpt lat="45.86535" lon="4.69044">
        <ele>211.95894</ele>
        <time>2023-04-24T13:20:13.000Z</time>
      </trkpt>
      <trkpt lat="45.8653" lon="4.69046">
        <ele>211.68204</ele>
        <time>2023-04-24T13:20:14.000Z</time>
      </trkpt>
      <trkpt lat="45.86526" lon="4.69047">
        <ele>211.41362</ele>
        <time>2023-04-24T13:20:15.000Z</time>
      </trkpt>
      <trkpt lat="45.86521" lon="4.6905">
        <ele>211.32742</ele>
        <time>2023-04-24T13:20:16.000Z</time>
      </trkpt>
      <trkpt lat="45.86517" lon="4.69052">
        <ele>211.24008</ele>
        <time>2023-04-24T13:20:17.000Z</time>
      </trkpt>
      <trkpt lat="45.86512" lon="4.69055">
        <ele>211.16411</ele>
        <time>2023-04-24T13:20:18.000Z</time>
      </trkpt>
      <trkpt lat="45.86508" lon="4.69058">
        <ele>211.08423</ele>
        <time>2023-04-24T13:20:19.000Z</time>
      </trkpt>
      <trkpt lat="45.86503" lon="4.69061">
        <ele>210.99419</ele>
        <time>2023-04-24T13:20:20.000Z</time>
      </trkpt>
      <trkpt lat="45.86499" lon="4.69064">
        <ele>211.37732</ele>
        <time>2023-04-24T13:20:21.000Z</time>
      </trkpt>
      <trkpt lat="45.86494" lon="4.69065">
        <ele>211.74316</ele>
        <time>2023-04-24T13:20:22.000Z</time>
      </trkpt>
      <trkpt lat="45.8649" lon="4.69067">
        <ele>212.18892</ele>
        <time>2023-04-24T13:20:23.000Z</time>
      </trkpt>
      <trkpt lat="45.86485" lon="4.69068">
        <ele>212.68967</ele>
        <time>2023-04-24T13:20:24.000Z</time>
      </trkpt>
      <trkpt lat="45.86481" lon="4.69069">
        <ele>213.20236</ele>
        <time>2023-04-24T13:20:25.000Z</time>
      </trkpt>
      <trkpt lat="45.86477" lon="4.6907">
        <ele>213.58577</ele>
        <time>2023-04-24T13:20:26.000Z</time>
      </trkpt>
      <trkpt lat="45.86473" lon="4.6907">
        <ele>213.99333</ele>
        <time>2023-04-24T13:20:27.000Z</time>
      </trkpt>
      <trkpt lat="45.86468" lon="4.69071">
        <ele>214.42522</ele>
        <time>2023-04-24T13:20:28.000Z</time>
      </trkpt>
      <trkpt lat="45.86463" lon="4.69072">
        <ele>214.84628</ele>
        <time>2023-04-24T13:20:29.000Z</time>
      </trkpt>
      <trkpt lat="45.86458" lon="4.69074">
        <ele>215.26614</ele>
        <time>2023-04-24T13:20:30.000Z</time>
      </trkpt>
      <trkpt lat="45.86453" lon="4.69077">
        <ele>215.71187</ele>
        <time>2023-04-24T13:20:31.000Z</time>
      </trkpt>
      <trkpt lat="45.86449" lon="4.6908">
        <ele>216.2863</ele>
        <time>2023-04-24T13:20:32.000Z</time>
      </trkpt>
      <trkpt lat="45.86444" lon="4.69083">
        <ele>216.83537</ele>
        <time>2023-04-24T13:20:33.000Z</time>
      </trkpt>
      <trkpt lat="45.86439" lon="4.69085">
        <ele>217.44743</ele>
        <time>2023-04-24T13:20:34.000Z</time>
      </trkpt>
      <trkpt lat="45.86434" lon="4.69088">
        <ele>218.07202</ele>
        <time>2023-04-24T13:20:35.000Z</time>
      </trkpt>
      <trkpt lat="45.8643" lon="4.69091">
        <ele>218.47978</ele>
        <time>2023-04-24T13:20:36.000Z</time>
      </trkpt>
      <trkpt lat="45.86425" lon="4.69094">
        <ele>219.017</ele>
        <time>2023-04-24T13:20:37.000Z</time>
      </trkpt>
      <trkpt lat="45.8642" lon="4.69097">
        <ele>219.52951</ele>
        <time>2023-04-24T13:20:38.000Z</time>
      </trkpt>
      <trkpt lat="45.86416" lon="4.691">
        <ele>220.1003</ele>
        <time>2023-04-24T13:20:39.000Z</time>
      </trkpt>
      <trkpt lat="45.86412" lon="4.69104">
        <ele>220.47209</ele>
        <time>2023-04-24T13:20:40.000Z</time>
      </trkpt>
      <trkpt lat="45.86407" lon="4.69107">
        <ele>220.38101</ele>
        <time>2023-04-24T13:20:41.000Z</time>
      </trkpt>
      <trkpt lat="45.86404" lon="4.6911">
        <ele>220.30579</ele>
        <time>2023-04-24T13:20:42.000Z</time>
      </trkpt>
      <trkpt lat="45.864" lon="4.69113">
        <ele>220.22079</ele>
        <time>2023-04-24T13:20:43.000Z</time>
      </trkpt>
      <trkpt lat="45.86397" lon="4.69115">
        <ele>220.14612</ele>
        <time>2023-04-24T13:20:44.000Z</time>
      </trkpt>
      <trkpt lat="45.86393" lon="4.69117">
        <ele>220.08838</ele>
        <time>2023-04-24T13:20:45.000Z</time>
      </trkpt>
      <trkpt lat="45.8639" lon="4.6912">
        <ele>219.9711</ele>
        <time>2023-04-24T13:20:46.000Z</time>
      </trkpt>
      <trkpt lat="45.86387" lon="4.69122">
        <ele>219.85989</ele>
        <time>2023-04-24T13:20:47.000Z</time>
      </trkpt>
      <trkpt lat="45.86384" lon="4.69124">
        <ele>219.73306</ele>
        <time>2023-04-24T13:20:48.000Z</time>
      </trkpt>
      <trkpt lat="45.86381" lon="4.69126">
        <ele>219.59152</ele>
        <time>2023-04-24T13:20:49.000Z</time>
      </trkpt>
      <trkpt lat="45.86378" lon="4.69128">
        <ele>219.43088</ele>
        <time>2023-04-24T13:20:50.000Z</time>
      </trkpt>
      <trkpt lat="45.86375" lon="4.6913">
        <ele>219.41464</ele>
        <time>2023-04-24T13:20:51.000Z</time>
      </trkpt>
      <trkpt lat="45.86371" lon="4.69131">
        <ele>219.36348</ele>
        <time>2023-04-24T13:20:52.000Z</time>
      </trkpt>
      <trkpt lat="45.86368" lon="4.69131">
        <ele>219.36353</ele>
        <time>2023-04-24T13:20:53.000Z</time>
      </trkpt>
      <trkpt lat="45.86365" lon="4.69129">
        <ele>219.34416</ele>
        <time>2023-04-24T13:20:54.000Z</time>
      </trkpt>
      <trkpt lat="45.86362" lon="4.69127">
        <ele>219.1113</ele>
        <time>2023-04-24T13:20:55.000Z</time>
      </trkpt>
      <trkpt lat="45.86362" lon="4.69123">
        <ele>218.97937</ele>
        <time>2023-04-24T13:20:56.000Z</time>
      </trkpt>
      <trkpt lat="45.86361" lon="4.69118">
        <ele>218.73984</ele>
        <time>2023-04-24T13:20:57.000Z</time>
      </trkpt>
      <trkpt lat="45.86361" lon="4.69113">
        <ele>218.52515</ele>
        <time>2023-04-24T13:20:58.000Z</time>
      </trkpt>
      <trkpt lat="45.86361" lon="4.69109">
        <ele>218.24683</ele>
        <time>2023-04-24T13:20:59.000Z</time>
      </trkpt>
      <trkpt lat="45.86359" lon="4.69104">
        <ele>218.17265</ele>
        <time>2023-04-24T13:21:00.000Z</time>
      </trkpt>
      <trkpt lat="45.86358" lon="4.69099">
        <ele>218.15347</ele>
        <time>2023-04-24T13:21:01.000Z</time>
      </trkpt>
      <trkpt lat="45.86357" lon="4.69096">
        <ele>218.18401</ele>
        <time>2023-04-24T13:21:02.000Z</time>
      </trkpt>
      <trkpt lat="45.86355" lon="4.69093">
        <ele>218.25923</ele>
        <time>2023-04-24T13:21:03.000Z</time>
      </trkpt>
      <trkpt lat="45.86353" lon="4.69092">
        <ele>218.35262</ele>
        <time>2023-04-24T13:21:04.000Z</time>
      </trkpt>
      <trkpt lat="45.86351" lon="4.6909">
        <ele>218.17624</ele>
        <time>2023-04-24T13:21:05.000Z</time>
      </trkpt>
      <trkpt lat="45.86352" lon="4.69087">
        <ele>218.07864</ele>
        <time>2023-04-24T13:21:06.000Z</time>
      </trkpt>
      <trkpt lat="45.86354" lon="4.69086">
        <ele>217.95535</ele>
        <time>2023-04-24T13:21:07.000Z</time>
      </trkpt>
      <trkpt lat="45.86356" lon="4.69087">
        <ele>217.84602</ele>
        <time>2023-04-24T13:21:08.000Z</time>
      </trkpt>
      <trkpt lat="45.86357" lon="4.6909">
        <ele>217.90555</ele>
        <time>2023-04-24T13:21:09.000Z</time>
      </trkpt>
      <trkpt lat="45.86359" lon="4.69094">
        <ele>218.01163</ele>
        <time>2023-04-24T13:21:10.000Z</time>
      </trkpt>
      <trkpt lat="45.8636" lon="4.69098">
        <ele>217.79265</ele>
        <time>2023-04-24T13:21:11.000Z</time>
      </trkpt>
      <trkpt lat="45.86361" lon="4.69101">
        <ele>217.62346</ele>
        <time>2023-04-24T13:21:12.000Z</time>
      </trkpt>
      <trkpt lat="45.86362" lon="4.69104">
        <ele>217.42232</ele>
        <time>2023-04-24T13:21:13.000Z</time>
      </trkpt>
      <trkpt lat="45.86361" lon="4.69108">
        <ele>217.19804</ele>
        <time>2023-04-24T13:21:15.000Z</time>
      </trkpt>
      <trkpt lat="45.86359" lon="4.69105">
        <ele>217.19763</ele>
        <time>2023-04-24T13:21:17.000Z</time>
      </trkpt>
      <trkpt lat="45.86359" lon="4.69103">
        <ele>217.11324</ele>
        <time>2023-04-24T13:21:18.000Z</time>
      </trkpt>
      <trkpt lat="45.86358" lon="4.691">
        <ele>217.03247</ele>
        <time>2023-04-24T13:21:19.000Z</time>
      </trkpt>
      <trkpt lat="45.86358" lon="4.69097">
        <ele>216.92981</ele>
        <time>2023-04-24T13:21:20.000Z</time>
      </trkpt>
      <trkpt lat="45.86356" lon="4.69093">
        <ele>216.82553</ele>
        <time>2023-04-24T13:21:21.000Z</time>
      </trkpt>
      <trkpt lat="45.86354" lon="4.6909">
        <ele>216.70193</ele>
        <time>2023-04-24T13:21:22.000Z</time>
      </trkpt>
      <trkpt lat="45.86352" lon="4.69086">
        <ele>216.49812</ele>
        <time>2023-04-24T13:21:23.000Z</time>
      </trkpt>
      <trkpt lat="45.8635" lon="4.69083">
        <ele>216.25159</ele>
        <time>2023-04-24T13:21:24.000Z</time>
      </trkpt>
      <trkpt lat="45.86347" lon="4.69079">
        <ele>215.93872</ele>
        <time>2023-04-24T13:21:25.000Z</time>
      </trkpt>
      <trkpt lat="45.86343" lon="4.69076">
        <ele>215.63579</ele>
        <time>2023-04-24T13:21:26.000Z</time>
      </trkpt>
      <trkpt lat="45.86339" lon="4.69075">
        <ele>215.58049</ele>
        <time>2023-04-24T13:21:27.000Z</time>
      </trkpt>
      <trkpt lat="45.86336" lon="4.6907">
        <ele>215.48709</ele>
        <time>2023-04-24T13:21:28.000Z</time>
      </trkpt>
      <trkpt lat="45.86334" lon="4.69064">
        <ele>215.41577</ele>
        <time>2023-04-24T13:21:29.000Z</time>
      </trkpt>
      <trkpt lat="45.86332" lon="4.69059">
        <ele>215.35025</ele>
        <time>2023-04-24T13:21:30.000Z</time>
      </trkpt>
      <trkpt lat="45.8633" lon="4.69053">
        <ele>215.16309</ele>
        <time>2023-04-24T13:21:31.000Z</time>
      </trkpt>
      <trkpt lat="45.86328" lon="4.69048">
        <ele>214.98892</ele>
        <time>2023-04-24T13:21:32.000Z</time>
      </trkpt>
      <trkpt lat="45.86327" lon="4.69044">
        <ele>215.02104</ele>
        <time>2023-04-24T13:21:33.000Z</time>
      </trkpt>
      <trkpt lat="45.86325" lon="4.6904">
        <ele>215.03543</ele>
        <time>2023-04-24T13:21:34.000Z</time>
      </trkpt>
      <trkpt lat="45.86323" lon="4.69036">
        <ele>215.07242</ele>
        <time>2023-04-24T13:21:35.000Z</time>
      </trkpt>
      <trkpt lat="45.86322" lon="4.6903">
        <ele>215.11687</ele>
        <time>2023-04-24T13:21:36.000Z</time>
      </trkpt>
      <trkpt lat="45.8632" lon="4.69026">
        <ele>215.18289</ele>
        <time>2023-04-24T13:21:37.000Z</time>
      </trkpt>
      <trkpt lat="45.86319" lon="4.69021">
        <ele>215.26376</ele>
        <time>2023-04-24T13:21:38.000Z</time>
      </trkpt>
      <trkpt lat="45.86317" lon="4.69017">
        <ele>215.33521</ele>
        <time>2023-04-24T13:21:39.000Z</time>
      </trkpt>
      <trkpt lat="45.86315" lon="4.69014">
        <ele>215.45068</ele>
        <time>2023-04-24T13:21:40.000Z</time>
      </trkpt>
      <trkpt lat="45.86313" lon="4.69009">
        <ele>215.61441</ele>
        <time>2023-04-24T13:21:41.000Z</time>
      </trkpt>
      <trkpt lat="45.86312" lon="4.69005">
        <ele>215.21359</ele>
        <time>2023-04-24T13:21:42.000Z</time>
      </trkpt>
      <trkpt lat="45.8631" lon="4.69">
        <ele>214.89993</ele>
        <time>2023-04-24T13:21:43.000Z</time>
      </trkpt>
      <trkpt lat="45.86308" lon="4.68995">
        <ele>214.59396</ele>
        <time>2023-04-24T13:21:44.000Z</time>
      </trkpt>
      <trkpt lat="45.86307" lon="4.68991">
        <ele>214.34138</ele>
        <time>2023-04-24T13:21:45.000Z</time>
      </trkpt>
      <trkpt lat="45.86305" lon="4.68987">
        <ele>214.0854</ele>
        <time>2023-04-24T13:21:46.000Z</time>
      </trkpt>
      <trkpt lat="45.86304" lon="4.68983">
        <ele>213.83484</ele>
        <time>2023-04-24T13:21:47.000Z</time>
      </trkpt>
      <trkpt lat="45.86302" lon="4.68979">
        <ele>214.08232</ele>
        <time>2023-04-24T13:21:48.000Z</time>
      </trkpt>
      <trkpt lat="45.863" lon="4.68975">
        <ele>214.35757</ele>
        <time>2023-04-24T13:21:49.000Z</time>
      </trkpt>
      <trkpt lat="45.86298" lon="4.68972">
        <ele>214.74719</ele>
        <time>2023-04-24T13:21:50.000Z</time>
      </trkpt>
      <trkpt lat="45.86296" lon="4.68967">
        <ele>215.11182</ele>
        <time>2023-04-24T13:21:51.000Z</time>
      </trkpt>
      <trkpt lat="45.86294" lon="4.68963">
        <ele>215.4895</ele>
        <time>2023-04-24T13:21:52.000Z</time>
      </trkpt>
      <trkpt lat="45.86292" lon="4.68959">
        <ele>215.66342</ele>
        <time>2023-04-24T13:21:53.000Z</time>
      </trkpt>
      <trkpt lat="45.8629" lon="4.68955">
        <ele>215.8309</ele>
        <time>2023-04-24T13:21:54.000Z</time>
      </trkpt>
      <trkpt lat="45.86287" lon="4.68951">
        <ele>215.95158</ele>
        <time>2023-04-24T13:21:55.000Z</time>
      </trkpt>
      <trkpt lat="45.86285" lon="4.68947">
        <ele>216.10213</ele>
        <time>2023-04-24T13:21:56.000Z</time>
      </trkpt>
      <trkpt lat="45.86284" lon="4.68943">
        <ele>216.29594</ele>
        <time>2023-04-24T13:21:57.000Z</time>
      </trkpt>
      <trkpt lat="45.86281" lon="4.68938">
        <ele>216.49385</ele>
        <time>2023-04-24T13:21:58.000Z</time>
      </trkpt>
      <trkpt lat="45.86279" lon="4.68934">
        <ele>216.64682</ele>
        <time>2023-04-24T13:21:59.000Z</time>
      </trkpt>
      <trkpt lat="45.86277" lon="4.6893">
        <ele>216.77824</ele>
        <time>2023-04-24T13:22:00.000Z</time>
      </trkpt>
      <trkpt lat="45.86275" lon="4.68926">
        <ele>217.12741</ele>
        <time>2023-04-24T13:22:01.000Z</time>
      </trkpt>
      <trkpt lat="45.86273" lon="4.68922">
        <ele>217.18608</ele>
        <time>2023-04-24T13:22:02.000Z</time>
      </trkpt>
      <trkpt lat="45.86271" lon="4.68918">
        <ele>217.18161</ele>
        <time>2023-04-24T13:22:03.000Z</time>
      </trkpt>
      <trkpt lat="45.86268" lon="4.68913">
        <ele>217.21011</ele>
        <time>2023-04-24T13:22:04.000Z</time>
      </trkpt>
      <trkpt lat="45.86266" lon="4.68909">
        <ele>217.2074</ele>
        <time>2023-04-24T13:22:05.000Z</time>
      </trkpt>
      <trkpt lat="45.86264" lon="4.68905">
        <ele>217.203</ele>
        <time>2023-04-24T13:22:06.000Z</time>
      </trkpt>
      <trkpt lat="45.86261" lon="4.689">
        <ele>217.19778</ele>
        <time>2023-04-24T13:22:07.000Z</time>
      </trkpt>
      <trkpt lat="45.86259" lon="4.68896">
        <ele>216.69087</ele>
        <time>2023-04-24T13:22:08.000Z</time>
      </trkpt>
      <trkpt lat="45.86256" lon="4.68891">
        <ele>216.16199</ele>
        <time>2023-04-24T13:22:09.000Z</time>
      </trkpt>
      <trkpt lat="45.86254" lon="4.68887">
        <ele>215.52676</ele>
        <time>2023-04-24T13:22:10.000Z</time>
      </trkpt>
      <trkpt lat="45.86252" lon="4.68882">
        <ele>214.90335</ele>
        <time>2023-04-24T13:22:11.000Z</time>
      </trkpt>
      <trkpt lat="45.86249" lon="4.68877">
        <ele>214.77017</ele>
        <time>2023-04-24T13:22:12.000Z</time>
      </trkpt>
      <trkpt lat="45.86247" lon="4.68871">
        <ele>214.76602</ele>
        <time>2023-04-24T13:22:13.000Z</time>
      </trkpt>
      <trkpt lat="45.86245" lon="4.68866">
        <ele>214.76326</ele>
        <time>2023-04-24T13:22:14.000Z</time>
      </trkpt>
      <trkpt lat="45.86243" lon="4.68861">
        <ele>214.79282</ele>
        <time>2023-04-24T13:22:15.000Z</time>
      </trkpt>
      <trkpt lat="45.86241" lon="4.68856">
        <ele>214.18967</ele>
        <time>2023-04-24T13:22:16.000Z</time>
      </trkpt>
      <trkpt lat="45.86238" lon="4.6885">
        <ele>214.14046</ele>
        <time>2023-04-24T13:22:17.000Z</time>
      </trkpt>
      <trkpt lat="45.86236" lon="4.68845">
        <ele>214.08855</ele>
        <time>2023-04-24T13:22:18.000Z</time>
      </trkpt>
      <trkpt lat="45.86234" lon="4.68839">
        <ele>214.08369</ele>
        <time>2023-04-24T13:22:19.000Z</time>
      </trkpt>
      <trkpt lat="45.86232" lon="4.68834">
        <ele>214.10674</ele>
        <time>2023-04-24T13:22:20.000Z</time>
      </trkpt>
      <trkpt lat="45.8623" lon="4.68829">
        <ele>213.87793</ele>
        <time>2023-04-24T13:22:21.000Z</time>
      </trkpt>
      <trkpt lat="45.86228" lon="4.68824">
        <ele>214.54709</ele>
        <time>2023-04-24T13:22:22.000Z</time>
      </trkpt>
      <trkpt lat="45.86226" lon="4.68818">
        <ele>215.21904</ele>
        <time>2023-04-24T13:22:23.000Z</time>
      </trkpt>
      <trkpt lat="45.86224" lon="4.68813">
        <ele>215.86435</ele>
        <time>2023-04-24T13:22:24.000Z</time>
      </trkpt>
      <trkpt lat="45.86221" lon="4.68808">
        <ele>216.50398</ele>
        <time>2023-04-24T13:22:25.000Z</time>
      </trkpt>
      <trkpt lat="45.86218" lon="4.68802">
        <ele>217.13315</ele>
        <time>2023-04-24T13:22:26.000Z</time>
      </trkpt>
      <trkpt lat="45.86215" lon="4.68797">
        <ele>217.74841</ele>
        <time>2023-04-24T13:22:27.000Z</time>
      </trkpt>
      <trkpt lat="45.86213" lon="4.68792">
        <ele>218.36995</ele>
        <time>2023-04-24T13:22:28.000Z</time>
      </trkpt>
      <trkpt lat="45.8621" lon="4.68787">
        <ele>218.98923</ele>
        <time>2023-04-24T13:22:29.000Z</time>
      </trkpt>
      <trkpt lat="45.86207" lon="4.68782">
        <ele>219.59055</ele>
        <time>2023-04-24T13:22:30.000Z</time>
      </trkpt>
      <trkpt lat="45.86204" lon="4.68777">
        <ele>220.19736</ele>
        <time>2023-04-24T13:22:31.000Z</time>
      </trkpt>
      <trkpt lat="45.86202" lon="4.68772">
        <ele>220.26262</ele>
        <time>2023-04-24T13:22:32.000Z</time>
      </trkpt>
      <trkpt lat="45.862" lon="4.68766">
        <ele>220.38945</ele>
        <time>2023-04-24T13:22:33.000Z</time>
      </trkpt>
      <trkpt lat="45.86197" lon="4.68761">
        <ele>220.49654</ele>
        <time>2023-04-24T13:22:34.000Z</time>
      </trkpt>
      <trkpt lat="45.86194" lon="4.68755">
        <ele>220.61069</ele>
        <time>2023-04-24T13:22:35.000Z</time>
      </trkpt>
      <trkpt lat="45.86192" lon="4.68749">
        <ele>221.35306</ele>
        <time>2023-04-24T13:22:36.000Z</time>
      </trkpt>
      <trkpt lat="45.86189" lon="4.68744">
        <ele>221.48064</ele>
        <time>2023-04-24T13:22:37.000Z</time>
      </trkpt>
      <trkpt lat="45.86186" lon="4.68739">
        <ele>221.69131</ele>
        <time>2023-04-24T13:22:38.000Z</time>
      </trkpt>
      <trkpt lat="45.86184" lon="4.68733">
        <ele>221.88094</ele>
        <time>2023-04-24T13:22:39.000Z</time>
      </trkpt>
      <trkpt lat="45.86181" lon="4.68728">
        <ele>222.07907</ele>
        <time>2023-04-24T13:22:40.000Z</time>
      </trkpt>
      <trkpt lat="45.86178" lon="4.68722">
        <ele>222.13025</ele>
        <time>2023-04-24T13:22:41.000Z</time>
      </trkpt>
      <trkpt lat="45.86176" lon="4.68716">
        <ele>222.20744</ele>
        <time>2023-04-24T13:22:42.000Z</time>
      </trkpt>
      <trkpt lat="45.86174" lon="4.68711">
        <ele>222.27701</ele>
        <time>2023-04-24T13:22:43.000Z</time>
      </trkpt>
      <trkpt lat="45.86172" lon="4.68705">
        <ele>222.30447</ele>
        <time>2023-04-24T13:22:44.000Z</time>
      </trkpt>
      <trkpt lat="45.8617" lon="4.687">
        <ele>222.34396</ele>
        <time>2023-04-24T13:22:45.000Z</time>
      </trkpt>
      <trkpt lat="45.86167" lon="4.68695">
        <ele>222.392</ele>
        <time>2023-04-24T13:22:46.000Z</time>
      </trkpt>
      <trkpt lat="45.86164" lon="4.68689">
        <ele>222.44746</ele>
        <time>2023-04-24T13:22:47.000Z</time>
      </trkpt>
      <trkpt lat="45.86161" lon="4.68684">
        <ele>222.48686</ele>
        <time>2023-04-24T13:22:48.000Z</time>
      </trkpt>
      <trkpt lat="45.86158" lon="4.68679">
        <ele>222.50777</ele>
        <time>2023-04-24T13:22:49.000Z</time>
      </trkpt>
      <trkpt lat="45.86156" lon="4.68673">
        <ele>222.53108</ele>
        <time>2023-04-24T13:22:50.000Z</time>
      </trkpt>
      <trkpt lat="45.86152" lon="4.68668">
        <ele>222.55086</ele>
        <time>2023-04-24T13:22:51.000Z</time>
      </trkpt>
      <trkpt lat="45.8615" lon="4.68663">
        <ele>222.54272</ele>
        <time>2023-04-24T13:22:52.000Z</time>
      </trkpt>
      <trkpt lat="45.86147" lon="4.68658">
        <ele>222.53247</ele>
        <time>2023-04-24T13:22:53.000Z</time>
      </trkpt>
      <trkpt lat="45.86145" lon="4.68653">
        <ele>222.51907</ele>
        <time>2023-04-24T13:22:54.000Z</time>
      </trkpt>
      <trkpt lat="45.86142" lon="4.68647">
        <ele>222.57007</ele>
        <time>2023-04-24T13:22:55.000Z</time>
      </trkpt>
      <trkpt lat="45.86139" lon="4.68642">
        <ele>222.63554</ele>
        <time>2023-04-24T13:22:56.000Z</time>
      </trkpt>
      <trkpt lat="45.86136" lon="4.68636">
        <ele>222.68259</ele>
        <time>2023-04-24T13:22:57.000Z</time>
      </trkpt>
      <trkpt lat="45.86135" lon="4.6863">
        <ele>222.64555</ele>
        <time>2023-04-24T13:22:58.000Z</time>
      </trkpt>
      <trkpt lat="45.86133" lon="4.68625">
        <ele>222.64017</ele>
        <time>2023-04-24T13:22:59.000Z</time>
      </trkpt>
      <trkpt lat="45.86132" lon="4.68621">
        <ele>222.61905</ele>
        <time>2023-04-24T13:23:00.000Z</time>
      </trkpt>
      <trkpt lat="45.86129" lon="4.68617">
        <ele>222.74231</ele>
        <time>2023-04-24T13:23:01.000Z</time>
      </trkpt>
      <trkpt lat="45.86126" lon="4.68613">
        <ele>222.8381</ele>
        <time>2023-04-24T13:23:02.000Z</time>
      </trkpt>
      <trkpt lat="45.86123" lon="4.6861">
        <ele>222.89633</ele>
        <time>2023-04-24T13:23:03.000Z</time>
      </trkpt>
      <trkpt lat="45.8612" lon="4.68606">
        <ele>222.97136</ele>
        <time>2023-04-24T13:23:04.000Z</time>
      </trkpt>
      <trkpt lat="45.86116" lon="4.68601">
        <ele>223.02971</ele>
        <time>2023-04-24T13:23:05.000Z</time>
      </trkpt>
      <trkpt lat="45.86113" lon="4.68597">
        <ele>222.86523</ele>
        <time>2023-04-24T13:23:06.000Z</time>
      </trkpt>
      <trkpt lat="45.86109" lon="4.68593">
        <ele>222.7439</ele>
        <time>2023-04-24T13:23:07.000Z</time>
      </trkpt>
      <trkpt lat="45.86105" lon="4.6859">
        <ele>222.63675</ele>
        <time>2023-04-24T13:23:08.000Z</time>
      </trkpt>
      <trkpt lat="45.86102" lon="4.68587">
        <ele>222.52734</ele>
        <time>2023-04-24T13:23:09.000Z</time>
      </trkpt>
      <trkpt lat="45.86098" lon="4.68584">
        <ele>222.40073</ele>
        <time>2023-04-24T13:23:10.000Z</time>
      </trkpt>
      <trkpt lat="45.86095" lon="4.6858">
        <ele>222.25882</ele>
        <time>2023-04-24T13:23:11.000Z</time>
      </trkpt>
      <trkpt lat="45.86091" lon="4.68576">
        <ele>222.11699</ele>
        <time>2023-04-24T13:23:12.000Z</time>
      </trkpt>
      <trkpt lat="45.86088" lon="4.68573">
        <ele>221.95293</ele>
        <time>2023-04-24T13:23:13.000Z</time>
      </trkpt>
      <trkpt lat="45.86084" lon="4.6857">
        <ele>221.78027</ele>
        <time>2023-04-24T13:23:14.000Z</time>
      </trkpt>
      <trkpt lat="45.8608" lon="4.68566">
        <ele>221.52234</ele>
        <time>2023-04-24T13:23:15.000Z</time>
      </trkpt>
      <trkpt lat="45.86075" lon="4.68563">
        <ele>221.21851</ele>
        <time>2023-04-24T13:23:16.000Z</time>
      </trkpt>
      <trkpt lat="45.86068" lon="4.68561">
        <ele>220.89717</ele>
        <time>2023-04-24T13:23:17.000Z</time>
      </trkpt>
      <trkpt lat="45.86061" lon="4.6856">
        <ele>220.55147</ele>
        <time>2023-04-24T13:23:18.000Z</time>
      </trkpt>
      <trkpt lat="45.86055" lon="4.68558">
        <ele>220.15536</ele>
        <time>2023-04-24T13:23:19.000Z</time>
      </trkpt>
      <trkpt lat="45.86048" lon="4.68558">
        <ele>219.71439</ele>
        <time>2023-04-24T13:23:20.000Z</time>
      </trkpt>
      <trkpt lat="45.86042" lon="4.68558">
        <ele>219.25017</ele>
        <time>2023-04-24T13:23:21.000Z</time>
      </trkpt>
      <trkpt lat="45.86036" lon="4.68558">
        <ele>218.75479</ele>
        <time>2023-04-24T13:23:22.000Z</time>
      </trkpt>
      <trkpt lat="45.86032" lon="4.6856">
        <ele>218.24478</ele>
        <time>2023-04-24T13:23:23.000Z</time>
      </trkpt>
      <trkpt lat="45.86028" lon="4.68565">
        <ele>217.69373</ele>
        <time>2023-04-24T13:23:24.000Z</time>
      </trkpt>
      <trkpt lat="45.86027" lon="4.68571">
        <ele>217.06946</ele>
        <time>2023-04-24T13:23:25.000Z</time>
      </trkpt>
      <trkpt lat="45.86026" lon="4.68579">
        <ele>216.64177</ele>
        <time>2023-04-24T13:23:26.000Z</time>
      </trkpt>
      <trkpt lat="45.86025" lon="4.68589">
        <ele>216.17305</ele>
        <time>2023-04-24T13:23:27.000Z</time>
      </trkpt>
      <trkpt lat="45.86023" lon="4.68602">
        <ele>215.72762</ele>
        <time>2023-04-24T13:23:28.000Z</time>
      </trkpt>
      <trkpt lat="45.86023" lon="4.68614">
        <ele>215.28903</ele>
        <time>2023-04-24T13:23:29.000Z</time>
      </trkpt>
      <trkpt lat="45.86024" lon="4.68626">
        <ele>214.82846</ele>
        <time>2023-04-24T13:23:30.000Z</time>
      </trkpt>
      <trkpt lat="45.86024" lon="4.68636">
        <ele>214.33469</ele>
        <time>2023-04-24T13:23:31.000Z</time>
      </trkpt>
      <trkpt lat="45.86024" lon="4.68647">
        <ele>213.74319</ele>
        <time>2023-04-24T13:23:32.000Z</time>
      </trkpt>
      <trkpt lat="45.8602" lon="4.68658">
        <ele>213.12947</ele>
        <time>2023-04-24T13:23:33.000Z</time>
      </trkpt>
      <trkpt lat="45.86015" lon="4.68666">
        <ele>212.55539</ele>
        <time>2023-04-24T13:23:34.000Z</time>
      </trkpt>
      <trkpt lat="45.86009" lon="4.68674">
        <ele>212.00932</ele>
        <time>2023-04-24T13:23:35.000Z</time>
      </trkpt>
      <trkpt lat="45.86002" lon="4.68681">
        <ele>211.45224</ele>
        <time>2023-04-24T13:23:36.000Z</time>
      </trkpt>
      <trkpt lat="45.85994" lon="4.68686">
        <ele>210.9231</ele>
        <time>2023-04-24T13:23:37.000Z</time>
      </trkpt>
      <trkpt lat="45.85988" lon="4.68689">
        <ele>210.40662</ele>
        <time>2023-04-24T13:23:38.000Z</time>
      </trkpt>
      <trkpt lat="45.85981" lon="4.68693">
        <ele>209.88681</ele>
        <time>2023-04-24T13:23:39.000Z</time>
      </trkpt>
      <trkpt lat="45.85974" lon="4.68695">
        <ele>209.34143</ele>
        <time>2023-04-24T13:23:40.000Z</time>
      </trkpt>
      <trkpt lat="45.85968" lon="4.68696">
        <ele>208.82964</ele>
        <time>2023-04-24T13:23:41.000Z</time>
      </trkpt>
      <trkpt lat="45.85961" lon="4.68697">
        <ele>208.32889</ele>
        <time>2023-04-24T13:23:42.000Z</time>
      </trkpt>
      <trkpt lat="45.85954" lon="4.68699">
        <ele>207.85751</ele>
        <time>2023-04-24T13:23:43.000Z</time>
      </trkpt>
      <trkpt lat="45.85948" lon="4.68701">
        <ele>207.43494</ele>
        <time>2023-04-24T13:23:44.000Z</time>
      </trkpt>
      <trkpt lat="45.85941" lon="4.68703">
        <ele>207.11247</ele>
        <time>2023-04-24T13:23:45.000Z</time>
      </trkpt>
      <trkpt lat="45.85936" lon="4.68703">
        <ele>206.74097</ele>
        <time>2023-04-24T13:23:46.000Z</time>
      </trkpt>
      <trkpt lat="45.8593" lon="4.68704">
        <ele>206.38049</ele>
        <time>2023-04-24T13:23:47.000Z</time>
      </trkpt>
      <trkpt lat="45.85925" lon="4.68706">
        <ele>205.98933</ele>
        <time>2023-04-24T13:23:48.000Z</time>
      </trkpt>
      <trkpt lat="45.8592" lon="4.68708">
        <ele>205.60185</ele>
        <time>2023-04-24T13:23:49.000Z</time>
      </trkpt>
      <trkpt lat="45.85914" lon="4.68709">
        <ele>205.2211</ele>
        <time>2023-04-24T13:23:50.000Z</time>
      </trkpt>
      <trkpt lat="45.8591" lon="4.68709">
        <ele>204.896</ele>
        <time>2023-04-24T13:23:51.000Z</time>
      </trkpt>
      <trkpt lat="45.85906" lon="4.68711">
        <ele>204.69197</ele>
        <time>2023-04-24T13:23:52.000Z</time>
      </trkpt>
      <trkpt lat="45.85902" lon="4.68711">
        <ele>204.52296</ele>
        <time>2023-04-24T13:23:53.000Z</time>
      </trkpt>
      <trkpt lat="45.85899" lon="4.68709">
        <ele>204.34903</ele>
        <time>2023-04-24T13:23:54.000Z</time>
      </trkpt>
      <trkpt lat="45.85897" lon="4.6871">
        <ele>204.30453</ele>
        <time>2023-04-24T13:23:56.000Z</time>
      </trkpt>
      <trkpt lat="45.85895" lon="4.68709">
        <ele>204.25699</ele>
        <time>2023-04-24T13:25:49.000Z</time>
      </trkpt>
      <trkpt lat="45.85892" lon="4.68709">
        <ele>204.16562</ele>
        <time>2023-04-24T13:25:50.000Z</time>
      </trkpt>
      <trkpt lat="45.8589" lon="4.6871">
        <ele>204.10112</ele>
        <time>2023-04-24T13:25:51.000Z</time>
      </trkpt>
      <trkpt lat="45.85888" lon="4.68713">
        <ele>204.07957</ele>
        <time>2023-04-24T13:25:52.000Z</time>
      </trkpt>
      <trkpt lat="45.85887" lon="4.68717">
        <ele>204.09503</ele>
        <time>2023-04-24T13:25:53.000Z</time>
      </trkpt>
      <trkpt lat="45.85886" lon="4.68721">
        <ele>204.12794</ele>
        <time>2023-04-24T13:25:54.000Z</time>
      </trkpt>
      <trkpt lat="45.85885" lon="4.68725">
        <ele>204.17917</ele>
        <time>2023-04-24T13:25:55.000Z</time>
      </trkpt>
      <trkpt lat="45.85884" lon="4.68729">
        <ele>204.16222</ele>
        <time>2023-04-24T13:25:56.000Z</time>
      </trkpt>
      <trkpt lat="45.85883" lon="4.68734">
        <ele>204.13101</ele>
        <time>2023-04-24T13:25:57.000Z</time>
      </trkpt>
      <trkpt lat="45.85882" lon="4.68739">
        <ele>204.07562</ele>
        <time>2023-04-24T13:25:58.000Z</time>
      </trkpt>
      <trkpt lat="45.85881" lon="4.68744">
        <ele>204.10986</ele>
        <time>2023-04-24T13:25:59.000Z</time>
      </trkpt>
      <trkpt lat="45.85879" lon="4.68749">
        <ele>204.05728</ele>
        <time>2023-04-24T13:26:00.000Z</time>
      </trkpt>
      <trkpt lat="45.85879" lon="4.68755">
        <ele>204.27356</ele>
        <time>2023-04-24T13:26:01.000Z</time>
      </trkpt>
      <trkpt lat="45.85878" lon="4.6876">
        <ele>204.4787</ele>
        <time>2023-04-24T13:26:02.000Z</time>
      </trkpt>
      <trkpt lat="45.85878" lon="4.68765">
        <ele>204.72005</ele>
        <time>2023-04-24T13:26:03.000Z</time>
      </trkpt>
      <trkpt lat="45.85878" lon="4.6877">
        <ele>204.9335</ele>
        <time>2023-04-24T13:26:04.000Z</time>
      </trkpt>
      <trkpt lat="45.85877" lon="4.68775">
        <ele>204.83012</ele>
        <time>2023-04-24T13:26:05.000Z</time>
      </trkpt>
      <trkpt lat="45.85876" lon="4.6878">
        <ele>204.74956</ele>
        <time>2023-04-24T13:26:06.000Z</time>
      </trkpt>
      <trkpt lat="45.85875" lon="4.68785">
        <ele>204.66159</ele>
        <time>2023-04-24T13:26:07.000Z</time>
      </trkpt>
      <trkpt lat="45.85874" lon="4.6879">
        <ele>204.43375</ele>
        <time>2023-04-24T13:26:08.000Z</time>
      </trkpt>
      <trkpt lat="45.85873" lon="4.68794">
        <ele>204.25122</ele>
        <time>2023-04-24T13:26:09.000Z</time>
      </trkpt>
      <trkpt lat="45.85872" lon="4.68799">
        <ele>204.10741</ele>
        <time>2023-04-24T13:26:10.000Z</time>
      </trkpt>
      <trkpt lat="45.85872" lon="4.68804">
        <ele>203.96855</ele>
        <time>2023-04-24T13:26:11.000Z</time>
      </trkpt>
      <trkpt lat="45.85871" lon="4.68809">
        <ele>203.84064</ele>
        <time>2023-04-24T13:26:12.000Z</time>
      </trkpt>
      <trkpt lat="45.85871" lon="4.68814">
        <ele>203.72672</ele>
        <time>2023-04-24T13:26:13.000Z</time>
      </trkpt>
      <trkpt lat="45.8587" lon="4.68819">
        <ele>203.57207</ele>
        <time>2023-04-24T13:26:14.000Z</time>
      </trkpt>
      <trkpt lat="45.8587" lon="4.68824">
        <ele>203.3998</ele>
        <time>2023-04-24T13:26:15.000Z</time>
      </trkpt>
      <trkpt lat="45.85869" lon="4.68829">
        <ele>203.30051</ele>
        <time>2023-04-24T13:26:16.000Z</time>
      </trkpt>
      <trkpt lat="45.85869" lon="4.68835">
        <ele>203.20744</ele>
        <time>2023-04-24T13:26:17.000Z</time>
      </trkpt>
      <trkpt lat="45.85868" lon="4.6884">
        <ele>203.11388</ele>
        <time>2023-04-24T13:26:18.000Z</time>
      </trkpt>
      <trkpt lat="45.85868" lon="4.68846">
        <ele>202.98689</ele>
        <time>2023-04-24T13:26:19.000Z</time>
      </trkpt>
      <trkpt lat="45.85867" lon="4.68852">
        <ele>202.95732</ele>
        <time>2023-04-24T13:26:20.000Z</time>
      </trkpt>
      <trkpt lat="45.85867" lon="4.68857">
        <ele>202.75771</ele>
        <time>2023-04-24T13:26:21.000Z</time>
      </trkpt>
      <trkpt lat="45.85866" lon="4.68863">
        <ele>202.54617</ele>
        <time>2023-04-24T13:26:22.000Z</time>
      </trkpt>
      <trkpt lat="45.85865" lon="4.68868">
        <ele>202.34596</ele>
        <time>2023-04-24T13:26:23.000Z</time>
      </trkpt>
      <trkpt lat="45.85865" lon="4.68874">
        <ele>202.13376</ele>
        <time>2023-04-24T13:26:24.000Z</time>
      </trkpt>
      <trkpt lat="45.85864" lon="4.6888">
        <ele>202.26846</ele>
        <time>2023-04-24T13:26:25.000Z</time>
      </trkpt>
      <trkpt lat="45.85864" lon="4.68886">
        <ele>202.63097</ele>
        <time>2023-04-24T13:26:26.000Z</time>
      </trkpt>
      <trkpt lat="45.85863" lon="4.68891">
        <ele>203.02278</ele>
        <time>2023-04-24T13:26:27.000Z</time>
      </trkpt>
      <trkpt lat="45.85863" lon="4.68897">
        <ele>203.04514</ele>
        <time>2023-04-24T13:26:28.000Z</time>
      </trkpt>
      <trkpt lat="45.85862" lon="4.68903">
        <ele>203.1301</ele>
        <time>2023-04-24T13:26:29.000Z</time>
      </trkpt>
      <trkpt lat="45.85862" lon="4.68908">
        <ele>203.20529</ele>
        <time>2023-04-24T13:26:30.000Z</time>
      </trkpt>
      <trkpt lat="45.85862" lon="4.68914">
        <ele>203.25816</ele>
        <time>2023-04-24T13:26:31.000Z</time>
      </trkpt>
      <trkpt lat="45.85861" lon="4.6892">
        <ele>203.30789</ele>
        <time>2023-04-24T13:26:32.000Z</time>
      </trkpt>
      <trkpt lat="45.85861" lon="4.68926">
        <ele>203.31912</ele>
        <time>2023-04-24T13:26:33.000Z</time>
      </trkpt>
      <trkpt lat="45.85861" lon="4.68932">
        <ele>203.34265</ele>
        <time>2023-04-24T13:26:34.000Z</time>
      </trkpt>
      <trkpt lat="45.85861" lon="4.68938">
        <ele>203.38449</ele>
        <time>2023-04-24T13:26:35.000Z</time>
      </trkpt>
      <trkpt lat="45.85861" lon="4.68944">
        <ele>203.45508</ele>
        <time>2023-04-24T13:26:36.000Z</time>
      </trkpt>
      <trkpt lat="45.85861" lon="4.6895">
        <ele>203.56665</ele>
        <time>2023-04-24T13:26:37.000Z</time>
      </trkpt>
      <trkpt lat="45.85861" lon="4.68956">
        <ele>203.81888</ele>
        <time>2023-04-24T13:26:38.000Z</time>
      </trkpt>
      <trkpt lat="45.85861" lon="4.68962">
        <ele>204.08859</ele>
        <time>2023-04-24T13:26:39.000Z</time>
      </trkpt>
      <trkpt lat="45.85862" lon="4.68969">
        <ele>204.32455</ele>
        <time>2023-04-24T13:26:40.000Z</time>
      </trkpt>
      <trkpt lat="45.85863" lon="4.68975">
        <ele>204.47836</ele>
        <time>2023-04-24T13:26:41.000Z</time>
      </trkpt>
      <trkpt lat="45.85863" lon="4.68982">
        <ele>204.7426</ele>
        <time>2023-04-24T13:26:42.000Z</time>
      </trkpt>
      <trkpt lat="45.85864" lon="4.6899">
        <ele>205.0105</ele>
        <time>2023-04-24T13:26:43.000Z</time>
      </trkpt>
      <trkpt lat="45.85865" lon="4.68996">
        <ele>205.2948</ele>
        <time>2023-04-24T13:26:44.000Z</time>
      </trkpt>
      <trkpt lat="45.85866" lon="4.69004">
        <ele>205.5114</ele>
        <time>2023-04-24T13:26:45.000Z</time>
      </trkpt>
      <trkpt lat="45.85867" lon="4.6901">
        <ele>205.56833</ele>
        <time>2023-04-24T13:26:46.000Z</time>
      </trkpt>
      <trkpt lat="45.85868" lon="4.69015">
        <ele>205.73067</ele>
        <time>2023-04-24T13:26:47.000Z</time>
      </trkpt>
      <trkpt lat="45.8587" lon="4.6902">
        <ele>205.79887</ele>
        <time>2023-04-24T13:26:48.000Z</time>
      </trkpt>
      <trkpt lat="45.8587" lon="4.69025">
        <ele>205.89079</ele>
        <time>2023-04-24T13:26:49.000Z</time>
      </trkpt>
      <trkpt lat="45.8587" lon="4.6903">
        <ele>206.01743</ele>
        <time>2023-04-24T13:26:50.000Z</time>
      </trkpt>
      <trkpt lat="45.85869" lon="4.69035">
        <ele>206.15007</ele>
        <time>2023-04-24T13:26:51.000Z</time>
      </trkpt>
      <trkpt lat="45.85867" lon="4.6904">
        <ele>206.2188</ele>
        <time>2023-04-24T13:26:52.000Z</time>
      </trkpt>
      <trkpt lat="45.85865" lon="4.69046">
        <ele>206.23874</ele>
        <time>2023-04-24T13:26:53.000Z</time>
      </trkpt>
      <trkpt lat="45.85864" lon="4.69051">
        <ele>206.30586</ele>
        <time>2023-04-24T13:26:54.000Z</time>
      </trkpt>
      <trkpt lat="45.85863" lon="4.69057">
        <ele>206.33725</ele>
        <time>2023-04-24T13:26:55.000Z</time>
      </trkpt>
      <trkpt lat="45.85862" lon="4.69064">
        <ele>206.46989</ele>
        <time>2023-04-24T13:26:56.000Z</time>
      </trkpt>
      <trkpt lat="45.85862" lon="4.6907">
        <ele>206.56955</ele>
        <time>2023-04-24T13:26:57.000Z</time>
      </trkpt>
      <trkpt lat="45.8586" lon="4.69077">
        <ele>206.51151</ele>
        <time>2023-04-24T13:26:58.000Z</time>
      </trkpt>
      <trkpt lat="45.85859" lon="4.69083">
        <ele>206.45914</ele>
        <time>2023-04-24T13:26:59.000Z</time>
      </trkpt>
      <trkpt lat="45.85859" lon="4.6909">
        <ele>206.46431</ele>
        <time>2023-04-24T13:27:00.000Z</time>
      </trkpt>
      <trkpt lat="45.8586" lon="4.69097">
        <ele>206.54904</ele>
        <time>2023-04-24T13:27:01.000Z</time>
      </trkpt>
      <trkpt lat="45.85859" lon="4.69104">
        <ele>206.61389</ele>
        <time>2023-04-24T13:27:02.000Z</time>
      </trkpt>
      <trkpt lat="45.85857" lon="4.6911">
        <ele>206.60962</ele>
        <time>2023-04-24T13:27:03.000Z</time>
      </trkpt>
      <trkpt lat="45.85856" lon="4.69117">
        <ele>206.54764</ele>
        <time>2023-04-24T13:27:04.000Z</time>
      </trkpt>
      <trkpt lat="45.85857" lon="4.69124">
        <ele>206.52417</ele>
        <time>2023-04-24T13:27:05.000Z</time>
      </trkpt>
      <trkpt lat="45.85856" lon="4.69131">
        <ele>206.41658</ele>
        <time>2023-04-24T13:27:06.000Z</time>
      </trkpt>
      <trkpt lat="45.85854" lon="4.69138">
        <ele>206.14938</ele>
        <time>2023-04-24T13:27:07.000Z</time>
      </trkpt>
      <trkpt lat="45.85853" lon="4.69144">
        <ele>206.3455</ele>
        <time>2023-04-24T13:27:08.000Z</time>
      </trkpt>
      <trkpt lat="45.85851" lon="4.6915">
        <ele>206.50346</ele>
        <time>2023-04-24T13:27:09.000Z</time>
      </trkpt>
      <trkpt lat="45.85852" lon="4.69157">
        <ele>206.59277</ele>
        <time>2023-04-24T13:27:10.000Z</time>
      </trkpt>
      <trkpt lat="45.85852" lon="4.69163">
        <ele>206.7218</ele>
        <time>2023-04-24T13:27:11.000Z</time>
      </trkpt>
      <trkpt lat="45.85851" lon="4.69169">
        <ele>206.87466</ele>
        <time>2023-04-24T13:27:12.000Z</time>
      </trkpt>
      <trkpt lat="45.85849" lon="4.69176">
        <ele>207.13907</ele>
        <time>2023-04-24T13:27:13.000Z</time>
      </trkpt>
      <trkpt lat="45.85849" lon="4.69183">
        <ele>207.39958</ele>
        <time>2023-04-24T13:27:14.000Z</time>
      </trkpt>
      <trkpt lat="45.85848" lon="4.69189">
        <ele>207.67453</ele>
        <time>2023-04-24T13:27:15.000Z</time>
      </trkpt>
      <trkpt lat="45.85847" lon="4.69196">
        <ele>207.84721</ele>
        <time>2023-04-24T13:27:16.000Z</time>
      </trkpt>
      <trkpt lat="45.85846" lon="4.69202">
        <ele>208.03967</ele>
        <time>2023-04-24T13:27:17.000Z</time>
      </trkpt>
      <trkpt lat="45.85845" lon="4.69208">
        <ele>208.25359</ele>
        <time>2023-04-24T13:27:18.000Z</time>
      </trkpt>
      <trkpt lat="45.85843" lon="4.69214">
        <ele>208.43416</ele>
        <time>2023-04-24T13:27:19.000Z</time>
      </trkpt>
      <trkpt lat="45.85842" lon="4.69221">
        <ele>208.59416</ele>
        <time>2023-04-24T13:27:20.000Z</time>
      </trkpt>
      <trkpt lat="45.85839" lon="4.69227">
        <ele>208.73312</ele>
        <time>2023-04-24T13:27:21.000Z</time>
      </trkpt>
      <trkpt lat="45.85839" lon="4.69236">
        <ele>208.78499</ele>
        <time>2023-04-24T13:27:22.000Z</time>
      </trkpt>
      <trkpt lat="45.85837" lon="4.69243">
        <ele>208.7991</ele>
        <time>2023-04-24T13:27:23.000Z</time>
      </trkpt>
      <trkpt lat="45.85836" lon="4.69249">
        <ele>208.91402</ele>
        <time>2023-04-24T13:27:24.000Z</time>
      </trkpt>
      <trkpt lat="45.85834" lon="4.69255">
        <ele>209.04146</ele>
        <time>2023-04-24T13:27:25.000Z</time>
      </trkpt>
      <trkpt lat="45.85834" lon="4.69261">
        <ele>209.10515</ele>
        <time>2023-04-24T13:27:26.000Z</time>
      </trkpt>
      <trkpt lat="45.85832" lon="4.69267">
        <ele>209.20486</ele>
        <time>2023-04-24T13:27:27.000Z</time>
      </trkpt>
      <trkpt lat="45.85833" lon="4.69276">
        <ele>209.24692</ele>
        <time>2023-04-24T13:27:28.000Z</time>
      </trkpt>
      <trkpt lat="45.85835" lon="4.6928">
        <ele>209.30563</ele>
        <time>2023-04-24T13:27:29.000Z</time>
      </trkpt>
      <trkpt lat="45.85836" lon="4.69288">
        <ele>209.41318</ele>
        <time>2023-04-24T13:27:30.000Z</time>
      </trkpt>
      <trkpt lat="45.85837" lon="4.69296">
        <ele>209.41692</ele>
        <time>2023-04-24T13:27:31.000Z</time>
      </trkpt>
      <trkpt lat="45.85838" lon="4.69303">
        <ele>209.44002</ele>
        <time>2023-04-24T13:27:32.000Z</time>
      </trkpt>
      <trkpt lat="45.85838" lon="4.69309">
        <ele>209.51103</ele>
        <time>2023-04-24T13:27:33.000Z</time>
      </trkpt>
      <trkpt lat="45.85839" lon="4.69315">
        <ele>209.57222</ele>
        <time>2023-04-24T13:27:34.000Z</time>
      </trkpt>
      <trkpt lat="45.85842" lon="4.69321">
        <ele>209.67216</ele>
        <time>2023-04-24T13:27:35.000Z</time>
      </trkpt>
      <trkpt lat="45.85843" lon="4.69327">
        <ele>209.76941</ele>
        <time>2023-04-24T13:27:36.000Z</time>
      </trkpt>
      <trkpt lat="45.85845" lon="4.69334">
        <ele>209.83081</ele>
        <time>2023-04-24T13:27:37.000Z</time>
      </trkpt>
      <trkpt lat="45.85847" lon="4.6934">
        <ele>209.91251</ele>
        <time>2023-04-24T13:27:38.000Z</time>
      </trkpt>
      <trkpt lat="45.85849" lon="4.69349">
        <ele>209.93637</ele>
        <time>2023-04-24T13:27:39.000Z</time>
      </trkpt>
      <trkpt lat="45.8585" lon="4.69356">
        <ele>209.79028</ele>
        <time>2023-04-24T13:27:40.000Z</time>
      </trkpt>
      <trkpt lat="45.8585" lon="4.69363">
        <ele>209.55037</ele>
        <time>2023-04-24T13:27:41.000Z</time>
      </trkpt>
      <trkpt lat="45.8585" lon="4.6937">
        <ele>209.31001</ele>
        <time>2023-04-24T13:27:42.000Z</time>
      </trkpt>
      <trkpt lat="45.85848" lon="4.69376">
        <ele>209.12479</ele>
        <time>2023-04-24T13:27:43.000Z</time>
      </trkpt>
      <trkpt lat="45.85845" lon="4.69382">
        <ele>209.21838</ele>
        <time>2023-04-24T13:27:44.000Z</time>
      </trkpt>
      <trkpt lat="45.85843" lon="4.69388">
        <ele>208.80376</ele>
        <time>2023-04-24T13:27:45.000Z</time>
      </trkpt>
      <trkpt lat="45.8584" lon="4.69393">
        <ele>208.5988</ele>
        <time>2023-04-24T13:27:46.000Z</time>
      </trkpt>
      <trkpt lat="45.85838" lon="4.69399">
        <ele>208.35913</ele>
        <time>2023-04-24T13:27:47.000Z</time>
      </trkpt>
      <trkpt lat="45.85836" lon="4.69406">
        <ele>208.23405</ele>
        <time>2023-04-24T13:27:48.000Z</time>
      </trkpt>
      <trkpt lat="45.85834" lon="4.69411">
        <ele>208.09712</ele>
        <time>2023-04-24T13:27:49.000Z</time>
      </trkpt>
      <trkpt lat="45.85832" lon="4.69417">
        <ele>207.99918</ele>
        <time>2023-04-24T13:27:50.000Z</time>
      </trkpt>
      <trkpt lat="45.85829" lon="4.69422">
        <ele>208.16496</ele>
        <time>2023-04-24T13:27:51.000Z</time>
      </trkpt>
      <trkpt lat="45.85827" lon="4.69427">
        <ele>208.21919</ele>
        <time>2023-04-24T13:27:52.000Z</time>
      </trkpt>
      <trkpt lat="45.85826" lon="4.69433">
        <ele>208.24394</ele>
        <time>2023-04-24T13:27:53.000Z</time>
      </trkpt>
      <trkpt lat="45.85826" lon="4.69439">
        <ele>208.53909</ele>
        <time>2023-04-24T13:27:54.000Z</time>
      </trkpt>
      <trkpt lat="45.85826" lon="4.69447">
        <ele>208.80058</ele>
        <time>2023-04-24T13:27:55.000Z</time>
      </trkpt>
      <trkpt lat="45.85826" lon="4.69452">
        <ele>209.16821</ele>
        <time>2023-04-24T13:27:56.000Z</time>
      </trkpt>
      <trkpt lat="45.85827" lon="4.6946">
        <ele>209.56033</ele>
        <time>2023-04-24T13:27:57.000Z</time>
      </trkpt>
      <trkpt lat="45.85829" lon="4.69467">
        <ele>209.86528</ele>
        <time>2023-04-24T13:27:58.000Z</time>
      </trkpt>
      <trkpt lat="45.85829" lon="4.69473">
        <ele>210.23013</ele>
        <time>2023-04-24T13:27:59.000Z</time>
      </trkpt>
      <trkpt lat="45.85829" lon="4.69478">
        <ele>210.69687</ele>
        <time>2023-04-24T13:28:00.000Z</time>
      </trkpt>
      <trkpt lat="45.85829" lon="4.69485">
        <ele>211.2084</ele>
        <time>2023-04-24T13:28:01.000Z</time>
      </trkpt>
      <trkpt lat="45.8583" lon="4.69492">
        <ele>211.77795</ele>
        <time>2023-04-24T13:28:02.000Z</time>
      </trkpt>
      <trkpt lat="45.85831" lon="4.69497">
        <ele>212.3427</ele>
        <time>2023-04-24T13:28:03.000Z</time>
      </trkpt>
      <trkpt lat="45.85832" lon="4.69504">
        <ele>212.76355</ele>
        <time>2023-04-24T13:28:04.000Z</time>
      </trkpt>
      <trkpt lat="45.85832" lon="4.69511">
        <ele>213.73897</ele>
        <time>2023-04-24T13:28:05.000Z</time>
      </trkpt>
      <trkpt lat="45.85832" lon="4.69519">
        <ele>214.60982</ele>
        <time>2023-04-24T13:28:06.000Z</time>
      </trkpt>
      <trkpt lat="45.85834" lon="4.69525">
        <ele>215.01738</ele>
        <time>2023-04-24T13:28:07.000Z</time>
      </trkpt>
      <trkpt lat="45.85834" lon="4.69533">
        <ele>215.30904</ele>
        <time>2023-04-24T13:28:08.000Z</time>
      </trkpt>
      <trkpt lat="45.85835" lon="4.69541">
        <ele>215.44975</ele>
        <time>2023-04-24T13:28:09.000Z</time>
      </trkpt>
      <trkpt lat="45.85834" lon="4.69548">
        <ele>215.5563</ele>
        <time>2023-04-24T13:28:10.000Z</time>
      </trkpt>
      <trkpt lat="45.85834" lon="4.69555">
        <ele>215.52725</ele>
        <time>2023-04-24T13:28:11.000Z</time>
      </trkpt>
      <trkpt lat="45.85834" lon="4.69562">
        <ele>215.68259</ele>
        <time>2023-04-24T13:28:12.000Z</time>
      </trkpt>
      <trkpt lat="45.85836" lon="4.69569">
        <ele>215.89395</ele>
        <time>2023-04-24T13:28:13.000Z</time>
      </trkpt>
      <trkpt lat="45.85837" lon="4.69574">
        <ele>216.06079</ele>
        <time>2023-04-24T13:28:14.000Z</time>
      </trkpt>
      <trkpt lat="45.85839" lon="4.69582">
        <ele>216.23564</ele>
        <time>2023-04-24T13:28:15.000Z</time>
      </trkpt>
      <trkpt lat="45.8584" lon="4.69588">
        <ele>216.173</ele>
        <time>2023-04-24T13:28:16.000Z</time>
      </trkpt>
      <trkpt lat="45.85842" lon="4.69596">
        <ele>216.20503</ele>
        <time>2023-04-24T13:28:17.000Z</time>
      </trkpt>
      <trkpt lat="45.85845" lon="4.69603">
        <ele>216.2336</ele>
        <time>2023-04-24T13:28:18.000Z</time>
      </trkpt>
      <trkpt lat="45.85846" lon="4.6961">
        <ele>216.26871</ele>
        <time>2023-04-24T13:28:19.000Z</time>
      </trkpt>
      <trkpt lat="45.85848" lon="4.69618">
        <ele>216.37503</ele>
        <time>2023-04-24T13:28:20.000Z</time>
      </trkpt>
      <trkpt lat="45.85849" lon="4.69625">
        <ele>216.4615</ele>
        <time>2023-04-24T13:28:21.000Z</time>
      </trkpt>
      <trkpt lat="45.85852" lon="4.69632">
        <ele>216.43604</ele>
        <time>2023-04-24T13:28:22.000Z</time>
      </trkpt>
      <trkpt lat="45.85854" lon="4.69639">
        <ele>216.39529</ele>
        <time>2023-04-24T13:28:23.000Z</time>
      </trkpt>
      <trkpt lat="45.85856" lon="4.69645">
        <ele>216.05977</ele>
        <time>2023-04-24T13:28:24.000Z</time>
      </trkpt>
      <trkpt lat="45.85858" lon="4.69652">
        <ele>215.66357</ele>
        <time>2023-04-24T13:28:25.000Z</time>
      </trkpt>
      <trkpt lat="45.8586" lon="4.6966">
        <ele>215.24858</ele>
        <time>2023-04-24T13:28:26.000Z</time>
      </trkpt>
      <trkpt lat="45.85862" lon="4.69666">
        <ele>215.20891</ele>
        <time>2023-04-24T13:28:27.000Z</time>
      </trkpt>
      <trkpt lat="45.85864" lon="4.69674">
        <ele>215.26682</ele>
        <time>2023-04-24T13:28:28.000Z</time>
      </trkpt>
      <trkpt lat="45.85865" lon="4.6968">
        <ele>215.47253</ele>
        <time>2023-04-24T13:28:29.000Z</time>
      </trkpt>
      <trkpt lat="45.85867" lon="4.69687">
        <ele>215.70895</ele>
        <time>2023-04-24T13:28:30.000Z</time>
      </trkpt>
      <trkpt lat="45.85869" lon="4.69692">
        <ele>215.41672</ele>
        <time>2023-04-24T13:28:31.000Z</time>
      </trkpt>
      <trkpt lat="45.85872" lon="4.69699">
        <ele>215.19089</ele>
        <time>2023-04-24T13:28:32.000Z</time>
      </trkpt>
      <trkpt lat="45.85874" lon="4.69706">
        <ele>214.81421</ele>
        <time>2023-04-24T13:28:33.000Z</time>
      </trkpt>
      <trkpt lat="45.85875" lon="4.69713">
        <ele>214.10092</ele>
        <time>2023-04-24T13:28:34.000Z</time>
      </trkpt>
      <trkpt lat="45.85878" lon="4.69718">
        <ele>213.45622</ele>
        <time>2023-04-24T13:28:35.000Z</time>
      </trkpt>
      <trkpt lat="45.85881" lon="4.69724">
        <ele>212.94353</ele>
        <time>2023-04-24T13:28:36.000Z</time>
      </trkpt>
      <trkpt lat="45.85884" lon="4.6973">
        <ele>212.472</ele>
        <time>2023-04-24T13:28:37.000Z</time>
      </trkpt>
      <trkpt lat="45.85887" lon="4.69737">
        <ele>212.39885</ele>
        <time>2023-04-24T13:28:38.000Z</time>
      </trkpt>
      <trkpt lat="45.8589" lon="4.69743">
        <ele>211.1862</ele>
        <time>2023-04-24T13:28:39.000Z</time>
      </trkpt>
      <trkpt lat="45.85894" lon="4.69749">
        <ele>209.91739</ele>
        <time>2023-04-24T13:28:40.000Z</time>
      </trkpt>
      <trkpt lat="45.85898" lon="4.69755">
        <ele>208.67874</ele>
        <time>2023-04-24T13:28:41.000Z</time>
      </trkpt>
      <trkpt lat="45.85902" lon="4.69762">
        <ele>207.43208</ele>
        <time>2023-04-24T13:28:42.000Z</time>
      </trkpt>
      <trkpt lat="45.85905" lon="4.69766">
        <ele>206.23343</ele>
        <time>2023-04-24T13:28:43.000Z</time>
      </trkpt>
      <trkpt lat="45.85908" lon="4.69773">
        <ele>205.17151</ele>
        <time>2023-04-24T13:28:44.000Z</time>
      </trkpt>
      <trkpt lat="45.85912" lon="4.69779">
        <ele>204.10355</ele>
        <time>2023-04-24T13:28:45.000Z</time>
      </trkpt>
      <trkpt lat="45.85915" lon="4.69786">
        <ele>203.01665</ele>
        <time>2023-04-24T13:28:46.000Z</time>
      </trkpt>
      <trkpt lat="45.85919" lon="4.6979">
        <ele>201.9574</ele>
        <time>2023-04-24T13:28:47.000Z</time>
      </trkpt>
      <trkpt lat="45.85923" lon="4.69796">
        <ele>200.84824</ele>
        <time>2023-04-24T13:28:48.000Z</time>
      </trkpt>
      <trkpt lat="45.85927" lon="4.698">
        <ele>199.66136</ele>
        <time>2023-04-24T13:28:49.000Z</time>
      </trkpt>
      <trkpt lat="45.85931" lon="4.69806">
        <ele>198.44293</ele>
        <time>2023-04-24T13:28:50.000Z</time>
      </trkpt>
      <trkpt lat="45.85935" lon="4.69812">
        <ele>197.67099</ele>
        <time>2023-04-24T13:28:51.000Z</time>
      </trkpt>
      <trkpt lat="45.85939" lon="4.69817">
        <ele>196.82877</ele>
        <time>2023-04-24T13:28:52.000Z</time>
      </trkpt>
      <trkpt lat="45.85944" lon="4.69821">
        <ele>196.0831</ele>
        <time>2023-04-24T13:28:53.000Z</time>
      </trkpt>
      <trkpt lat="45.85948" lon="4.69826">
        <ele>195.47133</ele>
        <time>2023-04-24T13:28:54.000Z</time>
      </trkpt>
      <trkpt lat="45.85951" lon="4.69832">
        <ele>194.7476</ele>
        <time>2023-04-24T13:28:55.000Z</time>
      </trkpt>
      <trkpt lat="45.85955" lon="4.69837">
        <ele>193.99338</ele>
        <time>2023-04-24T13:28:56.000Z</time>
      </trkpt>
      <trkpt lat="45.8596" lon="4.69841">
        <ele>193.10358</ele>
        <time>2023-04-24T13:28:57.000Z</time>
      </trkpt>
      <trkpt lat="45.85964" lon="4.69845">
        <ele>191.87534</ele>
        <time>2023-04-24T13:28:58.000Z</time>
      </trkpt>
      <trkpt lat="45.8597" lon="4.6985">
        <ele>191.78873</ele>
        <time>2023-04-24T13:28:59.000Z</time>
      </trkpt>
      <trkpt lat="45.85973" lon="4.69853">
        <ele>191.79779</ele>
        <time>2023-04-24T13:29:00.000Z</time>
      </trkpt>
      <trkpt lat="45.85979" lon="4.69858">
        <ele>191.8082</ele>
        <time>2023-04-24T13:29:01.000Z</time>
      </trkpt>
      <trkpt lat="45.85983" lon="4.69862">
        <ele>191.82004</ele>
        <time>2023-04-24T13:29:02.000Z</time>
      </trkpt>
      <trkpt lat="45.85987" lon="4.69866">
        <ele>191.84079</ele>
        <time>2023-04-24T13:29:03.000Z</time>
      </trkpt>
      <trkpt lat="45.85991" lon="4.69868">
        <ele>191.86604</ele>
        <time>2023-04-24T13:29:04.000Z</time>
      </trkpt>
      <trkpt lat="45.85996" lon="4.69872">
        <ele>191.88228</ele>
        <time>2023-04-24T13:29:05.000Z</time>
      </trkpt>
      <trkpt lat="45.86001" lon="4.69876">
        <ele>191.93323</ele>
        <time>2023-04-24T13:29:06.000Z</time>
      </trkpt>
      <trkpt lat="45.86006" lon="4.6988">
        <ele>192.04649</ele>
        <time>2023-04-24T13:29:07.000Z</time>
      </trkpt>
      <trkpt lat="45.86011" lon="4.69884">
        <ele>192.16116</ele>
        <time>2023-04-24T13:29:08.000Z</time>
      </trkpt>
      <trkpt lat="45.86016" lon="4.69889">
        <ele>192.15604</ele>
        <time>2023-04-24T13:29:09.000Z</time>
      </trkpt>
      <trkpt lat="45.86022" lon="4.69891">
        <ele>192.18796</ele>
        <time>2023-04-24T13:29:10.000Z</time>
      </trkpt>
      <trkpt lat="45.86028" lon="4.69891">
        <ele>192.25235</ele>
        <time>2023-04-24T13:29:11.000Z</time>
      </trkpt>
      <trkpt lat="45.86033" lon="4.69892">
        <ele>192.2464</ele>
        <time>2023-04-24T13:29:12.000Z</time>
      </trkpt>
      <trkpt lat="45.86038" lon="4.69892">
        <ele>192.17892</ele>
        <time>2023-04-24T13:29:13.000Z</time>
      </trkpt>
      <trkpt lat="45.86043" lon="4.69892">
        <ele>192.07977</ele>
        <time>2023-04-24T13:29:14.000Z</time>
      </trkpt>
      <trkpt lat="45.86049" lon="4.69891">
        <ele>192.02016</ele>
        <time>2023-04-24T13:29:15.000Z</time>
      </trkpt>
      <trkpt lat="45.86053" lon="4.69888">
        <ele>191.91571</ele>
        <time>2023-04-24T13:29:16.000Z</time>
      </trkpt>
      <trkpt lat="45.86059" lon="4.69887">
        <ele>191.83188</ele>
        <time>2023-04-24T13:29:17.000Z</time>
      </trkpt>
      <trkpt lat="45.86065" lon="4.69887">
        <ele>191.7234</ele>
        <time>2023-04-24T13:29:18.000Z</time>
      </trkpt>
      <trkpt lat="45.86071" lon="4.69884">
        <ele>191.60236</ele>
        <time>2023-04-24T13:29:19.000Z</time>
      </trkpt>
      <trkpt lat="45.86077" lon="4.69883">
        <ele>191.3868</ele>
        <time>2023-04-24T13:29:20.000Z</time>
      </trkpt>
      <trkpt lat="45.86084" lon="4.69882">
        <ele>191.12404</ele>
        <time>2023-04-24T13:29:21.000Z</time>
      </trkpt>
      <trkpt lat="45.8609" lon="4.6988">
        <ele>190.96326</ele>
        <time>2023-04-24T13:29:22.000Z</time>
      </trkpt>
      <trkpt lat="45.86095" lon="4.69878">
        <ele>190.79742</ele>
        <time>2023-04-24T13:29:23.000Z</time>
      </trkpt>
      <trkpt lat="45.86101" lon="4.69876">
        <ele>190.60287</ele>
        <time>2023-04-24T13:29:24.000Z</time>
      </trkpt>
      <trkpt lat="45.86106" lon="4.69874">
        <ele>190.46516</ele>
        <time>2023-04-24T13:29:25.000Z</time>
      </trkpt>
      <trkpt lat="45.86111" lon="4.69872">
        <ele>190.34235</ele>
        <time>2023-04-24T13:29:26.000Z</time>
      </trkpt>
      <trkpt lat="45.86116" lon="4.69869">
        <ele>190.24374</ele>
        <time>2023-04-24T13:29:27.000Z</time>
      </trkpt>
      <trkpt lat="45.86122" lon="4.69863">
        <ele>190.2028</ele>
        <time>2023-04-24T13:29:28.000Z</time>
      </trkpt>
      <trkpt lat="45.86126" lon="4.6986">
        <ele>190.33609</ele>
        <time>2023-04-24T13:29:29.000Z</time>
      </trkpt>
      <trkpt lat="45.8613" lon="4.69854">
        <ele>190.37837</ele>
        <time>2023-04-24T13:29:30.000Z</time>
      </trkpt>
      <trkpt lat="45.86134" lon="4.6985">
        <ele>190.42586</ele>
        <time>2023-04-24T13:29:31.000Z</time>
      </trkpt>
      <trkpt lat="45.86137" lon="4.69845">
        <ele>190.45389</ele>
        <time>2023-04-24T13:29:32.000Z</time>
      </trkpt>
      <trkpt lat="45.86141" lon="4.69842">
        <ele>190.48836</ele>
        <time>2023-04-24T13:29:33.000Z</time>
      </trkpt>
      <trkpt lat="45.86145" lon="4.69839">
        <ele>190.52922</ele>
        <time>2023-04-24T13:29:34.000Z</time>
      </trkpt>
      <trkpt lat="45.86151" lon="4.69836">
        <ele>190.60054</ele>
        <time>2023-04-24T13:29:35.000Z</time>
      </trkpt>
      <trkpt lat="45.86155" lon="4.69832">
        <ele>190.71465</ele>
        <time>2023-04-24T13:29:36.000Z</time>
      </trkpt>
      <trkpt lat="45.86159" lon="4.69828">
        <ele>190.7404</ele>
        <time>2023-04-24T13:29:37.000Z</time>
      </trkpt>
      <trkpt lat="45.86164" lon="4.69825">
        <ele>190.85498</ele>
        <time>2023-04-24T13:29:38.000Z</time>
      </trkpt>
      <trkpt lat="45.86169" lon="4.69823">
        <ele>190.9697</ele>
        <time>2023-04-24T13:29:39.000Z</time>
      </trkpt>
      <trkpt lat="45.86174" lon="4.69818">
        <ele>191.11592</ele>
        <time>2023-04-24T13:29:40.000Z</time>
      </trkpt>
      <trkpt lat="45.86178" lon="4.69815">
        <ele>191.2623</ele>
        <time>2023-04-24T13:29:41.000Z</time>
      </trkpt>
      <trkpt lat="45.86182" lon="4.6981">
        <ele>191.38036</ele>
        <time>2023-04-24T13:29:42.000Z</time>
      </trkpt>
      <trkpt lat="45.86186" lon="4.69807">
        <ele>191.49597</ele>
        <time>2023-04-24T13:29:43.000Z</time>
      </trkpt>
      <trkpt lat="45.86191" lon="4.69802">
        <ele>191.63248</ele>
        <time>2023-04-24T13:29:44.000Z</time>
      </trkpt>
      <trkpt lat="45.86195" lon="4.69799">
        <ele>191.73189</ele>
        <time>2023-04-24T13:29:45.000Z</time>
      </trkpt>
      <trkpt lat="45.862" lon="4.69795">
        <ele>191.81987</ele>
        <time>2023-04-24T13:29:46.000Z</time>
      </trkpt>
      <trkpt lat="45.86205" lon="4.69792">
        <ele>191.91464</ele>
        <time>2023-04-24T13:29:47.000Z</time>
      </trkpt>
      <trkpt lat="45.86209" lon="4.69788">
        <ele>191.95682</ele>
        <time>2023-04-24T13:29:48.000Z</time>
      </trkpt>
      <trkpt lat="45.86215" lon="4.69785">
        <ele>191.92004</ele>
        <time>2023-04-24T13:29:49.000Z</time>
      </trkpt>
      <trkpt lat="45.8622" lon="4.69783">
        <ele>191.95149</ele>
        <time>2023-04-24T13:29:50.000Z</time>
      </trkpt>
      <trkpt lat="45.86224" lon="4.69779">
        <ele>191.96568</ele>
        <time>2023-04-24T13:29:51.000Z</time>
      </trkpt>
      <trkpt lat="45.86228" lon="4.69777">
        <ele>192.0024</ele>
        <time>2023-04-24T13:29:52.000Z</time>
      </trkpt>
      <trkpt lat="45.86231" lon="4.69773">
        <ele>192.10857</ele>
        <time>2023-04-24T13:29:53.000Z</time>
      </trkpt>
      <trkpt lat="45.86234" lon="4.69768">
        <ele>192.70534</ele>
        <time>2023-04-24T13:29:54.000Z</time>
      </trkpt>
      <trkpt lat="45.86238" lon="4.69763">
        <ele>193.34309</ele>
        <time>2023-04-24T13:29:55.000Z</time>
      </trkpt>
      <trkpt lat="45.86243" lon="4.69759">
        <ele>194.00648</ele>
        <time>2023-04-24T13:29:56.000Z</time>
      </trkpt>
      <trkpt lat="45.86249" lon="4.69757">
        <ele>194.65346</ele>
        <time>2023-04-24T13:29:57.000Z</time>
      </trkpt>
      <trkpt lat="45.86254" lon="4.69754">
        <ele>195.23801</ele>
        <time>2023-04-24T13:29:58.000Z</time>
      </trkpt>
      <trkpt lat="45.8626" lon="4.69753">
        <ele>195.85364</ele>
        <time>2023-04-24T13:29:59.000Z</time>
      </trkpt>
      <trkpt lat="45.86265" lon="4.69752">
        <ele>196.44937</ele>
        <time>2023-04-24T13:30:00.000Z</time>
      </trkpt>
      <trkpt lat="45.8627" lon="4.6975">
        <ele>197.08919</ele>
        <time>2023-04-24T13:30:01.000Z</time>
      </trkpt>
      <trkpt lat="45.86276" lon="4.69748">
        <ele>197.79251</ele>
        <time>2023-04-24T13:30:02.000Z</time>
      </trkpt>
      <trkpt lat="45.86282" lon="4.69747">
        <ele>198.60834</ele>
        <time>2023-04-24T13:30:03.000Z</time>
      </trkpt>
      <trkpt lat="45.86287" lon="4.69747">
        <ele>199.45676</ele>
        <time>2023-04-24T13:30:04.000Z</time>
      </trkpt>
      <trkpt lat="45.86293" lon="4.69748">
        <ele>200.27318</ele>
        <time>2023-04-24T13:30:05.000Z</time>
      </trkpt>
      <trkpt lat="45.86298" lon="4.69748">
        <ele>201.02448</ele>
        <time>2023-04-24T13:30:06.000Z</time>
      </trkpt>
      <trkpt lat="45.86304" lon="4.69748">
        <ele>201.84946</ele>
        <time>2023-04-24T13:30:07.000Z</time>
      </trkpt>
      <trkpt lat="45.86309" lon="4.69749">
        <ele>202.77094</ele>
        <time>2023-04-24T13:30:08.000Z</time>
      </trkpt>
      <trkpt lat="45.86315" lon="4.69748">
        <ele>203.69865</ele>
        <time>2023-04-24T13:30:09.000Z</time>
      </trkpt>
      <trkpt lat="45.8632" lon="4.69749">
        <ele>204.20644</ele>
        <time>2023-04-24T13:30:10.000Z</time>
      </trkpt>
      <trkpt lat="45.86324" lon="4.69752">
        <ele>204.75821</ele>
        <time>2023-04-24T13:30:11.000Z</time>
      </trkpt>
      <trkpt lat="45.86329" lon="4.69755">
        <ele>205.30379</ele>
        <time>2023-04-24T13:30:12.000Z</time>
      </trkpt>
      <trkpt lat="45.86334" lon="4.69757">
        <ele>205.79179</ele>
        <time>2023-04-24T13:30:13.000Z</time>
      </trkpt>
      <trkpt lat="45.86338" lon="4.69759">
        <ele>205.79106</ele>
        <time>2023-04-24T13:30:14.000Z</time>
      </trkpt>
      <trkpt lat="45.86342" lon="4.69763">
        <ele>205.7529</ele>
        <time>2023-04-24T13:30:15.000Z</time>
      </trkpt>
      <trkpt lat="45.86345" lon="4.69769">
        <ele>205.71585</ele>
        <time>2023-04-24T13:30:16.000Z</time>
      </trkpt>
      <trkpt lat="45.86349" lon="4.69774">
        <ele>205.80025</ele>
        <time>2023-04-24T13:30:17.000Z</time>
      </trkpt>
      <trkpt lat="45.86353" lon="4.69779">
        <ele>205.90926</ele>
        <time>2023-04-24T13:30:18.000Z</time>
      </trkpt>
      <trkpt lat="45.86358" lon="4.69786">
        <ele>206.06401</ele>
        <time>2023-04-24T13:30:19.000Z</time>
      </trkpt>
      <trkpt lat="45.86361" lon="4.69792">
        <ele>206.20491</ele>
        <time>2023-04-24T13:30:20.000Z</time>
      </trkpt>
      <trkpt lat="45.86364" lon="4.69798">
        <ele>206.24406</ele>
        <time>2023-04-24T13:30:21.000Z</time>
      </trkpt>
      <trkpt lat="45.86367" lon="4.69804">
        <ele>206.29065</ele>
        <time>2023-04-24T13:30:22.000Z</time>
      </trkpt>
      <trkpt lat="45.86371" lon="4.6981">
        <ele>206.27664</ele>
        <time>2023-04-24T13:30:23.000Z</time>
      </trkpt>
      <trkpt lat="45.86375" lon="4.69816">
        <ele>206.17952</ele>
        <time>2023-04-24T13:30:24.000Z</time>
      </trkpt>
      <trkpt lat="45.86378" lon="4.69821">
        <ele>206.14058</ele>
        <time>2023-04-24T13:30:25.000Z</time>
      </trkpt>
      <trkpt lat="45.86382" lon="4.69827">
        <ele>205.46065</ele>
        <time>2023-04-24T13:30:26.000Z</time>
      </trkpt>
      <trkpt lat="45.86386" lon="4.69833">
        <ele>204.67894</ele>
        <time>2023-04-24T13:30:27.000Z</time>
      </trkpt>
      <trkpt lat="45.86389" lon="4.69839">
        <ele>203.82394</ele>
        <time>2023-04-24T13:30:28.000Z</time>
      </trkpt>
      <trkpt lat="45.86391" lon="4.69845">
        <ele>203.04245</ele>
        <time>2023-04-24T13:30:29.000Z</time>
      </trkpt>
      <trkpt lat="45.86394" lon="4.69852">
        <ele>202.68738</ele>
        <time>2023-04-24T13:30:30.000Z</time>
      </trkpt>
      <trkpt lat="45.86397" lon="4.69858">
        <ele>202.29617</ele>
        <time>2023-04-24T13:30:31.000Z</time>
      </trkpt>
      <trkpt lat="45.86399" lon="4.69865">
        <ele>201.86652</ele>
        <time>2023-04-24T13:30:32.000Z</time>
      </trkpt>
      <trkpt lat="45.864" lon="4.69872">
        <ele>201.42453</ele>
        <time>2023-04-24T13:30:33.000Z</time>
      </trkpt>
      <trkpt lat="45.86402" lon="4.6988">
        <ele>200.9548</ele>
        <time>2023-04-24T13:30:34.000Z</time>
      </trkpt>
      <trkpt lat="45.86402" lon="4.69886">
        <ele>200.44394</ele>
        <time>2023-04-24T13:30:35.000Z</time>
      </trkpt>
      <trkpt lat="45.86403" lon="4.69894">
        <ele>199.905</ele>
        <time>2023-04-24T13:30:36.000Z</time>
      </trkpt>
      <trkpt lat="45.86404" lon="4.69901">
        <ele>199.32716</ele>
        <time>2023-04-24T13:30:37.000Z</time>
      </trkpt>
      <trkpt lat="45.86405" lon="4.6991">
        <ele>198.733</ele>
        <time>2023-04-24T13:30:38.000Z</time>
      </trkpt>
      <trkpt lat="45.86405" lon="4.69917">
        <ele>198.02481</ele>
        <time>2023-04-24T13:30:39.000Z</time>
      </trkpt>
      <trkpt lat="45.86407" lon="4.69924">
        <ele>197.37236</ele>
        <time>2023-04-24T13:30:40.000Z</time>
      </trkpt>
      <trkpt lat="45.86407" lon="4.69932">
        <ele>196.82545</ele>
        <time>2023-04-24T13:30:41.000Z</time>
      </trkpt>
      <trkpt lat="45.86407" lon="4.6994">
        <ele>196.20119</ele>
        <time>2023-04-24T13:30:42.000Z</time>
      </trkpt>
      <trkpt lat="45.86407" lon="4.69947">
        <ele>195.53342</ele>
        <time>2023-04-24T13:30:43.000Z</time>
      </trkpt>
      <trkpt lat="45.86407" lon="4.69955">
        <ele>194.91299</ele>
        <time>2023-04-24T13:30:44.000Z</time>
      </trkpt>
      <trkpt lat="45.86407" lon="4.69963">
        <ele>194.25705</ele>
        <time>2023-04-24T13:30:45.000Z</time>
      </trkpt>
      <trkpt lat="45.86405" lon="4.69969">
        <ele>194.26723</ele>
        <time>2023-04-24T13:30:46.000Z</time>
      </trkpt>
      <trkpt lat="45.86405" lon="4.69976">
        <ele>194.21793</ele>
        <time>2023-04-24T13:30:47.000Z</time>
      </trkpt>
      <trkpt lat="45.86404" lon="4.69985">
        <ele>194.14651</ele>
        <time>2023-04-24T13:30:48.000Z</time>
      </trkpt>
      <trkpt lat="45.86405" lon="4.69991">
        <ele>194.03778</ele>
        <time>2023-04-24T13:30:49.000Z</time>
      </trkpt>
      <trkpt lat="45.86405" lon="4.69998">
        <ele>193.89328</ele>
        <time>2023-04-24T13:30:50.000Z</time>
      </trkpt>
      <trkpt lat="45.86404" lon="4.70006">
        <ele>193.76268</ele>
        <time>2023-04-24T13:30:51.000Z</time>
      </trkpt>
      <trkpt lat="45.86404" lon="4.70014">
        <ele>193.6761</ele>
        <time>2023-04-24T13:30:52.000Z</time>
      </trkpt>
      <trkpt lat="45.86403" lon="4.70021">
        <ele>193.63921</ele>
        <time>2023-04-24T13:30:53.000Z</time>
      </trkpt>
      <trkpt lat="45.86402" lon="4.70028">
        <ele>193.59851</ele>
        <time>2023-04-24T13:30:54.000Z</time>
      </trkpt>
      <trkpt lat="45.86401" lon="4.70036">
        <ele>193.50888</ele>
        <time>2023-04-24T13:30:55.000Z</time>
      </trkpt>
      <trkpt lat="45.86399" lon="4.70044">
        <ele>193.40904</ele>
        <time>2023-04-24T13:30:56.000Z</time>
      </trkpt>
      <trkpt lat="45.86397" lon="4.70051">
        <ele>193.27725</ele>
        <time>2023-04-24T13:30:57.000Z</time>
      </trkpt>
      <trkpt lat="45.86395" lon="4.70058">
        <ele>193.18475</ele>
        <time>2023-04-24T13:30:58.000Z</time>
      </trkpt>
      <trkpt lat="45.86395" lon="4.70065">
        <ele>193.14449</ele>
        <time>2023-04-24T13:30:59.000Z</time>
      </trkpt>
      <trkpt lat="45.86395" lon="4.70074">
        <ele>193.10358</ele>
        <time>2023-04-24T13:31:00.000Z</time>
      </trkpt>
      <trkpt lat="45.86394" lon="4.70082">
        <ele>193.03493</ele>
        <time>2023-04-24T13:31:01.000Z</time>
      </trkpt>
      <trkpt lat="45.86393" lon="4.70091">
        <ele>192.9548</ele>
        <time>2023-04-24T13:31:02.000Z</time>
      </trkpt>
      <trkpt lat="45.86391" lon="4.701">
        <ele>192.87981</ele>
        <time>2023-04-24T13:31:03.000Z</time>
      </trkpt>
      <trkpt lat="45.86389" lon="4.70108">
        <ele>192.80246</ele>
        <time>2023-04-24T13:31:04.000Z</time>
      </trkpt>
      <trkpt lat="45.86389" lon="4.70116">
        <ele>192.75952</ele>
        <time>2023-04-24T13:31:05.000Z</time>
      </trkpt>
      <trkpt lat="45.86388" lon="4.70125">
        <ele>192.7769</ele>
        <time>2023-04-24T13:31:06.000Z</time>
      </trkpt>
      <trkpt lat="45.86387" lon="4.70132">
        <ele>192.81885</ele>
        <time>2023-04-24T13:31:07.000Z</time>
      </trkpt>
      <trkpt lat="45.86384" lon="4.70139">
        <ele>192.86459</ele>
        <time>2023-04-24T13:31:08.000Z</time>
      </trkpt>
      <trkpt lat="45.86383" lon="4.70146">
        <ele>192.92125</ele>
        <time>2023-04-24T13:31:09.000Z</time>
      </trkpt>
      <trkpt lat="45.86382" lon="4.70153">
        <ele>193.02338</ele>
        <time>2023-04-24T13:31:10.000Z</time>
      </trkpt>
      <trkpt lat="45.86381" lon="4.7016">
        <ele>193.09424</ele>
        <time>2023-04-24T13:31:11.000Z</time>
      </trkpt>
      <trkpt lat="45.8638" lon="4.70168">
        <ele>193.17961</ele>
        <time>2023-04-24T13:31:12.000Z</time>
      </trkpt>
      <trkpt lat="45.86377" lon="4.70174">
        <ele>193.22755</ele>
        <time>2023-04-24T13:31:13.000Z</time>
      </trkpt>
      <trkpt lat="45.86374" lon="4.70181">
        <ele>193.28094</ele>
        <time>2023-04-24T13:31:14.000Z</time>
      </trkpt>
      <trkpt lat="45.8637" lon="4.70186">
        <ele>193.34145</ele>
        <time>2023-04-24T13:31:15.000Z</time>
      </trkpt>
      <trkpt lat="45.86367" lon="4.70193">
        <ele>193.41762</ele>
        <time>2023-04-24T13:31:16.000Z</time>
      </trkpt>
      <trkpt lat="45.86364" lon="4.70199">
        <ele>193.50658</ele>
        <time>2023-04-24T13:31:17.000Z</time>
      </trkpt>
      <trkpt lat="45.86361" lon="4.70204">
        <ele>193.56375</ele>
        <time>2023-04-24T13:31:18.000Z</time>
      </trkpt>
      <trkpt lat="45.86356" lon="4.70209">
        <ele>193.6553</ele>
        <time>2023-04-24T13:31:19.000Z</time>
      </trkpt>
      <trkpt lat="45.86353" lon="4.70215">
        <ele>193.70917</ele>
        <time>2023-04-24T13:31:20.000Z</time>
      </trkpt>
      <trkpt lat="45.86348" lon="4.70221">
        <ele>193.75659</ele>
        <time>2023-04-24T13:31:21.000Z</time>
      </trkpt>
      <trkpt lat="45.86345" lon="4.70226">
        <ele>193.83438</ele>
        <time>2023-04-24T13:31:22.000Z</time>
      </trkpt>
      <trkpt lat="45.86341" lon="4.70232">
        <ele>193.90935</ele>
        <time>2023-04-24T13:31:23.000Z</time>
      </trkpt>
      <trkpt lat="45.86338" lon="4.70238">
        <ele>193.97882</ele>
        <time>2023-04-24T13:31:24.000Z</time>
      </trkpt>
      <trkpt lat="45.86335" lon="4.70245">
        <ele>193.96661</ele>
        <time>2023-04-24T13:31:25.000Z</time>
      </trkpt>
      <trkpt lat="45.86334" lon="4.70252">
        <ele>193.91891</ele>
        <time>2023-04-24T13:31:26.000Z</time>
      </trkpt>
      <trkpt lat="45.86334" lon="4.70258">
        <ele>193.91995</ele>
        <time>2023-04-24T13:31:27.000Z</time>
      </trkpt>
      <trkpt lat="45.86332" lon="4.70266">
        <ele>193.9151</ele>
        <time>2023-04-24T13:31:28.000Z</time>
      </trkpt>
      <trkpt lat="45.86331" lon="4.70272">
        <ele>193.84535</ele>
        <time>2023-04-24T13:31:29.000Z</time>
      </trkpt>
      <trkpt lat="45.8633" lon="4.70279">
        <ele>193.72583</ele>
        <time>2023-04-24T13:31:30.000Z</time>
      </trkpt>
      <trkpt lat="45.86328" lon="4.70286">
        <ele>193.62332</ele>
        <time>2023-04-24T13:31:31.000Z</time>
      </trkpt>
      <trkpt lat="45.86326" lon="4.70293">
        <ele>193.54922</ele>
        <time>2023-04-24T13:31:32.000Z</time>
      </trkpt>
      <trkpt lat="45.86326" lon="4.70301">
        <ele>193.47273</ele>
        <time>2023-04-24T13:31:33.000Z</time>
      </trkpt>
      <trkpt lat="45.86327" lon="4.70307">
        <ele>193.3381</ele>
        <time>2023-04-24T13:31:34.000Z</time>
      </trkpt>
      <trkpt lat="45.8633" lon="4.70315">
        <ele>193.25447</ele>
        <time>2023-04-24T13:31:35.000Z</time>
      </trkpt>
      <trkpt lat="45.86334" lon="4.70321">
        <ele>193.16452</ele>
        <time>2023-04-24T13:31:36.000Z</time>
      </trkpt>
      <trkpt lat="45.86337" lon="4.70326">
        <ele>193.06859</ele>
        <time>2023-04-24T13:31:37.000Z</time>
      </trkpt>
      <trkpt lat="45.8634" lon="4.70332">
        <ele>192.9877</ele>
        <time>2023-04-24T13:31:38.000Z</time>
      </trkpt>
      <trkpt lat="45.86343" lon="4.70337">
        <ele>192.88046</ele>
        <time>2023-04-24T13:31:39.000Z</time>
      </trkpt>
      <trkpt lat="45.86345" lon="4.70339">
        <ele>192.82706</ele>
        <time>2023-04-24T13:31:40.000Z</time>
      </trkpt>
      <trkpt lat="45.86346" lon="4.70344">
        <ele>192.77309</ele>
        <time>2023-04-24T13:31:41.000Z</time>
      </trkpt>
      <trkpt lat="45.86349" lon="4.70345">
        <ele>192.72032</ele>
        <time>2023-04-24T13:31:42.000Z</time>
      </trkpt>
      <trkpt lat="45.86351" lon="4.70345">
        <ele>192.68768</ele>
        <time>2023-04-24T13:31:43.000Z</time>
      </trkpt>
      <trkpt lat="45.86353" lon="4.70348">
        <ele>192.69046</ele>
        <time>2023-04-24T13:31:44.000Z</time>
      </trkpt>
      <trkpt lat="45.86355" lon="4.7035">
        <ele>192.68694</ele>
        <time>2023-04-24T13:31:45.000Z</time>
      </trkpt>
      <trkpt lat="45.86359" lon="4.70351">
        <ele>192.66542</ele>
        <time>2023-04-24T13:31:46.000Z</time>
      </trkpt>
      <trkpt lat="45.8636" lon="4.70353">
        <ele>192.60437</ele>
        <time>2023-04-24T13:31:47.000Z</time>
      </trkpt>
      <trkpt lat="45.86362" lon="4.70356">
        <ele>192.57549</ele>
        <time>2023-04-24T13:31:48.000Z</time>
      </trkpt>
      <trkpt lat="45.86365" lon="4.70357">
        <ele>192.61089</ele>
        <time>2023-04-24T13:31:49.000Z</time>
      </trkpt>
      <trkpt lat="45.86368" lon="4.7036">
        <ele>192.68985</ele>
        <time>2023-04-24T13:31:50.000Z</time>
      </trkpt>
      <trkpt lat="45.86373" lon="4.70365">
        <ele>192.77336</ele>
        <time>2023-04-24T13:31:51.000Z</time>
      </trkpt>
      <trkpt lat="45.86376" lon="4.7037">
        <ele>192.85281</ele>
        <time>2023-04-24T13:31:52.000Z</time>
      </trkpt>
      <trkpt lat="45.8638" lon="4.70375">
        <ele>192.90988</ele>
        <time>2023-04-24T13:31:53.000Z</time>
      </trkpt>
      <trkpt lat="45.86383" lon="4.7038">
        <ele>192.99982</ele>
        <time>2023-04-24T13:31:54.000Z</time>
      </trkpt>
      <trkpt lat="45.86388" lon="4.70383">
        <ele>193.11673</ele>
        <time>2023-04-24T13:31:55.000Z</time>
      </trkpt>
      <trkpt lat="45.8639" lon="4.70391">
        <ele>193.27138</ele>
        <time>2023-04-24T13:31:56.000Z</time>
      </trkpt>
      <trkpt lat="45.86393" lon="4.70399">
        <ele>193.35683</ele>
        <time>2023-04-24T13:31:57.000Z</time>
      </trkpt>
      <trkpt lat="45.86396" lon="4.70406">
        <ele>193.4165</ele>
        <time>2023-04-24T13:31:58.000Z</time>
      </trkpt>
      <trkpt lat="45.86397" lon="4.70413">
        <ele>193.44479</ele>
        <time>2023-04-24T13:31:59.000Z</time>
      </trkpt>
      <trkpt lat="45.86398" lon="4.7042">
        <ele>193.41339</ele>
        <time>2023-04-24T13:32:00.000Z</time>
      </trkpt>
      <trkpt lat="45.86399" lon="4.70427">
        <ele>193.38332</ele>
        <time>2023-04-24T13:32:01.000Z</time>
      </trkpt>
      <trkpt lat="45.86399" lon="4.70436">
        <ele>193.39398</ele>
        <time>2023-04-24T13:32:02.000Z</time>
      </trkpt>
      <trkpt lat="45.86398" lon="4.70444">
        <ele>193.375</ele>
        <time>2023-04-24T13:32:03.000Z</time>
      </trkpt>
      <trkpt lat="45.86396" lon="4.70451">
        <ele>193.30711</ele>
        <time>2023-04-24T13:32:04.000Z</time>
      </trkpt>
      <trkpt lat="45.86394" lon="4.70459">
        <ele>193.20821</ele>
        <time>2023-04-24T13:32:05.000Z</time>
      </trkpt>
      <trkpt lat="45.86391" lon="4.70465">
        <ele>193.15202</ele>
        <time>2023-04-24T13:32:06.000Z</time>
      </trkpt>
      <trkpt lat="45.86388" lon="4.70472">
        <ele>193.13461</ele>
        <time>2023-04-24T13:32:07.000Z</time>
      </trkpt>
      <trkpt lat="45.86386" lon="4.70477">
        <ele>193.11557</ele>
        <time>2023-04-24T13:32:08.000Z</time>
      </trkpt>
      <trkpt lat="45.86381" lon="4.70483">
        <ele>193.09192</ele>
        <time>2023-04-24T13:32:09.000Z</time>
      </trkpt>
      <trkpt lat="45.86378" lon="4.70489">
        <ele>193.07365</ele>
        <time>2023-04-24T13:32:10.000Z</time>
      </trkpt>
      <trkpt lat="45.86376" lon="4.70494">
        <ele>192.96686</ele>
        <time>2023-04-24T13:32:11.000Z</time>
      </trkpt>
      <trkpt lat="45.86374" lon="4.70501">
        <ele>192.79475</ele>
        <time>2023-04-24T13:32:12.000Z</time>
      </trkpt>
      <trkpt lat="45.86374" lon="4.7051">
        <ele>192.69601</ele>
        <time>2023-04-24T13:32:13.000Z</time>
      </trkpt>
      <trkpt lat="45.86374" lon="4.70517">
        <ele>192.5825</ele>
        <time>2023-04-24T13:32:14.000Z</time>
      </trkpt>
      <trkpt lat="45.86376" lon="4.70525">
        <ele>192.46077</ele>
        <time>2023-04-24T13:32:15.000Z</time>
      </trkpt>
      <trkpt lat="45.86377" lon="4.70533">
        <ele>192.21213</ele>
        <time>2023-04-24T13:32:16.000Z</time>
      </trkpt>
      <trkpt lat="45.86379" lon="4.70539">
        <ele>192.03076</ele>
        <time>2023-04-24T13:32:17.000Z</time>
      </trkpt>
      <trkpt lat="45.86378" lon="4.70546">
        <ele>191.87</ele>
        <time>2023-04-24T13:32:18.000Z</time>
      </trkpt>
      <trkpt lat="45.8638" lon="4.70554">
        <ele>191.72966</ele>
        <time>2023-04-24T13:32:19.000Z</time>
      </trkpt>
      <trkpt lat="45.86383" lon="4.70561">
        <ele>191.59309</ele>
        <time>2023-04-24T13:32:20.000Z</time>
      </trkpt>
      <trkpt lat="45.86387" lon="4.70567">
        <ele>191.47708</ele>
        <time>2023-04-24T13:32:21.000Z</time>
      </trkpt>
      <trkpt lat="45.86392" lon="4.70572">
        <ele>191.29063</ele>
        <time>2023-04-24T13:32:22.000Z</time>
      </trkpt>
      <trkpt lat="45.86397" lon="4.70573">
        <ele>191.13104</ele>
        <time>2023-04-24T13:32:23.000Z</time>
      </trkpt>
      <trkpt lat="45.86401" lon="4.70572">
        <ele>190.97903</ele>
        <time>2023-04-24T13:32:24.000Z</time>
      </trkpt>
      <trkpt lat="45.86406" lon="4.7057">
        <ele>190.9369</ele>
        <time>2023-04-24T13:32:25.000Z</time>
      </trkpt>
      <trkpt lat="45.86412" lon="4.70568">
        <ele>190.86511</ele>
        <time>2023-04-24T13:32:26.000Z</time>
      </trkpt>
      <trkpt lat="45.86418" lon="4.70566">
        <ele>190.75784</ele>
        <time>2023-04-24T13:32:27.000Z</time>
      </trkpt>
      <trkpt lat="45.86424" lon="4.70564">
        <ele>190.66696</ele>
        <time>2023-04-24T13:32:28.000Z</time>
      </trkpt>
      <trkpt lat="45.8643" lon="4.70563">
        <ele>190.58878</ele>
        <time>2023-04-24T13:32:29.000Z</time>
      </trkpt>
      <trkpt lat="45.86436" lon="4.70562">
        <ele>190.50693</ele>
        <time>2023-04-24T13:32:30.000Z</time>
      </trkpt>
      <trkpt lat="45.86442" lon="4.70561">
        <ele>190.55046</ele>
        <time>2023-04-24T13:32:31.000Z</time>
      </trkpt>
      <trkpt lat="45.86448" lon="4.70561">
        <ele>190.63954</ele>
        <time>2023-04-24T13:32:32.000Z</time>
      </trkpt>
      <trkpt lat="45.86453" lon="4.70559">
        <ele>190.69374</ele>
        <time>2023-04-24T13:32:33.000Z</time>
      </trkpt>
      <trkpt lat="45.86459" lon="4.70558">
        <ele>190.67258</ele>
        <time>2023-04-24T13:32:34.000Z</time>
      </trkpt>
      <trkpt lat="45.86465" lon="4.70557">
        <ele>190.66196</ele>
        <time>2023-04-24T13:32:35.000Z</time>
      </trkpt>
      <trkpt lat="45.86469" lon="4.70557">
        <ele>190.74091</ele>
        <time>2023-04-24T13:32:36.000Z</time>
      </trkpt>
      <trkpt lat="45.86475" lon="4.70556">
        <ele>190.82988</ele>
        <time>2023-04-24T13:32:37.000Z</time>
      </trkpt>
      <trkpt lat="45.8648" lon="4.70556">
        <ele>190.92177</ele>
        <time>2023-04-24T13:32:38.000Z</time>
      </trkpt>
      <trkpt lat="45.86485" lon="4.70557">
        <ele>191.00369</ele>
        <time>2023-04-24T13:32:39.000Z</time>
      </trkpt>
      <trkpt lat="45.86489" lon="4.70558">
        <ele>191.03848</ele>
        <time>2023-04-24T13:32:40.000Z</time>
      </trkpt>
      <trkpt lat="45.86493" lon="4.70558">
        <ele>191.06282</ele>
        <time>2023-04-24T13:32:41.000Z</time>
      </trkpt>
      <trkpt lat="45.86497" lon="4.70559">
        <ele>191.14622</ele>
        <time>2023-04-24T13:32:42.000Z</time>
      </trkpt>
      <trkpt lat="45.86499" lon="4.7056">
        <ele>191.19176</ele>
        <time>2023-04-24T13:32:43.000Z</time>
      </trkpt>
      <trkpt lat="45.86503" lon="4.70561">
        <ele>191.26201</ele>
        <time>2023-04-24T13:32:44.000Z</time>
      </trkpt>
      <trkpt lat="45.86509" lon="4.70563">
        <ele>191.3541</ele>
        <time>2023-04-24T13:32:45.000Z</time>
      </trkpt>
      <trkpt lat="45.86514" lon="4.70564">
        <ele>191.42882</ele>
        <time>2023-04-24T13:32:46.000Z</time>
      </trkpt>
      <trkpt lat="45.86519" lon="4.70567">
        <ele>191.5379</ele>
        <time>2023-04-24T13:32:47.000Z</time>
      </trkpt>
      <trkpt lat="45.86524" lon="4.7057">
        <ele>191.64516</ele>
        <time>2023-04-24T13:32:48.000Z</time>
      </trkpt>
      <trkpt lat="45.86529" lon="4.70574">
        <ele>191.72516</ele>
        <time>2023-04-24T13:32:49.000Z</time>
      </trkpt>
      <trkpt lat="45.86533" lon="4.7058">
        <ele>191.60257</ele>
        <time>2023-04-24T13:32:50.000Z</time>
      </trkpt>
      <trkpt lat="45.86537" lon="4.70586">
        <ele>191.42891</ele>
        <time>2023-04-24T13:32:51.000Z</time>
      </trkpt>
      <trkpt lat="45.86541" lon="4.70592">
        <ele>191.20413</ele>
        <time>2023-04-24T13:32:52.000Z</time>
      </trkpt>
      <trkpt lat="45.86544" lon="4.706">
        <ele>191.02362</ele>
        <time>2023-04-24T13:32:53.000Z</time>
      </trkpt>
      <trkpt lat="45.86546" lon="4.70608">
        <ele>190.98016</ele>
        <time>2023-04-24T13:32:54.000Z</time>
      </trkpt>
      <trkpt lat="45.8655" lon="4.70614">
        <ele>190.76648</ele>
        <time>2023-04-24T13:32:55.000Z</time>
      </trkpt>
      <trkpt lat="45.86554" lon="4.7062">
        <ele>190.57288</ele>
        <time>2023-04-24T13:32:56.000Z</time>
      </trkpt>
      <trkpt lat="45.8656" lon="4.70625">
        <ele>190.37494</ele>
        <time>2023-04-24T13:32:57.000Z</time>
      </trkpt>
      <trkpt lat="45.86565" lon="4.70628">
        <ele>190.16859</ele>
        <time>2023-04-24T13:32:58.000Z</time>
      </trkpt>
      <trkpt lat="45.86571" lon="4.70629">
        <ele>189.97087</ele>
        <time>2023-04-24T13:32:59.000Z</time>
      </trkpt>
      <trkpt lat="45.86577" lon="4.70628">
        <ele>189.80983</ele>
        <time>2023-04-24T13:33:00.000Z</time>
      </trkpt>
      <trkpt lat="45.86584" lon="4.70628">
        <ele>189.69101</ele>
        <time>2023-04-24T13:33:01.000Z</time>
      </trkpt>
      <trkpt lat="45.86591" lon="4.70627">
        <ele>189.55424</ele>
        <time>2023-04-24T13:33:02.000Z</time>
      </trkpt>
      <trkpt lat="45.86595" lon="4.70626">
        <ele>189.43318</ele>
        <time>2023-04-24T13:33:03.000Z</time>
      </trkpt>
      <trkpt lat="45.866" lon="4.70627">
        <ele>189.29283</ele>
        <time>2023-04-24T13:33:04.000Z</time>
      </trkpt>
      <trkpt lat="45.86604" lon="4.70628">
        <ele>189.19209</ele>
        <time>2023-04-24T13:33:05.000Z</time>
      </trkpt>
      <trkpt lat="45.8661" lon="4.7063">
        <ele>189.15103</ele>
        <time>2023-04-24T13:33:06.000Z</time>
      </trkpt>
      <trkpt lat="45.86614" lon="4.70633">
        <ele>188.94177</ele>
        <time>2023-04-24T13:33:07.000Z</time>
      </trkpt>
      <trkpt lat="45.8662" lon="4.70636">
        <ele>188.76192</ele>
        <time>2023-04-24T13:33:08.000Z</time>
      </trkpt>
      <trkpt lat="45.86625" lon="4.7064">
        <ele>188.58231</ele>
        <time>2023-04-24T13:33:09.000Z</time>
      </trkpt>
      <trkpt lat="45.8663" lon="4.70642">
        <ele>188.53993</ele>
        <time>2023-04-24T13:33:10.000Z</time>
      </trkpt>
      <trkpt lat="45.86637" lon="4.70641">
        <ele>188.49327</ele>
        <time>2023-04-24T13:33:11.000Z</time>
      </trkpt>
      <trkpt lat="45.86641" lon="4.7064">
        <ele>188.55495</ele>
        <time>2023-04-24T13:33:12.000Z</time>
      </trkpt>
      <trkpt lat="45.86645" lon="4.70636">
        <ele>188.56354</ele>
        <time>2023-04-24T13:33:13.000Z</time>
      </trkpt>
      <trkpt lat="45.86649" lon="4.7063">
        <ele>188.57716</ele>
        <time>2023-04-24T13:33:14.000Z</time>
      </trkpt>
      <trkpt lat="45.86651" lon="4.70625">
        <ele>188.80461</ele>
        <time>2023-04-24T13:33:15.000Z</time>
      </trkpt>
      <trkpt lat="45.86654" lon="4.7062">
        <ele>189.02472</ele>
        <time>2023-04-24T13:33:16.000Z</time>
      </trkpt>
      <trkpt lat="45.86657" lon="4.70615">
        <ele>189.30472</ele>
        <time>2023-04-24T13:33:17.000Z</time>
      </trkpt>
      <trkpt lat="45.86663" lon="4.70608">
        <ele>189.61171</ele>
        <time>2023-04-24T13:33:18.000Z</time>
      </trkpt>
      <trkpt lat="45.86667" lon="4.70606">
        <ele>189.91887</ele>
        <time>2023-04-24T13:33:19.000Z</time>
      </trkpt>
      <trkpt lat="45.86671" lon="4.70603">
        <ele>190.14772</ele>
        <time>2023-04-24T13:33:20.000Z</time>
      </trkpt>
      <trkpt lat="45.86678" lon="4.70604">
        <ele>190.37766</ele>
        <time>2023-04-24T13:33:21.000Z</time>
      </trkpt>
      <trkpt lat="45.86681" lon="4.70609">
        <ele>190.61284</ele>
        <time>2023-04-24T13:33:22.000Z</time>
      </trkpt>
      <trkpt lat="45.86685" lon="4.70615">
        <ele>190.84866</ele>
        <time>2023-04-24T13:33:23.000Z</time>
      </trkpt>
      <trkpt lat="45.86687" lon="4.70621">
        <ele>191.0952</ele>
        <time>2023-04-24T13:33:24.000Z</time>
      </trkpt>
      <trkpt lat="45.86689" lon="4.70625">
        <ele>191.26437</ele>
        <time>2023-04-24T13:33:25.000Z</time>
      </trkpt>
      <trkpt lat="45.86691" lon="4.70627">
        <ele>191.39127</ele>
        <time>2023-04-24T13:33:26.000Z</time>
      </trkpt>
      <trkpt lat="45.86693" lon="4.70632">
        <ele>191.56589</ele>
        <time>2023-04-24T13:33:27.000Z</time>
      </trkpt>
      <trkpt lat="45.86695" lon="4.70636">
        <ele>191.67705</ele>
        <time>2023-04-24T13:33:28.000Z</time>
      </trkpt>
      <trkpt lat="45.86696" lon="4.70639">
        <ele>191.71741</ele>
        <time>2023-04-24T13:33:29.000Z</time>
      </trkpt>
      <trkpt lat="45.86697" lon="4.70642">
        <ele>191.80154</ele>
        <time>2023-04-24T13:33:30.000Z</time>
      </trkpt>
      <trkpt lat="45.86698" lon="4.70645">
        <ele>191.91856</ele>
        <time>2023-04-24T13:33:31.000Z</time>
      </trkpt>
      <trkpt lat="45.867" lon="4.70649">
        <ele>191.95575</ele>
        <time>2023-04-24T13:33:32.000Z</time>
      </trkpt>
      <trkpt lat="45.86702" lon="4.70653">
        <ele>192.01447</ele>
        <time>2023-04-24T13:33:33.000Z</time>
      </trkpt>
      <trkpt lat="45.86704" lon="4.70656">
        <ele>192.01324</ele>
        <time>2023-04-24T13:33:34.000Z</time>
      </trkpt>
      <trkpt lat="45.86706" lon="4.7066">
        <ele>191.94861</ele>
        <time>2023-04-24T13:33:35.000Z</time>
      </trkpt>
      <trkpt lat="45.86708" lon="4.70665">
        <ele>191.8598</ele>
        <time>2023-04-24T13:33:36.000Z</time>
      </trkpt>
      <trkpt lat="45.8671" lon="4.70669">
        <ele>191.66599</ele>
        <time>2023-04-24T13:33:37.000Z</time>
      </trkpt>
      <trkpt lat="45.86712" lon="4.70673">
        <ele>191.37694</ele>
        <time>2023-04-24T13:33:38.000Z</time>
      </trkpt>
      <trkpt lat="45.86714" lon="4.70678">
        <ele>191.07875</ele>
        <time>2023-04-24T13:33:39.000Z</time>
      </trkpt>
      <trkpt lat="45.86716" lon="4.70681">
        <ele>190.85634</ele>
        <time>2023-04-24T13:33:40.000Z</time>
      </trkpt>
      <trkpt lat="45.86717" lon="4.70685">
        <ele>190.69562</ele>
        <time>2023-04-24T13:33:41.000Z</time>
      </trkpt>
      <trkpt lat="45.8672" lon="4.70689">
        <ele>191.8517</ele>
        <time>2023-04-24T13:33:42.000Z</time>
      </trkpt>
      <trkpt lat="45.86722" lon="4.70693">
        <ele>193.11414</ele>
        <time>2023-04-24T13:33:43.000Z</time>
      </trkpt>
      <trkpt lat="45.86725" lon="4.70698">
        <ele>194.38861</ele>
        <time>2023-04-24T13:33:44.000Z</time>
      </trkpt>
      <trkpt lat="45.86728" lon="4.70702">
        <ele>195.62784</ele>
        <time>2023-04-24T13:33:45.000Z</time>
      </trkpt>
      <trkpt lat="45.8673" lon="4.70706">
        <ele>196.68916</ele>
        <time>2023-04-24T13:33:46.000Z</time>
      </trkpt>
      <trkpt lat="45.86734" lon="4.7071">
        <ele>197.77231</ele>
        <time>2023-04-24T13:33:47.000Z</time>
      </trkpt>
      <trkpt lat="45.86737" lon="4.70713">
        <ele>198.9209</ele>
        <time>2023-04-24T13:33:48.000Z</time>
      </trkpt>
      <trkpt lat="45.86741" lon="4.70716">
        <ele>200.27515</ele>
        <time>2023-04-24T13:33:49.000Z</time>
      </trkpt>
      <trkpt lat="45.86745" lon="4.70718">
        <ele>201.70039</ele>
        <time>2023-04-24T13:33:50.000Z</time>
      </trkpt>
      <trkpt lat="45.86748" lon="4.70719">
        <ele>203.08278</ele>
        <time>2023-04-24T13:33:51.000Z</time>
      </trkpt>
      <trkpt lat="45.86752" lon="4.7072">
        <ele>202.99365</ele>
        <time>2023-04-24T13:33:52.000Z</time>
      </trkpt>
      <trkpt lat="45.86756" lon="4.70721">
        <ele>202.85214</ele>
        <time>2023-04-24T13:33:53.000Z</time>
      </trkpt>
      <trkpt lat="45.86759" lon="4.70723">
        <ele>202.74619</ele>
        <time>2023-04-24T13:33:54.000Z</time>
      </trkpt>
      <trkpt lat="45.86761" lon="4.70727">
        <ele>202.6037</ele>
        <time>2023-04-24T13:33:55.000Z</time>
      </trkpt>
      <trkpt lat="45.86762" lon="4.70732">
        <ele>202.42337</ele>
        <time>2023-04-24T13:33:56.000Z</time>
      </trkpt>
      <trkpt lat="45.86762" lon="4.70737">
        <ele>202.26057</ele>
        <time>2023-04-24T13:33:57.000Z</time>
      </trkpt>
      <trkpt lat="45.86763" lon="4.70742">
        <ele>202.16808</ele>
        <time>2023-04-24T13:33:58.000Z</time>
      </trkpt>
      <trkpt lat="45.86763" lon="4.70748">
        <ele>202.19171</ele>
        <time>2023-04-24T13:33:59.000Z</time>
      </trkpt>
      <trkpt lat="45.86763" lon="4.70754">
        <ele>202.25464</ele>
        <time>2023-04-24T13:34:00.000Z</time>
      </trkpt>
      <trkpt lat="45.86764" lon="4.7076">
        <ele>202.23558</ele>
        <time>2023-04-24T13:34:01.000Z</time>
      </trkpt>
      <trkpt lat="45.86764" lon="4.70766">
        <ele>200.68549</ele>
        <time>2023-04-24T13:34:02.000Z</time>
      </trkpt>
      <trkpt lat="45.86766" lon="4.70774">
        <ele>198.8383</ele>
        <time>2023-04-24T13:34:03.000Z</time>
      </trkpt>
      <trkpt lat="45.86769" lon="4.7078">
        <ele>196.95171</ele>
        <time>2023-04-24T13:34:04.000Z</time>
      </trkpt>
      <trkpt lat="45.86773" lon="4.70788">
        <ele>195.11581</ele>
        <time>2023-04-24T13:34:05.000Z</time>
      </trkpt>
      <trkpt lat="45.86775" lon="4.70795">
        <ele>193.69144</ele>
        <time>2023-04-24T13:34:06.000Z</time>
      </trkpt>
      <trkpt lat="45.86777" lon="4.708">
        <ele>192.36223</ele>
        <time>2023-04-24T13:34:07.000Z</time>
      </trkpt>
      <trkpt lat="45.8678" lon="4.70805">
        <ele>190.94308</ele>
        <time>2023-04-24T13:34:08.000Z</time>
      </trkpt>
      <trkpt lat="45.86784" lon="4.7081">
        <ele>189.40938</ele>
        <time>2023-04-24T13:34:09.000Z</time>
      </trkpt>
      <trkpt lat="45.86789" lon="4.70813">
        <ele>187.87813</ele>
        <time>2023-04-24T13:34:10.000Z</time>
      </trkpt>
      <trkpt lat="45.86792" lon="4.70816">
        <ele>186.40286</ele>
        <time>2023-04-24T13:34:11.000Z</time>
      </trkpt>
      <trkpt lat="45.86797" lon="4.7082">
        <ele>186.27095</ele>
        <time>2023-04-24T13:34:12.000Z</time>
      </trkpt>
      <trkpt lat="45.86799" lon="4.70821">
        <ele>186.20512</ele>
        <time>2023-04-24T13:34:13.000Z</time>
      </trkpt>
      <trkpt lat="45.86803" lon="4.70824">
        <ele>186.08929</ele>
        <time>2023-04-24T13:34:14.000Z</time>
      </trkpt>
      <trkpt lat="45.86805" lon="4.70827">
        <ele>185.9308</ele>
        <time>2023-04-24T13:34:15.000Z</time>
      </trkpt>
      <trkpt lat="45.86807" lon="4.70831">
        <ele>185.8425</ele>
        <time>2023-04-24T13:34:16.000Z</time>
      </trkpt>
      <trkpt lat="45.8681" lon="4.70833">
        <ele>185.79233</ele>
        <time>2023-04-24T13:34:17.000Z</time>
      </trkpt>
      <trkpt lat="45.86812" lon="4.70837">
        <ele>185.67201</ele>
        <time>2023-04-24T13:34:18.000Z</time>
      </trkpt>
      <trkpt lat="45.86815" lon="4.70841">
        <ele>185.47939</ele>
        <time>2023-04-24T13:34:19.000Z</time>
      </trkpt>
      <trkpt lat="45.86818" lon="4.70846">
        <ele>185.29716</ele>
        <time>2023-04-24T13:34:20.000Z</time>
      </trkpt>
      <trkpt lat="45.86821" lon="4.70851">
        <ele>185.10342</ele>
        <time>2023-04-24T13:34:21.000Z</time>
      </trkpt>
      <trkpt lat="45.86822" lon="4.70859">
        <ele>185.11676</ele>
        <time>2023-04-24T13:34:22.000Z</time>
      </trkpt>
      <trkpt lat="45.86825" lon="4.70863">
        <ele>185.34972</ele>
        <time>2023-04-24T13:34:23.000Z</time>
      </trkpt>
      <trkpt lat="45.86827" lon="4.70869">
        <ele>185.60562</ele>
        <time>2023-04-24T13:34:24.000Z</time>
      </trkpt>
      <trkpt lat="45.86829" lon="4.70875">
        <ele>185.81241</ele>
        <time>2023-04-24T13:34:25.000Z</time>
      </trkpt>
      <trkpt lat="45.86832" lon="4.7088">
        <ele>185.74585</ele>
        <time>2023-04-24T13:34:26.000Z</time>
      </trkpt>
      <trkpt lat="45.86834" lon="4.70885">
        <ele>185.65994</ele>
        <time>2023-04-24T13:34:27.000Z</time>
      </trkpt>
      <trkpt lat="45.86837" lon="4.7089">
        <ele>185.59099</ele>
        <time>2023-04-24T13:34:28.000Z</time>
      </trkpt>
      <trkpt lat="45.8684" lon="4.70895">
        <ele>185.51865</ele>
        <time>2023-04-24T13:34:29.000Z</time>
      </trkpt>
      <trkpt lat="45.86842" lon="4.70901">
        <ele>185.37344</ele>
        <time>2023-04-24T13:34:30.000Z</time>
      </trkpt>
      <trkpt lat="45.86844" lon="4.70906">
        <ele>185.20955</ele>
        <time>2023-04-24T13:34:31.000Z</time>
      </trkpt>
      <trkpt lat="45.86846" lon="4.70911">
        <ele>185.21799</ele>
        <time>2023-04-24T13:34:32.000Z</time>
      </trkpt>
      <trkpt lat="45.86848" lon="4.70916">
        <ele>185.19264</ele>
        <time>2023-04-24T13:34:33.000Z</time>
      </trkpt>
      <trkpt lat="45.8685" lon="4.7092">
        <ele>185.17451</ele>
        <time>2023-04-24T13:34:34.000Z</time>
      </trkpt>
      <trkpt lat="45.86853" lon="4.70926">
        <ele>185.21655</ele>
        <time>2023-04-24T13:34:35.000Z</time>
      </trkpt>
      <trkpt lat="45.86855" lon="4.70931">
        <ele>185.23758</ele>
        <time>2023-04-24T13:34:36.000Z</time>
      </trkpt>
      <trkpt lat="45.86858" lon="4.70936">
        <ele>185.23401</ele>
        <time>2023-04-24T13:34:37.000Z</time>
      </trkpt>
      <trkpt lat="45.8686" lon="4.70941">
        <ele>185.3067</ele>
        <time>2023-04-24T13:34:38.000Z</time>
      </trkpt>
      <trkpt lat="45.86861" lon="4.70947">
        <ele>185.42856</ele>
        <time>2023-04-24T13:34:39.000Z</time>
      </trkpt>
      <trkpt lat="45.86863" lon="4.70953">
        <ele>185.56229</ele>
        <time>2023-04-24T13:34:40.000Z</time>
      </trkpt>
      <trkpt lat="45.86864" lon="4.70961">
        <ele>185.66673</ele>
        <time>2023-04-24T13:34:41.000Z</time>
      </trkpt>
      <trkpt lat="45.86867" lon="4.70966">
        <ele>185.71059</ele>
        <time>2023-04-24T13:34:42.000Z</time>
      </trkpt>
      <trkpt lat="45.86869" lon="4.70973">
        <ele>185.81325</ele>
        <time>2023-04-24T13:34:43.000Z</time>
      </trkpt>
      <trkpt lat="45.86869" lon="4.7098">
        <ele>185.78929</ele>
        <time>2023-04-24T13:34:44.000Z</time>
      </trkpt>
      <trkpt lat="45.8687" lon="4.70987">
        <ele>185.80887</ele>
        <time>2023-04-24T13:34:45.000Z</time>
      </trkpt>
      <trkpt lat="45.86872" lon="4.70992">
        <ele>185.85995</ele>
        <time>2023-04-24T13:34:46.000Z</time>
      </trkpt>
      <trkpt lat="45.86873" lon="4.70999">
        <ele>185.96072</ele>
        <time>2023-04-24T13:34:47.000Z</time>
      </trkpt>
      <trkpt lat="45.86874" lon="4.71006">
        <ele>186.02753</ele>
        <time>2023-04-24T13:34:48.000Z</time>
      </trkpt>
      <trkpt lat="45.86874" lon="4.71014">
        <ele>186.08333</ele>
        <time>2023-04-24T13:34:49.000Z</time>
      </trkpt>
      <trkpt lat="45.86875" lon="4.7102">
        <ele>186.13283</ele>
        <time>2023-04-24T13:34:50.000Z</time>
      </trkpt>
      <trkpt lat="45.86876" lon="4.71026">
        <ele>186.16739</ele>
        <time>2023-04-24T13:34:51.000Z</time>
      </trkpt>
      <trkpt lat="45.86877" lon="4.71033">
        <ele>186.14</ele>
        <time>2023-04-24T13:34:52.000Z</time>
      </trkpt>
      <trkpt lat="45.86878" lon="4.71037">
        <ele>186.09158</ele>
        <time>2023-04-24T13:34:53.000Z</time>
      </trkpt>
      <trkpt lat="45.86879" lon="4.71043">
        <ele>186.06085</ele>
        <time>2023-04-24T13:34:54.000Z</time>
      </trkpt>
      <trkpt lat="45.86881" lon="4.71047">
        <ele>186.09135</ele>
        <time>2023-04-24T13:34:55.000Z</time>
      </trkpt>
      <trkpt lat="45.86883" lon="4.7105">
        <ele>186.19017</ele>
        <time>2023-04-24T13:34:56.000Z</time>
      </trkpt>
      <trkpt lat="45.86885" lon="4.71053">
        <ele>186.31686</ele>
        <time>2023-04-24T13:34:57.000Z</time>
      </trkpt>
      <trkpt lat="45.86887" lon="4.71056">
        <ele>186.46109</ele>
        <time>2023-04-24T13:34:58.000Z</time>
      </trkpt>
      <trkpt lat="45.86889" lon="4.71059">
        <ele>186.53635</ele>
        <time>2023-04-24T13:34:59.000Z</time>
      </trkpt>
      <trkpt lat="45.86892" lon="4.71058">
        <ele>186.6143</ele>
        <time>2023-04-24T13:35:00.000Z</time>
      </trkpt>
      <trkpt lat="45.86895" lon="4.71058">
        <ele>186.68237</ele>
        <time>2023-04-24T13:35:01.000Z</time>
      </trkpt>
      <trkpt lat="45.86896" lon="4.7106">
        <ele>186.84813</ele>
        <time>2023-04-24T13:35:02.000Z</time>
      </trkpt>
      <trkpt lat="45.86898" lon="4.71062">
        <ele>186.97128</ele>
        <time>2023-04-24T13:35:03.000Z</time>
      </trkpt>
      <trkpt lat="45.869" lon="4.71065">
        <ele>187.23106</ele>
        <time>2023-04-24T13:35:04.000Z</time>
      </trkpt>
      <trkpt lat="45.86901" lon="4.71067">
        <ele>187.48035</ele>
        <time>2023-04-24T13:35:05.000Z</time>
      </trkpt>
      <trkpt lat="45.86903" lon="4.71064">
        <ele>187.6647</ele>
        <time>2023-04-24T13:35:06.000Z</time>
      </trkpt>
      <trkpt lat="45.86903" lon="4.7106">
        <ele>187.80315</ele>
        <time>2023-04-24T13:35:07.000Z</time>
      </trkpt>
      <trkpt lat="45.86901" lon="4.71058">
        <ele>187.96677</ele>
        <time>2023-04-24T13:35:08.000Z</time>
      </trkpt>
      <trkpt lat="45.86898" lon="4.71059">
        <ele>188.13625</ele>
        <time>2023-04-24T13:35:09.000Z</time>
      </trkpt>
      <trkpt lat="45.86897" lon="4.71062">
        <ele>188.3046</ele>
        <time>2023-04-24T13:35:10.000Z</time>
      </trkpt>
      <trkpt lat="45.86896" lon="4.71065">
        <ele>188.49197</ele>
        <time>2023-04-24T13:35:11.000Z</time>
      </trkpt>
      <trkpt lat="45.86895" lon="4.71067">
        <ele>188.74915</ele>
        <time>2023-04-24T13:35:12.000Z</time>
      </trkpt>
      <trkpt lat="45.86893" lon="4.71069">
        <ele>189.02263</ele>
        <time>2023-04-24T13:35:14.000Z</time>
      </trkpt>
      <trkpt lat="45.86893" lon="4.71072">
        <ele>189.32231</ele>
        <time>2023-04-24T13:35:26.000Z</time>
      </trkpt>
      <trkpt lat="45.86891" lon="4.71072">
        <ele>189.53738</ele>
        <time>2023-04-24T13:35:30.000Z</time>
      </trkpt>
      <trkpt lat="45.86889" lon="4.71074">
        <ele>189.72328</ele>
        <time>2023-04-24T13:35:33.000Z</time>
      </trkpt>
      <trkpt lat="45.86887" lon="4.71075">
        <ele>189.85341</ele>
        <time>2023-04-24T13:35:36.000Z</time>
      </trkpt>
      <trkpt lat="45.86884" lon="4.71075">
        <ele>189.99759</ele>
        <time>2023-04-24T13:36:07.000Z</time>
      </trkpt>
      <trkpt lat="45.86882" lon="4.71076">
        <ele>190.12238</ele>
        <time>2023-04-24T13:36:08.000Z</time>
      </trkpt>
      <trkpt lat="45.8688" lon="4.71078">
        <ele>190.19992</ele>
        <time>2023-04-24T13:36:09.000Z</time>
      </trkpt>
      <trkpt lat="45.86879" lon="4.71079">
        <ele>190.31218</ele>
        <time>2023-04-24T13:36:10.000Z</time>
      </trkpt>
      <trkpt lat="45.86877" lon="4.7108">
        <ele>190.39343</ele>
        <time>2023-04-24T13:36:11.000Z</time>
      </trkpt>
      <trkpt lat="45.86875" lon="4.71081">
        <ele>190.42503</ele>
        <time>2023-04-24T13:36:12.000Z</time>
      </trkpt>
      <trkpt lat="45.86872" lon="4.71082">
        <ele>190.43791</ele>
        <time>2023-04-24T13:36:14.000Z</time>
      </trkpt>
      <trkpt lat="45.86869" lon="4.71081">
        <ele>190.40707</ele>
        <time>2023-04-24T13:36:15.000Z</time>
      </trkpt>
      <trkpt lat="45.86867" lon="4.71081">
        <ele>190.42444</ele>
        <time>2023-04-24T13:36:16.000Z</time>
      </trkpt>
      <trkpt lat="45.86865" lon="4.71081">
        <ele>190.44046</ele>
        <time>2023-04-24T13:36:17.000Z</time>
      </trkpt>
      <trkpt lat="45.86862" lon="4.7108">
        <ele>190.40686</ele>
        <time>2023-04-24T13:36:18.000Z</time>
      </trkpt>
      <trkpt lat="45.86859" lon="4.7108">
        <ele>190.36992</ele>
        <time>2023-04-24T13:36:19.000Z</time>
      </trkpt>
      <trkpt lat="45.86857" lon="4.7108">
        <ele>190.34268</ele>
        <time>2023-04-24T13:36:20.000Z</time>
      </trkpt>
      <trkpt lat="45.86855" lon="4.7108">
        <ele>190.28458</ele>
        <time>2023-04-24T13:36:21.000Z</time>
      </trkpt>
      <trkpt lat="45.86853" lon="4.7108">
        <ele>190.1635</ele>
        <time>2023-04-24T13:36:22.000Z</time>
      </trkpt>
      <trkpt lat="45.86851" lon="4.7108">
        <ele>190.03635</ele>
        <time>2023-04-24T13:36:23.000Z</time>
      </trkpt>
      <trkpt lat="45.86848" lon="4.71079">
        <ele>189.92867</ele>
        <time>2023-04-24T13:36:25.000Z</time>
      </trkpt>
      <trkpt lat="45.86845" lon="4.71079">
        <ele>189.82338</ele>
        <time>2023-04-24T13:36:27.000Z</time>
      </trkpt>
      <trkpt lat="45.86842" lon="4.71079">
        <ele>189.71841</ele>
        <time>2023-04-24T13:36:29.000Z</time>
      </trkpt>
      <trkpt lat="45.8684" lon="4.71079">
        <ele>189.6848</ele>
        <time>2023-04-24T13:36:31.000Z</time>
      </trkpt>
      <trkpt lat="45.86836" lon="4.71079">
        <ele>189.62187</ele>
        <time>2023-04-24T13:36:33.000Z</time>
      </trkpt>
      <trkpt lat="45.86835" lon="4.71079">
        <ele>189.54971</ele>
        <time>2023-04-24T13:36:34.000Z</time>
      </trkpt>
      <trkpt lat="45.86833" lon="4.71079">
        <ele>189.47552</ele>
        <time>2023-04-24T13:36:35.000Z</time>
      </trkpt>
      <trkpt lat="45.86831" lon="4.71079">
        <ele>189.43105</ele>
        <time>2023-04-24T13:36:36.000Z</time>
      </trkpt>
      <trkpt lat="45.86829" lon="4.71079">
        <ele>189.36626</ele>
        <time>2023-04-24T13:36:37.000Z</time>
      </trkpt>
      <trkpt lat="45.86827" lon="4.71079">
        <ele>189.29962</ele>
        <time>2023-04-24T13:36:38.000Z</time>
      </trkpt>
      <trkpt lat="45.86825" lon="4.71079">
        <ele>189.24893</ele>
        <time>2023-04-24T13:36:40.000Z</time>
      </trkpt>
      <trkpt lat="45.86823" lon="4.71079">
        <ele>189.23604</ele>
        <time>2023-04-24T13:36:53.000Z</time>
      </trkpt>
      <trkpt lat="45.86821" lon="4.71078">
        <ele>189.2598</ele>
        <time>2023-04-24T13:37:00.000Z</time>
      </trkpt>
      <trkpt lat="45.86822" lon="4.71076">
        <ele>189.32964</ele>
        <time>2023-04-24T13:37:14.000Z</time>
      </trkpt>
      <trkpt lat="45.86821" lon="4.71078">
        <ele>189.45145</ele>
        <time>2023-04-24T13:37:33.000Z</time>
      </trkpt>
      <trkpt lat="45.86818" lon="4.71077">
        <ele>189.99948</ele>
        <time>2023-04-24T13:38:16.000Z</time>
      </trkpt>
      <trkpt lat="45.86815" lon="4.71078">
        <ele>190.1245</ele>
        <time>2023-04-24T13:38:18.000Z</time>
      </trkpt>
      <trkpt lat="45.86813" lon="4.71079">
        <ele>190.26497</ele>
        <time>2023-04-24T13:38:19.000Z</time>
      </trkpt>
      <trkpt lat="45.86811" lon="4.7108">
        <ele>190.42345</ele>
        <time>2023-04-24T13:38:20.000Z</time>
      </trkpt>
      <trkpt lat="45.8681" lon="4.71079">
        <ele>190.5838</ele>
        <time>2023-04-24T13:38:29.000Z</time>
      </trkpt>
      <trkpt lat="45.86811" lon="4.71078">
        <ele>190.68488</ele>
        <time>2023-04-24T13:38:45.000Z</time>
      </trkpt>
      <trkpt lat="45.86813" lon="4.71079">
        <ele>190.85269</ele>
        <time>2023-04-24T13:39:00.000Z</time>
      </trkpt>
      <trkpt lat="45.86813" lon="4.71082">
        <ele>191.03867</ele>
        <time>2023-04-24T13:39:38.000Z</time>
      </trkpt>
      <trkpt lat="45.86814" lon="4.7108">
        <ele>191.23116</ele>
        <time>2023-04-24T13:40:02.000Z</time>
      </trkpt>
      <trkpt lat="45.86817" lon="4.71078">
        <ele>191.41245</ele>
        <time>2023-04-24T13:40:04.000Z</time>
      </trkpt>
      <trkpt lat="45.8682" lon="4.71076">
        <ele>191.63637</ele>
        <time>2023-04-24T13:40:06.000Z</time>
      </trkpt>
      <trkpt lat="45.86822" lon="4.71074">
        <ele>191.87906</ele>
        <time>2023-04-24T13:40:07.000Z</time>
      </trkpt>
      <trkpt lat="45.86824" lon="4.71073">
        <ele>192.08775</ele>
        <time>2023-04-24T13:40:08.000Z</time>
      </trkpt>
      <trkpt lat="45.86826" lon="4.71072">
        <ele>192.29463</ele>
        <time>2023-04-24T13:40:09.000Z</time>
      </trkpt>
      <trkpt lat="45.86828" lon="4.71071">
        <ele>192.50146</ele>
        <time>2023-04-24T13:40:10.000Z</time>
      </trkpt>
      <trkpt lat="45.8683" lon="4.7107">
        <ele>192.69431</ele>
        <time>2023-04-24T13:40:11.000Z</time>
      </trkpt>
      <trkpt lat="45.86832" lon="4.71068">
        <ele>192.8862</ele>
        <time>2023-04-24T13:40:12.000Z</time>
      </trkpt>
      <trkpt lat="45.86834" lon="4.71066">
        <ele>193.04141</ele>
        <time>2023-04-24T13:40:13.000Z</time>
      </trkpt>
      <trkpt lat="45.86835" lon="4.71062">
        <ele>193.17909</ele>
        <time>2023-04-24T13:40:14.000Z</time>
      </trkpt>
      <trkpt lat="45.86835" lon="4.71058">
        <ele>193.31029</ele>
        <time>2023-04-24T13:40:15.000Z</time>
      </trkpt>
      <trkpt lat="45.86835" lon="4.71054">
        <ele>193.02777</ele>
        <time>2023-04-24T13:40:16.000Z</time>
      </trkpt>
      <trkpt lat="45.8683" lon="4.71049">
        <ele>193.16727</ele>
        <time>2023-04-24T13:40:17.000Z</time>
      </trkpt>
      <trkpt lat="45.86829" lon="4.71045">
        <ele>193.32187</ele>
        <time>2023-04-24T13:40:18.000Z</time>
      </trkpt>
      <trkpt lat="45.86827" lon="4.71041">
        <ele>193.47653</ele>
        <time>2023-04-24T13:40:19.000Z</time>
      </trkpt>
      <trkpt lat="45.86826" lon="4.71037">
        <ele>193.6225</ele>
        <time>2023-04-24T13:40:20.000Z</time>
      </trkpt>
      <trkpt lat="45.86825" lon="4.71032">
        <ele>193.80475</ele>
        <time>2023-04-24T13:40:21.000Z</time>
      </trkpt>
      <trkpt lat="45.86824" lon="4.71029">
        <ele>193.96706</ele>
        <time>2023-04-24T13:40:22.000Z</time>
      </trkpt>
      <trkpt lat="45.86823" lon="4.71024">
        <ele>194.06764</ele>
        <time>2023-04-24T13:40:23.000Z</time>
      </trkpt>
      <trkpt lat="45.86821" lon="4.7102">
        <ele>194.12897</ele>
        <time>2023-04-24T13:40:24.000Z</time>
      </trkpt>
      <trkpt lat="45.8682" lon="4.71016">
        <ele>194.16431</ele>
        <time>2023-04-24T13:40:25.000Z</time>
      </trkpt>
      <trkpt lat="45.86818" lon="4.71012">
        <ele>194.18912</ele>
        <time>2023-04-24T13:40:26.000Z</time>
      </trkpt>
      <trkpt lat="45.86817" lon="4.71007">
        <ele>194.2218</ele>
        <time>2023-04-24T13:40:27.000Z</time>
      </trkpt>
      <trkpt lat="45.86816" lon="4.71003">
        <ele>194.2484</ele>
        <time>2023-04-24T13:40:28.000Z</time>
      </trkpt>
      <trkpt lat="45.86814" lon="4.70998">
        <ele>194.29269</ele>
        <time>2023-04-24T13:40:29.000Z</time>
      </trkpt>
      <trkpt lat="45.86813" lon="4.70994">
        <ele>194.33762</ele>
        <time>2023-04-24T13:40:30.000Z</time>
      </trkpt>
      <trkpt lat="45.86811" lon="4.7099">
        <ele>194.39371</ele>
        <time>2023-04-24T13:40:31.000Z</time>
      </trkpt>
      <trkpt lat="45.86809" lon="4.70986">
        <ele>194.44019</ele>
        <time>2023-04-24T13:40:32.000Z</time>
      </trkpt>
      <trkpt lat="45.86806" lon="4.70982">
        <ele>194.48428</ele>
        <time>2023-04-24T13:40:33.000Z</time>
      </trkpt>
      <trkpt lat="45.86804" lon="4.70978">
        <ele>194.49365</ele>
        <time>2023-04-24T13:40:34.000Z</time>
      </trkpt>
      <trkpt lat="45.86801" lon="4.70974">
        <ele>194.50224</ele>
        <time>2023-04-24T13:40:35.000Z</time>
      </trkpt>
      <trkpt lat="45.86798" lon="4.7097">
        <ele>194.50017</ele>
        <time>2023-04-24T13:40:36.000Z</time>
      </trkpt>
      <trkpt lat="45.86795" lon="4.70966">
        <ele>194.46768</ele>
        <time>2023-04-24T13:40:37.000Z</time>
      </trkpt>
      <trkpt lat="45.86793" lon="4.70963">
        <ele>194.40321</ele>
        <time>2023-04-24T13:40:38.000Z</time>
      </trkpt>
      <trkpt lat="45.8679" lon="4.70959">
        <ele>194.32401</ele>
        <time>2023-04-24T13:40:39.000Z</time>
      </trkpt>
      <trkpt lat="45.86787" lon="4.70955">
        <ele>194.24425</ele>
        <time>2023-04-24T13:40:40.000Z</time>
      </trkpt>
      <trkpt lat="45.86785" lon="4.70951">
        <ele>194.14731</ele>
        <time>2023-04-24T13:40:41.000Z</time>
      </trkpt>
      <trkpt lat="45.86782" lon="4.70947">
        <ele>194.0369</ele>
        <time>2023-04-24T13:40:42.000Z</time>
      </trkpt>
      <trkpt lat="45.86779" lon="4.70943">
        <ele>193.86319</ele>
        <time>2023-04-24T13:40:43.000Z</time>
      </trkpt>
      <trkpt lat="45.86776" lon="4.70938">
        <ele>193.69351</ele>
        <time>2023-04-24T13:40:44.000Z</time>
      </trkpt>
      <trkpt lat="45.86773" lon="4.70934">
        <ele>193.54184</ele>
        <time>2023-04-24T13:40:45.000Z</time>
      </trkpt>
      <trkpt lat="45.8677" lon="4.7093">
        <ele>193.37134</ele>
        <time>2023-04-24T13:40:46.000Z</time>
      </trkpt>
      <trkpt lat="45.86767" lon="4.70925">
        <ele>193.17126</ele>
        <time>2023-04-24T13:40:47.000Z</time>
      </trkpt>
      <trkpt lat="45.86764" lon="4.70921">
        <ele>192.93033</ele>
        <time>2023-04-24T13:40:48.000Z</time>
      </trkpt>
      <trkpt lat="45.86762" lon="4.70916">
        <ele>192.70253</ele>
        <time>2023-04-24T13:40:49.000Z</time>
      </trkpt>
      <trkpt lat="45.86759" lon="4.70911">
        <ele>192.48174</ele>
        <time>2023-04-24T13:40:50.000Z</time>
      </trkpt>
      <trkpt lat="45.86756" lon="4.70907">
        <ele>192.26683</ele>
        <time>2023-04-24T13:40:51.000Z</time>
      </trkpt>
      <trkpt lat="45.86753" lon="4.70903">
        <ele>192.07452</ele>
        <time>2023-04-24T13:40:52.000Z</time>
      </trkpt>
      <trkpt lat="45.86749" lon="4.70898">
        <ele>191.82571</ele>
        <time>2023-04-24T13:40:53.000Z</time>
      </trkpt>
      <trkpt lat="45.86745" lon="4.70894">
        <ele>191.61633</ele>
        <time>2023-04-24T13:40:54.000Z</time>
      </trkpt>
      <trkpt lat="45.86743" lon="4.70888">
        <ele>191.37106</ele>
        <time>2023-04-24T13:40:55.000Z</time>
      </trkpt>
      <trkpt lat="45.8674" lon="4.70886">
        <ele>191.09924</ele>
        <time>2023-04-24T13:40:56.000Z</time>
      </trkpt>
      <trkpt lat="45.86736" lon="4.70883">
        <ele>190.89644</ele>
        <time>2023-04-24T13:40:57.000Z</time>
      </trkpt>
      <trkpt lat="45.86732" lon="4.7088">
        <ele>190.70837</ele>
        <time>2023-04-24T13:40:58.000Z</time>
      </trkpt>
      <trkpt lat="45.86727" lon="4.70878">
        <ele>190.55933</ele>
        <time>2023-04-24T13:40:59.000Z</time>
      </trkpt>
      <trkpt lat="45.86722" lon="4.70875">
        <ele>191.09148</ele>
        <time>2023-04-24T13:41:00.000Z</time>
      </trkpt>
      <trkpt lat="45.86718" lon="4.70873">
        <ele>191.23479</ele>
        <time>2023-04-24T13:41:01.000Z</time>
      </trkpt>
      <trkpt lat="45.86713" lon="4.70872">
        <ele>191.44727</ele>
        <time>2023-04-24T13:41:02.000Z</time>
      </trkpt>
      <trkpt lat="45.86709" lon="4.70871">
        <ele>191.7433</ele>
        <time>2023-04-24T13:41:03.000Z</time>
      </trkpt>
      <trkpt lat="45.86704" lon="4.70871">
        <ele>192.24564</ele>
        <time>2023-04-24T13:41:04.000Z</time>
      </trkpt>
      <trkpt lat="45.867" lon="4.7087">
        <ele>192.83505</ele>
        <time>2023-04-24T13:41:05.000Z</time>
      </trkpt>
      <trkpt lat="45.86695" lon="4.70869">
        <ele>193.50728</ele>
        <time>2023-04-24T13:41:06.000Z</time>
      </trkpt>
      <trkpt lat="45.8669" lon="4.70868">
        <ele>193.78871</ele>
        <time>2023-04-24T13:41:07.000Z</time>
      </trkpt>
      <trkpt lat="45.86686" lon="4.70867">
        <ele>194.15744</ele>
        <time>2023-04-24T13:41:08.000Z</time>
      </trkpt>
      <trkpt lat="45.86682" lon="4.70867">
        <ele>194.73944</ele>
        <time>2023-04-24T13:41:09.000Z</time>
      </trkpt>
      <trkpt lat="45.86676" lon="4.70865">
        <ele>195.31482</ele>
        <time>2023-04-24T13:41:10.000Z</time>
      </trkpt>
      <trkpt lat="45.86671" lon="4.70865">
        <ele>195.91556</ele>
        <time>2023-04-24T13:41:11.000Z</time>
      </trkpt>
      <trkpt lat="45.86667" lon="4.70864">
        <ele>196.52328</ele>
        <time>2023-04-24T13:41:12.000Z</time>
      </trkpt>
      <trkpt lat="45.86662" lon="4.70864">
        <ele>196.82468</ele>
        <time>2023-04-24T13:41:13.000Z</time>
      </trkpt>
      <trkpt lat="45.86658" lon="4.70864">
        <ele>197.11951</ele>
        <time>2023-04-24T13:41:14.000Z</time>
      </trkpt>
      <trkpt lat="45.86653" lon="4.70864">
        <ele>197.47867</ele>
        <time>2023-04-24T13:41:15.000Z</time>
      </trkpt>
      <trkpt lat="45.86648" lon="4.70865">
        <ele>197.86217</ele>
        <time>2023-04-24T13:41:16.000Z</time>
      </trkpt>
      <trkpt lat="45.86644" lon="4.70865">
        <ele>198.23401</ele>
        <time>2023-04-24T13:41:17.000Z</time>
      </trkpt>
      <trkpt lat="45.86639" lon="4.70866">
        <ele>198.62625</ele>
        <time>2023-04-24T13:41:18.000Z</time>
      </trkpt>
      <trkpt lat="45.86635" lon="4.70866">
        <ele>199.03085</ele>
        <time>2023-04-24T13:41:19.000Z</time>
      </trkpt>
      <trkpt lat="45.86631" lon="4.70865">
        <ele>198.77686</ele>
        <time>2023-04-24T13:41:20.000Z</time>
      </trkpt>
      <trkpt lat="45.86627" lon="4.70864">
        <ele>199.13046</ele>
        <time>2023-04-24T13:41:21.000Z</time>
      </trkpt>
      <trkpt lat="45.86622" lon="4.70862">
        <ele>199.42398</ele>
        <time>2023-04-24T13:41:22.000Z</time>
      </trkpt>
      <trkpt lat="45.86618" lon="4.70862">
        <ele>199.7068</ele>
        <time>2023-04-24T13:41:23.000Z</time>
      </trkpt>
      <trkpt lat="45.86614" lon="4.70859">
        <ele>199.8571</ele>
        <time>2023-04-24T13:41:24.000Z</time>
      </trkpt>
      <trkpt lat="45.86608" lon="4.70859">
        <ele>199.95187</ele>
        <time>2023-04-24T13:41:25.000Z</time>
      </trkpt>
      <trkpt lat="45.86604" lon="4.70859">
        <ele>200.04666</ele>
        <time>2023-04-24T13:41:26.000Z</time>
      </trkpt>
      <trkpt lat="45.86599" lon="4.70858">
        <ele>200.17712</ele>
        <time>2023-04-24T13:41:27.000Z</time>
      </trkpt>
      <trkpt lat="45.86594" lon="4.70857">
        <ele>200.30902</ele>
        <time>2023-04-24T13:41:28.000Z</time>
      </trkpt>
      <trkpt lat="45.86589" lon="4.70858">
        <ele>200.24367</ele>
        <time>2023-04-24T13:41:29.000Z</time>
      </trkpt>
      <trkpt lat="45.86585" lon="4.70858">
        <ele>200.13974</ele>
        <time>2023-04-24T13:41:30.000Z</time>
      </trkpt>
      <trkpt lat="45.8658" lon="4.70859">
        <ele>200.23694</ele>
        <time>2023-04-24T13:41:31.000Z</time>
      </trkpt>
      <trkpt lat="45.86575" lon="4.70858">
        <ele>200.34235</ele>
        <time>2023-04-24T13:41:32.000Z</time>
      </trkpt>
      <trkpt lat="45.86571" lon="4.70859">
        <ele>200.52029</ele>
        <time>2023-04-24T13:41:33.000Z</time>
      </trkpt>
      <trkpt lat="45.86566" lon="4.70859">
        <ele>200.69107</ele>
        <time>2023-04-24T13:41:34.000Z</time>
      </trkpt>
      <trkpt lat="45.86561" lon="4.7086">
        <ele>200.85182</ele>
        <time>2023-04-24T13:41:35.000Z</time>
      </trkpt>
      <trkpt lat="45.86557" lon="4.70861">
        <ele>200.9946</ele>
        <time>2023-04-24T13:41:36.000Z</time>
      </trkpt>
      <trkpt lat="45.86552" lon="4.70862">
        <ele>201.0856</ele>
        <time>2023-04-24T13:41:37.000Z</time>
      </trkpt>
      <trkpt lat="45.86547" lon="4.70862">
        <ele>201.13792</ele>
        <time>2023-04-24T13:41:38.000Z</time>
      </trkpt>
      <trkpt lat="45.86542" lon="4.70862">
        <ele>201.12248</ele>
        <time>2023-04-24T13:41:39.000Z</time>
      </trkpt>
      <trkpt lat="45.86538" lon="4.70862">
        <ele>201.09517</ele>
        <time>2023-04-24T13:41:40.000Z</time>
      </trkpt>
      <trkpt lat="45.86534" lon="4.70863">
        <ele>200.86624</ele>
        <time>2023-04-24T13:41:41.000Z</time>
      </trkpt>
      <trkpt lat="45.86531" lon="4.70863">
        <ele>200.77676</ele>
        <time>2023-04-24T13:41:42.000Z</time>
      </trkpt>
      <trkpt lat="45.86526" lon="4.70863">
        <ele>200.73819</ele>
        <time>2023-04-24T13:41:43.000Z</time>
      </trkpt>
      <trkpt lat="45.86522" lon="4.70864">
        <ele>200.72769</ele>
        <time>2023-04-24T13:41:44.000Z</time>
      </trkpt>
      <trkpt lat="45.86519" lon="4.70866">
        <ele>200.34509</ele>
        <time>2023-04-24T13:41:45.000Z</time>
      </trkpt>
      <trkpt lat="45.86515" lon="4.70865">
        <ele>199.93701</ele>
        <time>2023-04-24T13:41:46.000Z</time>
      </trkpt>
      <trkpt lat="45.86512" lon="4.70863">
        <ele>199.92659</ele>
        <time>2023-04-24T13:41:47.000Z</time>
      </trkpt>
      <trkpt lat="45.8651" lon="4.70859">
        <ele>199.84898</ele>
        <time>2023-04-24T13:41:48.000Z</time>
      </trkpt>
      <trkpt lat="45.86508" lon="4.70854">
        <ele>199.72807</ele>
        <time>2023-04-24T13:41:49.000Z</time>
      </trkpt>
      <trkpt lat="45.86506" lon="4.70849">
        <ele>199.69174</ele>
        <time>2023-04-24T13:41:50.000Z</time>
      </trkpt>
      <trkpt lat="45.86504" lon="4.70844">
        <ele>199.4017</ele>
        <time>2023-04-24T13:41:51.000Z</time>
      </trkpt>
      <trkpt lat="45.86501" lon="4.7084">
        <ele>199.06149</ele>
        <time>2023-04-24T13:41:52.000Z</time>
      </trkpt>
      <trkpt lat="45.86498" lon="4.70837">
        <ele>199.03815</ele>
        <time>2023-04-24T13:41:53.000Z</time>
      </trkpt>
      <trkpt lat="45.86492" lon="4.70836">
        <ele>198.99452</ele>
        <time>2023-04-24T13:41:54.000Z</time>
      </trkpt>
      <trkpt lat="45.86487" lon="4.70833">
        <ele>198.92288</ele>
        <time>2023-04-24T13:41:55.000Z</time>
      </trkpt>
      <trkpt lat="45.86484" lon="4.70832">
        <ele>198.86134</ele>
        <time>2023-04-24T13:41:56.000Z</time>
      </trkpt>
      <trkpt lat="45.86479" lon="4.7083">
        <ele>198.95268</ele>
        <time>2023-04-24T13:41:57.000Z</time>
      </trkpt>
      <trkpt lat="45.86477" lon="4.70827">
        <ele>199.16391</ele>
        <time>2023-04-24T13:41:58.000Z</time>
      </trkpt>
      <trkpt lat="45.86473" lon="4.70826">
        <ele>199.38397</ele>
        <time>2023-04-24T13:41:59.000Z</time>
      </trkpt>
      <trkpt lat="45.86468" lon="4.70825">
        <ele>199.67632</ele>
        <time>2023-04-24T13:42:00.000Z</time>
      </trkpt>
      <trkpt lat="45.86465" lon="4.70823">
        <ele>200.07944</ele>
        <time>2023-04-24T13:42:01.000Z</time>
      </trkpt>
      <trkpt lat="45.86462" lon="4.70821">
        <ele>200.00293</ele>
        <time>2023-04-24T13:42:02.000Z</time>
      </trkpt>
      <trkpt lat="45.86458" lon="4.70819">
        <ele>199.88968</ele>
        <time>2023-04-24T13:42:03.000Z</time>
      </trkpt>
      <trkpt lat="45.86456" lon="4.70815">
        <ele>199.69067</ele>
        <time>2023-04-24T13:42:04.000Z</time>
      </trkpt>
      <trkpt lat="45.86452" lon="4.70812">
        <ele>199.82629</ele>
        <time>2023-04-24T13:42:05.000Z</time>
      </trkpt>
      <trkpt lat="45.86449" lon="4.7081">
        <ele>199.89499</ele>
        <time>2023-04-24T13:42:06.000Z</time>
      </trkpt>
      <trkpt lat="45.86446" lon="4.70808">
        <ele>199.96936</ele>
        <time>2023-04-24T13:42:07.000Z</time>
      </trkpt>
      <trkpt lat="45.86442" lon="4.70806">
        <ele>200.02272</ele>
        <time>2023-04-24T13:42:08.000Z</time>
      </trkpt>
      <trkpt lat="45.86438" lon="4.70804">
        <ele>200.13208</ele>
        <time>2023-04-24T13:42:09.000Z</time>
      </trkpt>
      <trkpt lat="45.86435" lon="4.70802">
        <ele>200.23094</ele>
        <time>2023-04-24T13:42:10.000Z</time>
      </trkpt>
      <trkpt lat="45.86431" lon="4.70799">
        <ele>200.35957</ele>
        <time>2023-04-24T13:42:11.000Z</time>
      </trkpt>
      <trkpt lat="45.86428" lon="4.70797">
        <ele>200.59918</ele>
        <time>2023-04-24T13:42:12.000Z</time>
      </trkpt>
      <trkpt lat="45.86425" lon="4.70795">
        <ele>200.75844</ele>
        <time>2023-04-24T13:42:13.000Z</time>
      </trkpt>
      <trkpt lat="45.86421" lon="4.70793">
        <ele>200.93153</ele>
        <time>2023-04-24T13:42:14.000Z</time>
      </trkpt>
      <trkpt lat="45.86417" lon="4.70791">
        <ele>200.70897</ele>
        <time>2023-04-24T13:42:15.000Z</time>
      </trkpt>
      <trkpt lat="45.86414" lon="4.70788">
        <ele>200.50526</ele>
        <time>2023-04-24T13:42:16.000Z</time>
      </trkpt>
      <trkpt lat="45.86412" lon="4.70786">
        <ele>200.21748</ele>
        <time>2023-04-24T13:42:17.000Z</time>
      </trkpt>
      <trkpt lat="45.86409" lon="4.70783">
        <ele>199.74738</ele>
        <time>2023-04-24T13:42:18.000Z</time>
      </trkpt>
      <trkpt lat="45.86405" lon="4.70781">
        <ele>199.32042</ele>
        <time>2023-04-24T13:42:19.000Z</time>
      </trkpt>
      <trkpt lat="45.86402" lon="4.70778">
        <ele>198.82574</ele>
        <time>2023-04-24T13:42:20.000Z</time>
      </trkpt>
      <trkpt lat="45.86399" lon="4.70775">
        <ele>198.21371</ele>
        <time>2023-04-24T13:42:21.000Z</time>
      </trkpt>
      <trkpt lat="45.86396" lon="4.70771">
        <ele>197.93521</ele>
        <time>2023-04-24T13:42:22.000Z</time>
      </trkpt>
      <trkpt lat="45.86393" lon="4.70767">
        <ele>197.66849</ele>
        <time>2023-04-24T13:42:23.000Z</time>
      </trkpt>
      <trkpt lat="45.8639" lon="4.70764">
        <ele>197.40268</ele>
        <time>2023-04-24T13:42:24.000Z</time>
      </trkpt>
      <trkpt lat="45.86387" lon="4.7076">
        <ele>197.17197</ele>
        <time>2023-04-24T13:42:25.000Z</time>
      </trkpt>
      <trkpt lat="45.86384" lon="4.70757">
        <ele>196.94925</ele>
        <time>2023-04-24T13:42:26.000Z</time>
      </trkpt>
      <trkpt lat="45.86381" lon="4.70754">
        <ele>196.72324</ele>
        <time>2023-04-24T13:42:27.000Z</time>
      </trkpt>
      <trkpt lat="45.86378" lon="4.7075">
        <ele>196.50211</ele>
        <time>2023-04-24T13:42:28.000Z</time>
      </trkpt>
      <trkpt lat="45.86375" lon="4.70746">
        <ele>196.22382</ele>
        <time>2023-04-24T13:42:29.000Z</time>
      </trkpt>
      <trkpt lat="45.86372" lon="4.70743">
        <ele>195.8886</ele>
        <time>2023-04-24T13:42:30.000Z</time>
      </trkpt>
      <trkpt lat="45.86368" lon="4.70739">
        <ele>195.52963</ele>
        <time>2023-04-24T13:42:31.000Z</time>
      </trkpt>
      <trkpt lat="45.86365" lon="4.70735">
        <ele>195.10661</ele>
        <time>2023-04-24T13:42:32.000Z</time>
      </trkpt>
      <trkpt lat="45.86362" lon="4.70732">
        <ele>194.78323</ele>
        <time>2023-04-24T13:42:33.000Z</time>
      </trkpt>
      <trkpt lat="45.86359" lon="4.70729">
        <ele>194.48349</ele>
        <time>2023-04-24T13:42:34.000Z</time>
      </trkpt>
      <trkpt lat="45.86356" lon="4.70725">
        <ele>194.62296</ele>
        <time>2023-04-24T13:42:35.000Z</time>
      </trkpt>
      <trkpt lat="45.86353" lon="4.70722">
        <ele>194.75374</ele>
        <time>2023-04-24T13:42:36.000Z</time>
      </trkpt>
      <trkpt lat="45.86349" lon="4.70718">
        <ele>194.80661</ele>
        <time>2023-04-24T13:42:37.000Z</time>
      </trkpt>
      <trkpt lat="45.86346" lon="4.70714">
        <ele>194.946</ele>
        <time>2023-04-24T13:42:38.000Z</time>
      </trkpt>
      <trkpt lat="45.86343" lon="4.7071">
        <ele>195.0639</ele>
        <time>2023-04-24T13:42:39.000Z</time>
      </trkpt>
      <trkpt lat="45.86339" lon="4.70707">
        <ele>195.18449</ele>
        <time>2023-04-24T13:42:40.000Z</time>
      </trkpt>
      <trkpt lat="45.86336" lon="4.70703">
        <ele>195.29526</ele>
        <time>2023-04-24T13:42:41.000Z</time>
      </trkpt>
      <trkpt lat="45.86333" lon="4.707">
        <ele>195.42206</ele>
        <time>2023-04-24T13:42:42.000Z</time>
      </trkpt>
      <trkpt lat="45.8633" lon="4.70695">
        <ele>195.50363</ele>
        <time>2023-04-24T13:42:43.000Z</time>
      </trkpt>
      <trkpt lat="45.86327" lon="4.70691">
        <ele>195.58669</ele>
        <time>2023-04-24T13:42:44.000Z</time>
      </trkpt>
      <trkpt lat="45.86325" lon="4.70687">
        <ele>195.64706</ele>
        <time>2023-04-24T13:42:45.000Z</time>
      </trkpt>
      <trkpt lat="45.86322" lon="4.70683">
        <ele>195.67854</ele>
        <time>2023-04-24T13:42:46.000Z</time>
      </trkpt>
      <trkpt lat="45.86319" lon="4.70679">
        <ele>195.67563</ele>
        <time>2023-04-24T13:42:47.000Z</time>
      </trkpt>
      <trkpt lat="45.86315" lon="4.70675">
        <ele>195.69757</ele>
        <time>2023-04-24T13:42:48.000Z</time>
      </trkpt>
      <trkpt lat="45.86312" lon="4.70671">
        <ele>195.72165</ele>
        <time>2023-04-24T13:42:49.000Z</time>
      </trkpt>
      <trkpt lat="45.86309" lon="4.70668">
        <ele>195.80299</ele>
        <time>2023-04-24T13:42:50.000Z</time>
      </trkpt>
      <trkpt lat="45.86306" lon="4.70664">
        <ele>195.89297</ele>
        <time>2023-04-24T13:42:51.000Z</time>
      </trkpt>
      <trkpt lat="45.86303" lon="4.70661">
        <ele>195.96793</ele>
        <time>2023-04-24T13:42:52.000Z</time>
      </trkpt>
      <trkpt lat="45.86299" lon="4.70657">
        <ele>195.97202</ele>
        <time>2023-04-24T13:42:53.000Z</time>
      </trkpt>
      <trkpt lat="45.86296" lon="4.70654">
        <ele>195.9393</ele>
        <time>2023-04-24T13:42:54.000Z</time>
      </trkpt>
      <trkpt lat="45.86293" lon="4.7065">
        <ele>195.85684</ele>
        <time>2023-04-24T13:42:55.000Z</time>
      </trkpt>
      <trkpt lat="45.86289" lon="4.70645">
        <ele>195.78772</ele>
        <time>2023-04-24T13:42:56.000Z</time>
      </trkpt>
      <trkpt lat="45.86286" lon="4.70641">
        <ele>195.73648</ele>
        <time>2023-04-24T13:42:57.000Z</time>
      </trkpt>
      <trkpt lat="45.86283" lon="4.70636">
        <ele>195.64893</ele>
        <time>2023-04-24T13:42:58.000Z</time>
      </trkpt>
      <trkpt lat="45.86281" lon="4.70632">
        <ele>195.58203</ele>
        <time>2023-04-24T13:42:59.000Z</time>
      </trkpt>
      <trkpt lat="45.86278" lon="4.70628">
        <ele>195.51149</ele>
        <time>2023-04-24T13:43:00.000Z</time>
      </trkpt>
      <trkpt lat="45.86275" lon="4.70624">
        <ele>195.45868</ele>
        <time>2023-04-24T13:43:01.000Z</time>
      </trkpt>
      <trkpt lat="45.86273" lon="4.70619">
        <ele>195.35471</ele>
        <time>2023-04-24T13:43:02.000Z</time>
      </trkpt>
      <trkpt lat="45.86271" lon="4.70614">
        <ele>195.27721</ele>
        <time>2023-04-24T13:43:03.000Z</time>
      </trkpt>
      <trkpt lat="45.86268" lon="4.70609">
        <ele>195.17343</ele>
        <time>2023-04-24T13:43:04.000Z</time>
      </trkpt>
      <trkpt lat="45.86266" lon="4.70605">
        <ele>195.02951</ele>
        <time>2023-04-24T13:43:05.000Z</time>
      </trkpt>
      <trkpt lat="45.86264" lon="4.706">
        <ele>194.92252</ele>
        <time>2023-04-24T13:43:06.000Z</time>
      </trkpt>
      <trkpt lat="45.86262" lon="4.70596">
        <ele>194.82712</ele>
        <time>2023-04-24T13:43:07.000Z</time>
      </trkpt>
      <trkpt lat="45.86259" lon="4.70592">
        <ele>194.75833</ele>
        <time>2023-04-24T13:43:08.000Z</time>
      </trkpt>
      <trkpt lat="45.86257" lon="4.70588">
        <ele>194.64212</ele>
        <time>2023-04-24T13:43:09.000Z</time>
      </trkpt>
      <trkpt lat="45.86254" lon="4.70584">
        <ele>194.52965</ele>
        <time>2023-04-24T13:43:10.000Z</time>
      </trkpt>
      <trkpt lat="45.86252" lon="4.7058">
        <ele>194.40359</ele>
        <time>2023-04-24T13:43:11.000Z</time>
      </trkpt>
      <trkpt lat="45.86249" lon="4.70576">
        <ele>194.28304</ele>
        <time>2023-04-24T13:43:12.000Z</time>
      </trkpt>
      <trkpt lat="45.86247" lon="4.70572">
        <ele>194.14297</ele>
        <time>2023-04-24T13:43:13.000Z</time>
      </trkpt>
      <trkpt lat="45.86245" lon="4.70568">
        <ele>193.99449</ele>
        <time>2023-04-24T13:43:14.000Z</time>
      </trkpt>
      <trkpt lat="45.86244" lon="4.70564">
        <ele>193.85521</ele>
        <time>2023-04-24T13:43:15.000Z</time>
      </trkpt>
      <trkpt lat="45.86241" lon="4.70559">
        <ele>193.71872</ele>
        <time>2023-04-24T13:43:16.000Z</time>
      </trkpt>
      <trkpt lat="45.86239" lon="4.70555">
        <ele>193.61324</ele>
        <time>2023-04-24T13:43:17.000Z</time>
      </trkpt>
      <trkpt lat="45.86237" lon="4.70552">
        <ele>193.569</ele>
        <time>2023-04-24T13:43:18.000Z</time>
      </trkpt>
      <trkpt lat="45.86236" lon="4.70548">
        <ele>193.55704</ele>
        <time>2023-04-24T13:43:19.000Z</time>
      </trkpt>
      <trkpt lat="45.86234" lon="4.70545">
        <ele>193.52682</ele>
        <time>2023-04-24T13:43:20.000Z</time>
      </trkpt>
      <trkpt lat="45.86233" lon="4.70542">
        <ele>193.49393</ele>
        <time>2023-04-24T13:43:21.000Z</time>
      </trkpt>
      <trkpt lat="45.86231" lon="4.70538">
        <ele>193.50337</ele>
        <time>2023-04-24T13:43:22.000Z</time>
      </trkpt>
      <trkpt lat="45.8623" lon="4.70534">
        <ele>193.54164</ele>
        <time>2023-04-24T13:43:23.000Z</time>
      </trkpt>
      <trkpt lat="45.86228" lon="4.70531">
        <ele>193.6317</ele>
        <time>2023-04-24T13:43:24.000Z</time>
      </trkpt>
      <trkpt lat="45.86227" lon="4.70528">
        <ele>193.71289</ele>
        <time>2023-04-24T13:43:25.000Z</time>
      </trkpt>
      <trkpt lat="45.86226" lon="4.70525">
        <ele>193.80899</ele>
        <time>2023-04-24T13:43:26.000Z</time>
      </trkpt>
      <trkpt lat="45.86225" lon="4.70522">
        <ele>193.90231</ele>
        <time>2023-04-24T13:43:27.000Z</time>
      </trkpt>
      <trkpt lat="45.86224" lon="4.70519">
        <ele>193.96902</ele>
        <time>2023-04-24T13:43:28.000Z</time>
      </trkpt>
      <trkpt lat="45.86223" lon="4.70516">
        <ele>194.06938</ele>
        <time>2023-04-24T13:43:29.000Z</time>
      </trkpt>
      <trkpt lat="45.86222" lon="4.70514">
        <ele>194.12326</ele>
        <time>2023-04-24T13:43:30.000Z</time>
      </trkpt>
      <trkpt lat="45.8622" lon="4.7051">
        <ele>194.18393</ele>
        <time>2023-04-24T13:43:31.000Z</time>
      </trkpt>
      <trkpt lat="45.86219" lon="4.70506">
        <ele>194.26418</ele>
        <time>2023-04-24T13:43:32.000Z</time>
      </trkpt>
      <trkpt lat="45.86218" lon="4.70502">
        <ele>194.39285</ele>
        <time>2023-04-24T13:43:33.000Z</time>
      </trkpt>
      <trkpt lat="45.86217" lon="4.70497">
        <ele>194.51639</ele>
        <time>2023-04-24T13:43:34.000Z</time>
      </trkpt>
      <trkpt lat="45.86215" lon="4.70493">
        <ele>194.67944</ele>
        <time>2023-04-24T13:43:35.000Z</time>
      </trkpt>
      <trkpt lat="45.86214" lon="4.70489">
        <ele>194.81718</ele>
        <time>2023-04-24T13:43:36.000Z</time>
      </trkpt>
      <trkpt lat="45.86212" lon="4.70485">
        <ele>194.92174</ele>
        <time>2023-04-24T13:43:37.000Z</time>
      </trkpt>
      <trkpt lat="45.8621" lon="4.7048">
        <ele>194.99181</ele>
        <time>2023-04-24T13:43:38.000Z</time>
      </trkpt>
      <trkpt lat="45.86208" lon="4.70475">
        <ele>195.0298</ele>
        <time>2023-04-24T13:43:39.000Z</time>
      </trkpt>
      <trkpt lat="45.86206" lon="4.70469">
        <ele>195.00027</ele>
        <time>2023-04-24T13:43:40.000Z</time>
      </trkpt>
      <trkpt lat="45.86205" lon="4.70463">
        <ele>195.00182</ele>
        <time>2023-04-24T13:43:41.000Z</time>
      </trkpt>
      <trkpt lat="45.86204" lon="4.70458">
        <ele>195.0079</ele>
        <time>2023-04-24T13:43:42.000Z</time>
      </trkpt>
      <trkpt lat="45.86204" lon="4.70452">
        <ele>194.91615</ele>
        <time>2023-04-24T13:43:43.000Z</time>
      </trkpt>
      <trkpt lat="45.86203" lon="4.70447">
        <ele>194.76138</ele>
        <time>2023-04-24T13:43:44.000Z</time>
      </trkpt>
      <trkpt lat="45.86203" lon="4.70442">
        <ele>194.65187</ele>
        <time>2023-04-24T13:43:45.000Z</time>
      </trkpt>
      <trkpt lat="45.86203" lon="4.70436">
        <ele>194.51382</ele>
        <time>2023-04-24T13:43:46.000Z</time>
      </trkpt>
      <trkpt lat="45.86203" lon="4.70431">
        <ele>194.37314</ele>
        <time>2023-04-24T13:43:47.000Z</time>
      </trkpt>
      <trkpt lat="45.86203" lon="4.70426">
        <ele>194.24712</ele>
        <time>2023-04-24T13:43:48.000Z</time>
      </trkpt>
      <trkpt lat="45.86202" lon="4.7042">
        <ele>194.13144</ele>
        <time>2023-04-24T13:43:49.000Z</time>
      </trkpt>
      <trkpt lat="45.86202" lon="4.70415">
        <ele>194.03773</ele>
        <time>2023-04-24T13:43:50.000Z</time>
      </trkpt>
      <trkpt lat="45.86202" lon="4.70409">
        <ele>193.90698</ele>
        <time>2023-04-24T13:43:51.000Z</time>
      </trkpt>
      <trkpt lat="45.86202" lon="4.70404">
        <ele>193.76233</ele>
        <time>2023-04-24T13:43:52.000Z</time>
      </trkpt>
      <trkpt lat="45.86202" lon="4.70399">
        <ele>193.58798</ele>
        <time>2023-04-24T13:43:53.000Z</time>
      </trkpt>
      <trkpt lat="45.86202" lon="4.70394">
        <ele>193.41751</ele>
        <time>2023-04-24T13:43:54.000Z</time>
      </trkpt>
      <trkpt lat="45.86201" lon="4.70389">
        <ele>193.23387</ele>
        <time>2023-04-24T13:43:55.000Z</time>
      </trkpt>
      <trkpt lat="45.86201" lon="4.70384">
        <ele>193.08078</ele>
        <time>2023-04-24T13:43:56.000Z</time>
      </trkpt>
      <trkpt lat="45.86202" lon="4.70379">
        <ele>192.91682</ele>
        <time>2023-04-24T13:43:57.000Z</time>
      </trkpt>
      <trkpt lat="45.86203" lon="4.70374">
        <ele>192.75778</ele>
        <time>2023-04-24T13:43:58.000Z</time>
      </trkpt>
      <trkpt lat="45.86205" lon="4.70368">
        <ele>192.56201</ele>
        <time>2023-04-24T13:43:59.000Z</time>
      </trkpt>
      <trkpt lat="45.86207" lon="4.70363">
        <ele>192.47807</ele>
        <time>2023-04-24T13:44:00.000Z</time>
      </trkpt>
      <trkpt lat="45.86208" lon="4.70357">
        <ele>192.35182</ele>
        <time>2023-04-24T13:44:01.000Z</time>
      </trkpt>
      <trkpt lat="45.86209" lon="4.70351">
        <ele>192.19516</ele>
        <time>2023-04-24T13:44:02.000Z</time>
      </trkpt>
      <trkpt lat="45.8621" lon="4.70346">
        <ele>192.09879</ele>
        <time>2023-04-24T13:44:03.000Z</time>
      </trkpt>
      <trkpt lat="45.86211" lon="4.7034">
        <ele>192.03172</ele>
        <time>2023-04-24T13:44:04.000Z</time>
      </trkpt>
      <trkpt lat="45.86212" lon="4.70335">
        <ele>191.96632</ele>
        <time>2023-04-24T13:44:05.000Z</time>
      </trkpt>
      <trkpt lat="45.86213" lon="4.70329">
        <ele>191.92467</ele>
        <time>2023-04-24T13:44:06.000Z</time>
      </trkpt>
      <trkpt lat="45.86214" lon="4.70323">
        <ele>191.86862</ele>
        <time>2023-04-24T13:44:07.000Z</time>
      </trkpt>
      <trkpt lat="45.86215" lon="4.70318">
        <ele>191.85989</ele>
        <time>2023-04-24T13:44:08.000Z</time>
      </trkpt>
      <trkpt lat="45.86217" lon="4.70313">
        <ele>191.83328</ele>
        <time>2023-04-24T13:44:09.000Z</time>
      </trkpt>
      <trkpt lat="45.86219" lon="4.70308">
        <ele>191.80606</ele>
        <time>2023-04-24T13:44:10.000Z</time>
      </trkpt>
      <trkpt lat="45.86221" lon="4.70303">
        <ele>191.74309</ele>
        <time>2023-04-24T13:44:11.000Z</time>
      </trkpt>
      <trkpt lat="45.86223" lon="4.70298">
        <ele>191.66914</ele>
        <time>2023-04-24T13:44:12.000Z</time>
      </trkpt>
      <trkpt lat="45.86226" lon="4.70293">
        <ele>191.64127</ele>
        <time>2023-04-24T13:44:13.000Z</time>
      </trkpt>
      <trkpt lat="45.86227" lon="4.70287">
        <ele>191.68668</ele>
        <time>2023-04-24T13:44:14.000Z</time>
      </trkpt>
      <trkpt lat="45.86229" lon="4.70282">
        <ele>191.7749</ele>
        <time>2023-04-24T13:44:15.000Z</time>
      </trkpt>
      <trkpt lat="45.86231" lon="4.70277">
        <ele>191.8398</ele>
        <time>2023-04-24T13:44:16.000Z</time>
      </trkpt>
      <trkpt lat="45.86232" lon="4.70271">
        <ele>191.87364</ele>
        <time>2023-04-24T13:44:17.000Z</time>
      </trkpt>
      <trkpt lat="45.86233" lon="4.70265">
        <ele>191.94162</ele>
        <time>2023-04-24T13:44:18.000Z</time>
      </trkpt>
      <trkpt lat="45.86235" lon="4.70259">
        <ele>192.01767</ele>
        <time>2023-04-24T13:44:19.000Z</time>
      </trkpt>
      <trkpt lat="45.86237" lon="4.70253">
        <ele>192.02072</ele>
        <time>2023-04-24T13:44:20.000Z</time>
      </trkpt>
      <trkpt lat="45.86239" lon="4.70247">
        <ele>192.01195</ele>
        <time>2023-04-24T13:44:21.000Z</time>
      </trkpt>
      <trkpt lat="45.86241" lon="4.7024">
        <ele>191.98529</ele>
        <time>2023-04-24T13:44:22.000Z</time>
      </trkpt>
      <trkpt lat="45.86243" lon="4.70234">
        <ele>191.92003</ele>
        <time>2023-04-24T13:44:23.000Z</time>
      </trkpt>
      <trkpt lat="45.86246" lon="4.70228">
        <ele>191.86453</ele>
        <time>2023-04-24T13:44:24.000Z</time>
      </trkpt>
      <trkpt lat="45.86248" lon="4.70222">
        <ele>191.80907</ele>
        <time>2023-04-24T13:44:25.000Z</time>
      </trkpt>
      <trkpt lat="45.86251" lon="4.70216">
        <ele>191.7059</ele>
        <time>2023-04-24T13:44:26.000Z</time>
      </trkpt>
      <trkpt lat="45.86254" lon="4.70211">
        <ele>191.65163</ele>
        <time>2023-04-24T13:44:27.000Z</time>
      </trkpt>
      <trkpt lat="45.86257" lon="4.70206">
        <ele>191.62637</ele>
        <time>2023-04-24T13:44:28.000Z</time>
      </trkpt>
      <trkpt lat="45.86261" lon="4.70201">
        <ele>191.62444</ele>
        <time>2023-04-24T13:44:29.000Z</time>
      </trkpt>
      <trkpt lat="45.86264" lon="4.70196">
        <ele>191.50021</ele>
        <time>2023-04-24T13:44:30.000Z</time>
      </trkpt>
      <trkpt lat="45.86268" lon="4.70192">
        <ele>191.46024</ele>
        <time>2023-04-24T13:44:31.000Z</time>
      </trkpt>
      <trkpt lat="45.86272" lon="4.70187">
        <ele>191.41939</ele>
        <time>2023-04-24T13:44:32.000Z</time>
      </trkpt>
      <trkpt lat="45.86276" lon="4.70183">
        <ele>191.37485</ele>
        <time>2023-04-24T13:44:33.000Z</time>
      </trkpt>
      <trkpt lat="45.86279" lon="4.70178">
        <ele>191.29507</ele>
        <time>2023-04-24T13:44:34.000Z</time>
      </trkpt>
      <trkpt lat="45.86283" lon="4.70174">
        <ele>191.16869</ele>
        <time>2023-04-24T13:44:35.000Z</time>
      </trkpt>
      <trkpt lat="45.86287" lon="4.70171">
        <ele>191.06918</ele>
        <time>2023-04-24T13:44:36.000Z</time>
      </trkpt>
      <trkpt lat="45.86291" lon="4.70166">
        <ele>191.0311</ele>
        <time>2023-04-24T13:44:37.000Z</time>
      </trkpt>
      <trkpt lat="45.86295" lon="4.70162">
        <ele>190.96085</ele>
        <time>2023-04-24T13:44:38.000Z</time>
      </trkpt>
      <trkpt lat="45.86299" lon="4.70159">
        <ele>190.93135</ele>
        <time>2023-04-24T13:44:39.000Z</time>
      </trkpt>
      <trkpt lat="45.86302" lon="4.70156">
        <ele>190.96855</ele>
        <time>2023-04-24T13:44:40.000Z</time>
      </trkpt>
      <trkpt lat="45.86307" lon="4.70151">
        <ele>190.78867</ele>
        <time>2023-04-24T13:44:41.000Z</time>
      </trkpt>
      <trkpt lat="45.86309" lon="4.70145">
        <ele>190.52901</ele>
        <time>2023-04-24T13:44:42.000Z</time>
      </trkpt>
      <trkpt lat="45.86312" lon="4.70141">
        <ele>190.5923</ele>
        <time>2023-04-24T13:44:43.000Z</time>
      </trkpt>
      <trkpt lat="45.86314" lon="4.70138">
        <ele>190.55392</ele>
        <time>2023-04-24T13:44:44.000Z</time>
      </trkpt>
      <trkpt lat="45.86316" lon="4.70131">
        <ele>190.51572</ele>
        <time>2023-04-24T13:44:45.000Z</time>
      </trkpt>
      <trkpt lat="45.86319" lon="4.70125">
        <ele>190.55226</ele>
        <time>2023-04-24T13:44:46.000Z</time>
      </trkpt>
      <trkpt lat="45.86322" lon="4.70119">
        <ele>190.59888</ele>
        <time>2023-04-24T13:44:47.000Z</time>
      </trkpt>
      <trkpt lat="45.86326" lon="4.70115">
        <ele>190.55844</ele>
        <time>2023-04-24T13:44:48.000Z</time>
      </trkpt>
      <trkpt lat="45.86329" lon="4.70111">
        <ele>190.54744</ele>
        <time>2023-04-24T13:44:49.000Z</time>
      </trkpt>
      <trkpt lat="45.86332" lon="4.70105">
        <ele>190.6586</ele>
        <time>2023-04-24T13:44:50.000Z</time>
      </trkpt>
      <trkpt lat="45.86335" lon="4.701">
        <ele>190.76297</ele>
        <time>2023-04-24T13:44:51.000Z</time>
      </trkpt>
      <trkpt lat="45.86337" lon="4.70094">
        <ele>190.85243</ele>
        <time>2023-04-24T13:44:52.000Z</time>
      </trkpt>
      <trkpt lat="45.86339" lon="4.70088">
        <ele>190.85733</ele>
        <time>2023-04-24T13:44:53.000Z</time>
      </trkpt>
      <trkpt lat="45.86342" lon="4.70082">
        <ele>190.868</ele>
        <time>2023-04-24T13:44:54.000Z</time>
      </trkpt>
      <trkpt lat="45.86344" lon="4.70078">
        <ele>190.87296</ele>
        <time>2023-04-24T13:44:55.000Z</time>
      </trkpt>
      <trkpt lat="45.86343" lon="4.70071">
        <ele>190.80931</ele>
        <time>2023-04-24T13:44:56.000Z</time>
      </trkpt>
      <trkpt lat="45.86345" lon="4.70065">
        <ele>190.74594</ele>
        <time>2023-04-24T13:44:57.000Z</time>
      </trkpt>
      <trkpt lat="45.86348" lon="4.70058">
        <ele>190.69397</ele>
        <time>2023-04-24T13:44:58.000Z</time>
      </trkpt>
      <trkpt lat="45.86349" lon="4.70052">
        <ele>190.65656</ele>
        <time>2023-04-24T13:44:59.000Z</time>
      </trkpt>
      <trkpt lat="45.86351" lon="4.70044">
        <ele>190.6521</ele>
        <time>2023-04-24T13:45:00.000Z</time>
      </trkpt>
      <trkpt lat="45.86352" lon="4.70039">
        <ele>190.91782</ele>
        <time>2023-04-24T13:45:01.000Z</time>
      </trkpt>
      <trkpt lat="45.86355" lon="4.70033">
        <ele>191.30496</ele>
        <time>2023-04-24T13:45:02.000Z</time>
      </trkpt>
      <trkpt lat="45.86355" lon="4.70027">
        <ele>191.43433</ele>
        <time>2023-04-24T13:45:03.000Z</time>
      </trkpt>
      <trkpt lat="45.86356" lon="4.70022">
        <ele>191.66235</ele>
        <time>2023-04-24T13:45:04.000Z</time>
      </trkpt>
      <trkpt lat="45.86358" lon="4.70018">
        <ele>191.75436</ele>
        <time>2023-04-24T13:45:05.000Z</time>
      </trkpt>
      <trkpt lat="45.86358" lon="4.70012">
        <ele>191.77316</ele>
        <time>2023-04-24T13:45:06.000Z</time>
      </trkpt>
      <trkpt lat="45.86359" lon="4.70006">
        <ele>191.74789</ele>
        <time>2023-04-24T13:45:07.000Z</time>
      </trkpt>
      <trkpt lat="45.86358" lon="4.70001">
        <ele>191.6853</ele>
        <time>2023-04-24T13:45:08.000Z</time>
      </trkpt>
      <trkpt lat="45.86358" lon="4.69993">
        <ele>191.5845</ele>
        <time>2023-04-24T13:45:09.000Z</time>
      </trkpt>
      <trkpt lat="45.8636" lon="4.69986">
        <ele>191.49692</ele>
        <time>2023-04-24T13:45:10.000Z</time>
      </trkpt>
      <trkpt lat="45.86362" lon="4.69981">
        <ele>191.39798</ele>
        <time>2023-04-24T13:45:11.000Z</time>
      </trkpt>
      <trkpt lat="45.86362" lon="4.69974">
        <ele>191.38376</ele>
        <time>2023-04-24T13:45:12.000Z</time>
      </trkpt>
      <trkpt lat="45.86361" lon="4.69967">
        <ele>191.44699</ele>
        <time>2023-04-24T13:45:13.000Z</time>
      </trkpt>
      <trkpt lat="45.86361" lon="4.6996">
        <ele>191.5085</ele>
        <time>2023-04-24T13:45:14.000Z</time>
      </trkpt>
      <trkpt lat="45.8636" lon="4.69952">
        <ele>191.55977</ele>
        <time>2023-04-24T13:45:15.000Z</time>
      </trkpt>
      <trkpt lat="45.86358" lon="4.69946">
        <ele>191.69884</ele>
        <time>2023-04-24T13:45:16.000Z</time>
      </trkpt>
      <trkpt lat="45.86357" lon="4.6994">
        <ele>191.70818</ele>
        <time>2023-04-24T13:45:17.000Z</time>
      </trkpt>
      <trkpt lat="45.86357" lon="4.69933">
        <ele>191.73752</ele>
        <time>2023-04-24T13:45:18.000Z</time>
      </trkpt>
      <trkpt lat="45.86356" lon="4.69926">
        <ele>191.75169</ele>
        <time>2023-04-24T13:45:19.000Z</time>
      </trkpt>
      <trkpt lat="45.86355" lon="4.6992">
        <ele>191.71268</ele>
        <time>2023-04-24T13:45:20.000Z</time>
      </trkpt>
      <trkpt lat="45.86353" lon="4.69913">
        <ele>191.64639</ele>
        <time>2023-04-24T13:45:21.000Z</time>
      </trkpt>
      <trkpt lat="45.86352" lon="4.69907">
        <ele>191.63411</ele>
        <time>2023-04-24T13:45:22.000Z</time>
      </trkpt>
      <trkpt lat="45.8635" lon="4.699">
        <ele>191.59706</ele>
        <time>2023-04-24T13:45:23.000Z</time>
      </trkpt>
      <trkpt lat="45.86348" lon="4.69893">
        <ele>191.59589</ele>
        <time>2023-04-24T13:45:24.000Z</time>
      </trkpt>
      <trkpt lat="45.86347" lon="4.69888">
        <ele>191.72243</ele>
        <time>2023-04-24T13:45:25.000Z</time>
      </trkpt>
      <trkpt lat="45.86346" lon="4.69882">
        <ele>191.90334</ele>
        <time>2023-04-24T13:45:26.000Z</time>
      </trkpt>
      <trkpt lat="45.86344" lon="4.69875">
        <ele>192.09053</ele>
        <time>2023-04-24T13:45:27.000Z</time>
      </trkpt>
      <trkpt lat="45.86342" lon="4.69868">
        <ele>192.31688</ele>
        <time>2023-04-24T13:45:28.000Z</time>
      </trkpt>
      <trkpt lat="45.86339" lon="4.69862">
        <ele>192.54951</ele>
        <time>2023-04-24T13:45:29.000Z</time>
      </trkpt>
      <trkpt lat="45.86336" lon="4.69856">
        <ele>192.71848</ele>
        <time>2023-04-24T13:45:30.000Z</time>
      </trkpt>
      <trkpt lat="45.86334" lon="4.69849">
        <ele>192.89453</ele>
        <time>2023-04-24T13:45:31.000Z</time>
      </trkpt>
      <trkpt lat="45.86331" lon="4.69843">
        <ele>193.01602</ele>
        <time>2023-04-24T13:45:32.000Z</time>
      </trkpt>
      <trkpt lat="45.86327" lon="4.69836">
        <ele>193.13968</ele>
        <time>2023-04-24T13:45:33.000Z</time>
      </trkpt>
      <trkpt lat="45.86322" lon="4.6983">
        <ele>193.25874</ele>
        <time>2023-04-24T13:45:34.000Z</time>
      </trkpt>
      <trkpt lat="45.86317" lon="4.69826">
        <ele>193.40677</ele>
        <time>2023-04-24T13:45:35.000Z</time>
      </trkpt>
      <trkpt lat="45.86313" lon="4.69824">
        <ele>193.4946</ele>
        <time>2023-04-24T13:45:36.000Z</time>
      </trkpt>
      <trkpt lat="45.86308" lon="4.69822">
        <ele>193.61441</ele>
        <time>2023-04-24T13:45:37.000Z</time>
      </trkpt>
      <trkpt lat="45.86303" lon="4.69822">
        <ele>193.67679</ele>
        <time>2023-04-24T13:45:38.000Z</time>
      </trkpt>
      <trkpt lat="45.86299" lon="4.69821">
        <ele>193.68927</ele>
        <time>2023-04-24T13:45:39.000Z</time>
      </trkpt>
      <trkpt lat="45.86294" lon="4.69822">
        <ele>193.72389</ele>
        <time>2023-04-24T13:45:40.000Z</time>
      </trkpt>
      <trkpt lat="45.86289" lon="4.69823">
        <ele>193.73163</ele>
        <time>2023-04-24T13:45:41.000Z</time>
      </trkpt>
      <trkpt lat="45.86284" lon="4.69824">
        <ele>193.66823</ele>
        <time>2023-04-24T13:45:42.000Z</time>
      </trkpt>
      <trkpt lat="45.8628" lon="4.69826">
        <ele>193.63176</ele>
        <time>2023-04-24T13:45:43.000Z</time>
      </trkpt>
      <trkpt lat="45.86275" lon="4.69829">
        <ele>193.5453</ele>
        <time>2023-04-24T13:45:44.000Z</time>
      </trkpt>
      <trkpt lat="45.8627" lon="4.6983">
        <ele>193.45169</ele>
        <time>2023-04-24T13:45:45.000Z</time>
      </trkpt>
      <trkpt lat="45.86265" lon="4.69833">
        <ele>193.36429</ele>
        <time>2023-04-24T13:45:46.000Z</time>
      </trkpt>
      <trkpt lat="45.8626" lon="4.69834">
        <ele>193.31599</ele>
        <time>2023-04-24T13:45:47.000Z</time>
      </trkpt>
      <trkpt lat="45.86255" lon="4.69835">
        <ele>193.16183</ele>
        <time>2023-04-24T13:45:48.000Z</time>
      </trkpt>
      <trkpt lat="45.8625" lon="4.69836">
        <ele>193.0226</ele>
        <time>2023-04-24T13:45:49.000Z</time>
      </trkpt>
      <trkpt lat="45.86244" lon="4.69837">
        <ele>192.91125</ele>
        <time>2023-04-24T13:45:50.000Z</time>
      </trkpt>
      <trkpt lat="45.86239" lon="4.6984">
        <ele>192.78171</ele>
        <time>2023-04-24T13:45:51.000Z</time>
      </trkpt>
      <trkpt lat="45.86234" lon="4.69842">
        <ele>192.6176</ele>
        <time>2023-04-24T13:45:52.000Z</time>
      </trkpt>
      <trkpt lat="45.86228" lon="4.69846">
        <ele>192.42406</ele>
        <time>2023-04-24T13:45:53.000Z</time>
      </trkpt>
      <trkpt lat="45.86223" lon="4.69849">
        <ele>192.25414</ele>
        <time>2023-04-24T13:45:54.000Z</time>
      </trkpt>
      <trkpt lat="45.86219" lon="4.69854">
        <ele>192.11697</ele>
        <time>2023-04-24T13:45:55.000Z</time>
      </trkpt>
      <trkpt lat="45.86215" lon="4.69857">
        <ele>192.0269</ele>
        <time>2023-04-24T13:45:56.000Z</time>
      </trkpt>
      <trkpt lat="45.86212" lon="4.69861">
        <ele>191.92793</ele>
        <time>2023-04-24T13:45:57.000Z</time>
      </trkpt>
      <trkpt lat="45.86208" lon="4.69865">
        <ele>191.90373</ele>
        <time>2023-04-24T13:45:58.000Z</time>
      </trkpt>
      <trkpt lat="45.86204" lon="4.69868">
        <ele>191.93285</ele>
        <time>2023-04-24T13:45:59.000Z</time>
      </trkpt>
      <trkpt lat="45.862" lon="4.69873">
        <ele>191.90509</ele>
        <time>2023-04-24T13:46:00.000Z</time>
      </trkpt>
      <trkpt lat="45.86195" lon="4.69877">
        <ele>191.89847</ele>
        <time>2023-04-24T13:46:01.000Z</time>
      </trkpt>
      <trkpt lat="45.86191" lon="4.6988">
        <ele>191.93213</ele>
        <time>2023-04-24T13:46:02.000Z</time>
      </trkpt>
      <trkpt lat="45.86188" lon="4.69885">
        <ele>191.96213</ele>
        <time>2023-04-24T13:46:03.000Z</time>
      </trkpt>
      <trkpt lat="45.86184" lon="4.69889">
        <ele>191.99129</ele>
        <time>2023-04-24T13:46:04.000Z</time>
      </trkpt>
      <trkpt lat="45.8618" lon="4.69894">
        <ele>192.07474</ele>
        <time>2023-04-24T13:46:05.000Z</time>
      </trkpt>
      <trkpt lat="45.86175" lon="4.69898">
        <ele>192.15105</ele>
        <time>2023-04-24T13:46:06.000Z</time>
      </trkpt>
      <trkpt lat="45.86171" lon="4.69901">
        <ele>192.18932</ele>
        <time>2023-04-24T13:46:07.000Z</time>
      </trkpt>
      <trkpt lat="45.86167" lon="4.69904">
        <ele>192.29916</ele>
        <time>2023-04-24T13:46:08.000Z</time>
      </trkpt>
      <trkpt lat="45.86162" lon="4.69908">
        <ele>192.40129</ele>
        <time>2023-04-24T13:46:09.000Z</time>
      </trkpt>
      <trkpt lat="45.86157" lon="4.69913">
        <ele>192.472</ele>
        <time>2023-04-24T13:46:10.000Z</time>
      </trkpt>
      <trkpt lat="45.86152" lon="4.69918">
        <ele>192.56412</ele>
        <time>2023-04-24T13:46:11.000Z</time>
      </trkpt>
      <trkpt lat="45.86147" lon="4.69922">
        <ele>192.69887</ele>
        <time>2023-04-24T13:46:12.000Z</time>
      </trkpt>
      <trkpt lat="45.86142" lon="4.69925">
        <ele>192.87424</ele>
        <time>2023-04-24T13:46:13.000Z</time>
      </trkpt>
      <trkpt lat="45.86137" lon="4.69928">
        <ele>193.06174</ele>
        <time>2023-04-24T13:46:14.000Z</time>
      </trkpt>
      <trkpt lat="45.86133" lon="4.6993">
        <ele>193.19653</ele>
        <time>2023-04-24T13:46:15.000Z</time>
      </trkpt>
      <trkpt lat="45.86128" lon="4.69932">
        <ele>193.32402</ele>
        <time>2023-04-24T13:46:16.000Z</time>
      </trkpt>
      <trkpt lat="45.86125" lon="4.69933">
        <ele>193.54919</ele>
        <time>2023-04-24T13:46:17.000Z</time>
      </trkpt>
      <trkpt lat="45.86121" lon="4.69934">
        <ele>193.71838</ele>
        <time>2023-04-24T13:46:18.000Z</time>
      </trkpt>
      <trkpt lat="45.86118" lon="4.69936">
        <ele>193.86346</ele>
        <time>2023-04-24T13:46:19.000Z</time>
      </trkpt>
      <trkpt lat="45.86115" lon="4.69937">
        <ele>194.04639</ele>
        <time>2023-04-24T13:46:20.000Z</time>
      </trkpt>
      <trkpt lat="45.86112" lon="4.69938">
        <ele>194.21329</ele>
        <time>2023-04-24T13:46:21.000Z</time>
      </trkpt>
      <trkpt lat="45.86108" lon="4.69937">
        <ele>194.39725</ele>
        <time>2023-04-24T13:46:23.000Z</time>
      </trkpt>
      <trkpt lat="45.86105" lon="4.69938">
        <ele>194.57088</ele>
        <time>2023-04-24T13:46:25.000Z</time>
      </trkpt>
      <trkpt lat="45.86103" lon="4.69939">
        <ele>194.75923</ele>
        <time>2023-04-24T13:46:27.000Z</time>
      </trkpt>
      <trkpt lat="45.861" lon="4.6994">
        <ele>194.87244</ele>
        <time>2023-04-24T13:46:29.000Z</time>
      </trkpt>
      <trkpt lat="45.86098" lon="4.69939">
        <ele>194.95267</ele>
        <time>2023-04-24T13:46:34.000Z</time>
      </trkpt>
      <trkpt lat="45.86096" lon="4.69938">
        <ele>195.06169</ele>
        <time>2023-04-24T13:46:37.000Z</time>
      </trkpt>
      <trkpt lat="45.86094" lon="4.69937">
        <ele>195.22546</ele>
        <time>2023-04-24T13:46:39.000Z</time>
      </trkpt>
      <trkpt lat="45.86092" lon="4.69937">
        <ele>195.54306</ele>
        <time>2023-04-24T13:47:24.000Z</time>
      </trkpt>
      <trkpt lat="45.8609" lon="4.69938">
        <ele>195.91269</ele>
        <time>2023-04-24T13:47:26.000Z</time>
      </trkpt>
      <trkpt lat="45.86088" lon="4.69939">
        <ele>196.24718</ele>
        <time>2023-04-24T13:47:27.000Z</time>
      </trkpt>
      <trkpt lat="45.86086" lon="4.6994">
        <ele>196.55093</ele>
        <time>2023-04-24T13:47:28.000Z</time>
      </trkpt>
      <trkpt lat="45.86084" lon="4.6994">
        <ele>196.86069</ele>
        <time>2023-04-24T13:47:29.000Z</time>
      </trkpt>
      <trkpt lat="45.86082" lon="4.6994">
        <ele>197.08621</ele>
        <time>2023-04-24T13:47:30.000Z</time>
      </trkpt>
      <trkpt lat="45.8608" lon="4.6994">
        <ele>197.27974</ele>
        <time>2023-04-24T13:47:31.000Z</time>
      </trkpt>
      <trkpt lat="45.86077" lon="4.6994">
        <ele>197.41443</ele>
        <time>2023-04-24T13:47:32.000Z</time>
      </trkpt>
      <trkpt lat="45.86074" lon="4.69941">
        <ele>197.50613</ele>
        <time>2023-04-24T13:47:33.000Z</time>
      </trkpt>
      <trkpt lat="45.86071" lon="4.69941">
        <ele>197.59889</ele>
        <time>2023-04-24T13:47:34.000Z</time>
      </trkpt>
      <trkpt lat="45.86068" lon="4.69941">
        <ele>197.67194</ele>
        <time>2023-04-24T13:47:35.000Z</time>
      </trkpt>
      <trkpt lat="45.86065" lon="4.69941">
        <ele>197.71761</ele>
        <time>2023-04-24T13:47:36.000Z</time>
      </trkpt>
      <trkpt lat="45.86062" lon="4.69941">
        <ele>197.72707</ele>
        <time>2023-04-24T13:47:37.000Z</time>
      </trkpt>
      <trkpt lat="45.86058" lon="4.69941">
        <ele>197.612</ele>
        <time>2023-04-24T13:47:38.000Z</time>
      </trkpt>
      <trkpt lat="45.86055" lon="4.69942">
        <ele>197.4677</ele>
        <time>2023-04-24T13:47:39.000Z</time>
      </trkpt>
      <trkpt lat="45.86051" lon="4.69942">
        <ele>197.34659</ele>
        <time>2023-04-24T13:47:40.000Z</time>
      </trkpt>
      <trkpt lat="45.86048" lon="4.69942">
        <ele>197.31281</ele>
        <time>2023-04-24T13:47:41.000Z</time>
      </trkpt>
      <trkpt lat="45.86044" lon="4.69943">
        <ele>197.28714</ele>
        <time>2023-04-24T13:47:42.000Z</time>
      </trkpt>
      <trkpt lat="45.8604" lon="4.69943">
        <ele>197.25177</ele>
        <time>2023-04-24T13:47:43.000Z</time>
      </trkpt>
      <trkpt lat="45.86037" lon="4.69943">
        <ele>197.21068</ele>
        <time>2023-04-24T13:47:44.000Z</time>
      </trkpt>
      <trkpt lat="45.86033" lon="4.69943">
        <ele>197.00085</ele>
        <time>2023-04-24T13:47:45.000Z</time>
      </trkpt>
      <trkpt lat="45.8603" lon="4.69942">
        <ele>196.76302</ele>
        <time>2023-04-24T13:47:46.000Z</time>
      </trkpt>
      <trkpt lat="45.86026" lon="4.69941">
        <ele>196.57445</ele>
        <time>2023-04-24T13:47:47.000Z</time>
      </trkpt>
      <trkpt lat="45.86023" lon="4.69941">
        <ele>196.37746</ele>
        <time>2023-04-24T13:47:48.000Z</time>
      </trkpt>
      <trkpt lat="45.86019" lon="4.69941">
        <ele>196.1694</ele>
        <time>2023-04-24T13:47:49.000Z</time>
      </trkpt>
      <trkpt lat="45.86015" lon="4.69941">
        <ele>195.96791</ele>
        <time>2023-04-24T13:47:50.000Z</time>
      </trkpt>
      <trkpt lat="45.86011" lon="4.6994">
        <ele>195.83072</ele>
        <time>2023-04-24T13:47:51.000Z</time>
      </trkpt>
      <trkpt lat="45.86007" lon="4.69939">
        <ele>195.74246</ele>
        <time>2023-04-24T13:47:52.000Z</time>
      </trkpt>
      <trkpt lat="45.86003" lon="4.69938">
        <ele>195.69897</ele>
        <time>2023-04-24T13:47:53.000Z</time>
      </trkpt>
      <trkpt lat="45.85998" lon="4.69937">
        <ele>195.6606</ele>
        <time>2023-04-24T13:47:54.000Z</time>
      </trkpt>
      <trkpt lat="45.85994" lon="4.69935">
        <ele>195.62936</ele>
        <time>2023-04-24T13:47:55.000Z</time>
      </trkpt>
      <trkpt lat="45.85989" lon="4.69933">
        <ele>195.59</ele>
        <time>2023-04-24T13:47:56.000Z</time>
      </trkpt>
      <trkpt lat="45.85985" lon="4.69931">
        <ele>195.61192</ele>
        <time>2023-04-24T13:47:57.000Z</time>
      </trkpt>
      <trkpt lat="45.85981" lon="4.69928">
        <ele>195.69989</ele>
        <time>2023-04-24T13:47:58.000Z</time>
      </trkpt>
      <trkpt lat="45.85977" lon="4.69924">
        <ele>195.81711</ele>
        <time>2023-04-24T13:47:59.000Z</time>
      </trkpt>
      <trkpt lat="45.85972" lon="4.6992">
        <ele>195.88919</ele>
        <time>2023-04-24T13:48:00.000Z</time>
      </trkpt>
      <trkpt lat="45.85968" lon="4.69916">
        <ele>195.89285</ele>
        <time>2023-04-24T13:48:01.000Z</time>
      </trkpt>
      <trkpt lat="45.85965" lon="4.69912">
        <ele>195.89037</ele>
        <time>2023-04-24T13:48:02.000Z</time>
      </trkpt>
      <trkpt lat="45.85961" lon="4.69907">
        <ele>195.83542</ele>
        <time>2023-04-24T13:48:03.000Z</time>
      </trkpt>
      <trkpt lat="45.85958" lon="4.69902">
        <ele>195.76157</ele>
        <time>2023-04-24T13:48:04.000Z</time>
      </trkpt>
      <trkpt lat="45.85954" lon="4.69899">
        <ele>195.71146</ele>
        <time>2023-04-24T13:48:05.000Z</time>
      </trkpt>
      <trkpt lat="45.85951" lon="4.69895">
        <ele>195.67838</ele>
        <time>2023-04-24T13:48:06.000Z</time>
      </trkpt>
      <trkpt lat="45.85947" lon="4.69891">
        <ele>195.6237</ele>
        <time>2023-04-24T13:48:07.000Z</time>
      </trkpt>
      <trkpt lat="45.85944" lon="4.69886">
        <ele>195.60712</ele>
        <time>2023-04-24T13:48:08.000Z</time>
      </trkpt>
      <trkpt lat="45.8594" lon="4.69885">
        <ele>195.56853</ele>
        <time>2023-04-24T13:48:09.000Z</time>
      </trkpt>
      <trkpt lat="45.85937" lon="4.6988">
        <ele>195.5555</ele>
        <time>2023-04-24T13:48:10.000Z</time>
      </trkpt>
      <trkpt lat="45.85933" lon="4.69875">
        <ele>195.55547</ele>
        <time>2023-04-24T13:48:11.000Z</time>
      </trkpt>
      <trkpt lat="45.85931" lon="4.69871">
        <ele>195.51764</ele>
        <time>2023-04-24T13:48:12.000Z</time>
      </trkpt>
      <trkpt lat="45.85927" lon="4.69866">
        <ele>195.50519</ele>
        <time>2023-04-24T13:48:13.000Z</time>
      </trkpt>
      <trkpt lat="45.85924" lon="4.69861">
        <ele>195.47604</ele>
        <time>2023-04-24T13:48:14.000Z</time>
      </trkpt>
      <trkpt lat="45.85921" lon="4.69857">
        <ele>195.41714</ele>
        <time>2023-04-24T13:48:15.000Z</time>
      </trkpt>
      <trkpt lat="45.85917" lon="4.69853">
        <ele>195.38461</ele>
        <time>2023-04-24T13:48:16.000Z</time>
      </trkpt>
      <trkpt lat="45.85914" lon="4.69849">
        <ele>195.3392</ele>
        <time>2023-04-24T13:48:17.000Z</time>
      </trkpt>
      <trkpt lat="45.8591" lon="4.69845">
        <ele>195.32803</ele>
        <time>2023-04-24T13:48:18.000Z</time>
      </trkpt>
      <trkpt lat="45.85907" lon="4.6984">
        <ele>195.31824</ele>
        <time>2023-04-24T13:48:19.000Z</time>
      </trkpt>
      <trkpt lat="45.85903" lon="4.69836">
        <ele>195.32181</ele>
        <time>2023-04-24T13:48:20.000Z</time>
      </trkpt>
      <trkpt lat="45.85899" lon="4.69831">
        <ele>195.31267</ele>
        <time>2023-04-24T13:48:21.000Z</time>
      </trkpt>
      <trkpt lat="45.85896" lon="4.69827">
        <ele>195.311</ele>
        <time>2023-04-24T13:48:22.000Z</time>
      </trkpt>
      <trkpt lat="45.85892" lon="4.69825">
        <ele>195.3353</ele>
        <time>2023-04-24T13:48:23.000Z</time>
      </trkpt>
      <trkpt lat="45.85889" lon="4.69821">
        <ele>195.29927</ele>
        <time>2023-04-24T13:48:24.000Z</time>
      </trkpt>
      <trkpt lat="45.85886" lon="4.69816">
        <ele>195.26218</ele>
        <time>2023-04-24T13:48:25.000Z</time>
      </trkpt>
      <trkpt lat="45.85881" lon="4.69813">
        <ele>195.23666</ele>
        <time>2023-04-24T13:48:26.000Z</time>
      </trkpt>
      <trkpt lat="45.85878" lon="4.69809">
        <ele>195.23834</ele>
        <time>2023-04-24T13:48:27.000Z</time>
      </trkpt>
      <trkpt lat="45.85877" lon="4.69805">
        <ele>195.1821</ele>
        <time>2023-04-24T13:48:28.000Z</time>
      </trkpt>
      <trkpt lat="45.85874" lon="4.69802">
        <ele>195.15865</ele>
        <time>2023-04-24T13:48:29.000Z</time>
      </trkpt>
      <trkpt lat="45.85871" lon="4.69798">
        <ele>195.11148</ele>
        <time>2023-04-24T13:48:30.000Z</time>
      </trkpt>
      <trkpt lat="45.85869" lon="4.69794">
        <ele>194.99246</ele>
        <time>2023-04-24T13:48:31.000Z</time>
      </trkpt>
      <trkpt lat="45.8587" lon="4.69788">
        <ele>194.95311</ele>
        <time>2023-04-24T13:48:32.000Z</time>
      </trkpt>
      <trkpt lat="45.85868" lon="4.69783">
        <ele>194.89294</ele>
        <time>2023-04-24T13:48:33.000Z</time>
      </trkpt>
      <trkpt lat="45.85865" lon="4.69778">
        <ele>194.83109</ele>
        <time>2023-04-24T13:48:34.000Z</time>
      </trkpt>
      <trkpt lat="45.85863" lon="4.69774">
        <ele>194.81133</ele>
        <time>2023-04-24T13:48:35.000Z</time>
      </trkpt>
      <trkpt lat="45.85861" lon="4.69769">
        <ele>194.81377</ele>
        <time>2023-04-24T13:48:36.000Z</time>
      </trkpt>
      <trkpt lat="45.85858" lon="4.69765">
        <ele>194.77753</ele>
        <time>2023-04-24T13:48:37.000Z</time>
      </trkpt>
      <trkpt lat="45.85856" lon="4.69761">
        <ele>194.69849</ele>
        <time>2023-04-24T13:48:38.000Z</time>
      </trkpt>
      <trkpt lat="45.85854" lon="4.69756">
        <ele>194.593</ele>
        <time>2023-04-24T13:48:39.000Z</time>
      </trkpt>
      <trkpt lat="45.85851" lon="4.69752">
        <ele>194.49654</ele>
        <time>2023-04-24T13:48:40.000Z</time>
      </trkpt>
      <trkpt lat="45.85849" lon="4.69747">
        <ele>194.43845</ele>
        <time>2023-04-24T13:48:41.000Z</time>
      </trkpt>
      <trkpt lat="45.85847" lon="4.69743">
        <ele>194.41119</ele>
        <time>2023-04-24T13:48:42.000Z</time>
      </trkpt>
      <trkpt lat="45.85844" lon="4.69738">
        <ele>195.185</ele>
        <time>2023-04-24T13:48:43.000Z</time>
      </trkpt>
      <trkpt lat="45.85841" lon="4.69735">
        <ele>195.99709</ele>
        <time>2023-04-24T13:48:44.000Z</time>
      </trkpt>
      <trkpt lat="45.85837" lon="4.69733">
        <ele>196.79019</ele>
        <time>2023-04-24T13:48:45.000Z</time>
      </trkpt>
      <trkpt lat="45.85835" lon="4.69731">
        <ele>197.62708</ele>
        <time>2023-04-24T13:48:46.000Z</time>
      </trkpt>
      <trkpt lat="45.85833" lon="4.69728">
        <ele>198.44604</ele>
        <time>2023-04-24T13:48:47.000Z</time>
      </trkpt>
      <trkpt lat="45.85832" lon="4.69724">
        <ele>199.38405</ele>
        <time>2023-04-24T13:48:48.000Z</time>
      </trkpt>
      <trkpt lat="45.85831" lon="4.69719">
        <ele>200.24057</ele>
        <time>2023-04-24T13:48:49.000Z</time>
      </trkpt>
      <trkpt lat="45.8583" lon="4.69714">
        <ele>201.15025</ele>
        <time>2023-04-24T13:48:50.000Z</time>
      </trkpt>
      <trkpt lat="45.8583" lon="4.69711">
        <ele>202.16327</ele>
        <time>2023-04-24T13:48:51.000Z</time>
      </trkpt>
      <trkpt lat="45.85828" lon="4.69707">
        <ele>203.14816</ele>
        <time>2023-04-24T13:48:52.000Z</time>
      </trkpt>
      <trkpt lat="45.85825" lon="4.69704">
        <ele>204.26273</ele>
        <time>2023-04-24T13:48:53.000Z</time>
      </trkpt>
      <trkpt lat="45.85823" lon="4.69701">
        <ele>205.32117</ele>
        <time>2023-04-24T13:48:54.000Z</time>
      </trkpt>
      <trkpt lat="45.8582" lon="4.69698">
        <ele>206.36038</ele>
        <time>2023-04-24T13:48:55.000Z</time>
      </trkpt>
      <trkpt lat="45.85818" lon="4.69694">
        <ele>207.34427</ele>
        <time>2023-04-24T13:48:56.000Z</time>
      </trkpt>
      <trkpt lat="45.85817" lon="4.6969">
        <ele>208.40622</ele>
        <time>2023-04-24T13:48:57.000Z</time>
      </trkpt>
      <trkpt lat="45.85817" lon="4.69685">
        <ele>209.64597</ele>
        <time>2023-04-24T13:48:58.000Z</time>
      </trkpt>
      <trkpt lat="45.85816" lon="4.6968">
        <ele>211.05022</ele>
        <time>2023-04-24T13:48:59.000Z</time>
      </trkpt>
      <trkpt lat="45.85815" lon="4.69675">
        <ele>212.41223</ele>
        <time>2023-04-24T13:49:00.000Z</time>
      </trkpt>
      <trkpt lat="45.85814" lon="4.69671">
        <ele>213.252</ele>
        <time>2023-04-24T13:49:01.000Z</time>
      </trkpt>
      <trkpt lat="45.85813" lon="4.69666">
        <ele>214.05891</ele>
        <time>2023-04-24T13:49:02.000Z</time>
      </trkpt>
      <trkpt lat="45.85812" lon="4.69661">
        <ele>214.07364</ele>
        <time>2023-04-24T13:49:03.000Z</time>
      </trkpt>
      <trkpt lat="45.8581" lon="4.69656">
        <ele>214.12312</ele>
        <time>2023-04-24T13:49:04.000Z</time>
      </trkpt>
      <trkpt lat="45.85808" lon="4.69651">
        <ele>214.17444</ele>
        <time>2023-04-24T13:49:05.000Z</time>
      </trkpt>
      <trkpt lat="45.85807" lon="4.69646">
        <ele>214.1741</ele>
        <time>2023-04-24T13:49:06.000Z</time>
      </trkpt>
      <trkpt lat="45.85805" lon="4.6964">
        <ele>214.14677</ele>
        <time>2023-04-24T13:49:07.000Z</time>
      </trkpt>
      <trkpt lat="45.85803" lon="4.69634">
        <ele>213.99886</ele>
        <time>2023-04-24T13:49:08.000Z</time>
      </trkpt>
      <trkpt lat="45.85801" lon="4.69627">
        <ele>213.92691</ele>
        <time>2023-04-24T13:49:09.000Z</time>
      </trkpt>
      <trkpt lat="45.85799" lon="4.69621">
        <ele>213.83675</ele>
        <time>2023-04-24T13:49:10.000Z</time>
      </trkpt>
      <trkpt lat="45.85798" lon="4.69616">
        <ele>213.65891</ele>
        <time>2023-04-24T13:49:11.000Z</time>
      </trkpt>
      <trkpt lat="45.85797" lon="4.6961">
        <ele>213.45125</ele>
        <time>2023-04-24T13:49:12.000Z</time>
      </trkpt>
      <trkpt lat="45.85796" lon="4.69604">
        <ele>213.10727</ele>
        <time>2023-04-24T13:49:13.000Z</time>
      </trkpt>
      <trkpt lat="45.85794" lon="4.69598">
        <ele>212.82932</ele>
        <time>2023-04-24T13:49:14.000Z</time>
      </trkpt>
      <trkpt lat="45.85791" lon="4.69591">
        <ele>212.56174</ele>
        <time>2023-04-24T13:49:15.000Z</time>
      </trkpt>
      <trkpt lat="45.8579" lon="4.69584">
        <ele>212.31987</ele>
        <time>2023-04-24T13:49:16.000Z</time>
      </trkpt>
      <trkpt lat="45.85789" lon="4.69577">
        <ele>212.01401</ele>
        <time>2023-04-24T13:49:17.000Z</time>
      </trkpt>
      <trkpt lat="45.85786" lon="4.69571">
        <ele>211.55875</ele>
        <time>2023-04-24T13:49:18.000Z</time>
      </trkpt>
      <trkpt lat="45.85785" lon="4.69566">
        <ele>210.90237</ele>
        <time>2023-04-24T13:49:19.000Z</time>
      </trkpt>
      <trkpt lat="45.85783" lon="4.6956">
        <ele>210.15402</ele>
        <time>2023-04-24T13:49:20.000Z</time>
      </trkpt>
      <trkpt lat="45.85782" lon="4.69553">
        <ele>209.89352</ele>
        <time>2023-04-24T13:49:21.000Z</time>
      </trkpt>
      <trkpt lat="45.85782" lon="4.69546">
        <ele>209.64273</ele>
        <time>2023-04-24T13:49:22.000Z</time>
      </trkpt>
      <trkpt lat="45.85781" lon="4.69539">
        <ele>209.35156</ele>
        <time>2023-04-24T13:49:23.000Z</time>
      </trkpt>
      <trkpt lat="45.8578" lon="4.69532">
        <ele>209.07976</ele>
        <time>2023-04-24T13:49:24.000Z</time>
      </trkpt>
      <trkpt lat="45.85779" lon="4.69525">
        <ele>208.80086</ele>
        <time>2023-04-24T13:49:25.000Z</time>
      </trkpt>
      <trkpt lat="45.85778" lon="4.69518">
        <ele>208.51665</ele>
        <time>2023-04-24T13:49:26.000Z</time>
      </trkpt>
      <trkpt lat="45.85777" lon="4.69511">
        <ele>208.4373</ele>
        <time>2023-04-24T13:49:27.000Z</time>
      </trkpt>
      <trkpt lat="45.85776" lon="4.69505">
        <ele>208.40317</ele>
        <time>2023-04-24T13:49:28.000Z</time>
      </trkpt>
      <trkpt lat="45.85776" lon="4.69499">
        <ele>208.45134</ele>
        <time>2023-04-24T13:49:29.000Z</time>
      </trkpt>
      <trkpt lat="45.85776" lon="4.69493">
        <ele>208.47212</ele>
        <time>2023-04-24T13:49:30.000Z</time>
      </trkpt>
      <trkpt lat="45.85775" lon="4.69486">
        <ele>208.58752</ele>
        <time>2023-04-24T13:49:31.000Z</time>
      </trkpt>
      <trkpt lat="45.85773" lon="4.69479">
        <ele>208.75229</ele>
        <time>2023-04-24T13:49:32.000Z</time>
      </trkpt>
      <trkpt lat="45.85772" lon="4.69473">
        <ele>208.58125</ele>
        <time>2023-04-24T13:49:33.000Z</time>
      </trkpt>
      <trkpt lat="45.85772" lon="4.69466">
        <ele>208.44853</ele>
        <time>2023-04-24T13:49:34.000Z</time>
      </trkpt>
      <trkpt lat="45.8577" lon="4.69459">
        <ele>208.64568</ele>
        <time>2023-04-24T13:49:35.000Z</time>
      </trkpt>
      <trkpt lat="45.85769" lon="4.69454">
        <ele>208.64861</ele>
        <time>2023-04-24T13:49:36.000Z</time>
      </trkpt>
      <trkpt lat="45.85769" lon="4.69448">
        <ele>208.69434</ele>
        <time>2023-04-24T13:49:37.000Z</time>
      </trkpt>
      <trkpt lat="45.85768" lon="4.69441">
        <ele>208.71928</ele>
        <time>2023-04-24T13:49:38.000Z</time>
      </trkpt>
      <trkpt lat="45.85767" lon="4.69435">
        <ele>208.79944</ele>
        <time>2023-04-24T13:49:39.000Z</time>
      </trkpt>
      <trkpt lat="45.85767" lon="4.69428">
        <ele>209.00053</ele>
        <time>2023-04-24T13:49:40.000Z</time>
      </trkpt>
      <trkpt lat="45.85766" lon="4.69421">
        <ele>209.24153</ele>
        <time>2023-04-24T13:49:41.000Z</time>
      </trkpt>
      <trkpt lat="45.85766" lon="4.69415">
        <ele>209.49966</ele>
        <time>2023-04-24T13:49:42.000Z</time>
      </trkpt>
      <trkpt lat="45.85764" lon="4.69408">
        <ele>209.77719</ele>
        <time>2023-04-24T13:49:43.000Z</time>
      </trkpt>
      <trkpt lat="45.85763" lon="4.69402">
        <ele>210.04477</ele>
        <time>2023-04-24T13:49:44.000Z</time>
      </trkpt>
      <trkpt lat="45.85762" lon="4.69396">
        <ele>210.29886</ele>
        <time>2023-04-24T13:49:45.000Z</time>
      </trkpt>
      <trkpt lat="45.85762" lon="4.69389">
        <ele>210.57014</ele>
        <time>2023-04-24T13:49:46.000Z</time>
      </trkpt>
      <trkpt lat="45.85762" lon="4.69382">
        <ele>210.67105</ele>
        <time>2023-04-24T13:49:47.000Z</time>
      </trkpt>
      <trkpt lat="45.85762" lon="4.69375">
        <ele>210.76624</ele>
        <time>2023-04-24T13:49:48.000Z</time>
      </trkpt>
      <trkpt lat="45.85762" lon="4.69368">
        <ele>210.79085</ele>
        <time>2023-04-24T13:49:49.000Z</time>
      </trkpt>
      <trkpt lat="45.85762" lon="4.69362">
        <ele>210.81241</ele>
        <time>2023-04-24T13:49:50.000Z</time>
      </trkpt>
      <trkpt lat="45.85762" lon="4.69357">
        <ele>210.79428</ele>
        <time>2023-04-24T13:49:51.000Z</time>
      </trkpt>
      <trkpt lat="45.85763" lon="4.6935">
        <ele>210.72009</ele>
        <time>2023-04-24T13:49:52.000Z</time>
      </trkpt>
      <trkpt lat="45.85764" lon="4.69345">
        <ele>210.96875</ele>
        <time>2023-04-24T13:49:53.000Z</time>
      </trkpt>
      <trkpt lat="45.85765" lon="4.69337">
        <ele>211.19051</ele>
        <time>2023-04-24T13:49:54.000Z</time>
      </trkpt>
      <trkpt lat="45.85765" lon="4.69331">
        <ele>211.03508</ele>
        <time>2023-04-24T13:49:55.000Z</time>
      </trkpt>
      <trkpt lat="45.85765" lon="4.69325">
        <ele>211.08867</ele>
        <time>2023-04-24T13:49:56.000Z</time>
      </trkpt>
      <trkpt lat="45.85765" lon="4.69318">
        <ele>211.12424</ele>
        <time>2023-04-24T13:49:57.000Z</time>
      </trkpt>
      <trkpt lat="45.85765" lon="4.69312">
        <ele>211.18269</ele>
        <time>2023-04-24T13:49:58.000Z</time>
      </trkpt>
      <trkpt lat="45.85767" lon="4.69306">
        <ele>211.55672</ele>
        <time>2023-04-24T13:49:59.000Z</time>
      </trkpt>
      <trkpt lat="45.85767" lon="4.693">
        <ele>211.77205</ele>
        <time>2023-04-24T13:50:00.000Z</time>
      </trkpt>
      <trkpt lat="45.85767" lon="4.69294">
        <ele>211.64267</ele>
        <time>2023-04-24T13:50:01.000Z</time>
      </trkpt>
      <trkpt lat="45.85767" lon="4.69287">
        <ele>211.5415</ele>
        <time>2023-04-24T13:50:02.000Z</time>
      </trkpt>
      <trkpt lat="45.85767" lon="4.69281">
        <ele>211.51016</ele>
        <time>2023-04-24T13:50:03.000Z</time>
      </trkpt>
      <trkpt lat="45.85768" lon="4.69274">
        <ele>211.41531</ele>
        <time>2023-04-24T13:50:04.000Z</time>
      </trkpt>
      <trkpt lat="45.85768" lon="4.69268">
        <ele>211.32559</ele>
        <time>2023-04-24T13:50:05.000Z</time>
      </trkpt>
      <trkpt lat="45.85768" lon="4.69262">
        <ele>211.38618</ele>
        <time>2023-04-24T13:50:06.000Z</time>
      </trkpt>
      <trkpt lat="45.85768" lon="4.69255">
        <ele>211.45145</ele>
        <time>2023-04-24T13:50:07.000Z</time>
      </trkpt>
      <trkpt lat="45.85768" lon="4.69251">
        <ele>211.47366</ele>
        <time>2023-04-24T13:50:08.000Z</time>
      </trkpt>
      <trkpt lat="45.85768" lon="4.69246">
        <ele>211.47397</ele>
        <time>2023-04-24T13:50:09.000Z</time>
      </trkpt>
      <trkpt lat="45.85768" lon="4.69241">
        <ele>211.50085</ele>
        <time>2023-04-24T13:50:10.000Z</time>
      </trkpt>
      <trkpt lat="45.85767" lon="4.69237">
        <ele>211.51755</ele>
        <time>2023-04-24T13:50:11.000Z</time>
      </trkpt>
      <trkpt lat="45.85767" lon="4.69234">
        <ele>211.51187</ele>
        <time>2023-04-24T13:50:12.000Z</time>
      </trkpt>
      <trkpt lat="45.85766" lon="4.69231">
        <ele>211.7688</ele>
        <time>2023-04-24T13:50:13.000Z</time>
      </trkpt>
      <trkpt lat="45.85763" lon="4.69229">
        <ele>212.07686</ele>
        <time>2023-04-24T13:50:14.000Z</time>
      </trkpt>
      <trkpt lat="45.85761" lon="4.69228">
        <ele>212.50761</ele>
        <time>2023-04-24T13:50:15.000Z</time>
      </trkpt>
      <trkpt lat="45.85758" lon="4.69226">
        <ele>212.9335</ele>
        <time>2023-04-24T13:50:16.000Z</time>
      </trkpt>
      <trkpt lat="45.85756" lon="4.69223">
        <ele>213.39563</ele>
        <time>2023-04-24T13:50:17.000Z</time>
      </trkpt>
      <trkpt lat="45.85753" lon="4.69221">
        <ele>213.40988</ele>
        <time>2023-04-24T13:50:18.000Z</time>
      </trkpt>
      <trkpt lat="45.8575" lon="4.69218">
        <ele>213.13708</ele>
        <time>2023-04-24T13:50:19.000Z</time>
      </trkpt>
      <trkpt lat="45.85748" lon="4.69215">
        <ele>213.01653</ele>
        <time>2023-04-24T13:50:20.000Z</time>
      </trkpt>
      <trkpt lat="45.85746" lon="4.69212">
        <ele>213.20808</ele>
        <time>2023-04-24T13:50:21.000Z</time>
      </trkpt>
      <trkpt lat="45.85744" lon="4.6921">
        <ele>213.32124</ele>
        <time>2023-04-24T13:50:22.000Z</time>
      </trkpt>
      <trkpt lat="45.85741" lon="4.69207">
        <ele>213.38058</ele>
        <time>2023-04-24T13:50:23.000Z</time>
      </trkpt>
      <trkpt lat="45.85738" lon="4.69206">
        <ele>213.50444</ele>
        <time>2023-04-24T13:50:24.000Z</time>
      </trkpt>
      <trkpt lat="45.85736" lon="4.69205">
        <ele>213.6702</ele>
        <time>2023-04-24T13:50:25.000Z</time>
      </trkpt>
      <trkpt lat="45.85733" lon="4.69204">
        <ele>213.65767</ele>
        <time>2023-04-24T13:50:26.000Z</time>
      </trkpt>
      <trkpt lat="45.85731" lon="4.69203">
        <ele>213.6022</ele>
        <time>2023-04-24T13:50:27.000Z</time>
      </trkpt>
      <trkpt lat="45.85729" lon="4.69202">
        <ele>213.56323</ele>
        <time>2023-04-24T13:50:28.000Z</time>
      </trkpt>
      <trkpt lat="45.85727" lon="4.69201">
        <ele>213.54263</ele>
        <time>2023-04-24T13:50:29.000Z</time>
      </trkpt>
      <trkpt lat="45.85726" lon="4.69197">
        <ele>213.97293</ele>
        <time>2023-04-24T13:50:31.000Z</time>
      </trkpt>
      <trkpt lat="45.85729" lon="4.69198">
        <ele>213.90616</ele>
        <time>2023-04-24T13:50:33.000Z</time>
      </trkpt>
      <trkpt lat="45.8573" lon="4.692">
        <ele>213.84488</ele>
        <time>2023-04-24T13:50:34.000Z</time>
      </trkpt>
      <trkpt lat="45.85732" lon="4.69203">
        <ele>213.55049</ele>
        <time>2023-04-24T13:50:35.000Z</time>
      </trkpt>
      <trkpt lat="45.85734" lon="4.69206">
        <ele>213.19405</ele>
        <time>2023-04-24T13:50:36.000Z</time>
      </trkpt>
      <trkpt lat="45.85737" lon="4.69208">
        <ele>212.76433</ele>
        <time>2023-04-24T13:50:37.000Z</time>
      </trkpt>
      <trkpt lat="45.85739" lon="4.69209">
        <ele>212.35953</ele>
        <time>2023-04-24T13:50:38.000Z</time>
      </trkpt>
      <trkpt lat="45.85742" lon="4.69211">
        <ele>211.87898</ele>
        <time>2023-04-24T13:50:39.000Z</time>
      </trkpt>
      <trkpt lat="45.85745" lon="4.69213">
        <ele>211.85217</ele>
        <time>2023-04-24T13:50:40.000Z</time>
      </trkpt>
      <trkpt lat="45.85748" lon="4.69215">
        <ele>211.81616</ele>
        <time>2023-04-24T13:50:41.000Z</time>
      </trkpt>
      <trkpt lat="45.8575" lon="4.69217">
        <ele>211.7775</ele>
        <time>2023-04-24T13:50:42.000Z</time>
      </trkpt>
      <trkpt lat="45.85752" lon="4.6922">
        <ele>211.59651</ele>
        <time>2023-04-24T13:50:43.000Z</time>
      </trkpt>
      <trkpt lat="45.85753" lon="4.69222">
        <ele>211.46005</ele>
        <time>2023-04-24T13:50:44.000Z</time>
      </trkpt>
      <trkpt lat="45.85755" lon="4.69225">
        <ele>211.31299</ele>
        <time>2023-04-24T13:50:45.000Z</time>
      </trkpt>
      <trkpt lat="45.85757" lon="4.69227">
        <ele>211.14798</ele>
        <time>2023-04-24T13:50:46.000Z</time>
      </trkpt>
      <trkpt lat="45.85759" lon="4.69229">
        <ele>211.12411</ele>
        <time>2023-04-24T13:50:47.000Z</time>
      </trkpt>
      <trkpt lat="45.85761" lon="4.69231">
        <ele>211.15266</ele>
        <time>2023-04-24T13:50:48.000Z</time>
      </trkpt>
      <trkpt lat="45.85764" lon="4.69232">
        <ele>211.1731</ele>
        <time>2023-04-24T13:50:50.000Z</time>
      </trkpt>
      <trkpt lat="45.85767" lon="4.69232">
        <ele>211.24036</ele>
        <time>2023-04-24T13:50:52.000Z</time>
      </trkpt>
      <trkpt lat="45.85769" lon="4.69231">
        <ele>211.28474</ele>
        <time>2023-04-24T13:50:53.000Z</time>
      </trkpt>
      <trkpt lat="45.85771" lon="4.69229">
        <ele>210.87552</ele>
        <time>2023-04-24T13:50:54.000Z</time>
      </trkpt>
      <trkpt lat="45.85772" lon="4.69227">
        <ele>210.80786</ele>
        <time>2023-04-24T13:50:56.000Z</time>
      </trkpt>
      <trkpt lat="45.85773" lon="4.69223">
        <ele>210.76884</ele>
        <time>2023-04-24T13:51:00.000Z</time>
      </trkpt>
      <trkpt lat="45.85772" lon="4.6922">
        <ele>210.64255</ele>
        <time>2023-04-24T13:51:01.000Z</time>
      </trkpt>
      <trkpt lat="45.85771" lon="4.69217">
        <ele>210.96465</ele>
        <time>2023-04-24T13:51:02.000Z</time>
      </trkpt>
      <trkpt lat="45.8577" lon="4.69213">
        <ele>210.96204</ele>
        <time>2023-04-24T13:51:03.000Z</time>
      </trkpt>
      <trkpt lat="45.85769" lon="4.69209">
        <ele>210.9231</ele>
        <time>2023-04-24T13:51:04.000Z</time>
      </trkpt>
      <trkpt lat="45.8577" lon="4.69204">
        <ele>210.92908</ele>
        <time>2023-04-24T13:51:05.000Z</time>
      </trkpt>
      <trkpt lat="45.85771" lon="4.692">
        <ele>210.91125</ele>
        <time>2023-04-24T13:51:06.000Z</time>
      </trkpt>
      <trkpt lat="45.85771" lon="4.69195">
        <ele>210.88838</ele>
        <time>2023-04-24T13:51:07.000Z</time>
      </trkpt>
      <trkpt lat="45.85771" lon="4.69192">
        <ele>211.18884</ele>
        <time>2023-04-24T13:51:08.000Z</time>
      </trkpt>
      <trkpt lat="45.85771" lon="4.69188">
        <ele>211.64372</ele>
        <time>2023-04-24T13:51:09.000Z</time>
      </trkpt>
      <trkpt lat="45.85772" lon="4.69184">
        <ele>212.06094</ele>
        <time>2023-04-24T13:51:10.000Z</time>
      </trkpt>
      <trkpt lat="45.85773" lon="4.69179">
        <ele>212.47385</ele>
        <time>2023-04-24T13:51:11.000Z</time>
      </trkpt>
      <trkpt lat="45.85774" lon="4.69173">
        <ele>212.88345</ele>
        <time>2023-04-24T13:51:12.000Z</time>
      </trkpt>
      <trkpt lat="45.85775" lon="4.69165">
        <ele>213.12411</ele>
        <time>2023-04-24T13:51:13.000Z</time>
      </trkpt>
      <trkpt lat="45.85775" lon="4.69159">
        <ele>213.32224</ele>
        <time>2023-04-24T13:51:14.000Z</time>
      </trkpt>
      <trkpt lat="45.85777" lon="4.69152">
        <ele>213.54549</ele>
        <time>2023-04-24T13:51:15.000Z</time>
      </trkpt>
      <trkpt lat="45.85779" lon="4.69145">
        <ele>213.56438</ele>
        <time>2023-04-24T13:51:16.000Z</time>
      </trkpt>
      <trkpt lat="45.8578" lon="4.69137">
        <ele>213.30576</ele>
        <time>2023-04-24T13:51:17.000Z</time>
      </trkpt>
      <trkpt lat="45.85781" lon="4.69129">
        <ele>213.07877</ele>
        <time>2023-04-24T13:51:18.000Z</time>
      </trkpt>
      <trkpt lat="45.85782" lon="4.69121">
        <ele>212.99275</ele>
        <time>2023-04-24T13:51:19.000Z</time>
      </trkpt>
      <trkpt lat="45.85784" lon="4.69113">
        <ele>212.8949</ele>
        <time>2023-04-24T13:51:20.000Z</time>
      </trkpt>
      <trkpt lat="45.85786" lon="4.69105">
        <ele>212.81638</ele>
        <time>2023-04-24T13:51:21.000Z</time>
      </trkpt>
      <trkpt lat="45.85788" lon="4.69098">
        <ele>212.37199</ele>
        <time>2023-04-24T13:51:22.000Z</time>
      </trkpt>
      <trkpt lat="45.85789" lon="4.69092">
        <ele>212.23946</ele>
        <time>2023-04-24T13:51:23.000Z</time>
      </trkpt>
      <trkpt lat="45.8579" lon="4.69087">
        <ele>212.12073</ele>
        <time>2023-04-24T13:51:24.000Z</time>
      </trkpt>
      <trkpt lat="45.85791" lon="4.69081">
        <ele>212.00537</ele>
        <time>2023-04-24T13:51:25.000Z</time>
      </trkpt>
      <trkpt lat="45.85793" lon="4.69075">
        <ele>211.90848</ele>
        <time>2023-04-24T13:51:26.000Z</time>
      </trkpt>
      <trkpt lat="45.85794" lon="4.69067">
        <ele>211.79648</ele>
        <time>2023-04-24T13:51:27.000Z</time>
      </trkpt>
      <trkpt lat="45.85795" lon="4.69062">
        <ele>211.32446</ele>
        <time>2023-04-24T13:51:28.000Z</time>
      </trkpt>
      <trkpt lat="45.85796" lon="4.69056">
        <ele>210.84758</ele>
        <time>2023-04-24T13:51:29.000Z</time>
      </trkpt>
      <trkpt lat="45.85797" lon="4.69049">
        <ele>210.39468</ele>
        <time>2023-04-24T13:51:30.000Z</time>
      </trkpt>
      <trkpt lat="45.85798" lon="4.69042">
        <ele>209.96785</ele>
        <time>2023-04-24T13:51:31.000Z</time>
      </trkpt>
      <trkpt lat="45.85798" lon="4.69037">
        <ele>209.68449</ele>
        <time>2023-04-24T13:51:32.000Z</time>
      </trkpt>
      <trkpt lat="45.85799" lon="4.69029">
        <ele>209.40018</ele>
        <time>2023-04-24T13:51:33.000Z</time>
      </trkpt>
      <trkpt lat="45.858" lon="4.69021">
        <ele>209.14981</ele>
        <time>2023-04-24T13:51:34.000Z</time>
      </trkpt>
      <trkpt lat="45.85801" lon="4.69014">
        <ele>208.90073</ele>
        <time>2023-04-24T13:51:35.000Z</time>
      </trkpt>
      <trkpt lat="45.85802" lon="4.69006">
        <ele>208.89526</ele>
        <time>2023-04-24T13:51:36.000Z</time>
      </trkpt>
      <trkpt lat="45.85803" lon="4.68999">
        <ele>209.21797</ele>
        <time>2023-04-24T13:51:37.000Z</time>
      </trkpt>
      <trkpt lat="45.85803" lon="4.68993">
        <ele>209.18106</ele>
        <time>2023-04-24T13:51:38.000Z</time>
      </trkpt>
      <trkpt lat="45.85804" lon="4.68986">
        <ele>209.22079</ele>
        <time>2023-04-24T13:51:39.000Z</time>
      </trkpt>
      <trkpt lat="45.85805" lon="4.68978">
        <ele>209.25908</ele>
        <time>2023-04-24T13:51:40.000Z</time>
      </trkpt>
      <trkpt lat="45.85805" lon="4.6897">
        <ele>209.33334</ele>
        <time>2023-04-24T13:51:41.000Z</time>
      </trkpt>
      <trkpt lat="45.85805" lon="4.68963">
        <ele>209.36703</ele>
        <time>2023-04-24T13:51:42.000Z</time>
      </trkpt>
      <trkpt lat="45.85806" lon="4.68956">
        <ele>209.399</ele>
        <time>2023-04-24T13:51:43.000Z</time>
      </trkpt>
      <trkpt lat="45.85807" lon="4.68948">
        <ele>209.43372</ele>
        <time>2023-04-24T13:51:44.000Z</time>
      </trkpt>
      <trkpt lat="45.85808" lon="4.68942">
        <ele>209.4487</ele>
        <time>2023-04-24T13:51:45.000Z</time>
      </trkpt>
      <trkpt lat="45.85808" lon="4.68934">
        <ele>209.45979</ele>
        <time>2023-04-24T13:51:46.000Z</time>
      </trkpt>
      <trkpt lat="45.85809" lon="4.68926">
        <ele>209.49373</ele>
        <time>2023-04-24T13:51:47.000Z</time>
      </trkpt>
      <trkpt lat="45.85809" lon="4.6892">
        <ele>209.56775</ele>
        <time>2023-04-24T13:51:48.000Z</time>
      </trkpt>
      <trkpt lat="45.8581" lon="4.68913">
        <ele>209.64639</ele>
        <time>2023-04-24T13:51:49.000Z</time>
      </trkpt>
      <trkpt lat="45.8581" lon="4.68905">
        <ele>209.86203</ele>
        <time>2023-04-24T13:51:50.000Z</time>
      </trkpt>
      <trkpt lat="45.8581" lon="4.68899">
        <ele>210.06735</ele>
        <time>2023-04-24T13:51:51.000Z</time>
      </trkpt>
      <trkpt lat="45.85811" lon="4.68893">
        <ele>210.12918</ele>
        <time>2023-04-24T13:51:52.000Z</time>
      </trkpt>
      <trkpt lat="45.85811" lon="4.68886">
        <ele>210.19548</ele>
        <time>2023-04-24T13:51:53.000Z</time>
      </trkpt>
      <trkpt lat="45.8581" lon="4.68881">
        <ele>210.22116</ele>
        <time>2023-04-24T13:51:54.000Z</time>
      </trkpt>
      <trkpt lat="45.8581" lon="4.68873">
        <ele>210.33562</ele>
        <time>2023-04-24T13:51:55.000Z</time>
      </trkpt>
      <trkpt lat="45.85811" lon="4.68866">
        <ele>210.42285</ele>
        <time>2023-04-24T13:51:56.000Z</time>
      </trkpt>
      <trkpt lat="45.85812" lon="4.6886">
        <ele>210.16023</ele>
        <time>2023-04-24T13:51:57.000Z</time>
      </trkpt>
      <trkpt lat="45.85813" lon="4.68855">
        <ele>210.29123</ele>
        <time>2023-04-24T13:51:58.000Z</time>
      </trkpt>
      <trkpt lat="45.85811" lon="4.68852">
        <ele>210.38541</ele>
        <time>2023-04-24T13:51:59.000Z</time>
      </trkpt>
      <trkpt lat="45.8581" lon="4.68847">
        <ele>210.5352</ele>
        <time>2023-04-24T13:52:01.000Z</time>
      </trkpt>
      <trkpt lat="45.85811" lon="4.68845">
        <ele>210.70999</ele>
        <time>2023-04-24T13:52:02.000Z</time>
      </trkpt>
      <trkpt lat="45.85812" lon="4.68842">
        <ele>210.8344</ele>
        <time>2023-04-24T13:52:03.000Z</time>
      </trkpt>
      <trkpt lat="45.85812" lon="4.68839">
        <ele>210.97144</ele>
        <time>2023-04-24T13:52:04.000Z</time>
      </trkpt>
      <trkpt lat="45.85814" lon="4.68837">
        <ele>211.06258</ele>
        <time>2023-04-24T13:52:06.000Z</time>
      </trkpt>
      <trkpt lat="45.85816" lon="4.6884">
        <ele>211.14323</ele>
        <time>2023-04-24T13:52:07.000Z</time>
      </trkpt>
      <trkpt lat="45.85817" lon="4.68843">
        <ele>211.17725</ele>
        <time>2023-04-24T13:52:08.000Z</time>
      </trkpt>
      <trkpt lat="45.85817" lon="4.68845">
        <ele>211.19006</ele>
        <time>2023-04-24T13:52:09.000Z</time>
      </trkpt>
      <trkpt lat="45.85817" lon="4.6885">
        <ele>211.1683</ele>
        <time>2023-04-24T13:52:11.000Z</time>
      </trkpt>
      <trkpt lat="45.85817" lon="4.68854">
        <ele>211.31299</ele>
        <time>2023-04-24T13:52:12.000Z</time>
      </trkpt>
      <trkpt lat="45.85817" lon="4.68857">
        <ele>211.34773</ele>
        <time>2023-04-24T13:52:13.000Z</time>
      </trkpt>
      <trkpt lat="45.85819" lon="4.68859">
        <ele>211.46036</ele>
        <time>2023-04-24T13:52:14.000Z</time>
      </trkpt>
      <trkpt lat="45.85821" lon="4.68858">
        <ele>211.6414</ele>
        <time>2023-04-24T13:52:15.000Z</time>
      </trkpt>
      <trkpt lat="45.85823" lon="4.68857">
        <ele>211.90015</ele>
        <time>2023-04-24T13:52:16.000Z</time>
      </trkpt>
      <trkpt lat="45.85824" lon="4.68854">
        <ele>211.78484</ele>
        <time>2023-04-24T13:52:17.000Z</time>
      </trkpt>
      <trkpt lat="45.85825" lon="4.68849">
        <ele>211.61443</ele>
        <time>2023-04-24T13:52:18.000Z</time>
      </trkpt>
      <trkpt lat="45.85825" lon="4.68845">
        <ele>211.40475</ele>
        <time>2023-04-24T13:52:19.000Z</time>
      </trkpt>
      <trkpt lat="45.85825" lon="4.6884">
        <ele>211.53271</ele>
        <time>2023-04-24T13:52:20.000Z</time>
      </trkpt>
      <trkpt lat="45.85824" lon="4.68836">
        <ele>211.62337</ele>
        <time>2023-04-24T13:52:21.000Z</time>
      </trkpt>
      <trkpt lat="45.85823" lon="4.68833">
        <ele>211.65189</ele>
        <time>2023-04-24T13:52:22.000Z</time>
      </trkpt>
      <trkpt lat="45.85821" lon="4.6883">
        <ele>211.57092</ele>
        <time>2023-04-24T13:52:24.000Z</time>
      </trkpt>
      <trkpt lat="45.8582" lon="4.68827">
        <ele>211.45406</ele>
        <time>2023-04-24T13:52:25.000Z</time>
      </trkpt>
      <trkpt lat="45.85819" lon="4.68825">
        <ele>211.29195</ele>
        <time>2023-04-24T13:52:26.000Z</time>
      </trkpt>
      <trkpt lat="45.85818" lon="4.68822">
        <ele>211.10437</ele>
        <time>2023-04-24T13:52:27.000Z</time>
      </trkpt>
      <trkpt lat="45.85818" lon="4.68818">
        <ele>210.93002</ele>
        <time>2023-04-24T13:52:28.000Z</time>
      </trkpt>
      <trkpt lat="45.85818" lon="4.68814">
        <ele>210.78418</ele>
        <time>2023-04-24T13:52:29.000Z</time>
      </trkpt>
      <trkpt lat="45.85817" lon="4.6881">
        <ele>210.7009</ele>
        <time>2023-04-24T13:52:30.000Z</time>
      </trkpt>
      <trkpt lat="45.85817" lon="4.68806">
        <ele>210.68034</ele>
        <time>2023-04-24T13:52:31.000Z</time>
      </trkpt>
      <trkpt lat="45.85815" lon="4.68803">
        <ele>210.82846</ele>
        <time>2023-04-24T13:52:32.000Z</time>
      </trkpt>
      <trkpt lat="45.85814" lon="4.68799">
        <ele>210.8387</ele>
        <time>2023-04-24T13:52:33.000Z</time>
      </trkpt>
      <trkpt lat="45.85813" lon="4.68795">
        <ele>210.87881</ele>
        <time>2023-04-24T13:52:34.000Z</time>
      </trkpt>
      <trkpt lat="45.85812" lon="4.68792">
        <ele>210.88948</ele>
        <time>2023-04-24T13:52:35.000Z</time>
      </trkpt>
      <trkpt lat="45.85812" lon="4.68787">
        <ele>210.78696</ele>
        <time>2023-04-24T13:52:36.000Z</time>
      </trkpt>
      <trkpt lat="45.85811" lon="4.68783">
        <ele>210.68282</ele>
        <time>2023-04-24T13:52:37.000Z</time>
      </trkpt>
      <trkpt lat="45.85811" lon="4.68778">
        <ele>210.5936</ele>
        <time>2023-04-24T13:52:38.000Z</time>
      </trkpt>
      <trkpt lat="45.8581" lon="4.68773">
        <ele>210.48628</ele>
        <time>2023-04-24T13:52:39.000Z</time>
      </trkpt>
      <trkpt lat="45.8581" lon="4.68767">
        <ele>210.3394</ele>
        <time>2023-04-24T13:52:40.000Z</time>
      </trkpt>
      <trkpt lat="45.8581" lon="4.68761">
        <ele>210.18074</ele>
        <time>2023-04-24T13:52:41.000Z</time>
      </trkpt>
      <trkpt lat="45.8581" lon="4.68756">
        <ele>210.05627</ele>
        <time>2023-04-24T13:52:42.000Z</time>
      </trkpt>
      <trkpt lat="45.85811" lon="4.68751">
        <ele>209.86618</ele>
        <time>2023-04-24T13:52:43.000Z</time>
      </trkpt>
      <trkpt lat="45.85811" lon="4.68746">
        <ele>209.72905</ele>
        <time>2023-04-24T13:52:44.000Z</time>
      </trkpt>
      <trkpt lat="45.85811" lon="4.6874">
        <ele>209.56778</ele>
        <time>2023-04-24T13:52:45.000Z</time>
      </trkpt>
      <trkpt lat="45.85812" lon="4.68734">
        <ele>209.49283</ele>
        <time>2023-04-24T13:52:46.000Z</time>
      </trkpt>
      <trkpt lat="45.85812" lon="4.68729">
        <ele>209.4454</ele>
        <time>2023-04-24T13:52:47.000Z</time>
      </trkpt>
      <trkpt lat="45.85813" lon="4.68724">
        <ele>209.44162</ele>
        <time>2023-04-24T13:52:48.000Z</time>
      </trkpt>
      <trkpt lat="45.85813" lon="4.68719">
        <ele>209.41638</ele>
        <time>2023-04-24T13:52:49.000Z</time>
      </trkpt>
      <trkpt lat="45.85813" lon="4.68713">
        <ele>209.36104</ele>
        <time>2023-04-24T13:52:50.000Z</time>
      </trkpt>
      <trkpt lat="45.85814" lon="4.68707">
        <ele>209.23947</ele>
        <time>2023-04-24T13:52:51.000Z</time>
      </trkpt>
      <trkpt lat="45.85814" lon="4.68701">
        <ele>208.9799</ele>
        <time>2023-04-24T13:52:52.000Z</time>
      </trkpt>
      <trkpt lat="45.85815" lon="4.68696">
        <ele>208.69511</ele>
        <time>2023-04-24T13:52:53.000Z</time>
      </trkpt>
      <trkpt lat="45.85815" lon="4.6869">
        <ele>208.3624</ele>
        <time>2023-04-24T13:52:54.000Z</time>
      </trkpt>
      <trkpt lat="45.85816" lon="4.68685">
        <ele>208.02856</ele>
        <time>2023-04-24T13:52:55.000Z</time>
      </trkpt>
      <trkpt lat="45.85817" lon="4.68679">
        <ele>207.72673</ele>
        <time>2023-04-24T13:52:56.000Z</time>
      </trkpt>
      <trkpt lat="45.85817" lon="4.68674">
        <ele>207.35249</ele>
        <time>2023-04-24T13:52:57.000Z</time>
      </trkpt>
      <trkpt lat="45.85819" lon="4.68668">
        <ele>207.34702</ele>
        <time>2023-04-24T13:52:58.000Z</time>
      </trkpt>
      <trkpt lat="45.8582" lon="4.68662">
        <ele>207.46822</ele>
        <time>2023-04-24T13:52:59.000Z</time>
      </trkpt>
      <trkpt lat="45.85821" lon="4.68656">
        <ele>207.6331</ele>
        <time>2023-04-24T13:53:00.000Z</time>
      </trkpt>
      <trkpt lat="45.85822" lon="4.6865">
        <ele>207.77063</ele>
        <time>2023-04-24T13:53:01.000Z</time>
      </trkpt>
      <trkpt lat="45.85822" lon="4.68644">
        <ele>207.83427</ele>
        <time>2023-04-24T13:53:02.000Z</time>
      </trkpt>
      <trkpt lat="45.85822" lon="4.68638">
        <ele>207.9852</ele>
        <time>2023-04-24T13:53:03.000Z</time>
      </trkpt>
      <trkpt lat="45.85821" lon="4.68632">
        <ele>208.14893</ele>
        <time>2023-04-24T13:53:04.000Z</time>
      </trkpt>
      <trkpt lat="45.85821" lon="4.68627">
        <ele>208.34488</ele>
        <time>2023-04-24T13:53:05.000Z</time>
      </trkpt>
      <trkpt lat="45.85821" lon="4.68623">
        <ele>208.52068</ele>
        <time>2023-04-24T13:53:06.000Z</time>
      </trkpt>
      <trkpt lat="45.8582" lon="4.6862">
        <ele>208.69092</ele>
        <time>2023-04-24T13:53:07.000Z</time>
      </trkpt>
      <trkpt lat="45.8582" lon="4.68617">
        <ele>208.82748</ele>
        <time>2023-04-24T13:53:08.000Z</time>
      </trkpt>
      <trkpt lat="45.85819" lon="4.68613">
        <ele>208.98328</ele>
        <time>2023-04-24T13:53:09.000Z</time>
      </trkpt>
      <trkpt lat="45.85817" lon="4.68611">
        <ele>209.17151</ele>
        <time>2023-04-24T13:53:10.000Z</time>
      </trkpt>
      <trkpt lat="45.85817" lon="4.68608">
        <ele>209.35542</ele>
        <time>2023-04-24T13:53:11.000Z</time>
      </trkpt>
      <trkpt lat="45.85816" lon="4.68605">
        <ele>209.55203</ele>
        <time>2023-04-24T13:53:12.000Z</time>
      </trkpt>
      <trkpt lat="45.85815" lon="4.68602">
        <ele>209.83481</ele>
        <time>2023-04-24T13:53:13.000Z</time>
      </trkpt>
      <trkpt lat="45.85815" lon="4.68599">
        <ele>210.09163</ele>
        <time>2023-04-24T13:53:14.000Z</time>
      </trkpt>
      <trkpt lat="45.85815" lon="4.68596">
        <ele>210.29941</ele>
        <time>2023-04-24T13:53:15.000Z</time>
      </trkpt>
      <trkpt lat="45.85814" lon="4.68593">
        <ele>210.52292</ele>
        <time>2023-04-24T13:53:16.000Z</time>
      </trkpt>
      <trkpt lat="45.85814" lon="4.68591">
        <ele>210.73885</ele>
        <time>2023-04-24T13:53:17.000Z</time>
      </trkpt>
      <trkpt lat="45.85812" lon="4.68587">
        <ele>211.00662</ele>
        <time>2023-04-24T13:53:19.000Z</time>
      </trkpt>
      <trkpt lat="45.8581" lon="4.68587">
        <ele>211.14604</ele>
        <time>2023-04-24T13:53:20.000Z</time>
      </trkpt>
      <trkpt lat="45.85809" lon="4.68589">
        <ele>210.92139</ele>
        <time>2023-04-24T13:53:21.000Z</time>
      </trkpt>
      <trkpt lat="45.8581" lon="4.68594">
        <ele>210.71465</ele>
        <time>2023-04-24T13:53:22.000Z</time>
      </trkpt>
      <trkpt lat="45.85811" lon="4.68598">
        <ele>210.52686</ele>
        <time>2023-04-24T13:53:23.000Z</time>
      </trkpt>
      <trkpt lat="45.85813" lon="4.68602">
        <ele>210.34903</ele>
        <time>2023-04-24T13:53:24.000Z</time>
      </trkpt>
      <trkpt lat="45.85814" lon="4.68607">
        <ele>210.16423</ele>
        <time>2023-04-24T13:53:25.000Z</time>
      </trkpt>
      <trkpt lat="45.85815" lon="4.68612">
        <ele>209.99954</ele>
        <time>2023-04-24T13:53:26.000Z</time>
      </trkpt>
      <trkpt lat="45.85816" lon="4.68617">
        <ele>209.81357</ele>
        <time>2023-04-24T13:53:27.000Z</time>
      </trkpt>
      <trkpt lat="45.85815" lon="4.68622">
        <ele>209.65402</ele>
        <time>2023-04-24T13:53:28.000Z</time>
      </trkpt>
      <trkpt lat="45.85814" lon="4.68627">
        <ele>209.51082</ele>
        <time>2023-04-24T13:53:29.000Z</time>
      </trkpt>
      <trkpt lat="45.85812" lon="4.68631">
        <ele>209.36995</ele>
        <time>2023-04-24T13:53:30.000Z</time>
      </trkpt>
      <trkpt lat="45.8581" lon="4.68634">
        <ele>209.21567</ele>
        <time>2023-04-24T13:53:31.000Z</time>
      </trkpt>
      <trkpt lat="45.85807" lon="4.68636">
        <ele>209.23401</ele>
        <time>2023-04-24T13:53:32.000Z</time>
      </trkpt>
      <trkpt lat="45.85804" lon="4.68639">
        <ele>209.233</ele>
        <time>2023-04-24T13:53:33.000Z</time>
      </trkpt>
      <trkpt lat="45.85801" lon="4.6864">
        <ele>209.15869</ele>
        <time>2023-04-24T13:53:34.000Z</time>
      </trkpt>
      <trkpt lat="45.85799" lon="4.68642">
        <ele>209.09677</ele>
        <time>2023-04-24T13:53:35.000Z</time>
      </trkpt>
      <trkpt lat="45.85796" lon="4.68644">
        <ele>209.02803</ele>
        <time>2023-04-24T13:53:36.000Z</time>
      </trkpt>
      <trkpt lat="45.85794" lon="4.68646">
        <ele>208.97086</ele>
        <time>2023-04-24T13:53:37.000Z</time>
      </trkpt>
      <trkpt lat="45.85791" lon="4.68648">
        <ele>208.90012</ele>
        <time>2023-04-24T13:53:38.000Z</time>
      </trkpt>
      <trkpt lat="45.85788" lon="4.68651">
        <ele>208.89011</ele>
        <time>2023-04-24T13:53:39.000Z</time>
      </trkpt>
      <trkpt lat="45.85784" lon="4.68655">
        <ele>208.892</ele>
        <time>2023-04-24T13:53:40.000Z</time>
      </trkpt>
      <trkpt lat="45.8578" lon="4.68658">
        <ele>209.24734</ele>
        <time>2023-04-24T13:53:41.000Z</time>
      </trkpt>
      <trkpt lat="45.85777" lon="4.68661">
        <ele>209.2627</ele>
        <time>2023-04-24T13:53:42.000Z</time>
      </trkpt>
      <trkpt lat="45.85773" lon="4.68664">
        <ele>209.29947</ele>
        <time>2023-04-24T13:53:43.000Z</time>
      </trkpt>
      <trkpt lat="45.85769" lon="4.68667">
        <ele>209.33395</ele>
        <time>2023-04-24T13:53:44.000Z</time>
      </trkpt>
      <trkpt lat="45.85764" lon="4.68669">
        <ele>209.37383</ele>
        <time>2023-04-24T13:53:45.000Z</time>
      </trkpt>
      <trkpt lat="45.8576" lon="4.68671">
        <ele>209.42752</ele>
        <time>2023-04-24T13:53:46.000Z</time>
      </trkpt>
      <trkpt lat="45.85756" lon="4.68672">
        <ele>209.46829</ele>
        <time>2023-04-24T13:53:47.000Z</time>
      </trkpt>
      <trkpt lat="45.85751" lon="4.68675">
        <ele>209.49478</ele>
        <time>2023-04-24T13:53:48.000Z</time>
      </trkpt>
      <trkpt lat="45.85747" lon="4.68677">
        <ele>209.52437</ele>
        <time>2023-04-24T13:53:49.000Z</time>
      </trkpt>
      <trkpt lat="45.85742" lon="4.68679">
        <ele>209.52705</ele>
        <time>2023-04-24T13:53:50.000Z</time>
      </trkpt>
      <trkpt lat="45.85738" lon="4.68682">
        <ele>209.52031</ele>
        <time>2023-04-24T13:53:51.000Z</time>
      </trkpt>
      <trkpt lat="45.85734" lon="4.68682">
        <ele>209.46664</ele>
        <time>2023-04-24T13:53:52.000Z</time>
      </trkpt>
      <trkpt lat="45.8573" lon="4.68682">
        <ele>209.54971</ele>
        <time>2023-04-24T13:53:53.000Z</time>
      </trkpt>
      <trkpt lat="45.85726" lon="4.68683">
        <ele>209.63684</ele>
        <time>2023-04-24T13:53:54.000Z</time>
      </trkpt>
      <trkpt lat="45.85722" lon="4.68685">
        <ele>209.34106</ele>
        <time>2023-04-24T13:53:55.000Z</time>
      </trkpt>
      <trkpt lat="45.85717" lon="4.68687">
        <ele>209.09749</ele>
        <time>2023-04-24T13:53:56.000Z</time>
      </trkpt>
      <trkpt lat="45.85714" lon="4.68688">
        <ele>208.82451</ele>
        <time>2023-04-24T13:53:57.000Z</time>
      </trkpt>
      <trkpt lat="45.85709" lon="4.6869">
        <ele>208.56877</ele>
        <time>2023-04-24T13:53:58.000Z</time>
      </trkpt>
      <trkpt lat="45.85705" lon="4.68691">
        <ele>208.18912</ele>
        <time>2023-04-24T13:53:59.000Z</time>
      </trkpt>
      <trkpt lat="45.857" lon="4.68692">
        <ele>207.82858</ele>
        <time>2023-04-24T13:54:00.000Z</time>
      </trkpt>
      <trkpt lat="45.85696" lon="4.68693">
        <ele>207.45529</ele>
        <time>2023-04-24T13:54:01.000Z</time>
      </trkpt>
      <trkpt lat="45.85691" lon="4.68694">
        <ele>207.38681</ele>
        <time>2023-04-24T13:54:02.000Z</time>
      </trkpt>
      <trkpt lat="45.85687" lon="4.68695">
        <ele>207.28389</ele>
        <time>2023-04-24T13:54:03.000Z</time>
      </trkpt>
      <trkpt lat="45.85683" lon="4.68696">
        <ele>207.14555</ele>
        <time>2023-04-24T13:54:04.000Z</time>
      </trkpt>
      <trkpt lat="45.85678" lon="4.68697">
        <ele>206.99744</ele>
        <time>2023-04-24T13:54:05.000Z</time>
      </trkpt>
      <trkpt lat="45.85674" lon="4.68698">
        <ele>206.84192</ele>
        <time>2023-04-24T13:54:06.000Z</time>
      </trkpt>
      <trkpt lat="45.85669" lon="4.687">
        <ele>206.71159</ele>
        <time>2023-04-24T13:54:07.000Z</time>
      </trkpt>
      <trkpt lat="45.85665" lon="4.68701">
        <ele>206.58069</ele>
        <time>2023-04-24T13:54:08.000Z</time>
      </trkpt>
      <trkpt lat="45.85661" lon="4.68702">
        <ele>206.44983</ele>
        <time>2023-04-24T13:54:09.000Z</time>
      </trkpt>
      <trkpt lat="45.85656" lon="4.68703">
        <ele>206.52254</ele>
        <time>2023-04-24T13:54:10.000Z</time>
      </trkpt>
      <trkpt lat="45.85652" lon="4.68704">
        <ele>206.59897</ele>
        <time>2023-04-24T13:54:11.000Z</time>
      </trkpt>
      <trkpt lat="45.85648" lon="4.68706">
        <ele>206.55765</ele>
        <time>2023-04-24T13:54:12.000Z</time>
      </trkpt>
      <trkpt lat="45.85644" lon="4.68707">
        <ele>206.51794</ele>
        <time>2023-04-24T13:54:13.000Z</time>
      </trkpt>
      <trkpt lat="45.85639" lon="4.68709">
        <ele>206.47469</ele>
        <time>2023-04-24T13:54:14.000Z</time>
      </trkpt>
      <trkpt lat="45.85635" lon="4.6871">
        <ele>206.4698</ele>
        <time>2023-04-24T13:54:15.000Z</time>
      </trkpt>
      <trkpt lat="45.85631" lon="4.68711">
        <ele>206.47705</ele>
        <time>2023-04-24T13:54:16.000Z</time>
      </trkpt>
      <trkpt lat="45.85627" lon="4.68712">
        <ele>206.56882</ele>
        <time>2023-04-24T13:54:17.000Z</time>
      </trkpt>
      <trkpt lat="45.85623" lon="4.68714">
        <ele>206.63725</ele>
        <time>2023-04-24T13:54:18.000Z</time>
      </trkpt>
      <trkpt lat="45.85619" lon="4.68716">
        <ele>206.69389</ele>
        <time>2023-04-24T13:54:19.000Z</time>
      </trkpt>
      <trkpt lat="45.85615" lon="4.68718">
        <ele>206.73154</ele>
        <time>2023-04-24T13:54:20.000Z</time>
      </trkpt>
      <trkpt lat="45.85611" lon="4.6872">
        <ele>206.76645</ele>
        <time>2023-04-24T13:54:21.000Z</time>
      </trkpt>
      <trkpt lat="45.85607" lon="4.68722">
        <ele>206.83902</ele>
        <time>2023-04-24T13:54:22.000Z</time>
      </trkpt>
      <trkpt lat="45.85604" lon="4.68724">
        <ele>206.90337</ele>
        <time>2023-04-24T13:54:23.000Z</time>
      </trkpt>
      <trkpt lat="45.856" lon="4.68727">
        <ele>207.14375</ele>
        <time>2023-04-24T13:54:24.000Z</time>
      </trkpt>
      <trkpt lat="45.85597" lon="4.68729">
        <ele>207.45792</ele>
        <time>2023-04-24T13:54:25.000Z</time>
      </trkpt>
      <trkpt lat="45.85593" lon="4.68731">
        <ele>207.85046</ele>
        <time>2023-04-24T13:54:26.000Z</time>
      </trkpt>
      <trkpt lat="45.8559" lon="4.68734">
        <ele>207.8748</ele>
        <time>2023-04-24T13:54:27.000Z</time>
      </trkpt>
      <trkpt lat="45.85586" lon="4.68735">
        <ele>207.92879</ele>
        <time>2023-04-24T13:54:28.000Z</time>
      </trkpt>
      <trkpt lat="45.85583" lon="4.68736">
        <ele>207.98752</ele>
        <time>2023-04-24T13:54:29.000Z</time>
      </trkpt>
      <trkpt lat="45.8558" lon="4.68737">
        <ele>207.86719</ele>
        <time>2023-04-24T13:54:30.000Z</time>
      </trkpt>
      <trkpt lat="45.85577" lon="4.68738">
        <ele>207.74304</ele>
        <time>2023-04-24T13:54:31.000Z</time>
      </trkpt>
      <trkpt lat="45.85575" lon="4.68738">
        <ele>207.64389</ele>
        <time>2023-04-24T13:54:32.000Z</time>
      </trkpt>
      <trkpt lat="45.85573" lon="4.68737">
        <ele>207.54362</ele>
        <time>2023-04-24T13:55:02.000Z</time>
      </trkpt>
      <trkpt lat="45.85571" lon="4.68739">
        <ele>207.36848</ele>
        <time>2023-04-24T13:55:07.000Z</time>
      </trkpt>
      <trkpt lat="45.85569" lon="4.68742">
        <ele>207.64902</ele>
        <time>2023-04-24T13:55:09.000Z</time>
      </trkpt>
      <trkpt lat="45.85567" lon="4.68744">
        <ele>207.9559</ele>
        <time>2023-04-24T13:55:11.000Z</time>
      </trkpt>
      <trkpt lat="45.85564" lon="4.68747">
        <ele>208.24576</ele>
        <time>2023-04-24T13:55:13.000Z</time>
      </trkpt>
      <trkpt lat="45.85562" lon="4.6875">
        <ele>208.54126</ele>
        <time>2023-04-24T13:55:14.000Z</time>
      </trkpt>
      <trkpt lat="45.85561" lon="4.68754">
        <ele>208.79512</ele>
        <time>2023-04-24T13:55:15.000Z</time>
      </trkpt>
      <trkpt lat="45.85559" lon="4.68758">
        <ele>208.98227</ele>
        <time>2023-04-24T13:55:16.000Z</time>
      </trkpt>
      <trkpt lat="45.85558" lon="4.68762">
        <ele>209.20972</ele>
        <time>2023-04-24T13:55:17.000Z</time>
      </trkpt>
      <trkpt lat="45.85557" lon="4.68766">
        <ele>209.41631</ele>
        <time>2023-04-24T13:55:18.000Z</time>
      </trkpt>
      <trkpt lat="45.85556" lon="4.68771">
        <ele>209.65042</ele>
        <time>2023-04-24T13:55:19.000Z</time>
      </trkpt>
      <trkpt lat="45.85557" lon="4.68776">
        <ele>209.72832</ele>
        <time>2023-04-24T13:55:20.000Z</time>
      </trkpt>
      <trkpt lat="45.85558" lon="4.68782">
        <ele>209.78146</ele>
        <time>2023-04-24T13:55:21.000Z</time>
      </trkpt>
      <trkpt lat="45.85558" lon="4.68788">
        <ele>209.71909</ele>
        <time>2023-04-24T13:55:22.000Z</time>
      </trkpt>
      <trkpt lat="45.8556" lon="4.68795">
        <ele>209.99702</ele>
        <time>2023-04-24T13:55:23.000Z</time>
      </trkpt>
      <trkpt lat="45.85561" lon="4.68802">
        <ele>210.25188</ele>
        <time>2023-04-24T13:55:24.000Z</time>
      </trkpt>
      <trkpt lat="45.85561" lon="4.68809">
        <ele>210.46623</ele>
        <time>2023-04-24T13:55:25.000Z</time>
      </trkpt>
      <trkpt lat="45.85562" lon="4.68815">
        <ele>210.70663</ele>
        <time>2023-04-24T13:55:26.000Z</time>
      </trkpt>
      <trkpt lat="45.85562" lon="4.68822">
        <ele>210.95366</ele>
        <time>2023-04-24T13:55:27.000Z</time>
      </trkpt>
      <trkpt lat="45.85563" lon="4.68828">
        <ele>211.14334</ele>
        <time>2023-04-24T13:55:28.000Z</time>
      </trkpt>
      <trkpt lat="45.85563" lon="4.68834">
        <ele>211.21582</ele>
        <time>2023-04-24T13:55:29.000Z</time>
      </trkpt>
      <trkpt lat="45.85564" lon="4.68841">
        <ele>211.62265</ele>
        <time>2023-04-24T13:55:30.000Z</time>
      </trkpt>
      <trkpt lat="45.85565" lon="4.68847">
        <ele>212.01006</ele>
        <time>2023-04-24T13:55:31.000Z</time>
      </trkpt>
      <trkpt lat="45.85566" lon="4.68854">
        <ele>212.31136</ele>
        <time>2023-04-24T13:55:32.000Z</time>
      </trkpt>
      <trkpt lat="45.85567" lon="4.68861">
        <ele>212.14331</ele>
        <time>2023-04-24T13:55:33.000Z</time>
      </trkpt>
      <trkpt lat="45.85567" lon="4.68867">
        <ele>212.08704</ele>
        <time>2023-04-24T13:55:34.000Z</time>
      </trkpt>
      <trkpt lat="45.85567" lon="4.68874">
        <ele>212.09648</ele>
        <time>2023-04-24T13:55:35.000Z</time>
      </trkpt>
      <trkpt lat="45.85568" lon="4.68881">
        <ele>212.19209</ele>
        <time>2023-04-24T13:55:36.000Z</time>
      </trkpt>
      <trkpt lat="45.85569" lon="4.68887">
        <ele>212.25053</ele>
        <time>2023-04-24T13:55:37.000Z</time>
      </trkpt>
      <trkpt lat="45.85569" lon="4.68895">
        <ele>212.33499</ele>
        <time>2023-04-24T13:55:38.000Z</time>
      </trkpt>
      <trkpt lat="45.8557" lon="4.68901">
        <ele>212.39417</ele>
        <time>2023-04-24T13:55:39.000Z</time>
      </trkpt>
      <trkpt lat="45.8557" lon="4.68907">
        <ele>212.42538</ele>
        <time>2023-04-24T13:55:40.000Z</time>
      </trkpt>
      <trkpt lat="45.8557" lon="4.68913">
        <ele>212.41753</ele>
        <time>2023-04-24T13:55:41.000Z</time>
      </trkpt>
      <trkpt lat="45.85572" lon="4.6892">
        <ele>212.46753</ele>
        <time>2023-04-24T13:55:42.000Z</time>
      </trkpt>
      <trkpt lat="45.85573" lon="4.68927">
        <ele>212.54703</ele>
        <time>2023-04-24T13:55:43.000Z</time>
      </trkpt>
      <trkpt lat="45.85574" lon="4.68934">
        <ele>212.58569</ele>
        <time>2023-04-24T13:55:44.000Z</time>
      </trkpt>
      <trkpt lat="45.85574" lon="4.68941">
        <ele>212.6561</ele>
        <time>2023-04-24T13:55:45.000Z</time>
      </trkpt>
      <trkpt lat="45.85575" lon="4.68947">
        <ele>212.95476</ele>
        <time>2023-04-24T13:55:46.000Z</time>
      </trkpt>
      <trkpt lat="45.85575" lon="4.68954">
        <ele>213.26604</ele>
        <time>2023-04-24T13:55:47.000Z</time>
      </trkpt>
      <trkpt lat="45.85575" lon="4.68961">
        <ele>213.63701</ele>
        <time>2023-04-24T13:55:48.000Z</time>
      </trkpt>
      <trkpt lat="45.85576" lon="4.68967">
        <ele>214.05449</ele>
        <time>2023-04-24T13:55:49.000Z</time>
      </trkpt>
      <trkpt lat="45.85575" lon="4.68974">
        <ele>213.73547</ele>
        <time>2023-04-24T13:55:50.000Z</time>
      </trkpt>
      <trkpt lat="45.85576" lon="4.6898">
        <ele>213.38498</ele>
        <time>2023-04-24T13:55:51.000Z</time>
      </trkpt>
      <trkpt lat="45.85577" lon="4.68987">
        <ele>213.05664</ele>
        <time>2023-04-24T13:55:52.000Z</time>
      </trkpt>
      <trkpt lat="45.85578" lon="4.68995">
        <ele>213.14766</ele>
        <time>2023-04-24T13:55:53.000Z</time>
      </trkpt>
      <trkpt lat="45.85579" lon="4.69002">
        <ele>213.14282</ele>
        <time>2023-04-24T13:55:54.000Z</time>
      </trkpt>
      <trkpt lat="45.85579" lon="4.69009">
        <ele>213.16875</ele>
        <time>2023-04-24T13:55:55.000Z</time>
      </trkpt>
      <trkpt lat="45.8558" lon="4.69017">
        <ele>213.41093</ele>
        <time>2023-04-24T13:55:56.000Z</time>
      </trkpt>
      <trkpt lat="45.85581" lon="4.69024">
        <ele>213.73665</ele>
        <time>2023-04-24T13:55:57.000Z</time>
      </trkpt>
      <trkpt lat="45.85581" lon="4.6903">
        <ele>213.62854</ele>
        <time>2023-04-24T13:55:58.000Z</time>
      </trkpt>
      <trkpt lat="45.85581" lon="4.69038">
        <ele>213.59933</ele>
        <time>2023-04-24T13:55:59.000Z</time>
      </trkpt>
      <trkpt lat="45.85582" lon="4.69044">
        <ele>213.54367</ele>
        <time>2023-04-24T13:56:00.000Z</time>
      </trkpt>
      <trkpt lat="45.85583" lon="4.69051">
        <ele>213.52718</ele>
        <time>2023-04-24T13:56:01.000Z</time>
      </trkpt>
      <trkpt lat="45.85584" lon="4.69057">
        <ele>213.5002</ele>
        <time>2023-04-24T13:56:02.000Z</time>
      </trkpt>
      <trkpt lat="45.85586" lon="4.69062">
        <ele>213.52719</ele>
        <time>2023-04-24T13:56:03.000Z</time>
      </trkpt>
      <trkpt lat="45.85586" lon="4.69068">
        <ele>213.83211</ele>
        <time>2023-04-24T13:56:04.000Z</time>
      </trkpt>
      <trkpt lat="45.85586" lon="4.69074">
        <ele>214.13383</ele>
        <time>2023-04-24T13:56:05.000Z</time>
      </trkpt>
      <trkpt lat="45.85586" lon="4.69082">
        <ele>214.18323</ele>
        <time>2023-04-24T13:56:06.000Z</time>
      </trkpt>
      <trkpt lat="45.85587" lon="4.69089">
        <ele>214.19234</ele>
        <time>2023-04-24T13:56:07.000Z</time>
      </trkpt>
      <trkpt lat="45.85587" lon="4.69096">
        <ele>214.24678</ele>
        <time>2023-04-24T13:56:08.000Z</time>
      </trkpt>
      <trkpt lat="45.85587" lon="4.69103">
        <ele>214.26216</ele>
        <time>2023-04-24T13:56:09.000Z</time>
      </trkpt>
      <trkpt lat="45.85588" lon="4.69109">
        <ele>214.31009</ele>
        <time>2023-04-24T13:56:10.000Z</time>
      </trkpt>
      <trkpt lat="45.85589" lon="4.69116">
        <ele>214.37663</ele>
        <time>2023-04-24T13:56:11.000Z</time>
      </trkpt>
      <trkpt lat="45.8559" lon="4.69122">
        <ele>214.40625</ele>
        <time>2023-04-24T13:56:12.000Z</time>
      </trkpt>
      <trkpt lat="45.85591" lon="4.69129">
        <ele>214.44315</ele>
        <time>2023-04-24T13:56:13.000Z</time>
      </trkpt>
      <trkpt lat="45.85592" lon="4.69135">
        <ele>214.47415</ele>
        <time>2023-04-24T13:56:14.000Z</time>
      </trkpt>
      <trkpt lat="45.85593" lon="4.69141">
        <ele>214.47127</ele>
        <time>2023-04-24T13:56:15.000Z</time>
      </trkpt>
      <trkpt lat="45.85593" lon="4.69148">
        <ele>214.23184</ele>
        <time>2023-04-24T13:56:16.000Z</time>
      </trkpt>
      <trkpt lat="45.85594" lon="4.69153">
        <ele>213.91206</ele>
        <time>2023-04-24T13:56:17.000Z</time>
      </trkpt>
      <trkpt lat="45.85594" lon="4.69159">
        <ele>214.00935</ele>
        <time>2023-04-24T13:56:18.000Z</time>
      </trkpt>
      <trkpt lat="45.85595" lon="4.69166">
        <ele>214.03491</ele>
        <time>2023-04-24T13:56:19.000Z</time>
      </trkpt>
      <trkpt lat="45.85595" lon="4.69172">
        <ele>214.09766</ele>
        <time>2023-04-24T13:56:20.000Z</time>
      </trkpt>
      <trkpt lat="45.85597" lon="4.69178">
        <ele>214.1313</ele>
        <time>2023-04-24T13:56:21.000Z</time>
      </trkpt>
      <trkpt lat="45.85597" lon="4.69184">
        <ele>214.09854</ele>
        <time>2023-04-24T13:56:22.000Z</time>
      </trkpt>
      <trkpt lat="45.85597" lon="4.69189">
        <ele>214.04846</ele>
        <time>2023-04-24T13:56:23.000Z</time>
      </trkpt>
      <trkpt lat="45.85597" lon="4.69195">
        <ele>213.76591</ele>
        <time>2023-04-24T13:56:24.000Z</time>
      </trkpt>
      <trkpt lat="45.85598" lon="4.69202">
        <ele>213.47787</ele>
        <time>2023-04-24T13:56:25.000Z</time>
      </trkpt>
      <trkpt lat="45.85598" lon="4.69207">
        <ele>213.18521</ele>
        <time>2023-04-24T13:56:26.000Z</time>
      </trkpt>
      <trkpt lat="45.85598" lon="4.69213">
        <ele>212.90347</ele>
        <time>2023-04-24T13:56:27.000Z</time>
      </trkpt>
      <trkpt lat="45.85598" lon="4.69219">
        <ele>212.5563</ele>
        <time>2023-04-24T13:56:28.000Z</time>
      </trkpt>
      <trkpt lat="45.85598" lon="4.69225">
        <ele>212.47099</ele>
        <time>2023-04-24T13:56:29.000Z</time>
      </trkpt>
      <trkpt lat="45.85599" lon="4.6923">
        <ele>212.91277</ele>
        <time>2023-04-24T13:56:30.000Z</time>
      </trkpt>
      <trkpt lat="45.85599" lon="4.69234">
        <ele>213.27554</ele>
        <time>2023-04-24T13:56:31.000Z</time>
      </trkpt>
      <trkpt lat="45.85599" lon="4.69238">
        <ele>213.26042</ele>
        <time>2023-04-24T13:56:32.000Z</time>
      </trkpt>
      <trkpt lat="45.85599" lon="4.69243">
        <ele>213.28792</ele>
        <time>2023-04-24T13:56:33.000Z</time>
      </trkpt>
      <trkpt lat="45.85598" lon="4.69246">
        <ele>213.35886</ele>
        <time>2023-04-24T13:56:34.000Z</time>
      </trkpt>
      <trkpt lat="45.85596" lon="4.69248">
        <ele>213.53731</ele>
        <time>2023-04-24T13:56:35.000Z</time>
      </trkpt>
      <trkpt lat="45.85593" lon="4.69249">
        <ele>213.75142</ele>
        <time>2023-04-24T13:56:36.000Z</time>
      </trkpt>
      <trkpt lat="45.85589" lon="4.6925">
        <ele>214.06075</ele>
        <time>2023-04-24T13:56:37.000Z</time>
      </trkpt>
      <trkpt lat="45.85586" lon="4.69249">
        <ele>214.42068</ele>
        <time>2023-04-24T13:56:38.000Z</time>
      </trkpt>
      <trkpt lat="45.85584" lon="4.69248">
        <ele>214.68904</ele>
        <time>2023-04-24T13:56:39.000Z</time>
      </trkpt>
      <trkpt lat="45.85582" lon="4.69248">
        <ele>214.90849</ele>
        <time>2023-04-24T13:56:40.000Z</time>
      </trkpt>
      <trkpt lat="45.8558" lon="4.69248">
        <ele>215.04602</ele>
        <time>2023-04-24T13:56:41.000Z</time>
      </trkpt>
      <trkpt lat="45.85578" lon="4.69248">
        <ele>215.20065</ele>
        <time>2023-04-24T13:56:42.000Z</time>
      </trkpt>
      <trkpt lat="45.85576" lon="4.69248">
        <ele>215.27153</ele>
        <time>2023-04-24T13:56:43.000Z</time>
      </trkpt>
      <trkpt lat="45.85574" lon="4.69249">
        <ele>215.29944</ele>
        <time>2023-04-24T13:56:44.000Z</time>
      </trkpt>
      <trkpt lat="45.85572" lon="4.69251">
        <ele>215.30685</ele>
        <time>2023-04-24T13:56:45.000Z</time>
      </trkpt>
      <trkpt lat="45.85569" lon="4.69252">
        <ele>215.29053</ele>
        <time>2023-04-24T13:56:46.000Z</time>
      </trkpt>
      <trkpt lat="45.85566" lon="4.69253">
        <ele>215.65018</ele>
        <time>2023-04-24T13:56:47.000Z</time>
      </trkpt>
      <trkpt lat="45.85563" lon="4.69253">
        <ele>216.12915</ele>
        <time>2023-04-24T13:56:48.000Z</time>
      </trkpt>
      <trkpt lat="45.8556" lon="4.69253">
        <ele>216.32515</ele>
        <time>2023-04-24T13:56:49.000Z</time>
      </trkpt>
      <trkpt lat="45.85557" lon="4.69253">
        <ele>215.99899</ele>
        <time>2023-04-24T13:56:50.000Z</time>
      </trkpt>
      <trkpt lat="45.85554" lon="4.69253">
        <ele>215.76572</ele>
        <time>2023-04-24T13:56:51.000Z</time>
      </trkpt>
      <trkpt lat="45.85552" lon="4.69254">
        <ele>216.01758</ele>
        <time>2023-04-24T13:56:52.000Z</time>
      </trkpt>
      <trkpt lat="45.85549" lon="4.69256">
        <ele>216.1749</ele>
        <time>2023-04-24T13:56:53.000Z</time>
      </trkpt>
      <trkpt lat="45.85546" lon="4.69257">
        <ele>216.30209</ele>
        <time>2023-04-24T13:56:54.000Z</time>
      </trkpt>
      <trkpt lat="45.85544" lon="4.69258">
        <ele>216.34468</ele>
        <time>2023-04-24T13:56:55.000Z</time>
      </trkpt>
      <trkpt lat="45.85541" lon="4.69258">
        <ele>216.35234</ele>
        <time>2023-04-24T13:56:56.000Z</time>
      </trkpt>
      <trkpt lat="45.85538" lon="4.69257">
        <ele>216.60062</ele>
        <time>2023-04-24T13:56:57.000Z</time>
      </trkpt>
      <trkpt lat="45.85535" lon="4.69257">
        <ele>216.14893</ele>
        <time>2023-04-24T13:56:58.000Z</time>
      </trkpt>
      <trkpt lat="45.85533" lon="4.69258">
        <ele>215.78116</ele>
        <time>2023-04-24T13:56:59.000Z</time>
      </trkpt>
      <trkpt lat="45.85531" lon="4.69259">
        <ele>215.50247</ele>
        <time>2023-04-24T13:57:00.000Z</time>
      </trkpt>
      <trkpt lat="45.85527" lon="4.69261">
        <ele>215.61548</ele>
        <time>2023-04-24T13:57:02.000Z</time>
      </trkpt>
      <trkpt lat="45.85525" lon="4.6926">
        <ele>215.68303</ele>
        <time>2023-04-24T13:57:03.000Z</time>
      </trkpt>
      <trkpt lat="45.85523" lon="4.6926">
        <ele>215.68213</ele>
        <time>2023-04-24T13:57:04.000Z</time>
      </trkpt>
      <trkpt lat="45.8552" lon="4.6926">
        <ele>215.71902</ele>
        <time>2023-04-24T13:57:05.000Z</time>
      </trkpt>
      <trkpt lat="45.85518" lon="4.6926">
        <ele>215.86948</ele>
        <time>2023-04-24T13:57:06.000Z</time>
      </trkpt>
      <trkpt lat="45.85515" lon="4.6926">
        <ele>216.06735</ele>
        <time>2023-04-24T13:57:07.000Z</time>
      </trkpt>
      <trkpt lat="45.85512" lon="4.6926">
        <ele>215.9664</ele>
        <time>2023-04-24T13:57:08.000Z</time>
      </trkpt>
      <trkpt lat="45.85509" lon="4.6926">
        <ele>215.73003</ele>
        <time>2023-04-24T13:57:09.000Z</time>
      </trkpt>
      <trkpt lat="45.85506" lon="4.6926">
        <ele>215.72758</ele>
        <time>2023-04-24T13:57:10.000Z</time>
      </trkpt>
      <trkpt lat="45.85503" lon="4.69261">
        <ele>216.14218</ele>
        <time>2023-04-24T13:57:11.000Z</time>
      </trkpt>
      <trkpt lat="45.85499" lon="4.69261">
        <ele>216.42117</ele>
        <time>2023-04-24T13:57:12.000Z</time>
      </trkpt>
      <trkpt lat="45.85496" lon="4.69262">
        <ele>216.56934</ele>
        <time>2023-04-24T13:57:13.000Z</time>
      </trkpt>
      <trkpt lat="45.85493" lon="4.69261">
        <ele>217.00864</ele>
        <time>2023-04-24T13:57:14.000Z</time>
      </trkpt>
      <trkpt lat="45.85489" lon="4.69261">
        <ele>216.97266</ele>
        <time>2023-04-24T13:57:15.000Z</time>
      </trkpt>
      <trkpt lat="45.85484" lon="4.69261">
        <ele>216.99142</ele>
        <time>2023-04-24T13:57:16.000Z</time>
      </trkpt>
      <trkpt lat="45.8548" lon="4.6926">
        <ele>216.78955</ele>
        <time>2023-04-24T13:57:17.000Z</time>
      </trkpt>
      <trkpt lat="45.85475" lon="4.69258">
        <ele>216.17937</ele>
        <time>2023-04-24T13:57:18.000Z</time>
      </trkpt>
      <trkpt lat="45.8547" lon="4.69258">
        <ele>216.29459</ele>
        <time>2023-04-24T13:57:19.000Z</time>
      </trkpt>
      <trkpt lat="45.85465" lon="4.69256">
        <ele>216.47363</ele>
        <time>2023-04-24T13:57:20.000Z</time>
      </trkpt>
      <trkpt lat="45.85461" lon="4.69254">
        <ele>216.57837</ele>
        <time>2023-04-24T13:57:21.000Z</time>
      </trkpt>
      <trkpt lat="45.85456" lon="4.69251">
        <ele>216.28125</ele>
        <time>2023-04-24T13:57:22.000Z</time>
      </trkpt>
      <trkpt lat="45.85452" lon="4.69247">
        <ele>216.08003</ele>
        <time>2023-04-24T13:57:23.000Z</time>
      </trkpt>
      <trkpt lat="45.85448" lon="4.69244">
        <ele>215.96048</ele>
        <time>2023-04-24T13:57:24.000Z</time>
      </trkpt>
      <trkpt lat="45.85444" lon="4.6924">
        <ele>215.8007</ele>
        <time>2023-04-24T13:57:25.000Z</time>
      </trkpt>
      <trkpt lat="45.85441" lon="4.69235">
        <ele>215.53975</ele>
        <time>2023-04-24T13:57:26.000Z</time>
      </trkpt>
      <trkpt lat="45.85437" lon="4.69232">
        <ele>215.2793</ele>
        <time>2023-04-24T13:57:27.000Z</time>
      </trkpt>
      <trkpt lat="45.85433" lon="4.69228">
        <ele>214.91409</ele>
        <time>2023-04-24T13:57:28.000Z</time>
      </trkpt>
      <trkpt lat="45.85429" lon="4.69224">
        <ele>214.55505</ele>
        <time>2023-04-24T13:57:29.000Z</time>
      </trkpt>
      <trkpt lat="45.85425" lon="4.6922">
        <ele>213.91768</ele>
        <time>2023-04-24T13:57:30.000Z</time>
      </trkpt>
      <trkpt lat="45.85421" lon="4.69217">
        <ele>213.3002</ele>
        <time>2023-04-24T13:57:31.000Z</time>
      </trkpt>
      <trkpt lat="45.85416" lon="4.69213">
        <ele>212.75679</ele>
        <time>2023-04-24T13:57:32.000Z</time>
      </trkpt>
      <trkpt lat="45.85412" lon="4.69209">
        <ele>212.27031</ele>
        <time>2023-04-24T13:57:33.000Z</time>
      </trkpt>
      <trkpt lat="45.85408" lon="4.69205">
        <ele>211.55185</ele>
        <time>2023-04-24T13:57:34.000Z</time>
      </trkpt>
      <trkpt lat="45.85404" lon="4.69202">
        <ele>211.28789</ele>
        <time>2023-04-24T13:57:35.000Z</time>
      </trkpt>
      <trkpt lat="45.85399" lon="4.69198">
        <ele>210.91382</ele>
        <time>2023-04-24T13:57:36.000Z</time>
      </trkpt>
      <trkpt lat="45.85394" lon="4.69195">
        <ele>210.74141</ele>
        <time>2023-04-24T13:57:37.000Z</time>
      </trkpt>
      <trkpt lat="45.85392" lon="4.69193">
        <ele>210.69939</ele>
        <time>2023-04-24T13:57:38.000Z</time>
      </trkpt>
      <trkpt lat="45.85388" lon="4.69189">
        <ele>210.5761</ele>
        <time>2023-04-24T13:57:39.000Z</time>
      </trkpt>
      <trkpt lat="45.85383" lon="4.69186">
        <ele>210.40796</ele>
        <time>2023-04-24T13:57:40.000Z</time>
      </trkpt>
      <trkpt lat="45.85379" lon="4.69183">
        <ele>210.35103</ele>
        <time>2023-04-24T13:57:41.000Z</time>
      </trkpt>
      <trkpt lat="45.85375" lon="4.69177">
        <ele>210.29778</ele>
        <time>2023-04-24T13:57:42.000Z</time>
      </trkpt>
      <trkpt lat="45.85371" lon="4.69173">
        <ele>210.18135</ele>
        <time>2023-04-24T13:57:43.000Z</time>
      </trkpt>
      <trkpt lat="45.85367" lon="4.6917">
        <ele>210.12241</ele>
        <time>2023-04-24T13:57:44.000Z</time>
      </trkpt>
      <trkpt lat="45.85363" lon="4.69164">
        <ele>210.13626</ele>
        <time>2023-04-24T13:57:45.000Z</time>
      </trkpt>
      <trkpt lat="45.8536" lon="4.69158">
        <ele>210.1113</ele>
        <time>2023-04-24T13:57:46.000Z</time>
      </trkpt>
      <trkpt lat="45.85356" lon="4.69154">
        <ele>210.03044</ele>
        <time>2023-04-24T13:57:47.000Z</time>
      </trkpt>
      <trkpt lat="45.85351" lon="4.69151">
        <ele>209.95918</ele>
        <time>2023-04-24T13:57:48.000Z</time>
      </trkpt>
      <trkpt lat="45.85348" lon="4.69148">
        <ele>209.89334</ele>
        <time>2023-04-24T13:57:49.000Z</time>
      </trkpt>
      <trkpt lat="45.85343" lon="4.69146">
        <ele>209.90752</ele>
        <time>2023-04-24T13:57:50.000Z</time>
      </trkpt>
      <trkpt lat="45.85338" lon="4.69147">
        <ele>209.94148</ele>
        <time>2023-04-24T13:57:51.000Z</time>
      </trkpt>
      <trkpt lat="45.85332" lon="4.69147">
        <ele>209.95547</ele>
        <time>2023-04-24T13:57:52.000Z</time>
      </trkpt>
      <trkpt lat="45.85328" lon="4.69149">
        <ele>209.97066</ele>
        <time>2023-04-24T13:57:53.000Z</time>
      </trkpt>
      <trkpt lat="45.85322" lon="4.69151">
        <ele>209.95866</ele>
        <time>2023-04-24T13:57:54.000Z</time>
      </trkpt>
      <trkpt lat="45.85317" lon="4.69154">
        <ele>209.97249</ele>
        <time>2023-04-24T13:57:55.000Z</time>
      </trkpt>
      <trkpt lat="45.85312" lon="4.69157">
        <ele>210.0242</ele>
        <time>2023-04-24T13:57:56.000Z</time>
      </trkpt>
      <trkpt lat="45.85307" lon="4.69161">
        <ele>210.09917</ele>
        <time>2023-04-24T13:57:57.000Z</time>
      </trkpt>
      <trkpt lat="45.85303" lon="4.69165">
        <ele>210.07202</ele>
        <time>2023-04-24T13:57:58.000Z</time>
      </trkpt>
      <trkpt lat="45.85298" lon="4.69169">
        <ele>210.05835</ele>
        <time>2023-04-24T13:57:59.000Z</time>
      </trkpt>
      <trkpt lat="45.85294" lon="4.69173">
        <ele>210.04378</ele>
        <time>2023-04-24T13:58:00.000Z</time>
      </trkpt>
      <trkpt lat="45.8529" lon="4.69177">
        <ele>209.96463</ele>
        <time>2023-04-24T13:58:01.000Z</time>
      </trkpt>
      <trkpt lat="45.85286" lon="4.69182">
        <ele>209.99382</ele>
        <time>2023-04-24T13:58:02.000Z</time>
      </trkpt>
      <trkpt lat="45.85283" lon="4.69186">
        <ele>210.09651</ele>
        <time>2023-04-24T13:58:03.000Z</time>
      </trkpt>
      <trkpt lat="45.85279" lon="4.6919">
        <ele>210.21516</ele>
        <time>2023-04-24T13:58:04.000Z</time>
      </trkpt>
      <trkpt lat="45.85275" lon="4.69196">
        <ele>210.29276</ele>
        <time>2023-04-24T13:58:05.000Z</time>
      </trkpt>
      <trkpt lat="45.85271" lon="4.69202">
        <ele>210.4189</ele>
        <time>2023-04-24T13:58:06.000Z</time>
      </trkpt>
      <trkpt lat="45.85267" lon="4.69207">
        <ele>210.55574</ele>
        <time>2023-04-24T13:58:07.000Z</time>
      </trkpt>
      <trkpt lat="45.85264" lon="4.69214">
        <ele>210.74258</ele>
        <time>2023-04-24T13:58:08.000Z</time>
      </trkpt>
      <trkpt lat="45.85262" lon="4.69219">
        <ele>210.92581</ele>
        <time>2023-04-24T13:58:09.000Z</time>
      </trkpt>
      <trkpt lat="45.85258" lon="4.69226">
        <ele>211.03677</ele>
        <time>2023-04-24T13:58:10.000Z</time>
      </trkpt>
      <trkpt lat="45.85255" lon="4.69232">
        <ele>211.10445</ele>
        <time>2023-04-24T13:58:11.000Z</time>
      </trkpt>
      <trkpt lat="45.85251" lon="4.69238">
        <ele>211.21463</ele>
        <time>2023-04-24T13:58:12.000Z</time>
      </trkpt>
      <trkpt lat="45.85248" lon="4.69244">
        <ele>211.31099</ele>
        <time>2023-04-24T13:58:13.000Z</time>
      </trkpt>
      <trkpt lat="45.85245" lon="4.6925">
        <ele>211.62192</ele>
        <time>2023-04-24T13:58:14.000Z</time>
      </trkpt>
      <trkpt lat="45.85242" lon="4.69256">
        <ele>212.02986</ele>
        <time>2023-04-24T13:58:15.000Z</time>
      </trkpt>
      <trkpt lat="45.85238" lon="4.69263">
        <ele>212.51895</ele>
        <time>2023-04-24T13:58:16.000Z</time>
      </trkpt>
      <trkpt lat="45.85236" lon="4.69269">
        <ele>212.58777</ele>
        <time>2023-04-24T13:58:17.000Z</time>
      </trkpt>
      <trkpt lat="45.85233" lon="4.69275">
        <ele>212.78769</ele>
        <time>2023-04-24T13:58:18.000Z</time>
      </trkpt>
      <trkpt lat="45.85231" lon="4.69281">
        <ele>212.96204</ele>
        <time>2023-04-24T13:58:19.000Z</time>
      </trkpt>
      <trkpt lat="45.85228" lon="4.69287">
        <ele>213.09892</ele>
        <time>2023-04-24T13:58:20.000Z</time>
      </trkpt>
      <trkpt lat="45.85224" lon="4.69292">
        <ele>213.31863</ele>
        <time>2023-04-24T13:58:21.000Z</time>
      </trkpt>
      <trkpt lat="45.8522" lon="4.69293">
        <ele>213.52396</ele>
        <time>2023-04-24T13:58:22.000Z</time>
      </trkpt>
      <trkpt lat="45.85215" lon="4.69291">
        <ele>213.73657</ele>
        <time>2023-04-24T13:58:23.000Z</time>
      </trkpt>
      <trkpt lat="45.85213" lon="4.69294">
        <ele>214.03532</ele>
        <time>2023-04-24T13:58:24.000Z</time>
      </trkpt>
      <trkpt lat="45.85209" lon="4.69291">
        <ele>214.40723</ele>
        <time>2023-04-24T13:58:25.000Z</time>
      </trkpt>
      <trkpt lat="45.85204" lon="4.69286">
        <ele>214.96793</ele>
        <time>2023-04-24T13:58:26.000Z</time>
      </trkpt>
      <trkpt lat="45.852" lon="4.69283">
        <ele>215.502</ele>
        <time>2023-04-24T13:58:27.000Z</time>
      </trkpt>
      <trkpt lat="45.85196" lon="4.69281">
        <ele>216.13211</ele>
        <time>2023-04-24T13:58:28.000Z</time>
      </trkpt>
      <trkpt lat="45.85193" lon="4.69278">
        <ele>216.68481</ele>
        <time>2023-04-24T13:58:29.000Z</time>
      </trkpt>
      <trkpt lat="45.8519" lon="4.69277">
        <ele>217.2852</ele>
        <time>2023-04-24T13:58:30.000Z</time>
      </trkpt>
      <trkpt lat="45.85188" lon="4.69279">
        <ele>217.98996</ele>
        <time>2023-04-24T13:58:31.000Z</time>
      </trkpt>
      <trkpt lat="45.85185" lon="4.69279">
        <ele>218.20688</ele>
        <time>2023-04-24T13:58:32.000Z</time>
      </trkpt>
      <trkpt lat="45.85183" lon="4.69285">
        <ele>218.45793</ele>
        <time>2023-04-24T13:58:34.000Z</time>
      </trkpt>
      <trkpt lat="45.85182" lon="4.69291">
        <ele>218.44333</ele>
        <time>2023-04-24T13:58:35.000Z</time>
      </trkpt>
      <trkpt lat="45.85181" lon="4.69298">
        <ele>218.3331</ele>
        <time>2023-04-24T13:58:36.000Z</time>
      </trkpt>
      <trkpt lat="45.85181" lon="4.69303">
        <ele>218.13431</ele>
        <time>2023-04-24T13:58:37.000Z</time>
      </trkpt>
      <trkpt lat="45.8518" lon="4.69309">
        <ele>218.3447</ele>
        <time>2023-04-24T13:58:38.000Z</time>
      </trkpt>
      <trkpt lat="45.8518" lon="4.69315">
        <ele>218.55888</ele>
        <time>2023-04-24T13:58:39.000Z</time>
      </trkpt>
      <trkpt lat="45.8518" lon="4.69321">
        <ele>218.80046</ele>
        <time>2023-04-24T13:58:40.000Z</time>
      </trkpt>
      <trkpt lat="45.85178" lon="4.69327">
        <ele>219.02591</ele>
        <time>2023-04-24T13:58:41.000Z</time>
      </trkpt>
      <trkpt lat="45.85177" lon="4.69332">
        <ele>219.23459</ele>
        <time>2023-04-24T13:58:42.000Z</time>
      </trkpt>
      <trkpt lat="45.85175" lon="4.69338">
        <ele>219.44353</ele>
        <time>2023-04-24T13:58:43.000Z</time>
      </trkpt>
      <trkpt lat="45.85173" lon="4.69343">
        <ele>219.65373</ele>
        <time>2023-04-24T13:58:44.000Z</time>
      </trkpt>
      <trkpt lat="45.85172" lon="4.69348">
        <ele>219.92769</ele>
        <time>2023-04-24T13:58:45.000Z</time>
      </trkpt>
      <trkpt lat="45.8517" lon="4.69354">
        <ele>220.15193</ele>
        <time>2023-04-24T13:58:46.000Z</time>
      </trkpt>
      <trkpt lat="45.85168" lon="4.69359">
        <ele>220.1729</ele>
        <time>2023-04-24T13:58:47.000Z</time>
      </trkpt>
      <trkpt lat="45.85166" lon="4.69365">
        <ele>220.25211</ele>
        <time>2023-04-24T13:58:48.000Z</time>
      </trkpt>
      <trkpt lat="45.85165" lon="4.69371">
        <ele>220.29968</ele>
        <time>2023-04-24T13:58:49.000Z</time>
      </trkpt>
      <trkpt lat="45.85163" lon="4.69377">
        <ele>220.0074</ele>
        <time>2023-04-24T13:58:50.000Z</time>
      </trkpt>
      <trkpt lat="45.85161" lon="4.69385">
        <ele>219.82365</ele>
        <time>2023-04-24T13:58:51.000Z</time>
      </trkpt>
      <trkpt lat="45.85159" lon="4.69391">
        <ele>219.54199</ele>
        <time>2023-04-24T13:58:52.000Z</time>
      </trkpt>
      <trkpt lat="45.85157" lon="4.69397">
        <ele>219.68123</ele>
        <time>2023-04-24T13:58:53.000Z</time>
      </trkpt>
      <trkpt lat="45.85155" lon="4.69405">
        <ele>219.92209</ele>
        <time>2023-04-24T13:58:54.000Z</time>
      </trkpt>
      <trkpt lat="45.85154" lon="4.69411">
        <ele>220.17229</ele>
        <time>2023-04-24T13:58:55.000Z</time>
      </trkpt>
      <trkpt lat="45.85152" lon="4.69417">
        <ele>220.45293</ele>
        <time>2023-04-24T13:58:56.000Z</time>
      </trkpt>
      <trkpt lat="45.8515" lon="4.69423">
        <ele>220.77109</ele>
        <time>2023-04-24T13:58:57.000Z</time>
      </trkpt>
      <trkpt lat="45.8515" lon="4.6943">
        <ele>221.0446</ele>
        <time>2023-04-24T13:58:58.000Z</time>
      </trkpt>
      <trkpt lat="45.85149" lon="4.69437">
        <ele>221.2509</ele>
        <time>2023-04-24T13:58:59.000Z</time>
      </trkpt>
      <trkpt lat="45.85148" lon="4.69443">
        <ele>221.39958</ele>
        <time>2023-04-24T13:59:00.000Z</time>
      </trkpt>
      <trkpt lat="45.85147" lon="4.6945">
        <ele>221.7269</ele>
        <time>2023-04-24T13:59:01.000Z</time>
      </trkpt>
      <trkpt lat="45.85146" lon="4.69458">
        <ele>221.62344</ele>
        <time>2023-04-24T13:59:02.000Z</time>
      </trkpt>
      <trkpt lat="45.85145" lon="4.69464">
        <ele>221.57571</ele>
        <time>2023-04-24T13:59:03.000Z</time>
      </trkpt>
      <trkpt lat="45.85143" lon="4.6947">
        <ele>221.50093</ele>
        <time>2023-04-24T13:59:04.000Z</time>
      </trkpt>
      <trkpt lat="45.85142" lon="4.69477">
        <ele>221.2791</ele>
        <time>2023-04-24T13:59:05.000Z</time>
      </trkpt>
      <trkpt lat="45.85141" lon="4.69485">
        <ele>221.0446</ele>
        <time>2023-04-24T13:59:06.000Z</time>
      </trkpt>
      <trkpt lat="45.85141" lon="4.69491">
        <ele>220.96915</ele>
        <time>2023-04-24T13:59:07.000Z</time>
      </trkpt>
      <trkpt lat="45.85139" lon="4.69498">
        <ele>220.84604</ele>
        <time>2023-04-24T13:59:08.000Z</time>
      </trkpt>
      <trkpt lat="45.85139" lon="4.69503">
        <ele>220.62338</ele>
        <time>2023-04-24T13:59:09.000Z</time>
      </trkpt>
      <trkpt lat="45.85138" lon="4.6951">
        <ele>220.8381</ele>
        <time>2023-04-24T13:59:10.000Z</time>
      </trkpt>
      <trkpt lat="45.85137" lon="4.69517">
        <ele>220.9595</ele>
        <time>2023-04-24T13:59:11.000Z</time>
      </trkpt>
      <trkpt lat="45.85137" lon="4.69523">
        <ele>221.12825</ele>
        <time>2023-04-24T13:59:12.000Z</time>
      </trkpt>
      <trkpt lat="45.85136" lon="4.69529">
        <ele>221.40942</ele>
        <time>2023-04-24T13:59:13.000Z</time>
      </trkpt>
      <trkpt lat="45.85135" lon="4.69535">
        <ele>221.24995</ele>
        <time>2023-04-24T13:59:14.000Z</time>
      </trkpt>
      <trkpt lat="45.85134" lon="4.69541">
        <ele>221.19263</ele>
        <time>2023-04-24T13:59:15.000Z</time>
      </trkpt>
      <trkpt lat="45.85133" lon="4.69548">
        <ele>221.07693</ele>
        <time>2023-04-24T13:59:16.000Z</time>
      </trkpt>
      <trkpt lat="45.85132" lon="4.69554">
        <ele>220.91672</ele>
        <time>2023-04-24T13:59:17.000Z</time>
      </trkpt>
      <trkpt lat="45.85132" lon="4.6956">
        <ele>220.82588</ele>
        <time>2023-04-24T13:59:18.000Z</time>
      </trkpt>
      <trkpt lat="45.85131" lon="4.69567">
        <ele>220.94226</ele>
        <time>2023-04-24T13:59:19.000Z</time>
      </trkpt>
      <trkpt lat="45.85131" lon="4.69574">
        <ele>221.1481</ele>
        <time>2023-04-24T13:59:20.000Z</time>
      </trkpt>
      <trkpt lat="45.8513" lon="4.69579">
        <ele>221.20747</ele>
        <time>2023-04-24T13:59:21.000Z</time>
      </trkpt>
      <trkpt lat="45.85129" lon="4.69587">
        <ele>221.30728</ele>
        <time>2023-04-24T13:59:22.000Z</time>
      </trkpt>
      <trkpt lat="45.85128" lon="4.69593">
        <ele>221.41397</ele>
        <time>2023-04-24T13:59:23.000Z</time>
      </trkpt>
      <trkpt lat="45.85128" lon="4.69601">
        <ele>221.49728</ele>
        <time>2023-04-24T13:59:24.000Z</time>
      </trkpt>
      <trkpt lat="45.85126" lon="4.69607">
        <ele>221.5103</ele>
        <time>2023-04-24T13:59:25.000Z</time>
      </trkpt>
      <trkpt lat="45.85126" lon="4.69615">
        <ele>221.50957</ele>
        <time>2023-04-24T13:59:26.000Z</time>
      </trkpt>
      <trkpt lat="45.85125" lon="4.69621">
        <ele>221.4158</ele>
        <time>2023-04-24T13:59:27.000Z</time>
      </trkpt>
      <trkpt lat="45.85126" lon="4.69628">
        <ele>221.33455</ele>
        <time>2023-04-24T13:59:28.000Z</time>
      </trkpt>
      <trkpt lat="45.85125" lon="4.69636">
        <ele>221.23892</ele>
        <time>2023-04-24T13:59:29.000Z</time>
      </trkpt>
      <trkpt lat="45.85126" lon="4.69642">
        <ele>221.38945</ele>
        <time>2023-04-24T13:59:30.000Z</time>
      </trkpt>
      <trkpt lat="45.85126" lon="4.69648">
        <ele>221.55281</ele>
        <time>2023-04-24T13:59:31.000Z</time>
      </trkpt>
      <trkpt lat="45.85125" lon="4.69654">
        <ele>221.46782</ele>
        <time>2023-04-24T13:59:32.000Z</time>
      </trkpt>
      <trkpt lat="45.85124" lon="4.69659">
        <ele>221.24141</ele>
        <time>2023-04-24T13:59:33.000Z</time>
      </trkpt>
      <trkpt lat="45.8512" lon="4.69662">
        <ele>221.30249</ele>
        <time>2023-04-24T13:59:34.000Z</time>
      </trkpt>
      <trkpt lat="45.85118" lon="4.69666">
        <ele>221.30363</ele>
        <time>2023-04-24T13:59:35.000Z</time>
      </trkpt>
      <trkpt lat="45.85114" lon="4.69665">
        <ele>221.39539</ele>
        <time>2023-04-24T13:59:36.000Z</time>
      </trkpt>
      <trkpt lat="45.85111" lon="4.69663">
        <ele>221.51877</ele>
        <time>2023-04-24T13:59:37.000Z</time>
      </trkpt>
      <trkpt lat="45.85108" lon="4.6966">
        <ele>221.66415</ele>
        <time>2023-04-24T13:59:38.000Z</time>
      </trkpt>
      <trkpt lat="45.85105" lon="4.69658">
        <ele>221.65337</ele>
        <time>2023-04-24T13:59:39.000Z</time>
      </trkpt>
      <trkpt lat="45.85102" lon="4.69659">
        <ele>221.73026</ele>
        <time>2023-04-24T13:59:40.000Z</time>
      </trkpt>
      <trkpt lat="45.85099" lon="4.69659">
        <ele>221.88623</ele>
        <time>2023-04-24T13:59:41.000Z</time>
      </trkpt>
      <trkpt lat="45.85095" lon="4.69658">
        <ele>222.37509</ele>
        <time>2023-04-24T13:59:42.000Z</time>
      </trkpt>
      <trkpt lat="45.85092" lon="4.69657">
        <ele>222.84819</ele>
        <time>2023-04-24T13:59:43.000Z</time>
      </trkpt>
      <trkpt lat="45.85089" lon="4.69656">
        <ele>222.99765</ele>
        <time>2023-04-24T13:59:44.000Z</time>
      </trkpt>
      <trkpt lat="45.85085" lon="4.69655">
        <ele>223.24702</ele>
        <time>2023-04-24T13:59:45.000Z</time>
      </trkpt>
      <trkpt lat="45.85081" lon="4.69654">
        <ele>223.53873</ele>
        <time>2023-04-24T13:59:46.000Z</time>
      </trkpt>
      <trkpt lat="45.85077" lon="4.69653">
        <ele>223.78239</ele>
        <time>2023-04-24T13:59:47.000Z</time>
      </trkpt>
      <trkpt lat="45.85073" lon="4.69652">
        <ele>224.01514</ele>
        <time>2023-04-24T13:59:48.000Z</time>
      </trkpt>
      <trkpt lat="45.85069" lon="4.69651">
        <ele>224.28735</ele>
        <time>2023-04-24T13:59:49.000Z</time>
      </trkpt>
      <trkpt lat="45.85065" lon="4.69649">
        <ele>224.26233</ele>
        <time>2023-04-24T13:59:50.000Z</time>
      </trkpt>
      <trkpt lat="45.85061" lon="4.69648">
        <ele>224.18982</ele>
        <time>2023-04-24T13:59:51.000Z</time>
      </trkpt>
      <trkpt lat="45.85058" lon="4.69646">
        <ele>224.31436</ele>
        <time>2023-04-24T13:59:52.000Z</time>
      </trkpt>
      <trkpt lat="45.85054" lon="4.69644">
        <ele>224.51453</ele>
        <time>2023-04-24T13:59:53.000Z</time>
      </trkpt>
      <trkpt lat="45.8505" lon="4.69643">
        <ele>224.72046</ele>
        <time>2023-04-24T13:59:54.000Z</time>
      </trkpt>
      <trkpt lat="45.85046" lon="4.69642">
        <ele>224.9128</ele>
        <time>2023-04-24T13:59:55.000Z</time>
      </trkpt>
      <trkpt lat="45.85042" lon="4.69641">
        <ele>225.01578</ele>
        <time>2023-04-24T13:59:56.000Z</time>
      </trkpt>
      <trkpt lat="45.85039" lon="4.6964">
        <ele>225.09424</ele>
        <time>2023-04-24T13:59:57.000Z</time>
      </trkpt>
      <trkpt lat="45.85035" lon="4.69639">
        <ele>225.12004</ele>
        <time>2023-04-24T13:59:58.000Z</time>
      </trkpt>
      <trkpt lat="45.85031" lon="4.69638">
        <ele>225.07832</ele>
        <time>2023-04-24T13:59:59.000Z</time>
      </trkpt>
      <trkpt lat="45.85027" lon="4.69637">
        <ele>225.09509</ele>
        <time>2023-04-24T14:00:00.000Z</time>
      </trkpt>
      <trkpt lat="45.85023" lon="4.69636">
        <ele>225.04468</ele>
        <time>2023-04-24T14:00:01.000Z</time>
      </trkpt>
      <trkpt lat="45.85019" lon="4.69636">
        <ele>225.09749</ele>
        <time>2023-04-24T14:00:02.000Z</time>
      </trkpt>
      <trkpt lat="45.85015" lon="4.69635">
        <ele>225.13789</ele>
        <time>2023-04-24T14:00:03.000Z</time>
      </trkpt>
      <trkpt lat="45.85011" lon="4.69634">
        <ele>225.27121</ele>
        <time>2023-04-24T14:00:04.000Z</time>
      </trkpt>
      <trkpt lat="45.85007" lon="4.69634">
        <ele>225.39673</ele>
        <time>2023-04-24T14:00:05.000Z</time>
      </trkpt>
      <trkpt lat="45.85002" lon="4.69634">
        <ele>225.51819</ele>
        <time>2023-04-24T14:00:06.000Z</time>
      </trkpt>
      <trkpt lat="45.84998" lon="4.69633">
        <ele>225.70207</ele>
        <time>2023-04-24T14:00:07.000Z</time>
      </trkpt>
      <trkpt lat="45.84994" lon="4.69632">
        <ele>225.84995</ele>
        <time>2023-04-24T14:00:08.000Z</time>
      </trkpt>
      <trkpt lat="45.84989" lon="4.69631">
        <ele>226.25696</ele>
        <time>2023-04-24T14:00:09.000Z</time>
      </trkpt>
      <trkpt lat="45.84985" lon="4.6963">
        <ele>226.69531</ele>
        <time>2023-04-24T14:00:10.000Z</time>
      </trkpt>
      <trkpt lat="45.84981" lon="4.6963">
        <ele>227.17456</ele>
        <time>2023-04-24T14:00:11.000Z</time>
      </trkpt>
      <trkpt lat="45.84976" lon="4.69629">
        <ele>227.68741</ele>
        <time>2023-04-24T14:00:12.000Z</time>
      </trkpt>
      <trkpt lat="45.84972" lon="4.69628">
        <ele>228.18953</ele>
        <time>2023-04-24T14:00:13.000Z</time>
      </trkpt>
      <trkpt lat="45.84968" lon="4.69626">
        <ele>228.68291</ele>
        <time>2023-04-24T14:00:14.000Z</time>
      </trkpt>
      <trkpt lat="45.84963" lon="4.69624">
        <ele>229.20442</ele>
        <time>2023-04-24T14:00:15.000Z</time>
      </trkpt>
      <trkpt lat="45.84959" lon="4.69622">
        <ele>229.98836</ele>
        <time>2023-04-24T14:00:16.000Z</time>
      </trkpt>
      <trkpt lat="45.84954" lon="4.69619">
        <ele>230.79037</ele>
        <time>2023-04-24T14:00:17.000Z</time>
      </trkpt>
      <trkpt lat="45.8495" lon="4.69616">
        <ele>231.67239</ele>
        <time>2023-04-24T14:00:18.000Z</time>
      </trkpt>
      <trkpt lat="45.84946" lon="4.69615">
        <ele>232.68001</ele>
        <time>2023-04-24T14:00:19.000Z</time>
      </trkpt>
      <trkpt lat="45.84941" lon="4.69613">
        <ele>233.11356</ele>
        <time>2023-04-24T14:00:20.000Z</time>
      </trkpt>
      <trkpt lat="45.84937" lon="4.69612">
        <ele>233.59372</ele>
        <time>2023-04-24T14:00:21.000Z</time>
      </trkpt>
      <trkpt lat="45.84933" lon="4.6961">
        <ele>233.89851</ele>
        <time>2023-04-24T14:00:22.000Z</time>
      </trkpt>
      <trkpt lat="45.84929" lon="4.69609">
        <ele>234.19409</ele>
        <time>2023-04-24T14:00:23.000Z</time>
      </trkpt>
      <trkpt lat="45.84925" lon="4.69608">
        <ele>234.7009</ele>
        <time>2023-04-24T14:00:24.000Z</time>
      </trkpt>
      <trkpt lat="45.84921" lon="4.69606">
        <ele>235.1355</ele>
        <time>2023-04-24T14:00:25.000Z</time>
      </trkpt>
      <trkpt lat="45.84917" lon="4.69604">
        <ele>235.77982</ele>
        <time>2023-04-24T14:00:26.000Z</time>
      </trkpt>
      <trkpt lat="45.84913" lon="4.69602">
        <ele>235.60881</ele>
        <time>2023-04-24T14:00:27.000Z</time>
      </trkpt>
      <trkpt lat="45.84909" lon="4.69601">
        <ele>235.53719</ele>
        <time>2023-04-24T14:00:28.000Z</time>
      </trkpt>
      <trkpt lat="45.84905" lon="4.69597">
        <ele>235.19246</ele>
        <time>2023-04-24T14:00:29.000Z</time>
      </trkpt>
      <trkpt lat="45.84901" lon="4.69595">
        <ele>234.84836</ele>
        <time>2023-04-24T14:00:30.000Z</time>
      </trkpt>
      <trkpt lat="45.84898" lon="4.69594">
        <ele>234.46829</ele>
        <time>2023-04-24T14:00:31.000Z</time>
      </trkpt>
      <trkpt lat="45.84895" lon="4.69592">
        <ele>234.07739</ele>
        <time>2023-04-24T14:00:32.000Z</time>
      </trkpt>
      <trkpt lat="45.84892" lon="4.6959">
        <ele>233.6779</ele>
        <time>2023-04-24T14:00:33.000Z</time>
      </trkpt>
      <trkpt lat="45.84889" lon="4.69589">
        <ele>233.30994</ele>
        <time>2023-04-24T14:00:34.000Z</time>
      </trkpt>
      <trkpt lat="45.84887" lon="4.69586">
        <ele>232.95329</ele>
        <time>2023-04-24T14:00:35.000Z</time>
      </trkpt>
      <trkpt lat="45.84886" lon="4.69583">
        <ele>232.61035</ele>
        <time>2023-04-24T14:00:36.000Z</time>
      </trkpt>
      <trkpt lat="45.84885" lon="4.6958">
        <ele>232.25444</ele>
        <time>2023-04-24T14:00:37.000Z</time>
      </trkpt>
      <trkpt lat="45.84883" lon="4.69577">
        <ele>231.8298</ele>
        <time>2023-04-24T14:00:38.000Z</time>
      </trkpt>
      <trkpt lat="45.84881" lon="4.69577">
        <ele>231.26604</ele>
        <time>2023-04-24T14:00:39.000Z</time>
      </trkpt>
      <trkpt lat="45.84878" lon="4.69578">
        <ele>231.04866</ele>
        <time>2023-04-24T14:00:40.000Z</time>
      </trkpt>
      <trkpt lat="45.84876" lon="4.6958">
        <ele>230.77927</ele>
        <time>2023-04-24T14:00:41.000Z</time>
      </trkpt>
      <trkpt lat="45.84876" lon="4.69583">
        <ele>230.58235</ele>
        <time>2023-04-24T14:00:42.000Z</time>
      </trkpt>
      <trkpt lat="45.84876" lon="4.69586">
        <ele>230.35184</ele>
        <time>2023-04-24T14:00:43.000Z</time>
      </trkpt>
      <trkpt lat="45.84877" lon="4.69588">
        <ele>230.15923</ele>
        <time>2023-04-24T14:00:44.000Z</time>
      </trkpt>
      <trkpt lat="45.84881" lon="4.6959">
        <ele>229.99557</ele>
        <time>2023-04-24T14:00:46.000Z</time>
      </trkpt>
      <trkpt lat="45.84884" lon="4.69588">
        <ele>229.59912</ele>
        <time>2023-04-24T14:00:47.000Z</time>
      </trkpt>
      <trkpt lat="45.84886" lon="4.69584">
        <ele>229.96701</ele>
        <time>2023-04-24T14:00:48.000Z</time>
      </trkpt>
      <trkpt lat="45.84886" lon="4.6958">
        <ele>230.31442</ele>
        <time>2023-04-24T14:00:49.000Z</time>
      </trkpt>
      <trkpt lat="45.84885" lon="4.69577">
        <ele>230.67175</ele>
        <time>2023-04-24T14:00:50.000Z</time>
      </trkpt>
      <trkpt lat="45.84882" lon="4.69577">
        <ele>231.02129</ele>
        <time>2023-04-24T14:00:51.000Z</time>
      </trkpt>
      <trkpt lat="45.84879" lon="4.69578">
        <ele>231.40686</ele>
        <time>2023-04-24T14:00:52.000Z</time>
      </trkpt>
      <trkpt lat="45.84876" lon="4.69581">
        <ele>231.79126</ele>
        <time>2023-04-24T14:00:53.000Z</time>
      </trkpt>
      <trkpt lat="45.84873" lon="4.69581">
        <ele>232.15498</ele>
        <time>2023-04-24T14:00:54.000Z</time>
      </trkpt>
      <trkpt lat="45.8487" lon="4.6958">
        <ele>232.52718</ele>
        <time>2023-04-24T14:00:55.000Z</time>
      </trkpt>
      <trkpt lat="45.84868" lon="4.69579">
        <ele>232.89352</ele>
        <time>2023-04-24T14:00:56.000Z</time>
      </trkpt>
      <trkpt lat="45.84865" lon="4.69577">
        <ele>233.00449</ele>
        <time>2023-04-24T14:00:57.000Z</time>
      </trkpt>
      <trkpt lat="45.84862" lon="4.69575">
        <ele>233.15652</ele>
        <time>2023-04-24T14:00:58.000Z</time>
      </trkpt>
      <trkpt lat="45.84859" lon="4.69574">
        <ele>233.27112</ele>
        <time>2023-04-24T14:00:59.000Z</time>
      </trkpt>
      <trkpt lat="45.84856" lon="4.69572">
        <ele>233.39896</ele>
        <time>2023-04-24T14:01:00.000Z</time>
      </trkpt>
      <trkpt lat="45.84853" lon="4.69571">
        <ele>233.57663</ele>
        <time>2023-04-24T14:01:01.000Z</time>
      </trkpt>
      <trkpt lat="45.84849" lon="4.69569">
        <ele>233.79634</ele>
        <time>2023-04-24T14:01:02.000Z</time>
      </trkpt>
      <trkpt lat="45.84846" lon="4.69567">
        <ele>234.35379</ele>
        <time>2023-04-24T14:01:03.000Z</time>
      </trkpt>
      <trkpt lat="45.84843" lon="4.69566">
        <ele>234.89461</ele>
        <time>2023-04-24T14:01:04.000Z</time>
      </trkpt>
      <trkpt lat="45.84839" lon="4.69564">
        <ele>235.43779</ele>
        <time>2023-04-24T14:01:05.000Z</time>
      </trkpt>
      <trkpt lat="45.84835" lon="4.69562">
        <ele>236.01917</ele>
        <time>2023-04-24T14:01:06.000Z</time>
      </trkpt>
      <trkpt lat="45.84832" lon="4.6956">
        <ele>236.64229</ele>
        <time>2023-04-24T14:01:07.000Z</time>
      </trkpt>
      <trkpt lat="45.8483" lon="4.69558">
        <ele>237.24844</ele>
        <time>2023-04-24T14:01:08.000Z</time>
      </trkpt>
      <trkpt lat="45.84827" lon="4.69556">
        <ele>237.87296</ele>
        <time>2023-04-24T14:01:09.000Z</time>
      </trkpt>
      <trkpt lat="45.84824" lon="4.69553">
        <ele>238.65398</ele>
        <time>2023-04-24T14:01:10.000Z</time>
      </trkpt>
      <trkpt lat="45.84822" lon="4.6955">
        <ele>239.00253</ele>
        <time>2023-04-24T14:01:11.000Z</time>
      </trkpt>
      <trkpt lat="45.84819" lon="4.69547">
        <ele>239.2802</ele>
        <time>2023-04-24T14:01:12.000Z</time>
      </trkpt>
      <trkpt lat="45.84817" lon="4.69545">
        <ele>239.57919</ele>
        <time>2023-04-24T14:01:13.000Z</time>
      </trkpt>
      <trkpt lat="45.84814" lon="4.69542">
        <ele>239.9062</ele>
        <time>2023-04-24T14:01:14.000Z</time>
      </trkpt>
      <trkpt lat="45.84812" lon="4.69538">
        <ele>240.19202</ele>
        <time>2023-04-24T14:01:15.000Z</time>
      </trkpt>
      <trkpt lat="45.84809" lon="4.69534">
        <ele>240.45903</ele>
        <time>2023-04-24T14:01:16.000Z</time>
      </trkpt>
      <trkpt lat="45.84807" lon="4.6953">
        <ele>240.73206</ele>
        <time>2023-04-24T14:01:17.000Z</time>
      </trkpt>
      <trkpt lat="45.84804" lon="4.69526">
        <ele>240.99167</ele>
        <time>2023-04-24T14:01:18.000Z</time>
      </trkpt>
      <trkpt lat="45.84802" lon="4.69523">
        <ele>241.31746</ele>
        <time>2023-04-24T14:01:19.000Z</time>
      </trkpt>
      <trkpt lat="45.84799" lon="4.69519">
        <ele>241.64726</ele>
        <time>2023-04-24T14:01:20.000Z</time>
      </trkpt>
      <trkpt lat="45.84794" lon="4.69515">
        <ele>241.99121</ele>
        <time>2023-04-24T14:01:21.000Z</time>
      </trkpt>
      <trkpt lat="45.8479" lon="4.69511">
        <ele>242.35312</ele>
        <time>2023-04-24T14:01:22.000Z</time>
      </trkpt>
      <trkpt lat="45.84786" lon="4.69506">
        <ele>242.39249</ele>
        <time>2023-04-24T14:01:23.000Z</time>
      </trkpt>
      <trkpt lat="45.84783" lon="4.69503">
        <ele>242.48038</ele>
        <time>2023-04-24T14:01:24.000Z</time>
      </trkpt>
      <trkpt lat="45.8478" lon="4.69499">
        <ele>242.56369</ele>
        <time>2023-04-24T14:01:25.000Z</time>
      </trkpt>
      <trkpt lat="45.84778" lon="4.69495">
        <ele>242.62485</ele>
        <time>2023-04-24T14:01:26.000Z</time>
      </trkpt>
      <trkpt lat="45.84775" lon="4.69491">
        <ele>242.63408</ele>
        <time>2023-04-24T14:01:27.000Z</time>
      </trkpt>
      <trkpt lat="45.84773" lon="4.69488">
        <ele>242.63802</ele>
        <time>2023-04-24T14:01:28.000Z</time>
      </trkpt>
      <trkpt lat="45.8477" lon="4.69485">
        <ele>242.62849</ele>
        <time>2023-04-24T14:01:29.000Z</time>
      </trkpt>
      <trkpt lat="45.84767" lon="4.69481">
        <ele>242.45505</ele>
        <time>2023-04-24T14:01:30.000Z</time>
      </trkpt>
      <trkpt lat="45.84765" lon="4.69477">
        <ele>242.70996</ele>
        <time>2023-04-24T14:01:31.000Z</time>
      </trkpt>
      <trkpt lat="45.84762" lon="4.69472">
        <ele>243.01425</ele>
        <time>2023-04-24T14:01:32.000Z</time>
      </trkpt>
      <trkpt lat="45.84759" lon="4.69468">
        <ele>243.30354</ele>
        <time>2023-04-24T14:01:33.000Z</time>
      </trkpt>
      <trkpt lat="45.84756" lon="4.69464">
        <ele>243.59151</ele>
        <time>2023-04-24T14:01:34.000Z</time>
      </trkpt>
      <trkpt lat="45.84753" lon="4.6946">
        <ele>243.90508</ele>
        <time>2023-04-24T14:01:35.000Z</time>
      </trkpt>
      <trkpt lat="45.8475" lon="4.69456">
        <ele>244.5905</ele>
        <time>2023-04-24T14:01:36.000Z</time>
      </trkpt>
      <trkpt lat="45.84747" lon="4.69452">
        <ele>245.25729</ele>
        <time>2023-04-24T14:01:37.000Z</time>
      </trkpt>
      <trkpt lat="45.84744" lon="4.69449">
        <ele>245.96394</ele>
        <time>2023-04-24T14:01:38.000Z</time>
      </trkpt>
      <trkpt lat="45.84741" lon="4.69445">
        <ele>246.63118</ele>
        <time>2023-04-24T14:01:39.000Z</time>
      </trkpt>
      <trkpt lat="45.84738" lon="4.69442">
        <ele>247.14743</ele>
        <time>2023-04-24T14:01:40.000Z</time>
      </trkpt>
      <trkpt lat="45.84735" lon="4.69438">
        <ele>247.66592</ele>
        <time>2023-04-24T14:01:41.000Z</time>
      </trkpt>
      <trkpt lat="45.84733" lon="4.69435">
        <ele>248.12009</ele>
        <time>2023-04-24T14:01:42.000Z</time>
      </trkpt>
      <trkpt lat="45.8473" lon="4.69431">
        <ele>248.54453</ele>
        <time>2023-04-24T14:01:43.000Z</time>
      </trkpt>
      <trkpt lat="45.84727" lon="4.69428">
        <ele>248.92944</ele>
        <time>2023-04-24T14:01:44.000Z</time>
      </trkpt>
      <trkpt lat="45.84725" lon="4.69424">
        <ele>249.03873</ele>
        <time>2023-04-24T14:01:45.000Z</time>
      </trkpt>
      <trkpt lat="45.84722" lon="4.6942">
        <ele>249.10629</ele>
        <time>2023-04-24T14:01:46.000Z</time>
      </trkpt>
      <trkpt lat="45.8472" lon="4.69417">
        <ele>249.17911</ele>
        <time>2023-04-24T14:01:47.000Z</time>
      </trkpt>
      <trkpt lat="45.84717" lon="4.69413">
        <ele>249.27678</ele>
        <time>2023-04-24T14:01:48.000Z</time>
      </trkpt>
      <trkpt lat="45.84714" lon="4.69409">
        <ele>249.35274</ele>
        <time>2023-04-24T14:01:49.000Z</time>
      </trkpt>
      <trkpt lat="45.84711" lon="4.69405">
        <ele>249.68079</ele>
        <time>2023-04-24T14:01:50.000Z</time>
      </trkpt>
      <trkpt lat="45.84708" lon="4.69401">
        <ele>249.99516</ele>
        <time>2023-04-24T14:01:51.000Z</time>
      </trkpt>
      <trkpt lat="45.84705" lon="4.69397">
        <ele>250.32629</ele>
        <time>2023-04-24T14:01:52.000Z</time>
      </trkpt>
      <trkpt lat="45.84702" lon="4.69394">
        <ele>250.73633</ele>
        <time>2023-04-24T14:01:53.000Z</time>
      </trkpt>
      <trkpt lat="45.84699" lon="4.69391">
        <ele>251.16226</ele>
        <time>2023-04-24T14:01:54.000Z</time>
      </trkpt>
      <trkpt lat="45.84696" lon="4.69388">
        <ele>251.58264</ele>
        <time>2023-04-24T14:01:55.000Z</time>
      </trkpt>
      <trkpt lat="45.84692" lon="4.69386">
        <ele>251.67978</ele>
        <time>2023-04-24T14:01:56.000Z</time>
      </trkpt>
      <trkpt lat="45.84688" lon="4.69383">
        <ele>251.64873</ele>
        <time>2023-04-24T14:01:57.000Z</time>
      </trkpt>
      <trkpt lat="45.84684" lon="4.69381">
        <ele>251.57898</ele>
        <time>2023-04-24T14:01:58.000Z</time>
      </trkpt>
      <trkpt lat="45.8468" lon="4.69379">
        <ele>251.51978</ele>
        <time>2023-04-24T14:01:59.000Z</time>
      </trkpt>
      <trkpt lat="45.84677" lon="4.69377">
        <ele>251.63956</ele>
        <time>2023-04-24T14:02:00.000Z</time>
      </trkpt>
      <trkpt lat="45.84673" lon="4.69375">
        <ele>251.84453</ele>
        <time>2023-04-24T14:02:01.000Z</time>
      </trkpt>
      <trkpt lat="45.8467" lon="4.69373">
        <ele>251.69109</ele>
        <time>2023-04-24T14:02:02.000Z</time>
      </trkpt>
      <trkpt lat="45.84667" lon="4.69372">
        <ele>251.92757</ele>
        <time>2023-04-24T14:02:03.000Z</time>
      </trkpt>
      <trkpt lat="45.84664" lon="4.69371">
        <ele>252.15901</ele>
        <time>2023-04-24T14:02:04.000Z</time>
      </trkpt>
      <trkpt lat="45.84661" lon="4.69369">
        <ele>252.66049</ele>
        <time>2023-04-24T14:02:05.000Z</time>
      </trkpt>
      <trkpt lat="45.84658" lon="4.69367">
        <ele>253.19812</ele>
        <time>2023-04-24T14:02:06.000Z</time>
      </trkpt>
      <trkpt lat="45.84655" lon="4.69365">
        <ele>253.64844</ele>
        <time>2023-04-24T14:02:07.000Z</time>
      </trkpt>
      <trkpt lat="45.84652" lon="4.69363">
        <ele>254.045</ele>
        <time>2023-04-24T14:02:08.000Z</time>
      </trkpt>
      <trkpt lat="45.84648" lon="4.69361">
        <ele>254.43449</ele>
        <time>2023-04-24T14:02:09.000Z</time>
      </trkpt>
      <trkpt lat="45.84645" lon="4.69359">
        <ele>254.57661</ele>
        <time>2023-04-24T14:02:10.000Z</time>
      </trkpt>
      <trkpt lat="45.84643" lon="4.69359">
        <ele>254.84274</ele>
        <time>2023-04-24T14:02:11.000Z</time>
      </trkpt>
      <trkpt lat="45.84645" lon="4.6936">
        <ele>255.00078</ele>
        <time>2023-04-24T14:02:12.000Z</time>
      </trkpt>
      <trkpt lat="45.84641" lon="4.69358">
        <ele>254.95576</ele>
        <time>2023-04-24T14:02:13.000Z</time>
      </trkpt>
      <trkpt lat="45.84638" lon="4.69357">
        <ele>255.06616</ele>
        <time>2023-04-24T14:02:14.000Z</time>
      </trkpt>
      <trkpt lat="45.84634" lon="4.69358">
        <ele>255.18684</ele>
        <time>2023-04-24T14:02:15.000Z</time>
      </trkpt>
      <trkpt lat="45.84631" lon="4.69362">
        <ele>255.29305</ele>
        <time>2023-04-24T14:02:16.000Z</time>
      </trkpt>
      <trkpt lat="45.84628" lon="4.69363">
        <ele>255.55774</ele>
        <time>2023-04-24T14:02:17.000Z</time>
      </trkpt>
      <trkpt lat="45.84626" lon="4.69366">
        <ele>255.79968</ele>
        <time>2023-04-24T14:02:18.000Z</time>
      </trkpt>
      <trkpt lat="45.84623" lon="4.69367">
        <ele>256.0202</ele>
        <time>2023-04-24T14:02:19.000Z</time>
      </trkpt>
      <trkpt lat="45.84621" lon="4.6937">
        <ele>256.29303</ele>
        <time>2023-04-24T14:02:20.000Z</time>
      </trkpt>
      <trkpt lat="45.84618" lon="4.69373">
        <ele>256.43237</ele>
        <time>2023-04-24T14:02:21.000Z</time>
      </trkpt>
      <trkpt lat="45.84615" lon="4.69376">
        <ele>256.85651</ele>
        <time>2023-04-24T14:02:22.000Z</time>
      </trkpt>
      <trkpt lat="45.84613" lon="4.69379">
        <ele>256.95895</ele>
        <time>2023-04-24T14:02:23.000Z</time>
      </trkpt>
      <trkpt lat="45.8461" lon="4.69382">
        <ele>257.0571</ele>
        <time>2023-04-24T14:02:24.000Z</time>
      </trkpt>
      <trkpt lat="45.84607" lon="4.69386">
        <ele>257.14667</ele>
        <time>2023-04-24T14:02:25.000Z</time>
      </trkpt>
      <trkpt lat="45.84604" lon="4.69389">
        <ele>257.211</ele>
        <time>2023-04-24T14:02:26.000Z</time>
      </trkpt>
      <trkpt lat="45.84601" lon="4.69392">
        <ele>257.36301</ele>
        <time>2023-04-24T14:02:27.000Z</time>
      </trkpt>
      <trkpt lat="45.84598" lon="4.69395">
        <ele>257.53824</ele>
        <time>2023-04-24T14:02:28.000Z</time>
      </trkpt>
      <trkpt lat="45.84596" lon="4.69398">
        <ele>257.70828</ele>
        <time>2023-04-24T14:02:29.000Z</time>
      </trkpt>
      <trkpt lat="45.84593" lon="4.69401">
        <ele>257.89319</ele>
        <time>2023-04-24T14:02:30.000Z</time>
      </trkpt>
      <trkpt lat="45.84591" lon="4.69403">
        <ele>258.02377</ele>
        <time>2023-04-24T14:02:31.000Z</time>
      </trkpt>
      <trkpt lat="45.84589" lon="4.69405">
        <ele>258.28473</ele>
        <time>2023-04-24T14:02:32.000Z</time>
      </trkpt>
      <trkpt lat="45.84586" lon="4.69407">
        <ele>258.66937</ele>
        <time>2023-04-24T14:02:33.000Z</time>
      </trkpt>
      <trkpt lat="45.84583" lon="4.69409">
        <ele>258.88559</ele>
        <time>2023-04-24T14:02:34.000Z</time>
      </trkpt>
      <trkpt lat="45.84579" lon="4.69412">
        <ele>258.99808</ele>
        <time>2023-04-24T14:02:35.000Z</time>
      </trkpt>
      <trkpt lat="45.84575" lon="4.69414">
        <ele>259.10999</ele>
        <time>2023-04-24T14:02:36.000Z</time>
      </trkpt>
      <trkpt lat="45.84572" lon="4.69418">
        <ele>259.19019</ele>
        <time>2023-04-24T14:02:37.000Z</time>
      </trkpt>
      <trkpt lat="45.8457" lon="4.6942">
        <ele>259.27521</ele>
        <time>2023-04-24T14:02:38.000Z</time>
      </trkpt>
      <trkpt lat="45.84568" lon="4.69422">
        <ele>259.37354</ele>
        <time>2023-04-24T14:02:39.000Z</time>
      </trkpt>
      <trkpt lat="45.84565" lon="4.69425">
        <ele>259.38226</ele>
        <time>2023-04-24T14:02:40.000Z</time>
      </trkpt>
      <trkpt lat="45.84562" lon="4.69427">
        <ele>259.40192</ele>
        <time>2023-04-24T14:02:41.000Z</time>
      </trkpt>
      <trkpt lat="45.8456" lon="4.6943">
        <ele>259.52176</ele>
        <time>2023-04-24T14:02:42.000Z</time>
      </trkpt>
      <trkpt lat="45.84557" lon="4.69432">
        <ele>259.58423</ele>
        <time>2023-04-24T14:02:43.000Z</time>
      </trkpt>
      <trkpt lat="45.84555" lon="4.69434">
        <ele>259.66565</ele>
        <time>2023-04-24T14:02:44.000Z</time>
      </trkpt>
      <trkpt lat="45.84552" lon="4.69436">
        <ele>259.76877</ele>
        <time>2023-04-24T14:02:45.000Z</time>
      </trkpt>
      <trkpt lat="45.84549" lon="4.69438">
        <ele>259.86337</ele>
        <time>2023-04-24T14:02:46.000Z</time>
      </trkpt>
      <trkpt lat="45.84547" lon="4.6944">
        <ele>259.9783</ele>
        <time>2023-04-24T14:02:47.000Z</time>
      </trkpt>
      <trkpt lat="45.84544" lon="4.69444">
        <ele>260.11057</ele>
        <time>2023-04-24T14:02:48.000Z</time>
      </trkpt>
      <trkpt lat="45.84542" lon="4.69446">
        <ele>260.22433</ele>
        <time>2023-04-24T14:02:49.000Z</time>
      </trkpt>
      <trkpt lat="45.84539" lon="4.69449">
        <ele>260.37042</ele>
        <time>2023-04-24T14:02:50.000Z</time>
      </trkpt>
      <trkpt lat="45.84536" lon="4.69451">
        <ele>260.48413</ele>
        <time>2023-04-24T14:02:51.000Z</time>
      </trkpt>
      <trkpt lat="45.84533" lon="4.69452">
        <ele>260.47275</ele>
        <time>2023-04-24T14:02:52.000Z</time>
      </trkpt>
      <trkpt lat="45.8453" lon="4.69453">
        <ele>260.43512</ele>
        <time>2023-04-24T14:02:53.000Z</time>
      </trkpt>
      <trkpt lat="45.84528" lon="4.69455">
        <ele>260.42923</ele>
        <time>2023-04-24T14:02:54.000Z</time>
      </trkpt>
      <trkpt lat="45.84525" lon="4.69457">
        <ele>260.53427</ele>
        <time>2023-04-24T14:02:55.000Z</time>
      </trkpt>
      <trkpt lat="45.84523" lon="4.69459">
        <ele>260.60117</ele>
        <time>2023-04-24T14:02:56.000Z</time>
      </trkpt>
      <trkpt lat="45.84521" lon="4.6946">
        <ele>260.68402</ele>
        <time>2023-04-24T14:02:57.000Z</time>
      </trkpt>
      <trkpt lat="45.84519" lon="4.69461">
        <ele>260.73904</ele>
        <time>2023-04-24T14:02:58.000Z</time>
      </trkpt>
      <trkpt lat="45.84517" lon="4.69463">
        <ele>260.78339</ele>
        <time>2023-04-24T14:02:59.000Z</time>
      </trkpt>
      <trkpt lat="45.84515" lon="4.69466">
        <ele>260.879</ele>
        <time>2023-04-24T14:03:01.000Z</time>
      </trkpt>
      <trkpt lat="45.84512" lon="4.69468">
        <ele>260.927</ele>
        <time>2023-04-24T14:03:03.000Z</time>
      </trkpt>
      <trkpt lat="45.84511" lon="4.6947">
        <ele>260.95331</ele>
        <time>2023-04-24T14:03:07.000Z</time>
      </trkpt>
      <trkpt lat="45.8451" lon="4.69472">
        <ele>260.97281</ele>
        <time>2023-04-24T14:07:43.000Z</time>
      </trkpt>
      <trkpt lat="45.84507" lon="4.69473">
        <ele>260.98444</ele>
        <time>2023-04-24T14:07:45.000Z</time>
      </trkpt>
      <trkpt lat="45.84503" lon="4.69472">
        <ele>260.98383</ele>
        <time>2023-04-24T14:07:47.000Z</time>
      </trkpt>
      <trkpt lat="45.84501" lon="4.69473">
        <ele>260.99612</ele>
        <time>2023-04-24T14:07:48.000Z</time>
      </trkpt>
      <trkpt lat="45.84499" lon="4.69474">
        <ele>261.02316</ele>
        <time>2023-04-24T14:07:49.000Z</time>
      </trkpt>
      <trkpt lat="45.84497" lon="4.69476">
        <ele>261.05609</ele>
        <time>2023-04-24T14:07:50.000Z</time>
      </trkpt>
      <trkpt lat="45.84495" lon="4.69478">
        <ele>261.12189</ele>
        <time>2023-04-24T14:07:51.000Z</time>
      </trkpt>
      <trkpt lat="45.84494" lon="4.6948">
        <ele>261.13397</ele>
        <time>2023-04-24T14:07:52.000Z</time>
      </trkpt>
      <trkpt lat="45.84492" lon="4.69482">
        <ele>261.15475</ele>
        <time>2023-04-24T14:07:53.000Z</time>
      </trkpt>
      <trkpt lat="45.84491" lon="4.69484">
        <ele>261.25119</ele>
        <time>2023-04-24T14:07:54.000Z</time>
      </trkpt>
      <trkpt lat="45.8449" lon="4.69486">
        <ele>261.37689</ele>
        <time>2023-04-24T14:07:55.000Z</time>
      </trkpt>
      <trkpt lat="45.84488" lon="4.69489">
        <ele>261.47549</ele>
        <time>2023-04-24T14:07:57.000Z</time>
      </trkpt>
      <trkpt lat="45.84485" lon="4.69492">
        <ele>261.56927</ele>
        <time>2023-04-24T14:07:59.000Z</time>
      </trkpt>
      <trkpt lat="45.84483" lon="4.69494">
        <ele>261.66354</ele>
        <time>2023-04-24T14:08:00.000Z</time>
      </trkpt>
      <trkpt lat="45.8448" lon="4.69496">
        <ele>263.17569</ele>
        <time>2023-04-24T14:08:02.000Z</time>
      </trkpt>
      <trkpt lat="45.84477" lon="4.69497">
        <ele>264.18872</ele>
        <time>2023-04-24T14:08:03.000Z</time>
      </trkpt>
      <trkpt lat="45.84475" lon="4.69498">
        <ele>265.35657</ele>
        <time>2023-04-24T14:08:04.000Z</time>
      </trkpt>
      <trkpt lat="45.84472" lon="4.695">
        <ele>266.46191</ele>
        <time>2023-04-24T14:08:05.000Z</time>
      </trkpt>
      <trkpt lat="45.8447" lon="4.69501">
        <ele>267.68903</ele>
        <time>2023-04-24T14:08:06.000Z</time>
      </trkpt>
      <trkpt lat="45.84467" lon="4.69501">
        <ele>268.97528</ele>
        <time>2023-04-24T14:08:07.000Z</time>
      </trkpt>
      <trkpt lat="45.84464" lon="4.69502">
        <ele>270.15848</ele>
        <time>2023-04-24T14:08:08.000Z</time>
      </trkpt>
      <trkpt lat="45.84462" lon="4.69503">
        <ele>271.28442</ele>
        <time>2023-04-24T14:08:09.000Z</time>
      </trkpt>
      <trkpt lat="45.84459" lon="4.69504">
        <ele>272.53076</ele>
        <time>2023-04-24T14:08:10.000Z</time>
      </trkpt>
      <trkpt lat="45.84456" lon="4.69506">
        <ele>273.72601</ele>
        <time>2023-04-24T14:08:11.000Z</time>
      </trkpt>
      <trkpt lat="45.84454" lon="4.69506">
        <ele>274.81619</ele>
        <time>2023-04-24T14:08:12.000Z</time>
      </trkpt>
      <trkpt lat="45.84451" lon="4.69507">
        <ele>276.18829</ele>
        <time>2023-04-24T14:08:13.000Z</time>
      </trkpt>
      <trkpt lat="45.84449" lon="4.69508">
        <ele>276.37335</ele>
        <time>2023-04-24T14:08:14.000Z</time>
      </trkpt>
      <trkpt lat="45.84447" lon="4.69509">
        <ele>276.5488</ele>
        <time>2023-04-24T14:08:15.000Z</time>
      </trkpt>
      <trkpt lat="45.84445" lon="4.6951">
        <ele>276.71649</ele>
        <time>2023-04-24T14:08:16.000Z</time>
      </trkpt>
      <trkpt lat="45.84443" lon="4.69511">
        <ele>276.88022</ele>
        <time>2023-04-24T14:08:17.000Z</time>
      </trkpt>
      <trkpt lat="45.84441" lon="4.69512">
        <ele>277.03424</ele>
        <time>2023-04-24T14:08:24.000Z</time>
      </trkpt>
      <trkpt lat="45.84439" lon="4.69514">
        <ele>277.25235</ele>
        <time>2023-04-24T14:08:41.000Z</time>
      </trkpt>
      <trkpt lat="45.84437" lon="4.69515">
        <ele>277.45505</ele>
        <time>2023-04-24T14:08:42.000Z</time>
      </trkpt>
      <trkpt lat="45.84434" lon="4.69516">
        <ele>277.66263</ele>
        <time>2023-04-24T14:08:43.000Z</time>
      </trkpt>
      <trkpt lat="45.84432" lon="4.69517">
        <ele>276.45319</ele>
        <time>2023-04-24T14:08:44.000Z</time>
      </trkpt>
      <trkpt lat="45.8443" lon="4.69517">
        <ele>275.75229</ele>
        <time>2023-04-24T14:08:45.000Z</time>
      </trkpt>
      <trkpt lat="45.84427" lon="4.69518">
        <ele>274.89658</ele>
        <time>2023-04-24T14:08:46.000Z</time>
      </trkpt>
      <trkpt lat="45.84424" lon="4.69519">
        <ele>274.05377</ele>
        <time>2023-04-24T14:08:47.000Z</time>
      </trkpt>
      <trkpt lat="45.8442" lon="4.6952">
        <ele>273.14468</ele>
        <time>2023-04-24T14:08:48.000Z</time>
      </trkpt>
      <trkpt lat="45.84417" lon="4.69521">
        <ele>272.16245</ele>
        <time>2023-04-24T14:08:49.000Z</time>
      </trkpt>
      <trkpt lat="45.84413" lon="4.69522">
        <ele>271.26849</ele>
        <time>2023-04-24T14:08:50.000Z</time>
      </trkpt>
      <trkpt lat="45.84409" lon="4.69523">
        <ele>270.5022</ele>
        <time>2023-04-24T14:08:51.000Z</time>
      </trkpt>
      <trkpt lat="45.84404" lon="4.69524">
        <ele>269.56659</ele>
        <time>2023-04-24T14:08:53.000Z</time>
      </trkpt>
      <trkpt lat="45.84401" lon="4.69525">
        <ele>268.67926</ele>
        <time>2023-04-24T14:08:54.000Z</time>
      </trkpt>
      <trkpt lat="45.84398" lon="4.69525">
        <ele>267.86285</ele>
        <time>2023-04-24T14:08:55.000Z</time>
      </trkpt>
      <trkpt lat="45.84394" lon="4.69524">
        <ele>266.8299</ele>
        <time>2023-04-24T14:08:57.000Z</time>
      </trkpt>
      <trkpt lat="45.8439" lon="4.69523">
        <ele>267.00784</ele>
        <time>2023-04-24T14:08:58.000Z</time>
      </trkpt>
      <trkpt lat="45.84388" lon="4.69525">
        <ele>267.15997</ele>
        <time>2023-04-24T14:08:59.000Z</time>
      </trkpt>
      <trkpt lat="45.84385" lon="4.69527">
        <ele>267.31055</ele>
        <time>2023-04-24T14:09:00.000Z</time>
      </trkpt>
      <trkpt lat="45.84383" lon="4.69528">
        <ele>267.48969</ele>
        <time>2023-04-24T14:09:01.000Z</time>
      </trkpt>
      <trkpt lat="45.84381" lon="4.69527">
        <ele>267.64304</ele>
        <time>2023-04-24T14:09:02.000Z</time>
      </trkpt>
      <trkpt lat="45.84378" lon="4.69526">
        <ele>267.72119</ele>
        <time>2023-04-24T14:09:03.000Z</time>
      </trkpt>
      <trkpt lat="45.84375" lon="4.69524">
        <ele>267.78714</ele>
        <time>2023-04-24T14:09:04.000Z</time>
      </trkpt>
      <trkpt lat="45.84372" lon="4.69523">
        <ele>267.84732</ele>
        <time>2023-04-24T14:09:05.000Z</time>
      </trkpt>
      <trkpt lat="45.84369" lon="4.69523">
        <ele>267.85907</ele>
        <time>2023-04-24T14:09:06.000Z</time>
      </trkpt>
      <trkpt lat="45.84366" lon="4.69522">
        <ele>267.80008</ele>
        <time>2023-04-24T14:09:07.000Z</time>
      </trkpt>
      <trkpt lat="45.84362" lon="4.69521">
        <ele>267.73627</ele>
        <time>2023-04-24T14:09:08.000Z</time>
      </trkpt>
      <trkpt lat="45.84359" lon="4.6952">
        <ele>267.67322</ele>
        <time>2023-04-24T14:09:09.000Z</time>
      </trkpt>
      <trkpt lat="45.84356" lon="4.69519">
        <ele>267.60825</ele>
        <time>2023-04-24T14:09:10.000Z</time>
      </trkpt>
      <trkpt lat="45.84353" lon="4.69518">
        <ele>267.60474</ele>
        <time>2023-04-24T14:09:11.000Z</time>
      </trkpt>
      <trkpt lat="45.8435" lon="4.69517">
        <ele>267.61667</ele>
        <time>2023-04-24T14:09:12.000Z</time>
      </trkpt>
      <trkpt lat="45.84347" lon="4.69516">
        <ele>267.52969</ele>
        <time>2023-04-24T14:09:13.000Z</time>
      </trkpt>
      <trkpt lat="45.84344" lon="4.69516">
        <ele>267.45074</ele>
        <time>2023-04-24T14:09:14.000Z</time>
      </trkpt>
      <trkpt lat="45.84341" lon="4.69516">
        <ele>267.37766</ele>
        <time>2023-04-24T14:09:15.000Z</time>
      </trkpt>
      <trkpt lat="45.84338" lon="4.69515">
        <ele>267.28851</ele>
        <time>2023-04-24T14:09:16.000Z</time>
      </trkpt>
      <trkpt lat="45.84334" lon="4.69515">
        <ele>267.13458</ele>
        <time>2023-04-24T14:09:17.000Z</time>
      </trkpt>
      <trkpt lat="45.84331" lon="4.69514">
        <ele>266.96967</ele>
        <time>2023-04-24T14:09:18.000Z</time>
      </trkpt>
      <trkpt lat="45.84328" lon="4.69514">
        <ele>266.82938</ele>
        <time>2023-04-24T14:09:19.000Z</time>
      </trkpt>
      <trkpt lat="45.84325" lon="4.69513">
        <ele>266.68903</ele>
        <time>2023-04-24T14:09:20.000Z</time>
      </trkpt>
      <trkpt lat="45.84322" lon="4.69511">
        <ele>266.56207</ele>
        <time>2023-04-24T14:09:21.000Z</time>
      </trkpt>
      <trkpt lat="45.84318" lon="4.6951">
        <ele>266.45731</ele>
        <time>2023-04-24T14:09:22.000Z</time>
      </trkpt>
      <trkpt lat="45.84314" lon="4.6951">
        <ele>266.39813</ele>
        <time>2023-04-24T14:09:23.000Z</time>
      </trkpt>
      <trkpt lat="45.8431" lon="4.6951">
        <ele>266.32455</ele>
        <time>2023-04-24T14:09:24.000Z</time>
      </trkpt>
      <trkpt lat="45.84307" lon="4.6951">
        <ele>266.25436</ele>
        <time>2023-04-24T14:09:25.000Z</time>
      </trkpt>
      <trkpt lat="45.84303" lon="4.69509">
        <ele>266.45868</ele>
        <time>2023-04-24T14:09:26.000Z</time>
      </trkpt>
      <trkpt lat="45.843" lon="4.69508">
        <ele>266.7428</ele>
        <time>2023-04-24T14:09:27.000Z</time>
      </trkpt>
      <trkpt lat="45.84296" lon="4.69507">
        <ele>267.10181</ele>
        <time>2023-04-24T14:09:28.000Z</time>
      </trkpt>
      <trkpt lat="45.84292" lon="4.69506">
        <ele>267.46381</ele>
        <time>2023-04-24T14:09:29.000Z</time>
      </trkpt>
      <trkpt lat="45.84289" lon="4.69506">
        <ele>267.87375</ele>
        <time>2023-04-24T14:09:30.000Z</time>
      </trkpt>
      <trkpt lat="45.84285" lon="4.69505">
        <ele>268.23764</ele>
        <time>2023-04-24T14:09:31.000Z</time>
      </trkpt>
      <trkpt lat="45.84281" lon="4.69503">
        <ele>268.60089</ele>
        <time>2023-04-24T14:09:32.000Z</time>
      </trkpt>
      <trkpt lat="45.84277" lon="4.69502">
        <ele>269.01987</ele>
        <time>2023-04-24T14:09:33.000Z</time>
      </trkpt>
      <trkpt lat="45.84273" lon="4.695">
        <ele>269.44077</ele>
        <time>2023-04-24T14:09:34.000Z</time>
      </trkpt>
      <trkpt lat="45.84266" lon="4.69499">
        <ele>269.59204</ele>
        <time>2023-04-24T14:09:35.000Z</time>
      </trkpt>
      <trkpt lat="45.84262" lon="4.69497">
        <ele>269.8172</ele>
        <time>2023-04-24T14:09:36.000Z</time>
      </trkpt>
      <trkpt lat="45.84257" lon="4.69496">
        <ele>270.04886</ele>
        <time>2023-04-24T14:09:37.000Z</time>
      </trkpt>
      <trkpt lat="45.84252" lon="4.69495">
        <ele>270.27426</ele>
        <time>2023-04-24T14:09:38.000Z</time>
      </trkpt>
      <trkpt lat="45.84247" lon="4.69493">
        <ele>270.53842</ele>
        <time>2023-04-24T14:09:39.000Z</time>
      </trkpt>
      <trkpt lat="45.84242" lon="4.69492">
        <ele>270.79547</ele>
        <time>2023-04-24T14:09:40.000Z</time>
      </trkpt>
      <trkpt lat="45.84238" lon="4.6949">
        <ele>271.04584</ele>
        <time>2023-04-24T14:09:41.000Z</time>
      </trkpt>
      <trkpt lat="45.84234" lon="4.6949">
        <ele>271.27414</ele>
        <time>2023-04-24T14:09:42.000Z</time>
      </trkpt>
      <trkpt lat="45.84229" lon="4.69488">
        <ele>271.46262</ele>
        <time>2023-04-24T14:09:43.000Z</time>
      </trkpt>
      <trkpt lat="45.84223" lon="4.69488">
        <ele>271.64288</ele>
        <time>2023-04-24T14:09:44.000Z</time>
      </trkpt>
      <trkpt lat="45.84219" lon="4.69487">
        <ele>271.81924</ele>
        <time>2023-04-24T14:09:45.000Z</time>
      </trkpt>
      <trkpt lat="45.84215" lon="4.69486">
        <ele>271.8667</ele>
        <time>2023-04-24T14:09:46.000Z</time>
      </trkpt>
      <trkpt lat="45.8421" lon="4.69484">
        <ele>271.88239</ele>
        <time>2023-04-24T14:09:47.000Z</time>
      </trkpt>
      <trkpt lat="45.84206" lon="4.69482">
        <ele>271.8158</ele>
        <time>2023-04-24T14:09:48.000Z</time>
      </trkpt>
      <trkpt lat="45.84201" lon="4.69481">
        <ele>271.73596</ele>
        <time>2023-04-24T14:09:49.000Z</time>
      </trkpt>
      <trkpt lat="45.84197" lon="4.6948">
        <ele>271.63477</ele>
        <time>2023-04-24T14:09:50.000Z</time>
      </trkpt>
      <trkpt lat="45.84192" lon="4.69477">
        <ele>271.55585</ele>
        <time>2023-04-24T14:09:51.000Z</time>
      </trkpt>
      <trkpt lat="45.84188" lon="4.69476">
        <ele>271.48663</ele>
        <time>2023-04-24T14:09:52.000Z</time>
      </trkpt>
      <trkpt lat="45.84184" lon="4.69475">
        <ele>271.38797</ele>
        <time>2023-04-24T14:09:53.000Z</time>
      </trkpt>
      <trkpt lat="45.8418" lon="4.69475">
        <ele>271.33002</ele>
        <time>2023-04-24T14:09:54.000Z</time>
      </trkpt>
      <trkpt lat="45.84176" lon="4.69475">
        <ele>271.56482</ele>
        <time>2023-04-24T14:09:55.000Z</time>
      </trkpt>
      <trkpt lat="45.84173" lon="4.69475">
        <ele>271.70322</ele>
        <time>2023-04-24T14:09:56.000Z</time>
      </trkpt>
      <trkpt lat="45.84168" lon="4.69476">
        <ele>271.82278</ele>
        <time>2023-04-24T14:09:57.000Z</time>
      </trkpt>
      <trkpt lat="45.84164" lon="4.69477">
        <ele>271.94302</ele>
        <time>2023-04-24T14:09:58.000Z</time>
      </trkpt>
      <trkpt lat="45.84159" lon="4.69478">
        <ele>272.05481</ele>
        <time>2023-04-24T14:09:59.000Z</time>
      </trkpt>
      <trkpt lat="45.84156" lon="4.69477">
        <ele>272.1644</ele>
        <time>2023-04-24T14:10:00.000Z</time>
      </trkpt>
      <trkpt lat="45.84151" lon="4.69474">
        <ele>272.25189</ele>
        <time>2023-04-24T14:10:01.000Z</time>
      </trkpt>
      <trkpt lat="45.84148" lon="4.69475">
        <ele>272.3244</ele>
        <time>2023-04-24T14:10:02.000Z</time>
      </trkpt>
      <trkpt lat="45.84144" lon="4.69476">
        <ele>272.38126</ele>
        <time>2023-04-24T14:10:03.000Z</time>
      </trkpt>
      <trkpt lat="45.8414" lon="4.69477">
        <ele>272.49414</ele>
        <time>2023-04-24T14:10:04.000Z</time>
      </trkpt>
      <trkpt lat="45.84136" lon="4.69478">
        <ele>272.64948</ele>
        <time>2023-04-24T14:10:05.000Z</time>
      </trkpt>
      <trkpt lat="45.84132" lon="4.69478">
        <ele>272.64368</ele>
        <time>2023-04-24T14:10:06.000Z</time>
      </trkpt>
      <trkpt lat="45.84128" lon="4.69479">
        <ele>272.65085</ele>
        <time>2023-04-24T14:10:07.000Z</time>
      </trkpt>
      <trkpt lat="45.84124" lon="4.6948">
        <ele>272.67715</ele>
        <time>2023-04-24T14:10:08.000Z</time>
      </trkpt>
      <trkpt lat="45.84121" lon="4.69481">
        <ele>272.97101</ele>
        <time>2023-04-24T14:10:09.000Z</time>
      </trkpt>
      <trkpt lat="45.84117" lon="4.69481">
        <ele>273.26703</ele>
        <time>2023-04-24T14:10:10.000Z</time>
      </trkpt>
      <trkpt lat="45.84113" lon="4.69482">
        <ele>273.52753</ele>
        <time>2023-04-24T14:10:11.000Z</time>
      </trkpt>
      <trkpt lat="45.84109" lon="4.69482">
        <ele>273.78088</ele>
        <time>2023-04-24T14:10:12.000Z</time>
      </trkpt>
      <trkpt lat="45.84106" lon="4.69482">
        <ele>274.0347</ele>
        <time>2023-04-24T14:10:13.000Z</time>
      </trkpt>
      <trkpt lat="45.84102" lon="4.69482">
        <ele>274.28659</ele>
        <time>2023-04-24T14:10:14.000Z</time>
      </trkpt>
      <trkpt lat="45.84099" lon="4.69482">
        <ele>274.49335</ele>
        <time>2023-04-24T14:10:15.000Z</time>
      </trkpt>
      <trkpt lat="45.84096" lon="4.69482">
        <ele>274.58377</ele>
        <time>2023-04-24T14:10:16.000Z</time>
      </trkpt>
      <trkpt lat="45.84092" lon="4.69482">
        <ele>274.63364</ele>
        <time>2023-04-24T14:10:17.000Z</time>
      </trkpt>
      <trkpt lat="45.84088" lon="4.69482">
        <ele>274.67535</ele>
        <time>2023-04-24T14:10:18.000Z</time>
      </trkpt>
      <trkpt lat="45.84085" lon="4.69482">
        <ele>275.15192</ele>
        <time>2023-04-24T14:10:19.000Z</time>
      </trkpt>
      <trkpt lat="45.84081" lon="4.69482">
        <ele>275.60492</ele>
        <time>2023-04-24T14:10:20.000Z</time>
      </trkpt>
      <trkpt lat="45.84078" lon="4.69481">
        <ele>275.93002</ele>
        <time>2023-04-24T14:10:21.000Z</time>
      </trkpt>
      <trkpt lat="45.84075" lon="4.69481">
        <ele>276.3147</ele>
        <time>2023-04-24T14:10:22.000Z</time>
      </trkpt>
      <trkpt lat="45.84072" lon="4.69481">
        <ele>276.69159</ele>
        <time>2023-04-24T14:10:23.000Z</time>
      </trkpt>
      <trkpt lat="45.84069" lon="4.69481">
        <ele>277.06601</ele>
        <time>2023-04-24T14:10:24.000Z</time>
      </trkpt>
      <trkpt lat="45.84065" lon="4.6948">
        <ele>277.44382</ele>
        <time>2023-04-24T14:10:25.000Z</time>
      </trkpt>
      <trkpt lat="45.84061" lon="4.6948">
        <ele>277.53046</ele>
        <time>2023-04-24T14:10:26.000Z</time>
      </trkpt>
      <trkpt lat="45.84058" lon="4.69481">
        <ele>277.62201</ele>
        <time>2023-04-24T14:10:27.000Z</time>
      </trkpt>
      <trkpt lat="45.84054" lon="4.69481">
        <ele>277.7135</ele>
        <time>2023-04-24T14:10:28.000Z</time>
      </trkpt>
      <trkpt lat="45.8405" lon="4.69481">
        <ele>277.52975</ele>
        <time>2023-04-24T14:10:29.000Z</time>
      </trkpt>
      <trkpt lat="45.84046" lon="4.69481">
        <ele>277.30844</ele>
        <time>2023-04-24T14:10:30.000Z</time>
      </trkpt>
      <trkpt lat="45.84042" lon="4.69481">
        <ele>277.1055</ele>
        <time>2023-04-24T14:10:31.000Z</time>
      </trkpt>
      <trkpt lat="45.84039" lon="4.69483">
        <ele>276.92047</ele>
        <time>2023-04-24T14:10:32.000Z</time>
      </trkpt>
      <trkpt lat="45.84034" lon="4.69486">
        <ele>276.74823</ele>
        <time>2023-04-24T14:10:33.000Z</time>
      </trkpt>
      <trkpt lat="45.84031" lon="4.69489">
        <ele>276.59052</ele>
        <time>2023-04-24T14:10:34.000Z</time>
      </trkpt>
      <trkpt lat="45.84027" lon="4.69492">
        <ele>276.41541</ele>
        <time>2023-04-24T14:10:35.000Z</time>
      </trkpt>
      <trkpt lat="45.84023" lon="4.69494">
        <ele>276.38934</ele>
        <time>2023-04-24T14:10:36.000Z</time>
      </trkpt>
      <trkpt lat="45.84019" lon="4.69497">
        <ele>276.41089</ele>
        <time>2023-04-24T14:10:37.000Z</time>
      </trkpt>
      <trkpt lat="45.84015" lon="4.69499">
        <ele>276.43768</ele>
        <time>2023-04-24T14:10:38.000Z</time>
      </trkpt>
      <trkpt lat="45.84012" lon="4.695">
        <ele>275.99689</ele>
        <time>2023-04-24T14:10:39.000Z</time>
      </trkpt>
      <trkpt lat="45.84008" lon="4.69502">
        <ele>275.55133</ele>
        <time>2023-04-24T14:10:40.000Z</time>
      </trkpt>
      <trkpt lat="45.84005" lon="4.69504">
        <ele>275.41388</ele>
        <time>2023-04-24T14:10:41.000Z</time>
      </trkpt>
      <trkpt lat="45.84002" lon="4.69506">
        <ele>275.18857</ele>
        <time>2023-04-24T14:10:42.000Z</time>
      </trkpt>
      <trkpt lat="45.84" lon="4.69507">
        <ele>274.95081</ele>
        <time>2023-04-24T14:10:43.000Z</time>
      </trkpt>
      <trkpt lat="45.83997" lon="4.69509">
        <ele>274.68451</ele>
        <time>2023-04-24T14:10:44.000Z</time>
      </trkpt>
      <trkpt lat="45.83994" lon="4.6951">
        <ele>274.42841</ele>
        <time>2023-04-24T14:10:45.000Z</time>
      </trkpt>
      <trkpt lat="45.83992" lon="4.69512">
        <ele>274.54056</ele>
        <time>2023-04-24T14:10:46.000Z</time>
      </trkpt>
      <trkpt lat="45.8399" lon="4.69513">
        <ele>274.62241</ele>
        <time>2023-04-24T14:10:47.000Z</time>
      </trkpt>
      <trkpt lat="45.83988" lon="4.69515">
        <ele>274.71436</ele>
        <time>2023-04-24T14:10:48.000Z</time>
      </trkpt>
      <trkpt lat="45.83986" lon="4.69517">
        <ele>274.87308</ele>
        <time>2023-04-24T14:10:49.000Z</time>
      </trkpt>
      <trkpt lat="45.83984" lon="4.69517">
        <ele>275.01132</ele>
        <time>2023-04-24T14:10:50.000Z</time>
      </trkpt>
      <trkpt lat="45.83981" lon="4.69517">
        <ele>275.14975</ele>
        <time>2023-04-24T14:10:51.000Z</time>
      </trkpt>
      <trkpt lat="45.83979" lon="4.6952">
        <ele>275.2955</ele>
        <time>2023-04-24T14:10:53.000Z</time>
      </trkpt>
      <trkpt lat="45.83982" lon="4.69522">
        <ele>275.40894</ele>
        <time>2023-04-24T14:10:55.000Z</time>
      </trkpt>
      <trkpt lat="45.83985" lon="4.69521">
        <ele>275.52753</ele>
        <time>2023-04-24T14:10:56.000Z</time>
      </trkpt>
      <trkpt lat="45.83987" lon="4.69518">
        <ele>275.65839</ele>
        <time>2023-04-24T14:10:57.000Z</time>
      </trkpt>
      <trkpt lat="45.8399" lon="4.69516">
        <ele>275.78082</ele>
        <time>2023-04-24T14:10:58.000Z</time>
      </trkpt>
      <trkpt lat="45.83993" lon="4.69513">
        <ele>275.89008</ele>
        <time>2023-04-24T14:10:59.000Z</time>
      </trkpt>
      <trkpt lat="45.83997" lon="4.69512">
        <ele>276.01529</ele>
        <time>2023-04-24T14:11:00.000Z</time>
      </trkpt>
      <trkpt lat="45.84" lon="4.69511">
        <ele>276.17233</ele>
        <time>2023-04-24T14:11:01.000Z</time>
      </trkpt>
      <trkpt lat="45.84004" lon="4.69509">
        <ele>276.3869</ele>
        <time>2023-04-24T14:11:02.000Z</time>
      </trkpt>
      <trkpt lat="45.84007" lon="4.69507">
        <ele>276.44037</ele>
        <time>2023-04-24T14:11:03.000Z</time>
      </trkpt>
      <trkpt lat="45.8401" lon="4.69504">
        <ele>276.54761</ele>
        <time>2023-04-24T14:11:04.000Z</time>
      </trkpt>
      <trkpt lat="45.84013" lon="4.69502">
        <ele>276.66428</ele>
        <time>2023-04-24T14:11:05.000Z</time>
      </trkpt>
      <trkpt lat="45.84017" lon="4.695">
        <ele>276.77924</ele>
        <time>2023-04-24T14:11:06.000Z</time>
      </trkpt>
      <trkpt lat="45.8402" lon="4.69498">
        <ele>276.71823</ele>
        <time>2023-04-24T14:11:07.000Z</time>
      </trkpt>
      <trkpt lat="45.84024" lon="4.69496">
        <ele>276.64487</ele>
        <time>2023-04-24T14:11:08.000Z</time>
      </trkpt>
      <trkpt lat="45.84028" lon="4.69494">
        <ele>276.63077</ele>
        <time>2023-04-24T14:11:09.000Z</time>
      </trkpt>
      <trkpt lat="45.84031" lon="4.69492">
        <ele>276.58252</ele>
        <time>2023-04-24T14:11:10.000Z</time>
      </trkpt>
      <trkpt lat="45.84035" lon="4.69491">
        <ele>276.49258</ele>
        <time>2023-04-24T14:11:11.000Z</time>
      </trkpt>
      <trkpt lat="45.84038" lon="4.69489">
        <ele>276.41342</ele>
        <time>2023-04-24T14:11:12.000Z</time>
      </trkpt>
      <trkpt lat="45.84042" lon="4.69488">
        <ele>276.34726</ele>
        <time>2023-04-24T14:11:13.000Z</time>
      </trkpt>
      <trkpt lat="45.84046" lon="4.69487">
        <ele>276.28949</ele>
        <time>2023-04-24T14:11:14.000Z</time>
      </trkpt>
      <trkpt lat="45.8405" lon="4.69486">
        <ele>276.27496</ele>
        <time>2023-04-24T14:11:15.000Z</time>
      </trkpt>
      <trkpt lat="45.84054" lon="4.69485">
        <ele>276.23602</ele>
        <time>2023-04-24T14:11:16.000Z</time>
      </trkpt>
      <trkpt lat="45.84057" lon="4.69485">
        <ele>276.19141</ele>
        <time>2023-04-24T14:11:17.000Z</time>
      </trkpt>
      <trkpt lat="45.84061" lon="4.69485">
        <ele>276.16028</ele>
        <time>2023-04-24T14:11:18.000Z</time>
      </trkpt>
      <trkpt lat="45.84065" lon="4.69484">
        <ele>276.14862</ele>
        <time>2023-04-24T14:11:19.000Z</time>
      </trkpt>
      <trkpt lat="45.84068" lon="4.69485">
        <ele>276.12665</ele>
        <time>2023-04-24T14:11:20.000Z</time>
      </trkpt>
      <trkpt lat="45.84072" lon="4.69485">
        <ele>276.07791</ele>
        <time>2023-04-24T14:11:21.000Z</time>
      </trkpt>
      <trkpt lat="45.84076" lon="4.69485">
        <ele>275.98572</ele>
        <time>2023-04-24T14:11:22.000Z</time>
      </trkpt>
      <trkpt lat="45.8408" lon="4.69485">
        <ele>275.771</ele>
        <time>2023-04-24T14:11:23.000Z</time>
      </trkpt>
      <trkpt lat="45.84084" lon="4.69486">
        <ele>275.57391</ele>
        <time>2023-04-24T14:11:24.000Z</time>
      </trkpt>
      <trkpt lat="45.84088" lon="4.69486">
        <ele>275.37753</ele>
        <time>2023-04-24T14:11:25.000Z</time>
      </trkpt>
      <trkpt lat="45.84092" lon="4.69486">
        <ele>275.15057</ele>
        <time>2023-04-24T14:11:26.000Z</time>
      </trkpt>
      <trkpt lat="45.84096" lon="4.69486">
        <ele>275.06802</ele>
        <time>2023-04-24T14:11:27.000Z</time>
      </trkpt>
      <trkpt lat="45.84099" lon="4.69485">
        <ele>274.96527</ele>
        <time>2023-04-24T14:11:28.000Z</time>
      </trkpt>
      <trkpt lat="45.84103" lon="4.69484">
        <ele>274.82095</ele>
        <time>2023-04-24T14:11:29.000Z</time>
      </trkpt>
      <trkpt lat="45.84107" lon="4.69483">
        <ele>274.8338</ele>
        <time>2023-04-24T14:11:30.000Z</time>
      </trkpt>
      <trkpt lat="45.84111" lon="4.69483">
        <ele>274.82144</ele>
        <time>2023-04-24T14:11:31.000Z</time>
      </trkpt>
      <trkpt lat="45.84114" lon="4.69483">
        <ele>274.83109</ele>
        <time>2023-04-24T14:11:32.000Z</time>
      </trkpt>
      <trkpt lat="45.84117" lon="4.69483">
        <ele>274.80161</ele>
        <time>2023-04-24T14:11:33.000Z</time>
      </trkpt>
      <trkpt lat="45.8412" lon="4.69484">
        <ele>274.88992</ele>
        <time>2023-04-24T14:11:34.000Z</time>
      </trkpt>
      <trkpt lat="45.84123" lon="4.69484">
        <ele>274.96848</ele>
        <time>2023-04-24T14:11:35.000Z</time>
      </trkpt>
      <trkpt lat="45.84125" lon="4.69484">
        <ele>275.03299</ele>
        <time>2023-04-24T14:11:36.000Z</time>
      </trkpt>
      <trkpt lat="45.84128" lon="4.69484">
        <ele>275.10239</ele>
        <time>2023-04-24T14:11:37.000Z</time>
      </trkpt>
      <trkpt lat="45.84131" lon="4.69484">
        <ele>275.06537</ele>
        <time>2023-04-24T14:11:38.000Z</time>
      </trkpt>
      <trkpt lat="45.84134" lon="4.69485">
        <ele>275.0192</ele>
        <time>2023-04-24T14:11:39.000Z</time>
      </trkpt>
      <trkpt lat="45.84137" lon="4.69484">
        <ele>274.96234</ele>
        <time>2023-04-24T14:11:40.000Z</time>
      </trkpt>
      <trkpt lat="45.8414" lon="4.69484">
        <ele>276.02084</ele>
        <time>2023-04-24T14:11:41.000Z</time>
      </trkpt>
      <trkpt lat="45.84144" lon="4.69483">
        <ele>277.22235</ele>
        <time>2023-04-24T14:11:42.000Z</time>
      </trkpt>
      <trkpt lat="45.84148" lon="4.69482">
        <ele>277.39969</ele>
        <time>2023-04-24T14:11:43.000Z</time>
      </trkpt>
      <trkpt lat="45.84152" lon="4.69481">
        <ele>277.362</ele>
        <time>2023-04-24T14:11:44.000Z</time>
      </trkpt>
      <trkpt lat="45.84157" lon="4.69479">
        <ele>277.33163</ele>
        <time>2023-04-24T14:11:45.000Z</time>
      </trkpt>
      <trkpt lat="45.84162" lon="4.69478">
        <ele>277.34952</ele>
        <time>2023-04-24T14:11:46.000Z</time>
      </trkpt>
      <trkpt lat="45.84167" lon="4.69478">
        <ele>277.30157</ele>
        <time>2023-04-24T14:11:47.000Z</time>
      </trkpt>
      <trkpt lat="45.84172" lon="4.69478">
        <ele>277.27875</ele>
        <time>2023-04-24T14:11:48.000Z</time>
      </trkpt>
      <trkpt lat="45.84177" lon="4.69478">
        <ele>277.28357</ele>
        <time>2023-04-24T14:11:49.000Z</time>
      </trkpt>
      <trkpt lat="45.84182" lon="4.69478">
        <ele>277.14227</ele>
        <time>2023-04-24T14:11:50.000Z</time>
      </trkpt>
      <trkpt lat="45.84187" lon="4.69479">
        <ele>277.0163</ele>
        <time>2023-04-24T14:11:51.000Z</time>
      </trkpt>
      <trkpt lat="45.84192" lon="4.6948">
        <ele>276.89728</ele>
        <time>2023-04-24T14:11:52.000Z</time>
      </trkpt>
      <trkpt lat="45.84197" lon="4.69481">
        <ele>276.77695</ele>
        <time>2023-04-24T14:11:53.000Z</time>
      </trkpt>
      <trkpt lat="45.842" lon="4.69483">
        <ele>276.46088</ele>
        <time>2023-04-24T14:11:54.000Z</time>
      </trkpt>
      <trkpt lat="45.84202" lon="4.69485">
        <ele>276.09399</ele>
        <time>2023-04-24T14:11:55.000Z</time>
      </trkpt>
      <trkpt lat="45.84205" lon="4.69486">
        <ele>275.70221</ele>
        <time>2023-04-24T14:11:56.000Z</time>
      </trkpt>
      <trkpt lat="45.84208" lon="4.69486">
        <ele>275.32684</ele>
        <time>2023-04-24T14:11:57.000Z</time>
      </trkpt>
      <trkpt lat="45.84211" lon="4.69487">
        <ele>275.15033</ele>
        <time>2023-04-24T14:11:58.000Z</time>
      </trkpt>
      <trkpt lat="45.84213" lon="4.69487">
        <ele>274.9566</ele>
        <time>2023-04-24T14:11:59.000Z</time>
      </trkpt>
      <trkpt lat="45.84217" lon="4.69488">
        <ele>274.75815</ele>
        <time>2023-04-24T14:12:00.000Z</time>
      </trkpt>
      <trkpt lat="45.8422" lon="4.69489">
        <ele>273.43164</ele>
        <time>2023-04-24T14:12:01.000Z</time>
      </trkpt>
      <trkpt lat="45.84224" lon="4.69489">
        <ele>271.95074</ele>
        <time>2023-04-24T14:12:02.000Z</time>
      </trkpt>
      <trkpt lat="45.84228" lon="4.69491">
        <ele>271.60086</ele>
        <time>2023-04-24T14:12:03.000Z</time>
      </trkpt>
      <trkpt lat="45.84231" lon="4.69492">
        <ele>271.41827</ele>
        <time>2023-04-24T14:12:04.000Z</time>
      </trkpt>
      <trkpt lat="45.84235" lon="4.69493">
        <ele>271.25891</ele>
        <time>2023-04-24T14:12:05.000Z</time>
      </trkpt>
      <trkpt lat="45.84238" lon="4.69494">
        <ele>271.06351</ele>
        <time>2023-04-24T14:12:06.000Z</time>
      </trkpt>
      <trkpt lat="45.84242" lon="4.69495">
        <ele>270.95334</ele>
        <time>2023-04-24T14:12:07.000Z</time>
      </trkpt>
      <trkpt lat="45.84245" lon="4.69496">
        <ele>270.84485</ele>
        <time>2023-04-24T14:12:08.000Z</time>
      </trkpt>
      <trkpt lat="45.84249" lon="4.69497">
        <ele>270.6983</ele>
        <time>2023-04-24T14:12:09.000Z</time>
      </trkpt>
      <trkpt lat="45.84252" lon="4.69498">
        <ele>270.56656</ele>
        <time>2023-04-24T14:12:10.000Z</time>
      </trkpt>
      <trkpt lat="45.84256" lon="4.69499">
        <ele>270.43137</ele>
        <time>2023-04-24T14:12:11.000Z</time>
      </trkpt>
      <trkpt lat="45.8426" lon="4.69501">
        <ele>270.2821</ele>
        <time>2023-04-24T14:12:12.000Z</time>
      </trkpt>
      <trkpt lat="45.84263" lon="4.69502">
        <ele>270.19177</ele>
        <time>2023-04-24T14:12:13.000Z</time>
      </trkpt>
      <trkpt lat="45.84267" lon="4.69503">
        <ele>270.14395</ele>
        <time>2023-04-24T14:12:14.000Z</time>
      </trkpt>
      <trkpt lat="45.84271" lon="4.69503">
        <ele>270.14468</ele>
        <time>2023-04-24T14:12:15.000Z</time>
      </trkpt>
      <trkpt lat="45.84275" lon="4.69505">
        <ele>270.16501</ele>
        <time>2023-04-24T14:12:16.000Z</time>
      </trkpt>
      <trkpt lat="45.84278" lon="4.69507">
        <ele>270.3382</ele>
        <time>2023-04-24T14:12:17.000Z</time>
      </trkpt>
      <trkpt lat="45.84281" lon="4.69509">
        <ele>270.423</ele>
        <time>2023-04-24T14:12:18.000Z</time>
      </trkpt>
      <trkpt lat="45.84285" lon="4.69511">
        <ele>270.53619</ele>
        <time>2023-04-24T14:12:19.000Z</time>
      </trkpt>
      <trkpt lat="45.84288" lon="4.69511">
        <ele>270.64288</ele>
        <time>2023-04-24T14:12:20.000Z</time>
      </trkpt>
      <trkpt lat="45.84292" lon="4.69512">
        <ele>270.76193</ele>
        <time>2023-04-24T14:12:21.000Z</time>
      </trkpt>
      <trkpt lat="45.84296" lon="4.69511">
        <ele>270.90524</ele>
        <time>2023-04-24T14:12:22.000Z</time>
      </trkpt>
      <trkpt lat="45.84299" lon="4.69511">
        <ele>270.94513</ele>
        <time>2023-04-24T14:12:23.000Z</time>
      </trkpt>
      <trkpt lat="45.84303" lon="4.69511">
        <ele>270.99445</ele>
        <time>2023-04-24T14:12:24.000Z</time>
      </trkpt>
      <trkpt lat="45.84307" lon="4.69512">
        <ele>271.02957</ele>
        <time>2023-04-24T14:12:25.000Z</time>
      </trkpt>
      <trkpt lat="45.8431" lon="4.69513">
        <ele>271.08124</ele>
        <time>2023-04-24T14:12:26.000Z</time>
      </trkpt>
      <trkpt lat="45.84313" lon="4.69513">
        <ele>271.12598</ele>
        <time>2023-04-24T14:12:27.000Z</time>
      </trkpt>
      <trkpt lat="45.84316" lon="4.69513">
        <ele>271.19263</ele>
        <time>2023-04-24T14:12:28.000Z</time>
      </trkpt>
      <trkpt lat="45.8432" lon="4.69513">
        <ele>270.98758</ele>
        <time>2023-04-24T14:12:29.000Z</time>
      </trkpt>
      <trkpt lat="45.84323" lon="4.69514">
        <ele>270.78595</ele>
        <time>2023-04-24T14:12:30.000Z</time>
      </trkpt>
      <trkpt lat="45.84327" lon="4.69514">
        <ele>270.60779</ele>
        <time>2023-04-24T14:12:31.000Z</time>
      </trkpt>
      <trkpt lat="45.8433" lon="4.69515">
        <ele>270.44537</ele>
        <time>2023-04-24T14:12:32.000Z</time>
      </trkpt>
      <trkpt lat="45.84333" lon="4.69516">
        <ele>270.20212</ele>
        <time>2023-04-24T14:12:33.000Z</time>
      </trkpt>
      <trkpt lat="45.84336" lon="4.69517">
        <ele>269.97629</ele>
        <time>2023-04-24T14:12:34.000Z</time>
      </trkpt>
      <trkpt lat="45.84339" lon="4.69518">
        <ele>269.7742</ele>
        <time>2023-04-24T14:12:35.000Z</time>
      </trkpt>
      <trkpt lat="45.84342" lon="4.69518">
        <ele>269.5903</ele>
        <time>2023-04-24T14:12:36.000Z</time>
      </trkpt>
      <trkpt lat="45.84346" lon="4.69519">
        <ele>269.24484</ele>
        <time>2023-04-24T14:12:37.000Z</time>
      </trkpt>
      <trkpt lat="45.8435" lon="4.69519">
        <ele>268.89667</ele>
        <time>2023-04-24T14:12:38.000Z</time>
      </trkpt>
      <trkpt lat="45.84354" lon="4.69519">
        <ele>268.52643</ele>
        <time>2023-04-24T14:12:39.000Z</time>
      </trkpt>
      <trkpt lat="45.84358" lon="4.69519">
        <ele>268.20093</ele>
        <time>2023-04-24T14:12:40.000Z</time>
      </trkpt>
      <trkpt lat="45.84362" lon="4.6952">
        <ele>267.92422</ele>
        <time>2023-04-24T14:12:41.000Z</time>
      </trkpt>
      <trkpt lat="45.84366" lon="4.69521">
        <ele>267.64166</ele>
        <time>2023-04-24T14:12:42.000Z</time>
      </trkpt>
      <trkpt lat="45.84369" lon="4.69521">
        <ele>267.48859</ele>
        <time>2023-04-24T14:12:43.000Z</time>
      </trkpt>
      <trkpt lat="45.84373" lon="4.69522">
        <ele>267.36377</ele>
        <time>2023-04-24T14:12:44.000Z</time>
      </trkpt>
      <trkpt lat="45.84376" lon="4.69523">
        <ele>267.26801</ele>
        <time>2023-04-24T14:12:45.000Z</time>
      </trkpt>
      <trkpt lat="45.84379" lon="4.69524">
        <ele>267.20425</ele>
        <time>2023-04-24T14:12:46.000Z</time>
      </trkpt>
      <trkpt lat="45.84381" lon="4.69526">
        <ele>267.09296</ele>
        <time>2023-04-24T14:12:47.000Z</time>
      </trkpt>
      <trkpt lat="45.84382" lon="4.69529">
        <ele>266.87717</ele>
        <time>2023-04-24T14:12:48.000Z</time>
      </trkpt>
      <trkpt lat="45.84383" lon="4.69533">
        <ele>266.97955</ele>
        <time>2023-04-24T14:12:49.000Z</time>
      </trkpt>
      <trkpt lat="45.84383" lon="4.69537">
        <ele>267.0838</ele>
        <time>2023-04-24T14:12:50.000Z</time>
      </trkpt>
      <trkpt lat="45.84384" lon="4.69541">
        <ele>267.13556</ele>
        <time>2023-04-24T14:12:51.000Z</time>
      </trkpt>
      <trkpt lat="45.84384" lon="4.69546">
        <ele>267.21823</ele>
        <time>2023-04-24T14:12:52.000Z</time>
      </trkpt>
      <trkpt lat="45.84384" lon="4.69551">
        <ele>267.34592</ele>
        <time>2023-04-24T14:12:53.000Z</time>
      </trkpt>
      <trkpt lat="45.84384" lon="4.69556">
        <ele>267.43539</ele>
        <time>2023-04-24T14:12:54.000Z</time>
      </trkpt>
      <trkpt lat="45.84385" lon="4.69561">
        <ele>267.49313</ele>
        <time>2023-04-24T14:12:55.000Z</time>
      </trkpt>
      <trkpt lat="45.84386" lon="4.69566">
        <ele>267.52899</ele>
        <time>2023-04-24T14:12:56.000Z</time>
      </trkpt>
      <trkpt lat="45.84386" lon="4.69571">
        <ele>267.55167</ele>
        <time>2023-04-24T14:12:57.000Z</time>
      </trkpt>
      <trkpt lat="45.84387" lon="4.69576">
        <ele>267.61438</ele>
        <time>2023-04-24T14:12:58.000Z</time>
      </trkpt>
      <trkpt lat="45.84388" lon="4.69582">
        <ele>267.69125</ele>
        <time>2023-04-24T14:12:59.000Z</time>
      </trkpt>
      <trkpt lat="45.84388" lon="4.69587">
        <ele>267.74042</ele>
        <time>2023-04-24T14:13:00.000Z</time>
      </trkpt>
      <trkpt lat="45.84389" lon="4.69593">
        <ele>267.80573</ele>
        <time>2023-04-24T14:13:01.000Z</time>
      </trkpt>
      <trkpt lat="45.84389" lon="4.69598">
        <ele>267.83841</ele>
        <time>2023-04-24T14:13:02.000Z</time>
      </trkpt>
      <trkpt lat="45.84389" lon="4.69605">
        <ele>267.9003</ele>
        <time>2023-04-24T14:13:03.000Z</time>
      </trkpt>
      <trkpt lat="45.8439" lon="4.69609">
        <ele>268.00333</ele>
        <time>2023-04-24T14:13:04.000Z</time>
      </trkpt>
      <trkpt lat="45.84389" lon="4.69616">
        <ele>267.93826</ele>
        <time>2023-04-24T14:13:05.000Z</time>
      </trkpt>
      <trkpt lat="45.84389" lon="4.69621">
        <ele>267.84787</ele>
        <time>2023-04-24T14:13:06.000Z</time>
      </trkpt>
      <trkpt lat="45.84388" lon="4.69625">
        <ele>267.76443</ele>
        <time>2023-04-24T14:13:07.000Z</time>
      </trkpt>
      <trkpt lat="45.84387" lon="4.69627">
        <ele>267.75018</ele>
        <time>2023-04-24T14:13:08.000Z</time>
      </trkpt>
      <trkpt lat="45.84384" lon="4.69632">
        <ele>267.73022</ele>
        <time>2023-04-24T14:13:10.000Z</time>
      </trkpt>
      <trkpt lat="45.84382" lon="4.69632">
        <ele>267.77426</ele>
        <time>2023-04-24T14:13:13.000Z</time>
      </trkpt>
      <trkpt lat="45.84379" lon="4.69632">
        <ele>267.38388</ele>
        <time>2023-04-24T14:13:46.000Z</time>
      </trkpt>
      <trkpt lat="45.84376" lon="4.69632">
        <ele>266.95688</ele>
        <time>2023-04-24T14:13:47.000Z</time>
      </trkpt>
      <trkpt lat="45.84374" lon="4.69633">
        <ele>266.24326</ele>
        <time>2023-04-24T14:13:48.000Z</time>
      </trkpt>
      <trkpt lat="45.84371" lon="4.69633">
        <ele>265.46219</ele>
        <time>2023-04-24T14:13:49.000Z</time>
      </trkpt>
      <trkpt lat="45.84368" lon="4.69634">
        <ele>264.63654</ele>
        <time>2023-04-24T14:13:50.000Z</time>
      </trkpt>
      <trkpt lat="45.84364" lon="4.69636">
        <ele>263.8363</ele>
        <time>2023-04-24T14:13:51.000Z</time>
      </trkpt>
      <trkpt lat="45.8436" lon="4.69637">
        <ele>262.98148</ele>
        <time>2023-04-24T14:13:52.000Z</time>
      </trkpt>
      <trkpt lat="45.84356" lon="4.69639">
        <ele>262.48846</ele>
        <time>2023-04-24T14:13:53.000Z</time>
      </trkpt>
      <trkpt lat="45.84353" lon="4.69641">
        <ele>261.79459</ele>
        <time>2023-04-24T14:13:54.000Z</time>
      </trkpt>
      <trkpt lat="45.8435" lon="4.69643">
        <ele>261.08759</ele>
        <time>2023-04-24T14:13:55.000Z</time>
      </trkpt>
      <trkpt lat="45.84347" lon="4.69645">
        <ele>260.33087</ele>
        <time>2023-04-24T14:13:56.000Z</time>
      </trkpt>
      <trkpt lat="45.84344" lon="4.69647">
        <ele>259.56213</ele>
        <time>2023-04-24T14:13:57.000Z</time>
      </trkpt>
      <trkpt lat="45.84341" lon="4.69649">
        <ele>258.82883</ele>
        <time>2023-04-24T14:13:58.000Z</time>
      </trkpt>
      <trkpt lat="45.84339" lon="4.69651">
        <ele>257.93866</ele>
        <time>2023-04-24T14:13:59.000Z</time>
      </trkpt>
      <trkpt lat="45.84336" lon="4.69653">
        <ele>257.1601</ele>
        <time>2023-04-24T14:14:00.000Z</time>
      </trkpt>
      <trkpt lat="45.84333" lon="4.69654">
        <ele>256.38489</ele>
        <time>2023-04-24T14:14:01.000Z</time>
      </trkpt>
      <trkpt lat="45.8433" lon="4.69656">
        <ele>255.65434</ele>
        <time>2023-04-24T14:14:02.000Z</time>
      </trkpt>
      <trkpt lat="45.84327" lon="4.69657">
        <ele>254.89905</ele>
        <time>2023-04-24T14:14:03.000Z</time>
      </trkpt>
      <trkpt lat="45.84323" lon="4.69659">
        <ele>254.15347</ele>
        <time>2023-04-24T14:14:04.000Z</time>
      </trkpt>
      <trkpt lat="45.8432" lon="4.69661">
        <ele>254.13139</ele>
        <time>2023-04-24T14:14:05.000Z</time>
      </trkpt>
      <trkpt lat="45.84317" lon="4.69662">
        <ele>254.60664</ele>
        <time>2023-04-24T14:14:06.000Z</time>
      </trkpt>
      <trkpt lat="45.84315" lon="4.69664">
        <ele>255.07678</ele>
        <time>2023-04-24T14:14:08.000Z</time>
      </trkpt>
      <trkpt lat="45.84314" lon="4.69664">
        <ele>255.78244</ele>
        <time>2023-04-24T14:14:25.000Z</time>
      </trkpt>
      <trkpt lat="45.84312" lon="4.69665">
        <ele>256.58344</ele>
        <time>2023-04-24T14:14:26.000Z</time>
      </trkpt>
      <trkpt lat="45.84309" lon="4.69666">
        <ele>257.42899</ele>
        <time>2023-04-24T14:14:27.000Z</time>
      </trkpt>
      <trkpt lat="45.84306" lon="4.69667">
        <ele>258.25104</ele>
        <time>2023-04-24T14:14:28.000Z</time>
      </trkpt>
      <trkpt lat="45.84303" lon="4.69668">
        <ele>259.14297</ele>
        <time>2023-04-24T14:14:29.000Z</time>
      </trkpt>
      <trkpt lat="45.843" lon="4.69669">
        <ele>259.60641</ele>
        <time>2023-04-24T14:14:30.000Z</time>
      </trkpt>
      <trkpt lat="45.84297" lon="4.69671">
        <ele>260.28912</ele>
        <time>2023-04-24T14:14:31.000Z</time>
      </trkpt>
      <trkpt lat="45.84294" lon="4.69672">
        <ele>261.00818</ele>
        <time>2023-04-24T14:14:32.000Z</time>
      </trkpt>
      <trkpt lat="45.84291" lon="4.69673">
        <ele>261.73038</ele>
        <time>2023-04-24T14:14:33.000Z</time>
      </trkpt>
      <trkpt lat="45.84288" lon="4.69674">
        <ele>262.48126</ele>
        <time>2023-04-24T14:14:34.000Z</time>
      </trkpt>
      <trkpt lat="45.84285" lon="4.69674">
        <ele>263.14236</ele>
        <time>2023-04-24T14:14:35.000Z</time>
      </trkpt>
      <trkpt lat="45.84282" lon="4.69675">
        <ele>263.93619</ele>
        <time>2023-04-24T14:14:36.000Z</time>
      </trkpt>
      <trkpt lat="45.84279" lon="4.69676">
        <ele>264.75131</ele>
        <time>2023-04-24T14:14:37.000Z</time>
      </trkpt>
      <trkpt lat="45.84275" lon="4.69677">
        <ele>265.58865</ele>
        <time>2023-04-24T14:14:38.000Z</time>
      </trkpt>
      <trkpt lat="45.84272" lon="4.69678">
        <ele>266.3812</ele>
        <time>2023-04-24T14:14:39.000Z</time>
      </trkpt>
      <trkpt lat="45.84268" lon="4.6968">
        <ele>267.20441</ele>
        <time>2023-04-24T14:14:40.000Z</time>
      </trkpt>
      <trkpt lat="45.84264" lon="4.69681">
        <ele>268.03394</ele>
        <time>2023-04-24T14:14:41.000Z</time>
      </trkpt>
      <trkpt lat="45.8426" lon="4.69683">
        <ele>268.03143</ele>
        <time>2023-04-24T14:14:42.000Z</time>
      </trkpt>
      <trkpt lat="45.84257" lon="4.69684">
        <ele>268.28076</ele>
        <time>2023-04-24T14:14:43.000Z</time>
      </trkpt>
      <trkpt lat="45.84254" lon="4.69686">
        <ele>268.5419</ele>
        <time>2023-04-24T14:14:44.000Z</time>
      </trkpt>
      <trkpt lat="45.84251" lon="4.69688">
        <ele>268.86279</ele>
        <time>2023-04-24T14:14:45.000Z</time>
      </trkpt>
      <trkpt lat="45.84248" lon="4.69689">
        <ele>269.17218</ele>
        <time>2023-04-24T14:14:46.000Z</time>
      </trkpt>
      <trkpt lat="45.84246" lon="4.6969">
        <ele>269.47537</ele>
        <time>2023-04-24T14:14:47.000Z</time>
      </trkpt>
      <trkpt lat="45.84244" lon="4.6969">
        <ele>269.76282</ele>
        <time>2023-04-24T14:14:48.000Z</time>
      </trkpt>
      <trkpt lat="45.84243" lon="4.69692">
        <ele>270.06744</ele>
        <time>2023-04-24T14:14:52.000Z</time>
      </trkpt>
      <trkpt lat="45.84242" lon="4.69695">
        <ele>270.28714</ele>
        <time>2023-04-24T14:15:01.000Z</time>
      </trkpt>
      <trkpt lat="45.8424" lon="4.69692">
        <ele>270.465</ele>
        <time>2023-04-24T14:15:25.000Z</time>
      </trkpt>
      <trkpt lat="45.84238" lon="4.69692">
        <ele>270.61737</ele>
        <time>2023-04-24T14:15:26.000Z</time>
      </trkpt>
      <trkpt lat="45.84235" lon="4.69691">
        <ele>270.76877</ele>
        <time>2023-04-24T14:15:27.000Z</time>
      </trkpt>
      <trkpt lat="45.84233" lon="4.69691">
        <ele>270.95953</ele>
        <time>2023-04-24T14:15:28.000Z</time>
      </trkpt>
      <trkpt lat="45.8423" lon="4.69691">
        <ele>271.16278</ele>
        <time>2023-04-24T14:15:29.000Z</time>
      </trkpt>
      <trkpt lat="45.84228" lon="4.69691">
        <ele>271.34482</ele>
        <time>2023-04-24T14:15:30.000Z</time>
      </trkpt>
      <trkpt lat="45.84226" lon="4.69691">
        <ele>271.52917</ele>
        <time>2023-04-24T14:15:31.000Z</time>
      </trkpt>
      <trkpt lat="45.84224" lon="4.6969">
        <ele>272.27765</ele>
        <time>2023-04-24T14:15:32.000Z</time>
      </trkpt>
      <trkpt lat="45.84221" lon="4.69689">
        <ele>273.02277</ele>
        <time>2023-04-24T14:15:33.000Z</time>
      </trkpt>
      <trkpt lat="45.84219" lon="4.69688">
        <ele>273.79214</ele>
        <time>2023-04-24T14:15:34.000Z</time>
      </trkpt>
      <trkpt lat="45.84216" lon="4.69687">
        <ele>274.52594</ele>
        <time>2023-04-24T14:15:35.000Z</time>
      </trkpt>
      <trkpt lat="45.84213" lon="4.69686">
        <ele>275.2627</ele>
        <time>2023-04-24T14:15:36.000Z</time>
      </trkpt>
      <trkpt lat="45.84211" lon="4.69685">
        <ele>275.73425</ele>
        <time>2023-04-24T14:15:37.000Z</time>
      </trkpt>
      <trkpt lat="45.84209" lon="4.69685">
        <ele>276.19464</ele>
        <time>2023-04-24T14:15:38.000Z</time>
      </trkpt>
      <trkpt lat="45.84206" lon="4.69684">
        <ele>276.76248</ele>
        <time>2023-04-24T14:15:39.000Z</time>
      </trkpt>
      <trkpt lat="45.84202" lon="4.69685">
        <ele>277.30899</ele>
        <time>2023-04-24T14:15:40.000Z</time>
      </trkpt>
      <trkpt lat="45.84197" lon="4.69685">
        <ele>278.00394</ele>
        <time>2023-04-24T14:15:41.000Z</time>
      </trkpt>
      <trkpt lat="45.84193" lon="4.69685">
        <ele>278.88379</ele>
        <time>2023-04-24T14:15:42.000Z</time>
      </trkpt>
      <trkpt lat="45.84189" lon="4.69685">
        <ele>279.29285</ele>
        <time>2023-04-24T14:15:43.000Z</time>
      </trkpt>
      <trkpt lat="45.84185" lon="4.69685">
        <ele>279.89938</ele>
        <time>2023-04-24T14:15:44.000Z</time>
      </trkpt>
      <trkpt lat="45.84181" lon="4.69685">
        <ele>280.53229</ele>
        <time>2023-04-24T14:15:45.000Z</time>
      </trkpt>
      <trkpt lat="45.84177" lon="4.69685">
        <ele>281.17609</ele>
        <time>2023-04-24T14:15:46.000Z</time>
      </trkpt>
      <trkpt lat="45.84174" lon="4.69685">
        <ele>280.97412</ele>
        <time>2023-04-24T14:15:47.000Z</time>
      </trkpt>
      <trkpt lat="45.84171" lon="4.69685">
        <ele>280.7757</ele>
        <time>2023-04-24T14:15:48.000Z</time>
      </trkpt>
      <trkpt lat="45.84167" lon="4.69685">
        <ele>280.53479</ele>
        <time>2023-04-24T14:15:49.000Z</time>
      </trkpt>
      <trkpt lat="45.84163" lon="4.69685">
        <ele>280.29352</ele>
        <time>2023-04-24T14:15:50.000Z</time>
      </trkpt>
      <trkpt lat="45.84161" lon="4.69684">
        <ele>280.08417</ele>
        <time>2023-04-24T14:15:51.000Z</time>
      </trkpt>
      <trkpt lat="45.84158" lon="4.69683">
        <ele>279.27072</ele>
        <time>2023-04-24T14:15:52.000Z</time>
      </trkpt>
      <trkpt lat="45.84154" lon="4.69683">
        <ele>278.45462</ele>
        <time>2023-04-24T14:15:53.000Z</time>
      </trkpt>
      <trkpt lat="45.84151" lon="4.69683">
        <ele>277.54755</ele>
        <time>2023-04-24T14:15:54.000Z</time>
      </trkpt>
      <trkpt lat="45.84148" lon="4.69683">
        <ele>276.66553</ele>
        <time>2023-04-24T14:15:55.000Z</time>
      </trkpt>
      <trkpt lat="45.84144" lon="4.69682">
        <ele>275.8194</ele>
        <time>2023-04-24T14:15:56.000Z</time>
      </trkpt>
      <trkpt lat="45.84141" lon="4.69682">
        <ele>274.96683</ele>
        <time>2023-04-24T14:15:57.000Z</time>
      </trkpt>
      <trkpt lat="45.84137" lon="4.69681">
        <ele>274.1026</ele>
        <time>2023-04-24T14:15:58.000Z</time>
      </trkpt>
      <trkpt lat="45.84134" lon="4.69681">
        <ele>273.17694</ele>
        <time>2023-04-24T14:15:59.000Z</time>
      </trkpt>
      <trkpt lat="45.84131" lon="4.69681">
        <ele>272.35135</ele>
        <time>2023-04-24T14:16:00.000Z</time>
      </trkpt>
      <trkpt lat="45.84127" lon="4.6968">
        <ele>271.41208</ele>
        <time>2023-04-24T14:16:01.000Z</time>
      </trkpt>
      <trkpt lat="45.84123" lon="4.69679">
        <ele>270.34381</ele>
        <time>2023-04-24T14:16:02.000Z</time>
      </trkpt>
      <trkpt lat="45.84119" lon="4.69678">
        <ele>269.73114</ele>
        <time>2023-04-24T14:16:03.000Z</time>
      </trkpt>
      <trkpt lat="45.84115" lon="4.69677">
        <ele>269.02783</ele>
        <time>2023-04-24T14:16:04.000Z</time>
      </trkpt>
      <trkpt lat="45.84112" lon="4.69676">
        <ele>268.31943</ele>
        <time>2023-04-24T14:16:05.000Z</time>
      </trkpt>
      <trkpt lat="45.84109" lon="4.69675">
        <ele>267.6203</ele>
        <time>2023-04-24T14:16:06.000Z</time>
      </trkpt>
      <trkpt lat="45.84106" lon="4.69674">
        <ele>267.75714</ele>
        <time>2023-04-24T14:16:07.000Z</time>
      </trkpt>
      <trkpt lat="45.84103" lon="4.69673">
        <ele>267.87149</ele>
        <time>2023-04-24T14:16:08.000Z</time>
      </trkpt>
      <trkpt lat="45.841" lon="4.69673">
        <ele>268.04541</ele>
        <time>2023-04-24T14:16:09.000Z</time>
      </trkpt>
      <trkpt lat="45.84097" lon="4.69674">
        <ele>268.22592</ele>
        <time>2023-04-24T14:16:10.000Z</time>
      </trkpt>
      <trkpt lat="45.84094" lon="4.69674">
        <ele>268.37228</ele>
        <time>2023-04-24T14:16:11.000Z</time>
      </trkpt>
      <trkpt lat="45.84091" lon="4.69674">
        <ele>268.51447</ele>
        <time>2023-04-24T14:16:12.000Z</time>
      </trkpt>
      <trkpt lat="45.84088" lon="4.69675">
        <ele>268.61978</ele>
        <time>2023-04-24T14:16:13.000Z</time>
      </trkpt>
      <trkpt lat="45.84085" lon="4.69677">
        <ele>268.78973</ele>
        <time>2023-04-24T14:16:14.000Z</time>
      </trkpt>
      <trkpt lat="45.84081" lon="4.69679">
        <ele>268.94415</ele>
        <time>2023-04-24T14:16:15.000Z</time>
      </trkpt>
      <trkpt lat="45.84078" lon="4.69682">
        <ele>269.05353</ele>
        <time>2023-04-24T14:16:16.000Z</time>
      </trkpt>
      <trkpt lat="45.84074" lon="4.69686">
        <ele>269.15054</ele>
        <time>2023-04-24T14:16:17.000Z</time>
      </trkpt>
      <trkpt lat="45.84071" lon="4.6969">
        <ele>269.23721</ele>
        <time>2023-04-24T14:16:18.000Z</time>
      </trkpt>
      <trkpt lat="45.84067" lon="4.69694">
        <ele>269.31204</ele>
        <time>2023-04-24T14:16:19.000Z</time>
      </trkpt>
      <trkpt lat="45.84065" lon="4.69698">
        <ele>269.24884</ele>
        <time>2023-04-24T14:16:20.000Z</time>
      </trkpt>
      <trkpt lat="45.84063" lon="4.697">
        <ele>269.21075</ele>
        <time>2023-04-24T14:16:21.000Z</time>
      </trkpt>
      <trkpt lat="45.84062" lon="4.69703">
        <ele>269.95331</ele>
        <time>2023-04-24T14:16:29.000Z</time>
      </trkpt>
      <trkpt lat="45.8406" lon="4.69704">
        <ele>270.41498</ele>
        <time>2023-04-24T14:16:38.000Z</time>
      </trkpt>
      <trkpt lat="45.84057" lon="4.69708">
        <ele>270.89963</ele>
        <time>2023-04-24T14:16:40.000Z</time>
      </trkpt>
      <trkpt lat="45.84055" lon="4.6971">
        <ele>271.3952</ele>
        <time>2023-04-24T14:16:41.000Z</time>
      </trkpt>
      <trkpt lat="45.84054" lon="4.69712">
        <ele>271.93304</ele>
        <time>2023-04-24T14:16:42.000Z</time>
      </trkpt>
      <trkpt lat="45.84052" lon="4.69714">
        <ele>272.43887</ele>
        <time>2023-04-24T14:16:43.000Z</time>
      </trkpt>
      <trkpt lat="45.84051" lon="4.69717">
        <ele>273.05136</ele>
        <time>2023-04-24T14:16:44.000Z</time>
      </trkpt>
      <trkpt lat="45.8405" lon="4.69719">
        <ele>273.6264</ele>
        <time>2023-04-24T14:16:45.000Z</time>
      </trkpt>
      <trkpt lat="45.8405" lon="4.69721">
        <ele>274.28296</ele>
        <time>2023-04-24T14:16:46.000Z</time>
      </trkpt>
      <trkpt lat="45.84048" lon="4.69724">
        <ele>274.64139</ele>
        <time>2023-04-24T14:16:47.000Z</time>
      </trkpt>
      <trkpt lat="45.84046" lon="4.69727">
        <ele>275.12173</ele>
        <time>2023-04-24T14:16:48.000Z</time>
      </trkpt>
      <trkpt lat="45.84044" lon="4.6973">
        <ele>275.66913</ele>
        <time>2023-04-24T14:16:49.000Z</time>
      </trkpt>
      <trkpt lat="45.84042" lon="4.69734">
        <ele>276.23074</ele>
        <time>2023-04-24T14:16:50.000Z</time>
      </trkpt>
      <trkpt lat="45.8404" lon="4.69738">
        <ele>276.82211</ele>
        <time>2023-04-24T14:16:51.000Z</time>
      </trkpt>
      <trkpt lat="45.84038" lon="4.69741">
        <ele>277.41895</ele>
        <time>2023-04-24T14:16:52.000Z</time>
      </trkpt>
      <trkpt lat="45.84036" lon="4.69745">
        <ele>278.03363</ele>
        <time>2023-04-24T14:16:53.000Z</time>
      </trkpt>
      <trkpt lat="45.84034" lon="4.69748">
        <ele>278.66815</ele>
        <time>2023-04-24T14:16:54.000Z</time>
      </trkpt>
      <trkpt lat="45.84032" lon="4.69752">
        <ele>279.26788</ele>
        <time>2023-04-24T14:16:55.000Z</time>
      </trkpt>
      <trkpt lat="45.8403" lon="4.69756">
        <ele>279.94928</ele>
        <time>2023-04-24T14:16:56.000Z</time>
      </trkpt>
      <trkpt lat="45.84028" lon="4.69759">
        <ele>280.59262</ele>
        <time>2023-04-24T14:16:57.000Z</time>
      </trkpt>
      <trkpt lat="45.84026" lon="4.69763">
        <ele>280.42267</ele>
        <time>2023-04-24T14:16:58.000Z</time>
      </trkpt>
      <trkpt lat="45.84024" lon="4.69767">
        <ele>280.5415</ele>
        <time>2023-04-24T14:16:59.000Z</time>
      </trkpt>
      <trkpt lat="45.84022" lon="4.6977">
        <ele>280.84354</ele>
        <time>2023-04-24T14:17:00.000Z</time>
      </trkpt>
      <trkpt lat="45.8402" lon="4.69773">
        <ele>281.17322</ele>
        <time>2023-04-24T14:17:01.000Z</time>
      </trkpt>
      <trkpt lat="45.84018" lon="4.69775">
        <ele>281.11954</ele>
        <time>2023-04-24T14:17:02.000Z</time>
      </trkpt>
      <trkpt lat="45.84016" lon="4.69778">
        <ele>281.1821</ele>
        <time>2023-04-24T14:17:03.000Z</time>
      </trkpt>
      <trkpt lat="45.84014" lon="4.69781">
        <ele>281.40121</ele>
        <time>2023-04-24T14:17:04.000Z</time>
      </trkpt>
      <trkpt lat="45.84012" lon="4.69784">
        <ele>281.07184</ele>
        <time>2023-04-24T14:17:05.000Z</time>
      </trkpt>
      <trkpt lat="45.84011" lon="4.69787">
        <ele>280.65982</ele>
        <time>2023-04-24T14:17:06.000Z</time>
      </trkpt>
      <trkpt lat="45.84009" lon="4.69791">
        <ele>280.80542</ele>
        <time>2023-04-24T14:17:07.000Z</time>
      </trkpt>
      <trkpt lat="45.84007" lon="4.69795">
        <ele>280.85489</ele>
        <time>2023-04-24T14:17:08.000Z</time>
      </trkpt>
      <trkpt lat="45.84006" lon="4.69798">
        <ele>280.62335</ele>
        <time>2023-04-24T14:17:09.000Z</time>
      </trkpt>
      <trkpt lat="45.84004" lon="4.69802">
        <ele>280.39148</ele>
        <time>2023-04-24T14:17:10.000Z</time>
      </trkpt>
      <trkpt lat="45.84001" lon="4.69805">
        <ele>280.00613</ele>
        <time>2023-04-24T14:17:11.000Z</time>
      </trkpt>
      <trkpt lat="45.83999" lon="4.69809">
        <ele>279.65839</ele>
        <time>2023-04-24T14:17:12.000Z</time>
      </trkpt>
      <trkpt lat="45.83997" lon="4.69812">
        <ele>279.26343</ele>
        <time>2023-04-24T14:17:13.000Z</time>
      </trkpt>
      <trkpt lat="45.83994" lon="4.69816">
        <ele>278.84177</ele>
        <time>2023-04-24T14:17:14.000Z</time>
      </trkpt>
      <trkpt lat="45.83992" lon="4.6982">
        <ele>278.40436</ele>
        <time>2023-04-24T14:17:15.000Z</time>
      </trkpt>
      <trkpt lat="45.83989" lon="4.69824">
        <ele>277.95621</ele>
        <time>2023-04-24T14:17:16.000Z</time>
      </trkpt>
      <trkpt lat="45.83987" lon="4.69828">
        <ele>277.54556</ele>
        <time>2023-04-24T14:17:17.000Z</time>
      </trkpt>
      <trkpt lat="45.83984" lon="4.69832">
        <ele>277.30032</ele>
        <time>2023-04-24T14:17:18.000Z</time>
      </trkpt>
      <trkpt lat="45.83982" lon="4.69836">
        <ele>277.03534</ele>
        <time>2023-04-24T14:17:19.000Z</time>
      </trkpt>
      <trkpt lat="45.83979" lon="4.6984">
        <ele>276.58453</ele>
        <time>2023-04-24T14:17:20.000Z</time>
      </trkpt>
      <trkpt lat="45.83977" lon="4.69844">
        <ele>276.3703</ele>
        <time>2023-04-24T14:17:21.000Z</time>
      </trkpt>
      <trkpt lat="45.83974" lon="4.69848">
        <ele>276.51736</ele>
        <time>2023-04-24T14:17:22.000Z</time>
      </trkpt>
      <trkpt lat="45.83972" lon="4.69852">
        <ele>276.5766</ele>
        <time>2023-04-24T14:17:23.000Z</time>
      </trkpt>
      <trkpt lat="45.8397" lon="4.69856">
        <ele>276.12421</ele>
        <time>2023-04-24T14:17:24.000Z</time>
      </trkpt>
      <trkpt lat="45.83968" lon="4.6986">
        <ele>276.24002</ele>
        <time>2023-04-24T14:17:25.000Z</time>
      </trkpt>
      <trkpt lat="45.83966" lon="4.69864">
        <ele>276.32339</ele>
        <time>2023-04-24T14:17:26.000Z</time>
      </trkpt>
      <trkpt lat="45.83964" lon="4.69868">
        <ele>276.12363</ele>
        <time>2023-04-24T14:17:27.000Z</time>
      </trkpt>
      <trkpt lat="45.83961" lon="4.69873">
        <ele>275.91327</ele>
        <time>2023-04-24T14:17:28.000Z</time>
      </trkpt>
      <trkpt lat="45.83959" lon="4.69878">
        <ele>275.9437</ele>
        <time>2023-04-24T14:17:29.000Z</time>
      </trkpt>
      <trkpt lat="45.83956" lon="4.69885">
        <ele>275.92157</ele>
        <time>2023-04-24T14:17:30.000Z</time>
      </trkpt>
      <trkpt lat="45.83953" lon="4.69889">
        <ele>276.01862</ele>
        <time>2023-04-24T14:17:31.000Z</time>
      </trkpt>
      <trkpt lat="45.83949" lon="4.69895">
        <ele>276.11053</ele>
        <time>2023-04-24T14:17:32.000Z</time>
      </trkpt>
      <trkpt lat="45.83947" lon="4.69902">
        <ele>276.23999</ele>
        <time>2023-04-24T14:17:33.000Z</time>
      </trkpt>
      <trkpt lat="45.83943" lon="4.69908">
        <ele>276.39874</ele>
        <time>2023-04-24T14:17:34.000Z</time>
      </trkpt>
      <trkpt lat="45.83941" lon="4.69913">
        <ele>276.58856</ele>
        <time>2023-04-24T14:17:35.000Z</time>
      </trkpt>
      <trkpt lat="45.83938" lon="4.69917">
        <ele>276.85059</ele>
        <time>2023-04-24T14:17:36.000Z</time>
      </trkpt>
      <trkpt lat="45.83936" lon="4.6992">
        <ele>277.03238</ele>
        <time>2023-04-24T14:17:37.000Z</time>
      </trkpt>
      <trkpt lat="45.83935" lon="4.69923">
        <ele>277.10526</ele>
        <time>2023-04-24T14:17:38.000Z</time>
      </trkpt>
      <trkpt lat="45.83932" lon="4.69926">
        <ele>277.03662</ele>
        <time>2023-04-24T14:17:40.000Z</time>
      </trkpt>
      <trkpt lat="45.83931" lon="4.69928">
        <ele>276.96173</ele>
        <time>2023-04-24T14:17:43.000Z</time>
      </trkpt>
      <trkpt lat="45.8393" lon="4.69931">
        <ele>276.71405</ele>
        <time>2023-04-24T14:17:51.000Z</time>
      </trkpt>
      <trkpt lat="45.83927" lon="4.69935">
        <ele>276.24445</ele>
        <time>2023-04-24T14:17:53.000Z</time>
      </trkpt>
      <trkpt lat="45.83926" lon="4.69937">
        <ele>275.78564</ele>
        <time>2023-04-24T14:17:54.000Z</time>
      </trkpt>
      <trkpt lat="45.83924" lon="4.69941">
        <ele>275.5799</ele>
        <time>2023-04-24T14:17:55.000Z</time>
      </trkpt>
      <trkpt lat="45.83922" lon="4.69944">
        <ele>275.36682</ele>
        <time>2023-04-24T14:17:56.000Z</time>
      </trkpt>
      <trkpt lat="45.8392" lon="4.69948">
        <ele>275.18533</ele>
        <time>2023-04-24T14:17:57.000Z</time>
      </trkpt>
      <trkpt lat="45.83918" lon="4.69951">
        <ele>275.0528</ele>
        <time>2023-04-24T14:17:58.000Z</time>
      </trkpt>
      <trkpt lat="45.83916" lon="4.69954">
        <ele>274.93451</ele>
        <time>2023-04-24T14:17:59.000Z</time>
      </trkpt>
      <trkpt lat="45.83913" lon="4.69957">
        <ele>274.86261</ele>
        <time>2023-04-24T14:18:00.000Z</time>
      </trkpt>
      <trkpt lat="45.83911" lon="4.6996">
        <ele>274.82184</ele>
        <time>2023-04-24T14:18:01.000Z</time>
      </trkpt>
      <trkpt lat="45.83909" lon="4.69963">
        <ele>274.77005</ele>
        <time>2023-04-24T14:18:02.000Z</time>
      </trkpt>
      <trkpt lat="45.83906" lon="4.69967">
        <ele>274.72763</ele>
        <time>2023-04-24T14:18:03.000Z</time>
      </trkpt>
      <trkpt lat="45.83904" lon="4.69971">
        <ele>274.66602</ele>
        <time>2023-04-24T14:18:04.000Z</time>
      </trkpt>
      <trkpt lat="45.83901" lon="4.69974">
        <ele>274.62698</ele>
        <time>2023-04-24T14:18:05.000Z</time>
      </trkpt>
      <trkpt lat="45.83899" lon="4.69977">
        <ele>274.57147</ele>
        <time>2023-04-24T14:18:06.000Z</time>
      </trkpt>
      <trkpt lat="45.83897" lon="4.6998">
        <ele>274.4361</ele>
        <time>2023-04-24T14:18:07.000Z</time>
      </trkpt>
      <trkpt lat="45.83896" lon="4.69983">
        <ele>274.33356</ele>
        <time>2023-04-24T14:18:08.000Z</time>
      </trkpt>
      <trkpt lat="45.83894" lon="4.69986">
        <ele>274.6275</ele>
        <time>2023-04-24T14:18:09.000Z</time>
      </trkpt>
      <trkpt lat="45.83892" lon="4.69989">
        <ele>275.05145</ele>
        <time>2023-04-24T14:18:10.000Z</time>
      </trkpt>
      <trkpt lat="45.83891" lon="4.69992">
        <ele>275.4584</ele>
        <time>2023-04-24T14:18:11.000Z</time>
      </trkpt>
      <trkpt lat="45.83889" lon="4.69995">
        <ele>275.87619</ele>
        <time>2023-04-24T14:18:12.000Z</time>
      </trkpt>
      <trkpt lat="45.83887" lon="4.69999">
        <ele>276.48358</ele>
        <time>2023-04-24T14:18:13.000Z</time>
      </trkpt>
      <trkpt lat="45.83885" lon="4.70002">
        <ele>277.17215</ele>
        <time>2023-04-24T14:18:14.000Z</time>
      </trkpt>
      <trkpt lat="45.83883" lon="4.70005">
        <ele>277.85471</ele>
        <time>2023-04-24T14:18:15.000Z</time>
      </trkpt>
      <trkpt lat="45.83881" lon="4.70009">
        <ele>278.51227</ele>
        <time>2023-04-24T14:18:16.000Z</time>
      </trkpt>
      <trkpt lat="45.83878" lon="4.70012">
        <ele>278.87433</ele>
        <time>2023-04-24T14:18:17.000Z</time>
      </trkpt>
      <trkpt lat="45.83876" lon="4.70016">
        <ele>279.24207</ele>
        <time>2023-04-24T14:18:18.000Z</time>
      </trkpt>
      <trkpt lat="45.83874" lon="4.70019">
        <ele>279.61649</ele>
        <time>2023-04-24T14:18:19.000Z</time>
      </trkpt>
      <trkpt lat="45.83872" lon="4.70023">
        <ele>279.98395</ele>
        <time>2023-04-24T14:18:20.000Z</time>
      </trkpt>
      <trkpt lat="45.83871" lon="4.70027">
        <ele>280.35034</ele>
        <time>2023-04-24T14:18:21.000Z</time>
      </trkpt>
      <trkpt lat="45.83869" lon="4.70031">
        <ele>280.71906</ele>
        <time>2023-04-24T14:18:22.000Z</time>
      </trkpt>
      <trkpt lat="45.83868" lon="4.70036">
        <ele>281.08786</ele>
        <time>2023-04-24T14:18:23.000Z</time>
      </trkpt>
      <trkpt lat="45.83867" lon="4.70041">
        <ele>280.68195</ele>
        <time>2023-04-24T14:18:24.000Z</time>
      </trkpt>
      <trkpt lat="45.83866" lon="4.70046">
        <ele>280.26288</ele>
        <time>2023-04-24T14:18:25.000Z</time>
      </trkpt>
      <trkpt lat="45.83865" lon="4.70049">
        <ele>279.86688</ele>
        <time>2023-04-24T14:18:26.000Z</time>
      </trkpt>
      <trkpt lat="45.83865" lon="4.70053">
        <ele>279.49182</ele>
        <time>2023-04-24T14:18:27.000Z</time>
      </trkpt>
      <trkpt lat="45.83864" lon="4.70056">
        <ele>279.1113</ele>
        <time>2023-04-24T14:18:28.000Z</time>
      </trkpt>
      <trkpt lat="45.83863" lon="4.7006">
        <ele>279.44476</ele>
        <time>2023-04-24T14:18:29.000Z</time>
      </trkpt>
      <trkpt lat="45.83862" lon="4.70064">
        <ele>279.49457</ele>
        <time>2023-04-24T14:18:30.000Z</time>
      </trkpt>
      <trkpt lat="45.83861" lon="4.70068">
        <ele>279.56271</ele>
        <time>2023-04-24T14:18:31.000Z</time>
      </trkpt>
      <trkpt lat="45.83861" lon="4.70071">
        <ele>279.55634</ele>
        <time>2023-04-24T14:18:32.000Z</time>
      </trkpt>
      <trkpt lat="45.83861" lon="4.70075">
        <ele>279.57373</ele>
        <time>2023-04-24T14:18:33.000Z</time>
      </trkpt>
      <trkpt lat="45.8386" lon="4.70079">
        <ele>279.20898</ele>
        <time>2023-04-24T14:18:34.000Z</time>
      </trkpt>
      <trkpt lat="45.8386" lon="4.70083">
        <ele>278.88409</ele>
        <time>2023-04-24T14:18:35.000Z</time>
      </trkpt>
      <trkpt lat="45.83859" lon="4.70088">
        <ele>278.87762</ele>
        <time>2023-04-24T14:18:36.000Z</time>
      </trkpt>
      <trkpt lat="45.83858" lon="4.70092">
        <ele>279.23248</ele>
        <time>2023-04-24T14:18:37.000Z</time>
      </trkpt>
      <trkpt lat="45.83858" lon="4.70096">
        <ele>279.60416</ele>
        <time>2023-04-24T14:18:38.000Z</time>
      </trkpt>
      <trkpt lat="45.83857" lon="4.70101">
        <ele>279.94504</ele>
        <time>2023-04-24T14:18:39.000Z</time>
      </trkpt>
      <trkpt lat="45.83856" lon="4.70105">
        <ele>279.98169</ele>
        <time>2023-04-24T14:18:40.000Z</time>
      </trkpt>
      <trkpt lat="45.83855" lon="4.7011">
        <ele>280.04922</ele>
        <time>2023-04-24T14:18:41.000Z</time>
      </trkpt>
      <trkpt lat="45.83854" lon="4.70115">
        <ele>280.1131</ele>
        <time>2023-04-24T14:18:42.000Z</time>
      </trkpt>
      <trkpt lat="45.83853" lon="4.70119">
        <ele>280.14706</ele>
        <time>2023-04-24T14:18:43.000Z</time>
      </trkpt>
      <trkpt lat="45.83852" lon="4.70123">
        <ele>280.97641</ele>
        <time>2023-04-24T14:18:44.000Z</time>
      </trkpt>
      <trkpt lat="45.8385" lon="4.70128">
        <ele>281.79504</ele>
        <time>2023-04-24T14:18:45.000Z</time>
      </trkpt>
      <trkpt lat="45.83848" lon="4.70133">
        <ele>282.59888</ele>
        <time>2023-04-24T14:18:46.000Z</time>
      </trkpt>
      <trkpt lat="45.83846" lon="4.70139">
        <ele>283.35919</ele>
        <time>2023-04-24T14:18:47.000Z</time>
      </trkpt>
      <trkpt lat="45.83843" lon="4.70145">
        <ele>284.08096</ele>
        <time>2023-04-24T14:18:48.000Z</time>
      </trkpt>
      <trkpt lat="45.83839" lon="4.70151">
        <ele>283.60736</ele>
        <time>2023-04-24T14:18:49.000Z</time>
      </trkpt>
      <trkpt lat="45.83836" lon="4.70156">
        <ele>283.42194</ele>
        <time>2023-04-24T14:18:50.000Z</time>
      </trkpt>
      <trkpt lat="45.83833" lon="4.70161">
        <ele>283.21909</ele>
        <time>2023-04-24T14:18:51.000Z</time>
      </trkpt>
      <trkpt lat="45.8383" lon="4.70165">
        <ele>283.14325</ele>
        <time>2023-04-24T14:18:52.000Z</time>
      </trkpt>
      <trkpt lat="45.83827" lon="4.7017">
        <ele>283.14255</ele>
        <time>2023-04-24T14:18:53.000Z</time>
      </trkpt>
      <trkpt lat="45.83825" lon="4.70173">
        <ele>283.60385</ele>
        <time>2023-04-24T14:18:54.000Z</time>
      </trkpt>
      <trkpt lat="45.83822" lon="4.70177">
        <ele>283.65668</ele>
        <time>2023-04-24T14:18:55.000Z</time>
      </trkpt>
      <trkpt lat="45.83819" lon="4.70179">
        <ele>283.46515</ele>
        <time>2023-04-24T14:18:56.000Z</time>
      </trkpt>
      <trkpt lat="45.83816" lon="4.70182">
        <ele>283.28622</ele>
        <time>2023-04-24T14:18:57.000Z</time>
      </trkpt>
      <trkpt lat="45.83813" lon="4.70184">
        <ele>282.98981</ele>
        <time>2023-04-24T14:18:58.000Z</time>
      </trkpt>
      <trkpt lat="45.83811" lon="4.70185">
        <ele>282.74429</ele>
        <time>2023-04-24T14:18:59.000Z</time>
      </trkpt>
      <trkpt lat="45.83809" lon="4.70186">
        <ele>282.78763</ele>
        <time>2023-04-24T14:19:00.000Z</time>
      </trkpt>
      <trkpt lat="45.83807" lon="4.70188">
        <ele>282.75873</ele>
        <time>2023-04-24T14:19:02.000Z</time>
      </trkpt>
      <trkpt lat="45.83805" lon="4.70189">
        <ele>282.76416</ele>
        <time>2023-04-24T14:19:11.000Z</time>
      </trkpt>
      <trkpt lat="45.83803" lon="4.70193">
        <ele>282.79443</ele>
        <time>2023-04-24T14:19:13.000Z</time>
      </trkpt>
      <trkpt lat="45.83802" lon="4.70196">
        <ele>282.99545</ele>
        <time>2023-04-24T14:19:14.000Z</time>
      </trkpt>
      <trkpt lat="45.83801" lon="4.70199">
        <ele>283.22934</ele>
        <time>2023-04-24T14:19:15.000Z</time>
      </trkpt>
      <trkpt lat="45.83801" lon="4.70204">
        <ele>283.21072</ele>
        <time>2023-04-24T14:19:17.000Z</time>
      </trkpt>
      <trkpt lat="45.83801" lon="4.70207">
        <ele>283.32806</ele>
        <time>2023-04-24T14:19:18.000Z</time>
      </trkpt>
      <trkpt lat="45.83802" lon="4.7021">
        <ele>283.44012</ele>
        <time>2023-04-24T14:19:19.000Z</time>
      </trkpt>
      <trkpt lat="45.83803" lon="4.70214">
        <ele>283.54596</ele>
        <time>2023-04-24T14:19:20.000Z</time>
      </trkpt>
      <trkpt lat="45.83804" lon="4.70219">
        <ele>283.90024</ele>
        <time>2023-04-24T14:19:21.000Z</time>
      </trkpt>
      <trkpt lat="45.83806" lon="4.70223">
        <ele>284.34415</ele>
        <time>2023-04-24T14:19:22.000Z</time>
      </trkpt>
      <trkpt lat="45.83808" lon="4.70228">
        <ele>284.56158</ele>
        <time>2023-04-24T14:19:23.000Z</time>
      </trkpt>
      <trkpt lat="45.83809" lon="4.70232">
        <ele>284.33395</ele>
        <time>2023-04-24T14:19:24.000Z</time>
      </trkpt>
      <trkpt lat="45.8381" lon="4.70236">
        <ele>283.99408</ele>
        <time>2023-04-24T14:19:25.000Z</time>
      </trkpt>
      <trkpt lat="45.83811" lon="4.7024">
        <ele>283.95767</ele>
        <time>2023-04-24T14:19:26.000Z</time>
      </trkpt>
      <trkpt lat="45.83811" lon="4.70243">
        <ele>283.91251</ele>
        <time>2023-04-24T14:19:27.000Z</time>
      </trkpt>
      <trkpt lat="45.83811" lon="4.70246">
        <ele>283.83597</ele>
        <time>2023-04-24T14:19:28.000Z</time>
      </trkpt>
      <trkpt lat="45.83812" lon="4.70249">
        <ele>283.82623</ele>
        <time>2023-04-24T14:19:29.000Z</time>
      </trkpt>
      <trkpt lat="45.83812" lon="4.70252">
        <ele>283.76068</ele>
        <time>2023-04-24T14:19:30.000Z</time>
      </trkpt>
      <trkpt lat="45.83813" lon="4.70255">
        <ele>283.87085</ele>
        <time>2023-04-24T14:19:31.000Z</time>
      </trkpt>
      <trkpt lat="45.83813" lon="4.70259">
        <ele>284.12939</ele>
        <time>2023-04-24T14:19:32.000Z</time>
      </trkpt>
      <trkpt lat="45.83814" lon="4.70263">
        <ele>284.3877</ele>
        <time>2023-04-24T14:19:33.000Z</time>
      </trkpt>
      <trkpt lat="45.83815" lon="4.70267">
        <ele>284.40912</ele>
        <time>2023-04-24T14:19:34.000Z</time>
      </trkpt>
      <trkpt lat="45.83816" lon="4.70271">
        <ele>284.34119</ele>
        <time>2023-04-24T14:19:35.000Z</time>
      </trkpt>
      <trkpt lat="45.83817" lon="4.70274">
        <ele>284.25284</ele>
        <time>2023-04-24T14:19:36.000Z</time>
      </trkpt>
      <trkpt lat="45.83818" lon="4.70278">
        <ele>284.43155</ele>
        <time>2023-04-24T14:19:37.000Z</time>
      </trkpt>
      <trkpt lat="45.83819" lon="4.70283">
        <ele>284.54391</ele>
        <time>2023-04-24T14:19:38.000Z</time>
      </trkpt>
      <trkpt lat="45.8382" lon="4.70287">
        <ele>284.68463</ele>
        <time>2023-04-24T14:19:39.000Z</time>
      </trkpt>
      <trkpt lat="45.83822" lon="4.70296">
        <ele>284.55124</ele>
        <time>2023-04-24T14:19:40.000Z</time>
      </trkpt>
      <trkpt lat="45.83823" lon="4.703">
        <ele>284.23096</ele>
        <time>2023-04-24T14:19:41.000Z</time>
      </trkpt>
      <trkpt lat="45.83824" lon="4.70304">
        <ele>284.2193</ele>
        <time>2023-04-24T14:19:42.000Z</time>
      </trkpt>
      <trkpt lat="45.83825" lon="4.70309">
        <ele>284.21295</ele>
        <time>2023-04-24T14:19:43.000Z</time>
      </trkpt>
      <trkpt lat="45.83825" lon="4.70314">
        <ele>284.51862</ele>
        <time>2023-04-24T14:19:44.000Z</time>
      </trkpt>
      <trkpt lat="45.83826" lon="4.70318">
        <ele>284.80652</ele>
        <time>2023-04-24T14:19:45.000Z</time>
      </trkpt>
      <trkpt lat="45.83828" lon="4.70322">
        <ele>285.25302</ele>
        <time>2023-04-24T14:19:46.000Z</time>
      </trkpt>
      <trkpt lat="45.83829" lon="4.70327">
        <ele>285.71658</ele>
        <time>2023-04-24T14:19:47.000Z</time>
      </trkpt>
      <trkpt lat="45.8383" lon="4.70332">
        <ele>286.17438</ele>
        <time>2023-04-24T14:19:48.000Z</time>
      </trkpt>
      <trkpt lat="45.83831" lon="4.70335">
        <ele>286.64148</ele>
        <time>2023-04-24T14:19:49.000Z</time>
      </trkpt>
      <trkpt lat="45.83833" lon="4.70338">
        <ele>286.94525</ele>
        <time>2023-04-24T14:19:50.000Z</time>
      </trkpt>
      <trkpt lat="45.83833" lon="4.70341">
        <ele>287.12292</ele>
        <time>2023-04-24T14:19:51.000Z</time>
      </trkpt>
      <trkpt lat="45.83834" lon="4.70344">
        <ele>287.22964</ele>
        <time>2023-04-24T14:19:52.000Z</time>
      </trkpt>
      <trkpt lat="45.83835" lon="4.70347">
        <ele>287.30075</ele>
        <time>2023-04-24T14:19:53.000Z</time>
      </trkpt>
      <trkpt lat="45.83836" lon="4.7035">
        <ele>287.62296</ele>
        <time>2023-04-24T14:19:54.000Z</time>
      </trkpt>
      <trkpt lat="45.83838" lon="4.70353">
        <ele>287.85529</ele>
        <time>2023-04-24T14:19:55.000Z</time>
      </trkpt>
      <trkpt lat="45.83839" lon="4.70356">
        <ele>288.10724</ele>
        <time>2023-04-24T14:19:56.000Z</time>
      </trkpt>
      <trkpt lat="45.8384" lon="4.70359">
        <ele>288.31696</ele>
        <time>2023-04-24T14:19:57.000Z</time>
      </trkpt>
      <trkpt lat="45.8384" lon="4.70359">
        <ele>288.31696</ele>
        <time>2023-04-24T14:19:57.000Z</time>
      </trkpt>
      <trkpt lat="45.83852" lon="4.70513">
        <ele>288.21393</ele>
        <time>2023-04-24T14:20:43.000Z</time>
      </trkpt>
      <trkpt lat="45.83852" lon="4.70513">
        <ele>288.21393</ele>
        <time>2023-04-24T14:20:43.000Z</time>
      </trkpt>
      <trkpt lat="45.8385" lon="4.70514">
        <ele>288.14011</ele>
        <time>2023-04-24T14:20:44.000Z</time>
      </trkpt>
      <trkpt lat="45.83848" lon="4.70515">
        <ele>288.40863</ele>
        <time>2023-04-24T14:20:45.000Z</time>
      </trkpt>
      <trkpt lat="45.83846" lon="4.70517">
        <ele>288.64011</ele>
        <time>2023-04-24T14:20:46.000Z</time>
      </trkpt>
      <trkpt lat="45.83843" lon="4.70518">
        <ele>288.43695</ele>
        <time>2023-04-24T14:20:47.000Z</time>
      </trkpt>
      <trkpt lat="45.83841" lon="4.70521">
        <ele>288.28717</ele>
        <time>2023-04-24T14:20:48.000Z</time>
      </trkpt>
      <trkpt lat="45.83839" lon="4.70523">
        <ele>288.19211</ele>
        <time>2023-04-24T14:20:49.000Z</time>
      </trkpt>
      <trkpt lat="45.83836" lon="4.70524">
        <ele>288.03806</ele>
        <time>2023-04-24T14:20:50.000Z</time>
      </trkpt>
      <trkpt lat="45.83834" lon="4.70526">
        <ele>287.77216</ele>
        <time>2023-04-24T14:20:51.000Z</time>
      </trkpt>
      <trkpt lat="45.83831" lon="4.70528">
        <ele>287.46851</ele>
        <time>2023-04-24T14:20:52.000Z</time>
      </trkpt>
      <trkpt lat="45.83829" lon="4.7053">
        <ele>287.14273</ele>
        <time>2023-04-24T14:20:53.000Z</time>
      </trkpt>
      <trkpt lat="45.83826" lon="4.70531">
        <ele>286.81302</ele>
        <time>2023-04-24T14:20:54.000Z</time>
      </trkpt>
      <trkpt lat="45.83823" lon="4.70533">
        <ele>286.71323</ele>
        <time>2023-04-24T14:20:55.000Z</time>
      </trkpt>
      <trkpt lat="45.8382" lon="4.70535">
        <ele>286.56006</ele>
        <time>2023-04-24T14:20:56.000Z</time>
      </trkpt>
      <trkpt lat="45.83817" lon="4.70536">
        <ele>286.29282</ele>
        <time>2023-04-24T14:20:57.000Z</time>
      </trkpt>
      <trkpt lat="45.83815" lon="4.70538">
        <ele>286.05035</ele>
        <time>2023-04-24T14:20:58.000Z</time>
      </trkpt>
      <trkpt lat="45.83812" lon="4.70539">
        <ele>285.86285</ele>
        <time>2023-04-24T14:20:59.000Z</time>
      </trkpt>
      <trkpt lat="45.8381" lon="4.70542">
        <ele>285.66425</ele>
        <time>2023-04-24T14:21:00.000Z</time>
      </trkpt>
      <trkpt lat="45.83808" lon="4.70544">
        <ele>285.4267</ele>
        <time>2023-04-24T14:21:01.000Z</time>
      </trkpt>
      <trkpt lat="45.83805" lon="4.70547">
        <ele>285.21344</ele>
        <time>2023-04-24T14:21:02.000Z</time>
      </trkpt>
      <trkpt lat="45.83802" lon="4.70548">
        <ele>285.29504</ele>
        <time>2023-04-24T14:21:03.000Z</time>
      </trkpt>
      <trkpt lat="45.838" lon="4.7055">
        <ele>285.3736</ele>
        <time>2023-04-24T14:21:04.000Z</time>
      </trkpt>
      <trkpt lat="45.83797" lon="4.70551">
        <ele>285.39508</ele>
        <time>2023-04-24T14:21:05.000Z</time>
      </trkpt>
      <trkpt lat="45.83794" lon="4.70553">
        <ele>285.42413</ele>
        <time>2023-04-24T14:21:06.000Z</time>
      </trkpt>
      <trkpt lat="45.83791" lon="4.70555">
        <ele>285.48679</ele>
        <time>2023-04-24T14:21:07.000Z</time>
      </trkpt>
      <trkpt lat="45.83788" lon="4.70557">
        <ele>285.54355</ele>
        <time>2023-04-24T14:21:08.000Z</time>
      </trkpt>
      <trkpt lat="45.83785" lon="4.70559">
        <ele>285.58484</ele>
        <time>2023-04-24T14:21:09.000Z</time>
      </trkpt>
      <trkpt lat="45.83782" lon="4.70561">
        <ele>285.65973</ele>
        <time>2023-04-24T14:21:10.000Z</time>
      </trkpt>
      <trkpt lat="45.83779" lon="4.70563">
        <ele>285.7728</ele>
        <time>2023-04-24T14:21:11.000Z</time>
      </trkpt>
      <trkpt lat="45.83776" lon="4.70565">
        <ele>285.85898</ele>
        <time>2023-04-24T14:21:12.000Z</time>
      </trkpt>
      <trkpt lat="45.83773" lon="4.70567">
        <ele>285.9075</ele>
        <time>2023-04-24T14:21:13.000Z</time>
      </trkpt>
      <trkpt lat="45.8377" lon="4.70569">
        <ele>285.91565</ele>
        <time>2023-04-24T14:21:14.000Z</time>
      </trkpt>
      <trkpt lat="45.83767" lon="4.70571">
        <ele>285.89069</ele>
        <time>2023-04-24T14:21:15.000Z</time>
      </trkpt>
      <trkpt lat="45.83764" lon="4.70573">
        <ele>285.87042</ele>
        <time>2023-04-24T14:21:16.000Z</time>
      </trkpt>
      <trkpt lat="45.83761" lon="4.70574">
        <ele>285.92679</ele>
        <time>2023-04-24T14:21:17.000Z</time>
      </trkpt>
      <trkpt lat="45.83758" lon="4.70576">
        <ele>286.00015</ele>
        <time>2023-04-24T14:21:18.000Z</time>
      </trkpt>
      <trkpt lat="45.83755" lon="4.70577">
        <ele>285.94772</ele>
        <time>2023-04-24T14:21:19.000Z</time>
      </trkpt>
      <trkpt lat="45.83751" lon="4.70578">
        <ele>285.86853</ele>
        <time>2023-04-24T14:21:20.000Z</time>
      </trkpt>
      <trkpt lat="45.83747" lon="4.7058">
        <ele>285.89764</ele>
        <time>2023-04-24T14:21:21.000Z</time>
      </trkpt>
      <trkpt lat="45.83743" lon="4.70581">
        <ele>285.88712</ele>
        <time>2023-04-24T14:21:22.000Z</time>
      </trkpt>
      <trkpt lat="45.83739" lon="4.70583">
        <ele>285.83377</ele>
        <time>2023-04-24T14:21:23.000Z</time>
      </trkpt>
      <trkpt lat="45.83735" lon="4.70585">
        <ele>285.78473</ele>
        <time>2023-04-24T14:21:24.000Z</time>
      </trkpt>
      <trkpt lat="45.83731" lon="4.70586">
        <ele>285.80322</ele>
        <time>2023-04-24T14:21:25.000Z</time>
      </trkpt>
      <trkpt lat="45.83726" lon="4.70586">
        <ele>285.8252</ele>
        <time>2023-04-24T14:21:26.000Z</time>
      </trkpt>
      <trkpt lat="45.83722" lon="4.70587">
        <ele>285.84814</ele>
        <time>2023-04-24T14:21:27.000Z</time>
      </trkpt>
      <trkpt lat="45.83718" lon="4.70588">
        <ele>285.84061</ele>
        <time>2023-04-24T14:21:28.000Z</time>
      </trkpt>
      <trkpt lat="45.83713" lon="4.70589">
        <ele>285.81766</ele>
        <time>2023-04-24T14:21:29.000Z</time>
      </trkpt>
      <trkpt lat="45.83709" lon="4.70589">
        <ele>285.77036</ele>
        <time>2023-04-24T14:21:30.000Z</time>
      </trkpt>
      <trkpt lat="45.83705" lon="4.7059">
        <ele>285.71805</ele>
        <time>2023-04-24T14:21:31.000Z</time>
      </trkpt>
      <trkpt lat="45.83701" lon="4.70591">
        <ele>285.77802</ele>
        <time>2023-04-24T14:21:32.000Z</time>
      </trkpt>
      <trkpt lat="45.83696" lon="4.70591">
        <ele>285.83307</ele>
        <time>2023-04-24T14:21:33.000Z</time>
      </trkpt>
      <trkpt lat="45.83692" lon="4.7059">
        <ele>285.91867</ele>
        <time>2023-04-24T14:21:34.000Z</time>
      </trkpt>
      <trkpt lat="45.83688" lon="4.70591">
        <ele>285.98752</ele>
        <time>2023-04-24T14:21:35.000Z</time>
      </trkpt>
      <trkpt lat="45.83684" lon="4.70591">
        <ele>286.06299</ele>
        <time>2023-04-24T14:21:36.000Z</time>
      </trkpt>
      <trkpt lat="45.83679" lon="4.70593">
        <ele>286.06842</ele>
        <time>2023-04-24T14:21:37.000Z</time>
      </trkpt>
      <trkpt lat="45.83675" lon="4.70594">
        <ele>286.03839</ele>
        <time>2023-04-24T14:21:38.000Z</time>
      </trkpt>
      <trkpt lat="45.83671" lon="4.70595">
        <ele>286.02911</ele>
        <time>2023-04-24T14:21:39.000Z</time>
      </trkpt>
      <trkpt lat="45.83667" lon="4.70596">
        <ele>286.04453</ele>
        <time>2023-04-24T14:21:40.000Z</time>
      </trkpt>
      <trkpt lat="45.83662" lon="4.70599">
        <ele>286.12936</ele>
        <time>2023-04-24T14:21:41.000Z</time>
      </trkpt>
      <trkpt lat="45.83658" lon="4.70602">
        <ele>286.22952</ele>
        <time>2023-04-24T14:21:42.000Z</time>
      </trkpt>
      <trkpt lat="45.83653" lon="4.70604">
        <ele>286.35767</ele>
        <time>2023-04-24T14:21:43.000Z</time>
      </trkpt>
      <trkpt lat="45.83649" lon="4.70608">
        <ele>286.5079</ele>
        <time>2023-04-24T14:21:44.000Z</time>
      </trkpt>
      <trkpt lat="45.83645" lon="4.70611">
        <ele>286.65152</ele>
        <time>2023-04-24T14:21:45.000Z</time>
      </trkpt>
      <trkpt lat="45.8364" lon="4.70614">
        <ele>286.80859</ele>
        <time>2023-04-24T14:21:46.000Z</time>
      </trkpt>
      <trkpt lat="45.83635" lon="4.70617">
        <ele>286.97928</ele>
        <time>2023-04-24T14:21:47.000Z</time>
      </trkpt>
      <trkpt lat="45.8363" lon="4.70619">
        <ele>287.17838</ele>
        <time>2023-04-24T14:21:48.000Z</time>
      </trkpt>
      <trkpt lat="45.83625" lon="4.70619">
        <ele>287.80826</ele>
        <time>2023-04-24T14:21:49.000Z</time>
      </trkpt>
      <trkpt lat="45.8362" lon="4.7062">
        <ele>288.4693</ele>
        <time>2023-04-24T14:21:50.000Z</time>
      </trkpt>
      <trkpt lat="45.83615" lon="4.70618">
        <ele>289.11981</ele>
        <time>2023-04-24T14:21:51.000Z</time>
      </trkpt>
      <trkpt lat="45.83609" lon="4.70616">
        <ele>289.65793</ele>
        <time>2023-04-24T14:21:52.000Z</time>
      </trkpt>
      <trkpt lat="45.83604" lon="4.70614">
        <ele>290.22458</ele>
        <time>2023-04-24T14:21:53.000Z</time>
      </trkpt>
      <trkpt lat="45.83598" lon="4.70612">
        <ele>290.76752</ele>
        <time>2023-04-24T14:21:54.000Z</time>
      </trkpt>
      <trkpt lat="45.83592" lon="4.7061">
        <ele>291.33923</ele>
        <time>2023-04-24T14:21:55.000Z</time>
      </trkpt>
      <trkpt lat="45.83586" lon="4.70609">
        <ele>291.90179</ele>
        <time>2023-04-24T14:21:56.000Z</time>
      </trkpt>
      <trkpt lat="45.83581" lon="4.70608">
        <ele>292.55609</ele>
        <time>2023-04-24T14:21:57.000Z</time>
      </trkpt>
      <trkpt lat="45.83575" lon="4.70608">
        <ele>293.22226</ele>
        <time>2023-04-24T14:21:58.000Z</time>
      </trkpt>
      <trkpt lat="45.83569" lon="4.70608">
        <ele>293.91318</ele>
        <time>2023-04-24T14:21:59.000Z</time>
      </trkpt>
      <trkpt lat="45.83564" lon="4.70608">
        <ele>294.62296</ele>
        <time>2023-04-24T14:22:00.000Z</time>
      </trkpt>
      <trkpt lat="45.83558" lon="4.70608">
        <ele>295.14154</ele>
        <time>2023-04-24T14:22:01.000Z</time>
      </trkpt>
      <trkpt lat="45.83552" lon="4.70608">
        <ele>295.66229</ele>
        <time>2023-04-24T14:22:02.000Z</time>
      </trkpt>
      <trkpt lat="45.83546" lon="4.70608">
        <ele>296.18768</ele>
        <time>2023-04-24T14:22:03.000Z</time>
      </trkpt>
      <trkpt lat="45.8354" lon="4.70608">
        <ele>296.68115</ele>
        <time>2023-04-24T14:22:04.000Z</time>
      </trkpt>
      <trkpt lat="45.83534" lon="4.70608">
        <ele>297.18161</ele>
        <time>2023-04-24T14:22:05.000Z</time>
      </trkpt>
      <trkpt lat="45.83528" lon="4.70608">
        <ele>297.64169</ele>
        <time>2023-04-24T14:22:06.000Z</time>
      </trkpt>
      <trkpt lat="45.83522" lon="4.70609">
        <ele>298.08832</ele>
        <time>2023-04-24T14:22:07.000Z</time>
      </trkpt>
      <trkpt lat="45.83516" lon="4.7061">
        <ele>298.58557</ele>
        <time>2023-04-24T14:22:08.000Z</time>
      </trkpt>
      <trkpt lat="45.83509" lon="4.7061">
        <ele>298.65039</ele>
        <time>2023-04-24T14:22:09.000Z</time>
      </trkpt>
      <trkpt lat="45.83504" lon="4.7061">
        <ele>298.69904</ele>
        <time>2023-04-24T14:22:10.000Z</time>
      </trkpt>
      <trkpt lat="45.83498" lon="4.70611">
        <ele>298.7464</ele>
        <time>2023-04-24T14:22:11.000Z</time>
      </trkpt>
      <trkpt lat="45.83493" lon="4.70611">
        <ele>298.80072</ele>
        <time>2023-04-24T14:22:12.000Z</time>
      </trkpt>
      <trkpt lat="45.83487" lon="4.70612">
        <ele>298.85507</ele>
        <time>2023-04-24T14:22:13.000Z</time>
      </trkpt>
      <trkpt lat="45.83481" lon="4.70612">
        <ele>298.93161</ele>
        <time>2023-04-24T14:22:14.000Z</time>
      </trkpt>
      <trkpt lat="45.83475" lon="4.70613">
        <ele>299.00882</ele>
        <time>2023-04-24T14:22:15.000Z</time>
      </trkpt>
      <trkpt lat="45.8347" lon="4.70614">
        <ele>299.10059</ele>
        <time>2023-04-24T14:22:16.000Z</time>
      </trkpt>
      <trkpt lat="45.83465" lon="4.70613">
        <ele>299.18515</ele>
        <time>2023-04-24T14:22:17.000Z</time>
      </trkpt>
      <trkpt lat="45.83459" lon="4.70612">
        <ele>299.28363</ele>
        <time>2023-04-24T14:22:18.000Z</time>
      </trkpt>
      <trkpt lat="45.83454" lon="4.70612">
        <ele>299.38339</ele>
        <time>2023-04-24T14:22:19.000Z</time>
      </trkpt>
      <trkpt lat="45.83449" lon="4.70611">
        <ele>299.4931</ele>
        <time>2023-04-24T14:22:20.000Z</time>
      </trkpt>
      <trkpt lat="45.83443" lon="4.7061">
        <ele>299.62619</ele>
        <time>2023-04-24T14:22:21.000Z</time>
      </trkpt>
      <trkpt lat="45.83438" lon="4.7061">
        <ele>299.78806</ele>
        <time>2023-04-24T14:22:22.000Z</time>
      </trkpt>
      <trkpt lat="45.83432" lon="4.70608">
        <ele>299.93686</ele>
        <time>2023-04-24T14:22:23.000Z</time>
      </trkpt>
      <trkpt lat="45.83427" lon="4.70607">
        <ele>300.05942</ele>
        <time>2023-04-24T14:22:24.000Z</time>
      </trkpt>
      <trkpt lat="45.8342" lon="4.70606">
        <ele>300.18677</ele>
        <time>2023-04-24T14:22:25.000Z</time>
      </trkpt>
      <trkpt lat="45.83414" lon="4.70604">
        <ele>300.29263</ele>
        <time>2023-04-24T14:22:26.000Z</time>
      </trkpt>
      <trkpt lat="45.83408" lon="4.70603">
        <ele>300.40222</ele>
        <time>2023-04-24T14:22:27.000Z</time>
      </trkpt>
      <trkpt lat="45.83403" lon="4.70602">
        <ele>300.48965</ele>
        <time>2023-04-24T14:22:28.000Z</time>
      </trkpt>
      <trkpt lat="45.83397" lon="4.70601">
        <ele>300.59857</ele>
        <time>2023-04-24T14:22:29.000Z</time>
      </trkpt>
      <trkpt lat="45.83392" lon="4.706">
        <ele>300.72052</ele>
        <time>2023-04-24T14:22:30.000Z</time>
      </trkpt>
      <trkpt lat="45.83387" lon="4.70599">
        <ele>300.84216</ele>
        <time>2023-04-24T14:22:31.000Z</time>
      </trkpt>
      <trkpt lat="45.83381" lon="4.70599">
        <ele>300.95978</ele>
        <time>2023-04-24T14:22:32.000Z</time>
      </trkpt>
      <trkpt lat="45.83376" lon="4.70598">
        <ele>301.07806</ele>
        <time>2023-04-24T14:22:33.000Z</time>
      </trkpt>
      <trkpt lat="45.83371" lon="4.70597">
        <ele>301.20441</ele>
        <time>2023-04-24T14:22:34.000Z</time>
      </trkpt>
      <trkpt lat="45.83366" lon="4.70597">
        <ele>301.30588</ele>
        <time>2023-04-24T14:22:35.000Z</time>
      </trkpt>
      <trkpt lat="45.83362" lon="4.70598">
        <ele>301.43835</ele>
        <time>2023-04-24T14:22:36.000Z</time>
      </trkpt>
      <trkpt lat="45.83359" lon="4.70597">
        <ele>301.56686</ele>
        <time>2023-04-24T14:22:37.000Z</time>
      </trkpt>
      <trkpt lat="45.83357" lon="4.70599">
        <ele>301.63492</ele>
        <time>2023-04-24T14:22:38.000Z</time>
      </trkpt>
      <trkpt lat="45.83355" lon="4.70599">
        <ele>301.50806</ele>
        <time>2023-04-24T14:22:39.000Z</time>
      </trkpt>
      <trkpt lat="45.83353" lon="4.70599">
        <ele>301.38019</ele>
        <time>2023-04-24T14:22:40.000Z</time>
      </trkpt>
      <trkpt lat="45.83352" lon="4.70601">
        <ele>301.2243</ele>
        <time>2023-04-24T14:22:41.000Z</time>
      </trkpt>
      <trkpt lat="45.83351" lon="4.70605">
        <ele>301.35565</ele>
        <time>2023-04-24T14:22:42.000Z</time>
      </trkpt>
      <trkpt lat="45.83351" lon="4.7061">
        <ele>301.49756</ele>
        <time>2023-04-24T14:22:52.000Z</time>
      </trkpt>
      <trkpt lat="45.8335" lon="4.70613">
        <ele>301.66187</ele>
        <time>2023-04-24T14:22:53.000Z</time>
      </trkpt>
      <trkpt lat="45.8335" lon="4.70618">
        <ele>301.80142</ele>
        <time>2023-04-24T14:22:54.000Z</time>
      </trkpt>
      <trkpt lat="45.8335" lon="4.70624">
        <ele>301.98587</ele>
        <time>2023-04-24T14:22:55.000Z</time>
      </trkpt>
      <trkpt lat="45.83351" lon="4.70629">
        <ele>302.17017</ele>
        <time>2023-04-24T14:22:56.000Z</time>
      </trkpt>
      <trkpt lat="45.83352" lon="4.70635">
        <ele>302.35681</ele>
        <time>2023-04-24T14:22:57.000Z</time>
      </trkpt>
      <trkpt lat="45.83352" lon="4.70642">
        <ele>302.44611</ele>
        <time>2023-04-24T14:22:58.000Z</time>
      </trkpt>
      <trkpt lat="45.83351" lon="4.7065">
        <ele>302.54034</ele>
        <time>2023-04-24T14:22:59.000Z</time>
      </trkpt>
      <trkpt lat="45.8335" lon="4.70657">
        <ele>302.66852</ele>
        <time>2023-04-24T14:23:00.000Z</time>
      </trkpt>
      <trkpt lat="45.8335" lon="4.70664">
        <ele>302.8111</ele>
        <time>2023-04-24T14:23:01.000Z</time>
      </trkpt>
      <trkpt lat="45.8335" lon="4.70671">
        <ele>302.96945</ele>
        <time>2023-04-24T14:23:02.000Z</time>
      </trkpt>
      <trkpt lat="45.83349" lon="4.70678">
        <ele>303.12811</ele>
        <time>2023-04-24T14:23:03.000Z</time>
      </trkpt>
      <trkpt lat="45.83348" lon="4.70685">
        <ele>303.27008</ele>
        <time>2023-04-24T14:23:04.000Z</time>
      </trkpt>
      <trkpt lat="45.83347" lon="4.70692">
        <ele>303.37582</ele>
        <time>2023-04-24T14:23:05.000Z</time>
      </trkpt>
      <trkpt lat="45.83347" lon="4.70699">
        <ele>303.50455</ele>
        <time>2023-04-24T14:23:06.000Z</time>
      </trkpt>
      <trkpt lat="45.83347" lon="4.70705">
        <ele>303.6394</ele>
        <time>2023-04-24T14:23:07.000Z</time>
      </trkpt>
      <trkpt lat="45.83346" lon="4.70712">
        <ele>303.97913</ele>
        <time>2023-04-24T14:23:08.000Z</time>
      </trkpt>
      <trkpt lat="45.83346" lon="4.70719">
        <ele>304.31628</ele>
        <time>2023-04-24T14:23:09.000Z</time>
      </trkpt>
      <trkpt lat="45.83346" lon="4.70726">
        <ele>304.67926</ele>
        <time>2023-04-24T14:23:10.000Z</time>
      </trkpt>
      <trkpt lat="45.83345" lon="4.70734">
        <ele>304.78409</ele>
        <time>2023-04-24T14:23:11.000Z</time>
      </trkpt>
      <trkpt lat="45.83344" lon="4.7074">
        <ele>304.93686</ele>
        <time>2023-04-24T14:23:12.000Z</time>
      </trkpt>
      <trkpt lat="45.83344" lon="4.70747">
        <ele>305.09482</ele>
        <time>2023-04-24T14:23:13.000Z</time>
      </trkpt>
      <trkpt lat="45.83344" lon="4.70755">
        <ele>305.24554</ele>
        <time>2023-04-24T14:23:14.000Z</time>
      </trkpt>
      <trkpt lat="45.83343" lon="4.70761">
        <ele>305.29965</ele>
        <time>2023-04-24T14:23:15.000Z</time>
      </trkpt>
      <trkpt lat="45.83343" lon="4.70767">
        <ele>305.36136</ele>
        <time>2023-04-24T14:23:16.000Z</time>
      </trkpt>
      <trkpt lat="45.83343" lon="4.70773">
        <ele>305.40924</ele>
        <time>2023-04-24T14:23:17.000Z</time>
      </trkpt>
      <trkpt lat="45.83343" lon="4.7078">
        <ele>305.53278</ele>
        <time>2023-04-24T14:23:18.000Z</time>
      </trkpt>
      <trkpt lat="45.83342" lon="4.70787">
        <ele>305.62491</ele>
        <time>2023-04-24T14:23:19.000Z</time>
      </trkpt>
      <trkpt lat="45.83341" lon="4.70793">
        <ele>305.6774</ele>
        <time>2023-04-24T14:23:20.000Z</time>
      </trkpt>
      <trkpt lat="45.83341" lon="4.708">
        <ele>305.72443</ele>
        <time>2023-04-24T14:23:21.000Z</time>
      </trkpt>
      <trkpt lat="45.83341" lon="4.70806">
        <ele>305.73349</ele>
        <time>2023-04-24T14:23:22.000Z</time>
      </trkpt>
      <trkpt lat="45.83341" lon="4.70812">
        <ele>305.73608</ele>
        <time>2023-04-24T14:23:23.000Z</time>
      </trkpt>
      <trkpt lat="45.83339" lon="4.70818">
        <ele>305.7298</ele>
        <time>2023-04-24T14:23:24.000Z</time>
      </trkpt>
      <trkpt lat="45.83338" lon="4.70824">
        <ele>305.7052</ele>
        <time>2023-04-24T14:23:25.000Z</time>
      </trkpt>
      <trkpt lat="45.83338" lon="4.70831">
        <ele>305.60815</ele>
        <time>2023-04-24T14:23:26.000Z</time>
      </trkpt>
      <trkpt lat="45.83338" lon="4.70836">
        <ele>305.55243</ele>
        <time>2023-04-24T14:23:27.000Z</time>
      </trkpt>
      <trkpt lat="45.83337" lon="4.70841">
        <ele>305.54156</ele>
        <time>2023-04-24T14:23:28.000Z</time>
      </trkpt>
      <trkpt lat="45.83337" lon="4.70847">
        <ele>305.53006</ele>
        <time>2023-04-24T14:23:29.000Z</time>
      </trkpt>
      <trkpt lat="45.83336" lon="4.70852">
        <ele>305.53693</ele>
        <time>2023-04-24T14:23:30.000Z</time>
      </trkpt>
      <trkpt lat="45.83336" lon="4.70857">
        <ele>305.47678</ele>
        <time>2023-04-24T14:23:31.000Z</time>
      </trkpt>
      <trkpt lat="45.83335" lon="4.70862">
        <ele>305.35907</ele>
        <time>2023-04-24T14:23:32.000Z</time>
      </trkpt>
      <trkpt lat="45.83335" lon="4.70866">
        <ele>305.25372</ele>
        <time>2023-04-24T14:23:33.000Z</time>
      </trkpt>
      <trkpt lat="45.83335" lon="4.70869">
        <ele>305.24323</ele>
        <time>2023-04-24T14:23:34.000Z</time>
      </trkpt>
      <trkpt lat="45.83334" lon="4.70874">
        <ele>305.33463</ele>
        <time>2023-04-24T14:23:36.000Z</time>
      </trkpt>
    </trkseg>
  </trk>
</gpx>